<?xml version="1.0" encoding="UTF-8" standalone="no" ?>
<gpx xmlns="http://www.topografix.com/GPX/1/1" creator="www.cicloide.com" version="1.1" xmlns:xsi="http://www.w3.org/2001/XMLSchema-instance" xsi:schemaLocation="http://www.topografix.com/GPX/1/1 http://www.topografix.com/GPX/1/1/gpx.xsd">
  <trk>
    <name>www.cicloide.com 19913</name>
    <desc>www.cicloide.com 19913</desc>
    <trkseg>
      <trkpt lat="42.459174000" lon="-2.464798000">
        <ele>402.40</ele>
        <time>2014-11-01T06:59:33Z</time>
      </trkpt>
      <trkpt lat="42.459024000" lon="-2.465240000">
        <ele>402.40</ele>
        <time>2014-11-01T07:00:09Z</time>
      </trkpt>
      <trkpt lat="42.459175000" lon="-2.465407000">
        <ele>402.40</ele>
        <time>2014-11-01T07:00:29Z</time>
      </trkpt>
      <trkpt lat="42.459131000" lon="-2.465464000">
        <ele>402.40</ele>
        <time>2014-11-01T07:00:33Z</time>
      </trkpt>
      <trkpt lat="42.459102000" lon="-2.465479000">
        <ele>402.40</ele>
        <time>2014-11-01T07:00:36Z</time>
      </trkpt>
      <trkpt lat="42.459100000" lon="-2.465480000">
        <ele>402.40</ele>
        <time>2014-11-01T07:00:37Z</time>
      </trkpt>
      <trkpt lat="42.459094000" lon="-2.465485000">
        <ele>402.40</ele>
        <time>2014-11-01T07:00:39Z</time>
      </trkpt>
      <trkpt lat="42.459083000" lon="-2.465492000">
        <ele>402.40</ele>
        <time>2014-11-01T07:00:42Z</time>
      </trkpt>
      <trkpt lat="42.459077000" lon="-2.465494000">
        <ele>402.40</ele>
        <time>2014-11-01T07:00:43Z</time>
      </trkpt>
      <trkpt lat="42.459070000" lon="-2.465494000">
        <ele>402.40</ele>
        <time>2014-11-01T07:00:44Z</time>
      </trkpt>
      <trkpt lat="42.459068000" lon="-2.465495000">
        <ele>402.40</ele>
        <time>2014-11-01T07:00:45Z</time>
      </trkpt>
      <trkpt lat="42.459067000" lon="-2.465496000">
        <ele>402.40</ele>
        <time>2014-11-01T07:00:46Z</time>
      </trkpt>
      <trkpt lat="42.459068000" lon="-2.465496000">
        <ele>402.40</ele>
        <time>2014-11-01T07:00:47Z</time>
      </trkpt>
      <trkpt lat="42.459073000" lon="-2.465496000">
        <ele>402.40</ele>
        <time>2014-11-01T07:00:49Z</time>
      </trkpt>
      <trkpt lat="42.459082000" lon="-2.465496000">
        <ele>402.40</ele>
        <time>2014-11-01T07:00:53Z</time>
      </trkpt>
      <trkpt lat="42.459110000" lon="-2.465485000">
        <ele>402.40</ele>
        <time>2014-11-01T07:00:57Z</time>
      </trkpt>
      <trkpt lat="42.459142000" lon="-2.465464000">
        <ele>402.40</ele>
        <time>2014-11-01T07:01:01Z</time>
      </trkpt>
      <trkpt lat="42.459097000" lon="-2.465434000">
        <ele>402.40</ele>
        <time>2014-11-01T07:01:04Z</time>
      </trkpt>
      <trkpt lat="42.459083000" lon="-2.465418000">
        <ele>402.40</ele>
        <time>2014-11-01T07:01:05Z</time>
      </trkpt>
      <trkpt lat="42.459077000" lon="-2.465405000">
        <ele>402.40</ele>
        <time>2014-11-01T07:01:06Z</time>
      </trkpt>
      <trkpt lat="42.459071000" lon="-2.465393000">
        <ele>402.40</ele>
        <time>2014-11-01T07:01:07Z</time>
      </trkpt>
      <trkpt lat="42.459066000" lon="-2.465381000">
        <ele>402.40</ele>
        <time>2014-11-01T07:01:08Z</time>
      </trkpt>
      <trkpt lat="42.459062000" lon="-2.465370000">
        <ele>402.40</ele>
        <time>2014-11-01T07:01:09Z</time>
      </trkpt>
      <trkpt lat="42.459060000" lon="-2.465364000">
        <ele>402.40</ele>
        <time>2014-11-01T07:01:10Z</time>
      </trkpt>
      <trkpt lat="42.459058000" lon="-2.465359000">
        <ele>402.40</ele>
        <time>2014-11-01T07:01:11Z</time>
      </trkpt>
      <trkpt lat="42.459055000" lon="-2.465355000">
        <ele>402.40</ele>
        <time>2014-11-01T07:01:12Z</time>
      </trkpt>
      <trkpt lat="42.459052000" lon="-2.465351000">
        <ele>402.40</ele>
        <time>2014-11-01T07:01:13Z</time>
      </trkpt>
      <trkpt lat="42.459045000" lon="-2.465349000">
        <ele>402.40</ele>
        <time>2014-11-01T07:01:14Z</time>
      </trkpt>
      <trkpt lat="42.459037000" lon="-2.465348000">
        <ele>402.40</ele>
        <time>2014-11-01T07:01:15Z</time>
      </trkpt>
      <trkpt lat="42.459027000" lon="-2.465351000">
        <ele>402.40</ele>
        <time>2014-11-01T07:01:16Z</time>
      </trkpt>
      <trkpt lat="42.459018000" lon="-2.465356000">
        <ele>402.40</ele>
        <time>2014-11-01T07:01:17Z</time>
      </trkpt>
      <trkpt lat="42.459008000" lon="-2.465359000">
        <ele>402.40</ele>
        <time>2014-11-01T07:01:18Z</time>
      </trkpt>
      <trkpt lat="42.458999000" lon="-2.465363000">
        <ele>402.40</ele>
        <time>2014-11-01T07:01:19Z</time>
      </trkpt>
      <trkpt lat="42.458991000" lon="-2.465366000">
        <ele>402.40</ele>
        <time>2014-11-01T07:01:20Z</time>
      </trkpt>
      <trkpt lat="42.458984000" lon="-2.465369000">
        <ele>402.40</ele>
        <time>2014-11-01T07:01:21Z</time>
      </trkpt>
      <trkpt lat="42.458979000" lon="-2.465373000">
        <ele>402.40</ele>
        <time>2014-11-01T07:01:22Z</time>
      </trkpt>
      <trkpt lat="42.458975000" lon="-2.465376000">
        <ele>402.40</ele>
        <time>2014-11-01T07:01:23Z</time>
      </trkpt>
      <trkpt lat="42.458972000" lon="-2.465377000">
        <ele>402.40</ele>
        <time>2014-11-01T07:01:24Z</time>
      </trkpt>
      <trkpt lat="42.458969000" lon="-2.465378000">
        <ele>402.40</ele>
        <time>2014-11-01T07:01:25Z</time>
      </trkpt>
      <trkpt lat="42.458966000" lon="-2.465377000">
        <ele>402.40</ele>
        <time>2014-11-01T07:01:26Z</time>
      </trkpt>
      <trkpt lat="42.458965000" lon="-2.465374000">
        <ele>402.40</ele>
        <time>2014-11-01T07:01:27Z</time>
      </trkpt>
      <trkpt lat="42.458963000" lon="-2.465370000">
        <ele>402.40</ele>
        <time>2014-11-01T07:01:28Z</time>
      </trkpt>
      <trkpt lat="42.458961000" lon="-2.465365000">
        <ele>402.40</ele>
        <time>2014-11-01T07:01:29Z</time>
      </trkpt>
      <trkpt lat="42.458955000" lon="-2.465361000">
        <ele>402.40</ele>
        <time>2014-11-01T07:01:31Z</time>
      </trkpt>
      <trkpt lat="42.458952000" lon="-2.465355000">
        <ele>402.40</ele>
        <time>2014-11-01T07:01:32Z</time>
      </trkpt>
      <trkpt lat="42.458948000" lon="-2.465350000">
        <ele>402.40</ele>
        <time>2014-11-01T07:01:33Z</time>
      </trkpt>
      <trkpt lat="42.458944000" lon="-2.465348000">
        <ele>402.40</ele>
        <time>2014-11-01T07:01:34Z</time>
      </trkpt>
      <trkpt lat="42.458940000" lon="-2.465346000">
        <ele>402.40</ele>
        <time>2014-11-01T07:01:35Z</time>
      </trkpt>
      <trkpt lat="42.458936000" lon="-2.465344000">
        <ele>402.40</ele>
        <time>2014-11-01T07:01:36Z</time>
      </trkpt>
      <trkpt lat="42.458932000" lon="-2.465345000">
        <ele>402.40</ele>
        <time>2014-11-01T07:01:37Z</time>
      </trkpt>
      <trkpt lat="42.458933000" lon="-2.465346000">
        <ele>402.40</ele>
        <time>2014-11-01T07:01:38Z</time>
      </trkpt>
      <trkpt lat="42.458935000" lon="-2.465348000">
        <ele>402.40</ele>
        <time>2014-11-01T07:01:39Z</time>
      </trkpt>
      <trkpt lat="42.458934000" lon="-2.465349000">
        <ele>402.40</ele>
        <time>2014-11-01T07:01:40Z</time>
      </trkpt>
      <trkpt lat="42.458935000" lon="-2.465351000">
        <ele>402.40</ele>
        <time>2014-11-01T07:01:41Z</time>
      </trkpt>
      <trkpt lat="42.458936000" lon="-2.465351000">
        <ele>402.40</ele>
        <time>2014-11-01T07:01:42Z</time>
      </trkpt>
      <trkpt lat="42.458940000" lon="-2.465349000">
        <ele>402.40</ele>
        <time>2014-11-01T07:01:43Z</time>
      </trkpt>
      <trkpt lat="42.458946000" lon="-2.465349000">
        <ele>402.40</ele>
        <time>2014-11-01T07:01:44Z</time>
      </trkpt>
      <trkpt lat="42.458953000" lon="-2.465349000">
        <ele>402.40</ele>
        <time>2014-11-01T07:01:45Z</time>
      </trkpt>
      <trkpt lat="42.458960000" lon="-2.465349000">
        <ele>402.40</ele>
        <time>2014-11-01T07:01:46Z</time>
      </trkpt>
      <trkpt lat="42.458966000" lon="-2.465352000">
        <ele>402.40</ele>
        <time>2014-11-01T07:01:47Z</time>
      </trkpt>
      <trkpt lat="42.458972000" lon="-2.465353000">
        <ele>402.40</ele>
        <time>2014-11-01T07:01:48Z</time>
      </trkpt>
      <trkpt lat="42.458977000" lon="-2.465355000">
        <ele>402.40</ele>
        <time>2014-11-01T07:01:49Z</time>
      </trkpt>
      <trkpt lat="42.458980000" lon="-2.465356000">
        <ele>402.40</ele>
        <time>2014-11-01T07:01:50Z</time>
      </trkpt>
      <trkpt lat="42.458983000" lon="-2.465360000">
        <ele>402.40</ele>
        <time>2014-11-01T07:01:51Z</time>
      </trkpt>
      <trkpt lat="42.458985000" lon="-2.465362000">
        <ele>402.40</ele>
        <time>2014-11-01T07:01:52Z</time>
      </trkpt>
      <trkpt lat="42.458987000" lon="-2.465365000">
        <ele>402.40</ele>
        <time>2014-11-01T07:01:53Z</time>
      </trkpt>
      <trkpt lat="42.458990000" lon="-2.465368000">
        <ele>402.40</ele>
        <time>2014-11-01T07:01:54Z</time>
      </trkpt>
      <trkpt lat="42.458992000" lon="-2.465375000">
        <ele>402.40</ele>
        <time>2014-11-01T07:01:55Z</time>
      </trkpt>
      <trkpt lat="42.458982000" lon="-2.465381000">
        <ele>402.40</ele>
        <time>2014-11-01T07:01:56Z</time>
      </trkpt>
      <trkpt lat="42.458970000" lon="-2.465386000">
        <ele>402.40</ele>
        <time>2014-11-01T07:01:57Z</time>
      </trkpt>
      <trkpt lat="42.458958000" lon="-2.465389000">
        <ele>402.40</ele>
        <time>2014-11-01T07:01:58Z</time>
      </trkpt>
      <trkpt lat="42.458950000" lon="-2.465392000">
        <ele>402.40</ele>
        <time>2014-11-01T07:01:59Z</time>
      </trkpt>
      <trkpt lat="42.458943000" lon="-2.465400000">
        <ele>402.40</ele>
        <time>2014-11-01T07:02:00Z</time>
      </trkpt>
      <trkpt lat="42.458939000" lon="-2.465408000">
        <ele>402.40</ele>
        <time>2014-11-01T07:02:01Z</time>
      </trkpt>
      <trkpt lat="42.458939000" lon="-2.465412000">
        <ele>402.40</ele>
        <time>2014-11-01T07:02:02Z</time>
      </trkpt>
      <trkpt lat="42.458939000" lon="-2.465418000">
        <ele>402.40</ele>
        <time>2014-11-01T07:02:03Z</time>
      </trkpt>
      <trkpt lat="42.458938000" lon="-2.465424000">
        <ele>402.40</ele>
        <time>2014-11-01T07:02:04Z</time>
      </trkpt>
      <trkpt lat="42.458938000" lon="-2.465430000">
        <ele>402.40</ele>
        <time>2014-11-01T07:02:05Z</time>
      </trkpt>
      <trkpt lat="42.458936000" lon="-2.465434000">
        <ele>402.40</ele>
        <time>2014-11-01T07:02:06Z</time>
      </trkpt>
      <trkpt lat="42.458933000" lon="-2.465438000">
        <ele>402.40</ele>
        <time>2014-11-01T07:02:07Z</time>
      </trkpt>
      <trkpt lat="42.458930000" lon="-2.465440000">
        <ele>402.40</ele>
        <time>2014-11-01T07:02:08Z</time>
      </trkpt>
      <trkpt lat="42.458910000" lon="-2.465457000">
        <ele>402.40</ele>
        <time>2014-11-01T07:02:09Z</time>
      </trkpt>
      <trkpt lat="42.458893000" lon="-2.465467000">
        <ele>402.40</ele>
        <time>2014-11-01T07:02:10Z</time>
      </trkpt>
      <trkpt lat="42.458880000" lon="-2.465472000">
        <ele>402.40</ele>
        <time>2014-11-01T07:02:11Z</time>
      </trkpt>
      <trkpt lat="42.458871000" lon="-2.465474000">
        <ele>402.40</ele>
        <time>2014-11-01T07:02:12Z</time>
      </trkpt>
      <trkpt lat="42.458867000" lon="-2.465473000">
        <ele>402.40</ele>
        <time>2014-11-01T07:02:13Z</time>
      </trkpt>
      <trkpt lat="42.458863000" lon="-2.465471000">
        <ele>402.40</ele>
        <time>2014-11-01T07:02:14Z</time>
      </trkpt>
      <trkpt lat="42.458859000" lon="-2.465469000">
        <ele>402.40</ele>
        <time>2014-11-01T07:02:15Z</time>
      </trkpt>
      <trkpt lat="42.458854000" lon="-2.465471000">
        <ele>402.40</ele>
        <time>2014-11-01T07:02:16Z</time>
      </trkpt>
      <trkpt lat="42.458852000" lon="-2.465475000">
        <ele>402.40</ele>
        <time>2014-11-01T07:02:17Z</time>
      </trkpt>
      <trkpt lat="42.458850000" lon="-2.465480000">
        <ele>402.40</ele>
        <time>2014-11-01T07:02:18Z</time>
      </trkpt>
      <trkpt lat="42.458848000" lon="-2.465485000">
        <ele>402.40</ele>
        <time>2014-11-01T07:02:19Z</time>
      </trkpt>
      <trkpt lat="42.458848000" lon="-2.465488000">
        <ele>402.40</ele>
        <time>2014-11-01T07:02:20Z</time>
      </trkpt>
      <trkpt lat="42.458849000" lon="-2.465490000">
        <ele>402.40</ele>
        <time>2014-11-01T07:02:21Z</time>
      </trkpt>
      <trkpt lat="42.458851000" lon="-2.465490000">
        <ele>402.40</ele>
        <time>2014-11-01T07:02:22Z</time>
      </trkpt>
      <trkpt lat="42.458855000" lon="-2.465482000">
        <ele>402.40</ele>
        <time>2014-11-01T07:02:23Z</time>
      </trkpt>
      <trkpt lat="42.458858000" lon="-2.465481000">
        <ele>402.40</ele>
        <time>2014-11-01T07:02:24Z</time>
      </trkpt>
      <trkpt lat="42.458859000" lon="-2.465481000">
        <ele>402.40</ele>
        <time>2014-11-01T07:02:25Z</time>
      </trkpt>
      <trkpt lat="42.458861000" lon="-2.465473000">
        <ele>402.40</ele>
        <time>2014-11-01T07:02:26Z</time>
      </trkpt>
      <trkpt lat="42.458866000" lon="-2.465467000">
        <ele>402.40</ele>
        <time>2014-11-01T07:02:27Z</time>
      </trkpt>
      <trkpt lat="42.458870000" lon="-2.465465000">
        <ele>402.40</ele>
        <time>2014-11-01T07:02:28Z</time>
      </trkpt>
      <trkpt lat="42.458875000" lon="-2.465456000">
        <ele>402.40</ele>
        <time>2014-11-01T07:02:29Z</time>
      </trkpt>
      <trkpt lat="42.458876000" lon="-2.465450000">
        <ele>402.40</ele>
        <time>2014-11-01T07:02:30Z</time>
      </trkpt>
      <trkpt lat="42.458874000" lon="-2.465440000">
        <ele>402.40</ele>
        <time>2014-11-01T07:02:32Z</time>
      </trkpt>
      <trkpt lat="42.458872000" lon="-2.465437000">
        <ele>402.40</ele>
        <time>2014-11-01T07:02:33Z</time>
      </trkpt>
      <trkpt lat="42.458868000" lon="-2.465434000">
        <ele>402.40</ele>
        <time>2014-11-01T07:02:34Z</time>
      </trkpt>
      <trkpt lat="42.458866000" lon="-2.465431000">
        <ele>402.40</ele>
        <time>2014-11-01T07:02:35Z</time>
      </trkpt>
      <trkpt lat="42.458863000" lon="-2.465428000">
        <ele>402.40</ele>
        <time>2014-11-01T07:02:36Z</time>
      </trkpt>
      <trkpt lat="42.458861000" lon="-2.465422000">
        <ele>402.40</ele>
        <time>2014-11-01T07:02:37Z</time>
      </trkpt>
      <trkpt lat="42.458856000" lon="-2.465420000">
        <ele>402.40</ele>
        <time>2014-11-01T07:02:38Z</time>
      </trkpt>
      <trkpt lat="42.458851000" lon="-2.465419000">
        <ele>402.40</ele>
        <time>2014-11-01T07:02:39Z</time>
      </trkpt>
      <trkpt lat="42.458846000" lon="-2.465415000">
        <ele>402.40</ele>
        <time>2014-11-01T07:02:40Z</time>
      </trkpt>
      <trkpt lat="42.458841000" lon="-2.465414000">
        <ele>402.40</ele>
        <time>2014-11-01T07:02:41Z</time>
      </trkpt>
      <trkpt lat="42.458836000" lon="-2.465414000">
        <ele>402.40</ele>
        <time>2014-11-01T07:02:42Z</time>
      </trkpt>
      <trkpt lat="42.458832000" lon="-2.465412000">
        <ele>402.40</ele>
        <time>2014-11-01T07:02:43Z</time>
      </trkpt>
      <trkpt lat="42.458829000" lon="-2.465410000">
        <ele>402.40</ele>
        <time>2014-11-01T07:02:44Z</time>
      </trkpt>
      <trkpt lat="42.458827000" lon="-2.465405000">
        <ele>402.40</ele>
        <time>2014-11-01T07:02:45Z</time>
      </trkpt>
      <trkpt lat="42.458826000" lon="-2.465400000">
        <ele>402.40</ele>
        <time>2014-11-01T07:02:46Z</time>
      </trkpt>
      <trkpt lat="42.458825000" lon="-2.465397000">
        <ele>402.40</ele>
        <time>2014-11-01T07:02:47Z</time>
      </trkpt>
      <trkpt lat="42.458823000" lon="-2.465392000">
        <ele>402.40</ele>
        <time>2014-11-01T07:02:48Z</time>
      </trkpt>
      <trkpt lat="42.458823000" lon="-2.465386000">
        <ele>402.40</ele>
        <time>2014-11-01T07:02:49Z</time>
      </trkpt>
      <trkpt lat="42.458824000" lon="-2.465384000">
        <ele>402.40</ele>
        <time>2014-11-01T07:02:50Z</time>
      </trkpt>
      <trkpt lat="42.458824000" lon="-2.465378000">
        <ele>402.40</ele>
        <time>2014-11-01T07:02:51Z</time>
      </trkpt>
      <trkpt lat="42.458822000" lon="-2.465377000">
        <ele>402.40</ele>
        <time>2014-11-01T07:02:52Z</time>
      </trkpt>
      <trkpt lat="42.458821000" lon="-2.465381000">
        <ele>402.40</ele>
        <time>2014-11-01T07:02:53Z</time>
      </trkpt>
      <trkpt lat="42.458819000" lon="-2.465387000">
        <ele>402.40</ele>
        <time>2014-11-01T07:02:54Z</time>
      </trkpt>
      <trkpt lat="42.458819000" lon="-2.465390000">
        <ele>402.40</ele>
        <time>2014-11-01T07:02:55Z</time>
      </trkpt>
      <trkpt lat="42.458820000" lon="-2.465393000">
        <ele>402.40</ele>
        <time>2014-11-01T07:02:56Z</time>
      </trkpt>
      <trkpt lat="42.458821000" lon="-2.465393000">
        <ele>402.40</ele>
        <time>2014-11-01T07:02:57Z</time>
      </trkpt>
      <trkpt lat="42.458823000" lon="-2.465395000">
        <ele>402.40</ele>
        <time>2014-11-01T07:02:58Z</time>
      </trkpt>
      <trkpt lat="42.458822000" lon="-2.465398000">
        <ele>402.40</ele>
        <time>2014-11-01T07:02:59Z</time>
      </trkpt>
      <trkpt lat="42.458821000" lon="-2.465399000">
        <ele>402.40</ele>
        <time>2014-11-01T07:03:00Z</time>
      </trkpt>
      <trkpt lat="42.458819000" lon="-2.465402000">
        <ele>402.40</ele>
        <time>2014-11-01T07:03:01Z</time>
      </trkpt>
      <trkpt lat="42.458817000" lon="-2.465407000">
        <ele>402.40</ele>
        <time>2014-11-01T07:03:02Z</time>
      </trkpt>
      <trkpt lat="42.458815000" lon="-2.465412000">
        <ele>402.40</ele>
        <time>2014-11-01T07:03:03Z</time>
      </trkpt>
      <trkpt lat="42.458813000" lon="-2.465417000">
        <ele>402.40</ele>
        <time>2014-11-01T07:03:04Z</time>
      </trkpt>
      <trkpt lat="42.458813000" lon="-2.465423000">
        <ele>402.40</ele>
        <time>2014-11-01T07:03:05Z</time>
      </trkpt>
      <trkpt lat="42.458812000" lon="-2.465422000">
        <ele>402.40</ele>
        <time>2014-11-01T07:03:06Z</time>
      </trkpt>
      <trkpt lat="42.458813000" lon="-2.465419000">
        <ele>402.40</ele>
        <time>2014-11-01T07:03:07Z</time>
      </trkpt>
      <trkpt lat="42.458812000" lon="-2.465418000">
        <ele>402.40</ele>
        <time>2014-11-01T07:03:08Z</time>
      </trkpt>
      <trkpt lat="42.458810000" lon="-2.465416000">
        <ele>402.40</ele>
        <time>2014-11-01T07:03:09Z</time>
      </trkpt>
      <trkpt lat="42.458812000" lon="-2.465424000">
        <ele>402.40</ele>
        <time>2014-11-01T07:03:10Z</time>
      </trkpt>
      <trkpt lat="42.458813000" lon="-2.465431000">
        <ele>402.40</ele>
        <time>2014-11-01T07:03:11Z</time>
      </trkpt>
      <trkpt lat="42.458816000" lon="-2.465441000">
        <ele>402.40</ele>
        <time>2014-11-01T07:03:12Z</time>
      </trkpt>
      <trkpt lat="42.458814000" lon="-2.465450000">
        <ele>402.40</ele>
        <time>2014-11-01T07:03:13Z</time>
      </trkpt>
      <trkpt lat="42.458812000" lon="-2.465458000">
        <ele>402.40</ele>
        <time>2014-11-01T07:03:14Z</time>
      </trkpt>
      <trkpt lat="42.458809000" lon="-2.465466000">
        <ele>402.40</ele>
        <time>2014-11-01T07:03:15Z</time>
      </trkpt>
      <trkpt lat="42.458807000" lon="-2.465473000">
        <ele>402.40</ele>
        <time>2014-11-01T07:03:16Z</time>
      </trkpt>
      <trkpt lat="42.458806000" lon="-2.465479000">
        <ele>402.40</ele>
        <time>2014-11-01T07:03:17Z</time>
      </trkpt>
      <trkpt lat="42.458806000" lon="-2.465487000">
        <ele>402.40</ele>
        <time>2014-11-01T07:03:18Z</time>
      </trkpt>
      <trkpt lat="42.458809000" lon="-2.465492000">
        <ele>402.40</ele>
        <time>2014-11-01T07:03:19Z</time>
      </trkpt>
      <trkpt lat="42.458814000" lon="-2.465498000">
        <ele>402.40</ele>
        <time>2014-11-01T07:03:20Z</time>
      </trkpt>
      <trkpt lat="42.458819000" lon="-2.465503000">
        <ele>402.40</ele>
        <time>2014-11-01T07:03:21Z</time>
      </trkpt>
      <trkpt lat="42.458824000" lon="-2.465510000">
        <ele>402.40</ele>
        <time>2014-11-01T07:03:22Z</time>
      </trkpt>
      <trkpt lat="42.458831000" lon="-2.465515000">
        <ele>402.40</ele>
        <time>2014-11-01T07:03:23Z</time>
      </trkpt>
      <trkpt lat="42.458838000" lon="-2.465518000">
        <ele>402.40</ele>
        <time>2014-11-01T07:03:24Z</time>
      </trkpt>
      <trkpt lat="42.458845000" lon="-2.465521000">
        <ele>402.40</ele>
        <time>2014-11-01T07:03:25Z</time>
      </trkpt>
      <trkpt lat="42.458851000" lon="-2.465522000">
        <ele>402.40</ele>
        <time>2014-11-01T07:03:26Z</time>
      </trkpt>
      <trkpt lat="42.458864000" lon="-2.465518000">
        <ele>402.40</ele>
        <time>2014-11-01T07:03:27Z</time>
      </trkpt>
      <trkpt lat="42.458875000" lon="-2.465516000">
        <ele>402.40</ele>
        <time>2014-11-01T07:03:28Z</time>
      </trkpt>
      <trkpt lat="42.458882000" lon="-2.465515000">
        <ele>402.40</ele>
        <time>2014-11-01T07:03:29Z</time>
      </trkpt>
      <trkpt lat="42.458886000" lon="-2.465514000">
        <ele>402.40</ele>
        <time>2014-11-01T07:03:30Z</time>
      </trkpt>
      <trkpt lat="42.458889000" lon="-2.465514000">
        <ele>402.40</ele>
        <time>2014-11-01T07:03:31Z</time>
      </trkpt>
      <trkpt lat="42.458890000" lon="-2.465514000">
        <ele>402.40</ele>
        <time>2014-11-01T07:03:32Z</time>
      </trkpt>
      <trkpt lat="42.458896000" lon="-2.465513000">
        <ele>402.40</ele>
        <time>2014-11-01T07:03:34Z</time>
      </trkpt>
      <trkpt lat="42.458901000" lon="-2.465513000">
        <ele>402.40</ele>
        <time>2014-11-01T07:03:35Z</time>
      </trkpt>
      <trkpt lat="42.458907000" lon="-2.465513000">
        <ele>402.40</ele>
        <time>2014-11-01T07:03:36Z</time>
      </trkpt>
      <trkpt lat="42.458909000" lon="-2.465515000">
        <ele>402.40</ele>
        <time>2014-11-01T07:03:37Z</time>
      </trkpt>
      <trkpt lat="42.458912000" lon="-2.465518000">
        <ele>402.40</ele>
        <time>2014-11-01T07:03:38Z</time>
      </trkpt>
      <trkpt lat="42.458917000" lon="-2.465523000">
        <ele>402.40</ele>
        <time>2014-11-01T07:03:39Z</time>
      </trkpt>
      <trkpt lat="42.458917000" lon="-2.465525000">
        <ele>402.40</ele>
        <time>2014-11-01T07:03:40Z</time>
      </trkpt>
      <trkpt lat="42.458915000" lon="-2.465526000">
        <ele>402.40</ele>
        <time>2014-11-01T07:03:41Z</time>
      </trkpt>
      <trkpt lat="42.458913000" lon="-2.465528000">
        <ele>402.40</ele>
        <time>2014-11-01T07:03:42Z</time>
      </trkpt>
      <trkpt lat="42.458924000" lon="-2.465530000">
        <ele>402.40</ele>
        <time>2014-11-01T07:03:43Z</time>
      </trkpt>
      <trkpt lat="42.458929000" lon="-2.465534000">
        <ele>402.40</ele>
        <time>2014-11-01T07:03:44Z</time>
      </trkpt>
      <trkpt lat="42.458934000" lon="-2.465542000">
        <ele>402.40</ele>
        <time>2014-11-01T07:03:45Z</time>
      </trkpt>
      <trkpt lat="42.458935000" lon="-2.465549000">
        <ele>402.40</ele>
        <time>2014-11-01T07:03:46Z</time>
      </trkpt>
      <trkpt lat="42.458936000" lon="-2.465555000">
        <ele>402.40</ele>
        <time>2014-11-01T07:03:47Z</time>
      </trkpt>
      <trkpt lat="42.458937000" lon="-2.465563000">
        <ele>402.40</ele>
        <time>2014-11-01T07:03:48Z</time>
      </trkpt>
      <trkpt lat="42.458935000" lon="-2.465567000">
        <ele>402.40</ele>
        <time>2014-11-01T07:03:49Z</time>
      </trkpt>
      <trkpt lat="42.458935000" lon="-2.465572000">
        <ele>402.40</ele>
        <time>2014-11-01T07:03:50Z</time>
      </trkpt>
      <trkpt lat="42.458935000" lon="-2.465578000">
        <ele>402.40</ele>
        <time>2014-11-01T07:03:51Z</time>
      </trkpt>
      <trkpt lat="42.458934000" lon="-2.465582000">
        <ele>402.40</ele>
        <time>2014-11-01T07:03:52Z</time>
      </trkpt>
      <trkpt lat="42.458933000" lon="-2.465584000">
        <ele>402.40</ele>
        <time>2014-11-01T07:03:53Z</time>
      </trkpt>
      <trkpt lat="42.458932000" lon="-2.465585000">
        <ele>402.40</ele>
        <time>2014-11-01T07:03:54Z</time>
      </trkpt>
      <trkpt lat="42.458930000" lon="-2.465586000">
        <ele>402.40</ele>
        <time>2014-11-01T07:03:55Z</time>
      </trkpt>
      <trkpt lat="42.458928000" lon="-2.465586000">
        <ele>402.40</ele>
        <time>2014-11-01T07:03:56Z</time>
      </trkpt>
      <trkpt lat="42.458927000" lon="-2.465589000">
        <ele>402.40</ele>
        <time>2014-11-01T07:03:57Z</time>
      </trkpt>
      <trkpt lat="42.458923000" lon="-2.465588000">
        <ele>402.40</ele>
        <time>2014-11-01T07:03:58Z</time>
      </trkpt>
      <trkpt lat="42.458921000" lon="-2.465588000">
        <ele>402.40</ele>
        <time>2014-11-01T07:03:59Z</time>
      </trkpt>
      <trkpt lat="42.458919000" lon="-2.465586000">
        <ele>402.40</ele>
        <time>2014-11-01T07:04:00Z</time>
      </trkpt>
      <trkpt lat="42.458915000" lon="-2.465580000">
        <ele>402.40</ele>
        <time>2014-11-01T07:04:01Z</time>
      </trkpt>
      <trkpt lat="42.458914000" lon="-2.465576000">
        <ele>402.40</ele>
        <time>2014-11-01T07:04:02Z</time>
      </trkpt>
      <trkpt lat="42.458912000" lon="-2.465571000">
        <ele>402.40</ele>
        <time>2014-11-01T07:04:03Z</time>
      </trkpt>
      <trkpt lat="42.458910000" lon="-2.465569000">
        <ele>402.40</ele>
        <time>2014-11-01T07:04:04Z</time>
      </trkpt>
      <trkpt lat="42.458910000" lon="-2.465568000">
        <ele>402.40</ele>
        <time>2014-11-01T07:04:05Z</time>
      </trkpt>
      <trkpt lat="42.458907000" lon="-2.465567000">
        <ele>402.40</ele>
        <time>2014-11-01T07:04:06Z</time>
      </trkpt>
      <trkpt lat="42.458902000" lon="-2.465562000">
        <ele>402.40</ele>
        <time>2014-11-01T07:04:07Z</time>
      </trkpt>
      <trkpt lat="42.458899000" lon="-2.465558000">
        <ele>402.40</ele>
        <time>2014-11-01T07:04:08Z</time>
      </trkpt>
      <trkpt lat="42.458898000" lon="-2.465553000">
        <ele>402.40</ele>
        <time>2014-11-01T07:04:09Z</time>
      </trkpt>
      <trkpt lat="42.458898000" lon="-2.465552000">
        <ele>402.40</ele>
        <time>2014-11-01T07:04:10Z</time>
      </trkpt>
      <trkpt lat="42.458898000" lon="-2.465552000">
        <ele>402.40</ele>
        <time>2014-11-01T07:04:11Z</time>
      </trkpt>
      <trkpt lat="42.458898000" lon="-2.465548000">
        <ele>402.40</ele>
        <time>2014-11-01T07:04:12Z</time>
      </trkpt>
      <trkpt lat="42.458899000" lon="-2.465547000">
        <ele>402.40</ele>
        <time>2014-11-01T07:04:13Z</time>
      </trkpt>
      <trkpt lat="42.458899000" lon="-2.465546000">
        <ele>402.40</ele>
        <time>2014-11-01T07:04:14Z</time>
      </trkpt>
      <trkpt lat="42.458900000" lon="-2.465545000">
        <ele>402.40</ele>
        <time>2014-11-01T07:04:15Z</time>
      </trkpt>
      <trkpt lat="42.458901000" lon="-2.465542000">
        <ele>402.40</ele>
        <time>2014-11-01T07:04:16Z</time>
      </trkpt>
      <trkpt lat="42.458901000" lon="-2.465540000">
        <ele>402.40</ele>
        <time>2014-11-01T07:04:17Z</time>
      </trkpt>
      <trkpt lat="42.458903000" lon="-2.465537000">
        <ele>402.40</ele>
        <time>2014-11-01T07:04:18Z</time>
      </trkpt>
      <trkpt lat="42.458903000" lon="-2.465533000">
        <ele>402.40</ele>
        <time>2014-11-01T07:04:19Z</time>
      </trkpt>
      <trkpt lat="42.458905000" lon="-2.465530000">
        <ele>402.40</ele>
        <time>2014-11-01T07:04:20Z</time>
      </trkpt>
      <trkpt lat="42.458906000" lon="-2.465528000">
        <ele>402.40</ele>
        <time>2014-11-01T07:04:21Z</time>
      </trkpt>
      <trkpt lat="42.458906000" lon="-2.465524000">
        <ele>402.40</ele>
        <time>2014-11-01T07:04:22Z</time>
      </trkpt>
      <trkpt lat="42.458907000" lon="-2.465520000">
        <ele>402.40</ele>
        <time>2014-11-01T07:04:23Z</time>
      </trkpt>
      <trkpt lat="42.458907000" lon="-2.465519000">
        <ele>402.40</ele>
        <time>2014-11-01T07:04:24Z</time>
      </trkpt>
      <trkpt lat="42.458909000" lon="-2.465516000">
        <ele>402.40</ele>
        <time>2014-11-01T07:04:25Z</time>
      </trkpt>
      <trkpt lat="42.458910000" lon="-2.465512000">
        <ele>402.40</ele>
        <time>2014-11-01T07:04:26Z</time>
      </trkpt>
      <trkpt lat="42.458910000" lon="-2.465507000">
        <ele>402.40</ele>
        <time>2014-11-01T07:04:27Z</time>
      </trkpt>
      <trkpt lat="42.458911000" lon="-2.465500000">
        <ele>402.40</ele>
        <time>2014-11-01T07:04:28Z</time>
      </trkpt>
      <trkpt lat="42.458911000" lon="-2.465488000">
        <ele>402.40</ele>
        <time>2014-11-01T07:04:29Z</time>
      </trkpt>
      <trkpt lat="42.458912000" lon="-2.465479000">
        <ele>402.40</ele>
        <time>2014-11-01T07:04:30Z</time>
      </trkpt>
      <trkpt lat="42.458914000" lon="-2.465468000">
        <ele>402.40</ele>
        <time>2014-11-01T07:04:31Z</time>
      </trkpt>
      <trkpt lat="42.458915000" lon="-2.465460000">
        <ele>402.40</ele>
        <time>2014-11-01T07:04:32Z</time>
      </trkpt>
      <trkpt lat="42.458917000" lon="-2.465451000">
        <ele>402.40</ele>
        <time>2014-11-01T07:04:33Z</time>
      </trkpt>
      <trkpt lat="42.458920000" lon="-2.465443000">
        <ele>402.40</ele>
        <time>2014-11-01T07:04:34Z</time>
      </trkpt>
      <trkpt lat="42.458930000" lon="-2.465430000">
        <ele>402.40</ele>
        <time>2014-11-01T07:04:36Z</time>
      </trkpt>
      <trkpt lat="42.458934000" lon="-2.465425000">
        <ele>402.40</ele>
        <time>2014-11-01T07:04:37Z</time>
      </trkpt>
      <trkpt lat="42.458939000" lon="-2.465406000">
        <ele>402.40</ele>
        <time>2014-11-01T07:04:38Z</time>
      </trkpt>
      <trkpt lat="42.458938000" lon="-2.465400000">
        <ele>402.40</ele>
        <time>2014-11-01T07:04:39Z</time>
      </trkpt>
      <trkpt lat="42.458935000" lon="-2.465394000">
        <ele>402.40</ele>
        <time>2014-11-01T07:04:40Z</time>
      </trkpt>
      <trkpt lat="42.458930000" lon="-2.465385000">
        <ele>402.40</ele>
        <time>2014-11-01T07:04:42Z</time>
      </trkpt>
      <trkpt lat="42.458927000" lon="-2.465375000">
        <ele>402.40</ele>
        <time>2014-11-01T07:04:45Z</time>
      </trkpt>
      <trkpt lat="42.458928000" lon="-2.465373000">
        <ele>402.40</ele>
        <time>2014-11-01T07:04:46Z</time>
      </trkpt>
      <trkpt lat="42.458927000" lon="-2.465369000">
        <ele>402.40</ele>
        <time>2014-11-01T07:04:47Z</time>
      </trkpt>
      <trkpt lat="42.458927000" lon="-2.465366000">
        <ele>402.40</ele>
        <time>2014-11-01T07:04:48Z</time>
      </trkpt>
      <trkpt lat="42.458927000" lon="-2.465364000">
        <ele>402.40</ele>
        <time>2014-11-01T07:04:49Z</time>
      </trkpt>
      <trkpt lat="42.458926000" lon="-2.465362000">
        <ele>402.40</ele>
        <time>2014-11-01T07:04:50Z</time>
      </trkpt>
      <trkpt lat="42.458925000" lon="-2.465361000">
        <ele>402.40</ele>
        <time>2014-11-01T07:04:51Z</time>
      </trkpt>
      <trkpt lat="42.458923000" lon="-2.465360000">
        <ele>402.40</ele>
        <time>2014-11-01T07:04:52Z</time>
      </trkpt>
      <trkpt lat="42.458922000" lon="-2.465359000">
        <ele>402.40</ele>
        <time>2014-11-01T07:04:53Z</time>
      </trkpt>
      <trkpt lat="42.458921000" lon="-2.465356000">
        <ele>402.40</ele>
        <time>2014-11-01T07:04:54Z</time>
      </trkpt>
      <trkpt lat="42.458920000" lon="-2.465355000">
        <ele>402.40</ele>
        <time>2014-11-01T07:04:55Z</time>
      </trkpt>
      <trkpt lat="42.458919000" lon="-2.465353000">
        <ele>402.40</ele>
        <time>2014-11-01T07:04:56Z</time>
      </trkpt>
      <trkpt lat="42.458918000" lon="-2.465351000">
        <ele>402.40</ele>
        <time>2014-11-01T07:04:57Z</time>
      </trkpt>
      <trkpt lat="42.458919000" lon="-2.465351000">
        <ele>402.40</ele>
        <time>2014-11-01T07:04:58Z</time>
      </trkpt>
      <trkpt lat="42.458920000" lon="-2.465350000">
        <ele>402.40</ele>
        <time>2014-11-01T07:04:59Z</time>
      </trkpt>
      <trkpt lat="42.458920000" lon="-2.465350000">
        <ele>402.40</ele>
        <time>2014-11-01T07:05:00Z</time>
      </trkpt>
      <trkpt lat="42.458936000" lon="-2.465355000">
        <ele>402.40</ele>
        <time>2014-11-01T07:05:01Z</time>
      </trkpt>
      <trkpt lat="42.458955000" lon="-2.465363000">
        <ele>402.40</ele>
        <time>2014-11-01T07:05:02Z</time>
      </trkpt>
      <trkpt lat="42.458969000" lon="-2.465368000">
        <ele>402.40</ele>
        <time>2014-11-01T07:05:03Z</time>
      </trkpt>
      <trkpt lat="42.458981000" lon="-2.465379000">
        <ele>402.40</ele>
        <time>2014-11-01T07:05:04Z</time>
      </trkpt>
      <trkpt lat="42.458997000" lon="-2.465392000">
        <ele>402.40</ele>
        <time>2014-11-01T07:05:05Z</time>
      </trkpt>
      <trkpt lat="42.459012000" lon="-2.465407000">
        <ele>402.40</ele>
        <time>2014-11-01T07:05:06Z</time>
      </trkpt>
      <trkpt lat="42.459021000" lon="-2.465418000">
        <ele>402.40</ele>
        <time>2014-11-01T07:05:07Z</time>
      </trkpt>
      <trkpt lat="42.459028000" lon="-2.465430000">
        <ele>402.40</ele>
        <time>2014-11-01T07:05:08Z</time>
      </trkpt>
      <trkpt lat="42.459032000" lon="-2.465440000">
        <ele>402.40</ele>
        <time>2014-11-01T07:05:09Z</time>
      </trkpt>
      <trkpt lat="42.459032000" lon="-2.465451000">
        <ele>402.40</ele>
        <time>2014-11-01T07:05:10Z</time>
      </trkpt>
      <trkpt lat="42.459031000" lon="-2.465457000">
        <ele>402.40</ele>
        <time>2014-11-01T07:05:11Z</time>
      </trkpt>
      <trkpt lat="42.459026000" lon="-2.465463000">
        <ele>402.40</ele>
        <time>2014-11-01T07:05:12Z</time>
      </trkpt>
      <trkpt lat="42.459021000" lon="-2.465468000">
        <ele>402.40</ele>
        <time>2014-11-01T07:05:13Z</time>
      </trkpt>
      <trkpt lat="42.459018000" lon="-2.465456000">
        <ele>402.40</ele>
        <time>2014-11-01T07:05:14Z</time>
      </trkpt>
      <trkpt lat="42.459019000" lon="-2.465435000">
        <ele>402.40</ele>
        <time>2014-11-01T07:05:15Z</time>
      </trkpt>
      <trkpt lat="42.459022000" lon="-2.465411000">
        <ele>402.40</ele>
        <time>2014-11-01T07:05:16Z</time>
      </trkpt>
      <trkpt lat="42.459022000" lon="-2.465392000">
        <ele>402.40</ele>
        <time>2014-11-01T07:05:17Z</time>
      </trkpt>
      <trkpt lat="42.459016000" lon="-2.465379000">
        <ele>402.40</ele>
        <time>2014-11-01T07:05:18Z</time>
      </trkpt>
      <trkpt lat="42.459010000" lon="-2.465375000">
        <ele>402.40</ele>
        <time>2014-11-01T07:05:19Z</time>
      </trkpt>
      <trkpt lat="42.459002000" lon="-2.465376000">
        <ele>402.40</ele>
        <time>2014-11-01T07:05:20Z</time>
      </trkpt>
      <trkpt lat="42.458994000" lon="-2.465377000">
        <ele>402.40</ele>
        <time>2014-11-01T07:05:21Z</time>
      </trkpt>
      <trkpt lat="42.458984000" lon="-2.465378000">
        <ele>402.40</ele>
        <time>2014-11-01T07:05:22Z</time>
      </trkpt>
      <trkpt lat="42.458973000" lon="-2.465380000">
        <ele>402.40</ele>
        <time>2014-11-01T07:05:23Z</time>
      </trkpt>
      <trkpt lat="42.458960000" lon="-2.465380000">
        <ele>402.40</ele>
        <time>2014-11-01T07:05:24Z</time>
      </trkpt>
      <trkpt lat="42.458948000" lon="-2.465373000">
        <ele>402.40</ele>
        <time>2014-11-01T07:05:25Z</time>
      </trkpt>
      <trkpt lat="42.458936000" lon="-2.465369000">
        <ele>402.40</ele>
        <time>2014-11-01T07:05:26Z</time>
      </trkpt>
      <trkpt lat="42.458924000" lon="-2.465369000">
        <ele>402.40</ele>
        <time>2014-11-01T07:05:27Z</time>
      </trkpt>
      <trkpt lat="42.458915000" lon="-2.465366000">
        <ele>402.40</ele>
        <time>2014-11-01T07:05:28Z</time>
      </trkpt>
      <trkpt lat="42.458911000" lon="-2.465365000">
        <ele>402.40</ele>
        <time>2014-11-01T07:05:29Z</time>
      </trkpt>
      <trkpt lat="42.458907000" lon="-2.465363000">
        <ele>402.40</ele>
        <time>2014-11-01T07:05:30Z</time>
      </trkpt>
      <trkpt lat="42.458902000" lon="-2.465359000">
        <ele>402.40</ele>
        <time>2014-11-01T07:05:31Z</time>
      </trkpt>
      <trkpt lat="42.458902000" lon="-2.465357000">
        <ele>402.40</ele>
        <time>2014-11-01T07:05:32Z</time>
      </trkpt>
      <trkpt lat="42.458903000" lon="-2.465354000">
        <ele>402.40</ele>
        <time>2014-11-01T07:05:33Z</time>
      </trkpt>
      <trkpt lat="42.458904000" lon="-2.465352000">
        <ele>402.40</ele>
        <time>2014-11-01T07:05:34Z</time>
      </trkpt>
      <trkpt lat="42.458897000" lon="-2.465345000">
        <ele>402.40</ele>
        <time>2014-11-01T07:05:35Z</time>
      </trkpt>
      <trkpt lat="42.458884000" lon="-2.465329000">
        <ele>402.40</ele>
        <time>2014-11-01T07:05:37Z</time>
      </trkpt>
      <trkpt lat="42.458877000" lon="-2.465321000">
        <ele>402.40</ele>
        <time>2014-11-01T07:05:38Z</time>
      </trkpt>
      <trkpt lat="42.458871000" lon="-2.465312000">
        <ele>402.40</ele>
        <time>2014-11-01T07:05:39Z</time>
      </trkpt>
      <trkpt lat="42.458864000" lon="-2.465305000">
        <ele>402.40</ele>
        <time>2014-11-01T07:05:40Z</time>
      </trkpt>
      <trkpt lat="42.458856000" lon="-2.465298000">
        <ele>402.40</ele>
        <time>2014-11-01T07:05:41Z</time>
      </trkpt>
      <trkpt lat="42.458849000" lon="-2.465294000">
        <ele>402.40</ele>
        <time>2014-11-01T07:05:42Z</time>
      </trkpt>
      <trkpt lat="42.458843000" lon="-2.465291000">
        <ele>402.40</ele>
        <time>2014-11-01T07:05:43Z</time>
      </trkpt>
      <trkpt lat="42.458836000" lon="-2.465290000">
        <ele>402.40</ele>
        <time>2014-11-01T07:05:44Z</time>
      </trkpt>
      <trkpt lat="42.458831000" lon="-2.465293000">
        <ele>402.40</ele>
        <time>2014-11-01T07:05:45Z</time>
      </trkpt>
      <trkpt lat="42.458827000" lon="-2.465296000">
        <ele>402.40</ele>
        <time>2014-11-01T07:05:46Z</time>
      </trkpt>
      <trkpt lat="42.458824000" lon="-2.465301000">
        <ele>402.40</ele>
        <time>2014-11-01T07:05:47Z</time>
      </trkpt>
      <trkpt lat="42.458822000" lon="-2.465304000">
        <ele>402.40</ele>
        <time>2014-11-01T07:05:48Z</time>
      </trkpt>
      <trkpt lat="42.458820000" lon="-2.465307000">
        <ele>402.40</ele>
        <time>2014-11-01T07:05:49Z</time>
      </trkpt>
      <trkpt lat="42.458820000" lon="-2.465311000">
        <ele>402.40</ele>
        <time>2014-11-01T07:05:50Z</time>
      </trkpt>
      <trkpt lat="42.458822000" lon="-2.465312000">
        <ele>402.40</ele>
        <time>2014-11-01T07:05:51Z</time>
      </trkpt>
      <trkpt lat="42.458824000" lon="-2.465312000">
        <ele>402.40</ele>
        <time>2014-11-01T07:05:52Z</time>
      </trkpt>
      <trkpt lat="42.458827000" lon="-2.465312000">
        <ele>402.40</ele>
        <time>2014-11-01T07:05:53Z</time>
      </trkpt>
      <trkpt lat="42.458830000" lon="-2.465310000">
        <ele>402.40</ele>
        <time>2014-11-01T07:05:54Z</time>
      </trkpt>
      <trkpt lat="42.458834000" lon="-2.465310000">
        <ele>402.40</ele>
        <time>2014-11-01T07:05:55Z</time>
      </trkpt>
      <trkpt lat="42.458839000" lon="-2.465310000">
        <ele>402.40</ele>
        <time>2014-11-01T07:05:56Z</time>
      </trkpt>
      <trkpt lat="42.458844000" lon="-2.465309000">
        <ele>402.40</ele>
        <time>2014-11-01T07:05:57Z</time>
      </trkpt>
      <trkpt lat="42.458845000" lon="-2.465306000">
        <ele>402.40</ele>
        <time>2014-11-01T07:05:58Z</time>
      </trkpt>
      <trkpt lat="42.458846000" lon="-2.465302000">
        <ele>402.40</ele>
        <time>2014-11-01T07:05:59Z</time>
      </trkpt>
      <trkpt lat="42.458845000" lon="-2.465301000">
        <ele>402.40</ele>
        <time>2014-11-01T07:06:00Z</time>
      </trkpt>
      <trkpt lat="42.458854000" lon="-2.465304000">
        <ele>402.40</ele>
        <time>2014-11-01T07:06:01Z</time>
      </trkpt>
      <trkpt lat="42.458857000" lon="-2.465307000">
        <ele>402.40</ele>
        <time>2014-11-01T07:06:02Z</time>
      </trkpt>
      <trkpt lat="42.458861000" lon="-2.465309000">
        <ele>402.40</ele>
        <time>2014-11-01T07:06:03Z</time>
      </trkpt>
      <trkpt lat="42.458863000" lon="-2.465310000">
        <ele>402.40</ele>
        <time>2014-11-01T07:06:04Z</time>
      </trkpt>
      <trkpt lat="42.458864000" lon="-2.465314000">
        <ele>402.40</ele>
        <time>2014-11-01T07:06:05Z</time>
      </trkpt>
      <trkpt lat="42.458864000" lon="-2.465315000">
        <ele>402.40</ele>
        <time>2014-11-01T07:06:06Z</time>
      </trkpt>
      <trkpt lat="42.458865000" lon="-2.465317000">
        <ele>402.40</ele>
        <time>2014-11-01T07:06:07Z</time>
      </trkpt>
      <trkpt lat="42.458865000" lon="-2.465318000">
        <ele>402.40</ele>
        <time>2014-11-01T07:06:08Z</time>
      </trkpt>
      <trkpt lat="42.458864000" lon="-2.465318000">
        <ele>402.40</ele>
        <time>2014-11-01T07:06:09Z</time>
      </trkpt>
      <trkpt lat="42.458863000" lon="-2.465316000">
        <ele>402.40</ele>
        <time>2014-11-01T07:06:10Z</time>
      </trkpt>
      <trkpt lat="42.458863000" lon="-2.465313000">
        <ele>402.40</ele>
        <time>2014-11-01T07:06:11Z</time>
      </trkpt>
      <trkpt lat="42.458863000" lon="-2.465310000">
        <ele>402.40</ele>
        <time>2014-11-01T07:06:12Z</time>
      </trkpt>
      <trkpt lat="42.458864000" lon="-2.465308000">
        <ele>402.40</ele>
        <time>2014-11-01T07:06:13Z</time>
      </trkpt>
      <trkpt lat="42.458864000" lon="-2.465307000">
        <ele>402.40</ele>
        <time>2014-11-01T07:06:14Z</time>
      </trkpt>
      <trkpt lat="42.458861000" lon="-2.465308000">
        <ele>402.40</ele>
        <time>2014-11-01T07:06:15Z</time>
      </trkpt>
      <trkpt lat="42.458860000" lon="-2.465307000">
        <ele>402.40</ele>
        <time>2014-11-01T07:06:16Z</time>
      </trkpt>
      <trkpt lat="42.458858000" lon="-2.465307000">
        <ele>402.40</ele>
        <time>2014-11-01T07:06:17Z</time>
      </trkpt>
      <trkpt lat="42.458856000" lon="-2.465308000">
        <ele>402.40</ele>
        <time>2014-11-01T07:06:18Z</time>
      </trkpt>
      <trkpt lat="42.458853000" lon="-2.465308000">
        <ele>402.40</ele>
        <time>2014-11-01T07:06:19Z</time>
      </trkpt>
      <trkpt lat="42.458852000" lon="-2.465310000">
        <ele>402.40</ele>
        <time>2014-11-01T07:06:20Z</time>
      </trkpt>
      <trkpt lat="42.458850000" lon="-2.465313000">
        <ele>402.40</ele>
        <time>2014-11-01T07:06:21Z</time>
      </trkpt>
      <trkpt lat="42.458847000" lon="-2.465314000">
        <ele>402.40</ele>
        <time>2014-11-01T07:06:22Z</time>
      </trkpt>
      <trkpt lat="42.458843000" lon="-2.465317000">
        <ele>402.40</ele>
        <time>2014-11-01T07:06:23Z</time>
      </trkpt>
      <trkpt lat="42.458840000" lon="-2.465321000">
        <ele>402.40</ele>
        <time>2014-11-01T07:06:24Z</time>
      </trkpt>
      <trkpt lat="42.458836000" lon="-2.465326000">
        <ele>402.40</ele>
        <time>2014-11-01T07:06:25Z</time>
      </trkpt>
      <trkpt lat="42.458833000" lon="-2.465330000">
        <ele>402.40</ele>
        <time>2014-11-01T07:06:26Z</time>
      </trkpt>
      <trkpt lat="42.458831000" lon="-2.465332000">
        <ele>402.40</ele>
        <time>2014-11-01T07:06:27Z</time>
      </trkpt>
      <trkpt lat="42.458828000" lon="-2.465334000">
        <ele>402.40</ele>
        <time>2014-11-01T07:06:28Z</time>
      </trkpt>
      <trkpt lat="42.458825000" lon="-2.465336000">
        <ele>402.40</ele>
        <time>2014-11-01T07:06:29Z</time>
      </trkpt>
      <trkpt lat="42.458824000" lon="-2.465337000">
        <ele>402.40</ele>
        <time>2014-11-01T07:06:30Z</time>
      </trkpt>
      <trkpt lat="42.458823000" lon="-2.465338000">
        <ele>402.40</ele>
        <time>2014-11-01T07:06:31Z</time>
      </trkpt>
      <trkpt lat="42.458823000" lon="-2.465337000">
        <ele>402.40</ele>
        <time>2014-11-01T07:06:32Z</time>
      </trkpt>
      <trkpt lat="42.458823000" lon="-2.465334000">
        <ele>402.40</ele>
        <time>2014-11-01T07:06:33Z</time>
      </trkpt>
      <trkpt lat="42.458823000" lon="-2.465332000">
        <ele>402.40</ele>
        <time>2014-11-01T07:06:34Z</time>
      </trkpt>
      <trkpt lat="42.458824000" lon="-2.465330000">
        <ele>402.40</ele>
        <time>2014-11-01T07:06:35Z</time>
      </trkpt>
      <trkpt lat="42.458824000" lon="-2.465325000">
        <ele>402.40</ele>
        <time>2014-11-01T07:06:36Z</time>
      </trkpt>
      <trkpt lat="42.458824000" lon="-2.465320000">
        <ele>402.40</ele>
        <time>2014-11-01T07:06:37Z</time>
      </trkpt>
      <trkpt lat="42.458820000" lon="-2.465321000">
        <ele>402.40</ele>
        <time>2014-11-01T07:06:39Z</time>
      </trkpt>
      <trkpt lat="42.458817000" lon="-2.465321000">
        <ele>402.40</ele>
        <time>2014-11-01T07:06:40Z</time>
      </trkpt>
      <trkpt lat="42.458814000" lon="-2.465322000">
        <ele>402.40</ele>
        <time>2014-11-01T07:06:41Z</time>
      </trkpt>
      <trkpt lat="42.458816000" lon="-2.465325000">
        <ele>402.40</ele>
        <time>2014-11-01T07:06:42Z</time>
      </trkpt>
      <trkpt lat="42.458817000" lon="-2.465328000">
        <ele>402.40</ele>
        <time>2014-11-01T07:06:43Z</time>
      </trkpt>
      <trkpt lat="42.458819000" lon="-2.465330000">
        <ele>402.40</ele>
        <time>2014-11-01T07:06:44Z</time>
      </trkpt>
      <trkpt lat="42.458814000" lon="-2.465332000">
        <ele>402.40</ele>
        <time>2014-11-01T07:06:45Z</time>
      </trkpt>
      <trkpt lat="42.458816000" lon="-2.465335000">
        <ele>402.40</ele>
        <time>2014-11-01T07:06:46Z</time>
      </trkpt>
      <trkpt lat="42.458818000" lon="-2.465335000">
        <ele>402.40</ele>
        <time>2014-11-01T07:06:47Z</time>
      </trkpt>
      <trkpt lat="42.458811000" lon="-2.465334000">
        <ele>402.40</ele>
        <time>2014-11-01T07:06:48Z</time>
      </trkpt>
      <trkpt lat="42.458805000" lon="-2.465332000">
        <ele>402.40</ele>
        <time>2014-11-01T07:06:49Z</time>
      </trkpt>
      <trkpt lat="42.458798000" lon="-2.465329000">
        <ele>402.40</ele>
        <time>2014-11-01T07:06:50Z</time>
      </trkpt>
      <trkpt lat="42.458797000" lon="-2.465322000">
        <ele>402.40</ele>
        <time>2014-11-01T07:06:51Z</time>
      </trkpt>
      <trkpt lat="42.458796000" lon="-2.465312000">
        <ele>402.40</ele>
        <time>2014-11-01T07:06:52Z</time>
      </trkpt>
      <trkpt lat="42.458788000" lon="-2.465291000">
        <ele>402.40</ele>
        <time>2014-11-01T07:06:53Z</time>
      </trkpt>
      <trkpt lat="42.458782000" lon="-2.465275000">
        <ele>402.40</ele>
        <time>2014-11-01T07:06:54Z</time>
      </trkpt>
      <trkpt lat="42.458783000" lon="-2.465270000">
        <ele>402.40</ele>
        <time>2014-11-01T07:06:55Z</time>
      </trkpt>
      <trkpt lat="42.458787000" lon="-2.465265000">
        <ele>402.40</ele>
        <time>2014-11-01T07:06:56Z</time>
      </trkpt>
      <trkpt lat="42.458790000" lon="-2.465265000">
        <ele>402.40</ele>
        <time>2014-11-01T07:06:57Z</time>
      </trkpt>
      <trkpt lat="42.458786000" lon="-2.465266000">
        <ele>402.40</ele>
        <time>2014-11-01T07:06:58Z</time>
      </trkpt>
      <trkpt lat="42.458785000" lon="-2.465266000">
        <ele>402.40</ele>
        <time>2014-11-01T07:06:59Z</time>
      </trkpt>
      <trkpt lat="42.458782000" lon="-2.465269000">
        <ele>402.40</ele>
        <time>2014-11-01T07:07:00Z</time>
      </trkpt>
      <trkpt lat="42.458781000" lon="-2.465270000">
        <ele>402.40</ele>
        <time>2014-11-01T07:07:01Z</time>
      </trkpt>
      <trkpt lat="42.458778000" lon="-2.465271000">
        <ele>402.40</ele>
        <time>2014-11-01T07:07:02Z</time>
      </trkpt>
      <trkpt lat="42.458778000" lon="-2.465271000">
        <ele>402.40</ele>
        <time>2014-11-01T07:07:03Z</time>
      </trkpt>
      <trkpt lat="42.458779000" lon="-2.465267000">
        <ele>402.40</ele>
        <time>2014-11-01T07:07:04Z</time>
      </trkpt>
      <trkpt lat="42.458775000" lon="-2.465268000">
        <ele>402.40</ele>
        <time>2014-11-01T07:07:05Z</time>
      </trkpt>
      <trkpt lat="42.458772000" lon="-2.465271000">
        <ele>402.40</ele>
        <time>2014-11-01T07:07:06Z</time>
      </trkpt>
      <trkpt lat="42.458753000" lon="-2.465284000">
        <ele>402.40</ele>
        <time>2014-11-01T07:07:07Z</time>
      </trkpt>
      <trkpt lat="42.458747000" lon="-2.465291000">
        <ele>402.40</ele>
        <time>2014-11-01T07:07:08Z</time>
      </trkpt>
      <trkpt lat="42.458740000" lon="-2.465297000">
        <ele>402.40</ele>
        <time>2014-11-01T07:07:09Z</time>
      </trkpt>
      <trkpt lat="42.458732000" lon="-2.465305000">
        <ele>402.40</ele>
        <time>2014-11-01T07:07:10Z</time>
      </trkpt>
      <trkpt lat="42.458719000" lon="-2.465318000">
        <ele>402.40</ele>
        <time>2014-11-01T07:07:11Z</time>
      </trkpt>
      <trkpt lat="42.458707000" lon="-2.465327000">
        <ele>402.40</ele>
        <time>2014-11-01T07:07:12Z</time>
      </trkpt>
      <trkpt lat="42.458697000" lon="-2.465341000">
        <ele>402.40</ele>
        <time>2014-11-01T07:07:13Z</time>
      </trkpt>
      <trkpt lat="42.458690000" lon="-2.465349000">
        <ele>402.40</ele>
        <time>2014-11-01T07:07:14Z</time>
      </trkpt>
      <trkpt lat="42.458681000" lon="-2.465349000">
        <ele>402.40</ele>
        <time>2014-11-01T07:07:15Z</time>
      </trkpt>
      <trkpt lat="42.458674000" lon="-2.465344000">
        <ele>402.40</ele>
        <time>2014-11-01T07:07:16Z</time>
      </trkpt>
      <trkpt lat="42.458672000" lon="-2.465339000">
        <ele>402.40</ele>
        <time>2014-11-01T07:07:17Z</time>
      </trkpt>
      <trkpt lat="42.458674000" lon="-2.465329000">
        <ele>402.40</ele>
        <time>2014-11-01T07:07:18Z</time>
      </trkpt>
      <trkpt lat="42.458677000" lon="-2.465309000">
        <ele>402.40</ele>
        <time>2014-11-01T07:07:19Z</time>
      </trkpt>
      <trkpt lat="42.458673000" lon="-2.465277000">
        <ele>402.40</ele>
        <time>2014-11-01T07:07:20Z</time>
      </trkpt>
      <trkpt lat="42.458672000" lon="-2.465267000">
        <ele>402.40</ele>
        <time>2014-11-01T07:07:21Z</time>
      </trkpt>
      <trkpt lat="42.458668000" lon="-2.465261000">
        <ele>402.40</ele>
        <time>2014-11-01T07:07:22Z</time>
      </trkpt>
      <trkpt lat="42.458664000" lon="-2.465263000">
        <ele>402.40</ele>
        <time>2014-11-01T07:07:23Z</time>
      </trkpt>
      <trkpt lat="42.458661000" lon="-2.465266000">
        <ele>402.40</ele>
        <time>2014-11-01T07:07:24Z</time>
      </trkpt>
      <trkpt lat="42.458664000" lon="-2.465266000">
        <ele>402.40</ele>
        <time>2014-11-01T07:07:25Z</time>
      </trkpt>
      <trkpt lat="42.458668000" lon="-2.465267000">
        <ele>402.40</ele>
        <time>2014-11-01T07:07:26Z</time>
      </trkpt>
      <trkpt lat="42.458668000" lon="-2.465269000">
        <ele>402.40</ele>
        <time>2014-11-01T07:07:27Z</time>
      </trkpt>
      <trkpt lat="42.458667000" lon="-2.465272000">
        <ele>402.40</ele>
        <time>2014-11-01T07:07:28Z</time>
      </trkpt>
      <trkpt lat="42.458667000" lon="-2.465279000">
        <ele>402.40</ele>
        <time>2014-11-01T07:07:29Z</time>
      </trkpt>
      <trkpt lat="42.458667000" lon="-2.465285000">
        <ele>402.40</ele>
        <time>2014-11-01T07:07:30Z</time>
      </trkpt>
      <trkpt lat="42.458666000" lon="-2.465290000">
        <ele>402.40</ele>
        <time>2014-11-01T07:07:31Z</time>
      </trkpt>
      <trkpt lat="42.458664000" lon="-2.465295000">
        <ele>402.40</ele>
        <time>2014-11-01T07:07:32Z</time>
      </trkpt>
      <trkpt lat="42.458663000" lon="-2.465300000">
        <ele>402.40</ele>
        <time>2014-11-01T07:07:33Z</time>
      </trkpt>
      <trkpt lat="42.458663000" lon="-2.465305000">
        <ele>402.40</ele>
        <time>2014-11-01T07:07:34Z</time>
      </trkpt>
      <trkpt lat="42.458659000" lon="-2.465309000">
        <ele>402.40</ele>
        <time>2014-11-01T07:07:35Z</time>
      </trkpt>
      <trkpt lat="42.458657000" lon="-2.465310000">
        <ele>402.40</ele>
        <time>2014-11-01T07:07:36Z</time>
      </trkpt>
      <trkpt lat="42.458654000" lon="-2.465309000">
        <ele>402.40</ele>
        <time>2014-11-01T07:07:37Z</time>
      </trkpt>
      <trkpt lat="42.458649000" lon="-2.465305000">
        <ele>402.40</ele>
        <time>2014-11-01T07:07:38Z</time>
      </trkpt>
      <trkpt lat="42.458643000" lon="-2.465307000">
        <ele>402.40</ele>
        <time>2014-11-01T07:07:40Z</time>
      </trkpt>
      <trkpt lat="42.458636000" lon="-2.465308000">
        <ele>402.40</ele>
        <time>2014-11-01T07:07:41Z</time>
      </trkpt>
      <trkpt lat="42.458640000" lon="-2.465306000">
        <ele>402.40</ele>
        <time>2014-11-01T07:07:42Z</time>
      </trkpt>
      <trkpt lat="42.458638000" lon="-2.465317000">
        <ele>402.40</ele>
        <time>2014-11-01T07:07:43Z</time>
      </trkpt>
      <trkpt lat="42.458639000" lon="-2.465322000">
        <ele>402.40</ele>
        <time>2014-11-01T07:07:44Z</time>
      </trkpt>
      <trkpt lat="42.458639000" lon="-2.465322000">
        <ele>402.40</ele>
        <time>2014-11-01T07:07:45Z</time>
      </trkpt>
      <trkpt lat="42.458638000" lon="-2.465324000">
        <ele>402.40</ele>
        <time>2014-11-01T07:07:46Z</time>
      </trkpt>
      <trkpt lat="42.458639000" lon="-2.465327000">
        <ele>402.40</ele>
        <time>2014-11-01T07:07:47Z</time>
      </trkpt>
      <trkpt lat="42.458642000" lon="-2.465331000">
        <ele>402.40</ele>
        <time>2014-11-01T07:07:48Z</time>
      </trkpt>
      <trkpt lat="42.458642000" lon="-2.465329000">
        <ele>402.40</ele>
        <time>2014-11-01T07:07:49Z</time>
      </trkpt>
      <trkpt lat="42.458641000" lon="-2.465329000">
        <ele>402.40</ele>
        <time>2014-11-01T07:07:50Z</time>
      </trkpt>
      <trkpt lat="42.458635000" lon="-2.465325000">
        <ele>402.40</ele>
        <time>2014-11-01T07:07:51Z</time>
      </trkpt>
      <trkpt lat="42.458634000" lon="-2.465323000">
        <ele>402.40</ele>
        <time>2014-11-01T07:07:52Z</time>
      </trkpt>
      <trkpt lat="42.458629000" lon="-2.465318000">
        <ele>402.40</ele>
        <time>2014-11-01T07:07:53Z</time>
      </trkpt>
      <trkpt lat="42.458625000" lon="-2.465316000">
        <ele>402.40</ele>
        <time>2014-11-01T07:07:54Z</time>
      </trkpt>
      <trkpt lat="42.458616000" lon="-2.465312000">
        <ele>402.40</ele>
        <time>2014-11-01T07:07:55Z</time>
      </trkpt>
      <trkpt lat="42.458600000" lon="-2.465315000">
        <ele>402.40</ele>
        <time>2014-11-01T07:07:56Z</time>
      </trkpt>
      <trkpt lat="42.458585000" lon="-2.465321000">
        <ele>402.40</ele>
        <time>2014-11-01T07:07:57Z</time>
      </trkpt>
      <trkpt lat="42.458573000" lon="-2.465319000">
        <ele>402.40</ele>
        <time>2014-11-01T07:07:58Z</time>
      </trkpt>
      <trkpt lat="42.458563000" lon="-2.465323000">
        <ele>402.40</ele>
        <time>2014-11-01T07:07:59Z</time>
      </trkpt>
      <trkpt lat="42.458562000" lon="-2.465328000">
        <ele>402.40</ele>
        <time>2014-11-01T07:08:00Z</time>
      </trkpt>
      <trkpt lat="42.458563000" lon="-2.465327000">
        <ele>402.40</ele>
        <time>2014-11-01T07:08:01Z</time>
      </trkpt>
      <trkpt lat="42.458566000" lon="-2.465332000">
        <ele>402.40</ele>
        <time>2014-11-01T07:08:02Z</time>
      </trkpt>
      <trkpt lat="42.458566000" lon="-2.465333000">
        <ele>402.40</ele>
        <time>2014-11-01T07:08:03Z</time>
      </trkpt>
      <trkpt lat="42.458567000" lon="-2.465331000">
        <ele>402.40</ele>
        <time>2014-11-01T07:08:04Z</time>
      </trkpt>
      <trkpt lat="42.458574000" lon="-2.465313000">
        <ele>402.40</ele>
        <time>2014-11-01T07:08:05Z</time>
      </trkpt>
      <trkpt lat="42.458577000" lon="-2.465291000">
        <ele>402.50</ele>
        <time>2014-11-01T07:08:06Z</time>
      </trkpt>
      <trkpt lat="42.458579000" lon="-2.465265000">
        <ele>402.50</ele>
        <time>2014-11-01T07:08:07Z</time>
      </trkpt>
      <trkpt lat="42.458585000" lon="-2.465237000">
        <ele>402.50</ele>
        <time>2014-11-01T07:08:08Z</time>
      </trkpt>
      <trkpt lat="42.458580000" lon="-2.465209000">
        <ele>402.30</ele>
        <time>2014-11-01T07:08:09Z</time>
      </trkpt>
      <trkpt lat="42.458577000" lon="-2.465179000">
        <ele>402.20</ele>
        <time>2014-11-01T07:08:10Z</time>
      </trkpt>
      <trkpt lat="42.458555000" lon="-2.465156000">
        <ele>402.20</ele>
        <time>2014-11-01T07:08:11Z</time>
      </trkpt>
      <trkpt lat="42.458531000" lon="-2.465130000">
        <ele>402.10</ele>
        <time>2014-11-01T07:08:12Z</time>
      </trkpt>
      <trkpt lat="42.458515000" lon="-2.465101000">
        <ele>402.10</ele>
        <time>2014-11-01T07:08:13Z</time>
      </trkpt>
      <trkpt lat="42.458508000" lon="-2.465065000">
        <ele>402.20</ele>
        <time>2014-11-01T07:08:14Z</time>
      </trkpt>
      <trkpt lat="42.458504000" lon="-2.465030000">
        <ele>402.20</ele>
        <time>2014-11-01T07:08:15Z</time>
      </trkpt>
      <trkpt lat="42.458493000" lon="-2.464994000">
        <ele>402.20</ele>
        <time>2014-11-01T07:08:16Z</time>
      </trkpt>
      <trkpt lat="42.458494000" lon="-2.464957000">
        <ele>402.10</ele>
        <time>2014-11-01T07:08:17Z</time>
      </trkpt>
      <trkpt lat="42.458484000" lon="-2.464915000">
        <ele>402.10</ele>
        <time>2014-11-01T07:08:18Z</time>
      </trkpt>
      <trkpt lat="42.458474000" lon="-2.464875000">
        <ele>401.90</ele>
        <time>2014-11-01T07:08:19Z</time>
      </trkpt>
      <trkpt lat="42.458455000" lon="-2.464835000">
        <ele>401.70</ele>
        <time>2014-11-01T07:08:20Z</time>
      </trkpt>
      <trkpt lat="42.458441000" lon="-2.464794000">
        <ele>401.70</ele>
        <time>2014-11-01T07:08:21Z</time>
      </trkpt>
      <trkpt lat="42.458431000" lon="-2.464752000">
        <ele>401.60</ele>
        <time>2014-11-01T07:08:22Z</time>
      </trkpt>
      <trkpt lat="42.458421000" lon="-2.464707000">
        <ele>401.60</ele>
        <time>2014-11-01T07:08:23Z</time>
      </trkpt>
      <trkpt lat="42.458412000" lon="-2.464663000">
        <ele>401.60</ele>
        <time>2014-11-01T07:08:24Z</time>
      </trkpt>
      <trkpt lat="42.458404000" lon="-2.464617000">
        <ele>401.70</ele>
        <time>2014-11-01T07:08:25Z</time>
      </trkpt>
      <trkpt lat="42.458398000" lon="-2.464571000">
        <ele>401.80</ele>
        <time>2014-11-01T07:08:26Z</time>
      </trkpt>
      <trkpt lat="42.458394000" lon="-2.464521000">
        <ele>401.80</ele>
        <time>2014-11-01T07:08:27Z</time>
      </trkpt>
      <trkpt lat="42.458388000" lon="-2.464471000">
        <ele>401.80</ele>
        <time>2014-11-01T07:08:28Z</time>
      </trkpt>
      <trkpt lat="42.458386000" lon="-2.464427000">
        <ele>401.70</ele>
        <time>2014-11-01T07:08:29Z</time>
      </trkpt>
      <trkpt lat="42.458386000" lon="-2.464381000">
        <ele>401.60</ele>
        <time>2014-11-01T07:08:30Z</time>
      </trkpt>
      <trkpt lat="42.458387000" lon="-2.464331000">
        <ele>401.40</ele>
        <time>2014-11-01T07:08:31Z</time>
      </trkpt>
      <trkpt lat="42.458388000" lon="-2.464282000">
        <ele>401.30</ele>
        <time>2014-11-01T07:08:32Z</time>
      </trkpt>
      <trkpt lat="42.458379000" lon="-2.464236000">
        <ele>401.20</ele>
        <time>2014-11-01T07:08:33Z</time>
      </trkpt>
      <trkpt lat="42.458372000" lon="-2.464185000">
        <ele>401.10</ele>
        <time>2014-11-01T07:08:34Z</time>
      </trkpt>
      <trkpt lat="42.458368000" lon="-2.464132000">
        <ele>401.00</ele>
        <time>2014-11-01T07:08:35Z</time>
      </trkpt>
      <trkpt lat="42.458359000" lon="-2.464082000">
        <ele>400.90</ele>
        <time>2014-11-01T07:08:36Z</time>
      </trkpt>
      <trkpt lat="42.458363000" lon="-2.464032000">
        <ele>400.60</ele>
        <time>2014-11-01T07:08:37Z</time>
      </trkpt>
      <trkpt lat="42.458363000" lon="-2.463987000">
        <ele>400.30</ele>
        <time>2014-11-01T07:08:38Z</time>
      </trkpt>
      <trkpt lat="42.458357000" lon="-2.463941000">
        <ele>400.20</ele>
        <time>2014-11-01T07:08:39Z</time>
      </trkpt>
      <trkpt lat="42.458353000" lon="-2.463854000">
        <ele>400.20</ele>
        <time>2014-11-01T07:08:41Z</time>
      </trkpt>
      <trkpt lat="42.458348000" lon="-2.463806000">
        <ele>400.20</ele>
        <time>2014-11-01T07:08:42Z</time>
      </trkpt>
      <trkpt lat="42.458343000" lon="-2.463759000">
        <ele>400.20</ele>
        <time>2014-11-01T07:08:43Z</time>
      </trkpt>
      <trkpt lat="42.458336000" lon="-2.463713000">
        <ele>400.20</ele>
        <time>2014-11-01T07:08:44Z</time>
      </trkpt>
      <trkpt lat="42.458330000" lon="-2.463668000">
        <ele>400.20</ele>
        <time>2014-11-01T07:08:45Z</time>
      </trkpt>
      <trkpt lat="42.458324000" lon="-2.463625000">
        <ele>400.10</ele>
        <time>2014-11-01T07:08:46Z</time>
      </trkpt>
      <trkpt lat="42.458317000" lon="-2.463582000">
        <ele>400.00</ele>
        <time>2014-11-01T07:08:47Z</time>
      </trkpt>
      <trkpt lat="42.458310000" lon="-2.463539000">
        <ele>399.90</ele>
        <time>2014-11-01T07:08:48Z</time>
      </trkpt>
      <trkpt lat="42.458305000" lon="-2.463492000">
        <ele>399.90</ele>
        <time>2014-11-01T07:08:49Z</time>
      </trkpt>
      <trkpt lat="42.458299000" lon="-2.463445000">
        <ele>399.80</ele>
        <time>2014-11-01T07:08:50Z</time>
      </trkpt>
      <trkpt lat="42.458291000" lon="-2.463404000">
        <ele>399.80</ele>
        <time>2014-11-01T07:08:51Z</time>
      </trkpt>
      <trkpt lat="42.458290000" lon="-2.463357000">
        <ele>400.00</ele>
        <time>2014-11-01T07:08:52Z</time>
      </trkpt>
      <trkpt lat="42.458283000" lon="-2.463309000">
        <ele>400.20</ele>
        <time>2014-11-01T07:08:53Z</time>
      </trkpt>
      <trkpt lat="42.458272000" lon="-2.463260000">
        <ele>400.30</ele>
        <time>2014-11-01T07:08:54Z</time>
      </trkpt>
      <trkpt lat="42.458256000" lon="-2.463212000">
        <ele>400.40</ele>
        <time>2014-11-01T07:08:55Z</time>
      </trkpt>
      <trkpt lat="42.458250000" lon="-2.463160000">
        <ele>400.00</ele>
        <time>2014-11-01T07:08:56Z</time>
      </trkpt>
      <trkpt lat="42.458238000" lon="-2.463112000">
        <ele>399.70</ele>
        <time>2014-11-01T07:08:57Z</time>
      </trkpt>
      <trkpt lat="42.458229000" lon="-2.463064000">
        <ele>399.50</ele>
        <time>2014-11-01T07:08:58Z</time>
      </trkpt>
      <trkpt lat="42.458215000" lon="-2.463020000">
        <ele>399.20</ele>
        <time>2014-11-01T07:08:59Z</time>
      </trkpt>
      <trkpt lat="42.458204000" lon="-2.462976000">
        <ele>399.20</ele>
        <time>2014-11-01T07:09:00Z</time>
      </trkpt>
      <trkpt lat="42.458191000" lon="-2.462930000">
        <ele>399.10</ele>
        <time>2014-11-01T07:09:01Z</time>
      </trkpt>
      <trkpt lat="42.458180000" lon="-2.462886000">
        <ele>398.90</ele>
        <time>2014-11-01T07:09:02Z</time>
      </trkpt>
      <trkpt lat="42.458171000" lon="-2.462844000">
        <ele>398.80</ele>
        <time>2014-11-01T07:09:03Z</time>
      </trkpt>
      <trkpt lat="42.458164000" lon="-2.462798000">
        <ele>398.70</ele>
        <time>2014-11-01T07:09:04Z</time>
      </trkpt>
      <trkpt lat="42.458157000" lon="-2.462752000">
        <ele>398.60</ele>
        <time>2014-11-01T07:09:05Z</time>
      </trkpt>
      <trkpt lat="42.458163000" lon="-2.462702000">
        <ele>398.50</ele>
        <time>2014-11-01T07:09:06Z</time>
      </trkpt>
      <trkpt lat="42.458151000" lon="-2.462658000">
        <ele>398.50</ele>
        <time>2014-11-01T07:09:07Z</time>
      </trkpt>
      <trkpt lat="42.458136000" lon="-2.462616000">
        <ele>398.30</ele>
        <time>2014-11-01T07:09:08Z</time>
      </trkpt>
      <trkpt lat="42.458129000" lon="-2.462569000">
        <ele>398.10</ele>
        <time>2014-11-01T07:09:09Z</time>
      </trkpt>
      <trkpt lat="42.458131000" lon="-2.462529000">
        <ele>398.00</ele>
        <time>2014-11-01T07:09:10Z</time>
      </trkpt>
      <trkpt lat="42.458121000" lon="-2.462488000">
        <ele>397.90</ele>
        <time>2014-11-01T07:09:11Z</time>
      </trkpt>
      <trkpt lat="42.458106000" lon="-2.462446000">
        <ele>397.80</ele>
        <time>2014-11-01T07:09:12Z</time>
      </trkpt>
      <trkpt lat="42.458085000" lon="-2.462404000">
        <ele>397.80</ele>
        <time>2014-11-01T07:09:13Z</time>
      </trkpt>
      <trkpt lat="42.458058000" lon="-2.462362000">
        <ele>397.70</ele>
        <time>2014-11-01T07:09:14Z</time>
      </trkpt>
      <trkpt lat="42.458022000" lon="-2.462320000">
        <ele>397.70</ele>
        <time>2014-11-01T07:09:15Z</time>
      </trkpt>
      <trkpt lat="42.457985000" lon="-2.462278000">
        <ele>397.70</ele>
        <time>2014-11-01T07:09:16Z</time>
      </trkpt>
      <trkpt lat="42.457954000" lon="-2.462240000">
        <ele>397.60</ele>
        <time>2014-11-01T07:09:17Z</time>
      </trkpt>
      <trkpt lat="42.457933000" lon="-2.462197000">
        <ele>397.50</ele>
        <time>2014-11-01T07:09:18Z</time>
      </trkpt>
      <trkpt lat="42.457945000" lon="-2.462138000">
        <ele>397.40</ele>
        <time>2014-11-01T07:09:19Z</time>
      </trkpt>
      <trkpt lat="42.457936000" lon="-2.462087000">
        <ele>397.30</ele>
        <time>2014-11-01T07:09:20Z</time>
      </trkpt>
      <trkpt lat="42.457927000" lon="-2.462030000">
        <ele>397.30</ele>
        <time>2014-11-01T07:09:21Z</time>
      </trkpt>
      <trkpt lat="42.457936000" lon="-2.461964000">
        <ele>397.20</ele>
        <time>2014-11-01T07:09:22Z</time>
      </trkpt>
      <trkpt lat="42.457935000" lon="-2.461902000">
        <ele>397.20</ele>
        <time>2014-11-01T07:09:23Z</time>
      </trkpt>
      <trkpt lat="42.457930000" lon="-2.461845000">
        <ele>397.20</ele>
        <time>2014-11-01T07:09:24Z</time>
      </trkpt>
      <trkpt lat="42.457928000" lon="-2.461790000">
        <ele>397.20</ele>
        <time>2014-11-01T07:09:25Z</time>
      </trkpt>
      <trkpt lat="42.457924000" lon="-2.461733000">
        <ele>397.30</ele>
        <time>2014-11-01T07:09:26Z</time>
      </trkpt>
      <trkpt lat="42.457923000" lon="-2.461673000">
        <ele>397.30</ele>
        <time>2014-11-01T07:09:27Z</time>
      </trkpt>
      <trkpt lat="42.457920000" lon="-2.461607000">
        <ele>397.10</ele>
        <time>2014-11-01T07:09:28Z</time>
      </trkpt>
      <trkpt lat="42.457915000" lon="-2.461547000">
        <ele>397.00</ele>
        <time>2014-11-01T07:09:29Z</time>
      </trkpt>
      <trkpt lat="42.457908000" lon="-2.461501000">
        <ele>396.90</ele>
        <time>2014-11-01T07:09:30Z</time>
      </trkpt>
      <trkpt lat="42.457898000" lon="-2.461453000">
        <ele>396.90</ele>
        <time>2014-11-01T07:09:31Z</time>
      </trkpt>
      <trkpt lat="42.457898000" lon="-2.461413000">
        <ele>396.50</ele>
        <time>2014-11-01T07:09:32Z</time>
      </trkpt>
      <trkpt lat="42.457895000" lon="-2.461376000">
        <ele>396.30</ele>
        <time>2014-11-01T07:09:33Z</time>
      </trkpt>
      <trkpt lat="42.457890000" lon="-2.461349000">
        <ele>396.10</ele>
        <time>2014-11-01T07:09:34Z</time>
      </trkpt>
      <trkpt lat="42.457886000" lon="-2.461321000">
        <ele>396.00</ele>
        <time>2014-11-01T07:09:35Z</time>
      </trkpt>
      <trkpt lat="42.457888000" lon="-2.461293000">
        <ele>395.90</ele>
        <time>2014-11-01T07:09:36Z</time>
      </trkpt>
      <trkpt lat="42.457882000" lon="-2.461264000">
        <ele>395.80</ele>
        <time>2014-11-01T07:09:37Z</time>
      </trkpt>
      <trkpt lat="42.457877000" lon="-2.461247000">
        <ele>395.70</ele>
        <time>2014-11-01T07:09:38Z</time>
      </trkpt>
      <trkpt lat="42.457867000" lon="-2.461238000">
        <ele>395.50</ele>
        <time>2014-11-01T07:09:39Z</time>
      </trkpt>
      <trkpt lat="42.457870000" lon="-2.461226000">
        <ele>395.40</ele>
        <time>2014-11-01T07:09:40Z</time>
      </trkpt>
      <trkpt lat="42.457878000" lon="-2.461215000">
        <ele>395.30</ele>
        <time>2014-11-01T07:09:41Z</time>
      </trkpt>
      <trkpt lat="42.457878000" lon="-2.461211000">
        <ele>395.30</ele>
        <time>2014-11-01T07:09:42Z</time>
      </trkpt>
      <trkpt lat="42.457872000" lon="-2.461221000">
        <ele>395.20</ele>
        <time>2014-11-01T07:09:44Z</time>
      </trkpt>
      <trkpt lat="42.457872000" lon="-2.461223000">
        <ele>395.20</ele>
        <time>2014-11-01T07:09:45Z</time>
      </trkpt>
      <trkpt lat="42.457872000" lon="-2.461228000">
        <ele>395.20</ele>
        <time>2014-11-01T07:09:46Z</time>
      </trkpt>
      <trkpt lat="42.457872000" lon="-2.461229000">
        <ele>395.20</ele>
        <time>2014-11-01T07:09:47Z</time>
      </trkpt>
      <trkpt lat="42.457876000" lon="-2.461229000">
        <ele>395.10</ele>
        <time>2014-11-01T07:09:48Z</time>
      </trkpt>
      <trkpt lat="42.457878000" lon="-2.461230000">
        <ele>395.10</ele>
        <time>2014-11-01T07:09:49Z</time>
      </trkpt>
      <trkpt lat="42.457881000" lon="-2.461232000">
        <ele>395.00</ele>
        <time>2014-11-01T07:09:50Z</time>
      </trkpt>
      <trkpt lat="42.457882000" lon="-2.461232000">
        <ele>395.00</ele>
        <time>2014-11-01T07:09:51Z</time>
      </trkpt>
      <trkpt lat="42.457883000" lon="-2.461232000">
        <ele>394.90</ele>
        <time>2014-11-01T07:09:52Z</time>
      </trkpt>
      <trkpt lat="42.457882000" lon="-2.461232000">
        <ele>394.90</ele>
        <time>2014-11-01T07:09:53Z</time>
      </trkpt>
      <trkpt lat="42.457882000" lon="-2.461233000">
        <ele>394.90</ele>
        <time>2014-11-01T07:09:54Z</time>
      </trkpt>
      <trkpt lat="42.457882000" lon="-2.461234000">
        <ele>394.90</ele>
        <time>2014-11-01T07:09:55Z</time>
      </trkpt>
      <trkpt lat="42.457882000" lon="-2.461233000">
        <ele>395.00</ele>
        <time>2014-11-01T07:09:56Z</time>
      </trkpt>
      <trkpt lat="42.457884000" lon="-2.461233000">
        <ele>395.10</ele>
        <time>2014-11-01T07:09:57Z</time>
      </trkpt>
      <trkpt lat="42.457883000" lon="-2.461232000">
        <ele>395.10</ele>
        <time>2014-11-01T07:09:58Z</time>
      </trkpt>
      <trkpt lat="42.457891000" lon="-2.461229000">
        <ele>395.00</ele>
        <time>2014-11-01T07:10:00Z</time>
      </trkpt>
      <trkpt lat="42.457898000" lon="-2.461222000">
        <ele>395.20</ele>
        <time>2014-11-01T07:10:03Z</time>
      </trkpt>
      <trkpt lat="42.457900000" lon="-2.461220000">
        <ele>395.30</ele>
        <time>2014-11-01T07:10:04Z</time>
      </trkpt>
      <trkpt lat="42.457913000" lon="-2.461220000">
        <ele>395.30</ele>
        <time>2014-11-01T07:10:05Z</time>
      </trkpt>
      <trkpt lat="42.457926000" lon="-2.461218000">
        <ele>395.10</ele>
        <time>2014-11-01T07:10:06Z</time>
      </trkpt>
      <trkpt lat="42.457943000" lon="-2.461215000">
        <ele>395.00</ele>
        <time>2014-11-01T07:10:07Z</time>
      </trkpt>
      <trkpt lat="42.457963000" lon="-2.461209000">
        <ele>395.00</ele>
        <time>2014-11-01T07:10:08Z</time>
      </trkpt>
      <trkpt lat="42.457991000" lon="-2.461210000">
        <ele>394.90</ele>
        <time>2014-11-01T07:10:09Z</time>
      </trkpt>
      <trkpt lat="42.458028000" lon="-2.461204000">
        <ele>394.80</ele>
        <time>2014-11-01T07:10:10Z</time>
      </trkpt>
      <trkpt lat="42.458043000" lon="-2.461198000">
        <ele>394.60</ele>
        <time>2014-11-01T07:10:11Z</time>
      </trkpt>
      <trkpt lat="42.458056000" lon="-2.461196000">
        <ele>394.60</ele>
        <time>2014-11-01T07:10:12Z</time>
      </trkpt>
      <trkpt lat="42.458063000" lon="-2.461201000">
        <ele>394.70</ele>
        <time>2014-11-01T07:10:13Z</time>
      </trkpt>
      <trkpt lat="42.458068000" lon="-2.461203000">
        <ele>394.60</ele>
        <time>2014-11-01T07:10:14Z</time>
      </trkpt>
      <trkpt lat="42.458071000" lon="-2.461203000">
        <ele>394.60</ele>
        <time>2014-11-01T07:10:15Z</time>
      </trkpt>
      <trkpt lat="42.458075000" lon="-2.461199000">
        <ele>394.60</ele>
        <time>2014-11-01T07:10:16Z</time>
      </trkpt>
      <trkpt lat="42.458078000" lon="-2.461193000">
        <ele>394.60</ele>
        <time>2014-11-01T07:10:17Z</time>
      </trkpt>
      <trkpt lat="42.458073000" lon="-2.461187000">
        <ele>394.60</ele>
        <time>2014-11-01T07:10:18Z</time>
      </trkpt>
      <trkpt lat="42.458067000" lon="-2.461186000">
        <ele>394.60</ele>
        <time>2014-11-01T07:10:19Z</time>
      </trkpt>
      <trkpt lat="42.458062000" lon="-2.461179000">
        <ele>394.70</ele>
        <time>2014-11-01T07:10:20Z</time>
      </trkpt>
      <trkpt lat="42.458058000" lon="-2.461175000">
        <ele>394.70</ele>
        <time>2014-11-01T07:10:21Z</time>
      </trkpt>
      <trkpt lat="42.458055000" lon="-2.461176000">
        <ele>394.60</ele>
        <time>2014-11-01T07:10:22Z</time>
      </trkpt>
      <trkpt lat="42.458052000" lon="-2.461181000">
        <ele>394.60</ele>
        <time>2014-11-01T07:10:23Z</time>
      </trkpt>
      <trkpt lat="42.458048000" lon="-2.461186000">
        <ele>394.50</ele>
        <time>2014-11-01T07:10:24Z</time>
      </trkpt>
      <trkpt lat="42.458045000" lon="-2.461190000">
        <ele>394.50</ele>
        <time>2014-11-01T07:10:25Z</time>
      </trkpt>
      <trkpt lat="42.458047000" lon="-2.461192000">
        <ele>394.50</ele>
        <time>2014-11-01T07:10:26Z</time>
      </trkpt>
      <trkpt lat="42.458033000" lon="-2.461194000">
        <ele>394.60</ele>
        <time>2014-11-01T07:10:27Z</time>
      </trkpt>
      <trkpt lat="42.458015000" lon="-2.461197000">
        <ele>394.60</ele>
        <time>2014-11-01T07:10:28Z</time>
      </trkpt>
      <trkpt lat="42.458015000" lon="-2.461199000">
        <ele>394.60</ele>
        <time>2014-11-01T07:10:29Z</time>
      </trkpt>
      <trkpt lat="42.457996000" lon="-2.461200000">
        <ele>394.70</ele>
        <time>2014-11-01T07:10:30Z</time>
      </trkpt>
      <trkpt lat="42.457980000" lon="-2.461192000">
        <ele>394.80</ele>
        <time>2014-11-01T07:10:31Z</time>
      </trkpt>
      <trkpt lat="42.457949000" lon="-2.461183000">
        <ele>394.70</ele>
        <time>2014-11-01T07:10:32Z</time>
      </trkpt>
      <trkpt lat="42.457929000" lon="-2.461171000">
        <ele>394.60</ele>
        <time>2014-11-01T07:10:33Z</time>
      </trkpt>
      <trkpt lat="42.457911000" lon="-2.461178000">
        <ele>394.70</ele>
        <time>2014-11-01T07:10:34Z</time>
      </trkpt>
      <trkpt lat="42.457882000" lon="-2.461169000">
        <ele>394.80</ele>
        <time>2014-11-01T07:10:35Z</time>
      </trkpt>
      <trkpt lat="42.457859000" lon="-2.461159000">
        <ele>394.60</ele>
        <time>2014-11-01T07:10:36Z</time>
      </trkpt>
      <trkpt lat="42.457838000" lon="-2.461153000">
        <ele>394.50</ele>
        <time>2014-11-01T07:10:37Z</time>
      </trkpt>
      <trkpt lat="42.457815000" lon="-2.461140000">
        <ele>394.70</ele>
        <time>2014-11-01T07:10:38Z</time>
      </trkpt>
      <trkpt lat="42.457801000" lon="-2.461127000">
        <ele>394.80</ele>
        <time>2014-11-01T07:10:39Z</time>
      </trkpt>
      <trkpt lat="42.457791000" lon="-2.461117000">
        <ele>394.90</ele>
        <time>2014-11-01T07:10:40Z</time>
      </trkpt>
      <trkpt lat="42.457774000" lon="-2.461094000">
        <ele>395.00</ele>
        <time>2014-11-01T07:10:41Z</time>
      </trkpt>
      <trkpt lat="42.457746000" lon="-2.461059000">
        <ele>395.00</ele>
        <time>2014-11-01T07:10:42Z</time>
      </trkpt>
      <trkpt lat="42.457715000" lon="-2.461030000">
        <ele>395.10</ele>
        <time>2014-11-01T07:10:43Z</time>
      </trkpt>
      <trkpt lat="42.457697000" lon="-2.460998000">
        <ele>395.10</ele>
        <time>2014-11-01T07:10:44Z</time>
      </trkpt>
      <trkpt lat="42.457670000" lon="-2.460937000">
        <ele>395.10</ele>
        <time>2014-11-01T07:10:46Z</time>
      </trkpt>
      <trkpt lat="42.457644000" lon="-2.460905000">
        <ele>395.20</ele>
        <time>2014-11-01T07:10:47Z</time>
      </trkpt>
      <trkpt lat="42.457624000" lon="-2.460869000">
        <ele>395.20</ele>
        <time>2014-11-01T07:10:48Z</time>
      </trkpt>
      <trkpt lat="42.457609000" lon="-2.460837000">
        <ele>395.30</ele>
        <time>2014-11-01T07:10:49Z</time>
      </trkpt>
      <trkpt lat="42.457587000" lon="-2.460805000">
        <ele>395.30</ele>
        <time>2014-11-01T07:10:50Z</time>
      </trkpt>
      <trkpt lat="42.457559000" lon="-2.460773000">
        <ele>395.40</ele>
        <time>2014-11-01T07:10:51Z</time>
      </trkpt>
      <trkpt lat="42.457534000" lon="-2.460741000">
        <ele>395.40</ele>
        <time>2014-11-01T07:10:52Z</time>
      </trkpt>
      <trkpt lat="42.457508000" lon="-2.460704000">
        <ele>395.40</ele>
        <time>2014-11-01T07:10:53Z</time>
      </trkpt>
      <trkpt lat="42.457488000" lon="-2.460670000">
        <ele>395.40</ele>
        <time>2014-11-01T07:10:54Z</time>
      </trkpt>
      <trkpt lat="42.457466000" lon="-2.460640000">
        <ele>395.40</ele>
        <time>2014-11-01T07:10:55Z</time>
      </trkpt>
      <trkpt lat="42.457441000" lon="-2.460605000">
        <ele>395.40</ele>
        <time>2014-11-01T07:10:56Z</time>
      </trkpt>
      <trkpt lat="42.457422000" lon="-2.460573000">
        <ele>395.30</ele>
        <time>2014-11-01T07:10:57Z</time>
      </trkpt>
      <trkpt lat="42.457394000" lon="-2.460537000">
        <ele>395.20</ele>
        <time>2014-11-01T07:10:58Z</time>
      </trkpt>
      <trkpt lat="42.457372000" lon="-2.460504000">
        <ele>395.20</ele>
        <time>2014-11-01T07:10:59Z</time>
      </trkpt>
      <trkpt lat="42.457335000" lon="-2.460467000">
        <ele>395.10</ele>
        <time>2014-11-01T07:11:00Z</time>
      </trkpt>
      <trkpt lat="42.457295000" lon="-2.460426000">
        <ele>395.10</ele>
        <time>2014-11-01T07:11:01Z</time>
      </trkpt>
      <trkpt lat="42.457242000" lon="-2.460382000">
        <ele>395.00</ele>
        <time>2014-11-01T07:11:02Z</time>
      </trkpt>
      <trkpt lat="42.457194000" lon="-2.460345000">
        <ele>395.00</ele>
        <time>2014-11-01T07:11:03Z</time>
      </trkpt>
      <trkpt lat="42.457149000" lon="-2.460305000">
        <ele>394.90</ele>
        <time>2014-11-01T07:11:04Z</time>
      </trkpt>
      <trkpt lat="42.457111000" lon="-2.460267000">
        <ele>394.80</ele>
        <time>2014-11-01T07:11:05Z</time>
      </trkpt>
      <trkpt lat="42.457123000" lon="-2.460198000">
        <ele>394.70</ele>
        <time>2014-11-01T07:11:06Z</time>
      </trkpt>
      <trkpt lat="42.457133000" lon="-2.460142000">
        <ele>394.60</ele>
        <time>2014-11-01T07:11:07Z</time>
      </trkpt>
      <trkpt lat="42.457107000" lon="-2.460100000">
        <ele>394.70</ele>
        <time>2014-11-01T07:11:08Z</time>
      </trkpt>
      <trkpt lat="42.457078000" lon="-2.460059000">
        <ele>394.80</ele>
        <time>2014-11-01T07:11:09Z</time>
      </trkpt>
      <trkpt lat="42.457051000" lon="-2.460020000">
        <ele>394.90</ele>
        <time>2014-11-01T07:11:10Z</time>
      </trkpt>
      <trkpt lat="42.457020000" lon="-2.459987000">
        <ele>394.90</ele>
        <time>2014-11-01T07:11:11Z</time>
      </trkpt>
      <trkpt lat="42.456993000" lon="-2.459952000">
        <ele>394.90</ele>
        <time>2014-11-01T07:11:12Z</time>
      </trkpt>
      <trkpt lat="42.456972000" lon="-2.459913000">
        <ele>394.90</ele>
        <time>2014-11-01T07:11:13Z</time>
      </trkpt>
      <trkpt lat="42.456944000" lon="-2.459877000">
        <ele>394.90</ele>
        <time>2014-11-01T07:11:14Z</time>
      </trkpt>
      <trkpt lat="42.456922000" lon="-2.459836000">
        <ele>394.80</ele>
        <time>2014-11-01T07:11:15Z</time>
      </trkpt>
      <trkpt lat="42.456901000" lon="-2.459804000">
        <ele>394.70</ele>
        <time>2014-11-01T07:11:16Z</time>
      </trkpt>
      <trkpt lat="42.456895000" lon="-2.459770000">
        <ele>394.70</ele>
        <time>2014-11-01T07:11:17Z</time>
      </trkpt>
      <trkpt lat="42.456885000" lon="-2.459735000">
        <ele>394.50</ele>
        <time>2014-11-01T07:11:18Z</time>
      </trkpt>
      <trkpt lat="42.456878000" lon="-2.459694000">
        <ele>394.40</ele>
        <time>2014-11-01T07:11:19Z</time>
      </trkpt>
      <trkpt lat="42.456870000" lon="-2.459657000">
        <ele>394.40</ele>
        <time>2014-11-01T07:11:20Z</time>
      </trkpt>
      <trkpt lat="42.456858000" lon="-2.459618000">
        <ele>394.30</ele>
        <time>2014-11-01T07:11:21Z</time>
      </trkpt>
      <trkpt lat="42.456843000" lon="-2.459579000">
        <ele>394.30</ele>
        <time>2014-11-01T07:11:22Z</time>
      </trkpt>
      <trkpt lat="42.456828000" lon="-2.459542000">
        <ele>394.30</ele>
        <time>2014-11-01T07:11:23Z</time>
      </trkpt>
      <trkpt lat="42.456816000" lon="-2.459506000">
        <ele>394.40</ele>
        <time>2014-11-01T07:11:24Z</time>
      </trkpt>
      <trkpt lat="42.456800000" lon="-2.459472000">
        <ele>394.60</ele>
        <time>2014-11-01T07:11:25Z</time>
      </trkpt>
      <trkpt lat="42.456783000" lon="-2.459438000">
        <ele>394.70</ele>
        <time>2014-11-01T07:11:26Z</time>
      </trkpt>
      <trkpt lat="42.456762000" lon="-2.459414000">
        <ele>394.70</ele>
        <time>2014-11-01T07:11:27Z</time>
      </trkpt>
      <trkpt lat="42.456737000" lon="-2.459383000">
        <ele>394.60</ele>
        <time>2014-11-01T07:11:28Z</time>
      </trkpt>
      <trkpt lat="42.456695000" lon="-2.459358000">
        <ele>394.60</ele>
        <time>2014-11-01T07:11:29Z</time>
      </trkpt>
      <trkpt lat="42.456654000" lon="-2.459335000">
        <ele>394.60</ele>
        <time>2014-11-01T07:11:30Z</time>
      </trkpt>
      <trkpt lat="42.456620000" lon="-2.459308000">
        <ele>394.50</ele>
        <time>2014-11-01T07:11:31Z</time>
      </trkpt>
      <trkpt lat="42.456569000" lon="-2.459290000">
        <ele>394.60</ele>
        <time>2014-11-01T07:11:32Z</time>
      </trkpt>
      <trkpt lat="42.456534000" lon="-2.459272000">
        <ele>394.70</ele>
        <time>2014-11-01T07:11:33Z</time>
      </trkpt>
      <trkpt lat="42.456503000" lon="-2.459242000">
        <ele>394.70</ele>
        <time>2014-11-01T07:11:34Z</time>
      </trkpt>
      <trkpt lat="42.456472000" lon="-2.459212000">
        <ele>394.70</ele>
        <time>2014-11-01T07:11:35Z</time>
      </trkpt>
      <trkpt lat="42.456444000" lon="-2.459180000">
        <ele>394.80</ele>
        <time>2014-11-01T07:11:36Z</time>
      </trkpt>
      <trkpt lat="42.456422000" lon="-2.459148000">
        <ele>394.80</ele>
        <time>2014-11-01T07:11:37Z</time>
      </trkpt>
      <trkpt lat="42.456399000" lon="-2.459112000">
        <ele>394.70</ele>
        <time>2014-11-01T07:11:38Z</time>
      </trkpt>
      <trkpt lat="42.456369000" lon="-2.459077000">
        <ele>394.70</ele>
        <time>2014-11-01T07:11:39Z</time>
      </trkpt>
      <trkpt lat="42.456332000" lon="-2.459039000">
        <ele>394.70</ele>
        <time>2014-11-01T07:11:40Z</time>
      </trkpt>
      <trkpt lat="42.456295000" lon="-2.459003000">
        <ele>394.70</ele>
        <time>2014-11-01T07:11:41Z</time>
      </trkpt>
      <trkpt lat="42.456273000" lon="-2.458968000">
        <ele>394.50</ele>
        <time>2014-11-01T07:11:42Z</time>
      </trkpt>
      <trkpt lat="42.456258000" lon="-2.458934000">
        <ele>394.30</ele>
        <time>2014-11-01T07:11:43Z</time>
      </trkpt>
      <trkpt lat="42.456243000" lon="-2.458896000">
        <ele>394.20</ele>
        <time>2014-11-01T07:11:44Z</time>
      </trkpt>
      <trkpt lat="42.456226000" lon="-2.458859000">
        <ele>394.10</ele>
        <time>2014-11-01T07:11:45Z</time>
      </trkpt>
      <trkpt lat="42.456216000" lon="-2.458816000">
        <ele>394.00</ele>
        <time>2014-11-01T07:11:46Z</time>
      </trkpt>
      <trkpt lat="42.456194000" lon="-2.458737000">
        <ele>393.90</ele>
        <time>2014-11-01T07:11:48Z</time>
      </trkpt>
      <trkpt lat="42.456186000" lon="-2.458703000">
        <ele>394.00</ele>
        <time>2014-11-01T07:11:49Z</time>
      </trkpt>
      <trkpt lat="42.456170000" lon="-2.458670000">
        <ele>393.90</ele>
        <time>2014-11-01T07:11:50Z</time>
      </trkpt>
      <trkpt lat="42.456150000" lon="-2.458636000">
        <ele>393.90</ele>
        <time>2014-11-01T07:11:51Z</time>
      </trkpt>
      <trkpt lat="42.456132000" lon="-2.458601000">
        <ele>393.90</ele>
        <time>2014-11-01T07:11:52Z</time>
      </trkpt>
      <trkpt lat="42.456117000" lon="-2.458573000">
        <ele>393.90</ele>
        <time>2014-11-01T07:11:53Z</time>
      </trkpt>
      <trkpt lat="42.456117000" lon="-2.458539000">
        <ele>393.90</ele>
        <time>2014-11-01T07:11:54Z</time>
      </trkpt>
      <trkpt lat="42.456135000" lon="-2.458493000">
        <ele>393.90</ele>
        <time>2014-11-01T07:11:55Z</time>
      </trkpt>
      <trkpt lat="42.456122000" lon="-2.458452000">
        <ele>393.90</ele>
        <time>2014-11-01T07:11:56Z</time>
      </trkpt>
      <trkpt lat="42.456120000" lon="-2.458417000">
        <ele>394.00</ele>
        <time>2014-11-01T07:11:57Z</time>
      </trkpt>
      <trkpt lat="42.456099000" lon="-2.458383000">
        <ele>394.00</ele>
        <time>2014-11-01T07:11:58Z</time>
      </trkpt>
      <trkpt lat="42.456106000" lon="-2.458348000">
        <ele>394.00</ele>
        <time>2014-11-01T07:11:59Z</time>
      </trkpt>
      <trkpt lat="42.456097000" lon="-2.458313000">
        <ele>394.00</ele>
        <time>2014-11-01T07:12:00Z</time>
      </trkpt>
      <trkpt lat="42.456085000" lon="-2.458284000">
        <ele>394.00</ele>
        <time>2014-11-01T07:12:01Z</time>
      </trkpt>
      <trkpt lat="42.456062000" lon="-2.458258000">
        <ele>394.00</ele>
        <time>2014-11-01T07:12:02Z</time>
      </trkpt>
      <trkpt lat="42.456018000" lon="-2.458246000">
        <ele>394.00</ele>
        <time>2014-11-01T07:12:03Z</time>
      </trkpt>
      <trkpt lat="42.455986000" lon="-2.458224000">
        <ele>394.00</ele>
        <time>2014-11-01T07:12:04Z</time>
      </trkpt>
      <trkpt lat="42.455946000" lon="-2.458206000">
        <ele>393.90</ele>
        <time>2014-11-01T07:12:05Z</time>
      </trkpt>
      <trkpt lat="42.455886000" lon="-2.458191000">
        <ele>393.80</ele>
        <time>2014-11-01T07:12:06Z</time>
      </trkpt>
      <trkpt lat="42.455824000" lon="-2.458189000">
        <ele>393.70</ele>
        <time>2014-11-01T07:12:07Z</time>
      </trkpt>
      <trkpt lat="42.455777000" lon="-2.458190000">
        <ele>393.70</ele>
        <time>2014-11-01T07:12:08Z</time>
      </trkpt>
      <trkpt lat="42.455732000" lon="-2.458193000">
        <ele>393.60</ele>
        <time>2014-11-01T07:12:09Z</time>
      </trkpt>
      <trkpt lat="42.455691000" lon="-2.458197000">
        <ele>393.60</ele>
        <time>2014-11-01T07:12:10Z</time>
      </trkpt>
      <trkpt lat="42.455657000" lon="-2.458207000">
        <ele>393.70</ele>
        <time>2014-11-01T07:12:11Z</time>
      </trkpt>
      <trkpt lat="42.455624000" lon="-2.458215000">
        <ele>393.80</ele>
        <time>2014-11-01T07:12:12Z</time>
      </trkpt>
      <trkpt lat="42.455596000" lon="-2.458223000">
        <ele>393.90</ele>
        <time>2014-11-01T07:12:13Z</time>
      </trkpt>
      <trkpt lat="42.455567000" lon="-2.458230000">
        <ele>393.90</ele>
        <time>2014-11-01T07:12:14Z</time>
      </trkpt>
      <trkpt lat="42.455539000" lon="-2.458237000">
        <ele>393.80</ele>
        <time>2014-11-01T07:12:15Z</time>
      </trkpt>
      <trkpt lat="42.455513000" lon="-2.458242000">
        <ele>393.80</ele>
        <time>2014-11-01T07:12:16Z</time>
      </trkpt>
      <trkpt lat="42.455486000" lon="-2.458247000">
        <ele>393.80</ele>
        <time>2014-11-01T07:12:17Z</time>
      </trkpt>
      <trkpt lat="42.455458000" lon="-2.458253000">
        <ele>393.80</ele>
        <time>2014-11-01T07:12:18Z</time>
      </trkpt>
      <trkpt lat="42.455431000" lon="-2.458257000">
        <ele>393.80</ele>
        <time>2014-11-01T07:12:19Z</time>
      </trkpt>
      <trkpt lat="42.455411000" lon="-2.458260000">
        <ele>393.80</ele>
        <time>2014-11-01T07:12:20Z</time>
      </trkpt>
      <trkpt lat="42.455393000" lon="-2.458262000">
        <ele>393.80</ele>
        <time>2014-11-01T07:12:21Z</time>
      </trkpt>
      <trkpt lat="42.455374000" lon="-2.458264000">
        <ele>393.80</ele>
        <time>2014-11-01T07:12:22Z</time>
      </trkpt>
      <trkpt lat="42.455353000" lon="-2.458267000">
        <ele>393.80</ele>
        <time>2014-11-01T07:12:23Z</time>
      </trkpt>
      <trkpt lat="42.455333000" lon="-2.458270000">
        <ele>393.70</ele>
        <time>2014-11-01T07:12:24Z</time>
      </trkpt>
      <trkpt lat="42.455314000" lon="-2.458275000">
        <ele>393.70</ele>
        <time>2014-11-01T07:12:25Z</time>
      </trkpt>
      <trkpt lat="42.455296000" lon="-2.458279000">
        <ele>393.70</ele>
        <time>2014-11-01T07:12:26Z</time>
      </trkpt>
      <trkpt lat="42.455278000" lon="-2.458285000">
        <ele>393.60</ele>
        <time>2014-11-01T07:12:27Z</time>
      </trkpt>
      <trkpt lat="42.455263000" lon="-2.458289000">
        <ele>393.70</ele>
        <time>2014-11-01T07:12:28Z</time>
      </trkpt>
      <trkpt lat="42.455249000" lon="-2.458293000">
        <ele>393.70</ele>
        <time>2014-11-01T07:12:29Z</time>
      </trkpt>
      <trkpt lat="42.455235000" lon="-2.458298000">
        <ele>393.60</ele>
        <time>2014-11-01T07:12:30Z</time>
      </trkpt>
      <trkpt lat="42.455221000" lon="-2.458303000">
        <ele>393.60</ele>
        <time>2014-11-01T07:12:31Z</time>
      </trkpt>
      <trkpt lat="42.455205000" lon="-2.458308000">
        <ele>393.60</ele>
        <time>2014-11-01T07:12:32Z</time>
      </trkpt>
      <trkpt lat="42.455187000" lon="-2.458315000">
        <ele>393.70</ele>
        <time>2014-11-01T07:12:33Z</time>
      </trkpt>
      <trkpt lat="42.455166000" lon="-2.458321000">
        <ele>393.70</ele>
        <time>2014-11-01T07:12:34Z</time>
      </trkpt>
      <trkpt lat="42.455144000" lon="-2.458328000">
        <ele>393.70</ele>
        <time>2014-11-01T07:12:35Z</time>
      </trkpt>
      <trkpt lat="42.455122000" lon="-2.458334000">
        <ele>393.70</ele>
        <time>2014-11-01T07:12:36Z</time>
      </trkpt>
      <trkpt lat="42.455102000" lon="-2.458342000">
        <ele>393.70</ele>
        <time>2014-11-01T07:12:37Z</time>
      </trkpt>
      <trkpt lat="42.455084000" lon="-2.458350000">
        <ele>393.70</ele>
        <time>2014-11-01T07:12:38Z</time>
      </trkpt>
      <trkpt lat="42.455060000" lon="-2.458346000">
        <ele>393.70</ele>
        <time>2014-11-01T07:12:39Z</time>
      </trkpt>
      <trkpt lat="42.455044000" lon="-2.458334000">
        <ele>393.70</ele>
        <time>2014-11-01T07:12:40Z</time>
      </trkpt>
      <trkpt lat="42.455024000" lon="-2.458322000">
        <ele>393.70</ele>
        <time>2014-11-01T07:12:41Z</time>
      </trkpt>
      <trkpt lat="42.455001000" lon="-2.458313000">
        <ele>393.70</ele>
        <time>2014-11-01T07:12:42Z</time>
      </trkpt>
      <trkpt lat="42.454977000" lon="-2.458295000">
        <ele>393.70</ele>
        <time>2014-11-01T07:12:43Z</time>
      </trkpt>
      <trkpt lat="42.454956000" lon="-2.458276000">
        <ele>393.60</ele>
        <time>2014-11-01T07:12:44Z</time>
      </trkpt>
      <trkpt lat="42.454931000" lon="-2.458260000">
        <ele>393.60</ele>
        <time>2014-11-01T07:12:45Z</time>
      </trkpt>
      <trkpt lat="42.454907000" lon="-2.458249000">
        <ele>393.50</ele>
        <time>2014-11-01T07:12:46Z</time>
      </trkpt>
      <trkpt lat="42.454878000" lon="-2.458236000">
        <ele>393.50</ele>
        <time>2014-11-01T07:12:47Z</time>
      </trkpt>
      <trkpt lat="42.454837000" lon="-2.458225000">
        <ele>393.50</ele>
        <time>2014-11-01T07:12:48Z</time>
      </trkpt>
      <trkpt lat="42.454753000" lon="-2.458198000">
        <ele>393.40</ele>
        <time>2014-11-01T07:12:50Z</time>
      </trkpt>
      <trkpt lat="42.454709000" lon="-2.458191000">
        <ele>393.40</ele>
        <time>2014-11-01T07:12:51Z</time>
      </trkpt>
      <trkpt lat="42.454664000" lon="-2.458187000">
        <ele>393.50</ele>
        <time>2014-11-01T07:12:52Z</time>
      </trkpt>
      <trkpt lat="42.454635000" lon="-2.458187000">
        <ele>393.50</ele>
        <time>2014-11-01T07:12:53Z</time>
      </trkpt>
      <trkpt lat="42.454615000" lon="-2.458179000">
        <ele>393.60</ele>
        <time>2014-11-01T07:12:54Z</time>
      </trkpt>
      <trkpt lat="42.454601000" lon="-2.458164000">
        <ele>393.60</ele>
        <time>2014-11-01T07:12:55Z</time>
      </trkpt>
      <trkpt lat="42.454592000" lon="-2.458134000">
        <ele>393.50</ele>
        <time>2014-11-01T07:12:56Z</time>
      </trkpt>
      <trkpt lat="42.454582000" lon="-2.458100000">
        <ele>393.50</ele>
        <time>2014-11-01T07:12:57Z</time>
      </trkpt>
      <trkpt lat="42.454575000" lon="-2.458056000">
        <ele>393.50</ele>
        <time>2014-11-01T07:12:58Z</time>
      </trkpt>
      <trkpt lat="42.454558000" lon="-2.458012000">
        <ele>393.50</ele>
        <time>2014-11-01T07:12:59Z</time>
      </trkpt>
      <trkpt lat="42.454542000" lon="-2.457967000">
        <ele>393.70</ele>
        <time>2014-11-01T07:13:00Z</time>
      </trkpt>
      <trkpt lat="42.454548000" lon="-2.457911000">
        <ele>393.90</ele>
        <time>2014-11-01T07:13:01Z</time>
      </trkpt>
      <trkpt lat="42.454558000" lon="-2.457867000">
        <ele>394.00</ele>
        <time>2014-11-01T07:13:02Z</time>
      </trkpt>
      <trkpt lat="42.454577000" lon="-2.457822000">
        <ele>394.10</ele>
        <time>2014-11-01T07:13:03Z</time>
      </trkpt>
      <trkpt lat="42.454580000" lon="-2.457790000">
        <ele>394.20</ele>
        <time>2014-11-01T07:13:04Z</time>
      </trkpt>
      <trkpt lat="42.454562000" lon="-2.457769000">
        <ele>394.30</ele>
        <time>2014-11-01T07:13:05Z</time>
      </trkpt>
      <trkpt lat="42.454544000" lon="-2.457748000">
        <ele>394.30</ele>
        <time>2014-11-01T07:13:06Z</time>
      </trkpt>
      <trkpt lat="42.454524000" lon="-2.457720000">
        <ele>394.30</ele>
        <time>2014-11-01T07:13:07Z</time>
      </trkpt>
      <trkpt lat="42.454499000" lon="-2.457690000">
        <ele>394.20</ele>
        <time>2014-11-01T07:13:08Z</time>
      </trkpt>
      <trkpt lat="42.454474000" lon="-2.457657000">
        <ele>394.00</ele>
        <time>2014-11-01T07:13:09Z</time>
      </trkpt>
      <trkpt lat="42.454447000" lon="-2.457616000">
        <ele>393.90</ele>
        <time>2014-11-01T07:13:10Z</time>
      </trkpt>
      <trkpt lat="42.454416000" lon="-2.457577000">
        <ele>393.90</ele>
        <time>2014-11-01T07:13:11Z</time>
      </trkpt>
      <trkpt lat="42.454382000" lon="-2.457538000">
        <ele>393.90</ele>
        <time>2014-11-01T07:13:12Z</time>
      </trkpt>
      <trkpt lat="42.454359000" lon="-2.457497000">
        <ele>393.90</ele>
        <time>2014-11-01T07:13:13Z</time>
      </trkpt>
      <trkpt lat="42.454335000" lon="-2.457453000">
        <ele>393.90</ele>
        <time>2014-11-01T07:13:14Z</time>
      </trkpt>
      <trkpt lat="42.454311000" lon="-2.457409000">
        <ele>393.90</ele>
        <time>2014-11-01T07:13:15Z</time>
      </trkpt>
      <trkpt lat="42.454289000" lon="-2.457364000">
        <ele>393.90</ele>
        <time>2014-11-01T07:13:16Z</time>
      </trkpt>
      <trkpt lat="42.454266000" lon="-2.457321000">
        <ele>393.90</ele>
        <time>2014-11-01T07:13:17Z</time>
      </trkpt>
      <trkpt lat="42.454250000" lon="-2.457275000">
        <ele>393.80</ele>
        <time>2014-11-01T07:13:18Z</time>
      </trkpt>
      <trkpt lat="42.454229000" lon="-2.457239000">
        <ele>393.80</ele>
        <time>2014-11-01T07:13:19Z</time>
      </trkpt>
      <trkpt lat="42.454209000" lon="-2.457210000">
        <ele>393.80</ele>
        <time>2014-11-01T07:13:20Z</time>
      </trkpt>
      <trkpt lat="42.454205000" lon="-2.457179000">
        <ele>393.80</ele>
        <time>2014-11-01T07:13:21Z</time>
      </trkpt>
      <trkpt lat="42.454197000" lon="-2.457137000">
        <ele>393.70</ele>
        <time>2014-11-01T07:13:22Z</time>
      </trkpt>
      <trkpt lat="42.454193000" lon="-2.457097000">
        <ele>393.70</ele>
        <time>2014-11-01T07:13:23Z</time>
      </trkpt>
      <trkpt lat="42.454189000" lon="-2.457054000">
        <ele>393.80</ele>
        <time>2014-11-01T07:13:24Z</time>
      </trkpt>
      <trkpt lat="42.454188000" lon="-2.457008000">
        <ele>393.90</ele>
        <time>2014-11-01T07:13:25Z</time>
      </trkpt>
      <trkpt lat="42.454192000" lon="-2.456966000">
        <ele>393.70</ele>
        <time>2014-11-01T07:13:26Z</time>
      </trkpt>
      <trkpt lat="42.454188000" lon="-2.456924000">
        <ele>393.60</ele>
        <time>2014-11-01T07:13:27Z</time>
      </trkpt>
      <trkpt lat="42.454178000" lon="-2.456879000">
        <ele>393.60</ele>
        <time>2014-11-01T07:13:28Z</time>
      </trkpt>
      <trkpt lat="42.454169000" lon="-2.456835000">
        <ele>393.70</ele>
        <time>2014-11-01T07:13:29Z</time>
      </trkpt>
      <trkpt lat="42.454167000" lon="-2.456795000">
        <ele>393.80</ele>
        <time>2014-11-01T07:13:30Z</time>
      </trkpt>
      <trkpt lat="42.454163000" lon="-2.456745000">
        <ele>393.80</ele>
        <time>2014-11-01T07:13:31Z</time>
      </trkpt>
      <trkpt lat="42.454158000" lon="-2.456692000">
        <ele>393.80</ele>
        <time>2014-11-01T07:13:32Z</time>
      </trkpt>
      <trkpt lat="42.454148000" lon="-2.456633000">
        <ele>393.80</ele>
        <time>2014-11-01T07:13:33Z</time>
      </trkpt>
      <trkpt lat="42.454136000" lon="-2.456575000">
        <ele>393.90</ele>
        <time>2014-11-01T07:13:34Z</time>
      </trkpt>
      <trkpt lat="42.454133000" lon="-2.456521000">
        <ele>393.90</ele>
        <time>2014-11-01T07:13:35Z</time>
      </trkpt>
      <trkpt lat="42.454130000" lon="-2.456473000">
        <ele>393.90</ele>
        <time>2014-11-01T07:13:36Z</time>
      </trkpt>
      <trkpt lat="42.454132000" lon="-2.456421000">
        <ele>393.90</ele>
        <time>2014-11-01T07:13:37Z</time>
      </trkpt>
      <trkpt lat="42.454123000" lon="-2.456376000">
        <ele>393.90</ele>
        <time>2014-11-01T07:13:38Z</time>
      </trkpt>
      <trkpt lat="42.454114000" lon="-2.456334000">
        <ele>393.90</ele>
        <time>2014-11-01T07:13:39Z</time>
      </trkpt>
      <trkpt lat="42.454105000" lon="-2.456294000">
        <ele>393.90</ele>
        <time>2014-11-01T07:13:40Z</time>
      </trkpt>
      <trkpt lat="42.454104000" lon="-2.456254000">
        <ele>393.90</ele>
        <time>2014-11-01T07:13:41Z</time>
      </trkpt>
      <trkpt lat="42.454093000" lon="-2.456213000">
        <ele>393.90</ele>
        <time>2014-11-01T07:13:42Z</time>
      </trkpt>
      <trkpt lat="42.454081000" lon="-2.456164000">
        <ele>393.90</ele>
        <time>2014-11-01T07:13:43Z</time>
      </trkpt>
      <trkpt lat="42.454065000" lon="-2.456115000">
        <ele>393.80</ele>
        <time>2014-11-01T07:13:44Z</time>
      </trkpt>
      <trkpt lat="42.454050000" lon="-2.456061000">
        <ele>393.80</ele>
        <time>2014-11-01T07:13:45Z</time>
      </trkpt>
      <trkpt lat="42.454033000" lon="-2.456004000">
        <ele>393.60</ele>
        <time>2014-11-01T07:13:46Z</time>
      </trkpt>
      <trkpt lat="42.454018000" lon="-2.455949000">
        <ele>393.50</ele>
        <time>2014-11-01T07:13:47Z</time>
      </trkpt>
      <trkpt lat="42.454018000" lon="-2.455896000">
        <ele>393.30</ele>
        <time>2014-11-01T07:13:48Z</time>
      </trkpt>
      <trkpt lat="42.454016000" lon="-2.455848000">
        <ele>393.20</ele>
        <time>2014-11-01T07:13:49Z</time>
      </trkpt>
      <trkpt lat="42.454002000" lon="-2.455796000">
        <ele>393.10</ele>
        <time>2014-11-01T07:13:50Z</time>
      </trkpt>
      <trkpt lat="42.453977000" lon="-2.455704000">
        <ele>393.00</ele>
        <time>2014-11-01T07:13:52Z</time>
      </trkpt>
      <trkpt lat="42.453968000" lon="-2.455661000">
        <ele>392.90</ele>
        <time>2014-11-01T07:13:53Z</time>
      </trkpt>
      <trkpt lat="42.453961000" lon="-2.455614000">
        <ele>392.90</ele>
        <time>2014-11-01T07:13:54Z</time>
      </trkpt>
      <trkpt lat="42.453957000" lon="-2.455561000">
        <ele>392.90</ele>
        <time>2014-11-01T07:13:55Z</time>
      </trkpt>
      <trkpt lat="42.453946000" lon="-2.455510000">
        <ele>392.90</ele>
        <time>2014-11-01T07:13:56Z</time>
      </trkpt>
      <trkpt lat="42.453937000" lon="-2.455464000">
        <ele>392.80</ele>
        <time>2014-11-01T07:13:57Z</time>
      </trkpt>
      <trkpt lat="42.453933000" lon="-2.455421000">
        <ele>392.80</ele>
        <time>2014-11-01T07:13:58Z</time>
      </trkpt>
      <trkpt lat="42.453930000" lon="-2.455374000">
        <ele>392.80</ele>
        <time>2014-11-01T07:13:59Z</time>
      </trkpt>
      <trkpt lat="42.453931000" lon="-2.455336000">
        <ele>392.90</ele>
        <time>2014-11-01T07:14:00Z</time>
      </trkpt>
      <trkpt lat="42.453925000" lon="-2.455295000">
        <ele>393.00</ele>
        <time>2014-11-01T07:14:01Z</time>
      </trkpt>
      <trkpt lat="42.453921000" lon="-2.455250000">
        <ele>393.10</ele>
        <time>2014-11-01T07:14:02Z</time>
      </trkpt>
      <trkpt lat="42.453911000" lon="-2.455198000">
        <ele>393.20</ele>
        <time>2014-11-01T07:14:03Z</time>
      </trkpt>
      <trkpt lat="42.453905000" lon="-2.455150000">
        <ele>393.10</ele>
        <time>2014-11-01T07:14:04Z</time>
      </trkpt>
      <trkpt lat="42.453908000" lon="-2.455105000">
        <ele>393.00</ele>
        <time>2014-11-01T07:14:05Z</time>
      </trkpt>
      <trkpt lat="42.453908000" lon="-2.455054000">
        <ele>393.00</ele>
        <time>2014-11-01T07:14:06Z</time>
      </trkpt>
      <trkpt lat="42.453903000" lon="-2.454994000">
        <ele>392.90</ele>
        <time>2014-11-01T07:14:07Z</time>
      </trkpt>
      <trkpt lat="42.453902000" lon="-2.454947000">
        <ele>392.90</ele>
        <time>2014-11-01T07:14:08Z</time>
      </trkpt>
      <trkpt lat="42.453897000" lon="-2.454907000">
        <ele>392.90</ele>
        <time>2014-11-01T07:14:09Z</time>
      </trkpt>
      <trkpt lat="42.453910000" lon="-2.454854000">
        <ele>392.80</ele>
        <time>2014-11-01T07:14:10Z</time>
      </trkpt>
      <trkpt lat="42.453918000" lon="-2.454783000">
        <ele>392.70</ele>
        <time>2014-11-01T07:14:11Z</time>
      </trkpt>
      <trkpt lat="42.453927000" lon="-2.454722000">
        <ele>392.70</ele>
        <time>2014-11-01T07:14:12Z</time>
      </trkpt>
      <trkpt lat="42.453937000" lon="-2.454654000">
        <ele>392.60</ele>
        <time>2014-11-01T07:14:13Z</time>
      </trkpt>
      <trkpt lat="42.453934000" lon="-2.454590000">
        <ele>392.60</ele>
        <time>2014-11-01T07:14:14Z</time>
      </trkpt>
      <trkpt lat="42.453930000" lon="-2.454545000">
        <ele>392.60</ele>
        <time>2014-11-01T07:14:15Z</time>
      </trkpt>
      <trkpt lat="42.453925000" lon="-2.454502000">
        <ele>392.60</ele>
        <time>2014-11-01T07:14:16Z</time>
      </trkpt>
      <trkpt lat="42.453924000" lon="-2.454458000">
        <ele>392.60</ele>
        <time>2014-11-01T07:14:17Z</time>
      </trkpt>
      <trkpt lat="42.453921000" lon="-2.454401000">
        <ele>392.60</ele>
        <time>2014-11-01T07:14:18Z</time>
      </trkpt>
      <trkpt lat="42.453925000" lon="-2.454338000">
        <ele>392.60</ele>
        <time>2014-11-01T07:14:19Z</time>
      </trkpt>
      <trkpt lat="42.453915000" lon="-2.454278000">
        <ele>392.60</ele>
        <time>2014-11-01T07:14:20Z</time>
      </trkpt>
      <trkpt lat="42.453909000" lon="-2.454228000">
        <ele>392.70</ele>
        <time>2014-11-01T07:14:21Z</time>
      </trkpt>
      <trkpt lat="42.453901000" lon="-2.454173000">
        <ele>392.60</ele>
        <time>2014-11-01T07:14:22Z</time>
      </trkpt>
      <trkpt lat="42.453893000" lon="-2.454116000">
        <ele>392.50</ele>
        <time>2014-11-01T07:14:23Z</time>
      </trkpt>
      <trkpt lat="42.453878000" lon="-2.454058000">
        <ele>392.40</ele>
        <time>2014-11-01T07:14:24Z</time>
      </trkpt>
      <trkpt lat="42.453871000" lon="-2.453999000">
        <ele>392.30</ele>
        <time>2014-11-01T07:14:25Z</time>
      </trkpt>
      <trkpt lat="42.453865000" lon="-2.453938000">
        <ele>392.10</ele>
        <time>2014-11-01T07:14:26Z</time>
      </trkpt>
      <trkpt lat="42.453855000" lon="-2.453877000">
        <ele>392.00</ele>
        <time>2014-11-01T07:14:27Z</time>
      </trkpt>
      <trkpt lat="42.453845000" lon="-2.453820000">
        <ele>392.00</ele>
        <time>2014-11-01T07:14:28Z</time>
      </trkpt>
      <trkpt lat="42.453843000" lon="-2.453760000">
        <ele>392.00</ele>
        <time>2014-11-01T07:14:29Z</time>
      </trkpt>
      <trkpt lat="42.453841000" lon="-2.453701000">
        <ele>392.00</ele>
        <time>2014-11-01T07:14:30Z</time>
      </trkpt>
      <trkpt lat="42.453838000" lon="-2.453644000">
        <ele>392.00</ele>
        <time>2014-11-01T07:14:31Z</time>
      </trkpt>
      <trkpt lat="42.453834000" lon="-2.453584000">
        <ele>392.00</ele>
        <time>2014-11-01T07:14:32Z</time>
      </trkpt>
      <trkpt lat="42.453836000" lon="-2.453523000">
        <ele>392.00</ele>
        <time>2014-11-01T07:14:33Z</time>
      </trkpt>
      <trkpt lat="42.453833000" lon="-2.453466000">
        <ele>391.90</ele>
        <time>2014-11-01T07:14:34Z</time>
      </trkpt>
      <trkpt lat="42.453832000" lon="-2.453408000">
        <ele>391.90</ele>
        <time>2014-11-01T07:14:35Z</time>
      </trkpt>
      <trkpt lat="42.453828000" lon="-2.453355000">
        <ele>391.70</ele>
        <time>2014-11-01T07:14:36Z</time>
      </trkpt>
      <trkpt lat="42.453831000" lon="-2.453296000">
        <ele>391.60</ele>
        <time>2014-11-01T07:14:37Z</time>
      </trkpt>
      <trkpt lat="42.453832000" lon="-2.453241000">
        <ele>391.60</ele>
        <time>2014-11-01T07:14:38Z</time>
      </trkpt>
      <trkpt lat="42.453835000" lon="-2.453182000">
        <ele>391.60</ele>
        <time>2014-11-01T07:14:39Z</time>
      </trkpt>
      <trkpt lat="42.453837000" lon="-2.453124000">
        <ele>391.60</ele>
        <time>2014-11-01T07:14:40Z</time>
      </trkpt>
      <trkpt lat="42.453840000" lon="-2.453069000">
        <ele>391.50</ele>
        <time>2014-11-01T07:14:41Z</time>
      </trkpt>
      <trkpt lat="42.453846000" lon="-2.453010000">
        <ele>391.50</ele>
        <time>2014-11-01T07:14:42Z</time>
      </trkpt>
      <trkpt lat="42.453873000" lon="-2.452960000">
        <ele>391.50</ele>
        <time>2014-11-01T07:14:43Z</time>
      </trkpt>
      <trkpt lat="42.453899000" lon="-2.452904000">
        <ele>391.50</ele>
        <time>2014-11-01T07:14:44Z</time>
      </trkpt>
      <trkpt lat="42.453923000" lon="-2.452848000">
        <ele>391.50</ele>
        <time>2014-11-01T07:14:45Z</time>
      </trkpt>
      <trkpt lat="42.453943000" lon="-2.452791000">
        <ele>391.50</ele>
        <time>2014-11-01T07:14:46Z</time>
      </trkpt>
      <trkpt lat="42.453968000" lon="-2.452736000">
        <ele>391.60</ele>
        <time>2014-11-01T07:14:47Z</time>
      </trkpt>
      <trkpt lat="42.453991000" lon="-2.452677000">
        <ele>391.60</ele>
        <time>2014-11-01T07:14:48Z</time>
      </trkpt>
      <trkpt lat="42.454011000" lon="-2.452620000">
        <ele>391.60</ele>
        <time>2014-11-01T07:14:49Z</time>
      </trkpt>
      <trkpt lat="42.454018000" lon="-2.452562000">
        <ele>391.60</ele>
        <time>2014-11-01T07:14:50Z</time>
      </trkpt>
      <trkpt lat="42.454026000" lon="-2.452507000">
        <ele>391.50</ele>
        <time>2014-11-01T07:14:51Z</time>
      </trkpt>
      <trkpt lat="42.454027000" lon="-2.452458000">
        <ele>391.40</ele>
        <time>2014-11-01T07:14:52Z</time>
      </trkpt>
      <trkpt lat="42.454038000" lon="-2.452372000">
        <ele>391.20</ele>
        <time>2014-11-01T07:14:54Z</time>
      </trkpt>
      <trkpt lat="42.454041000" lon="-2.452336000">
        <ele>391.10</ele>
        <time>2014-11-01T07:14:55Z</time>
      </trkpt>
      <trkpt lat="42.454124000" lon="-2.452157000">
        <ele>390.00</ele>
        <time>2014-11-01T07:15:00Z</time>
      </trkpt>
      <trkpt lat="42.453962000" lon="-2.452051000">
        <ele>391.10</ele>
        <time>2014-11-01T07:15:05Z</time>
      </trkpt>
      <trkpt lat="42.453928000" lon="-2.452054000">
        <ele>391.20</ele>
        <time>2014-11-01T07:15:06Z</time>
      </trkpt>
      <trkpt lat="42.453898000" lon="-2.452065000">
        <ele>391.20</ele>
        <time>2014-11-01T07:15:07Z</time>
      </trkpt>
      <trkpt lat="42.453860000" lon="-2.452077000">
        <ele>391.20</ele>
        <time>2014-11-01T07:15:08Z</time>
      </trkpt>
      <trkpt lat="42.453985000" lon="-2.452025000">
        <ele>391.30</ele>
        <time>2014-11-01T07:15:09Z</time>
      </trkpt>
      <trkpt lat="42.454079000" lon="-2.451984000">
        <ele>391.20</ele>
        <time>2014-11-01T07:15:10Z</time>
      </trkpt>
      <trkpt lat="42.454148000" lon="-2.451950000">
        <ele>391.20</ele>
        <time>2014-11-01T07:15:11Z</time>
      </trkpt>
      <trkpt lat="42.454202000" lon="-2.451924000">
        <ele>391.10</ele>
        <time>2014-11-01T07:15:12Z</time>
      </trkpt>
      <trkpt lat="42.454258000" lon="-2.451909000">
        <ele>391.00</ele>
        <time>2014-11-01T07:15:13Z</time>
      </trkpt>
      <trkpt lat="42.454217000" lon="-2.451923000">
        <ele>391.00</ele>
        <time>2014-11-01T07:15:14Z</time>
      </trkpt>
      <trkpt lat="42.454178000" lon="-2.451933000">
        <ele>390.90</ele>
        <time>2014-11-01T07:15:15Z</time>
      </trkpt>
      <trkpt lat="42.454137000" lon="-2.451945000">
        <ele>391.00</ele>
        <time>2014-11-01T07:15:16Z</time>
      </trkpt>
      <trkpt lat="42.454099000" lon="-2.451956000">
        <ele>391.00</ele>
        <time>2014-11-01T07:15:17Z</time>
      </trkpt>
      <trkpt lat="42.454051000" lon="-2.451970000">
        <ele>391.00</ele>
        <time>2014-11-01T07:15:18Z</time>
      </trkpt>
      <trkpt lat="42.453996000" lon="-2.451983000">
        <ele>391.00</ele>
        <time>2014-11-01T07:15:19Z</time>
      </trkpt>
      <trkpt lat="42.453951000" lon="-2.451998000">
        <ele>391.10</ele>
        <time>2014-11-01T07:15:20Z</time>
      </trkpt>
      <trkpt lat="42.453910000" lon="-2.452009000">
        <ele>391.10</ele>
        <time>2014-11-01T07:15:21Z</time>
      </trkpt>
      <trkpt lat="42.453988000" lon="-2.451995000">
        <ele>391.10</ele>
        <time>2014-11-01T07:15:22Z</time>
      </trkpt>
      <trkpt lat="42.454049000" lon="-2.451984000">
        <ele>391.10</ele>
        <time>2014-11-01T07:15:23Z</time>
      </trkpt>
      <trkpt lat="42.454095000" lon="-2.451977000">
        <ele>391.10</ele>
        <time>2014-11-01T07:15:24Z</time>
      </trkpt>
      <trkpt lat="42.454121000" lon="-2.451968000">
        <ele>391.20</ele>
        <time>2014-11-01T07:15:25Z</time>
      </trkpt>
      <trkpt lat="42.454144000" lon="-2.451963000">
        <ele>391.20</ele>
        <time>2014-11-01T07:15:26Z</time>
      </trkpt>
      <trkpt lat="42.454156000" lon="-2.451961000">
        <ele>391.30</ele>
        <time>2014-11-01T07:15:27Z</time>
      </trkpt>
      <trkpt lat="42.454161000" lon="-2.451954000">
        <ele>391.30</ele>
        <time>2014-11-01T07:15:28Z</time>
      </trkpt>
      <trkpt lat="42.454161000" lon="-2.451954000">
        <ele>391.40</ele>
        <time>2014-11-01T07:15:29Z</time>
      </trkpt>
      <trkpt lat="42.454158000" lon="-2.451954000">
        <ele>391.50</ele>
        <time>2014-11-01T07:15:30Z</time>
      </trkpt>
      <trkpt lat="42.454151000" lon="-2.451952000">
        <ele>391.50</ele>
        <time>2014-11-01T07:15:31Z</time>
      </trkpt>
      <trkpt lat="42.454140000" lon="-2.451954000">
        <ele>391.70</ele>
        <time>2014-11-01T07:15:32Z</time>
      </trkpt>
      <trkpt lat="42.454110000" lon="-2.451961000">
        <ele>391.80</ele>
        <time>2014-11-01T07:15:33Z</time>
      </trkpt>
      <trkpt lat="42.454078000" lon="-2.451968000">
        <ele>391.90</ele>
        <time>2014-11-01T07:15:34Z</time>
      </trkpt>
      <trkpt lat="42.454068000" lon="-2.451970000">
        <ele>392.00</ele>
        <time>2014-11-01T07:15:35Z</time>
      </trkpt>
      <trkpt lat="42.454056000" lon="-2.451973000">
        <ele>392.10</ele>
        <time>2014-11-01T07:15:36Z</time>
      </trkpt>
      <trkpt lat="42.454043000" lon="-2.451976000">
        <ele>392.20</ele>
        <time>2014-11-01T07:15:37Z</time>
      </trkpt>
      <trkpt lat="42.454095000" lon="-2.451974000">
        <ele>392.20</ele>
        <time>2014-11-01T07:15:38Z</time>
      </trkpt>
      <trkpt lat="42.454111000" lon="-2.451981000">
        <ele>392.30</ele>
        <time>2014-11-01T07:15:39Z</time>
      </trkpt>
      <trkpt lat="42.454110000" lon="-2.451985000">
        <ele>392.40</ele>
        <time>2014-11-01T07:15:40Z</time>
      </trkpt>
      <trkpt lat="42.454094000" lon="-2.451990000">
        <ele>392.40</ele>
        <time>2014-11-01T07:15:41Z</time>
      </trkpt>
      <trkpt lat="42.454076000" lon="-2.451998000">
        <ele>392.60</ele>
        <time>2014-11-01T07:15:42Z</time>
      </trkpt>
      <trkpt lat="42.454055000" lon="-2.452006000">
        <ele>392.70</ele>
        <time>2014-11-01T07:15:43Z</time>
      </trkpt>
      <trkpt lat="42.454031000" lon="-2.452012000">
        <ele>392.90</ele>
        <time>2014-11-01T07:15:44Z</time>
      </trkpt>
      <trkpt lat="42.454005000" lon="-2.452017000">
        <ele>393.00</ele>
        <time>2014-11-01T07:15:45Z</time>
      </trkpt>
      <trkpt lat="42.453978000" lon="-2.452019000">
        <ele>393.00</ele>
        <time>2014-11-01T07:15:46Z</time>
      </trkpt>
      <trkpt lat="42.453914000" lon="-2.452071000">
        <ele>393.00</ele>
        <time>2014-11-01T07:15:48Z</time>
      </trkpt>
      <trkpt lat="42.453863000" lon="-2.452155000">
        <ele>393.00</ele>
        <time>2014-11-01T07:15:51Z</time>
      </trkpt>
      <trkpt lat="42.453843000" lon="-2.452201000">
        <ele>393.10</ele>
        <time>2014-11-01T07:15:52Z</time>
      </trkpt>
      <trkpt lat="42.453822000" lon="-2.452254000">
        <ele>393.20</ele>
        <time>2014-11-01T07:15:53Z</time>
      </trkpt>
      <trkpt lat="42.453800000" lon="-2.452307000">
        <ele>393.50</ele>
        <time>2014-11-01T07:15:54Z</time>
      </trkpt>
      <trkpt lat="42.453745000" lon="-2.452403000">
        <ele>394.00</ele>
        <time>2014-11-01T07:15:56Z</time>
      </trkpt>
      <trkpt lat="42.453712000" lon="-2.452444000">
        <ele>394.10</ele>
        <time>2014-11-01T07:15:57Z</time>
      </trkpt>
      <trkpt lat="42.453675000" lon="-2.452476000">
        <ele>394.20</ele>
        <time>2014-11-01T07:15:58Z</time>
      </trkpt>
      <trkpt lat="42.453635000" lon="-2.452499000">
        <ele>394.20</ele>
        <time>2014-11-01T07:15:59Z</time>
      </trkpt>
      <trkpt lat="42.453593000" lon="-2.452512000">
        <ele>394.30</ele>
        <time>2014-11-01T07:16:00Z</time>
      </trkpt>
      <trkpt lat="42.453551000" lon="-2.452515000">
        <ele>394.30</ele>
        <time>2014-11-01T07:16:01Z</time>
      </trkpt>
      <trkpt lat="42.453507000" lon="-2.452509000">
        <ele>394.40</ele>
        <time>2014-11-01T07:16:02Z</time>
      </trkpt>
      <trkpt lat="42.453466000" lon="-2.452490000">
        <ele>394.50</ele>
        <time>2014-11-01T07:16:03Z</time>
      </trkpt>
      <trkpt lat="42.453431000" lon="-2.452450000">
        <ele>394.60</ele>
        <time>2014-11-01T07:16:04Z</time>
      </trkpt>
      <trkpt lat="42.453399000" lon="-2.452404000">
        <ele>394.70</ele>
        <time>2014-11-01T07:16:05Z</time>
      </trkpt>
      <trkpt lat="42.453373000" lon="-2.452350000">
        <ele>394.80</ele>
        <time>2014-11-01T07:16:06Z</time>
      </trkpt>
      <trkpt lat="42.453387000" lon="-2.452195000">
        <ele>394.90</ele>
        <time>2014-11-01T07:16:07Z</time>
      </trkpt>
      <trkpt lat="42.453378000" lon="-2.452113000">
        <ele>394.90</ele>
        <time>2014-11-01T07:16:08Z</time>
      </trkpt>
      <trkpt lat="42.453375000" lon="-2.452027000">
        <ele>395.00</ele>
        <time>2014-11-01T07:16:09Z</time>
      </trkpt>
      <trkpt lat="42.453379000" lon="-2.451944000">
        <ele>395.00</ele>
        <time>2014-11-01T07:16:10Z</time>
      </trkpt>
      <trkpt lat="42.453389000" lon="-2.451864000">
        <ele>395.00</ele>
        <time>2014-11-01T07:16:11Z</time>
      </trkpt>
      <trkpt lat="42.453428000" lon="-2.451771000">
        <ele>395.00</ele>
        <time>2014-11-01T07:16:12Z</time>
      </trkpt>
      <trkpt lat="42.453465000" lon="-2.451685000">
        <ele>395.00</ele>
        <time>2014-11-01T07:16:13Z</time>
      </trkpt>
      <trkpt lat="42.453499000" lon="-2.451609000">
        <ele>394.90</ele>
        <time>2014-11-01T07:16:14Z</time>
      </trkpt>
      <trkpt lat="42.453532000" lon="-2.451539000">
        <ele>394.80</ele>
        <time>2014-11-01T07:16:15Z</time>
      </trkpt>
      <trkpt lat="42.453556000" lon="-2.451469000">
        <ele>394.70</ele>
        <time>2014-11-01T07:16:16Z</time>
      </trkpt>
      <trkpt lat="42.453573000" lon="-2.451407000">
        <ele>394.60</ele>
        <time>2014-11-01T07:16:17Z</time>
      </trkpt>
      <trkpt lat="42.453582000" lon="-2.451351000">
        <ele>394.60</ele>
        <time>2014-11-01T07:16:18Z</time>
      </trkpt>
      <trkpt lat="42.453592000" lon="-2.451295000">
        <ele>394.60</ele>
        <time>2014-11-01T07:16:19Z</time>
      </trkpt>
      <trkpt lat="42.453604000" lon="-2.451236000">
        <ele>394.50</ele>
        <time>2014-11-01T07:16:20Z</time>
      </trkpt>
      <trkpt lat="42.453612000" lon="-2.451176000">
        <ele>394.50</ele>
        <time>2014-11-01T07:16:21Z</time>
      </trkpt>
      <trkpt lat="42.453619000" lon="-2.451120000">
        <ele>394.40</ele>
        <time>2014-11-01T07:16:22Z</time>
      </trkpt>
      <trkpt lat="42.453626000" lon="-2.451062000">
        <ele>394.40</ele>
        <time>2014-11-01T07:16:23Z</time>
      </trkpt>
      <trkpt lat="42.453705000" lon="-2.450966000">
        <ele>394.40</ele>
        <time>2014-11-01T07:16:24Z</time>
      </trkpt>
      <trkpt lat="42.453719000" lon="-2.450909000">
        <ele>394.40</ele>
        <time>2014-11-01T07:16:25Z</time>
      </trkpt>
      <trkpt lat="42.453725000" lon="-2.450857000">
        <ele>394.40</ele>
        <time>2014-11-01T07:16:26Z</time>
      </trkpt>
      <trkpt lat="42.453734000" lon="-2.450806000">
        <ele>394.40</ele>
        <time>2014-11-01T07:16:27Z</time>
      </trkpt>
      <trkpt lat="42.453736000" lon="-2.450762000">
        <ele>394.40</ele>
        <time>2014-11-01T07:16:28Z</time>
      </trkpt>
      <trkpt lat="42.453738000" lon="-2.450718000">
        <ele>394.40</ele>
        <time>2014-11-01T07:16:29Z</time>
      </trkpt>
      <trkpt lat="42.453735000" lon="-2.450671000">
        <ele>394.40</ele>
        <time>2014-11-01T07:16:30Z</time>
      </trkpt>
      <trkpt lat="42.453734000" lon="-2.450621000">
        <ele>394.30</ele>
        <time>2014-11-01T07:16:31Z</time>
      </trkpt>
      <trkpt lat="42.453730000" lon="-2.450571000">
        <ele>394.30</ele>
        <time>2014-11-01T07:16:32Z</time>
      </trkpt>
      <trkpt lat="42.453730000" lon="-2.450516000">
        <ele>394.30</ele>
        <time>2014-11-01T07:16:33Z</time>
      </trkpt>
      <trkpt lat="42.453724000" lon="-2.450465000">
        <ele>394.50</ele>
        <time>2014-11-01T07:16:34Z</time>
      </trkpt>
      <trkpt lat="42.453720000" lon="-2.450413000">
        <ele>394.60</ele>
        <time>2014-11-01T07:16:35Z</time>
      </trkpt>
      <trkpt lat="42.453716000" lon="-2.450357000">
        <ele>394.60</ele>
        <time>2014-11-01T07:16:36Z</time>
      </trkpt>
      <trkpt lat="42.453708000" lon="-2.450304000">
        <ele>394.60</ele>
        <time>2014-11-01T07:16:37Z</time>
      </trkpt>
      <trkpt lat="42.453704000" lon="-2.450251000">
        <ele>394.60</ele>
        <time>2014-11-01T07:16:38Z</time>
      </trkpt>
      <trkpt lat="42.453696000" lon="-2.450199000">
        <ele>394.60</ele>
        <time>2014-11-01T07:16:39Z</time>
      </trkpt>
      <trkpt lat="42.453689000" lon="-2.450144000">
        <ele>394.60</ele>
        <time>2014-11-01T07:16:40Z</time>
      </trkpt>
      <trkpt lat="42.453681000" lon="-2.450090000">
        <ele>394.60</ele>
        <time>2014-11-01T07:16:41Z</time>
      </trkpt>
      <trkpt lat="42.453675000" lon="-2.450036000">
        <ele>394.70</ele>
        <time>2014-11-01T07:16:42Z</time>
      </trkpt>
      <trkpt lat="42.453667000" lon="-2.449982000">
        <ele>394.70</ele>
        <time>2014-11-01T07:16:43Z</time>
      </trkpt>
      <trkpt lat="42.453661000" lon="-2.449930000">
        <ele>394.70</ele>
        <time>2014-11-01T07:16:44Z</time>
      </trkpt>
      <trkpt lat="42.453658000" lon="-2.449880000">
        <ele>394.80</ele>
        <time>2014-11-01T07:16:45Z</time>
      </trkpt>
      <trkpt lat="42.453654000" lon="-2.449830000">
        <ele>395.00</ele>
        <time>2014-11-01T07:16:46Z</time>
      </trkpt>
      <trkpt lat="42.453649000" lon="-2.449779000">
        <ele>395.10</ele>
        <time>2014-11-01T07:16:47Z</time>
      </trkpt>
      <trkpt lat="42.453637000" lon="-2.449728000">
        <ele>395.10</ele>
        <time>2014-11-01T07:16:48Z</time>
      </trkpt>
      <trkpt lat="42.453630000" lon="-2.449679000">
        <ele>395.10</ele>
        <time>2014-11-01T07:16:49Z</time>
      </trkpt>
      <trkpt lat="42.453624000" lon="-2.449631000">
        <ele>395.10</ele>
        <time>2014-11-01T07:16:50Z</time>
      </trkpt>
      <trkpt lat="42.453612000" lon="-2.449586000">
        <ele>395.10</ele>
        <time>2014-11-01T07:16:51Z</time>
      </trkpt>
      <trkpt lat="42.453610000" lon="-2.449542000">
        <ele>395.00</ele>
        <time>2014-11-01T07:16:52Z</time>
      </trkpt>
      <trkpt lat="42.453605000" lon="-2.449489000">
        <ele>395.00</ele>
        <time>2014-11-01T07:16:53Z</time>
      </trkpt>
      <trkpt lat="42.453594000" lon="-2.449442000">
        <ele>395.00</ele>
        <time>2014-11-01T07:16:54Z</time>
      </trkpt>
      <trkpt lat="42.453584000" lon="-2.449393000">
        <ele>395.00</ele>
        <time>2014-11-01T07:16:55Z</time>
      </trkpt>
      <trkpt lat="42.453574000" lon="-2.449342000">
        <ele>395.00</ele>
        <time>2014-11-01T07:16:56Z</time>
      </trkpt>
      <trkpt lat="42.453557000" lon="-2.449240000">
        <ele>394.80</ele>
        <time>2014-11-01T07:16:58Z</time>
      </trkpt>
      <trkpt lat="42.453548000" lon="-2.449192000">
        <ele>394.60</ele>
        <time>2014-11-01T07:16:59Z</time>
      </trkpt>
      <trkpt lat="42.453543000" lon="-2.449143000">
        <ele>394.50</ele>
        <time>2014-11-01T07:17:00Z</time>
      </trkpt>
      <trkpt lat="42.453534000" lon="-2.449099000">
        <ele>394.50</ele>
        <time>2014-11-01T07:17:01Z</time>
      </trkpt>
      <trkpt lat="42.453526000" lon="-2.449056000">
        <ele>394.30</ele>
        <time>2014-11-01T07:17:02Z</time>
      </trkpt>
      <trkpt lat="42.453519000" lon="-2.449012000">
        <ele>394.30</ele>
        <time>2014-11-01T07:17:03Z</time>
      </trkpt>
      <trkpt lat="42.453510000" lon="-2.448970000">
        <ele>394.30</ele>
        <time>2014-11-01T07:17:04Z</time>
      </trkpt>
      <trkpt lat="42.453495000" lon="-2.448930000">
        <ele>394.30</ele>
        <time>2014-11-01T07:17:05Z</time>
      </trkpt>
      <trkpt lat="42.453476000" lon="-2.448894000">
        <ele>394.10</ele>
        <time>2014-11-01T07:17:06Z</time>
      </trkpt>
      <trkpt lat="42.453455000" lon="-2.448864000">
        <ele>394.00</ele>
        <time>2014-11-01T07:17:07Z</time>
      </trkpt>
      <trkpt lat="42.453433000" lon="-2.448832000">
        <ele>394.10</ele>
        <time>2014-11-01T07:17:08Z</time>
      </trkpt>
      <trkpt lat="42.453403000" lon="-2.448801000">
        <ele>394.10</ele>
        <time>2014-11-01T07:17:09Z</time>
      </trkpt>
      <trkpt lat="42.453372000" lon="-2.448767000">
        <ele>394.40</ele>
        <time>2014-11-01T07:17:10Z</time>
      </trkpt>
      <trkpt lat="42.453347000" lon="-2.448728000">
        <ele>394.50</ele>
        <time>2014-11-01T07:17:11Z</time>
      </trkpt>
      <trkpt lat="42.453321000" lon="-2.448687000">
        <ele>394.60</ele>
        <time>2014-11-01T07:17:12Z</time>
      </trkpt>
      <trkpt lat="42.453300000" lon="-2.448644000">
        <ele>394.70</ele>
        <time>2014-11-01T07:17:13Z</time>
      </trkpt>
      <trkpt lat="42.453289000" lon="-2.448591000">
        <ele>394.70</ele>
        <time>2014-11-01T07:17:14Z</time>
      </trkpt>
      <trkpt lat="42.453268000" lon="-2.448552000">
        <ele>394.80</ele>
        <time>2014-11-01T07:17:15Z</time>
      </trkpt>
      <trkpt lat="42.453261000" lon="-2.448499000">
        <ele>394.80</ele>
        <time>2014-11-01T07:17:16Z</time>
      </trkpt>
      <trkpt lat="42.453261000" lon="-2.448443000">
        <ele>394.80</ele>
        <time>2014-11-01T07:17:17Z</time>
      </trkpt>
      <trkpt lat="42.453262000" lon="-2.448390000">
        <ele>394.80</ele>
        <time>2014-11-01T07:17:18Z</time>
      </trkpt>
      <trkpt lat="42.453269000" lon="-2.448335000">
        <ele>394.90</ele>
        <time>2014-11-01T07:17:19Z</time>
      </trkpt>
      <trkpt lat="42.453280000" lon="-2.448279000">
        <ele>394.90</ele>
        <time>2014-11-01T07:17:20Z</time>
      </trkpt>
      <trkpt lat="42.453288000" lon="-2.448220000">
        <ele>394.90</ele>
        <time>2014-11-01T07:17:21Z</time>
      </trkpt>
      <trkpt lat="42.453302000" lon="-2.448165000">
        <ele>395.00</ele>
        <time>2014-11-01T07:17:22Z</time>
      </trkpt>
      <trkpt lat="42.453313000" lon="-2.448114000">
        <ele>395.00</ele>
        <time>2014-11-01T07:17:23Z</time>
      </trkpt>
      <trkpt lat="42.453324000" lon="-2.448064000">
        <ele>395.00</ele>
        <time>2014-11-01T07:17:24Z</time>
      </trkpt>
      <trkpt lat="42.453331000" lon="-2.448013000">
        <ele>395.00</ele>
        <time>2014-11-01T07:17:25Z</time>
      </trkpt>
      <trkpt lat="42.453331000" lon="-2.447964000">
        <ele>394.90</ele>
        <time>2014-11-01T07:17:26Z</time>
      </trkpt>
      <trkpt lat="42.453332000" lon="-2.447914000">
        <ele>394.90</ele>
        <time>2014-11-01T07:17:27Z</time>
      </trkpt>
      <trkpt lat="42.453328000" lon="-2.447864000">
        <ele>394.90</ele>
        <time>2014-11-01T07:17:28Z</time>
      </trkpt>
      <trkpt lat="42.453324000" lon="-2.447809000">
        <ele>395.00</ele>
        <time>2014-11-01T07:17:29Z</time>
      </trkpt>
      <trkpt lat="42.453317000" lon="-2.447752000">
        <ele>394.80</ele>
        <time>2014-11-01T07:17:30Z</time>
      </trkpt>
      <trkpt lat="42.453310000" lon="-2.447699000">
        <ele>394.60</ele>
        <time>2014-11-01T07:17:31Z</time>
      </trkpt>
      <trkpt lat="42.453303000" lon="-2.447646000">
        <ele>394.60</ele>
        <time>2014-11-01T07:17:32Z</time>
      </trkpt>
      <trkpt lat="42.453300000" lon="-2.447590000">
        <ele>394.50</ele>
        <time>2014-11-01T07:17:33Z</time>
      </trkpt>
      <trkpt lat="42.453293000" lon="-2.447537000">
        <ele>394.40</ele>
        <time>2014-11-01T07:17:34Z</time>
      </trkpt>
      <trkpt lat="42.453289000" lon="-2.447481000">
        <ele>394.40</ele>
        <time>2014-11-01T07:17:35Z</time>
      </trkpt>
      <trkpt lat="42.453291000" lon="-2.447419000">
        <ele>394.30</ele>
        <time>2014-11-01T07:17:36Z</time>
      </trkpt>
      <trkpt lat="42.453292000" lon="-2.447364000">
        <ele>394.20</ele>
        <time>2014-11-01T07:17:37Z</time>
      </trkpt>
      <trkpt lat="42.453300000" lon="-2.447309000">
        <ele>394.20</ele>
        <time>2014-11-01T07:17:38Z</time>
      </trkpt>
      <trkpt lat="42.453302000" lon="-2.447242000">
        <ele>394.10</ele>
        <time>2014-11-01T07:17:39Z</time>
      </trkpt>
      <trkpt lat="42.453295000" lon="-2.447169000">
        <ele>394.10</ele>
        <time>2014-11-01T07:17:40Z</time>
      </trkpt>
      <trkpt lat="42.453293000" lon="-2.447097000">
        <ele>394.10</ele>
        <time>2014-11-01T07:17:41Z</time>
      </trkpt>
      <trkpt lat="42.453283000" lon="-2.447013000">
        <ele>394.00</ele>
        <time>2014-11-01T07:17:42Z</time>
      </trkpt>
      <trkpt lat="42.453275000" lon="-2.446943000">
        <ele>393.90</ele>
        <time>2014-11-01T07:17:43Z</time>
      </trkpt>
      <trkpt lat="42.453266000" lon="-2.446872000">
        <ele>393.80</ele>
        <time>2014-11-01T07:17:44Z</time>
      </trkpt>
      <trkpt lat="42.453257000" lon="-2.446803000">
        <ele>393.60</ele>
        <time>2014-11-01T07:17:45Z</time>
      </trkpt>
      <trkpt lat="42.453247000" lon="-2.446737000">
        <ele>393.30</ele>
        <time>2014-11-01T07:17:46Z</time>
      </trkpt>
      <trkpt lat="42.453239000" lon="-2.446668000">
        <ele>393.10</ele>
        <time>2014-11-01T07:17:47Z</time>
      </trkpt>
      <trkpt lat="42.453230000" lon="-2.446608000">
        <ele>392.90</ele>
        <time>2014-11-01T07:17:48Z</time>
      </trkpt>
      <trkpt lat="42.453220000" lon="-2.446547000">
        <ele>392.80</ele>
        <time>2014-11-01T07:17:49Z</time>
      </trkpt>
      <trkpt lat="42.453202000" lon="-2.446491000">
        <ele>392.80</ele>
        <time>2014-11-01T07:17:50Z</time>
      </trkpt>
      <trkpt lat="42.453173000" lon="-2.446467000">
        <ele>392.80</ele>
        <time>2014-11-01T07:17:51Z</time>
      </trkpt>
      <trkpt lat="42.453134000" lon="-2.446446000">
        <ele>392.80</ele>
        <time>2014-11-01T07:17:52Z</time>
      </trkpt>
      <trkpt lat="42.453096000" lon="-2.446428000">
        <ele>392.90</ele>
        <time>2014-11-01T07:17:53Z</time>
      </trkpt>
      <trkpt lat="42.453060000" lon="-2.446415000">
        <ele>392.90</ele>
        <time>2014-11-01T07:17:54Z</time>
      </trkpt>
      <trkpt lat="42.453025000" lon="-2.446399000">
        <ele>392.90</ele>
        <time>2014-11-01T07:17:55Z</time>
      </trkpt>
      <trkpt lat="42.452993000" lon="-2.446385000">
        <ele>392.90</ele>
        <time>2014-11-01T07:17:56Z</time>
      </trkpt>
      <trkpt lat="42.452963000" lon="-2.446373000">
        <ele>392.90</ele>
        <time>2014-11-01T07:17:57Z</time>
      </trkpt>
      <trkpt lat="42.452935000" lon="-2.446360000">
        <ele>392.90</ele>
        <time>2014-11-01T07:17:58Z</time>
      </trkpt>
      <trkpt lat="42.452876000" lon="-2.446335000">
        <ele>392.80</ele>
        <time>2014-11-01T07:18:00Z</time>
      </trkpt>
      <trkpt lat="42.452847000" lon="-2.446322000">
        <ele>392.80</ele>
        <time>2014-11-01T07:18:01Z</time>
      </trkpt>
      <trkpt lat="42.452818000" lon="-2.446307000">
        <ele>392.80</ele>
        <time>2014-11-01T07:18:02Z</time>
      </trkpt>
      <trkpt lat="42.452790000" lon="-2.446294000">
        <ele>392.80</ele>
        <time>2014-11-01T07:18:03Z</time>
      </trkpt>
      <trkpt lat="42.452761000" lon="-2.446284000">
        <ele>392.80</ele>
        <time>2014-11-01T07:18:04Z</time>
      </trkpt>
      <trkpt lat="42.452732000" lon="-2.446274000">
        <ele>392.80</ele>
        <time>2014-11-01T07:18:05Z</time>
      </trkpt>
      <trkpt lat="42.452704000" lon="-2.446268000">
        <ele>392.70</ele>
        <time>2014-11-01T07:18:06Z</time>
      </trkpt>
      <trkpt lat="42.452675000" lon="-2.446260000">
        <ele>392.60</ele>
        <time>2014-11-01T07:18:07Z</time>
      </trkpt>
      <trkpt lat="42.452644000" lon="-2.446249000">
        <ele>392.40</ele>
        <time>2014-11-01T07:18:08Z</time>
      </trkpt>
      <trkpt lat="42.452611000" lon="-2.446240000">
        <ele>392.30</ele>
        <time>2014-11-01T07:18:09Z</time>
      </trkpt>
      <trkpt lat="42.452576000" lon="-2.446224000">
        <ele>392.20</ele>
        <time>2014-11-01T07:18:10Z</time>
      </trkpt>
      <trkpt lat="42.452542000" lon="-2.446210000">
        <ele>392.10</ele>
        <time>2014-11-01T07:18:11Z</time>
      </trkpt>
      <trkpt lat="42.452509000" lon="-2.446199000">
        <ele>392.20</ele>
        <time>2014-11-01T07:18:12Z</time>
      </trkpt>
      <trkpt lat="42.452473000" lon="-2.446190000">
        <ele>392.20</ele>
        <time>2014-11-01T07:18:13Z</time>
      </trkpt>
      <trkpt lat="42.452438000" lon="-2.446187000">
        <ele>392.20</ele>
        <time>2014-11-01T07:18:14Z</time>
      </trkpt>
      <trkpt lat="42.452402000" lon="-2.446184000">
        <ele>392.20</ele>
        <time>2014-11-01T07:18:15Z</time>
      </trkpt>
      <trkpt lat="42.452368000" lon="-2.446186000">
        <ele>392.20</ele>
        <time>2014-11-01T07:18:16Z</time>
      </trkpt>
      <trkpt lat="42.452333000" lon="-2.446179000">
        <ele>392.20</ele>
        <time>2014-11-01T07:18:17Z</time>
      </trkpt>
      <trkpt lat="42.452301000" lon="-2.446171000">
        <ele>392.20</ele>
        <time>2014-11-01T07:18:18Z</time>
      </trkpt>
      <trkpt lat="42.452265000" lon="-2.446163000">
        <ele>392.30</ele>
        <time>2014-11-01T07:18:19Z</time>
      </trkpt>
      <trkpt lat="42.452232000" lon="-2.446155000">
        <ele>392.30</ele>
        <time>2014-11-01T07:18:20Z</time>
      </trkpt>
      <trkpt lat="42.452199000" lon="-2.446145000">
        <ele>392.30</ele>
        <time>2014-11-01T07:18:21Z</time>
      </trkpt>
      <trkpt lat="42.452165000" lon="-2.446138000">
        <ele>392.40</ele>
        <time>2014-11-01T07:18:22Z</time>
      </trkpt>
      <trkpt lat="42.452131000" lon="-2.446134000">
        <ele>392.50</ele>
        <time>2014-11-01T07:18:23Z</time>
      </trkpt>
      <trkpt lat="42.452100000" lon="-2.446131000">
        <ele>392.50</ele>
        <time>2014-11-01T07:18:24Z</time>
      </trkpt>
      <trkpt lat="42.452069000" lon="-2.446123000">
        <ele>392.50</ele>
        <time>2014-11-01T07:18:25Z</time>
      </trkpt>
      <trkpt lat="42.452040000" lon="-2.446116000">
        <ele>392.60</ele>
        <time>2014-11-01T07:18:26Z</time>
      </trkpt>
      <trkpt lat="42.452010000" lon="-2.446109000">
        <ele>392.60</ele>
        <time>2014-11-01T07:18:27Z</time>
      </trkpt>
      <trkpt lat="42.451980000" lon="-2.446104000">
        <ele>392.70</ele>
        <time>2014-11-01T07:18:28Z</time>
      </trkpt>
      <trkpt lat="42.451951000" lon="-2.446098000">
        <ele>392.70</ele>
        <time>2014-11-01T07:18:29Z</time>
      </trkpt>
      <trkpt lat="42.451920000" lon="-2.446088000">
        <ele>392.80</ele>
        <time>2014-11-01T07:18:30Z</time>
      </trkpt>
      <trkpt lat="42.451890000" lon="-2.446080000">
        <ele>392.80</ele>
        <time>2014-11-01T07:18:31Z</time>
      </trkpt>
      <trkpt lat="42.451860000" lon="-2.446075000">
        <ele>392.80</ele>
        <time>2014-11-01T07:18:32Z</time>
      </trkpt>
      <trkpt lat="42.451830000" lon="-2.446068000">
        <ele>392.80</ele>
        <time>2014-11-01T07:18:33Z</time>
      </trkpt>
      <trkpt lat="42.451798000" lon="-2.446060000">
        <ele>392.80</ele>
        <time>2014-11-01T07:18:34Z</time>
      </trkpt>
      <trkpt lat="42.451767000" lon="-2.446049000">
        <ele>392.90</ele>
        <time>2014-11-01T07:18:35Z</time>
      </trkpt>
      <trkpt lat="42.451736000" lon="-2.446042000">
        <ele>392.90</ele>
        <time>2014-11-01T07:18:36Z</time>
      </trkpt>
      <trkpt lat="42.451706000" lon="-2.446035000">
        <ele>392.90</ele>
        <time>2014-11-01T07:18:37Z</time>
      </trkpt>
      <trkpt lat="42.451675000" lon="-2.446027000">
        <ele>393.00</ele>
        <time>2014-11-01T07:18:38Z</time>
      </trkpt>
      <trkpt lat="42.451643000" lon="-2.446020000">
        <ele>393.10</ele>
        <time>2014-11-01T07:18:39Z</time>
      </trkpt>
      <trkpt lat="42.451612000" lon="-2.446012000">
        <ele>393.20</ele>
        <time>2014-11-01T07:18:40Z</time>
      </trkpt>
      <trkpt lat="42.451582000" lon="-2.446002000">
        <ele>393.20</ele>
        <time>2014-11-01T07:18:41Z</time>
      </trkpt>
      <trkpt lat="42.451552000" lon="-2.445997000">
        <ele>393.30</ele>
        <time>2014-11-01T07:18:42Z</time>
      </trkpt>
      <trkpt lat="42.451521000" lon="-2.445992000">
        <ele>393.30</ele>
        <time>2014-11-01T07:18:43Z</time>
      </trkpt>
      <trkpt lat="42.451490000" lon="-2.445985000">
        <ele>393.30</ele>
        <time>2014-11-01T07:18:44Z</time>
      </trkpt>
      <trkpt lat="42.451459000" lon="-2.445973000">
        <ele>393.30</ele>
        <time>2014-11-01T07:18:45Z</time>
      </trkpt>
      <trkpt lat="42.451423000" lon="-2.445964000">
        <ele>393.40</ele>
        <time>2014-11-01T07:18:46Z</time>
      </trkpt>
      <trkpt lat="42.451393000" lon="-2.445952000">
        <ele>393.40</ele>
        <time>2014-11-01T07:18:47Z</time>
      </trkpt>
      <trkpt lat="42.451364000" lon="-2.445945000">
        <ele>393.40</ele>
        <time>2014-11-01T07:18:48Z</time>
      </trkpt>
      <trkpt lat="42.451333000" lon="-2.445927000">
        <ele>393.40</ele>
        <time>2014-11-01T07:18:49Z</time>
      </trkpt>
      <trkpt lat="42.451306000" lon="-2.445919000">
        <ele>393.40</ele>
        <time>2014-11-01T07:18:50Z</time>
      </trkpt>
      <trkpt lat="42.451280000" lon="-2.445915000">
        <ele>393.40</ele>
        <time>2014-11-01T07:18:51Z</time>
      </trkpt>
      <trkpt lat="42.451248000" lon="-2.445915000">
        <ele>393.40</ele>
        <time>2014-11-01T07:18:52Z</time>
      </trkpt>
      <trkpt lat="42.451217000" lon="-2.445911000">
        <ele>393.40</ele>
        <time>2014-11-01T07:18:53Z</time>
      </trkpt>
      <trkpt lat="42.451187000" lon="-2.445905000">
        <ele>393.40</ele>
        <time>2014-11-01T07:18:54Z</time>
      </trkpt>
      <trkpt lat="42.451157000" lon="-2.445899000">
        <ele>393.40</ele>
        <time>2014-11-01T07:18:55Z</time>
      </trkpt>
      <trkpt lat="42.451126000" lon="-2.445892000">
        <ele>393.30</ele>
        <time>2014-11-01T07:18:56Z</time>
      </trkpt>
      <trkpt lat="42.451096000" lon="-2.445887000">
        <ele>393.30</ele>
        <time>2014-11-01T07:18:57Z</time>
      </trkpt>
      <trkpt lat="42.451067000" lon="-2.445877000">
        <ele>393.30</ele>
        <time>2014-11-01T07:18:58Z</time>
      </trkpt>
      <trkpt lat="42.451040000" lon="-2.445875000">
        <ele>393.30</ele>
        <time>2014-11-01T07:18:59Z</time>
      </trkpt>
      <trkpt lat="42.451016000" lon="-2.445870000">
        <ele>393.30</ele>
        <time>2014-11-01T07:19:00Z</time>
      </trkpt>
      <trkpt lat="42.450978000" lon="-2.445861000">
        <ele>393.20</ele>
        <time>2014-11-01T07:19:02Z</time>
      </trkpt>
      <trkpt lat="42.450963000" lon="-2.445851000">
        <ele>393.20</ele>
        <time>2014-11-01T07:19:03Z</time>
      </trkpt>
      <trkpt lat="42.450947000" lon="-2.445840000">
        <ele>393.20</ele>
        <time>2014-11-01T07:19:04Z</time>
      </trkpt>
      <trkpt lat="42.450931000" lon="-2.445829000">
        <ele>393.20</ele>
        <time>2014-11-01T07:19:05Z</time>
      </trkpt>
      <trkpt lat="42.450917000" lon="-2.445821000">
        <ele>393.20</ele>
        <time>2014-11-01T07:19:06Z</time>
      </trkpt>
      <trkpt lat="42.450904000" lon="-2.445814000">
        <ele>393.20</ele>
        <time>2014-11-01T07:19:07Z</time>
      </trkpt>
      <trkpt lat="42.450897000" lon="-2.445806000">
        <ele>393.30</ele>
        <time>2014-11-01T07:19:08Z</time>
      </trkpt>
      <trkpt lat="42.450879000" lon="-2.445806000">
        <ele>393.40</ele>
        <time>2014-11-01T07:19:09Z</time>
      </trkpt>
      <trkpt lat="42.450860000" lon="-2.445799000">
        <ele>393.40</ele>
        <time>2014-11-01T07:19:10Z</time>
      </trkpt>
      <trkpt lat="42.450844000" lon="-2.445787000">
        <ele>393.50</ele>
        <time>2014-11-01T07:19:11Z</time>
      </trkpt>
      <trkpt lat="42.450826000" lon="-2.445776000">
        <ele>393.50</ele>
        <time>2014-11-01T07:19:12Z</time>
      </trkpt>
      <trkpt lat="42.450805000" lon="-2.445767000">
        <ele>393.60</ele>
        <time>2014-11-01T07:19:13Z</time>
      </trkpt>
      <trkpt lat="42.450782000" lon="-2.445761000">
        <ele>393.60</ele>
        <time>2014-11-01T07:19:14Z</time>
      </trkpt>
      <trkpt lat="42.450761000" lon="-2.445761000">
        <ele>393.60</ele>
        <time>2014-11-01T07:19:15Z</time>
      </trkpt>
      <trkpt lat="42.450741000" lon="-2.445758000">
        <ele>393.60</ele>
        <time>2014-11-01T07:19:16Z</time>
      </trkpt>
      <trkpt lat="42.450721000" lon="-2.445752000">
        <ele>393.60</ele>
        <time>2014-11-01T07:19:17Z</time>
      </trkpt>
      <trkpt lat="42.450697000" lon="-2.445745000">
        <ele>393.70</ele>
        <time>2014-11-01T07:19:18Z</time>
      </trkpt>
      <trkpt lat="42.450672000" lon="-2.445735000">
        <ele>393.80</ele>
        <time>2014-11-01T07:19:19Z</time>
      </trkpt>
      <trkpt lat="42.450646000" lon="-2.445723000">
        <ele>393.90</ele>
        <time>2014-11-01T07:19:20Z</time>
      </trkpt>
      <trkpt lat="42.450622000" lon="-2.445712000">
        <ele>393.90</ele>
        <time>2014-11-01T07:19:21Z</time>
      </trkpt>
      <trkpt lat="42.450596000" lon="-2.445708000">
        <ele>394.00</ele>
        <time>2014-11-01T07:19:22Z</time>
      </trkpt>
      <trkpt lat="42.450569000" lon="-2.445707000">
        <ele>394.00</ele>
        <time>2014-11-01T07:19:23Z</time>
      </trkpt>
      <trkpt lat="42.450541000" lon="-2.445699000">
        <ele>394.00</ele>
        <time>2014-11-01T07:19:24Z</time>
      </trkpt>
      <trkpt lat="42.450519000" lon="-2.445693000">
        <ele>394.00</ele>
        <time>2014-11-01T07:19:25Z</time>
      </trkpt>
      <trkpt lat="42.450498000" lon="-2.445684000">
        <ele>394.00</ele>
        <time>2014-11-01T07:19:26Z</time>
      </trkpt>
      <trkpt lat="42.450470000" lon="-2.445681000">
        <ele>394.10</ele>
        <time>2014-11-01T07:19:27Z</time>
      </trkpt>
      <trkpt lat="42.450442000" lon="-2.445680000">
        <ele>394.10</ele>
        <time>2014-11-01T07:19:28Z</time>
      </trkpt>
      <trkpt lat="42.450413000" lon="-2.445683000">
        <ele>394.10</ele>
        <time>2014-11-01T07:19:29Z</time>
      </trkpt>
      <trkpt lat="42.450382000" lon="-2.445690000">
        <ele>394.10</ele>
        <time>2014-11-01T07:19:30Z</time>
      </trkpt>
      <trkpt lat="42.450351000" lon="-2.445697000">
        <ele>394.10</ele>
        <time>2014-11-01T07:19:31Z</time>
      </trkpt>
      <trkpt lat="42.450317000" lon="-2.445704000">
        <ele>394.10</ele>
        <time>2014-11-01T07:19:32Z</time>
      </trkpt>
      <trkpt lat="42.450287000" lon="-2.445712000">
        <ele>394.10</ele>
        <time>2014-11-01T07:19:33Z</time>
      </trkpt>
      <trkpt lat="42.450254000" lon="-2.445714000">
        <ele>394.10</ele>
        <time>2014-11-01T07:19:34Z</time>
      </trkpt>
      <trkpt lat="42.450222000" lon="-2.445714000">
        <ele>394.10</ele>
        <time>2014-11-01T07:19:35Z</time>
      </trkpt>
      <trkpt lat="42.450191000" lon="-2.445717000">
        <ele>394.10</ele>
        <time>2014-11-01T07:19:36Z</time>
      </trkpt>
      <trkpt lat="42.450161000" lon="-2.445716000">
        <ele>394.10</ele>
        <time>2014-11-01T07:19:37Z</time>
      </trkpt>
      <trkpt lat="42.450132000" lon="-2.445712000">
        <ele>394.10</ele>
        <time>2014-11-01T07:19:38Z</time>
      </trkpt>
      <trkpt lat="42.450100000" lon="-2.445706000">
        <ele>394.20</ele>
        <time>2014-11-01T07:19:39Z</time>
      </trkpt>
      <trkpt lat="42.450069000" lon="-2.445697000">
        <ele>394.30</ele>
        <time>2014-11-01T07:19:40Z</time>
      </trkpt>
      <trkpt lat="42.450039000" lon="-2.445693000">
        <ele>394.40</ele>
        <time>2014-11-01T07:19:41Z</time>
      </trkpt>
      <trkpt lat="42.450007000" lon="-2.445688000">
        <ele>394.50</ele>
        <time>2014-11-01T07:19:42Z</time>
      </trkpt>
      <trkpt lat="42.449975000" lon="-2.445677000">
        <ele>394.60</ele>
        <time>2014-11-01T07:19:43Z</time>
      </trkpt>
      <trkpt lat="42.449945000" lon="-2.445673000">
        <ele>394.70</ele>
        <time>2014-11-01T07:19:44Z</time>
      </trkpt>
      <trkpt lat="42.449912000" lon="-2.445673000">
        <ele>394.70</ele>
        <time>2014-11-01T07:19:45Z</time>
      </trkpt>
      <trkpt lat="42.449880000" lon="-2.445673000">
        <ele>394.70</ele>
        <time>2014-11-01T07:19:46Z</time>
      </trkpt>
      <trkpt lat="42.449846000" lon="-2.445673000">
        <ele>394.80</ele>
        <time>2014-11-01T07:19:47Z</time>
      </trkpt>
      <trkpt lat="42.449812000" lon="-2.445669000">
        <ele>394.80</ele>
        <time>2014-11-01T07:19:48Z</time>
      </trkpt>
      <trkpt lat="42.449779000" lon="-2.445659000">
        <ele>394.80</ele>
        <time>2014-11-01T07:19:49Z</time>
      </trkpt>
      <trkpt lat="42.449745000" lon="-2.445652000">
        <ele>394.90</ele>
        <time>2014-11-01T07:19:50Z</time>
      </trkpt>
      <trkpt lat="42.449717000" lon="-2.445631000">
        <ele>395.10</ele>
        <time>2014-11-01T07:19:51Z</time>
      </trkpt>
      <trkpt lat="42.449693000" lon="-2.445613000">
        <ele>395.10</ele>
        <time>2014-11-01T07:19:52Z</time>
      </trkpt>
      <trkpt lat="42.449667000" lon="-2.445599000">
        <ele>395.20</ele>
        <time>2014-11-01T07:19:53Z</time>
      </trkpt>
      <trkpt lat="42.449641000" lon="-2.445588000">
        <ele>395.30</ele>
        <time>2014-11-01T07:19:54Z</time>
      </trkpt>
      <trkpt lat="42.449611000" lon="-2.445573000">
        <ele>395.40</ele>
        <time>2014-11-01T07:19:55Z</time>
      </trkpt>
      <trkpt lat="42.449580000" lon="-2.445558000">
        <ele>395.40</ele>
        <time>2014-11-01T07:19:56Z</time>
      </trkpt>
      <trkpt lat="42.449550000" lon="-2.445543000">
        <ele>395.40</ele>
        <time>2014-11-01T07:19:57Z</time>
      </trkpt>
      <trkpt lat="42.449520000" lon="-2.445530000">
        <ele>395.40</ele>
        <time>2014-11-01T07:19:58Z</time>
      </trkpt>
      <trkpt lat="42.449492000" lon="-2.445515000">
        <ele>395.50</ele>
        <time>2014-11-01T07:19:59Z</time>
      </trkpt>
      <trkpt lat="42.449463000" lon="-2.445500000">
        <ele>395.50</ele>
        <time>2014-11-01T07:20:00Z</time>
      </trkpt>
      <trkpt lat="42.449435000" lon="-2.445481000">
        <ele>395.40</ele>
        <time>2014-11-01T07:20:01Z</time>
      </trkpt>
      <trkpt lat="42.449404000" lon="-2.445466000">
        <ele>395.40</ele>
        <time>2014-11-01T07:20:02Z</time>
      </trkpt>
      <trkpt lat="42.449335000" lon="-2.445453000">
        <ele>395.20</ele>
        <time>2014-11-01T07:20:04Z</time>
      </trkpt>
      <trkpt lat="42.449297000" lon="-2.445451000">
        <ele>395.10</ele>
        <time>2014-11-01T07:20:05Z</time>
      </trkpt>
      <trkpt lat="42.449263000" lon="-2.445450000">
        <ele>395.10</ele>
        <time>2014-11-01T07:20:06Z</time>
      </trkpt>
      <trkpt lat="42.449229000" lon="-2.445451000">
        <ele>395.10</ele>
        <time>2014-11-01T07:20:07Z</time>
      </trkpt>
      <trkpt lat="42.449191000" lon="-2.445451000">
        <ele>395.20</ele>
        <time>2014-11-01T07:20:08Z</time>
      </trkpt>
      <trkpt lat="42.449155000" lon="-2.445453000">
        <ele>395.20</ele>
        <time>2014-11-01T07:20:09Z</time>
      </trkpt>
      <trkpt lat="42.449121000" lon="-2.445455000">
        <ele>395.30</ele>
        <time>2014-11-01T07:20:10Z</time>
      </trkpt>
      <trkpt lat="42.449087000" lon="-2.445459000">
        <ele>395.30</ele>
        <time>2014-11-01T07:20:11Z</time>
      </trkpt>
      <trkpt lat="42.449051000" lon="-2.445458000">
        <ele>395.20</ele>
        <time>2014-11-01T07:20:12Z</time>
      </trkpt>
      <trkpt lat="42.449014000" lon="-2.445458000">
        <ele>395.20</ele>
        <time>2014-11-01T07:20:13Z</time>
      </trkpt>
      <trkpt lat="42.448975000" lon="-2.445461000">
        <ele>395.20</ele>
        <time>2014-11-01T07:20:14Z</time>
      </trkpt>
      <trkpt lat="42.448937000" lon="-2.445458000">
        <ele>395.20</ele>
        <time>2014-11-01T07:20:15Z</time>
      </trkpt>
      <trkpt lat="42.448899000" lon="-2.445456000">
        <ele>395.20</ele>
        <time>2014-11-01T07:20:16Z</time>
      </trkpt>
      <trkpt lat="42.448860000" lon="-2.445452000">
        <ele>395.30</ele>
        <time>2014-11-01T07:20:17Z</time>
      </trkpt>
      <trkpt lat="42.448823000" lon="-2.445447000">
        <ele>395.30</ele>
        <time>2014-11-01T07:20:18Z</time>
      </trkpt>
      <trkpt lat="42.448787000" lon="-2.445441000">
        <ele>395.30</ele>
        <time>2014-11-01T07:20:19Z</time>
      </trkpt>
      <trkpt lat="42.448751000" lon="-2.445429000">
        <ele>395.30</ele>
        <time>2014-11-01T07:20:20Z</time>
      </trkpt>
      <trkpt lat="42.448716000" lon="-2.445420000">
        <ele>395.30</ele>
        <time>2014-11-01T07:20:21Z</time>
      </trkpt>
      <trkpt lat="42.448681000" lon="-2.445411000">
        <ele>395.50</ele>
        <time>2014-11-01T07:20:22Z</time>
      </trkpt>
      <trkpt lat="42.448644000" lon="-2.445408000">
        <ele>395.70</ele>
        <time>2014-11-01T07:20:23Z</time>
      </trkpt>
      <trkpt lat="42.448611000" lon="-2.445399000">
        <ele>395.90</ele>
        <time>2014-11-01T07:20:24Z</time>
      </trkpt>
      <trkpt lat="42.448580000" lon="-2.445388000">
        <ele>396.00</ele>
        <time>2014-11-01T07:20:25Z</time>
      </trkpt>
      <trkpt lat="42.448547000" lon="-2.445379000">
        <ele>396.10</ele>
        <time>2014-11-01T07:20:26Z</time>
      </trkpt>
      <trkpt lat="42.448512000" lon="-2.445367000">
        <ele>396.20</ele>
        <time>2014-11-01T07:20:27Z</time>
      </trkpt>
      <trkpt lat="42.448478000" lon="-2.445354000">
        <ele>396.20</ele>
        <time>2014-11-01T07:20:28Z</time>
      </trkpt>
      <trkpt lat="42.448446000" lon="-2.445338000">
        <ele>396.30</ele>
        <time>2014-11-01T07:20:29Z</time>
      </trkpt>
      <trkpt lat="42.448412000" lon="-2.445323000">
        <ele>396.30</ele>
        <time>2014-11-01T07:20:30Z</time>
      </trkpt>
      <trkpt lat="42.448377000" lon="-2.445309000">
        <ele>396.30</ele>
        <time>2014-11-01T07:20:31Z</time>
      </trkpt>
      <trkpt lat="42.448337000" lon="-2.445296000">
        <ele>396.40</ele>
        <time>2014-11-01T07:20:32Z</time>
      </trkpt>
      <trkpt lat="42.448300000" lon="-2.445285000">
        <ele>396.50</ele>
        <time>2014-11-01T07:20:33Z</time>
      </trkpt>
      <trkpt lat="42.448259000" lon="-2.445274000">
        <ele>396.50</ele>
        <time>2014-11-01T07:20:34Z</time>
      </trkpt>
      <trkpt lat="42.448223000" lon="-2.445262000">
        <ele>396.50</ele>
        <time>2014-11-01T07:20:35Z</time>
      </trkpt>
      <trkpt lat="42.448189000" lon="-2.445255000">
        <ele>396.60</ele>
        <time>2014-11-01T07:20:36Z</time>
      </trkpt>
      <trkpt lat="42.448156000" lon="-2.445237000">
        <ele>396.60</ele>
        <time>2014-11-01T07:20:37Z</time>
      </trkpt>
      <trkpt lat="42.448121000" lon="-2.445221000">
        <ele>396.60</ele>
        <time>2014-11-01T07:20:38Z</time>
      </trkpt>
      <trkpt lat="42.448091000" lon="-2.445203000">
        <ele>396.60</ele>
        <time>2014-11-01T07:20:39Z</time>
      </trkpt>
      <trkpt lat="42.448060000" lon="-2.445194000">
        <ele>396.60</ele>
        <time>2014-11-01T07:20:40Z</time>
      </trkpt>
      <trkpt lat="42.448029000" lon="-2.445184000">
        <ele>396.60</ele>
        <time>2014-11-01T07:20:41Z</time>
      </trkpt>
      <trkpt lat="42.448000000" lon="-2.445167000">
        <ele>396.70</ele>
        <time>2014-11-01T07:20:42Z</time>
      </trkpt>
      <trkpt lat="42.447972000" lon="-2.445144000">
        <ele>396.80</ele>
        <time>2014-11-01T07:20:43Z</time>
      </trkpt>
      <trkpt lat="42.447942000" lon="-2.445124000">
        <ele>396.90</ele>
        <time>2014-11-01T07:20:44Z</time>
      </trkpt>
      <trkpt lat="42.447913000" lon="-2.445103000">
        <ele>396.90</ele>
        <time>2014-11-01T07:20:45Z</time>
      </trkpt>
      <trkpt lat="42.447887000" lon="-2.445080000">
        <ele>396.90</ele>
        <time>2014-11-01T07:20:46Z</time>
      </trkpt>
      <trkpt lat="42.447855000" lon="-2.445060000">
        <ele>396.90</ele>
        <time>2014-11-01T07:20:47Z</time>
      </trkpt>
      <trkpt lat="42.447827000" lon="-2.445036000">
        <ele>396.90</ele>
        <time>2014-11-01T07:20:48Z</time>
      </trkpt>
      <trkpt lat="42.447796000" lon="-2.445013000">
        <ele>396.90</ele>
        <time>2014-11-01T07:20:49Z</time>
      </trkpt>
      <trkpt lat="42.447767000" lon="-2.444992000">
        <ele>396.90</ele>
        <time>2014-11-01T07:20:50Z</time>
      </trkpt>
      <trkpt lat="42.447741000" lon="-2.444969000">
        <ele>396.90</ele>
        <time>2014-11-01T07:20:51Z</time>
      </trkpt>
      <trkpt lat="42.447716000" lon="-2.444944000">
        <ele>396.90</ele>
        <time>2014-11-01T07:20:52Z</time>
      </trkpt>
      <trkpt lat="42.447686000" lon="-2.444920000">
        <ele>396.90</ele>
        <time>2014-11-01T07:20:53Z</time>
      </trkpt>
      <trkpt lat="42.447654000" lon="-2.444896000">
        <ele>397.00</ele>
        <time>2014-11-01T07:20:54Z</time>
      </trkpt>
      <trkpt lat="42.447622000" lon="-2.444872000">
        <ele>397.00</ele>
        <time>2014-11-01T07:20:55Z</time>
      </trkpt>
      <trkpt lat="42.447601000" lon="-2.444834000">
        <ele>397.00</ele>
        <time>2014-11-01T07:20:56Z</time>
      </trkpt>
      <trkpt lat="42.447576000" lon="-2.444799000">
        <ele>397.00</ele>
        <time>2014-11-01T07:20:57Z</time>
      </trkpt>
      <trkpt lat="42.447545000" lon="-2.444770000">
        <ele>397.00</ele>
        <time>2014-11-01T07:20:58Z</time>
      </trkpt>
      <trkpt lat="42.447520000" lon="-2.444736000">
        <ele>397.10</ele>
        <time>2014-11-01T07:20:59Z</time>
      </trkpt>
      <trkpt lat="42.447494000" lon="-2.444702000">
        <ele>397.10</ele>
        <time>2014-11-01T07:21:00Z</time>
      </trkpt>
      <trkpt lat="42.447474000" lon="-2.444669000">
        <ele>397.10</ele>
        <time>2014-11-01T07:21:01Z</time>
      </trkpt>
      <trkpt lat="42.447457000" lon="-2.444641000">
        <ele>397.00</ele>
        <time>2014-11-01T07:21:02Z</time>
      </trkpt>
      <trkpt lat="42.447444000" lon="-2.444609000">
        <ele>397.00</ele>
        <time>2014-11-01T07:21:03Z</time>
      </trkpt>
      <trkpt lat="42.447426000" lon="-2.444582000">
        <ele>397.00</ele>
        <time>2014-11-01T07:21:04Z</time>
      </trkpt>
      <trkpt lat="42.447379000" lon="-2.444524000">
        <ele>397.10</ele>
        <time>2014-11-01T07:21:06Z</time>
      </trkpt>
      <trkpt lat="42.447353000" lon="-2.444494000">
        <ele>397.10</ele>
        <time>2014-11-01T07:21:07Z</time>
      </trkpt>
      <trkpt lat="42.447326000" lon="-2.444463000">
        <ele>397.20</ele>
        <time>2014-11-01T07:21:08Z</time>
      </trkpt>
      <trkpt lat="42.447296000" lon="-2.444434000">
        <ele>397.20</ele>
        <time>2014-11-01T07:21:09Z</time>
      </trkpt>
      <trkpt lat="42.447266000" lon="-2.444406000">
        <ele>397.20</ele>
        <time>2014-11-01T07:21:10Z</time>
      </trkpt>
      <trkpt lat="42.447237000" lon="-2.444380000">
        <ele>397.20</ele>
        <time>2014-11-01T07:21:11Z</time>
      </trkpt>
      <trkpt lat="42.447205000" lon="-2.444358000">
        <ele>397.30</ele>
        <time>2014-11-01T07:21:12Z</time>
      </trkpt>
      <trkpt lat="42.447175000" lon="-2.444337000">
        <ele>397.50</ele>
        <time>2014-11-01T07:21:13Z</time>
      </trkpt>
      <trkpt lat="42.447149000" lon="-2.444327000">
        <ele>397.50</ele>
        <time>2014-11-01T07:21:14Z</time>
      </trkpt>
      <trkpt lat="42.447120000" lon="-2.444318000">
        <ele>397.60</ele>
        <time>2014-11-01T07:21:15Z</time>
      </trkpt>
      <trkpt lat="42.447091000" lon="-2.444308000">
        <ele>397.70</ele>
        <time>2014-11-01T07:21:16Z</time>
      </trkpt>
      <trkpt lat="42.447062000" lon="-2.444295000">
        <ele>397.80</ele>
        <time>2014-11-01T07:21:17Z</time>
      </trkpt>
      <trkpt lat="42.447033000" lon="-2.444283000">
        <ele>397.70</ele>
        <time>2014-11-01T07:21:18Z</time>
      </trkpt>
      <trkpt lat="42.447000000" lon="-2.444269000">
        <ele>397.70</ele>
        <time>2014-11-01T07:21:19Z</time>
      </trkpt>
      <trkpt lat="42.446967000" lon="-2.444251000">
        <ele>397.60</ele>
        <time>2014-11-01T07:21:20Z</time>
      </trkpt>
      <trkpt lat="42.446932000" lon="-2.444229000">
        <ele>397.60</ele>
        <time>2014-11-01T07:21:21Z</time>
      </trkpt>
      <trkpt lat="42.446896000" lon="-2.444207000">
        <ele>397.60</ele>
        <time>2014-11-01T07:21:22Z</time>
      </trkpt>
      <trkpt lat="42.446860000" lon="-2.444188000">
        <ele>397.60</ele>
        <time>2014-11-01T07:21:23Z</time>
      </trkpt>
      <trkpt lat="42.446824000" lon="-2.444172000">
        <ele>397.50</ele>
        <time>2014-11-01T07:21:24Z</time>
      </trkpt>
      <trkpt lat="42.446788000" lon="-2.444154000">
        <ele>397.50</ele>
        <time>2014-11-01T07:21:25Z</time>
      </trkpt>
      <trkpt lat="42.446751000" lon="-2.444138000">
        <ele>397.70</ele>
        <time>2014-11-01T07:21:26Z</time>
      </trkpt>
      <trkpt lat="42.446717000" lon="-2.444117000">
        <ele>397.90</ele>
        <time>2014-11-01T07:21:27Z</time>
      </trkpt>
      <trkpt lat="42.446684000" lon="-2.444095000">
        <ele>398.00</ele>
        <time>2014-11-01T07:21:28Z</time>
      </trkpt>
      <trkpt lat="42.446652000" lon="-2.444074000">
        <ele>398.00</ele>
        <time>2014-11-01T07:21:29Z</time>
      </trkpt>
      <trkpt lat="42.446617000" lon="-2.444055000">
        <ele>398.10</ele>
        <time>2014-11-01T07:21:30Z</time>
      </trkpt>
      <trkpt lat="42.446582000" lon="-2.444034000">
        <ele>398.10</ele>
        <time>2014-11-01T07:21:31Z</time>
      </trkpt>
      <trkpt lat="42.446548000" lon="-2.444017000">
        <ele>398.10</ele>
        <time>2014-11-01T07:21:32Z</time>
      </trkpt>
      <trkpt lat="42.446513000" lon="-2.443997000">
        <ele>398.10</ele>
        <time>2014-11-01T07:21:33Z</time>
      </trkpt>
      <trkpt lat="42.446477000" lon="-2.443975000">
        <ele>397.90</ele>
        <time>2014-11-01T07:21:34Z</time>
      </trkpt>
      <trkpt lat="42.446440000" lon="-2.443956000">
        <ele>397.80</ele>
        <time>2014-11-01T07:21:35Z</time>
      </trkpt>
      <trkpt lat="42.446403000" lon="-2.443934000">
        <ele>397.80</ele>
        <time>2014-11-01T07:21:36Z</time>
      </trkpt>
      <trkpt lat="42.446368000" lon="-2.443912000">
        <ele>397.70</ele>
        <time>2014-11-01T07:21:37Z</time>
      </trkpt>
      <trkpt lat="42.446335000" lon="-2.443888000">
        <ele>397.60</ele>
        <time>2014-11-01T07:21:38Z</time>
      </trkpt>
      <trkpt lat="42.446300000" lon="-2.443868000">
        <ele>397.60</ele>
        <time>2014-11-01T07:21:39Z</time>
      </trkpt>
      <trkpt lat="42.446268000" lon="-2.443846000">
        <ele>397.60</ele>
        <time>2014-11-01T07:21:40Z</time>
      </trkpt>
      <trkpt lat="42.446234000" lon="-2.443825000">
        <ele>397.60</ele>
        <time>2014-11-01T07:21:41Z</time>
      </trkpt>
      <trkpt lat="42.446199000" lon="-2.443809000">
        <ele>397.60</ele>
        <time>2014-11-01T07:21:42Z</time>
      </trkpt>
      <trkpt lat="42.446159000" lon="-2.443798000">
        <ele>397.70</ele>
        <time>2014-11-01T07:21:43Z</time>
      </trkpt>
      <trkpt lat="42.446121000" lon="-2.443791000">
        <ele>397.70</ele>
        <time>2014-11-01T07:21:44Z</time>
      </trkpt>
      <trkpt lat="42.446083000" lon="-2.443788000">
        <ele>397.70</ele>
        <time>2014-11-01T07:21:45Z</time>
      </trkpt>
      <trkpt lat="42.446045000" lon="-2.443787000">
        <ele>397.80</ele>
        <time>2014-11-01T07:21:46Z</time>
      </trkpt>
      <trkpt lat="42.446003000" lon="-2.443794000">
        <ele>397.80</ele>
        <time>2014-11-01T07:21:47Z</time>
      </trkpt>
      <trkpt lat="42.445962000" lon="-2.443795000">
        <ele>398.10</ele>
        <time>2014-11-01T07:21:48Z</time>
      </trkpt>
      <trkpt lat="42.445923000" lon="-2.443801000">
        <ele>398.30</ele>
        <time>2014-11-01T07:21:49Z</time>
      </trkpt>
      <trkpt lat="42.445883000" lon="-2.443804000">
        <ele>398.40</ele>
        <time>2014-11-01T07:21:50Z</time>
      </trkpt>
      <trkpt lat="42.445845000" lon="-2.443812000">
        <ele>398.50</ele>
        <time>2014-11-01T07:21:51Z</time>
      </trkpt>
      <trkpt lat="42.445805000" lon="-2.443817000">
        <ele>398.60</ele>
        <time>2014-11-01T07:21:52Z</time>
      </trkpt>
      <trkpt lat="42.445767000" lon="-2.443823000">
        <ele>398.70</ele>
        <time>2014-11-01T07:21:53Z</time>
      </trkpt>
      <trkpt lat="42.445729000" lon="-2.443833000">
        <ele>398.60</ele>
        <time>2014-11-01T07:21:54Z</time>
      </trkpt>
      <trkpt lat="42.445694000" lon="-2.443843000">
        <ele>398.50</ele>
        <time>2014-11-01T07:21:55Z</time>
      </trkpt>
      <trkpt lat="42.445659000" lon="-2.443848000">
        <ele>398.70</ele>
        <time>2014-11-01T07:21:56Z</time>
      </trkpt>
      <trkpt lat="42.445626000" lon="-2.443852000">
        <ele>398.80</ele>
        <time>2014-11-01T07:21:57Z</time>
      </trkpt>
      <trkpt lat="42.445597000" lon="-2.443853000">
        <ele>398.80</ele>
        <time>2014-11-01T07:21:58Z</time>
      </trkpt>
      <trkpt lat="42.445569000" lon="-2.443850000">
        <ele>398.90</ele>
        <time>2014-11-01T07:21:59Z</time>
      </trkpt>
      <trkpt lat="42.445540000" lon="-2.443848000">
        <ele>399.00</ele>
        <time>2014-11-01T07:22:00Z</time>
      </trkpt>
      <trkpt lat="42.445510000" lon="-2.443850000">
        <ele>399.10</ele>
        <time>2014-11-01T07:22:01Z</time>
      </trkpt>
      <trkpt lat="42.445479000" lon="-2.443855000">
        <ele>399.10</ele>
        <time>2014-11-01T07:22:02Z</time>
      </trkpt>
      <trkpt lat="42.445448000" lon="-2.443860000">
        <ele>399.20</ele>
        <time>2014-11-01T07:22:03Z</time>
      </trkpt>
      <trkpt lat="42.445415000" lon="-2.443868000">
        <ele>399.10</ele>
        <time>2014-11-01T07:22:04Z</time>
      </trkpt>
      <trkpt lat="42.445378000" lon="-2.443872000">
        <ele>399.10</ele>
        <time>2014-11-01T07:22:05Z</time>
      </trkpt>
      <trkpt lat="42.445341000" lon="-2.443872000">
        <ele>399.10</ele>
        <time>2014-11-01T07:22:06Z</time>
      </trkpt>
      <trkpt lat="42.445266000" lon="-2.443879000">
        <ele>399.10</ele>
        <time>2014-11-01T07:22:08Z</time>
      </trkpt>
      <trkpt lat="42.445227000" lon="-2.443884000">
        <ele>399.20</ele>
        <time>2014-11-01T07:22:09Z</time>
      </trkpt>
      <trkpt lat="42.445190000" lon="-2.443894000">
        <ele>399.20</ele>
        <time>2014-11-01T07:22:10Z</time>
      </trkpt>
      <trkpt lat="42.445154000" lon="-2.443903000">
        <ele>399.20</ele>
        <time>2014-11-01T07:22:11Z</time>
      </trkpt>
      <trkpt lat="42.445115000" lon="-2.443909000">
        <ele>399.40</ele>
        <time>2014-11-01T07:22:12Z</time>
      </trkpt>
      <trkpt lat="42.445076000" lon="-2.443914000">
        <ele>399.50</ele>
        <time>2014-11-01T07:22:13Z</time>
      </trkpt>
      <trkpt lat="42.445035000" lon="-2.443921000">
        <ele>399.50</ele>
        <time>2014-11-01T07:22:14Z</time>
      </trkpt>
      <trkpt lat="42.444996000" lon="-2.443935000">
        <ele>399.50</ele>
        <time>2014-11-01T07:22:15Z</time>
      </trkpt>
      <trkpt lat="42.444958000" lon="-2.443940000">
        <ele>399.50</ele>
        <time>2014-11-01T07:22:16Z</time>
      </trkpt>
      <trkpt lat="42.444919000" lon="-2.443944000">
        <ele>399.50</ele>
        <time>2014-11-01T07:22:17Z</time>
      </trkpt>
      <trkpt lat="42.444881000" lon="-2.443952000">
        <ele>399.50</ele>
        <time>2014-11-01T07:22:18Z</time>
      </trkpt>
      <trkpt lat="42.444843000" lon="-2.443958000">
        <ele>399.50</ele>
        <time>2014-11-01T07:22:19Z</time>
      </trkpt>
      <trkpt lat="42.444804000" lon="-2.443957000">
        <ele>399.50</ele>
        <time>2014-11-01T07:22:20Z</time>
      </trkpt>
      <trkpt lat="42.444768000" lon="-2.443954000">
        <ele>399.40</ele>
        <time>2014-11-01T07:22:21Z</time>
      </trkpt>
      <trkpt lat="42.444731000" lon="-2.443957000">
        <ele>399.50</ele>
        <time>2014-11-01T07:22:22Z</time>
      </trkpt>
      <trkpt lat="42.444696000" lon="-2.443961000">
        <ele>399.50</ele>
        <time>2014-11-01T07:22:23Z</time>
      </trkpt>
      <trkpt lat="42.444659000" lon="-2.443963000">
        <ele>399.40</ele>
        <time>2014-11-01T07:22:24Z</time>
      </trkpt>
      <trkpt lat="42.444620000" lon="-2.443966000">
        <ele>399.30</ele>
        <time>2014-11-01T07:22:25Z</time>
      </trkpt>
      <trkpt lat="42.444580000" lon="-2.443971000">
        <ele>399.40</ele>
        <time>2014-11-01T07:22:26Z</time>
      </trkpt>
      <trkpt lat="42.444540000" lon="-2.443979000">
        <ele>399.40</ele>
        <time>2014-11-01T07:22:27Z</time>
      </trkpt>
      <trkpt lat="42.444504000" lon="-2.443986000">
        <ele>399.50</ele>
        <time>2014-11-01T07:22:28Z</time>
      </trkpt>
      <trkpt lat="42.444467000" lon="-2.443991000">
        <ele>399.60</ele>
        <time>2014-11-01T07:22:29Z</time>
      </trkpt>
      <trkpt lat="42.444429000" lon="-2.443996000">
        <ele>399.60</ele>
        <time>2014-11-01T07:22:30Z</time>
      </trkpt>
      <trkpt lat="42.444392000" lon="-2.444002000">
        <ele>399.70</ele>
        <time>2014-11-01T07:22:31Z</time>
      </trkpt>
      <trkpt lat="42.444355000" lon="-2.444010000">
        <ele>399.80</ele>
        <time>2014-11-01T07:22:32Z</time>
      </trkpt>
      <trkpt lat="42.444317000" lon="-2.444017000">
        <ele>399.80</ele>
        <time>2014-11-01T07:22:33Z</time>
      </trkpt>
      <trkpt lat="42.444282000" lon="-2.444021000">
        <ele>399.90</ele>
        <time>2014-11-01T07:22:34Z</time>
      </trkpt>
      <trkpt lat="42.444246000" lon="-2.444027000">
        <ele>399.90</ele>
        <time>2014-11-01T07:22:35Z</time>
      </trkpt>
      <trkpt lat="42.444208000" lon="-2.444031000">
        <ele>400.00</ele>
        <time>2014-11-01T07:22:36Z</time>
      </trkpt>
      <trkpt lat="42.444171000" lon="-2.444033000">
        <ele>400.20</ele>
        <time>2014-11-01T07:22:37Z</time>
      </trkpt>
      <trkpt lat="42.444133000" lon="-2.444033000">
        <ele>400.30</ele>
        <time>2014-11-01T07:22:38Z</time>
      </trkpt>
      <trkpt lat="42.444095000" lon="-2.444032000">
        <ele>400.40</ele>
        <time>2014-11-01T07:22:39Z</time>
      </trkpt>
      <trkpt lat="42.444057000" lon="-2.444027000">
        <ele>400.50</ele>
        <time>2014-11-01T07:22:40Z</time>
      </trkpt>
      <trkpt lat="42.444020000" lon="-2.444024000">
        <ele>400.60</ele>
        <time>2014-11-01T07:22:41Z</time>
      </trkpt>
      <trkpt lat="42.443986000" lon="-2.444020000">
        <ele>400.50</ele>
        <time>2014-11-01T07:22:42Z</time>
      </trkpt>
      <trkpt lat="42.443950000" lon="-2.444016000">
        <ele>400.40</ele>
        <time>2014-11-01T07:22:43Z</time>
      </trkpt>
      <trkpt lat="42.443916000" lon="-2.444012000">
        <ele>400.40</ele>
        <time>2014-11-01T07:22:44Z</time>
      </trkpt>
      <trkpt lat="42.443882000" lon="-2.444008000">
        <ele>400.30</ele>
        <time>2014-11-01T07:22:45Z</time>
      </trkpt>
      <trkpt lat="42.443848000" lon="-2.444003000">
        <ele>400.30</ele>
        <time>2014-11-01T07:22:46Z</time>
      </trkpt>
      <trkpt lat="42.443815000" lon="-2.444001000">
        <ele>400.30</ele>
        <time>2014-11-01T07:22:47Z</time>
      </trkpt>
      <trkpt lat="42.443779000" lon="-2.443998000">
        <ele>400.40</ele>
        <time>2014-11-01T07:22:48Z</time>
      </trkpt>
      <trkpt lat="42.443743000" lon="-2.443997000">
        <ele>400.40</ele>
        <time>2014-11-01T07:22:49Z</time>
      </trkpt>
      <trkpt lat="42.443708000" lon="-2.443998000">
        <ele>400.40</ele>
        <time>2014-11-01T07:22:50Z</time>
      </trkpt>
      <trkpt lat="42.443673000" lon="-2.444000000">
        <ele>400.40</ele>
        <time>2014-11-01T07:22:51Z</time>
      </trkpt>
      <trkpt lat="42.443638000" lon="-2.444002000">
        <ele>400.50</ele>
        <time>2014-11-01T07:22:52Z</time>
      </trkpt>
      <trkpt lat="42.443601000" lon="-2.444003000">
        <ele>400.50</ele>
        <time>2014-11-01T07:22:53Z</time>
      </trkpt>
      <trkpt lat="42.443565000" lon="-2.444008000">
        <ele>400.50</ele>
        <time>2014-11-01T07:22:54Z</time>
      </trkpt>
      <trkpt lat="42.443529000" lon="-2.444011000">
        <ele>400.60</ele>
        <time>2014-11-01T07:22:55Z</time>
      </trkpt>
      <trkpt lat="42.443493000" lon="-2.444015000">
        <ele>400.70</ele>
        <time>2014-11-01T07:22:56Z</time>
      </trkpt>
      <trkpt lat="42.443458000" lon="-2.444016000">
        <ele>400.80</ele>
        <time>2014-11-01T07:22:57Z</time>
      </trkpt>
      <trkpt lat="42.443420000" lon="-2.444016000">
        <ele>400.80</ele>
        <time>2014-11-01T07:22:58Z</time>
      </trkpt>
      <trkpt lat="42.443384000" lon="-2.444017000">
        <ele>400.90</ele>
        <time>2014-11-01T07:22:59Z</time>
      </trkpt>
      <trkpt lat="42.443350000" lon="-2.444020000">
        <ele>400.90</ele>
        <time>2014-11-01T07:23:00Z</time>
      </trkpt>
      <trkpt lat="42.443320000" lon="-2.444023000">
        <ele>400.90</ele>
        <time>2014-11-01T07:23:01Z</time>
      </trkpt>
      <trkpt lat="42.443289000" lon="-2.444025000">
        <ele>401.10</ele>
        <time>2014-11-01T07:23:02Z</time>
      </trkpt>
      <trkpt lat="42.443260000" lon="-2.444028000">
        <ele>401.20</ele>
        <time>2014-11-01T07:23:03Z</time>
      </trkpt>
      <trkpt lat="42.443232000" lon="-2.444026000">
        <ele>401.30</ele>
        <time>2014-11-01T07:23:04Z</time>
      </trkpt>
      <trkpt lat="42.443207000" lon="-2.444026000">
        <ele>401.50</ele>
        <time>2014-11-01T07:23:05Z</time>
      </trkpt>
      <trkpt lat="42.443181000" lon="-2.444021000">
        <ele>401.70</ele>
        <time>2014-11-01T07:23:06Z</time>
      </trkpt>
      <trkpt lat="42.443153000" lon="-2.444015000">
        <ele>401.80</ele>
        <time>2014-11-01T07:23:07Z</time>
      </trkpt>
      <trkpt lat="42.443129000" lon="-2.444002000">
        <ele>401.90</ele>
        <time>2014-11-01T07:23:08Z</time>
      </trkpt>
      <trkpt lat="42.443078000" lon="-2.443980000">
        <ele>402.10</ele>
        <time>2014-11-01T07:23:10Z</time>
      </trkpt>
      <trkpt lat="42.443047000" lon="-2.443969000">
        <ele>402.20</ele>
        <time>2014-11-01T07:23:11Z</time>
      </trkpt>
      <trkpt lat="42.443012000" lon="-2.443957000">
        <ele>402.20</ele>
        <time>2014-11-01T07:23:12Z</time>
      </trkpt>
      <trkpt lat="42.442975000" lon="-2.443942000">
        <ele>402.20</ele>
        <time>2014-11-01T07:23:13Z</time>
      </trkpt>
      <trkpt lat="42.442937000" lon="-2.443929000">
        <ele>402.20</ele>
        <time>2014-11-01T07:23:14Z</time>
      </trkpt>
      <trkpt lat="42.442898000" lon="-2.443915000">
        <ele>402.30</ele>
        <time>2014-11-01T07:23:15Z</time>
      </trkpt>
      <trkpt lat="42.442860000" lon="-2.443904000">
        <ele>402.30</ele>
        <time>2014-11-01T07:23:16Z</time>
      </trkpt>
      <trkpt lat="42.442821000" lon="-2.443898000">
        <ele>402.30</ele>
        <time>2014-11-01T07:23:17Z</time>
      </trkpt>
      <trkpt lat="42.442782000" lon="-2.443897000">
        <ele>402.30</ele>
        <time>2014-11-01T07:23:18Z</time>
      </trkpt>
      <trkpt lat="42.442742000" lon="-2.443904000">
        <ele>402.30</ele>
        <time>2014-11-01T07:23:19Z</time>
      </trkpt>
      <trkpt lat="42.442704000" lon="-2.443913000">
        <ele>402.10</ele>
        <time>2014-11-01T07:23:20Z</time>
      </trkpt>
      <trkpt lat="42.442667000" lon="-2.443924000">
        <ele>402.00</ele>
        <time>2014-11-01T07:23:21Z</time>
      </trkpt>
      <trkpt lat="42.442630000" lon="-2.443942000">
        <ele>401.90</ele>
        <time>2014-11-01T07:23:22Z</time>
      </trkpt>
      <trkpt lat="42.442590000" lon="-2.443957000">
        <ele>401.80</ele>
        <time>2014-11-01T07:23:23Z</time>
      </trkpt>
      <trkpt lat="42.442552000" lon="-2.443975000">
        <ele>401.80</ele>
        <time>2014-11-01T07:23:24Z</time>
      </trkpt>
      <trkpt lat="42.442513000" lon="-2.443992000">
        <ele>401.80</ele>
        <time>2014-11-01T07:23:25Z</time>
      </trkpt>
      <trkpt lat="42.442477000" lon="-2.444008000">
        <ele>401.90</ele>
        <time>2014-11-01T07:23:26Z</time>
      </trkpt>
      <trkpt lat="42.442441000" lon="-2.444022000">
        <ele>402.00</ele>
        <time>2014-11-01T07:23:27Z</time>
      </trkpt>
      <trkpt lat="42.442407000" lon="-2.444037000">
        <ele>402.20</ele>
        <time>2014-11-01T07:23:28Z</time>
      </trkpt>
      <trkpt lat="42.442368000" lon="-2.444054000">
        <ele>402.40</ele>
        <time>2014-11-01T07:23:29Z</time>
      </trkpt>
      <trkpt lat="42.442329000" lon="-2.444073000">
        <ele>402.50</ele>
        <time>2014-11-01T07:23:30Z</time>
      </trkpt>
      <trkpt lat="42.442293000" lon="-2.444093000">
        <ele>402.60</ele>
        <time>2014-11-01T07:23:31Z</time>
      </trkpt>
      <trkpt lat="42.442254000" lon="-2.444110000">
        <ele>402.60</ele>
        <time>2014-11-01T07:23:32Z</time>
      </trkpt>
      <trkpt lat="42.442214000" lon="-2.444128000">
        <ele>402.60</ele>
        <time>2014-11-01T07:23:33Z</time>
      </trkpt>
      <trkpt lat="42.442177000" lon="-2.444143000">
        <ele>402.60</ele>
        <time>2014-11-01T07:23:34Z</time>
      </trkpt>
      <trkpt lat="42.442139000" lon="-2.444155000">
        <ele>402.60</ele>
        <time>2014-11-01T07:23:35Z</time>
      </trkpt>
      <trkpt lat="42.442103000" lon="-2.444172000">
        <ele>402.80</ele>
        <time>2014-11-01T07:23:36Z</time>
      </trkpt>
      <trkpt lat="42.442065000" lon="-2.444187000">
        <ele>402.90</ele>
        <time>2014-11-01T07:23:37Z</time>
      </trkpt>
      <trkpt lat="42.442027000" lon="-2.444202000">
        <ele>403.00</ele>
        <time>2014-11-01T07:23:38Z</time>
      </trkpt>
      <trkpt lat="42.441989000" lon="-2.444211000">
        <ele>403.10</ele>
        <time>2014-11-01T07:23:39Z</time>
      </trkpt>
      <trkpt lat="42.441952000" lon="-2.444220000">
        <ele>403.30</ele>
        <time>2014-11-01T07:23:40Z</time>
      </trkpt>
      <trkpt lat="42.441914000" lon="-2.444236000">
        <ele>403.40</ele>
        <time>2014-11-01T07:23:41Z</time>
      </trkpt>
      <trkpt lat="42.441877000" lon="-2.444251000">
        <ele>403.50</ele>
        <time>2014-11-01T07:23:42Z</time>
      </trkpt>
      <trkpt lat="42.441839000" lon="-2.444269000">
        <ele>403.60</ele>
        <time>2014-11-01T07:23:43Z</time>
      </trkpt>
      <trkpt lat="42.441800000" lon="-2.444286000">
        <ele>403.70</ele>
        <time>2014-11-01T07:23:44Z</time>
      </trkpt>
      <trkpt lat="42.441763000" lon="-2.444302000">
        <ele>403.70</ele>
        <time>2014-11-01T07:23:45Z</time>
      </trkpt>
      <trkpt lat="42.441726000" lon="-2.444319000">
        <ele>403.50</ele>
        <time>2014-11-01T07:23:46Z</time>
      </trkpt>
      <trkpt lat="42.441690000" lon="-2.444335000">
        <ele>403.40</ele>
        <time>2014-11-01T07:23:47Z</time>
      </trkpt>
      <trkpt lat="42.441653000" lon="-2.444356000">
        <ele>403.30</ele>
        <time>2014-11-01T07:23:48Z</time>
      </trkpt>
      <trkpt lat="42.441618000" lon="-2.444372000">
        <ele>403.30</ele>
        <time>2014-11-01T07:23:49Z</time>
      </trkpt>
      <trkpt lat="42.441583000" lon="-2.444387000">
        <ele>403.50</ele>
        <time>2014-11-01T07:23:50Z</time>
      </trkpt>
      <trkpt lat="42.441546000" lon="-2.444404000">
        <ele>403.60</ele>
        <time>2014-11-01T07:23:51Z</time>
      </trkpt>
      <trkpt lat="42.441510000" lon="-2.444421000">
        <ele>403.80</ele>
        <time>2014-11-01T07:23:52Z</time>
      </trkpt>
      <trkpt lat="42.441475000" lon="-2.444438000">
        <ele>403.80</ele>
        <time>2014-11-01T07:23:53Z</time>
      </trkpt>
      <trkpt lat="42.441441000" lon="-2.444457000">
        <ele>403.80</ele>
        <time>2014-11-01T07:23:54Z</time>
      </trkpt>
      <trkpt lat="42.441403000" lon="-2.444477000">
        <ele>403.80</ele>
        <time>2014-11-01T07:23:55Z</time>
      </trkpt>
      <trkpt lat="42.441366000" lon="-2.444492000">
        <ele>403.80</ele>
        <time>2014-11-01T07:23:56Z</time>
      </trkpt>
      <trkpt lat="42.441331000" lon="-2.444512000">
        <ele>403.80</ele>
        <time>2014-11-01T07:23:57Z</time>
      </trkpt>
      <trkpt lat="42.441292000" lon="-2.444530000">
        <ele>404.00</ele>
        <time>2014-11-01T07:23:58Z</time>
      </trkpt>
      <trkpt lat="42.441252000" lon="-2.444542000">
        <ele>404.20</ele>
        <time>2014-11-01T07:23:59Z</time>
      </trkpt>
      <trkpt lat="42.441212000" lon="-2.444554000">
        <ele>404.30</ele>
        <time>2014-11-01T07:24:00Z</time>
      </trkpt>
      <trkpt lat="42.441170000" lon="-2.444562000">
        <ele>404.40</ele>
        <time>2014-11-01T07:24:01Z</time>
      </trkpt>
      <trkpt lat="42.441128000" lon="-2.444569000">
        <ele>404.40</ele>
        <time>2014-11-01T07:24:02Z</time>
      </trkpt>
      <trkpt lat="42.441085000" lon="-2.444573000">
        <ele>404.40</ele>
        <time>2014-11-01T07:24:03Z</time>
      </trkpt>
      <trkpt lat="42.441044000" lon="-2.444574000">
        <ele>404.40</ele>
        <time>2014-11-01T07:24:04Z</time>
      </trkpt>
      <trkpt lat="42.441003000" lon="-2.444573000">
        <ele>404.40</ele>
        <time>2014-11-01T07:24:05Z</time>
      </trkpt>
      <trkpt lat="42.440962000" lon="-2.444567000">
        <ele>404.40</ele>
        <time>2014-11-01T07:24:06Z</time>
      </trkpt>
      <trkpt lat="42.440921000" lon="-2.444560000">
        <ele>404.40</ele>
        <time>2014-11-01T07:24:07Z</time>
      </trkpt>
      <trkpt lat="42.440879000" lon="-2.444555000">
        <ele>404.60</ele>
        <time>2014-11-01T07:24:08Z</time>
      </trkpt>
      <trkpt lat="42.440838000" lon="-2.444552000">
        <ele>404.80</ele>
        <time>2014-11-01T07:24:09Z</time>
      </trkpt>
      <trkpt lat="42.440798000" lon="-2.444545000">
        <ele>405.00</ele>
        <time>2014-11-01T07:24:10Z</time>
      </trkpt>
      <trkpt lat="42.440717000" lon="-2.444534000">
        <ele>405.10</ele>
        <time>2014-11-01T07:24:12Z</time>
      </trkpt>
      <trkpt lat="42.440677000" lon="-2.444529000">
        <ele>405.10</ele>
        <time>2014-11-01T07:24:13Z</time>
      </trkpt>
      <trkpt lat="42.440638000" lon="-2.444522000">
        <ele>405.00</ele>
        <time>2014-11-01T07:24:14Z</time>
      </trkpt>
      <trkpt lat="42.440602000" lon="-2.444513000">
        <ele>405.00</ele>
        <time>2014-11-01T07:24:15Z</time>
      </trkpt>
      <trkpt lat="42.440567000" lon="-2.444510000">
        <ele>405.00</ele>
        <time>2014-11-01T07:24:16Z</time>
      </trkpt>
      <trkpt lat="42.440532000" lon="-2.444506000">
        <ele>405.00</ele>
        <time>2014-11-01T07:24:17Z</time>
      </trkpt>
      <trkpt lat="42.440496000" lon="-2.444504000">
        <ele>405.10</ele>
        <time>2014-11-01T07:24:18Z</time>
      </trkpt>
      <trkpt lat="42.440461000" lon="-2.444505000">
        <ele>405.10</ele>
        <time>2014-11-01T07:24:19Z</time>
      </trkpt>
      <trkpt lat="42.440424000" lon="-2.444504000">
        <ele>405.40</ele>
        <time>2014-11-01T07:24:20Z</time>
      </trkpt>
      <trkpt lat="42.440389000" lon="-2.444504000">
        <ele>405.50</ele>
        <time>2014-11-01T07:24:21Z</time>
      </trkpt>
      <trkpt lat="42.440355000" lon="-2.444503000">
        <ele>405.70</ele>
        <time>2014-11-01T07:24:22Z</time>
      </trkpt>
      <trkpt lat="42.440320000" lon="-2.444502000">
        <ele>405.80</ele>
        <time>2014-11-01T07:24:23Z</time>
      </trkpt>
      <trkpt lat="42.440284000" lon="-2.444508000">
        <ele>405.70</ele>
        <time>2014-11-01T07:24:24Z</time>
      </trkpt>
      <trkpt lat="42.440245000" lon="-2.444516000">
        <ele>405.70</ele>
        <time>2014-11-01T07:24:25Z</time>
      </trkpt>
      <trkpt lat="42.440207000" lon="-2.444520000">
        <ele>405.60</ele>
        <time>2014-11-01T07:24:26Z</time>
      </trkpt>
      <trkpt lat="42.440168000" lon="-2.444523000">
        <ele>405.60</ele>
        <time>2014-11-01T07:24:27Z</time>
      </trkpt>
      <trkpt lat="42.440132000" lon="-2.444530000">
        <ele>405.60</ele>
        <time>2014-11-01T07:24:28Z</time>
      </trkpt>
      <trkpt lat="42.440093000" lon="-2.444538000">
        <ele>405.60</ele>
        <time>2014-11-01T07:24:29Z</time>
      </trkpt>
      <trkpt lat="42.440055000" lon="-2.444545000">
        <ele>405.80</ele>
        <time>2014-11-01T07:24:30Z</time>
      </trkpt>
      <trkpt lat="42.440017000" lon="-2.444551000">
        <ele>405.90</ele>
        <time>2014-11-01T07:24:31Z</time>
      </trkpt>
      <trkpt lat="42.439979000" lon="-2.444559000">
        <ele>405.90</ele>
        <time>2014-11-01T07:24:32Z</time>
      </trkpt>
      <trkpt lat="42.439941000" lon="-2.444562000">
        <ele>405.90</ele>
        <time>2014-11-01T07:24:33Z</time>
      </trkpt>
      <trkpt lat="42.439903000" lon="-2.444566000">
        <ele>405.90</ele>
        <time>2014-11-01T07:24:34Z</time>
      </trkpt>
      <trkpt lat="42.439868000" lon="-2.444571000">
        <ele>405.80</ele>
        <time>2014-11-01T07:24:35Z</time>
      </trkpt>
      <trkpt lat="42.439832000" lon="-2.444575000">
        <ele>405.80</ele>
        <time>2014-11-01T07:24:36Z</time>
      </trkpt>
      <trkpt lat="42.439797000" lon="-2.444581000">
        <ele>405.80</ele>
        <time>2014-11-01T07:24:37Z</time>
      </trkpt>
      <trkpt lat="42.439759000" lon="-2.444588000">
        <ele>405.80</ele>
        <time>2014-11-01T07:24:38Z</time>
      </trkpt>
      <trkpt lat="42.439720000" lon="-2.444598000">
        <ele>405.70</ele>
        <time>2014-11-01T07:24:39Z</time>
      </trkpt>
      <trkpt lat="42.439682000" lon="-2.444609000">
        <ele>405.90</ele>
        <time>2014-11-01T07:24:40Z</time>
      </trkpt>
      <trkpt lat="42.439645000" lon="-2.444616000">
        <ele>406.10</ele>
        <time>2014-11-01T07:24:41Z</time>
      </trkpt>
      <trkpt lat="42.439607000" lon="-2.444625000">
        <ele>406.20</ele>
        <time>2014-11-01T07:24:42Z</time>
      </trkpt>
      <trkpt lat="42.439570000" lon="-2.444633000">
        <ele>406.20</ele>
        <time>2014-11-01T07:24:43Z</time>
      </trkpt>
      <trkpt lat="42.439535000" lon="-2.444641000">
        <ele>406.30</ele>
        <time>2014-11-01T07:24:44Z</time>
      </trkpt>
      <trkpt lat="42.439496000" lon="-2.444649000">
        <ele>406.40</ele>
        <time>2014-11-01T07:24:45Z</time>
      </trkpt>
      <trkpt lat="42.439457000" lon="-2.444653000">
        <ele>406.70</ele>
        <time>2014-11-01T07:24:46Z</time>
      </trkpt>
      <trkpt lat="42.439417000" lon="-2.444655000">
        <ele>406.90</ele>
        <time>2014-11-01T07:24:47Z</time>
      </trkpt>
      <trkpt lat="42.439377000" lon="-2.444655000">
        <ele>407.10</ele>
        <time>2014-11-01T07:24:48Z</time>
      </trkpt>
      <trkpt lat="42.439335000" lon="-2.444659000">
        <ele>407.20</ele>
        <time>2014-11-01T07:24:49Z</time>
      </trkpt>
      <trkpt lat="42.439295000" lon="-2.444668000">
        <ele>407.30</ele>
        <time>2014-11-01T07:24:50Z</time>
      </trkpt>
      <trkpt lat="42.439255000" lon="-2.444675000">
        <ele>407.30</ele>
        <time>2014-11-01T07:24:51Z</time>
      </trkpt>
      <trkpt lat="42.439214000" lon="-2.444683000">
        <ele>407.30</ele>
        <time>2014-11-01T07:24:52Z</time>
      </trkpt>
      <trkpt lat="42.439176000" lon="-2.444693000">
        <ele>407.30</ele>
        <time>2014-11-01T07:24:53Z</time>
      </trkpt>
      <trkpt lat="42.439135000" lon="-2.444706000">
        <ele>407.20</ele>
        <time>2014-11-01T07:24:54Z</time>
      </trkpt>
      <trkpt lat="42.439095000" lon="-2.444719000">
        <ele>407.10</ele>
        <time>2014-11-01T07:24:55Z</time>
      </trkpt>
      <trkpt lat="42.439056000" lon="-2.444729000">
        <ele>407.00</ele>
        <time>2014-11-01T07:24:56Z</time>
      </trkpt>
      <trkpt lat="42.439018000" lon="-2.444738000">
        <ele>407.00</ele>
        <time>2014-11-01T07:24:57Z</time>
      </trkpt>
      <trkpt lat="42.438980000" lon="-2.444746000">
        <ele>406.90</ele>
        <time>2014-11-01T07:24:58Z</time>
      </trkpt>
      <trkpt lat="42.438943000" lon="-2.444756000">
        <ele>406.80</ele>
        <time>2014-11-01T07:24:59Z</time>
      </trkpt>
      <trkpt lat="42.438906000" lon="-2.444770000">
        <ele>406.90</ele>
        <time>2014-11-01T07:25:00Z</time>
      </trkpt>
      <trkpt lat="42.438868000" lon="-2.444781000">
        <ele>407.10</ele>
        <time>2014-11-01T07:25:01Z</time>
      </trkpt>
      <trkpt lat="42.438830000" lon="-2.444792000">
        <ele>406.90</ele>
        <time>2014-11-01T07:25:02Z</time>
      </trkpt>
      <trkpt lat="42.438794000" lon="-2.444803000">
        <ele>406.80</ele>
        <time>2014-11-01T07:25:03Z</time>
      </trkpt>
      <trkpt lat="42.438757000" lon="-2.444816000">
        <ele>407.10</ele>
        <time>2014-11-01T07:25:04Z</time>
      </trkpt>
      <trkpt lat="42.438723000" lon="-2.444829000">
        <ele>407.30</ele>
        <time>2014-11-01T07:25:05Z</time>
      </trkpt>
      <trkpt lat="42.438686000" lon="-2.444842000">
        <ele>407.50</ele>
        <time>2014-11-01T07:25:06Z</time>
      </trkpt>
      <trkpt lat="42.438652000" lon="-2.444858000">
        <ele>407.70</ele>
        <time>2014-11-01T07:25:07Z</time>
      </trkpt>
      <trkpt lat="42.438614000" lon="-2.444875000">
        <ele>407.80</ele>
        <time>2014-11-01T07:25:08Z</time>
      </trkpt>
      <trkpt lat="42.438575000" lon="-2.444893000">
        <ele>407.90</ele>
        <time>2014-11-01T07:25:09Z</time>
      </trkpt>
      <trkpt lat="42.438535000" lon="-2.444909000">
        <ele>407.90</ele>
        <time>2014-11-01T07:25:10Z</time>
      </trkpt>
      <trkpt lat="42.438484000" lon="-2.444938000">
        <ele>408.00</ele>
        <time>2014-11-01T07:25:11Z</time>
      </trkpt>
      <trkpt lat="42.438439000" lon="-2.444958000">
        <ele>407.90</ele>
        <time>2014-11-01T07:25:12Z</time>
      </trkpt>
      <trkpt lat="42.438345000" lon="-2.445006000">
        <ele>407.90</ele>
        <time>2014-11-01T07:25:14Z</time>
      </trkpt>
      <trkpt lat="42.438300000" lon="-2.445015000">
        <ele>408.00</ele>
        <time>2014-11-01T07:25:15Z</time>
      </trkpt>
      <trkpt lat="42.438259000" lon="-2.445021000">
        <ele>407.90</ele>
        <time>2014-11-01T07:25:16Z</time>
      </trkpt>
      <trkpt lat="42.438217000" lon="-2.445029000">
        <ele>407.80</ele>
        <time>2014-11-01T07:25:17Z</time>
      </trkpt>
      <trkpt lat="42.438175000" lon="-2.445039000">
        <ele>407.80</ele>
        <time>2014-11-01T07:25:18Z</time>
      </trkpt>
      <trkpt lat="42.438135000" lon="-2.445047000">
        <ele>407.70</ele>
        <time>2014-11-01T07:25:19Z</time>
      </trkpt>
      <trkpt lat="42.438096000" lon="-2.445055000">
        <ele>407.70</ele>
        <time>2014-11-01T07:25:20Z</time>
      </trkpt>
      <trkpt lat="42.438057000" lon="-2.445067000">
        <ele>407.70</ele>
        <time>2014-11-01T07:25:21Z</time>
      </trkpt>
      <trkpt lat="42.438018000" lon="-2.445078000">
        <ele>407.80</ele>
        <time>2014-11-01T07:25:22Z</time>
      </trkpt>
      <trkpt lat="42.437979000" lon="-2.445088000">
        <ele>407.90</ele>
        <time>2014-11-01T07:25:23Z</time>
      </trkpt>
      <trkpt lat="42.437944000" lon="-2.445100000">
        <ele>407.90</ele>
        <time>2014-11-01T07:25:24Z</time>
      </trkpt>
      <trkpt lat="42.437907000" lon="-2.445115000">
        <ele>408.00</ele>
        <time>2014-11-01T07:25:25Z</time>
      </trkpt>
      <trkpt lat="42.437872000" lon="-2.445127000">
        <ele>408.00</ele>
        <time>2014-11-01T07:25:26Z</time>
      </trkpt>
      <trkpt lat="42.437833000" lon="-2.445140000">
        <ele>408.00</ele>
        <time>2014-11-01T07:25:27Z</time>
      </trkpt>
      <trkpt lat="42.437798000" lon="-2.445150000">
        <ele>408.10</ele>
        <time>2014-11-01T07:25:28Z</time>
      </trkpt>
      <trkpt lat="42.437764000" lon="-2.445161000">
        <ele>408.10</ele>
        <time>2014-11-01T07:25:29Z</time>
      </trkpt>
      <trkpt lat="42.437728000" lon="-2.445174000">
        <ele>408.30</ele>
        <time>2014-11-01T07:25:30Z</time>
      </trkpt>
      <trkpt lat="42.437692000" lon="-2.445186000">
        <ele>408.40</ele>
        <time>2014-11-01T07:25:31Z</time>
      </trkpt>
      <trkpt lat="42.437656000" lon="-2.445200000">
        <ele>408.60</ele>
        <time>2014-11-01T07:25:32Z</time>
      </trkpt>
      <trkpt lat="42.437620000" lon="-2.445217000">
        <ele>408.60</ele>
        <time>2014-11-01T07:25:33Z</time>
      </trkpt>
      <trkpt lat="42.437584000" lon="-2.445232000">
        <ele>408.60</ele>
        <time>2014-11-01T07:25:34Z</time>
      </trkpt>
      <trkpt lat="42.437546000" lon="-2.445247000">
        <ele>408.60</ele>
        <time>2014-11-01T07:25:35Z</time>
      </trkpt>
      <trkpt lat="42.437510000" lon="-2.445261000">
        <ele>408.60</ele>
        <time>2014-11-01T07:25:36Z</time>
      </trkpt>
      <trkpt lat="42.437473000" lon="-2.445278000">
        <ele>408.60</ele>
        <time>2014-11-01T07:25:37Z</time>
      </trkpt>
      <trkpt lat="42.437435000" lon="-2.445295000">
        <ele>408.80</ele>
        <time>2014-11-01T07:25:38Z</time>
      </trkpt>
      <trkpt lat="42.437397000" lon="-2.445311000">
        <ele>408.90</ele>
        <time>2014-11-01T07:25:39Z</time>
      </trkpt>
      <trkpt lat="42.437358000" lon="-2.445325000">
        <ele>409.20</ele>
        <time>2014-11-01T07:25:40Z</time>
      </trkpt>
      <trkpt lat="42.437319000" lon="-2.445341000">
        <ele>409.30</ele>
        <time>2014-11-01T07:25:41Z</time>
      </trkpt>
      <trkpt lat="42.437283000" lon="-2.445359000">
        <ele>409.30</ele>
        <time>2014-11-01T07:25:42Z</time>
      </trkpt>
      <trkpt lat="42.437244000" lon="-2.445377000">
        <ele>409.30</ele>
        <time>2014-11-01T07:25:43Z</time>
      </trkpt>
      <trkpt lat="42.437206000" lon="-2.445389000">
        <ele>409.30</ele>
        <time>2014-11-01T07:25:44Z</time>
      </trkpt>
      <trkpt lat="42.437168000" lon="-2.445400000">
        <ele>409.30</ele>
        <time>2014-11-01T07:25:45Z</time>
      </trkpt>
      <trkpt lat="42.437130000" lon="-2.445415000">
        <ele>409.30</ele>
        <time>2014-11-01T07:25:46Z</time>
      </trkpt>
      <trkpt lat="42.437091000" lon="-2.445431000">
        <ele>409.30</ele>
        <time>2014-11-01T07:25:47Z</time>
      </trkpt>
      <trkpt lat="42.437052000" lon="-2.445450000">
        <ele>409.50</ele>
        <time>2014-11-01T07:25:48Z</time>
      </trkpt>
      <trkpt lat="42.437013000" lon="-2.445469000">
        <ele>409.70</ele>
        <time>2014-11-01T07:25:49Z</time>
      </trkpt>
      <trkpt lat="42.436975000" lon="-2.445487000">
        <ele>409.80</ele>
        <time>2014-11-01T07:25:50Z</time>
      </trkpt>
      <trkpt lat="42.436937000" lon="-2.445506000">
        <ele>409.90</ele>
        <time>2014-11-01T07:25:51Z</time>
      </trkpt>
      <trkpt lat="42.436900000" lon="-2.445522000">
        <ele>409.90</ele>
        <time>2014-11-01T07:25:52Z</time>
      </trkpt>
      <trkpt lat="42.436863000" lon="-2.445536000">
        <ele>410.00</ele>
        <time>2014-11-01T07:25:53Z</time>
      </trkpt>
      <trkpt lat="42.436827000" lon="-2.445556000">
        <ele>410.10</ele>
        <time>2014-11-01T07:25:54Z</time>
      </trkpt>
      <trkpt lat="42.436791000" lon="-2.445575000">
        <ele>410.10</ele>
        <time>2014-11-01T07:25:55Z</time>
      </trkpt>
      <trkpt lat="42.436756000" lon="-2.445593000">
        <ele>410.20</ele>
        <time>2014-11-01T07:25:56Z</time>
      </trkpt>
      <trkpt lat="42.436723000" lon="-2.445605000">
        <ele>410.20</ele>
        <time>2014-11-01T07:25:57Z</time>
      </trkpt>
      <trkpt lat="42.436686000" lon="-2.445604000">
        <ele>410.20</ele>
        <time>2014-11-01T07:25:58Z</time>
      </trkpt>
      <trkpt lat="42.436652000" lon="-2.445591000">
        <ele>410.20</ele>
        <time>2014-11-01T07:25:59Z</time>
      </trkpt>
      <trkpt lat="42.436620000" lon="-2.445562000">
        <ele>410.20</ele>
        <time>2014-11-01T07:26:00Z</time>
      </trkpt>
      <trkpt lat="42.436593000" lon="-2.445522000">
        <ele>410.10</ele>
        <time>2014-11-01T07:26:01Z</time>
      </trkpt>
      <trkpt lat="42.436567000" lon="-2.445480000">
        <ele>410.10</ele>
        <time>2014-11-01T07:26:02Z</time>
      </trkpt>
      <trkpt lat="42.436538000" lon="-2.445441000">
        <ele>410.10</ele>
        <time>2014-11-01T07:26:03Z</time>
      </trkpt>
      <trkpt lat="42.436511000" lon="-2.445398000">
        <ele>410.10</ele>
        <time>2014-11-01T07:26:04Z</time>
      </trkpt>
      <trkpt lat="42.436483000" lon="-2.445358000">
        <ele>410.10</ele>
        <time>2014-11-01T07:26:05Z</time>
      </trkpt>
      <trkpt lat="42.436453000" lon="-2.445316000">
        <ele>410.10</ele>
        <time>2014-11-01T07:26:06Z</time>
      </trkpt>
      <trkpt lat="42.436420000" lon="-2.445274000">
        <ele>410.10</ele>
        <time>2014-11-01T07:26:07Z</time>
      </trkpt>
      <trkpt lat="42.436388000" lon="-2.445233000">
        <ele>410.30</ele>
        <time>2014-11-01T07:26:08Z</time>
      </trkpt>
      <trkpt lat="42.436357000" lon="-2.445192000">
        <ele>410.40</ele>
        <time>2014-11-01T07:26:09Z</time>
      </trkpt>
      <trkpt lat="42.436326000" lon="-2.445152000">
        <ele>410.60</ele>
        <time>2014-11-01T07:26:10Z</time>
      </trkpt>
      <trkpt lat="42.436296000" lon="-2.445113000">
        <ele>410.70</ele>
        <time>2014-11-01T07:26:11Z</time>
      </trkpt>
      <trkpt lat="42.436265000" lon="-2.445075000">
        <ele>410.80</ele>
        <time>2014-11-01T07:26:12Z</time>
      </trkpt>
      <trkpt lat="42.436234000" lon="-2.445038000">
        <ele>410.80</ele>
        <time>2014-11-01T07:26:13Z</time>
      </trkpt>
      <trkpt lat="42.436204000" lon="-2.445000000">
        <ele>410.70</ele>
        <time>2014-11-01T07:26:14Z</time>
      </trkpt>
      <trkpt lat="42.436143000" lon="-2.444926000">
        <ele>410.50</ele>
        <time>2014-11-01T07:26:16Z</time>
      </trkpt>
      <trkpt lat="42.436112000" lon="-2.444890000">
        <ele>410.40</ele>
        <time>2014-11-01T07:26:17Z</time>
      </trkpt>
      <trkpt lat="42.436082000" lon="-2.444857000">
        <ele>410.50</ele>
        <time>2014-11-01T07:26:18Z</time>
      </trkpt>
      <trkpt lat="42.436051000" lon="-2.444826000">
        <ele>410.60</ele>
        <time>2014-11-01T07:26:19Z</time>
      </trkpt>
      <trkpt lat="42.436019000" lon="-2.444793000">
        <ele>410.60</ele>
        <time>2014-11-01T07:26:20Z</time>
      </trkpt>
      <trkpt lat="42.435986000" lon="-2.444762000">
        <ele>410.70</ele>
        <time>2014-11-01T07:26:21Z</time>
      </trkpt>
      <trkpt lat="42.435954000" lon="-2.444732000">
        <ele>410.60</ele>
        <time>2014-11-01T07:26:22Z</time>
      </trkpt>
      <trkpt lat="42.435920000" lon="-2.444705000">
        <ele>410.50</ele>
        <time>2014-11-01T07:26:23Z</time>
      </trkpt>
      <trkpt lat="42.435888000" lon="-2.444676000">
        <ele>410.40</ele>
        <time>2014-11-01T07:26:24Z</time>
      </trkpt>
      <trkpt lat="42.435855000" lon="-2.444646000">
        <ele>410.40</ele>
        <time>2014-11-01T07:26:25Z</time>
      </trkpt>
      <trkpt lat="42.435822000" lon="-2.444618000">
        <ele>410.60</ele>
        <time>2014-11-01T07:26:26Z</time>
      </trkpt>
      <trkpt lat="42.435790000" lon="-2.444587000">
        <ele>410.70</ele>
        <time>2014-11-01T07:26:27Z</time>
      </trkpt>
      <trkpt lat="42.435759000" lon="-2.444554000">
        <ele>410.80</ele>
        <time>2014-11-01T07:26:28Z</time>
      </trkpt>
      <trkpt lat="42.435728000" lon="-2.444521000">
        <ele>410.80</ele>
        <time>2014-11-01T07:26:29Z</time>
      </trkpt>
      <trkpt lat="42.435694000" lon="-2.444489000">
        <ele>410.90</ele>
        <time>2014-11-01T07:26:30Z</time>
      </trkpt>
      <trkpt lat="42.435661000" lon="-2.444459000">
        <ele>410.90</ele>
        <time>2014-11-01T07:26:31Z</time>
      </trkpt>
      <trkpt lat="42.435622000" lon="-2.444433000">
        <ele>410.90</ele>
        <time>2014-11-01T07:26:32Z</time>
      </trkpt>
      <trkpt lat="42.435582000" lon="-2.444411000">
        <ele>410.90</ele>
        <time>2014-11-01T07:26:33Z</time>
      </trkpt>
      <trkpt lat="42.435541000" lon="-2.444395000">
        <ele>410.80</ele>
        <time>2014-11-01T07:26:34Z</time>
      </trkpt>
      <trkpt lat="42.435499000" lon="-2.444383000">
        <ele>410.80</ele>
        <time>2014-11-01T07:26:35Z</time>
      </trkpt>
      <trkpt lat="42.435456000" lon="-2.444375000">
        <ele>410.90</ele>
        <time>2014-11-01T07:26:36Z</time>
      </trkpt>
      <trkpt lat="42.435414000" lon="-2.444369000">
        <ele>410.90</ele>
        <time>2014-11-01T07:26:37Z</time>
      </trkpt>
      <trkpt lat="42.435371000" lon="-2.444361000">
        <ele>411.00</ele>
        <time>2014-11-01T07:26:38Z</time>
      </trkpt>
      <trkpt lat="42.435329000" lon="-2.444357000">
        <ele>411.00</ele>
        <time>2014-11-01T07:26:39Z</time>
      </trkpt>
      <trkpt lat="42.435288000" lon="-2.444352000">
        <ele>411.10</ele>
        <time>2014-11-01T07:26:40Z</time>
      </trkpt>
      <trkpt lat="42.435244000" lon="-2.444343000">
        <ele>411.20</ele>
        <time>2014-11-01T07:26:41Z</time>
      </trkpt>
      <trkpt lat="42.435203000" lon="-2.444329000">
        <ele>411.10</ele>
        <time>2014-11-01T07:26:42Z</time>
      </trkpt>
      <trkpt lat="42.435162000" lon="-2.444312000">
        <ele>411.00</ele>
        <time>2014-11-01T07:26:43Z</time>
      </trkpt>
      <trkpt lat="42.435123000" lon="-2.444292000">
        <ele>411.20</ele>
        <time>2014-11-01T07:26:44Z</time>
      </trkpt>
      <trkpt lat="42.435085000" lon="-2.444270000">
        <ele>411.30</ele>
        <time>2014-11-01T07:26:45Z</time>
      </trkpt>
      <trkpt lat="42.435048000" lon="-2.444248000">
        <ele>411.50</ele>
        <time>2014-11-01T07:26:46Z</time>
      </trkpt>
      <trkpt lat="42.435011000" lon="-2.444220000">
        <ele>411.60</ele>
        <time>2014-11-01T07:26:47Z</time>
      </trkpt>
      <trkpt lat="42.434974000" lon="-2.444195000">
        <ele>411.70</ele>
        <time>2014-11-01T07:26:48Z</time>
      </trkpt>
      <trkpt lat="42.434938000" lon="-2.444172000">
        <ele>411.80</ele>
        <time>2014-11-01T07:26:49Z</time>
      </trkpt>
      <trkpt lat="42.434903000" lon="-2.444149000">
        <ele>411.90</ele>
        <time>2014-11-01T07:26:50Z</time>
      </trkpt>
      <trkpt lat="42.434869000" lon="-2.444124000">
        <ele>411.90</ele>
        <time>2014-11-01T07:26:51Z</time>
      </trkpt>
      <trkpt lat="42.434837000" lon="-2.444094000">
        <ele>411.90</ele>
        <time>2014-11-01T07:26:52Z</time>
      </trkpt>
      <trkpt lat="42.434805000" lon="-2.444060000">
        <ele>411.90</ele>
        <time>2014-11-01T07:26:53Z</time>
      </trkpt>
      <trkpt lat="42.434774000" lon="-2.444029000">
        <ele>411.80</ele>
        <time>2014-11-01T07:26:54Z</time>
      </trkpt>
      <trkpt lat="42.434744000" lon="-2.443998000">
        <ele>411.70</ele>
        <time>2014-11-01T07:26:55Z</time>
      </trkpt>
      <trkpt lat="42.434716000" lon="-2.443968000">
        <ele>411.70</ele>
        <time>2014-11-01T07:26:56Z</time>
      </trkpt>
      <trkpt lat="42.434686000" lon="-2.443936000">
        <ele>411.70</ele>
        <time>2014-11-01T07:26:57Z</time>
      </trkpt>
      <trkpt lat="42.434655000" lon="-2.443905000">
        <ele>411.80</ele>
        <time>2014-11-01T07:26:58Z</time>
      </trkpt>
      <trkpt lat="42.434625000" lon="-2.443873000">
        <ele>411.80</ele>
        <time>2014-11-01T07:26:59Z</time>
      </trkpt>
      <trkpt lat="42.434595000" lon="-2.443840000">
        <ele>411.90</ele>
        <time>2014-11-01T07:27:00Z</time>
      </trkpt>
      <trkpt lat="42.434565000" lon="-2.443805000">
        <ele>412.00</ele>
        <time>2014-11-01T07:27:01Z</time>
      </trkpt>
      <trkpt lat="42.434538000" lon="-2.443768000">
        <ele>412.20</ele>
        <time>2014-11-01T07:27:02Z</time>
      </trkpt>
      <trkpt lat="42.434515000" lon="-2.443728000">
        <ele>412.30</ele>
        <time>2014-11-01T07:27:03Z</time>
      </trkpt>
      <trkpt lat="42.434498000" lon="-2.443681000">
        <ele>412.40</ele>
        <time>2014-11-01T07:27:04Z</time>
      </trkpt>
      <trkpt lat="42.434481000" lon="-2.443632000">
        <ele>412.50</ele>
        <time>2014-11-01T07:27:05Z</time>
      </trkpt>
      <trkpt lat="42.434469000" lon="-2.443582000">
        <ele>412.60</ele>
        <time>2014-11-01T07:27:06Z</time>
      </trkpt>
      <trkpt lat="42.434465000" lon="-2.443531000">
        <ele>412.70</ele>
        <time>2014-11-01T07:27:07Z</time>
      </trkpt>
      <trkpt lat="42.434463000" lon="-2.443472000">
        <ele>412.80</ele>
        <time>2014-11-01T07:27:08Z</time>
      </trkpt>
      <trkpt lat="42.434461000" lon="-2.443419000">
        <ele>412.90</ele>
        <time>2014-11-01T07:27:09Z</time>
      </trkpt>
      <trkpt lat="42.434458000" lon="-2.443366000">
        <ele>412.80</ele>
        <time>2014-11-01T07:27:10Z</time>
      </trkpt>
      <trkpt lat="42.434453000" lon="-2.443313000">
        <ele>412.80</ele>
        <time>2014-11-01T07:27:11Z</time>
      </trkpt>
      <trkpt lat="42.434446000" lon="-2.443260000">
        <ele>412.80</ele>
        <time>2014-11-01T07:27:12Z</time>
      </trkpt>
      <trkpt lat="42.434434000" lon="-2.443209000">
        <ele>412.80</ele>
        <time>2014-11-01T07:27:13Z</time>
      </trkpt>
      <trkpt lat="42.434416000" lon="-2.443164000">
        <ele>412.80</ele>
        <time>2014-11-01T07:27:14Z</time>
      </trkpt>
      <trkpt lat="42.434396000" lon="-2.443119000">
        <ele>412.90</ele>
        <time>2014-11-01T07:27:15Z</time>
      </trkpt>
      <trkpt lat="42.434369000" lon="-2.443080000">
        <ele>413.10</ele>
        <time>2014-11-01T07:27:16Z</time>
      </trkpt>
      <trkpt lat="42.434308000" lon="-2.443017000">
        <ele>413.50</ele>
        <time>2014-11-01T07:27:18Z</time>
      </trkpt>
      <trkpt lat="42.434274000" lon="-2.442993000">
        <ele>413.70</ele>
        <time>2014-11-01T07:27:19Z</time>
      </trkpt>
      <trkpt lat="42.434238000" lon="-2.442976000">
        <ele>414.10</ele>
        <time>2014-11-01T07:27:20Z</time>
      </trkpt>
      <trkpt lat="42.434206000" lon="-2.442956000">
        <ele>414.40</ele>
        <time>2014-11-01T07:27:21Z</time>
      </trkpt>
      <trkpt lat="42.434173000" lon="-2.442938000">
        <ele>414.70</ele>
        <time>2014-11-01T07:27:22Z</time>
      </trkpt>
      <trkpt lat="42.434139000" lon="-2.442924000">
        <ele>414.80</ele>
        <time>2014-11-01T07:27:23Z</time>
      </trkpt>
      <trkpt lat="42.434104000" lon="-2.442913000">
        <ele>415.10</ele>
        <time>2014-11-01T07:27:24Z</time>
      </trkpt>
      <trkpt lat="42.434068000" lon="-2.442903000">
        <ele>415.40</ele>
        <time>2014-11-01T07:27:25Z</time>
      </trkpt>
      <trkpt lat="42.434033000" lon="-2.442896000">
        <ele>415.70</ele>
        <time>2014-11-01T07:27:26Z</time>
      </trkpt>
      <trkpt lat="42.433997000" lon="-2.442890000">
        <ele>415.90</ele>
        <time>2014-11-01T07:27:27Z</time>
      </trkpt>
      <trkpt lat="42.433958000" lon="-2.442881000">
        <ele>416.30</ele>
        <time>2014-11-01T07:27:28Z</time>
      </trkpt>
      <trkpt lat="42.433919000" lon="-2.442872000">
        <ele>416.60</ele>
        <time>2014-11-01T07:27:29Z</time>
      </trkpt>
      <trkpt lat="42.433882000" lon="-2.442867000">
        <ele>416.60</ele>
        <time>2014-11-01T07:27:30Z</time>
      </trkpt>
      <trkpt lat="42.433844000" lon="-2.442862000">
        <ele>416.70</ele>
        <time>2014-11-01T07:27:31Z</time>
      </trkpt>
      <trkpt lat="42.433805000" lon="-2.442857000">
        <ele>416.70</ele>
        <time>2014-11-01T07:27:32Z</time>
      </trkpt>
      <trkpt lat="42.433765000" lon="-2.442850000">
        <ele>416.80</ele>
        <time>2014-11-01T07:27:33Z</time>
      </trkpt>
      <trkpt lat="42.433726000" lon="-2.442844000">
        <ele>416.80</ele>
        <time>2014-11-01T07:27:34Z</time>
      </trkpt>
      <trkpt lat="42.433689000" lon="-2.442838000">
        <ele>416.80</ele>
        <time>2014-11-01T07:27:35Z</time>
      </trkpt>
      <trkpt lat="42.433651000" lon="-2.442831000">
        <ele>416.80</ele>
        <time>2014-11-01T07:27:36Z</time>
      </trkpt>
      <trkpt lat="42.433613000" lon="-2.442822000">
        <ele>416.80</ele>
        <time>2014-11-01T07:27:37Z</time>
      </trkpt>
      <trkpt lat="42.433571000" lon="-2.442814000">
        <ele>417.00</ele>
        <time>2014-11-01T07:27:38Z</time>
      </trkpt>
      <trkpt lat="42.433529000" lon="-2.442806000">
        <ele>417.10</ele>
        <time>2014-11-01T07:27:39Z</time>
      </trkpt>
      <trkpt lat="42.433486000" lon="-2.442797000">
        <ele>417.20</ele>
        <time>2014-11-01T07:27:40Z</time>
      </trkpt>
      <trkpt lat="42.433441000" lon="-2.442797000">
        <ele>417.20</ele>
        <time>2014-11-01T07:27:41Z</time>
      </trkpt>
      <trkpt lat="42.433394000" lon="-2.442803000">
        <ele>417.30</ele>
        <time>2014-11-01T07:27:42Z</time>
      </trkpt>
      <trkpt lat="42.433347000" lon="-2.442817000">
        <ele>417.30</ele>
        <time>2014-11-01T07:27:43Z</time>
      </trkpt>
      <trkpt lat="42.433294000" lon="-2.442838000">
        <ele>417.20</ele>
        <time>2014-11-01T07:27:44Z</time>
      </trkpt>
      <trkpt lat="42.433242000" lon="-2.442872000">
        <ele>417.10</ele>
        <time>2014-11-01T07:27:45Z</time>
      </trkpt>
      <trkpt lat="42.433192000" lon="-2.442916000">
        <ele>416.90</ele>
        <time>2014-11-01T07:27:46Z</time>
      </trkpt>
      <trkpt lat="42.433143000" lon="-2.442968000">
        <ele>416.80</ele>
        <time>2014-11-01T07:27:47Z</time>
      </trkpt>
      <trkpt lat="42.433094000" lon="-2.443021000">
        <ele>416.40</ele>
        <time>2014-11-01T07:27:48Z</time>
      </trkpt>
      <trkpt lat="42.433043000" lon="-2.443066000">
        <ele>416.10</ele>
        <time>2014-11-01T07:27:49Z</time>
      </trkpt>
      <trkpt lat="42.432988000" lon="-2.443104000">
        <ele>415.70</ele>
        <time>2014-11-01T07:27:50Z</time>
      </trkpt>
      <trkpt lat="42.432929000" lon="-2.443130000">
        <ele>415.30</ele>
        <time>2014-11-01T07:27:51Z</time>
      </trkpt>
      <trkpt lat="42.432873000" lon="-2.443145000">
        <ele>415.00</ele>
        <time>2014-11-01T07:27:52Z</time>
      </trkpt>
      <trkpt lat="42.432818000" lon="-2.443154000">
        <ele>414.80</ele>
        <time>2014-11-01T07:27:53Z</time>
      </trkpt>
      <trkpt lat="42.432764000" lon="-2.443155000">
        <ele>414.60</ele>
        <time>2014-11-01T07:27:54Z</time>
      </trkpt>
      <trkpt lat="42.432715000" lon="-2.443149000">
        <ele>414.50</ele>
        <time>2014-11-01T07:27:55Z</time>
      </trkpt>
      <trkpt lat="42.432666000" lon="-2.443139000">
        <ele>414.40</ele>
        <time>2014-11-01T07:27:56Z</time>
      </trkpt>
      <trkpt lat="42.432620000" lon="-2.443124000">
        <ele>414.40</ele>
        <time>2014-11-01T07:27:57Z</time>
      </trkpt>
      <trkpt lat="42.432573000" lon="-2.443110000">
        <ele>414.40</ele>
        <time>2014-11-01T07:27:58Z</time>
      </trkpt>
      <trkpt lat="42.432528000" lon="-2.443091000">
        <ele>414.30</ele>
        <time>2014-11-01T07:27:59Z</time>
      </trkpt>
      <trkpt lat="42.432483000" lon="-2.443070000">
        <ele>414.30</ele>
        <time>2014-11-01T07:28:00Z</time>
      </trkpt>
      <trkpt lat="42.432441000" lon="-2.443050000">
        <ele>414.30</ele>
        <time>2014-11-01T07:28:01Z</time>
      </trkpt>
      <trkpt lat="42.432398000" lon="-2.443030000">
        <ele>414.30</ele>
        <time>2014-11-01T07:28:02Z</time>
      </trkpt>
      <trkpt lat="42.432355000" lon="-2.443010000">
        <ele>414.20</ele>
        <time>2014-11-01T07:28:03Z</time>
      </trkpt>
      <trkpt lat="42.432314000" lon="-2.442988000">
        <ele>414.20</ele>
        <time>2014-11-01T07:28:04Z</time>
      </trkpt>
      <trkpt lat="42.432274000" lon="-2.442965000">
        <ele>414.10</ele>
        <time>2014-11-01T07:28:05Z</time>
      </trkpt>
      <trkpt lat="42.432235000" lon="-2.442940000">
        <ele>414.10</ele>
        <time>2014-11-01T07:28:06Z</time>
      </trkpt>
      <trkpt lat="42.432195000" lon="-2.442916000">
        <ele>414.10</ele>
        <time>2014-11-01T07:28:07Z</time>
      </trkpt>
      <trkpt lat="42.432155000" lon="-2.442892000">
        <ele>414.10</ele>
        <time>2014-11-01T07:28:08Z</time>
      </trkpt>
      <trkpt lat="42.432115000" lon="-2.442866000">
        <ele>414.20</ele>
        <time>2014-11-01T07:28:09Z</time>
      </trkpt>
      <trkpt lat="42.432076000" lon="-2.442840000">
        <ele>414.30</ele>
        <time>2014-11-01T07:28:10Z</time>
      </trkpt>
      <trkpt lat="42.432036000" lon="-2.442813000">
        <ele>414.50</ele>
        <time>2014-11-01T07:28:11Z</time>
      </trkpt>
      <trkpt lat="42.431994000" lon="-2.442787000">
        <ele>414.40</ele>
        <time>2014-11-01T07:28:12Z</time>
      </trkpt>
      <trkpt lat="42.431954000" lon="-2.442762000">
        <ele>414.40</ele>
        <time>2014-11-01T07:28:13Z</time>
      </trkpt>
      <trkpt lat="42.431913000" lon="-2.442737000">
        <ele>414.50</ele>
        <time>2014-11-01T07:28:14Z</time>
      </trkpt>
      <trkpt lat="42.431873000" lon="-2.442713000">
        <ele>414.60</ele>
        <time>2014-11-01T07:28:15Z</time>
      </trkpt>
      <trkpt lat="42.431832000" lon="-2.442689000">
        <ele>414.60</ele>
        <time>2014-11-01T07:28:16Z</time>
      </trkpt>
      <trkpt lat="42.431791000" lon="-2.442666000">
        <ele>414.70</ele>
        <time>2014-11-01T07:28:17Z</time>
      </trkpt>
      <trkpt lat="42.431749000" lon="-2.442644000">
        <ele>415.00</ele>
        <time>2014-11-01T07:28:18Z</time>
      </trkpt>
      <trkpt lat="42.431662000" lon="-2.442609000">
        <ele>415.40</ele>
        <time>2014-11-01T07:28:20Z</time>
      </trkpt>
      <trkpt lat="42.431620000" lon="-2.442588000">
        <ele>415.50</ele>
        <time>2014-11-01T07:28:21Z</time>
      </trkpt>
      <trkpt lat="42.431578000" lon="-2.442568000">
        <ele>415.20</ele>
        <time>2014-11-01T07:28:22Z</time>
      </trkpt>
      <trkpt lat="42.431537000" lon="-2.442546000">
        <ele>415.00</ele>
        <time>2014-11-01T07:28:23Z</time>
      </trkpt>
      <trkpt lat="42.431494000" lon="-2.442523000">
        <ele>414.80</ele>
        <time>2014-11-01T07:28:24Z</time>
      </trkpt>
      <trkpt lat="42.431453000" lon="-2.442500000">
        <ele>414.70</ele>
        <time>2014-11-01T07:28:25Z</time>
      </trkpt>
      <trkpt lat="42.431411000" lon="-2.442476000">
        <ele>414.80</ele>
        <time>2014-11-01T07:28:26Z</time>
      </trkpt>
      <trkpt lat="42.431370000" lon="-2.442449000">
        <ele>415.00</ele>
        <time>2014-11-01T07:28:27Z</time>
      </trkpt>
      <trkpt lat="42.431330000" lon="-2.442423000">
        <ele>415.10</ele>
        <time>2014-11-01T07:28:28Z</time>
      </trkpt>
      <trkpt lat="42.431293000" lon="-2.442392000">
        <ele>415.20</ele>
        <time>2014-11-01T07:28:29Z</time>
      </trkpt>
      <trkpt lat="42.431259000" lon="-2.442358000">
        <ele>415.40</ele>
        <time>2014-11-01T07:28:30Z</time>
      </trkpt>
      <trkpt lat="42.431226000" lon="-2.442325000">
        <ele>415.50</ele>
        <time>2014-11-01T07:28:31Z</time>
      </trkpt>
      <trkpt lat="42.431194000" lon="-2.442289000">
        <ele>415.60</ele>
        <time>2014-11-01T07:28:32Z</time>
      </trkpt>
      <trkpt lat="42.431163000" lon="-2.442249000">
        <ele>415.60</ele>
        <time>2014-11-01T07:28:33Z</time>
      </trkpt>
      <trkpt lat="42.431134000" lon="-2.442207000">
        <ele>415.60</ele>
        <time>2014-11-01T07:28:34Z</time>
      </trkpt>
      <trkpt lat="42.431105000" lon="-2.442167000">
        <ele>415.60</ele>
        <time>2014-11-01T07:28:35Z</time>
      </trkpt>
      <trkpt lat="42.431073000" lon="-2.442132000">
        <ele>415.60</ele>
        <time>2014-11-01T07:28:36Z</time>
      </trkpt>
      <trkpt lat="42.431040000" lon="-2.442104000">
        <ele>415.60</ele>
        <time>2014-11-01T07:28:37Z</time>
      </trkpt>
      <trkpt lat="42.431004000" lon="-2.442074000">
        <ele>415.70</ele>
        <time>2014-11-01T07:28:38Z</time>
      </trkpt>
      <trkpt lat="42.430967000" lon="-2.442049000">
        <ele>415.80</ele>
        <time>2014-11-01T07:28:39Z</time>
      </trkpt>
      <trkpt lat="42.430930000" lon="-2.442023000">
        <ele>415.90</ele>
        <time>2014-11-01T07:28:40Z</time>
      </trkpt>
      <trkpt lat="42.430890000" lon="-2.441997000">
        <ele>415.90</ele>
        <time>2014-11-01T07:28:41Z</time>
      </trkpt>
      <trkpt lat="42.430852000" lon="-2.441973000">
        <ele>415.90</ele>
        <time>2014-11-01T07:28:42Z</time>
      </trkpt>
      <trkpt lat="42.430813000" lon="-2.441952000">
        <ele>415.90</ele>
        <time>2014-11-01T07:28:43Z</time>
      </trkpt>
      <trkpt lat="42.430772000" lon="-2.441932000">
        <ele>415.90</ele>
        <time>2014-11-01T07:28:44Z</time>
      </trkpt>
      <trkpt lat="42.430734000" lon="-2.441909000">
        <ele>415.90</ele>
        <time>2014-11-01T07:28:45Z</time>
      </trkpt>
      <trkpt lat="42.430697000" lon="-2.441890000">
        <ele>415.90</ele>
        <time>2014-11-01T07:28:46Z</time>
      </trkpt>
      <trkpt lat="42.430658000" lon="-2.441870000">
        <ele>415.90</ele>
        <time>2014-11-01T07:28:47Z</time>
      </trkpt>
      <trkpt lat="42.430619000" lon="-2.441848000">
        <ele>415.90</ele>
        <time>2014-11-01T07:28:48Z</time>
      </trkpt>
      <trkpt lat="42.430583000" lon="-2.441823000">
        <ele>416.00</ele>
        <time>2014-11-01T07:28:49Z</time>
      </trkpt>
      <trkpt lat="42.430546000" lon="-2.441805000">
        <ele>415.90</ele>
        <time>2014-11-01T07:28:50Z</time>
      </trkpt>
      <trkpt lat="42.430510000" lon="-2.441784000">
        <ele>415.90</ele>
        <time>2014-11-01T07:28:51Z</time>
      </trkpt>
      <trkpt lat="42.430476000" lon="-2.441762000">
        <ele>416.00</ele>
        <time>2014-11-01T07:28:52Z</time>
      </trkpt>
      <trkpt lat="42.430439000" lon="-2.441740000">
        <ele>416.10</ele>
        <time>2014-11-01T07:28:53Z</time>
      </trkpt>
      <trkpt lat="42.430404000" lon="-2.441715000">
        <ele>416.00</ele>
        <time>2014-11-01T07:28:54Z</time>
      </trkpt>
      <trkpt lat="42.430369000" lon="-2.441689000">
        <ele>416.00</ele>
        <time>2014-11-01T07:28:55Z</time>
      </trkpt>
      <trkpt lat="42.430336000" lon="-2.441662000">
        <ele>415.90</ele>
        <time>2014-11-01T07:28:56Z</time>
      </trkpt>
      <trkpt lat="42.430304000" lon="-2.441639000">
        <ele>415.90</ele>
        <time>2014-11-01T07:28:57Z</time>
      </trkpt>
      <trkpt lat="42.430274000" lon="-2.441614000">
        <ele>415.90</ele>
        <time>2014-11-01T07:28:58Z</time>
      </trkpt>
      <trkpt lat="42.430242000" lon="-2.441584000">
        <ele>415.90</ele>
        <time>2014-11-01T07:28:59Z</time>
      </trkpt>
      <trkpt lat="42.430211000" lon="-2.441559000">
        <ele>415.90</ele>
        <time>2014-11-01T07:29:00Z</time>
      </trkpt>
      <trkpt lat="42.430179000" lon="-2.441539000">
        <ele>415.90</ele>
        <time>2014-11-01T07:29:01Z</time>
      </trkpt>
      <trkpt lat="42.430147000" lon="-2.441519000">
        <ele>416.00</ele>
        <time>2014-11-01T07:29:02Z</time>
      </trkpt>
      <trkpt lat="42.430113000" lon="-2.441498000">
        <ele>416.00</ele>
        <time>2014-11-01T07:29:03Z</time>
      </trkpt>
      <trkpt lat="42.430077000" lon="-2.441482000">
        <ele>416.10</ele>
        <time>2014-11-01T07:29:04Z</time>
      </trkpt>
      <trkpt lat="42.430042000" lon="-2.441466000">
        <ele>416.10</ele>
        <time>2014-11-01T07:29:05Z</time>
      </trkpt>
      <trkpt lat="42.430008000" lon="-2.441448000">
        <ele>416.10</ele>
        <time>2014-11-01T07:29:06Z</time>
      </trkpt>
      <trkpt lat="42.429972000" lon="-2.441432000">
        <ele>416.10</ele>
        <time>2014-11-01T07:29:07Z</time>
      </trkpt>
      <trkpt lat="42.429937000" lon="-2.441417000">
        <ele>416.10</ele>
        <time>2014-11-01T07:29:08Z</time>
      </trkpt>
      <trkpt lat="42.429903000" lon="-2.441403000">
        <ele>416.10</ele>
        <time>2014-11-01T07:29:09Z</time>
      </trkpt>
      <trkpt lat="42.429868000" lon="-2.441385000">
        <ele>416.30</ele>
        <time>2014-11-01T07:29:10Z</time>
      </trkpt>
      <trkpt lat="42.429837000" lon="-2.441367000">
        <ele>416.40</ele>
        <time>2014-11-01T07:29:11Z</time>
      </trkpt>
      <trkpt lat="42.429804000" lon="-2.441347000">
        <ele>416.50</ele>
        <time>2014-11-01T07:29:12Z</time>
      </trkpt>
      <trkpt lat="42.429770000" lon="-2.441327000">
        <ele>416.60</ele>
        <time>2014-11-01T07:29:13Z</time>
      </trkpt>
      <trkpt lat="42.429738000" lon="-2.441311000">
        <ele>416.60</ele>
        <time>2014-11-01T07:29:14Z</time>
      </trkpt>
      <trkpt lat="42.429704000" lon="-2.441299000">
        <ele>416.70</ele>
        <time>2014-11-01T07:29:15Z</time>
      </trkpt>
      <trkpt lat="42.429669000" lon="-2.441284000">
        <ele>416.60</ele>
        <time>2014-11-01T07:29:16Z</time>
      </trkpt>
      <trkpt lat="42.429633000" lon="-2.441273000">
        <ele>416.60</ele>
        <time>2014-11-01T07:29:17Z</time>
      </trkpt>
      <trkpt lat="42.429596000" lon="-2.441259000">
        <ele>416.60</ele>
        <time>2014-11-01T07:29:18Z</time>
      </trkpt>
      <trkpt lat="42.429558000" lon="-2.441243000">
        <ele>416.70</ele>
        <time>2014-11-01T07:29:19Z</time>
      </trkpt>
      <trkpt lat="42.429520000" lon="-2.441226000">
        <ele>416.70</ele>
        <time>2014-11-01T07:29:20Z</time>
      </trkpt>
      <trkpt lat="42.429446000" lon="-2.441193000">
        <ele>416.80</ele>
        <time>2014-11-01T07:29:22Z</time>
      </trkpt>
      <trkpt lat="42.429408000" lon="-2.441181000">
        <ele>416.90</ele>
        <time>2014-11-01T07:29:23Z</time>
      </trkpt>
      <trkpt lat="42.429371000" lon="-2.441168000">
        <ele>416.90</ele>
        <time>2014-11-01T07:29:24Z</time>
      </trkpt>
      <trkpt lat="42.429332000" lon="-2.441157000">
        <ele>416.90</ele>
        <time>2014-11-01T07:29:25Z</time>
      </trkpt>
      <trkpt lat="42.429295000" lon="-2.441149000">
        <ele>417.00</ele>
        <time>2014-11-01T07:29:26Z</time>
      </trkpt>
      <trkpt lat="42.429257000" lon="-2.441141000">
        <ele>417.10</ele>
        <time>2014-11-01T07:29:27Z</time>
      </trkpt>
      <trkpt lat="42.429221000" lon="-2.441134000">
        <ele>417.20</ele>
        <time>2014-11-01T07:29:28Z</time>
      </trkpt>
      <trkpt lat="42.429184000" lon="-2.441130000">
        <ele>417.30</ele>
        <time>2014-11-01T07:29:29Z</time>
      </trkpt>
      <trkpt lat="42.429149000" lon="-2.441129000">
        <ele>417.40</ele>
        <time>2014-11-01T07:29:30Z</time>
      </trkpt>
      <trkpt lat="42.429113000" lon="-2.441128000">
        <ele>417.40</ele>
        <time>2014-11-01T07:29:31Z</time>
      </trkpt>
      <trkpt lat="42.429076000" lon="-2.441128000">
        <ele>417.40</ele>
        <time>2014-11-01T07:29:32Z</time>
      </trkpt>
      <trkpt lat="42.429041000" lon="-2.441129000">
        <ele>417.40</ele>
        <time>2014-11-01T07:29:33Z</time>
      </trkpt>
      <trkpt lat="42.429005000" lon="-2.441126000">
        <ele>417.30</ele>
        <time>2014-11-01T07:29:34Z</time>
      </trkpt>
      <trkpt lat="42.428968000" lon="-2.441122000">
        <ele>417.30</ele>
        <time>2014-11-01T07:29:35Z</time>
      </trkpt>
      <trkpt lat="42.428931000" lon="-2.441117000">
        <ele>417.40</ele>
        <time>2014-11-01T07:29:36Z</time>
      </trkpt>
      <trkpt lat="42.428894000" lon="-2.441112000">
        <ele>417.40</ele>
        <time>2014-11-01T07:29:37Z</time>
      </trkpt>
      <trkpt lat="42.428858000" lon="-2.441100000">
        <ele>417.50</ele>
        <time>2014-11-01T07:29:38Z</time>
      </trkpt>
      <trkpt lat="42.428825000" lon="-2.441084000">
        <ele>417.50</ele>
        <time>2014-11-01T07:29:39Z</time>
      </trkpt>
      <trkpt lat="42.428791000" lon="-2.441064000">
        <ele>417.50</ele>
        <time>2014-11-01T07:29:40Z</time>
      </trkpt>
      <trkpt lat="42.428758000" lon="-2.441043000">
        <ele>417.50</ele>
        <time>2014-11-01T07:29:41Z</time>
      </trkpt>
      <trkpt lat="42.428725000" lon="-2.441020000">
        <ele>417.50</ele>
        <time>2014-11-01T07:29:42Z</time>
      </trkpt>
      <trkpt lat="42.428694000" lon="-2.440996000">
        <ele>417.50</ele>
        <time>2014-11-01T07:29:43Z</time>
      </trkpt>
      <trkpt lat="42.428663000" lon="-2.440973000">
        <ele>417.50</ele>
        <time>2014-11-01T07:29:44Z</time>
      </trkpt>
      <trkpt lat="42.428630000" lon="-2.440949000">
        <ele>417.50</ele>
        <time>2014-11-01T07:29:45Z</time>
      </trkpt>
      <trkpt lat="42.428600000" lon="-2.440926000">
        <ele>417.60</ele>
        <time>2014-11-01T07:29:46Z</time>
      </trkpt>
      <trkpt lat="42.428565000" lon="-2.440903000">
        <ele>417.70</ele>
        <time>2014-11-01T07:29:47Z</time>
      </trkpt>
      <trkpt lat="42.428531000" lon="-2.440885000">
        <ele>417.60</ele>
        <time>2014-11-01T07:29:48Z</time>
      </trkpt>
      <trkpt lat="42.428498000" lon="-2.440864000">
        <ele>417.50</ele>
        <time>2014-11-01T07:29:49Z</time>
      </trkpt>
      <trkpt lat="42.428467000" lon="-2.440844000">
        <ele>417.60</ele>
        <time>2014-11-01T07:29:50Z</time>
      </trkpt>
      <trkpt lat="42.428435000" lon="-2.440823000">
        <ele>417.60</ele>
        <time>2014-11-01T07:29:51Z</time>
      </trkpt>
      <trkpt lat="42.428405000" lon="-2.440805000">
        <ele>417.80</ele>
        <time>2014-11-01T07:29:52Z</time>
      </trkpt>
      <trkpt lat="42.428375000" lon="-2.440788000">
        <ele>417.90</ele>
        <time>2014-11-01T07:29:53Z</time>
      </trkpt>
      <trkpt lat="42.428344000" lon="-2.440772000">
        <ele>418.10</ele>
        <time>2014-11-01T07:29:54Z</time>
      </trkpt>
      <trkpt lat="42.428314000" lon="-2.440756000">
        <ele>418.20</ele>
        <time>2014-11-01T07:29:55Z</time>
      </trkpt>
      <trkpt lat="42.428281000" lon="-2.440741000">
        <ele>418.50</ele>
        <time>2014-11-01T07:29:56Z</time>
      </trkpt>
      <trkpt lat="42.428249000" lon="-2.440724000">
        <ele>418.70</ele>
        <time>2014-11-01T07:29:57Z</time>
      </trkpt>
      <trkpt lat="42.428215000" lon="-2.440704000">
        <ele>418.90</ele>
        <time>2014-11-01T07:29:58Z</time>
      </trkpt>
      <trkpt lat="42.428184000" lon="-2.440684000">
        <ele>419.00</ele>
        <time>2014-11-01T07:29:59Z</time>
      </trkpt>
      <trkpt lat="42.428152000" lon="-2.440664000">
        <ele>419.10</ele>
        <time>2014-11-01T07:30:00Z</time>
      </trkpt>
      <trkpt lat="42.428120000" lon="-2.440648000">
        <ele>419.20</ele>
        <time>2014-11-01T07:30:01Z</time>
      </trkpt>
      <trkpt lat="42.428087000" lon="-2.440630000">
        <ele>419.40</ele>
        <time>2014-11-01T07:30:02Z</time>
      </trkpt>
      <trkpt lat="42.428055000" lon="-2.440614000">
        <ele>419.60</ele>
        <time>2014-11-01T07:30:03Z</time>
      </trkpt>
      <trkpt lat="42.428023000" lon="-2.440597000">
        <ele>419.70</ele>
        <time>2014-11-01T07:30:04Z</time>
      </trkpt>
      <trkpt lat="42.427990000" lon="-2.440583000">
        <ele>419.80</ele>
        <time>2014-11-01T07:30:05Z</time>
      </trkpt>
      <trkpt lat="42.427958000" lon="-2.440570000">
        <ele>419.90</ele>
        <time>2014-11-01T07:30:06Z</time>
      </trkpt>
      <trkpt lat="42.427925000" lon="-2.440557000">
        <ele>420.00</ele>
        <time>2014-11-01T07:30:07Z</time>
      </trkpt>
      <trkpt lat="42.427891000" lon="-2.440549000">
        <ele>420.10</ele>
        <time>2014-11-01T07:30:08Z</time>
      </trkpt>
      <trkpt lat="42.427857000" lon="-2.440548000">
        <ele>420.30</ele>
        <time>2014-11-01T07:30:09Z</time>
      </trkpt>
      <trkpt lat="42.427824000" lon="-2.440548000">
        <ele>420.40</ele>
        <time>2014-11-01T07:30:10Z</time>
      </trkpt>
      <trkpt lat="42.427792000" lon="-2.440550000">
        <ele>420.40</ele>
        <time>2014-11-01T07:30:11Z</time>
      </trkpt>
      <trkpt lat="42.427758000" lon="-2.440556000">
        <ele>420.50</ele>
        <time>2014-11-01T07:30:12Z</time>
      </trkpt>
      <trkpt lat="42.427723000" lon="-2.440563000">
        <ele>420.50</ele>
        <time>2014-11-01T07:30:13Z</time>
      </trkpt>
      <trkpt lat="42.427690000" lon="-2.440567000">
        <ele>420.60</ele>
        <time>2014-11-01T07:30:14Z</time>
      </trkpt>
      <trkpt lat="42.427656000" lon="-2.440569000">
        <ele>420.70</ele>
        <time>2014-11-01T07:30:15Z</time>
      </trkpt>
      <trkpt lat="42.427624000" lon="-2.440566000">
        <ele>420.80</ele>
        <time>2014-11-01T07:30:16Z</time>
      </trkpt>
      <trkpt lat="42.427591000" lon="-2.440563000">
        <ele>420.90</ele>
        <time>2014-11-01T07:30:17Z</time>
      </trkpt>
      <trkpt lat="42.427556000" lon="-2.440554000">
        <ele>421.00</ele>
        <time>2014-11-01T07:30:18Z</time>
      </trkpt>
      <trkpt lat="42.427522000" lon="-2.440544000">
        <ele>421.00</ele>
        <time>2014-11-01T07:30:19Z</time>
      </trkpt>
      <trkpt lat="42.427489000" lon="-2.440532000">
        <ele>421.10</ele>
        <time>2014-11-01T07:30:20Z</time>
      </trkpt>
      <trkpt lat="42.427457000" lon="-2.440516000">
        <ele>421.20</ele>
        <time>2014-11-01T07:30:21Z</time>
      </trkpt>
      <trkpt lat="42.427424000" lon="-2.440503000">
        <ele>421.20</ele>
        <time>2014-11-01T07:30:22Z</time>
      </trkpt>
      <trkpt lat="42.427359000" lon="-2.440473000">
        <ele>421.30</ele>
        <time>2014-11-01T07:30:24Z</time>
      </trkpt>
      <trkpt lat="42.427326000" lon="-2.440456000">
        <ele>421.30</ele>
        <time>2014-11-01T07:30:25Z</time>
      </trkpt>
      <trkpt lat="42.427293000" lon="-2.440443000">
        <ele>421.40</ele>
        <time>2014-11-01T07:30:26Z</time>
      </trkpt>
      <trkpt lat="42.427259000" lon="-2.440428000">
        <ele>421.50</ele>
        <time>2014-11-01T07:30:27Z</time>
      </trkpt>
      <trkpt lat="42.427227000" lon="-2.440413000">
        <ele>421.50</ele>
        <time>2014-11-01T07:30:28Z</time>
      </trkpt>
      <trkpt lat="42.427193000" lon="-2.440400000">
        <ele>421.50</ele>
        <time>2014-11-01T07:30:29Z</time>
      </trkpt>
      <trkpt lat="42.427161000" lon="-2.440384000">
        <ele>421.50</ele>
        <time>2014-11-01T07:30:30Z</time>
      </trkpt>
      <trkpt lat="42.427130000" lon="-2.440366000">
        <ele>421.50</ele>
        <time>2014-11-01T07:30:31Z</time>
      </trkpt>
      <trkpt lat="42.427100000" lon="-2.440347000">
        <ele>421.60</ele>
        <time>2014-11-01T07:30:32Z</time>
      </trkpt>
      <trkpt lat="42.427070000" lon="-2.440325000">
        <ele>421.60</ele>
        <time>2014-11-01T07:30:33Z</time>
      </trkpt>
      <trkpt lat="42.427039000" lon="-2.440307000">
        <ele>421.60</ele>
        <time>2014-11-01T07:30:34Z</time>
      </trkpt>
      <trkpt lat="42.427008000" lon="-2.440287000">
        <ele>421.60</ele>
        <time>2014-11-01T07:30:35Z</time>
      </trkpt>
      <trkpt lat="42.426976000" lon="-2.440270000">
        <ele>421.70</ele>
        <time>2014-11-01T07:30:36Z</time>
      </trkpt>
      <trkpt lat="42.426943000" lon="-2.440250000">
        <ele>421.80</ele>
        <time>2014-11-01T07:30:37Z</time>
      </trkpt>
      <trkpt lat="42.426909000" lon="-2.440233000">
        <ele>421.80</ele>
        <time>2014-11-01T07:30:38Z</time>
      </trkpt>
      <trkpt lat="42.426879000" lon="-2.440210000">
        <ele>421.70</ele>
        <time>2014-11-01T07:30:39Z</time>
      </trkpt>
      <trkpt lat="42.426850000" lon="-2.440190000">
        <ele>421.70</ele>
        <time>2014-11-01T07:30:40Z</time>
      </trkpt>
      <trkpt lat="42.426819000" lon="-2.440166000">
        <ele>421.70</ele>
        <time>2014-11-01T07:30:41Z</time>
      </trkpt>
      <trkpt lat="42.426789000" lon="-2.440145000">
        <ele>421.60</ele>
        <time>2014-11-01T07:30:42Z</time>
      </trkpt>
      <trkpt lat="42.426760000" lon="-2.440122000">
        <ele>421.60</ele>
        <time>2014-11-01T07:30:43Z</time>
      </trkpt>
      <trkpt lat="42.426728000" lon="-2.440104000">
        <ele>421.80</ele>
        <time>2014-11-01T07:30:44Z</time>
      </trkpt>
      <trkpt lat="42.426694000" lon="-2.440092000">
        <ele>421.90</ele>
        <time>2014-11-01T07:30:45Z</time>
      </trkpt>
      <trkpt lat="42.426660000" lon="-2.440091000">
        <ele>422.10</ele>
        <time>2014-11-01T07:30:46Z</time>
      </trkpt>
      <trkpt lat="42.426627000" lon="-2.440096000">
        <ele>422.10</ele>
        <time>2014-11-01T07:30:47Z</time>
      </trkpt>
      <trkpt lat="42.426595000" lon="-2.440106000">
        <ele>422.20</ele>
        <time>2014-11-01T07:30:48Z</time>
      </trkpt>
      <trkpt lat="42.426564000" lon="-2.440117000">
        <ele>422.20</ele>
        <time>2014-11-01T07:30:49Z</time>
      </trkpt>
      <trkpt lat="42.426530000" lon="-2.440125000">
        <ele>422.30</ele>
        <time>2014-11-01T07:30:50Z</time>
      </trkpt>
      <trkpt lat="42.426499000" lon="-2.440135000">
        <ele>422.30</ele>
        <time>2014-11-01T07:30:51Z</time>
      </trkpt>
      <trkpt lat="42.426463000" lon="-2.440139000">
        <ele>422.40</ele>
        <time>2014-11-01T07:30:52Z</time>
      </trkpt>
      <trkpt lat="42.426430000" lon="-2.440143000">
        <ele>422.40</ele>
        <time>2014-11-01T07:30:53Z</time>
      </trkpt>
      <trkpt lat="42.426394000" lon="-2.440144000">
        <ele>422.50</ele>
        <time>2014-11-01T07:30:54Z</time>
      </trkpt>
      <trkpt lat="42.426357000" lon="-2.440140000">
        <ele>422.50</ele>
        <time>2014-11-01T07:30:55Z</time>
      </trkpt>
      <trkpt lat="42.426323000" lon="-2.440136000">
        <ele>422.50</ele>
        <time>2014-11-01T07:30:56Z</time>
      </trkpt>
      <trkpt lat="42.426289000" lon="-2.440132000">
        <ele>422.60</ele>
        <time>2014-11-01T07:30:57Z</time>
      </trkpt>
      <trkpt lat="42.426253000" lon="-2.440126000">
        <ele>422.40</ele>
        <time>2014-11-01T07:30:58Z</time>
      </trkpt>
      <trkpt lat="42.426219000" lon="-2.440119000">
        <ele>422.20</ele>
        <time>2014-11-01T07:30:59Z</time>
      </trkpt>
      <trkpt lat="42.426185000" lon="-2.440117000">
        <ele>422.10</ele>
        <time>2014-11-01T07:31:00Z</time>
      </trkpt>
      <trkpt lat="42.426149000" lon="-2.440115000">
        <ele>422.10</ele>
        <time>2014-11-01T07:31:01Z</time>
      </trkpt>
      <trkpt lat="42.426114000" lon="-2.440115000">
        <ele>422.00</ele>
        <time>2014-11-01T07:31:02Z</time>
      </trkpt>
      <trkpt lat="42.426079000" lon="-2.440117000">
        <ele>422.00</ele>
        <time>2014-11-01T07:31:03Z</time>
      </trkpt>
      <trkpt lat="42.426045000" lon="-2.440120000">
        <ele>422.10</ele>
        <time>2014-11-01T07:31:04Z</time>
      </trkpt>
      <trkpt lat="42.426008000" lon="-2.440122000">
        <ele>422.30</ele>
        <time>2014-11-01T07:31:05Z</time>
      </trkpt>
      <trkpt lat="42.425970000" lon="-2.440123000">
        <ele>422.00</ele>
        <time>2014-11-01T07:31:06Z</time>
      </trkpt>
      <trkpt lat="42.425932000" lon="-2.440122000">
        <ele>421.90</ele>
        <time>2014-11-01T07:31:07Z</time>
      </trkpt>
      <trkpt lat="42.425896000" lon="-2.440121000">
        <ele>422.00</ele>
        <time>2014-11-01T07:31:08Z</time>
      </trkpt>
      <trkpt lat="42.425860000" lon="-2.440115000">
        <ele>422.20</ele>
        <time>2014-11-01T07:31:09Z</time>
      </trkpt>
      <trkpt lat="42.425826000" lon="-2.440109000">
        <ele>422.10</ele>
        <time>2014-11-01T07:31:10Z</time>
      </trkpt>
      <trkpt lat="42.425790000" lon="-2.440103000">
        <ele>422.00</ele>
        <time>2014-11-01T07:31:11Z</time>
      </trkpt>
      <trkpt lat="42.425754000" lon="-2.440092000">
        <ele>422.10</ele>
        <time>2014-11-01T07:31:12Z</time>
      </trkpt>
      <trkpt lat="42.425716000" lon="-2.440077000">
        <ele>422.10</ele>
        <time>2014-11-01T07:31:13Z</time>
      </trkpt>
      <trkpt lat="42.425680000" lon="-2.440060000">
        <ele>422.10</ele>
        <time>2014-11-01T07:31:14Z</time>
      </trkpt>
      <trkpt lat="42.425645000" lon="-2.440043000">
        <ele>422.10</ele>
        <time>2014-11-01T07:31:15Z</time>
      </trkpt>
      <trkpt lat="42.425611000" lon="-2.440025000">
        <ele>422.20</ele>
        <time>2014-11-01T07:31:16Z</time>
      </trkpt>
      <trkpt lat="42.425578000" lon="-2.440004000">
        <ele>422.30</ele>
        <time>2014-11-01T07:31:17Z</time>
      </trkpt>
      <trkpt lat="42.425545000" lon="-2.439983000">
        <ele>422.40</ele>
        <time>2014-11-01T07:31:18Z</time>
      </trkpt>
      <trkpt lat="42.425512000" lon="-2.439960000">
        <ele>422.40</ele>
        <time>2014-11-01T07:31:19Z</time>
      </trkpt>
      <trkpt lat="42.425479000" lon="-2.439935000">
        <ele>422.50</ele>
        <time>2014-11-01T07:31:20Z</time>
      </trkpt>
      <trkpt lat="42.425446000" lon="-2.439910000">
        <ele>422.50</ele>
        <time>2014-11-01T07:31:21Z</time>
      </trkpt>
      <trkpt lat="42.425412000" lon="-2.439886000">
        <ele>422.50</ele>
        <time>2014-11-01T07:31:22Z</time>
      </trkpt>
      <trkpt lat="42.425379000" lon="-2.439861000">
        <ele>422.50</ele>
        <time>2014-11-01T07:31:23Z</time>
      </trkpt>
      <trkpt lat="42.425351000" lon="-2.439838000">
        <ele>422.60</ele>
        <time>2014-11-01T07:31:24Z</time>
      </trkpt>
      <trkpt lat="42.425291000" lon="-2.439795000">
        <ele>422.70</ele>
        <time>2014-11-01T07:31:26Z</time>
      </trkpt>
      <trkpt lat="42.425261000" lon="-2.439776000">
        <ele>422.70</ele>
        <time>2014-11-01T07:31:27Z</time>
      </trkpt>
      <trkpt lat="42.425232000" lon="-2.439758000">
        <ele>422.80</ele>
        <time>2014-11-01T07:31:28Z</time>
      </trkpt>
      <trkpt lat="42.425201000" lon="-2.439744000">
        <ele>422.90</ele>
        <time>2014-11-01T07:31:29Z</time>
      </trkpt>
      <trkpt lat="42.425170000" lon="-2.439733000">
        <ele>423.00</ele>
        <time>2014-11-01T07:31:30Z</time>
      </trkpt>
      <trkpt lat="42.425138000" lon="-2.439717000">
        <ele>423.00</ele>
        <time>2014-11-01T07:31:31Z</time>
      </trkpt>
      <trkpt lat="42.425103000" lon="-2.439706000">
        <ele>423.20</ele>
        <time>2014-11-01T07:31:32Z</time>
      </trkpt>
      <trkpt lat="42.425072000" lon="-2.439701000">
        <ele>423.30</ele>
        <time>2014-11-01T07:31:33Z</time>
      </trkpt>
      <trkpt lat="42.425038000" lon="-2.439700000">
        <ele>423.30</ele>
        <time>2014-11-01T07:31:34Z</time>
      </trkpt>
      <trkpt lat="42.425004000" lon="-2.439700000">
        <ele>423.20</ele>
        <time>2014-11-01T07:31:35Z</time>
      </trkpt>
      <trkpt lat="42.424967000" lon="-2.439699000">
        <ele>423.30</ele>
        <time>2014-11-01T07:31:36Z</time>
      </trkpt>
      <trkpt lat="42.424932000" lon="-2.439694000">
        <ele>423.40</ele>
        <time>2014-11-01T07:31:37Z</time>
      </trkpt>
      <trkpt lat="42.424895000" lon="-2.439687000">
        <ele>423.30</ele>
        <time>2014-11-01T07:31:38Z</time>
      </trkpt>
      <trkpt lat="42.424858000" lon="-2.439677000">
        <ele>423.30</ele>
        <time>2014-11-01T07:31:39Z</time>
      </trkpt>
      <trkpt lat="42.424823000" lon="-2.439661000">
        <ele>423.20</ele>
        <time>2014-11-01T07:31:40Z</time>
      </trkpt>
      <trkpt lat="42.424790000" lon="-2.439640000">
        <ele>423.20</ele>
        <time>2014-11-01T07:31:41Z</time>
      </trkpt>
      <trkpt lat="42.424757000" lon="-2.439618000">
        <ele>423.20</ele>
        <time>2014-11-01T07:31:42Z</time>
      </trkpt>
      <trkpt lat="42.424723000" lon="-2.439594000">
        <ele>423.20</ele>
        <time>2014-11-01T07:31:43Z</time>
      </trkpt>
      <trkpt lat="42.424692000" lon="-2.439568000">
        <ele>423.20</ele>
        <time>2014-11-01T07:31:44Z</time>
      </trkpt>
      <trkpt lat="42.424663000" lon="-2.439541000">
        <ele>423.30</ele>
        <time>2014-11-01T07:31:45Z</time>
      </trkpt>
      <trkpt lat="42.424635000" lon="-2.439510000">
        <ele>423.40</ele>
        <time>2014-11-01T07:31:46Z</time>
      </trkpt>
      <trkpt lat="42.424606000" lon="-2.439480000">
        <ele>423.40</ele>
        <time>2014-11-01T07:31:47Z</time>
      </trkpt>
      <trkpt lat="42.424576000" lon="-2.439455000">
        <ele>423.50</ele>
        <time>2014-11-01T07:31:48Z</time>
      </trkpt>
      <trkpt lat="42.424545000" lon="-2.439425000">
        <ele>423.50</ele>
        <time>2014-11-01T07:31:49Z</time>
      </trkpt>
      <trkpt lat="42.424515000" lon="-2.439396000">
        <ele>423.70</ele>
        <time>2014-11-01T07:31:50Z</time>
      </trkpt>
      <trkpt lat="42.424485000" lon="-2.439365000">
        <ele>423.90</ele>
        <time>2014-11-01T07:31:51Z</time>
      </trkpt>
      <trkpt lat="42.424457000" lon="-2.439334000">
        <ele>424.00</ele>
        <time>2014-11-01T07:31:52Z</time>
      </trkpt>
      <trkpt lat="42.424426000" lon="-2.439306000">
        <ele>424.10</ele>
        <time>2014-11-01T07:31:53Z</time>
      </trkpt>
      <trkpt lat="42.424395000" lon="-2.439277000">
        <ele>424.10</ele>
        <time>2014-11-01T07:31:54Z</time>
      </trkpt>
      <trkpt lat="42.424364000" lon="-2.439248000">
        <ele>424.20</ele>
        <time>2014-11-01T07:31:55Z</time>
      </trkpt>
      <trkpt lat="42.424335000" lon="-2.439219000">
        <ele>424.10</ele>
        <time>2014-11-01T07:31:56Z</time>
      </trkpt>
      <trkpt lat="42.424304000" lon="-2.439192000">
        <ele>424.10</ele>
        <time>2014-11-01T07:31:57Z</time>
      </trkpt>
      <trkpt lat="42.424272000" lon="-2.439168000">
        <ele>424.00</ele>
        <time>2014-11-01T07:31:58Z</time>
      </trkpt>
      <trkpt lat="42.424238000" lon="-2.439144000">
        <ele>423.90</ele>
        <time>2014-11-01T07:31:59Z</time>
      </trkpt>
      <trkpt lat="42.424204000" lon="-2.439120000">
        <ele>423.90</ele>
        <time>2014-11-01T07:32:00Z</time>
      </trkpt>
      <trkpt lat="42.424168000" lon="-2.439098000">
        <ele>423.90</ele>
        <time>2014-11-01T07:32:01Z</time>
      </trkpt>
      <trkpt lat="42.424133000" lon="-2.439077000">
        <ele>423.90</ele>
        <time>2014-11-01T07:32:02Z</time>
      </trkpt>
      <trkpt lat="42.424098000" lon="-2.439056000">
        <ele>423.90</ele>
        <time>2014-11-01T07:32:03Z</time>
      </trkpt>
      <trkpt lat="42.424064000" lon="-2.439042000">
        <ele>424.00</ele>
        <time>2014-11-01T07:32:04Z</time>
      </trkpt>
      <trkpt lat="42.424030000" lon="-2.439028000">
        <ele>424.00</ele>
        <time>2014-11-01T07:32:05Z</time>
      </trkpt>
      <trkpt lat="42.423994000" lon="-2.439015000">
        <ele>424.00</ele>
        <time>2014-11-01T07:32:06Z</time>
      </trkpt>
      <trkpt lat="42.423957000" lon="-2.439002000">
        <ele>424.00</ele>
        <time>2014-11-01T07:32:07Z</time>
      </trkpt>
      <trkpt lat="42.423920000" lon="-2.438990000">
        <ele>424.00</ele>
        <time>2014-11-01T07:32:08Z</time>
      </trkpt>
      <trkpt lat="42.423882000" lon="-2.438982000">
        <ele>424.00</ele>
        <time>2014-11-01T07:32:09Z</time>
      </trkpt>
      <trkpt lat="42.423845000" lon="-2.438972000">
        <ele>424.00</ele>
        <time>2014-11-01T07:32:10Z</time>
      </trkpt>
      <trkpt lat="42.423805000" lon="-2.438964000">
        <ele>424.00</ele>
        <time>2014-11-01T07:32:11Z</time>
      </trkpt>
      <trkpt lat="42.423770000" lon="-2.438954000">
        <ele>424.10</ele>
        <time>2014-11-01T07:32:12Z</time>
      </trkpt>
      <trkpt lat="42.423730000" lon="-2.438941000">
        <ele>424.20</ele>
        <time>2014-11-01T07:32:13Z</time>
      </trkpt>
      <trkpt lat="42.423690000" lon="-2.438932000">
        <ele>424.20</ele>
        <time>2014-11-01T07:32:14Z</time>
      </trkpt>
      <trkpt lat="42.423653000" lon="-2.438922000">
        <ele>424.20</ele>
        <time>2014-11-01T07:32:15Z</time>
      </trkpt>
      <trkpt lat="42.423615000" lon="-2.438912000">
        <ele>424.30</ele>
        <time>2014-11-01T07:32:16Z</time>
      </trkpt>
      <trkpt lat="42.423577000" lon="-2.438902000">
        <ele>424.30</ele>
        <time>2014-11-01T07:32:17Z</time>
      </trkpt>
      <trkpt lat="42.423541000" lon="-2.438892000">
        <ele>424.30</ele>
        <time>2014-11-01T07:32:18Z</time>
      </trkpt>
      <trkpt lat="42.423504000" lon="-2.438882000">
        <ele>424.40</ele>
        <time>2014-11-01T07:32:19Z</time>
      </trkpt>
      <trkpt lat="42.423470000" lon="-2.438869000">
        <ele>424.50</ele>
        <time>2014-11-01T07:32:20Z</time>
      </trkpt>
      <trkpt lat="42.423439000" lon="-2.438859000">
        <ele>424.50</ele>
        <time>2014-11-01T07:32:21Z</time>
      </trkpt>
      <trkpt lat="42.423404000" lon="-2.438854000">
        <ele>424.80</ele>
        <time>2014-11-01T07:32:22Z</time>
      </trkpt>
      <trkpt lat="42.423371000" lon="-2.438848000">
        <ele>425.00</ele>
        <time>2014-11-01T07:32:23Z</time>
      </trkpt>
      <trkpt lat="42.423339000" lon="-2.438843000">
        <ele>425.10</ele>
        <time>2014-11-01T07:32:24Z</time>
      </trkpt>
      <trkpt lat="42.423308000" lon="-2.438835000">
        <ele>425.20</ele>
        <time>2014-11-01T07:32:25Z</time>
      </trkpt>
      <trkpt lat="42.423276000" lon="-2.438827000">
        <ele>425.30</ele>
        <time>2014-11-01T07:32:26Z</time>
      </trkpt>
      <trkpt lat="42.423210000" lon="-2.438822000">
        <ele>425.30</ele>
        <time>2014-11-01T07:32:28Z</time>
      </trkpt>
      <trkpt lat="42.423177000" lon="-2.438820000">
        <ele>425.20</ele>
        <time>2014-11-01T07:32:29Z</time>
      </trkpt>
      <trkpt lat="42.423142000" lon="-2.438815000">
        <ele>425.20</ele>
        <time>2014-11-01T07:32:30Z</time>
      </trkpt>
      <trkpt lat="42.423109000" lon="-2.438814000">
        <ele>425.10</ele>
        <time>2014-11-01T07:32:31Z</time>
      </trkpt>
      <trkpt lat="42.423078000" lon="-2.438811000">
        <ele>425.10</ele>
        <time>2014-11-01T07:32:32Z</time>
      </trkpt>
      <trkpt lat="42.423044000" lon="-2.438813000">
        <ele>425.10</ele>
        <time>2014-11-01T07:32:33Z</time>
      </trkpt>
      <trkpt lat="42.423012000" lon="-2.438814000">
        <ele>425.10</ele>
        <time>2014-11-01T07:32:34Z</time>
      </trkpt>
      <trkpt lat="42.422978000" lon="-2.438813000">
        <ele>425.10</ele>
        <time>2014-11-01T07:32:35Z</time>
      </trkpt>
      <trkpt lat="42.422943000" lon="-2.438815000">
        <ele>425.00</ele>
        <time>2014-11-01T07:32:36Z</time>
      </trkpt>
      <trkpt lat="42.422912000" lon="-2.438818000">
        <ele>425.00</ele>
        <time>2014-11-01T07:32:37Z</time>
      </trkpt>
      <trkpt lat="42.422880000" lon="-2.438822000">
        <ele>425.20</ele>
        <time>2014-11-01T07:32:38Z</time>
      </trkpt>
      <trkpt lat="42.422847000" lon="-2.438828000">
        <ele>425.40</ele>
        <time>2014-11-01T07:32:39Z</time>
      </trkpt>
      <trkpt lat="42.422815000" lon="-2.438836000">
        <ele>425.50</ele>
        <time>2014-11-01T07:32:40Z</time>
      </trkpt>
      <trkpt lat="42.422783000" lon="-2.438843000">
        <ele>425.60</ele>
        <time>2014-11-01T07:32:41Z</time>
      </trkpt>
      <trkpt lat="42.422749000" lon="-2.438850000">
        <ele>425.50</ele>
        <time>2014-11-01T07:32:42Z</time>
      </trkpt>
      <trkpt lat="42.422714000" lon="-2.438862000">
        <ele>425.40</ele>
        <time>2014-11-01T07:32:43Z</time>
      </trkpt>
      <trkpt lat="42.422679000" lon="-2.438869000">
        <ele>425.40</ele>
        <time>2014-11-01T07:32:44Z</time>
      </trkpt>
      <trkpt lat="42.422646000" lon="-2.438877000">
        <ele>425.40</ele>
        <time>2014-11-01T07:32:45Z</time>
      </trkpt>
      <trkpt lat="42.422611000" lon="-2.438887000">
        <ele>425.40</ele>
        <time>2014-11-01T07:32:46Z</time>
      </trkpt>
      <trkpt lat="42.422576000" lon="-2.438897000">
        <ele>425.40</ele>
        <time>2014-11-01T07:32:47Z</time>
      </trkpt>
      <trkpt lat="42.422541000" lon="-2.438908000">
        <ele>425.50</ele>
        <time>2014-11-01T07:32:48Z</time>
      </trkpt>
      <trkpt lat="42.422506000" lon="-2.438916000">
        <ele>425.50</ele>
        <time>2014-11-01T07:32:49Z</time>
      </trkpt>
      <trkpt lat="42.422469000" lon="-2.438924000">
        <ele>425.50</ele>
        <time>2014-11-01T07:32:50Z</time>
      </trkpt>
      <trkpt lat="42.422434000" lon="-2.438938000">
        <ele>425.50</ele>
        <time>2014-11-01T07:32:51Z</time>
      </trkpt>
      <trkpt lat="42.422396000" lon="-2.438948000">
        <ele>425.50</ele>
        <time>2014-11-01T07:32:52Z</time>
      </trkpt>
      <trkpt lat="42.422361000" lon="-2.438954000">
        <ele>425.50</ele>
        <time>2014-11-01T07:32:53Z</time>
      </trkpt>
      <trkpt lat="42.422322000" lon="-2.438961000">
        <ele>425.30</ele>
        <time>2014-11-01T07:32:54Z</time>
      </trkpt>
      <trkpt lat="42.422285000" lon="-2.438970000">
        <ele>425.20</ele>
        <time>2014-11-01T07:32:55Z</time>
      </trkpt>
      <trkpt lat="42.422247000" lon="-2.438984000">
        <ele>425.30</ele>
        <time>2014-11-01T07:32:56Z</time>
      </trkpt>
      <trkpt lat="42.422209000" lon="-2.439000000">
        <ele>425.30</ele>
        <time>2014-11-01T07:32:57Z</time>
      </trkpt>
      <trkpt lat="42.422172000" lon="-2.439011000">
        <ele>425.20</ele>
        <time>2014-11-01T07:32:58Z</time>
      </trkpt>
      <trkpt lat="42.422135000" lon="-2.439029000">
        <ele>425.10</ele>
        <time>2014-11-01T07:32:59Z</time>
      </trkpt>
      <trkpt lat="42.422100000" lon="-2.439041000">
        <ele>425.30</ele>
        <time>2014-11-01T07:33:00Z</time>
      </trkpt>
      <trkpt lat="42.422063000" lon="-2.439052000">
        <ele>425.50</ele>
        <time>2014-11-01T07:33:01Z</time>
      </trkpt>
      <trkpt lat="42.422027000" lon="-2.439063000">
        <ele>425.50</ele>
        <time>2014-11-01T07:33:02Z</time>
      </trkpt>
      <trkpt lat="42.421995000" lon="-2.439073000">
        <ele>425.50</ele>
        <time>2014-11-01T07:33:03Z</time>
      </trkpt>
      <trkpt lat="42.421965000" lon="-2.439083000">
        <ele>425.70</ele>
        <time>2014-11-01T07:33:04Z</time>
      </trkpt>
      <trkpt lat="42.421935000" lon="-2.439092000">
        <ele>425.80</ele>
        <time>2014-11-01T07:33:05Z</time>
      </trkpt>
      <trkpt lat="42.421904000" lon="-2.439107000">
        <ele>425.80</ele>
        <time>2014-11-01T07:33:06Z</time>
      </trkpt>
      <trkpt lat="42.421871000" lon="-2.439119000">
        <ele>425.80</ele>
        <time>2014-11-01T07:33:07Z</time>
      </trkpt>
      <trkpt lat="42.421837000" lon="-2.439130000">
        <ele>425.90</ele>
        <time>2014-11-01T07:33:08Z</time>
      </trkpt>
      <trkpt lat="42.421802000" lon="-2.439141000">
        <ele>426.00</ele>
        <time>2014-11-01T07:33:09Z</time>
      </trkpt>
      <trkpt lat="42.421768000" lon="-2.439153000">
        <ele>426.10</ele>
        <time>2014-11-01T07:33:10Z</time>
      </trkpt>
      <trkpt lat="42.421732000" lon="-2.439164000">
        <ele>426.10</ele>
        <time>2014-11-01T07:33:11Z</time>
      </trkpt>
      <trkpt lat="42.421695000" lon="-2.439174000">
        <ele>426.20</ele>
        <time>2014-11-01T07:33:12Z</time>
      </trkpt>
      <trkpt lat="42.421660000" lon="-2.439186000">
        <ele>426.20</ele>
        <time>2014-11-01T07:33:13Z</time>
      </trkpt>
      <trkpt lat="42.421624000" lon="-2.439196000">
        <ele>426.00</ele>
        <time>2014-11-01T07:33:14Z</time>
      </trkpt>
      <trkpt lat="42.421589000" lon="-2.439207000">
        <ele>425.90</ele>
        <time>2014-11-01T07:33:15Z</time>
      </trkpt>
      <trkpt lat="42.421553000" lon="-2.439221000">
        <ele>425.80</ele>
        <time>2014-11-01T07:33:16Z</time>
      </trkpt>
      <trkpt lat="42.421517000" lon="-2.439225000">
        <ele>425.80</ele>
        <time>2014-11-01T07:33:17Z</time>
      </trkpt>
      <trkpt lat="42.421481000" lon="-2.439233000">
        <ele>425.70</ele>
        <time>2014-11-01T07:33:18Z</time>
      </trkpt>
      <trkpt lat="42.421445000" lon="-2.439238000">
        <ele>425.70</ele>
        <time>2014-11-01T07:33:19Z</time>
      </trkpt>
      <trkpt lat="42.421410000" lon="-2.439244000">
        <ele>425.60</ele>
        <time>2014-11-01T07:33:20Z</time>
      </trkpt>
      <trkpt lat="42.421376000" lon="-2.439256000">
        <ele>425.60</ele>
        <time>2014-11-01T07:33:21Z</time>
      </trkpt>
      <trkpt lat="42.421340000" lon="-2.439265000">
        <ele>425.60</ele>
        <time>2014-11-01T07:33:22Z</time>
      </trkpt>
      <trkpt lat="42.421304000" lon="-2.439272000">
        <ele>425.60</ele>
        <time>2014-11-01T07:33:23Z</time>
      </trkpt>
      <trkpt lat="42.421268000" lon="-2.439274000">
        <ele>425.80</ele>
        <time>2014-11-01T07:33:24Z</time>
      </trkpt>
      <trkpt lat="42.421233000" lon="-2.439284000">
        <ele>426.00</ele>
        <time>2014-11-01T07:33:25Z</time>
      </trkpt>
      <trkpt lat="42.421199000" lon="-2.439291000">
        <ele>426.10</ele>
        <time>2014-11-01T07:33:26Z</time>
      </trkpt>
      <trkpt lat="42.421165000" lon="-2.439294000">
        <ele>426.30</ele>
        <time>2014-11-01T07:33:27Z</time>
      </trkpt>
      <trkpt lat="42.421130000" lon="-2.439302000">
        <ele>426.30</ele>
        <time>2014-11-01T07:33:28Z</time>
      </trkpt>
      <trkpt lat="42.421064000" lon="-2.439317000">
        <ele>426.40</ele>
        <time>2014-11-01T07:33:30Z</time>
      </trkpt>
      <trkpt lat="42.421029000" lon="-2.439328000">
        <ele>426.50</ele>
        <time>2014-11-01T07:33:31Z</time>
      </trkpt>
      <trkpt lat="42.420997000" lon="-2.439335000">
        <ele>426.50</ele>
        <time>2014-11-01T07:33:32Z</time>
      </trkpt>
      <trkpt lat="42.420960000" lon="-2.439341000">
        <ele>426.50</ele>
        <time>2014-11-01T07:33:33Z</time>
      </trkpt>
      <trkpt lat="42.420927000" lon="-2.439348000">
        <ele>426.50</ele>
        <time>2014-11-01T07:33:34Z</time>
      </trkpt>
      <trkpt lat="42.420895000" lon="-2.439357000">
        <ele>426.50</ele>
        <time>2014-11-01T07:33:35Z</time>
      </trkpt>
      <trkpt lat="42.420864000" lon="-2.439364000">
        <ele>426.30</ele>
        <time>2014-11-01T07:33:36Z</time>
      </trkpt>
      <trkpt lat="42.420832000" lon="-2.439371000">
        <ele>426.20</ele>
        <time>2014-11-01T07:33:37Z</time>
      </trkpt>
      <trkpt lat="42.420799000" lon="-2.439379000">
        <ele>426.40</ele>
        <time>2014-11-01T07:33:38Z</time>
      </trkpt>
      <trkpt lat="42.420766000" lon="-2.439386000">
        <ele>426.50</ele>
        <time>2014-11-01T07:33:39Z</time>
      </trkpt>
      <trkpt lat="42.420734000" lon="-2.439399000">
        <ele>426.60</ele>
        <time>2014-11-01T07:33:40Z</time>
      </trkpt>
      <trkpt lat="42.420701000" lon="-2.439410000">
        <ele>426.60</ele>
        <time>2014-11-01T07:33:41Z</time>
      </trkpt>
      <trkpt lat="42.420667000" lon="-2.439423000">
        <ele>426.70</ele>
        <time>2014-11-01T07:33:42Z</time>
      </trkpt>
      <trkpt lat="42.420633000" lon="-2.439432000">
        <ele>426.70</ele>
        <time>2014-11-01T07:33:43Z</time>
      </trkpt>
      <trkpt lat="42.420597000" lon="-2.439443000">
        <ele>426.90</ele>
        <time>2014-11-01T07:33:44Z</time>
      </trkpt>
      <trkpt lat="42.420561000" lon="-2.439453000">
        <ele>427.00</ele>
        <time>2014-11-01T07:33:45Z</time>
      </trkpt>
      <trkpt lat="42.420524000" lon="-2.439460000">
        <ele>426.90</ele>
        <time>2014-11-01T07:33:46Z</time>
      </trkpt>
      <trkpt lat="42.420490000" lon="-2.439469000">
        <ele>426.90</ele>
        <time>2014-11-01T07:33:47Z</time>
      </trkpt>
      <trkpt lat="42.420454000" lon="-2.439476000">
        <ele>426.90</ele>
        <time>2014-11-01T07:33:48Z</time>
      </trkpt>
      <trkpt lat="42.420418000" lon="-2.439486000">
        <ele>426.90</ele>
        <time>2014-11-01T07:33:49Z</time>
      </trkpt>
      <trkpt lat="42.420382000" lon="-2.439496000">
        <ele>426.70</ele>
        <time>2014-11-01T07:33:50Z</time>
      </trkpt>
      <trkpt lat="42.420344000" lon="-2.439508000">
        <ele>426.60</ele>
        <time>2014-11-01T07:33:51Z</time>
      </trkpt>
      <trkpt lat="42.420306000" lon="-2.439520000">
        <ele>426.50</ele>
        <time>2014-11-01T07:33:52Z</time>
      </trkpt>
      <trkpt lat="42.420265000" lon="-2.439532000">
        <ele>426.50</ele>
        <time>2014-11-01T07:33:53Z</time>
      </trkpt>
      <trkpt lat="42.420225000" lon="-2.439545000">
        <ele>426.60</ele>
        <time>2014-11-01T07:33:54Z</time>
      </trkpt>
      <trkpt lat="42.420186000" lon="-2.439554000">
        <ele>426.60</ele>
        <time>2014-11-01T07:33:55Z</time>
      </trkpt>
      <trkpt lat="42.420147000" lon="-2.439568000">
        <ele>426.70</ele>
        <time>2014-11-01T07:33:56Z</time>
      </trkpt>
      <trkpt lat="42.420107000" lon="-2.439582000">
        <ele>426.70</ele>
        <time>2014-11-01T07:33:57Z</time>
      </trkpt>
      <trkpt lat="42.420066000" lon="-2.439592000">
        <ele>426.70</ele>
        <time>2014-11-01T07:33:58Z</time>
      </trkpt>
      <trkpt lat="42.420027000" lon="-2.439601000">
        <ele>426.80</ele>
        <time>2014-11-01T07:33:59Z</time>
      </trkpt>
      <trkpt lat="42.419991000" lon="-2.439614000">
        <ele>427.00</ele>
        <time>2014-11-01T07:34:00Z</time>
      </trkpt>
      <trkpt lat="42.419955000" lon="-2.439625000">
        <ele>427.20</ele>
        <time>2014-11-01T07:34:01Z</time>
      </trkpt>
      <trkpt lat="42.419918000" lon="-2.439635000">
        <ele>427.40</ele>
        <time>2014-11-01T07:34:02Z</time>
      </trkpt>
      <trkpt lat="42.419882000" lon="-2.439646000">
        <ele>427.50</ele>
        <time>2014-11-01T07:34:03Z</time>
      </trkpt>
      <trkpt lat="42.419845000" lon="-2.439657000">
        <ele>427.60</ele>
        <time>2014-11-01T07:34:04Z</time>
      </trkpt>
      <trkpt lat="42.419809000" lon="-2.439667000">
        <ele>427.70</ele>
        <time>2014-11-01T07:34:05Z</time>
      </trkpt>
      <trkpt lat="42.419773000" lon="-2.439675000">
        <ele>427.60</ele>
        <time>2014-11-01T07:34:06Z</time>
      </trkpt>
      <trkpt lat="42.419735000" lon="-2.439681000">
        <ele>427.60</ele>
        <time>2014-11-01T07:34:07Z</time>
      </trkpt>
      <trkpt lat="42.419696000" lon="-2.439689000">
        <ele>427.70</ele>
        <time>2014-11-01T07:34:08Z</time>
      </trkpt>
      <trkpt lat="42.419656000" lon="-2.439702000">
        <ele>427.70</ele>
        <time>2014-11-01T07:34:09Z</time>
      </trkpt>
      <trkpt lat="42.419615000" lon="-2.439712000">
        <ele>427.70</ele>
        <time>2014-11-01T07:34:10Z</time>
      </trkpt>
      <trkpt lat="42.419574000" lon="-2.439724000">
        <ele>427.70</ele>
        <time>2014-11-01T07:34:11Z</time>
      </trkpt>
      <trkpt lat="42.419532000" lon="-2.439744000">
        <ele>427.60</ele>
        <time>2014-11-01T07:34:12Z</time>
      </trkpt>
      <trkpt lat="42.419492000" lon="-2.439766000">
        <ele>427.50</ele>
        <time>2014-11-01T07:34:13Z</time>
      </trkpt>
      <trkpt lat="42.419454000" lon="-2.439792000">
        <ele>427.50</ele>
        <time>2014-11-01T07:34:14Z</time>
      </trkpt>
      <trkpt lat="42.419417000" lon="-2.439814000">
        <ele>427.40</ele>
        <time>2014-11-01T07:34:15Z</time>
      </trkpt>
      <trkpt lat="42.419380000" lon="-2.439838000">
        <ele>427.50</ele>
        <time>2014-11-01T07:34:16Z</time>
      </trkpt>
      <trkpt lat="42.419344000" lon="-2.439864000">
        <ele>427.60</ele>
        <time>2014-11-01T07:34:17Z</time>
      </trkpt>
      <trkpt lat="42.419305000" lon="-2.439883000">
        <ele>427.80</ele>
        <time>2014-11-01T07:34:18Z</time>
      </trkpt>
      <trkpt lat="42.419265000" lon="-2.439890000">
        <ele>428.00</ele>
        <time>2014-11-01T07:34:19Z</time>
      </trkpt>
      <trkpt lat="42.419227000" lon="-2.439898000">
        <ele>428.10</ele>
        <time>2014-11-01T07:34:20Z</time>
      </trkpt>
      <trkpt lat="42.419186000" lon="-2.439907000">
        <ele>428.10</ele>
        <time>2014-11-01T07:34:21Z</time>
      </trkpt>
      <trkpt lat="42.419142000" lon="-2.439918000">
        <ele>428.20</ele>
        <time>2014-11-01T07:34:22Z</time>
      </trkpt>
      <trkpt lat="42.419093000" lon="-2.439928000">
        <ele>428.30</ele>
        <time>2014-11-01T07:34:23Z</time>
      </trkpt>
      <trkpt lat="42.419045000" lon="-2.439943000">
        <ele>428.30</ele>
        <time>2014-11-01T07:34:24Z</time>
      </trkpt>
      <trkpt lat="42.418999000" lon="-2.439960000">
        <ele>428.30</ele>
        <time>2014-11-01T07:34:25Z</time>
      </trkpt>
      <trkpt lat="42.418959000" lon="-2.439984000">
        <ele>428.10</ele>
        <time>2014-11-01T07:34:26Z</time>
      </trkpt>
      <trkpt lat="42.418922000" lon="-2.440017000">
        <ele>428.00</ele>
        <time>2014-11-01T07:34:27Z</time>
      </trkpt>
      <trkpt lat="42.418892000" lon="-2.440052000">
        <ele>427.80</ele>
        <time>2014-11-01T07:34:28Z</time>
      </trkpt>
      <trkpt lat="42.418863000" lon="-2.440090000">
        <ele>427.70</ele>
        <time>2014-11-01T07:34:29Z</time>
      </trkpt>
      <trkpt lat="42.418832000" lon="-2.440128000">
        <ele>427.70</ele>
        <time>2014-11-01T07:34:30Z</time>
      </trkpt>
      <trkpt lat="42.418775000" lon="-2.440202000">
        <ele>427.70</ele>
        <time>2014-11-01T07:34:32Z</time>
      </trkpt>
      <trkpt lat="42.418748000" lon="-2.440246000">
        <ele>427.70</ele>
        <time>2014-11-01T07:34:33Z</time>
      </trkpt>
      <trkpt lat="42.418718000" lon="-2.440289000">
        <ele>427.70</ele>
        <time>2014-11-01T07:34:34Z</time>
      </trkpt>
      <trkpt lat="42.418690000" lon="-2.440334000">
        <ele>427.70</ele>
        <time>2014-11-01T07:34:35Z</time>
      </trkpt>
      <trkpt lat="42.418668000" lon="-2.440375000">
        <ele>427.90</ele>
        <time>2014-11-01T07:34:36Z</time>
      </trkpt>
      <trkpt lat="42.418639000" lon="-2.440417000">
        <ele>428.10</ele>
        <time>2014-11-01T07:34:37Z</time>
      </trkpt>
      <trkpt lat="42.418607000" lon="-2.440456000">
        <ele>428.40</ele>
        <time>2014-11-01T07:34:38Z</time>
      </trkpt>
      <trkpt lat="42.418577000" lon="-2.440491000">
        <ele>428.60</ele>
        <time>2014-11-01T07:34:39Z</time>
      </trkpt>
      <trkpt lat="42.418542000" lon="-2.440527000">
        <ele>428.80</ele>
        <time>2014-11-01T07:34:40Z</time>
      </trkpt>
      <trkpt lat="42.418506000" lon="-2.440562000">
        <ele>428.90</ele>
        <time>2014-11-01T07:34:41Z</time>
      </trkpt>
      <trkpt lat="42.418474000" lon="-2.440596000">
        <ele>429.10</ele>
        <time>2014-11-01T07:34:42Z</time>
      </trkpt>
      <trkpt lat="42.418440000" lon="-2.440627000">
        <ele>429.20</ele>
        <time>2014-11-01T07:34:43Z</time>
      </trkpt>
      <trkpt lat="42.418408000" lon="-2.440656000">
        <ele>429.00</ele>
        <time>2014-11-01T07:34:44Z</time>
      </trkpt>
      <trkpt lat="42.418374000" lon="-2.440685000">
        <ele>428.90</ele>
        <time>2014-11-01T07:34:45Z</time>
      </trkpt>
      <trkpt lat="42.418343000" lon="-2.440718000">
        <ele>428.90</ele>
        <time>2014-11-01T07:34:46Z</time>
      </trkpt>
      <trkpt lat="42.418311000" lon="-2.440752000">
        <ele>428.90</ele>
        <time>2014-11-01T07:34:47Z</time>
      </trkpt>
      <trkpt lat="42.418279000" lon="-2.440784000">
        <ele>428.80</ele>
        <time>2014-11-01T07:34:48Z</time>
      </trkpt>
      <trkpt lat="42.418246000" lon="-2.440815000">
        <ele>428.70</ele>
        <time>2014-11-01T07:34:49Z</time>
      </trkpt>
      <trkpt lat="42.418213000" lon="-2.440846000">
        <ele>428.70</ele>
        <time>2014-11-01T07:34:50Z</time>
      </trkpt>
      <trkpt lat="42.418181000" lon="-2.440877000">
        <ele>428.80</ele>
        <time>2014-11-01T07:34:51Z</time>
      </trkpt>
      <trkpt lat="42.418151000" lon="-2.440910000">
        <ele>428.90</ele>
        <time>2014-11-01T07:34:52Z</time>
      </trkpt>
      <trkpt lat="42.418118000" lon="-2.440940000">
        <ele>429.00</ele>
        <time>2014-11-01T07:34:53Z</time>
      </trkpt>
      <trkpt lat="42.418084000" lon="-2.440972000">
        <ele>429.20</ele>
        <time>2014-11-01T07:34:54Z</time>
      </trkpt>
      <trkpt lat="42.418051000" lon="-2.441000000">
        <ele>429.40</ele>
        <time>2014-11-01T07:34:55Z</time>
      </trkpt>
      <trkpt lat="42.418019000" lon="-2.441029000">
        <ele>429.70</ele>
        <time>2014-11-01T07:34:56Z</time>
      </trkpt>
      <trkpt lat="42.417990000" lon="-2.441059000">
        <ele>429.90</ele>
        <time>2014-11-01T07:34:57Z</time>
      </trkpt>
      <trkpt lat="42.417959000" lon="-2.441092000">
        <ele>430.20</ele>
        <time>2014-11-01T07:34:58Z</time>
      </trkpt>
      <trkpt lat="42.417927000" lon="-2.441123000">
        <ele>430.40</ele>
        <time>2014-11-01T07:34:59Z</time>
      </trkpt>
      <trkpt lat="42.417898000" lon="-2.441155000">
        <ele>430.60</ele>
        <time>2014-11-01T07:35:00Z</time>
      </trkpt>
      <trkpt lat="42.417867000" lon="-2.441184000">
        <ele>430.70</ele>
        <time>2014-11-01T07:35:01Z</time>
      </trkpt>
      <trkpt lat="42.417832000" lon="-2.441213000">
        <ele>430.60</ele>
        <time>2014-11-01T07:35:02Z</time>
      </trkpt>
      <trkpt lat="42.417796000" lon="-2.441238000">
        <ele>430.50</ele>
        <time>2014-11-01T07:35:03Z</time>
      </trkpt>
      <trkpt lat="42.417759000" lon="-2.441261000">
        <ele>430.40</ele>
        <time>2014-11-01T07:35:04Z</time>
      </trkpt>
      <trkpt lat="42.417720000" lon="-2.441285000">
        <ele>430.30</ele>
        <time>2014-11-01T07:35:05Z</time>
      </trkpt>
      <trkpt lat="42.417683000" lon="-2.441310000">
        <ele>430.30</ele>
        <time>2014-11-01T07:35:06Z</time>
      </trkpt>
      <trkpt lat="42.417644000" lon="-2.441330000">
        <ele>430.30</ele>
        <time>2014-11-01T07:35:07Z</time>
      </trkpt>
      <trkpt lat="42.417605000" lon="-2.441347000">
        <ele>430.40</ele>
        <time>2014-11-01T07:35:08Z</time>
      </trkpt>
      <trkpt lat="42.417567000" lon="-2.441360000">
        <ele>430.40</ele>
        <time>2014-11-01T07:35:09Z</time>
      </trkpt>
      <trkpt lat="42.417528000" lon="-2.441375000">
        <ele>430.50</ele>
        <time>2014-11-01T07:35:10Z</time>
      </trkpt>
      <trkpt lat="42.417489000" lon="-2.441390000">
        <ele>430.50</ele>
        <time>2014-11-01T07:35:11Z</time>
      </trkpt>
      <trkpt lat="42.417449000" lon="-2.441405000">
        <ele>430.70</ele>
        <time>2014-11-01T07:35:12Z</time>
      </trkpt>
      <trkpt lat="42.417410000" lon="-2.441420000">
        <ele>430.90</ele>
        <time>2014-11-01T07:35:13Z</time>
      </trkpt>
      <trkpt lat="42.417371000" lon="-2.441439000">
        <ele>431.00</ele>
        <time>2014-11-01T07:35:14Z</time>
      </trkpt>
      <trkpt lat="42.417334000" lon="-2.441455000">
        <ele>431.10</ele>
        <time>2014-11-01T07:35:15Z</time>
      </trkpt>
      <trkpt lat="42.417296000" lon="-2.441470000">
        <ele>431.20</ele>
        <time>2014-11-01T07:35:16Z</time>
      </trkpt>
      <trkpt lat="42.417260000" lon="-2.441479000">
        <ele>431.20</ele>
        <time>2014-11-01T07:35:17Z</time>
      </trkpt>
      <trkpt lat="42.417222000" lon="-2.441489000">
        <ele>431.10</ele>
        <time>2014-11-01T07:35:18Z</time>
      </trkpt>
      <trkpt lat="42.417188000" lon="-2.441502000">
        <ele>431.00</ele>
        <time>2014-11-01T07:35:19Z</time>
      </trkpt>
      <trkpt lat="42.417156000" lon="-2.441515000">
        <ele>431.10</ele>
        <time>2014-11-01T07:35:20Z</time>
      </trkpt>
      <trkpt lat="42.417129000" lon="-2.441530000">
        <ele>431.20</ele>
        <time>2014-11-01T07:35:21Z</time>
      </trkpt>
      <trkpt lat="42.417098000" lon="-2.441540000">
        <ele>431.20</ele>
        <time>2014-11-01T07:35:22Z</time>
      </trkpt>
      <trkpt lat="42.417069000" lon="-2.441556000">
        <ele>431.10</ele>
        <time>2014-11-01T07:35:23Z</time>
      </trkpt>
      <trkpt lat="42.417037000" lon="-2.441567000">
        <ele>431.20</ele>
        <time>2014-11-01T07:35:24Z</time>
      </trkpt>
      <trkpt lat="42.417003000" lon="-2.441578000">
        <ele>431.20</ele>
        <time>2014-11-01T07:35:25Z</time>
      </trkpt>
      <trkpt lat="42.416968000" lon="-2.441589000">
        <ele>431.10</ele>
        <time>2014-11-01T07:35:26Z</time>
      </trkpt>
      <trkpt lat="42.416934000" lon="-2.441596000">
        <ele>431.10</ele>
        <time>2014-11-01T07:35:27Z</time>
      </trkpt>
      <trkpt lat="42.416899000" lon="-2.441604000">
        <ele>431.10</ele>
        <time>2014-11-01T07:35:28Z</time>
      </trkpt>
      <trkpt lat="42.416863000" lon="-2.441609000">
        <ele>431.10</ele>
        <time>2014-11-01T07:35:29Z</time>
      </trkpt>
      <trkpt lat="42.416828000" lon="-2.441616000">
        <ele>431.10</ele>
        <time>2014-11-01T07:35:30Z</time>
      </trkpt>
      <trkpt lat="42.416794000" lon="-2.441625000">
        <ele>431.10</ele>
        <time>2014-11-01T07:35:31Z</time>
      </trkpt>
      <trkpt lat="42.416760000" lon="-2.441631000">
        <ele>431.10</ele>
        <time>2014-11-01T07:35:32Z</time>
      </trkpt>
      <trkpt lat="42.416687000" lon="-2.441640000">
        <ele>431.30</ele>
        <time>2014-11-01T07:35:34Z</time>
      </trkpt>
      <trkpt lat="42.416652000" lon="-2.441650000">
        <ele>431.40</ele>
        <time>2014-11-01T07:35:35Z</time>
      </trkpt>
      <trkpt lat="42.416614000" lon="-2.441658000">
        <ele>431.50</ele>
        <time>2014-11-01T07:35:36Z</time>
      </trkpt>
      <trkpt lat="42.416580000" lon="-2.441674000">
        <ele>431.50</ele>
        <time>2014-11-01T07:35:37Z</time>
      </trkpt>
      <trkpt lat="42.416543000" lon="-2.441694000">
        <ele>431.60</ele>
        <time>2014-11-01T07:35:38Z</time>
      </trkpt>
      <trkpt lat="42.416507000" lon="-2.441712000">
        <ele>431.60</ele>
        <time>2014-11-01T07:35:39Z</time>
      </trkpt>
      <trkpt lat="42.416472000" lon="-2.441726000">
        <ele>431.60</ele>
        <time>2014-11-01T07:35:40Z</time>
      </trkpt>
      <trkpt lat="42.416436000" lon="-2.441738000">
        <ele>431.60</ele>
        <time>2014-11-01T07:35:41Z</time>
      </trkpt>
      <trkpt lat="42.416400000" lon="-2.441753000">
        <ele>431.70</ele>
        <time>2014-11-01T07:35:42Z</time>
      </trkpt>
      <trkpt lat="42.416363000" lon="-2.441766000">
        <ele>431.70</ele>
        <time>2014-11-01T07:35:43Z</time>
      </trkpt>
      <trkpt lat="42.416324000" lon="-2.441776000">
        <ele>431.80</ele>
        <time>2014-11-01T07:35:44Z</time>
      </trkpt>
      <trkpt lat="42.416285000" lon="-2.441786000">
        <ele>431.80</ele>
        <time>2014-11-01T07:35:45Z</time>
      </trkpt>
      <trkpt lat="42.416245000" lon="-2.441792000">
        <ele>431.90</ele>
        <time>2014-11-01T07:35:46Z</time>
      </trkpt>
      <trkpt lat="42.416208000" lon="-2.441803000">
        <ele>432.00</ele>
        <time>2014-11-01T07:35:47Z</time>
      </trkpt>
      <trkpt lat="42.416172000" lon="-2.441815000">
        <ele>432.10</ele>
        <time>2014-11-01T07:35:48Z</time>
      </trkpt>
      <trkpt lat="42.416138000" lon="-2.441830000">
        <ele>432.20</ele>
        <time>2014-11-01T07:35:49Z</time>
      </trkpt>
      <trkpt lat="42.416103000" lon="-2.441850000">
        <ele>432.40</ele>
        <time>2014-11-01T07:35:50Z</time>
      </trkpt>
      <trkpt lat="42.416070000" lon="-2.441872000">
        <ele>432.60</ele>
        <time>2014-11-01T07:35:51Z</time>
      </trkpt>
      <trkpt lat="42.416041000" lon="-2.441907000">
        <ele>432.50</ele>
        <time>2014-11-01T07:35:52Z</time>
      </trkpt>
      <trkpt lat="42.416012000" lon="-2.441939000">
        <ele>432.50</ele>
        <time>2014-11-01T07:35:53Z</time>
      </trkpt>
      <trkpt lat="42.415983000" lon="-2.441970000">
        <ele>432.70</ele>
        <time>2014-11-01T07:35:54Z</time>
      </trkpt>
      <trkpt lat="42.415954000" lon="-2.442004000">
        <ele>432.90</ele>
        <time>2014-11-01T07:35:55Z</time>
      </trkpt>
      <trkpt lat="42.415924000" lon="-2.442041000">
        <ele>432.90</ele>
        <time>2014-11-01T07:35:56Z</time>
      </trkpt>
      <trkpt lat="42.415895000" lon="-2.442075000">
        <ele>432.90</ele>
        <time>2014-11-01T07:35:57Z</time>
      </trkpt>
      <trkpt lat="42.415865000" lon="-2.442108000">
        <ele>432.90</ele>
        <time>2014-11-01T07:35:58Z</time>
      </trkpt>
      <trkpt lat="42.415832000" lon="-2.442138000">
        <ele>432.90</ele>
        <time>2014-11-01T07:35:59Z</time>
      </trkpt>
      <trkpt lat="42.415801000" lon="-2.442164000">
        <ele>432.90</ele>
        <time>2014-11-01T07:36:00Z</time>
      </trkpt>
      <trkpt lat="42.415766000" lon="-2.442187000">
        <ele>432.90</ele>
        <time>2014-11-01T07:36:01Z</time>
      </trkpt>
      <trkpt lat="42.415727000" lon="-2.442210000">
        <ele>432.70</ele>
        <time>2014-11-01T07:36:02Z</time>
      </trkpt>
      <trkpt lat="42.415688000" lon="-2.442225000">
        <ele>432.60</ele>
        <time>2014-11-01T07:36:03Z</time>
      </trkpt>
      <trkpt lat="42.415648000" lon="-2.442240000">
        <ele>433.00</ele>
        <time>2014-11-01T07:36:04Z</time>
      </trkpt>
      <trkpt lat="42.415611000" lon="-2.442255000">
        <ele>433.20</ele>
        <time>2014-11-01T07:36:05Z</time>
      </trkpt>
      <trkpt lat="42.415571000" lon="-2.442260000">
        <ele>433.50</ele>
        <time>2014-11-01T07:36:06Z</time>
      </trkpt>
      <trkpt lat="42.415532000" lon="-2.442268000">
        <ele>433.70</ele>
        <time>2014-11-01T07:36:07Z</time>
      </trkpt>
      <trkpt lat="42.415494000" lon="-2.442275000">
        <ele>433.80</ele>
        <time>2014-11-01T07:36:08Z</time>
      </trkpt>
      <trkpt lat="42.415455000" lon="-2.442278000">
        <ele>434.00</ele>
        <time>2014-11-01T07:36:09Z</time>
      </trkpt>
      <trkpt lat="42.415414000" lon="-2.442279000">
        <ele>434.00</ele>
        <time>2014-11-01T07:36:10Z</time>
      </trkpt>
      <trkpt lat="42.415374000" lon="-2.442282000">
        <ele>434.00</ele>
        <time>2014-11-01T07:36:11Z</time>
      </trkpt>
      <trkpt lat="42.415333000" lon="-2.442282000">
        <ele>434.00</ele>
        <time>2014-11-01T07:36:12Z</time>
      </trkpt>
      <trkpt lat="42.415293000" lon="-2.442281000">
        <ele>434.00</ele>
        <time>2014-11-01T07:36:13Z</time>
      </trkpt>
      <trkpt lat="42.415253000" lon="-2.442280000">
        <ele>433.70</ele>
        <time>2014-11-01T07:36:14Z</time>
      </trkpt>
      <trkpt lat="42.415215000" lon="-2.442280000">
        <ele>433.50</ele>
        <time>2014-11-01T07:36:15Z</time>
      </trkpt>
      <trkpt lat="42.415176000" lon="-2.442277000">
        <ele>433.60</ele>
        <time>2014-11-01T07:36:16Z</time>
      </trkpt>
      <trkpt lat="42.415136000" lon="-2.442279000">
        <ele>433.70</ele>
        <time>2014-11-01T07:36:17Z</time>
      </trkpt>
      <trkpt lat="42.415094000" lon="-2.442287000">
        <ele>433.90</ele>
        <time>2014-11-01T07:36:18Z</time>
      </trkpt>
      <trkpt lat="42.415051000" lon="-2.442291000">
        <ele>434.10</ele>
        <time>2014-11-01T07:36:19Z</time>
      </trkpt>
      <trkpt lat="42.415009000" lon="-2.442291000">
        <ele>434.20</ele>
        <time>2014-11-01T07:36:20Z</time>
      </trkpt>
      <trkpt lat="42.414965000" lon="-2.442293000">
        <ele>434.30</ele>
        <time>2014-11-01T07:36:21Z</time>
      </trkpt>
      <trkpt lat="42.414922000" lon="-2.442298000">
        <ele>434.00</ele>
        <time>2014-11-01T07:36:22Z</time>
      </trkpt>
      <trkpt lat="42.414879000" lon="-2.442299000">
        <ele>433.80</ele>
        <time>2014-11-01T07:36:23Z</time>
      </trkpt>
      <trkpt lat="42.414836000" lon="-2.442300000">
        <ele>433.60</ele>
        <time>2014-11-01T07:36:24Z</time>
      </trkpt>
      <trkpt lat="42.414794000" lon="-2.442300000">
        <ele>433.50</ele>
        <time>2014-11-01T07:36:25Z</time>
      </trkpt>
      <trkpt lat="42.414756000" lon="-2.442301000">
        <ele>433.50</ele>
        <time>2014-11-01T07:36:26Z</time>
      </trkpt>
      <trkpt lat="42.414714000" lon="-2.442300000">
        <ele>433.50</ele>
        <time>2014-11-01T07:36:27Z</time>
      </trkpt>
      <trkpt lat="42.414674000" lon="-2.442301000">
        <ele>433.50</ele>
        <time>2014-11-01T07:36:28Z</time>
      </trkpt>
      <trkpt lat="42.414634000" lon="-2.442302000">
        <ele>433.50</ele>
        <time>2014-11-01T07:36:29Z</time>
      </trkpt>
      <trkpt lat="42.414597000" lon="-2.442305000">
        <ele>433.50</ele>
        <time>2014-11-01T07:36:30Z</time>
      </trkpt>
      <trkpt lat="42.414559000" lon="-2.442311000">
        <ele>433.50</ele>
        <time>2014-11-01T07:36:31Z</time>
      </trkpt>
      <trkpt lat="42.414520000" lon="-2.442317000">
        <ele>433.80</ele>
        <time>2014-11-01T07:36:32Z</time>
      </trkpt>
      <trkpt lat="42.414481000" lon="-2.442326000">
        <ele>434.10</ele>
        <time>2014-11-01T07:36:33Z</time>
      </trkpt>
      <trkpt lat="42.414444000" lon="-2.442336000">
        <ele>433.80</ele>
        <time>2014-11-01T07:36:34Z</time>
      </trkpt>
      <trkpt lat="42.414370000" lon="-2.442366000">
        <ele>433.50</ele>
        <time>2014-11-01T07:36:36Z</time>
      </trkpt>
      <trkpt lat="42.414333000" lon="-2.442388000">
        <ele>433.50</ele>
        <time>2014-11-01T07:36:37Z</time>
      </trkpt>
      <trkpt lat="42.414293000" lon="-2.442408000">
        <ele>433.40</ele>
        <time>2014-11-01T07:36:38Z</time>
      </trkpt>
      <trkpt lat="42.414256000" lon="-2.442431000">
        <ele>433.20</ele>
        <time>2014-11-01T07:36:39Z</time>
      </trkpt>
      <trkpt lat="42.414219000" lon="-2.442457000">
        <ele>433.30</ele>
        <time>2014-11-01T07:36:40Z</time>
      </trkpt>
      <trkpt lat="42.414183000" lon="-2.442482000">
        <ele>433.40</ele>
        <time>2014-11-01T07:36:41Z</time>
      </trkpt>
      <trkpt lat="42.414146000" lon="-2.442505000">
        <ele>433.70</ele>
        <time>2014-11-01T07:36:42Z</time>
      </trkpt>
      <trkpt lat="42.414111000" lon="-2.442528000">
        <ele>433.90</ele>
        <time>2014-11-01T07:36:43Z</time>
      </trkpt>
      <trkpt lat="42.414077000" lon="-2.442553000">
        <ele>434.10</ele>
        <time>2014-11-01T07:36:44Z</time>
      </trkpt>
      <trkpt lat="42.414044000" lon="-2.442576000">
        <ele>434.30</ele>
        <time>2014-11-01T07:36:45Z</time>
      </trkpt>
      <trkpt lat="42.414011000" lon="-2.442600000">
        <ele>434.40</ele>
        <time>2014-11-01T07:36:46Z</time>
      </trkpt>
      <trkpt lat="42.413980000" lon="-2.442622000">
        <ele>434.40</ele>
        <time>2014-11-01T07:36:47Z</time>
      </trkpt>
      <trkpt lat="42.413946000" lon="-2.442646000">
        <ele>434.40</ele>
        <time>2014-11-01T07:36:48Z</time>
      </trkpt>
      <trkpt lat="42.413912000" lon="-2.442672000">
        <ele>434.50</ele>
        <time>2014-11-01T07:36:49Z</time>
      </trkpt>
      <trkpt lat="42.413878000" lon="-2.442694000">
        <ele>434.20</ele>
        <time>2014-11-01T07:36:50Z</time>
      </trkpt>
      <trkpt lat="42.413842000" lon="-2.442718000">
        <ele>434.10</ele>
        <time>2014-11-01T07:36:51Z</time>
      </trkpt>
      <trkpt lat="42.413808000" lon="-2.442739000">
        <ele>433.90</ele>
        <time>2014-11-01T07:36:52Z</time>
      </trkpt>
      <trkpt lat="42.413774000" lon="-2.442759000">
        <ele>433.80</ele>
        <time>2014-11-01T07:36:53Z</time>
      </trkpt>
      <trkpt lat="42.413737000" lon="-2.442776000">
        <ele>434.00</ele>
        <time>2014-11-01T07:36:54Z</time>
      </trkpt>
      <trkpt lat="42.413700000" lon="-2.442793000">
        <ele>434.10</ele>
        <time>2014-11-01T07:36:55Z</time>
      </trkpt>
      <trkpt lat="42.413664000" lon="-2.442808000">
        <ele>434.20</ele>
        <time>2014-11-01T07:36:56Z</time>
      </trkpt>
      <trkpt lat="42.413628000" lon="-2.442818000">
        <ele>434.30</ele>
        <time>2014-11-01T07:36:57Z</time>
      </trkpt>
      <trkpt lat="42.413591000" lon="-2.442828000">
        <ele>434.40</ele>
        <time>2014-11-01T07:36:58Z</time>
      </trkpt>
      <trkpt lat="42.413554000" lon="-2.442834000">
        <ele>434.40</ele>
        <time>2014-11-01T07:36:59Z</time>
      </trkpt>
      <trkpt lat="42.413520000" lon="-2.442843000">
        <ele>434.20</ele>
        <time>2014-11-01T07:37:00Z</time>
      </trkpt>
      <trkpt lat="42.413485000" lon="-2.442853000">
        <ele>434.00</ele>
        <time>2014-11-01T07:37:01Z</time>
      </trkpt>
      <trkpt lat="42.413453000" lon="-2.442861000">
        <ele>434.20</ele>
        <time>2014-11-01T07:37:02Z</time>
      </trkpt>
      <trkpt lat="42.413421000" lon="-2.442869000">
        <ele>434.30</ele>
        <time>2014-11-01T07:37:03Z</time>
      </trkpt>
      <trkpt lat="42.413389000" lon="-2.442877000">
        <ele>434.30</ele>
        <time>2014-11-01T07:37:04Z</time>
      </trkpt>
      <trkpt lat="42.413353000" lon="-2.442889000">
        <ele>434.40</ele>
        <time>2014-11-01T07:37:05Z</time>
      </trkpt>
      <trkpt lat="42.413319000" lon="-2.442900000">
        <ele>434.40</ele>
        <time>2014-11-01T07:37:06Z</time>
      </trkpt>
      <trkpt lat="42.413284000" lon="-2.442914000">
        <ele>434.50</ele>
        <time>2014-11-01T07:37:07Z</time>
      </trkpt>
      <trkpt lat="42.413249000" lon="-2.442931000">
        <ele>434.50</ele>
        <time>2014-11-01T07:37:08Z</time>
      </trkpt>
      <trkpt lat="42.413214000" lon="-2.442946000">
        <ele>434.60</ele>
        <time>2014-11-01T07:37:09Z</time>
      </trkpt>
      <trkpt lat="42.413180000" lon="-2.442960000">
        <ele>434.80</ele>
        <time>2014-11-01T07:37:10Z</time>
      </trkpt>
      <trkpt lat="42.413147000" lon="-2.442976000">
        <ele>434.90</ele>
        <time>2014-11-01T07:37:11Z</time>
      </trkpt>
      <trkpt lat="42.413113000" lon="-2.442992000">
        <ele>435.00</ele>
        <time>2014-11-01T07:37:12Z</time>
      </trkpt>
      <trkpt lat="42.413080000" lon="-2.443005000">
        <ele>435.10</ele>
        <time>2014-11-01T07:37:13Z</time>
      </trkpt>
      <trkpt lat="42.413047000" lon="-2.443019000">
        <ele>435.20</ele>
        <time>2014-11-01T07:37:14Z</time>
      </trkpt>
      <trkpt lat="42.413011000" lon="-2.443028000">
        <ele>435.20</ele>
        <time>2014-11-01T07:37:15Z</time>
      </trkpt>
      <trkpt lat="42.412974000" lon="-2.443038000">
        <ele>435.30</ele>
        <time>2014-11-01T07:37:16Z</time>
      </trkpt>
      <trkpt lat="42.412938000" lon="-2.443049000">
        <ele>435.40</ele>
        <time>2014-11-01T07:37:17Z</time>
      </trkpt>
      <trkpt lat="42.412903000" lon="-2.443061000">
        <ele>435.60</ele>
        <time>2014-11-01T07:37:18Z</time>
      </trkpt>
      <trkpt lat="42.412867000" lon="-2.443071000">
        <ele>435.70</ele>
        <time>2014-11-01T07:37:19Z</time>
      </trkpt>
      <trkpt lat="42.412831000" lon="-2.443080000">
        <ele>435.80</ele>
        <time>2014-11-01T07:37:20Z</time>
      </trkpt>
      <trkpt lat="42.412796000" lon="-2.443092000">
        <ele>435.90</ele>
        <time>2014-11-01T07:37:21Z</time>
      </trkpt>
      <trkpt lat="42.412760000" lon="-2.443103000">
        <ele>436.10</ele>
        <time>2014-11-01T07:37:22Z</time>
      </trkpt>
      <trkpt lat="42.412723000" lon="-2.443120000">
        <ele>436.20</ele>
        <time>2014-11-01T07:37:23Z</time>
      </trkpt>
      <trkpt lat="42.412687000" lon="-2.443134000">
        <ele>436.30</ele>
        <time>2014-11-01T07:37:24Z</time>
      </trkpt>
      <trkpt lat="42.412651000" lon="-2.443145000">
        <ele>436.40</ele>
        <time>2014-11-01T07:37:25Z</time>
      </trkpt>
      <trkpt lat="42.412613000" lon="-2.443158000">
        <ele>436.30</ele>
        <time>2014-11-01T07:37:26Z</time>
      </trkpt>
      <trkpt lat="42.412575000" lon="-2.443163000">
        <ele>436.30</ele>
        <time>2014-11-01T07:37:27Z</time>
      </trkpt>
      <trkpt lat="42.412534000" lon="-2.443166000">
        <ele>436.20</ele>
        <time>2014-11-01T07:37:28Z</time>
      </trkpt>
      <trkpt lat="42.412493000" lon="-2.443165000">
        <ele>436.20</ele>
        <time>2014-11-01T07:37:29Z</time>
      </trkpt>
      <trkpt lat="42.412452000" lon="-2.443159000">
        <ele>436.20</ele>
        <time>2014-11-01T07:37:30Z</time>
      </trkpt>
      <trkpt lat="42.412413000" lon="-2.443143000">
        <ele>436.10</ele>
        <time>2014-11-01T07:37:31Z</time>
      </trkpt>
      <trkpt lat="42.412376000" lon="-2.443124000">
        <ele>436.10</ele>
        <time>2014-11-01T07:37:32Z</time>
      </trkpt>
      <trkpt lat="42.412342000" lon="-2.443104000">
        <ele>436.10</ele>
        <time>2014-11-01T07:37:33Z</time>
      </trkpt>
      <trkpt lat="42.412306000" lon="-2.443079000">
        <ele>436.20</ele>
        <time>2014-11-01T07:37:34Z</time>
      </trkpt>
      <trkpt lat="42.412271000" lon="-2.443057000">
        <ele>436.20</ele>
        <time>2014-11-01T07:37:35Z</time>
      </trkpt>
      <trkpt lat="42.412237000" lon="-2.443040000">
        <ele>436.20</ele>
        <time>2014-11-01T07:37:36Z</time>
      </trkpt>
      <trkpt lat="42.412166000" lon="-2.443035000">
        <ele>436.10</ele>
        <time>2014-11-01T07:37:38Z</time>
      </trkpt>
      <trkpt lat="42.412129000" lon="-2.443044000">
        <ele>436.00</ele>
        <time>2014-11-01T07:37:39Z</time>
      </trkpt>
      <trkpt lat="42.412090000" lon="-2.443056000">
        <ele>436.00</ele>
        <time>2014-11-01T07:37:40Z</time>
      </trkpt>
      <trkpt lat="42.412050000" lon="-2.443075000">
        <ele>435.90</ele>
        <time>2014-11-01T07:37:41Z</time>
      </trkpt>
      <trkpt lat="42.412013000" lon="-2.443100000">
        <ele>436.40</ele>
        <time>2014-11-01T07:37:42Z</time>
      </trkpt>
      <trkpt lat="42.411976000" lon="-2.443126000">
        <ele>436.80</ele>
        <time>2014-11-01T07:37:43Z</time>
      </trkpt>
      <trkpt lat="42.411938000" lon="-2.443154000">
        <ele>437.00</ele>
        <time>2014-11-01T07:37:44Z</time>
      </trkpt>
      <trkpt lat="42.411902000" lon="-2.443180000">
        <ele>437.20</ele>
        <time>2014-11-01T07:37:45Z</time>
      </trkpt>
      <trkpt lat="42.411867000" lon="-2.443206000">
        <ele>437.30</ele>
        <time>2014-11-01T07:37:46Z</time>
      </trkpt>
      <trkpt lat="42.411829000" lon="-2.443231000">
        <ele>437.30</ele>
        <time>2014-11-01T07:37:47Z</time>
      </trkpt>
      <trkpt lat="42.411793000" lon="-2.443257000">
        <ele>436.80</ele>
        <time>2014-11-01T07:37:48Z</time>
      </trkpt>
      <trkpt lat="42.411758000" lon="-2.443278000">
        <ele>436.40</ele>
        <time>2014-11-01T07:37:49Z</time>
      </trkpt>
      <trkpt lat="42.411722000" lon="-2.443298000">
        <ele>436.50</ele>
        <time>2014-11-01T07:37:50Z</time>
      </trkpt>
      <trkpt lat="42.411686000" lon="-2.443318000">
        <ele>436.50</ele>
        <time>2014-11-01T07:37:51Z</time>
      </trkpt>
      <trkpt lat="42.411649000" lon="-2.443336000">
        <ele>436.50</ele>
        <time>2014-11-01T07:37:52Z</time>
      </trkpt>
      <trkpt lat="42.411611000" lon="-2.443352000">
        <ele>436.60</ele>
        <time>2014-11-01T07:37:53Z</time>
      </trkpt>
      <trkpt lat="42.411571000" lon="-2.443358000">
        <ele>436.70</ele>
        <time>2014-11-01T07:37:54Z</time>
      </trkpt>
      <trkpt lat="42.411530000" lon="-2.443364000">
        <ele>436.90</ele>
        <time>2014-11-01T07:37:55Z</time>
      </trkpt>
      <trkpt lat="42.411490000" lon="-2.443366000">
        <ele>437.00</ele>
        <time>2014-11-01T07:37:56Z</time>
      </trkpt>
      <trkpt lat="42.411448000" lon="-2.443369000">
        <ele>437.10</ele>
        <time>2014-11-01T07:37:57Z</time>
      </trkpt>
      <trkpt lat="42.411408000" lon="-2.443368000">
        <ele>436.80</ele>
        <time>2014-11-01T07:37:58Z</time>
      </trkpt>
      <trkpt lat="42.411368000" lon="-2.443361000">
        <ele>436.60</ele>
        <time>2014-11-01T07:37:59Z</time>
      </trkpt>
      <trkpt lat="42.411325000" lon="-2.443353000">
        <ele>436.20</ele>
        <time>2014-11-01T07:38:00Z</time>
      </trkpt>
      <trkpt lat="42.411283000" lon="-2.443351000">
        <ele>436.00</ele>
        <time>2014-11-01T07:38:01Z</time>
      </trkpt>
      <trkpt lat="42.411241000" lon="-2.443347000">
        <ele>435.70</ele>
        <time>2014-11-01T07:38:02Z</time>
      </trkpt>
      <trkpt lat="42.411200000" lon="-2.443342000">
        <ele>435.60</ele>
        <time>2014-11-01T07:38:03Z</time>
      </trkpt>
      <trkpt lat="42.411158000" lon="-2.443331000">
        <ele>435.70</ele>
        <time>2014-11-01T07:38:04Z</time>
      </trkpt>
      <trkpt lat="42.411116000" lon="-2.443315000">
        <ele>435.90</ele>
        <time>2014-11-01T07:38:05Z</time>
      </trkpt>
      <trkpt lat="42.411076000" lon="-2.443287000">
        <ele>436.00</ele>
        <time>2014-11-01T07:38:06Z</time>
      </trkpt>
      <trkpt lat="42.411037000" lon="-2.443254000">
        <ele>436.00</ele>
        <time>2014-11-01T07:38:07Z</time>
      </trkpt>
      <trkpt lat="42.411001000" lon="-2.443219000">
        <ele>436.10</ele>
        <time>2014-11-01T07:38:08Z</time>
      </trkpt>
      <trkpt lat="42.410970000" lon="-2.443179000">
        <ele>436.10</ele>
        <time>2014-11-01T07:38:09Z</time>
      </trkpt>
      <trkpt lat="42.410938000" lon="-2.443140000">
        <ele>436.00</ele>
        <time>2014-11-01T07:38:10Z</time>
      </trkpt>
      <trkpt lat="42.410904000" lon="-2.443107000">
        <ele>435.90</ele>
        <time>2014-11-01T07:38:11Z</time>
      </trkpt>
      <trkpt lat="42.410871000" lon="-2.443077000">
        <ele>435.80</ele>
        <time>2014-11-01T07:38:12Z</time>
      </trkpt>
      <trkpt lat="42.410835000" lon="-2.443053000">
        <ele>435.80</ele>
        <time>2014-11-01T07:38:13Z</time>
      </trkpt>
      <trkpt lat="42.410796000" lon="-2.443035000">
        <ele>435.70</ele>
        <time>2014-11-01T07:38:14Z</time>
      </trkpt>
      <trkpt lat="42.410755000" lon="-2.443016000">
        <ele>435.60</ele>
        <time>2014-11-01T07:38:15Z</time>
      </trkpt>
      <trkpt lat="42.410713000" lon="-2.442998000">
        <ele>435.30</ele>
        <time>2014-11-01T07:38:16Z</time>
      </trkpt>
      <trkpt lat="42.410669000" lon="-2.442983000">
        <ele>435.10</ele>
        <time>2014-11-01T07:38:17Z</time>
      </trkpt>
      <trkpt lat="42.410625000" lon="-2.442969000">
        <ele>435.00</ele>
        <time>2014-11-01T07:38:18Z</time>
      </trkpt>
      <trkpt lat="42.410579000" lon="-2.442958000">
        <ele>434.90</ele>
        <time>2014-11-01T07:38:19Z</time>
      </trkpt>
      <trkpt lat="42.410532000" lon="-2.442954000">
        <ele>434.90</ele>
        <time>2014-11-01T07:38:20Z</time>
      </trkpt>
      <trkpt lat="42.410487000" lon="-2.442952000">
        <ele>434.80</ele>
        <time>2014-11-01T07:38:21Z</time>
      </trkpt>
      <trkpt lat="42.410442000" lon="-2.442954000">
        <ele>435.00</ele>
        <time>2014-11-01T07:38:22Z</time>
      </trkpt>
      <trkpt lat="42.410402000" lon="-2.442957000">
        <ele>435.10</ele>
        <time>2014-11-01T07:38:23Z</time>
      </trkpt>
      <trkpt lat="42.410362000" lon="-2.442963000">
        <ele>435.10</ele>
        <time>2014-11-01T07:38:24Z</time>
      </trkpt>
      <trkpt lat="42.410322000" lon="-2.442969000">
        <ele>435.20</ele>
        <time>2014-11-01T07:38:25Z</time>
      </trkpt>
      <trkpt lat="42.410283000" lon="-2.442977000">
        <ele>435.30</ele>
        <time>2014-11-01T07:38:26Z</time>
      </trkpt>
      <trkpt lat="42.410245000" lon="-2.442988000">
        <ele>435.40</ele>
        <time>2014-11-01T07:38:27Z</time>
      </trkpt>
      <trkpt lat="42.410208000" lon="-2.443005000">
        <ele>435.50</ele>
        <time>2014-11-01T07:38:28Z</time>
      </trkpt>
      <trkpt lat="42.410170000" lon="-2.443018000">
        <ele>435.60</ele>
        <time>2014-11-01T07:38:29Z</time>
      </trkpt>
      <trkpt lat="42.410130000" lon="-2.443032000">
        <ele>435.60</ele>
        <time>2014-11-01T07:38:30Z</time>
      </trkpt>
      <trkpt lat="42.410090000" lon="-2.443051000">
        <ele>435.70</ele>
        <time>2014-11-01T07:38:31Z</time>
      </trkpt>
      <trkpt lat="42.410050000" lon="-2.443069000">
        <ele>435.70</ele>
        <time>2014-11-01T07:38:32Z</time>
      </trkpt>
      <trkpt lat="42.410009000" lon="-2.443080000">
        <ele>435.80</ele>
        <time>2014-11-01T07:38:33Z</time>
      </trkpt>
      <trkpt lat="42.409968000" lon="-2.443088000">
        <ele>435.70</ele>
        <time>2014-11-01T07:38:34Z</time>
      </trkpt>
      <trkpt lat="42.409927000" lon="-2.443096000">
        <ele>435.70</ele>
        <time>2014-11-01T07:38:35Z</time>
      </trkpt>
      <trkpt lat="42.409887000" lon="-2.443098000">
        <ele>435.60</ele>
        <time>2014-11-01T07:38:36Z</time>
      </trkpt>
      <trkpt lat="42.409848000" lon="-2.443104000">
        <ele>435.50</ele>
        <time>2014-11-01T07:38:37Z</time>
      </trkpt>
      <trkpt lat="42.409810000" lon="-2.443110000">
        <ele>435.50</ele>
        <time>2014-11-01T07:38:38Z</time>
      </trkpt>
      <trkpt lat="42.409730000" lon="-2.443124000">
        <ele>435.40</ele>
        <time>2014-11-01T07:38:40Z</time>
      </trkpt>
      <trkpt lat="42.409692000" lon="-2.443128000">
        <ele>435.40</ele>
        <time>2014-11-01T07:38:41Z</time>
      </trkpt>
      <trkpt lat="42.409652000" lon="-2.443135000">
        <ele>435.40</ele>
        <time>2014-11-01T07:38:42Z</time>
      </trkpt>
      <trkpt lat="42.409615000" lon="-2.443145000">
        <ele>435.50</ele>
        <time>2014-11-01T07:38:43Z</time>
      </trkpt>
      <trkpt lat="42.409576000" lon="-2.443156000">
        <ele>435.50</ele>
        <time>2014-11-01T07:38:44Z</time>
      </trkpt>
      <trkpt lat="42.409540000" lon="-2.443168000">
        <ele>435.50</ele>
        <time>2014-11-01T07:38:45Z</time>
      </trkpt>
      <trkpt lat="42.409501000" lon="-2.443178000">
        <ele>435.50</ele>
        <time>2014-11-01T07:38:46Z</time>
      </trkpt>
      <trkpt lat="42.409464000" lon="-2.443195000">
        <ele>435.50</ele>
        <time>2014-11-01T07:38:47Z</time>
      </trkpt>
      <trkpt lat="42.409427000" lon="-2.443212000">
        <ele>435.70</ele>
        <time>2014-11-01T07:38:48Z</time>
      </trkpt>
      <trkpt lat="42.409388000" lon="-2.443231000">
        <ele>435.80</ele>
        <time>2014-11-01T07:38:49Z</time>
      </trkpt>
      <trkpt lat="42.409352000" lon="-2.443253000">
        <ele>435.90</ele>
        <time>2014-11-01T07:38:50Z</time>
      </trkpt>
      <trkpt lat="42.409321000" lon="-2.443279000">
        <ele>435.90</ele>
        <time>2014-11-01T07:38:51Z</time>
      </trkpt>
      <trkpt lat="42.409286000" lon="-2.443305000">
        <ele>436.00</ele>
        <time>2014-11-01T07:38:52Z</time>
      </trkpt>
      <trkpt lat="42.409250000" lon="-2.443330000">
        <ele>436.00</ele>
        <time>2014-11-01T07:38:53Z</time>
      </trkpt>
      <trkpt lat="42.409212000" lon="-2.443349000">
        <ele>435.90</ele>
        <time>2014-11-01T07:38:54Z</time>
      </trkpt>
      <trkpt lat="42.409175000" lon="-2.443367000">
        <ele>435.80</ele>
        <time>2014-11-01T07:38:55Z</time>
      </trkpt>
      <trkpt lat="42.409136000" lon="-2.443387000">
        <ele>435.80</ele>
        <time>2014-11-01T07:38:56Z</time>
      </trkpt>
      <trkpt lat="42.409098000" lon="-2.443407000">
        <ele>435.70</ele>
        <time>2014-11-01T07:38:57Z</time>
      </trkpt>
      <trkpt lat="42.409062000" lon="-2.443428000">
        <ele>436.00</ele>
        <time>2014-11-01T07:38:58Z</time>
      </trkpt>
      <trkpt lat="42.409026000" lon="-2.443449000">
        <ele>436.30</ele>
        <time>2014-11-01T07:38:59Z</time>
      </trkpt>
      <trkpt lat="42.408988000" lon="-2.443467000">
        <ele>436.50</ele>
        <time>2014-11-01T07:39:00Z</time>
      </trkpt>
      <trkpt lat="42.408952000" lon="-2.443483000">
        <ele>436.60</ele>
        <time>2014-11-01T07:39:01Z</time>
      </trkpt>
      <trkpt lat="42.408917000" lon="-2.443504000">
        <ele>436.70</ele>
        <time>2014-11-01T07:39:02Z</time>
      </trkpt>
      <trkpt lat="42.408883000" lon="-2.443525000">
        <ele>436.80</ele>
        <time>2014-11-01T07:39:03Z</time>
      </trkpt>
      <trkpt lat="42.408848000" lon="-2.443543000">
        <ele>436.90</ele>
        <time>2014-11-01T07:39:04Z</time>
      </trkpt>
      <trkpt lat="42.408816000" lon="-2.443557000">
        <ele>436.90</ele>
        <time>2014-11-01T07:39:05Z</time>
      </trkpt>
      <trkpt lat="42.408787000" lon="-2.443575000">
        <ele>436.90</ele>
        <time>2014-11-01T07:39:06Z</time>
      </trkpt>
      <trkpt lat="42.408759000" lon="-2.443590000">
        <ele>437.00</ele>
        <time>2014-11-01T07:39:07Z</time>
      </trkpt>
      <trkpt lat="42.408734000" lon="-2.443605000">
        <ele>437.20</ele>
        <time>2014-11-01T07:39:08Z</time>
      </trkpt>
      <trkpt lat="42.408714000" lon="-2.443620000">
        <ele>437.50</ele>
        <time>2014-11-01T07:39:09Z</time>
      </trkpt>
      <trkpt lat="42.408694000" lon="-2.443634000">
        <ele>437.60</ele>
        <time>2014-11-01T07:39:10Z</time>
      </trkpt>
      <trkpt lat="42.408675000" lon="-2.443645000">
        <ele>437.70</ele>
        <time>2014-11-01T07:39:11Z</time>
      </trkpt>
      <trkpt lat="42.408656000" lon="-2.443662000">
        <ele>437.90</ele>
        <time>2014-11-01T07:39:12Z</time>
      </trkpt>
      <trkpt lat="42.408633000" lon="-2.443676000">
        <ele>438.00</ele>
        <time>2014-11-01T07:39:13Z</time>
      </trkpt>
      <trkpt lat="42.408611000" lon="-2.443694000">
        <ele>438.10</ele>
        <time>2014-11-01T07:39:14Z</time>
      </trkpt>
      <trkpt lat="42.408589000" lon="-2.443703000">
        <ele>438.30</ele>
        <time>2014-11-01T07:39:15Z</time>
      </trkpt>
      <trkpt lat="42.408566000" lon="-2.443717000">
        <ele>438.30</ele>
        <time>2014-11-01T07:39:16Z</time>
      </trkpt>
      <trkpt lat="42.408541000" lon="-2.443734000">
        <ele>438.30</ele>
        <time>2014-11-01T07:39:17Z</time>
      </trkpt>
      <trkpt lat="42.408513000" lon="-2.443746000">
        <ele>438.30</ele>
        <time>2014-11-01T07:39:18Z</time>
      </trkpt>
      <trkpt lat="42.408482000" lon="-2.443755000">
        <ele>438.30</ele>
        <time>2014-11-01T07:39:19Z</time>
      </trkpt>
      <trkpt lat="42.408456000" lon="-2.443767000">
        <ele>438.30</ele>
        <time>2014-11-01T07:39:20Z</time>
      </trkpt>
      <trkpt lat="42.408432000" lon="-2.443779000">
        <ele>438.30</ele>
        <time>2014-11-01T07:39:21Z</time>
      </trkpt>
      <trkpt lat="42.408406000" lon="-2.443787000">
        <ele>438.30</ele>
        <time>2014-11-01T07:39:22Z</time>
      </trkpt>
      <trkpt lat="42.408380000" lon="-2.443797000">
        <ele>438.20</ele>
        <time>2014-11-01T07:39:23Z</time>
      </trkpt>
      <trkpt lat="42.408352000" lon="-2.443806000">
        <ele>438.20</ele>
        <time>2014-11-01T07:39:24Z</time>
      </trkpt>
      <trkpt lat="42.408323000" lon="-2.443812000">
        <ele>438.20</ele>
        <time>2014-11-01T07:39:25Z</time>
      </trkpt>
      <trkpt lat="42.408292000" lon="-2.443822000">
        <ele>438.20</ele>
        <time>2014-11-01T07:39:26Z</time>
      </trkpt>
      <trkpt lat="42.408260000" lon="-2.443829000">
        <ele>438.20</ele>
        <time>2014-11-01T07:39:27Z</time>
      </trkpt>
      <trkpt lat="42.408227000" lon="-2.443839000">
        <ele>438.40</ele>
        <time>2014-11-01T07:39:28Z</time>
      </trkpt>
      <trkpt lat="42.408195000" lon="-2.443848000">
        <ele>438.60</ele>
        <time>2014-11-01T07:39:29Z</time>
      </trkpt>
      <trkpt lat="42.408163000" lon="-2.443859000">
        <ele>438.60</ele>
        <time>2014-11-01T07:39:30Z</time>
      </trkpt>
      <trkpt lat="42.408131000" lon="-2.443871000">
        <ele>438.60</ele>
        <time>2014-11-01T07:39:31Z</time>
      </trkpt>
      <trkpt lat="42.408099000" lon="-2.443888000">
        <ele>438.60</ele>
        <time>2014-11-01T07:39:32Z</time>
      </trkpt>
      <trkpt lat="42.408067000" lon="-2.443899000">
        <ele>438.60</ele>
        <time>2014-11-01T07:39:33Z</time>
      </trkpt>
      <trkpt lat="42.408036000" lon="-2.443914000">
        <ele>438.60</ele>
        <time>2014-11-01T07:39:34Z</time>
      </trkpt>
      <trkpt lat="42.408007000" lon="-2.443938000">
        <ele>438.60</ele>
        <time>2014-11-01T07:39:35Z</time>
      </trkpt>
      <trkpt lat="42.407979000" lon="-2.443967000">
        <ele>438.60</ele>
        <time>2014-11-01T07:39:36Z</time>
      </trkpt>
      <trkpt lat="42.407952000" lon="-2.443996000">
        <ele>438.60</ele>
        <time>2014-11-01T07:39:37Z</time>
      </trkpt>
      <trkpt lat="42.407929000" lon="-2.444026000">
        <ele>438.60</ele>
        <time>2014-11-01T07:39:38Z</time>
      </trkpt>
      <trkpt lat="42.407905000" lon="-2.444058000">
        <ele>438.60</ele>
        <time>2014-11-01T07:39:39Z</time>
      </trkpt>
      <trkpt lat="42.407884000" lon="-2.444089000">
        <ele>438.60</ele>
        <time>2014-11-01T07:39:40Z</time>
      </trkpt>
      <trkpt lat="42.407843000" lon="-2.444151000">
        <ele>438.70</ele>
        <time>2014-11-01T07:39:42Z</time>
      </trkpt>
      <trkpt lat="42.407826000" lon="-2.444181000">
        <ele>438.70</ele>
        <time>2014-11-01T07:39:43Z</time>
      </trkpt>
      <trkpt lat="42.407809000" lon="-2.444213000">
        <ele>438.70</ele>
        <time>2014-11-01T07:39:44Z</time>
      </trkpt>
      <trkpt lat="42.407792000" lon="-2.444241000">
        <ele>438.80</ele>
        <time>2014-11-01T07:39:45Z</time>
      </trkpt>
      <trkpt lat="42.407774000" lon="-2.444266000">
        <ele>438.80</ele>
        <time>2014-11-01T07:39:46Z</time>
      </trkpt>
      <trkpt lat="42.407753000" lon="-2.444295000">
        <ele>438.90</ele>
        <time>2014-11-01T07:39:47Z</time>
      </trkpt>
      <trkpt lat="42.407734000" lon="-2.444324000">
        <ele>439.10</ele>
        <time>2014-11-01T07:39:48Z</time>
      </trkpt>
      <trkpt lat="42.407714000" lon="-2.444353000">
        <ele>439.30</ele>
        <time>2014-11-01T07:39:49Z</time>
      </trkpt>
      <trkpt lat="42.407699000" lon="-2.444382000">
        <ele>439.40</ele>
        <time>2014-11-01T07:39:50Z</time>
      </trkpt>
      <trkpt lat="42.407684000" lon="-2.444410000">
        <ele>439.50</ele>
        <time>2014-11-01T07:39:51Z</time>
      </trkpt>
      <trkpt lat="42.407666000" lon="-2.444437000">
        <ele>439.50</ele>
        <time>2014-11-01T07:39:52Z</time>
      </trkpt>
      <trkpt lat="42.407649000" lon="-2.444470000">
        <ele>439.50</ele>
        <time>2014-11-01T07:39:53Z</time>
      </trkpt>
      <trkpt lat="42.407632000" lon="-2.444504000">
        <ele>439.50</ele>
        <time>2014-11-01T07:39:54Z</time>
      </trkpt>
      <trkpt lat="42.407616000" lon="-2.444538000">
        <ele>439.50</ele>
        <time>2014-11-01T07:39:55Z</time>
      </trkpt>
      <trkpt lat="42.407598000" lon="-2.444572000">
        <ele>439.50</ele>
        <time>2014-11-01T07:39:56Z</time>
      </trkpt>
      <trkpt lat="42.407579000" lon="-2.444599000">
        <ele>439.50</ele>
        <time>2014-11-01T07:39:57Z</time>
      </trkpt>
      <trkpt lat="42.407565000" lon="-2.444621000">
        <ele>439.60</ele>
        <time>2014-11-01T07:39:58Z</time>
      </trkpt>
      <trkpt lat="42.407553000" lon="-2.444646000">
        <ele>439.60</ele>
        <time>2014-11-01T07:39:59Z</time>
      </trkpt>
      <trkpt lat="42.407548000" lon="-2.444675000">
        <ele>439.70</ele>
        <time>2014-11-01T07:40:00Z</time>
      </trkpt>
      <trkpt lat="42.407546000" lon="-2.444703000">
        <ele>439.80</ele>
        <time>2014-11-01T07:40:01Z</time>
      </trkpt>
      <trkpt lat="42.407540000" lon="-2.444731000">
        <ele>439.90</ele>
        <time>2014-11-01T07:40:02Z</time>
      </trkpt>
      <trkpt lat="42.407532000" lon="-2.444756000">
        <ele>439.90</ele>
        <time>2014-11-01T07:40:03Z</time>
      </trkpt>
      <trkpt lat="42.407520000" lon="-2.444782000">
        <ele>440.10</ele>
        <time>2014-11-01T07:40:04Z</time>
      </trkpt>
      <trkpt lat="42.407511000" lon="-2.444809000">
        <ele>440.30</ele>
        <time>2014-11-01T07:40:05Z</time>
      </trkpt>
      <trkpt lat="42.407505000" lon="-2.444833000">
        <ele>440.30</ele>
        <time>2014-11-01T07:40:06Z</time>
      </trkpt>
      <trkpt lat="42.407499000" lon="-2.444853000">
        <ele>440.30</ele>
        <time>2014-11-01T07:40:07Z</time>
      </trkpt>
      <trkpt lat="42.407495000" lon="-2.444868000">
        <ele>440.40</ele>
        <time>2014-11-01T07:40:08Z</time>
      </trkpt>
      <trkpt lat="42.407492000" lon="-2.444884000">
        <ele>440.50</ele>
        <time>2014-11-01T07:40:09Z</time>
      </trkpt>
      <trkpt lat="42.407488000" lon="-2.444900000">
        <ele>440.80</ele>
        <time>2014-11-01T07:40:10Z</time>
      </trkpt>
      <trkpt lat="42.407487000" lon="-2.444914000">
        <ele>441.00</ele>
        <time>2014-11-01T07:40:11Z</time>
      </trkpt>
      <trkpt lat="42.407480000" lon="-2.444926000">
        <ele>441.20</ele>
        <time>2014-11-01T07:40:12Z</time>
      </trkpt>
      <trkpt lat="42.407475000" lon="-2.444936000">
        <ele>441.30</ele>
        <time>2014-11-01T07:40:13Z</time>
      </trkpt>
      <trkpt lat="42.407469000" lon="-2.444948000">
        <ele>441.30</ele>
        <time>2014-11-01T07:40:14Z</time>
      </trkpt>
      <trkpt lat="42.407462000" lon="-2.444958000">
        <ele>441.40</ele>
        <time>2014-11-01T07:40:15Z</time>
      </trkpt>
      <trkpt lat="42.407459000" lon="-2.444974000">
        <ele>441.50</ele>
        <time>2014-11-01T07:40:16Z</time>
      </trkpt>
      <trkpt lat="42.407457000" lon="-2.444986000">
        <ele>441.50</ele>
        <time>2014-11-01T07:40:17Z</time>
      </trkpt>
      <trkpt lat="42.407454000" lon="-2.445000000">
        <ele>441.50</ele>
        <time>2014-11-01T07:40:18Z</time>
      </trkpt>
      <trkpt lat="42.407454000" lon="-2.445018000">
        <ele>441.50</ele>
        <time>2014-11-01T07:40:19Z</time>
      </trkpt>
      <trkpt lat="42.407448000" lon="-2.445034000">
        <ele>441.40</ele>
        <time>2014-11-01T07:40:20Z</time>
      </trkpt>
      <trkpt lat="42.407438000" lon="-2.445054000">
        <ele>441.20</ele>
        <time>2014-11-01T07:40:21Z</time>
      </trkpt>
      <trkpt lat="42.407429000" lon="-2.445078000">
        <ele>441.10</ele>
        <time>2014-11-01T07:40:22Z</time>
      </trkpt>
      <trkpt lat="42.407419000" lon="-2.445110000">
        <ele>441.10</ele>
        <time>2014-11-01T07:40:23Z</time>
      </trkpt>
      <trkpt lat="42.407406000" lon="-2.445148000">
        <ele>441.00</ele>
        <time>2014-11-01T07:40:24Z</time>
      </trkpt>
      <trkpt lat="42.407391000" lon="-2.445185000">
        <ele>441.00</ele>
        <time>2014-11-01T07:40:25Z</time>
      </trkpt>
      <trkpt lat="42.407372000" lon="-2.445228000">
        <ele>440.80</ele>
        <time>2014-11-01T07:40:26Z</time>
      </trkpt>
      <trkpt lat="42.407353000" lon="-2.445271000">
        <ele>440.70</ele>
        <time>2014-11-01T07:40:27Z</time>
      </trkpt>
      <trkpt lat="42.407334000" lon="-2.445319000">
        <ele>440.60</ele>
        <time>2014-11-01T07:40:28Z</time>
      </trkpt>
      <trkpt lat="42.407318000" lon="-2.445371000">
        <ele>440.50</ele>
        <time>2014-11-01T07:40:29Z</time>
      </trkpt>
      <trkpt lat="42.407304000" lon="-2.445423000">
        <ele>440.50</ele>
        <time>2014-11-01T07:40:30Z</time>
      </trkpt>
      <trkpt lat="42.407286000" lon="-2.445469000">
        <ele>440.40</ele>
        <time>2014-11-01T07:40:31Z</time>
      </trkpt>
      <trkpt lat="42.407268000" lon="-2.445515000">
        <ele>440.00</ele>
        <time>2014-11-01T07:40:32Z</time>
      </trkpt>
      <trkpt lat="42.407255000" lon="-2.445562000">
        <ele>439.70</ele>
        <time>2014-11-01T07:40:33Z</time>
      </trkpt>
      <trkpt lat="42.407244000" lon="-2.445610000">
        <ele>439.50</ele>
        <time>2014-11-01T07:40:34Z</time>
      </trkpt>
      <trkpt lat="42.407233000" lon="-2.445660000">
        <ele>439.30</ele>
        <time>2014-11-01T07:40:35Z</time>
      </trkpt>
      <trkpt lat="42.407221000" lon="-2.445706000">
        <ele>439.40</ele>
        <time>2014-11-01T07:40:36Z</time>
      </trkpt>
      <trkpt lat="42.407204000" lon="-2.445752000">
        <ele>439.40</ele>
        <time>2014-11-01T07:40:37Z</time>
      </trkpt>
      <trkpt lat="42.407191000" lon="-2.445798000">
        <ele>439.60</ele>
        <time>2014-11-01T07:40:38Z</time>
      </trkpt>
      <trkpt lat="42.407178000" lon="-2.445843000">
        <ele>439.80</ele>
        <time>2014-11-01T07:40:39Z</time>
      </trkpt>
      <trkpt lat="42.407166000" lon="-2.445885000">
        <ele>439.90</ele>
        <time>2014-11-01T07:40:40Z</time>
      </trkpt>
      <trkpt lat="42.407159000" lon="-2.445927000">
        <ele>440.00</ele>
        <time>2014-11-01T07:40:41Z</time>
      </trkpt>
      <trkpt lat="42.407145000" lon="-2.445976000">
        <ele>440.00</ele>
        <time>2014-11-01T07:40:42Z</time>
      </trkpt>
      <trkpt lat="42.407092000" lon="-2.446102000">
        <ele>440.00</ele>
        <time>2014-11-01T07:40:44Z</time>
      </trkpt>
      <trkpt lat="42.407063000" lon="-2.446156000">
        <ele>440.00</ele>
        <time>2014-11-01T07:40:45Z</time>
      </trkpt>
      <trkpt lat="42.407031000" lon="-2.446204000">
        <ele>440.00</ele>
        <time>2014-11-01T07:40:46Z</time>
      </trkpt>
      <trkpt lat="42.407000000" lon="-2.446241000">
        <ele>440.00</ele>
        <time>2014-11-01T07:40:47Z</time>
      </trkpt>
      <trkpt lat="42.406974000" lon="-2.446267000">
        <ele>440.10</ele>
        <time>2014-11-01T07:40:48Z</time>
      </trkpt>
      <trkpt lat="42.406950000" lon="-2.446293000">
        <ele>440.20</ele>
        <time>2014-11-01T07:40:49Z</time>
      </trkpt>
      <trkpt lat="42.406925000" lon="-2.446319000">
        <ele>440.30</ele>
        <time>2014-11-01T07:40:50Z</time>
      </trkpt>
      <trkpt lat="42.406902000" lon="-2.446342000">
        <ele>440.50</ele>
        <time>2014-11-01T07:40:51Z</time>
      </trkpt>
      <trkpt lat="42.406883000" lon="-2.446367000">
        <ele>440.50</ele>
        <time>2014-11-01T07:40:52Z</time>
      </trkpt>
      <trkpt lat="42.406873000" lon="-2.446391000">
        <ele>440.60</ele>
        <time>2014-11-01T07:40:53Z</time>
      </trkpt>
      <trkpt lat="42.406863000" lon="-2.446415000">
        <ele>440.70</ele>
        <time>2014-11-01T07:40:54Z</time>
      </trkpt>
      <trkpt lat="42.406856000" lon="-2.446440000">
        <ele>440.70</ele>
        <time>2014-11-01T07:40:55Z</time>
      </trkpt>
      <trkpt lat="42.406851000" lon="-2.446463000">
        <ele>440.80</ele>
        <time>2014-11-01T07:40:56Z</time>
      </trkpt>
      <trkpt lat="42.406847000" lon="-2.446492000">
        <ele>440.90</ele>
        <time>2014-11-01T07:40:57Z</time>
      </trkpt>
      <trkpt lat="42.406843000" lon="-2.446525000">
        <ele>440.90</ele>
        <time>2014-11-01T07:40:58Z</time>
      </trkpt>
      <trkpt lat="42.406846000" lon="-2.446560000">
        <ele>441.00</ele>
        <time>2014-11-01T07:40:59Z</time>
      </trkpt>
      <trkpt lat="42.406850000" lon="-2.446596000">
        <ele>441.00</ele>
        <time>2014-11-01T07:41:00Z</time>
      </trkpt>
      <trkpt lat="42.406857000" lon="-2.446634000">
        <ele>441.00</ele>
        <time>2014-11-01T07:41:01Z</time>
      </trkpt>
      <trkpt lat="42.406866000" lon="-2.446673000">
        <ele>441.20</ele>
        <time>2014-11-01T07:41:02Z</time>
      </trkpt>
      <trkpt lat="42.406876000" lon="-2.446712000">
        <ele>441.30</ele>
        <time>2014-11-01T07:41:03Z</time>
      </trkpt>
      <trkpt lat="42.406890000" lon="-2.446750000">
        <ele>441.40</ele>
        <time>2014-11-01T07:41:04Z</time>
      </trkpt>
      <trkpt lat="42.406901000" lon="-2.446792000">
        <ele>441.40</ele>
        <time>2014-11-01T07:41:05Z</time>
      </trkpt>
      <trkpt lat="42.406913000" lon="-2.446838000">
        <ele>441.40</ele>
        <time>2014-11-01T07:41:06Z</time>
      </trkpt>
      <trkpt lat="42.406924000" lon="-2.446887000">
        <ele>441.40</ele>
        <time>2014-11-01T07:41:07Z</time>
      </trkpt>
      <trkpt lat="42.406936000" lon="-2.446930000">
        <ele>441.30</ele>
        <time>2014-11-01T07:41:08Z</time>
      </trkpt>
      <trkpt lat="42.406946000" lon="-2.446974000">
        <ele>441.30</ele>
        <time>2014-11-01T07:41:09Z</time>
      </trkpt>
      <trkpt lat="42.406949000" lon="-2.447018000">
        <ele>441.30</ele>
        <time>2014-11-01T07:41:10Z</time>
      </trkpt>
      <trkpt lat="42.406949000" lon="-2.447060000">
        <ele>441.30</ele>
        <time>2014-11-01T07:41:11Z</time>
      </trkpt>
      <trkpt lat="42.406951000" lon="-2.447101000">
        <ele>441.40</ele>
        <time>2014-11-01T07:41:12Z</time>
      </trkpt>
      <trkpt lat="42.406955000" lon="-2.447145000">
        <ele>441.50</ele>
        <time>2014-11-01T07:41:13Z</time>
      </trkpt>
      <trkpt lat="42.406961000" lon="-2.447185000">
        <ele>441.60</ele>
        <time>2014-11-01T07:41:14Z</time>
      </trkpt>
      <trkpt lat="42.406968000" lon="-2.447229000">
        <ele>441.70</ele>
        <time>2014-11-01T07:41:15Z</time>
      </trkpt>
      <trkpt lat="42.406978000" lon="-2.447268000">
        <ele>441.70</ele>
        <time>2014-11-01T07:41:16Z</time>
      </trkpt>
      <trkpt lat="42.406987000" lon="-2.447310000">
        <ele>441.80</ele>
        <time>2014-11-01T07:41:17Z</time>
      </trkpt>
      <trkpt lat="42.406996000" lon="-2.447351000">
        <ele>441.80</ele>
        <time>2014-11-01T07:41:18Z</time>
      </trkpt>
      <trkpt lat="42.407006000" lon="-2.447390000">
        <ele>441.90</ele>
        <time>2014-11-01T07:41:19Z</time>
      </trkpt>
      <trkpt lat="42.407016000" lon="-2.447432000">
        <ele>442.20</ele>
        <time>2014-11-01T07:41:20Z</time>
      </trkpt>
      <trkpt lat="42.407025000" lon="-2.447472000">
        <ele>442.30</ele>
        <time>2014-11-01T07:41:21Z</time>
      </trkpt>
      <trkpt lat="42.407035000" lon="-2.447512000">
        <ele>442.50</ele>
        <time>2014-11-01T07:41:22Z</time>
      </trkpt>
      <trkpt lat="42.407042000" lon="-2.447557000">
        <ele>442.60</ele>
        <time>2014-11-01T07:41:23Z</time>
      </trkpt>
      <trkpt lat="42.407049000" lon="-2.447600000">
        <ele>442.80</ele>
        <time>2014-11-01T07:41:24Z</time>
      </trkpt>
      <trkpt lat="42.407057000" lon="-2.447644000">
        <ele>442.90</ele>
        <time>2014-11-01T07:41:25Z</time>
      </trkpt>
      <trkpt lat="42.407066000" lon="-2.447687000">
        <ele>442.70</ele>
        <time>2014-11-01T07:41:26Z</time>
      </trkpt>
      <trkpt lat="42.407077000" lon="-2.447728000">
        <ele>442.60</ele>
        <time>2014-11-01T07:41:27Z</time>
      </trkpt>
      <trkpt lat="42.407088000" lon="-2.447768000">
        <ele>442.70</ele>
        <time>2014-11-01T07:41:28Z</time>
      </trkpt>
      <trkpt lat="42.407097000" lon="-2.447812000">
        <ele>442.80</ele>
        <time>2014-11-01T07:41:29Z</time>
      </trkpt>
      <trkpt lat="42.407107000" lon="-2.447855000">
        <ele>442.90</ele>
        <time>2014-11-01T07:41:30Z</time>
      </trkpt>
      <trkpt lat="42.407117000" lon="-2.447896000">
        <ele>443.00</ele>
        <time>2014-11-01T07:41:31Z</time>
      </trkpt>
      <trkpt lat="42.407127000" lon="-2.447938000">
        <ele>443.00</ele>
        <time>2014-11-01T07:41:32Z</time>
      </trkpt>
      <trkpt lat="42.407135000" lon="-2.447980000">
        <ele>443.00</ele>
        <time>2014-11-01T07:41:33Z</time>
      </trkpt>
      <trkpt lat="42.407146000" lon="-2.448020000">
        <ele>443.00</ele>
        <time>2014-11-01T07:41:34Z</time>
      </trkpt>
      <trkpt lat="42.407154000" lon="-2.448065000">
        <ele>443.00</ele>
        <time>2014-11-01T07:41:35Z</time>
      </trkpt>
      <trkpt lat="42.407164000" lon="-2.448106000">
        <ele>443.00</ele>
        <time>2014-11-01T07:41:36Z</time>
      </trkpt>
      <trkpt lat="42.407170000" lon="-2.448147000">
        <ele>442.90</ele>
        <time>2014-11-01T07:41:37Z</time>
      </trkpt>
      <trkpt lat="42.407174000" lon="-2.448191000">
        <ele>443.20</ele>
        <time>2014-11-01T07:41:38Z</time>
      </trkpt>
      <trkpt lat="42.407172000" lon="-2.448233000">
        <ele>443.40</ele>
        <time>2014-11-01T07:41:39Z</time>
      </trkpt>
      <trkpt lat="42.407170000" lon="-2.448274000">
        <ele>443.60</ele>
        <time>2014-11-01T07:41:40Z</time>
      </trkpt>
      <trkpt lat="42.407161000" lon="-2.448311000">
        <ele>443.80</ele>
        <time>2014-11-01T07:41:41Z</time>
      </trkpt>
      <trkpt lat="42.407149000" lon="-2.448348000">
        <ele>444.20</ele>
        <time>2014-11-01T07:41:42Z</time>
      </trkpt>
      <trkpt lat="42.407128000" lon="-2.448384000">
        <ele>444.40</ele>
        <time>2014-11-01T07:41:43Z</time>
      </trkpt>
      <trkpt lat="42.407105000" lon="-2.448417000">
        <ele>444.60</ele>
        <time>2014-11-01T07:41:44Z</time>
      </trkpt>
      <trkpt lat="42.407060000" lon="-2.448487000">
        <ele>445.00</ele>
        <time>2014-11-01T07:41:46Z</time>
      </trkpt>
      <trkpt lat="42.407035000" lon="-2.448516000">
        <ele>445.20</ele>
        <time>2014-11-01T07:41:47Z</time>
      </trkpt>
      <trkpt lat="42.407007000" lon="-2.448543000">
        <ele>445.40</ele>
        <time>2014-11-01T07:41:48Z</time>
      </trkpt>
      <trkpt lat="42.406977000" lon="-2.448566000">
        <ele>445.50</ele>
        <time>2014-11-01T07:41:49Z</time>
      </trkpt>
      <trkpt lat="42.406946000" lon="-2.448590000">
        <ele>445.70</ele>
        <time>2014-11-01T07:41:50Z</time>
      </trkpt>
      <trkpt lat="42.406917000" lon="-2.448614000">
        <ele>445.70</ele>
        <time>2014-11-01T07:41:51Z</time>
      </trkpt>
      <trkpt lat="42.406889000" lon="-2.448635000">
        <ele>445.90</ele>
        <time>2014-11-01T07:41:52Z</time>
      </trkpt>
      <trkpt lat="42.406861000" lon="-2.448657000">
        <ele>446.00</ele>
        <time>2014-11-01T07:41:53Z</time>
      </trkpt>
      <trkpt lat="42.406831000" lon="-2.448679000">
        <ele>446.00</ele>
        <time>2014-11-01T07:41:54Z</time>
      </trkpt>
      <trkpt lat="42.406799000" lon="-2.448704000">
        <ele>446.00</ele>
        <time>2014-11-01T07:41:55Z</time>
      </trkpt>
      <trkpt lat="42.406766000" lon="-2.448733000">
        <ele>445.70</ele>
        <time>2014-11-01T07:41:56Z</time>
      </trkpt>
      <trkpt lat="42.406735000" lon="-2.448765000">
        <ele>445.50</ele>
        <time>2014-11-01T07:41:57Z</time>
      </trkpt>
      <trkpt lat="42.406704000" lon="-2.448796000">
        <ele>445.30</ele>
        <time>2014-11-01T07:41:58Z</time>
      </trkpt>
      <trkpt lat="42.406677000" lon="-2.448824000">
        <ele>445.20</ele>
        <time>2014-11-01T07:41:59Z</time>
      </trkpt>
      <trkpt lat="42.406650000" lon="-2.448854000">
        <ele>445.10</ele>
        <time>2014-11-01T07:42:00Z</time>
      </trkpt>
      <trkpt lat="42.406624000" lon="-2.448885000">
        <ele>445.10</ele>
        <time>2014-11-01T07:42:01Z</time>
      </trkpt>
      <trkpt lat="42.406596000" lon="-2.448919000">
        <ele>445.20</ele>
        <time>2014-11-01T07:42:02Z</time>
      </trkpt>
      <trkpt lat="42.406568000" lon="-2.448950000">
        <ele>445.40</ele>
        <time>2014-11-01T07:42:03Z</time>
      </trkpt>
      <trkpt lat="42.406542000" lon="-2.448977000">
        <ele>445.60</ele>
        <time>2014-11-01T07:42:04Z</time>
      </trkpt>
      <trkpt lat="42.406516000" lon="-2.449004000">
        <ele>445.80</ele>
        <time>2014-11-01T07:42:05Z</time>
      </trkpt>
      <trkpt lat="42.406491000" lon="-2.449032000">
        <ele>446.00</ele>
        <time>2014-11-01T07:42:06Z</time>
      </trkpt>
      <trkpt lat="42.406465000" lon="-2.449064000">
        <ele>446.10</ele>
        <time>2014-11-01T07:42:07Z</time>
      </trkpt>
      <trkpt lat="42.406437000" lon="-2.449095000">
        <ele>446.20</ele>
        <time>2014-11-01T07:42:08Z</time>
      </trkpt>
      <trkpt lat="42.406408000" lon="-2.449121000">
        <ele>446.30</ele>
        <time>2014-11-01T07:42:09Z</time>
      </trkpt>
      <trkpt lat="42.406377000" lon="-2.449148000">
        <ele>446.50</ele>
        <time>2014-11-01T07:42:10Z</time>
      </trkpt>
      <trkpt lat="42.406347000" lon="-2.449176000">
        <ele>446.60</ele>
        <time>2014-11-01T07:42:11Z</time>
      </trkpt>
      <trkpt lat="42.406315000" lon="-2.449206000">
        <ele>446.90</ele>
        <time>2014-11-01T07:42:12Z</time>
      </trkpt>
      <trkpt lat="42.406288000" lon="-2.449230000">
        <ele>447.20</ele>
        <time>2014-11-01T07:42:13Z</time>
      </trkpt>
      <trkpt lat="42.406261000" lon="-2.449258000">
        <ele>447.40</ele>
        <time>2014-11-01T07:42:14Z</time>
      </trkpt>
      <trkpt lat="42.406236000" lon="-2.449281000">
        <ele>447.50</ele>
        <time>2014-11-01T07:42:15Z</time>
      </trkpt>
      <trkpt lat="42.406210000" lon="-2.449304000">
        <ele>447.60</ele>
        <time>2014-11-01T07:42:16Z</time>
      </trkpt>
      <trkpt lat="42.406182000" lon="-2.449322000">
        <ele>447.70</ele>
        <time>2014-11-01T07:42:17Z</time>
      </trkpt>
      <trkpt lat="42.406153000" lon="-2.449344000">
        <ele>447.60</ele>
        <time>2014-11-01T07:42:18Z</time>
      </trkpt>
      <trkpt lat="42.406123000" lon="-2.449364000">
        <ele>447.50</ele>
        <time>2014-11-01T07:42:19Z</time>
      </trkpt>
      <trkpt lat="42.406093000" lon="-2.449384000">
        <ele>447.50</ele>
        <time>2014-11-01T07:42:20Z</time>
      </trkpt>
      <trkpt lat="42.406062000" lon="-2.449404000">
        <ele>447.50</ele>
        <time>2014-11-01T07:42:21Z</time>
      </trkpt>
      <trkpt lat="42.406028000" lon="-2.449423000">
        <ele>447.50</ele>
        <time>2014-11-01T07:42:22Z</time>
      </trkpt>
      <trkpt lat="42.405995000" lon="-2.449443000">
        <ele>447.50</ele>
        <time>2014-11-01T07:42:23Z</time>
      </trkpt>
      <trkpt lat="42.405958000" lon="-2.449461000">
        <ele>447.50</ele>
        <time>2014-11-01T07:42:24Z</time>
      </trkpt>
      <trkpt lat="42.405922000" lon="-2.449483000">
        <ele>447.50</ele>
        <time>2014-11-01T07:42:25Z</time>
      </trkpt>
      <trkpt lat="42.405887000" lon="-2.449505000">
        <ele>447.30</ele>
        <time>2014-11-01T07:42:26Z</time>
      </trkpt>
      <trkpt lat="42.405854000" lon="-2.449524000">
        <ele>447.20</ele>
        <time>2014-11-01T07:42:27Z</time>
      </trkpt>
      <trkpt lat="42.405819000" lon="-2.449542000">
        <ele>447.00</ele>
        <time>2014-11-01T07:42:28Z</time>
      </trkpt>
      <trkpt lat="42.405785000" lon="-2.449565000">
        <ele>446.90</ele>
        <time>2014-11-01T07:42:29Z</time>
      </trkpt>
      <trkpt lat="42.405751000" lon="-2.449589000">
        <ele>446.70</ele>
        <time>2014-11-01T07:42:30Z</time>
      </trkpt>
      <trkpt lat="42.405717000" lon="-2.449611000">
        <ele>446.60</ele>
        <time>2014-11-01T07:42:31Z</time>
      </trkpt>
      <trkpt lat="42.405682000" lon="-2.449629000">
        <ele>446.50</ele>
        <time>2014-11-01T07:42:32Z</time>
      </trkpt>
      <trkpt lat="42.405647000" lon="-2.449647000">
        <ele>446.40</ele>
        <time>2014-11-01T07:42:33Z</time>
      </trkpt>
      <trkpt lat="42.405616000" lon="-2.449667000">
        <ele>446.30</ele>
        <time>2014-11-01T07:42:34Z</time>
      </trkpt>
      <trkpt lat="42.405581000" lon="-2.449688000">
        <ele>446.30</ele>
        <time>2014-11-01T07:42:35Z</time>
      </trkpt>
      <trkpt lat="42.405548000" lon="-2.449710000">
        <ele>446.70</ele>
        <time>2014-11-01T07:42:36Z</time>
      </trkpt>
      <trkpt lat="42.405515000" lon="-2.449731000">
        <ele>447.00</ele>
        <time>2014-11-01T07:42:37Z</time>
      </trkpt>
      <trkpt lat="42.405483000" lon="-2.449755000">
        <ele>447.40</ele>
        <time>2014-11-01T07:42:38Z</time>
      </trkpt>
      <trkpt lat="42.405450000" lon="-2.449775000">
        <ele>447.70</ele>
        <time>2014-11-01T07:42:39Z</time>
      </trkpt>
      <trkpt lat="42.405419000" lon="-2.449795000">
        <ele>447.90</ele>
        <time>2014-11-01T07:42:40Z</time>
      </trkpt>
      <trkpt lat="42.405389000" lon="-2.449816000">
        <ele>448.00</ele>
        <time>2014-11-01T07:42:41Z</time>
      </trkpt>
      <trkpt lat="42.405357000" lon="-2.449836000">
        <ele>448.00</ele>
        <time>2014-11-01T07:42:42Z</time>
      </trkpt>
      <trkpt lat="42.405326000" lon="-2.449856000">
        <ele>448.00</ele>
        <time>2014-11-01T07:42:43Z</time>
      </trkpt>
      <trkpt lat="42.405294000" lon="-2.449876000">
        <ele>448.00</ele>
        <time>2014-11-01T07:42:44Z</time>
      </trkpt>
      <trkpt lat="42.405260000" lon="-2.449897000">
        <ele>448.00</ele>
        <time>2014-11-01T07:42:45Z</time>
      </trkpt>
      <trkpt lat="42.405225000" lon="-2.449917000">
        <ele>448.00</ele>
        <time>2014-11-01T07:42:46Z</time>
      </trkpt>
      <trkpt lat="42.405159000" lon="-2.449958000">
        <ele>447.90</ele>
        <time>2014-11-01T07:42:48Z</time>
      </trkpt>
      <trkpt lat="42.405127000" lon="-2.449981000">
        <ele>447.90</ele>
        <time>2014-11-01T07:42:49Z</time>
      </trkpt>
      <trkpt lat="42.405096000" lon="-2.450007000">
        <ele>447.80</ele>
        <time>2014-11-01T07:42:50Z</time>
      </trkpt>
      <trkpt lat="42.405066000" lon="-2.450033000">
        <ele>447.80</ele>
        <time>2014-11-01T07:42:51Z</time>
      </trkpt>
      <trkpt lat="42.405035000" lon="-2.450054000">
        <ele>447.80</ele>
        <time>2014-11-01T07:42:52Z</time>
      </trkpt>
      <trkpt lat="42.405005000" lon="-2.450081000">
        <ele>447.90</ele>
        <time>2014-11-01T07:42:53Z</time>
      </trkpt>
      <trkpt lat="42.404975000" lon="-2.450109000">
        <ele>447.90</ele>
        <time>2014-11-01T07:42:54Z</time>
      </trkpt>
      <trkpt lat="42.404943000" lon="-2.450135000">
        <ele>447.90</ele>
        <time>2014-11-01T07:42:55Z</time>
      </trkpt>
      <trkpt lat="42.404911000" lon="-2.450157000">
        <ele>447.90</ele>
        <time>2014-11-01T07:42:56Z</time>
      </trkpt>
      <trkpt lat="42.404878000" lon="-2.450181000">
        <ele>447.90</ele>
        <time>2014-11-01T07:42:57Z</time>
      </trkpt>
      <trkpt lat="42.404845000" lon="-2.450204000">
        <ele>447.90</ele>
        <time>2014-11-01T07:42:58Z</time>
      </trkpt>
      <trkpt lat="42.404814000" lon="-2.450229000">
        <ele>447.90</ele>
        <time>2014-11-01T07:42:59Z</time>
      </trkpt>
      <trkpt lat="42.404783000" lon="-2.450261000">
        <ele>448.20</ele>
        <time>2014-11-01T07:43:00Z</time>
      </trkpt>
      <trkpt lat="42.404756000" lon="-2.450298000">
        <ele>448.40</ele>
        <time>2014-11-01T07:43:01Z</time>
      </trkpt>
      <trkpt lat="42.404733000" lon="-2.450336000">
        <ele>448.60</ele>
        <time>2014-11-01T07:43:02Z</time>
      </trkpt>
      <trkpt lat="42.404710000" lon="-2.450376000">
        <ele>448.70</ele>
        <time>2014-11-01T07:43:03Z</time>
      </trkpt>
      <trkpt lat="42.404691000" lon="-2.450413000">
        <ele>448.70</ele>
        <time>2014-11-01T07:43:04Z</time>
      </trkpt>
      <trkpt lat="42.404669000" lon="-2.450451000">
        <ele>448.80</ele>
        <time>2014-11-01T07:43:05Z</time>
      </trkpt>
      <trkpt lat="42.404642000" lon="-2.450492000">
        <ele>448.90</ele>
        <time>2014-11-01T07:43:06Z</time>
      </trkpt>
      <trkpt lat="42.404618000" lon="-2.450532000">
        <ele>448.90</ele>
        <time>2014-11-01T07:43:07Z</time>
      </trkpt>
      <trkpt lat="42.404598000" lon="-2.450570000">
        <ele>448.90</ele>
        <time>2014-11-01T07:43:08Z</time>
      </trkpt>
      <trkpt lat="42.404577000" lon="-2.450611000">
        <ele>448.90</ele>
        <time>2014-11-01T07:43:09Z</time>
      </trkpt>
      <trkpt lat="42.404557000" lon="-2.450654000">
        <ele>449.00</ele>
        <time>2014-11-01T07:43:10Z</time>
      </trkpt>
      <trkpt lat="42.404538000" lon="-2.450694000">
        <ele>449.00</ele>
        <time>2014-11-01T07:43:11Z</time>
      </trkpt>
      <trkpt lat="42.404519000" lon="-2.450733000">
        <ele>449.10</ele>
        <time>2014-11-01T07:43:12Z</time>
      </trkpt>
      <trkpt lat="42.404499000" lon="-2.450771000">
        <ele>449.20</ele>
        <time>2014-11-01T07:43:13Z</time>
      </trkpt>
      <trkpt lat="42.404477000" lon="-2.450809000">
        <ele>449.30</ele>
        <time>2014-11-01T07:43:14Z</time>
      </trkpt>
      <trkpt lat="42.404453000" lon="-2.450846000">
        <ele>449.30</ele>
        <time>2014-11-01T07:43:15Z</time>
      </trkpt>
      <trkpt lat="42.404428000" lon="-2.450885000">
        <ele>449.40</ele>
        <time>2014-11-01T07:43:16Z</time>
      </trkpt>
      <trkpt lat="42.404400000" lon="-2.450918000">
        <ele>449.50</ele>
        <time>2014-11-01T07:43:17Z</time>
      </trkpt>
      <trkpt lat="42.404370000" lon="-2.450953000">
        <ele>449.50</ele>
        <time>2014-11-01T07:43:18Z</time>
      </trkpt>
      <trkpt lat="42.404337000" lon="-2.450985000">
        <ele>449.50</ele>
        <time>2014-11-01T07:43:19Z</time>
      </trkpt>
      <trkpt lat="42.404306000" lon="-2.451017000">
        <ele>449.40</ele>
        <time>2014-11-01T07:43:20Z</time>
      </trkpt>
      <trkpt lat="42.404272000" lon="-2.451047000">
        <ele>449.30</ele>
        <time>2014-11-01T07:43:21Z</time>
      </trkpt>
      <trkpt lat="42.404238000" lon="-2.451076000">
        <ele>449.20</ele>
        <time>2014-11-01T07:43:22Z</time>
      </trkpt>
      <trkpt lat="42.404205000" lon="-2.451107000">
        <ele>449.20</ele>
        <time>2014-11-01T07:43:23Z</time>
      </trkpt>
      <trkpt lat="42.404174000" lon="-2.451138000">
        <ele>449.10</ele>
        <time>2014-11-01T07:43:24Z</time>
      </trkpt>
      <trkpt lat="42.404141000" lon="-2.451170000">
        <ele>449.10</ele>
        <time>2014-11-01T07:43:25Z</time>
      </trkpt>
      <trkpt lat="42.404111000" lon="-2.451203000">
        <ele>449.10</ele>
        <time>2014-11-01T07:43:26Z</time>
      </trkpt>
      <trkpt lat="42.404083000" lon="-2.451239000">
        <ele>449.00</ele>
        <time>2014-11-01T07:43:27Z</time>
      </trkpt>
      <trkpt lat="42.404053000" lon="-2.451274000">
        <ele>449.20</ele>
        <time>2014-11-01T07:43:28Z</time>
      </trkpt>
      <trkpt lat="42.404026000" lon="-2.451313000">
        <ele>449.30</ele>
        <time>2014-11-01T07:43:29Z</time>
      </trkpt>
      <trkpt lat="42.404000000" lon="-2.451348000">
        <ele>449.30</ele>
        <time>2014-11-01T07:43:30Z</time>
      </trkpt>
      <trkpt lat="42.403972000" lon="-2.451383000">
        <ele>449.40</ele>
        <time>2014-11-01T07:43:31Z</time>
      </trkpt>
      <trkpt lat="42.403945000" lon="-2.451419000">
        <ele>449.50</ele>
        <time>2014-11-01T07:43:32Z</time>
      </trkpt>
      <trkpt lat="42.403918000" lon="-2.451456000">
        <ele>449.50</ele>
        <time>2014-11-01T07:43:33Z</time>
      </trkpt>
      <trkpt lat="42.403889000" lon="-2.451489000">
        <ele>449.50</ele>
        <time>2014-11-01T07:43:34Z</time>
      </trkpt>
      <trkpt lat="42.403861000" lon="-2.451526000">
        <ele>449.40</ele>
        <time>2014-11-01T07:43:35Z</time>
      </trkpt>
      <trkpt lat="42.403832000" lon="-2.451562000">
        <ele>449.50</ele>
        <time>2014-11-01T07:43:36Z</time>
      </trkpt>
      <trkpt lat="42.403804000" lon="-2.451600000">
        <ele>449.60</ele>
        <time>2014-11-01T07:43:37Z</time>
      </trkpt>
      <trkpt lat="42.403779000" lon="-2.451634000">
        <ele>449.50</ele>
        <time>2014-11-01T07:43:38Z</time>
      </trkpt>
      <trkpt lat="42.403754000" lon="-2.451673000">
        <ele>449.40</ele>
        <time>2014-11-01T07:43:39Z</time>
      </trkpt>
      <trkpt lat="42.403723000" lon="-2.451708000">
        <ele>449.50</ele>
        <time>2014-11-01T07:43:40Z</time>
      </trkpt>
      <trkpt lat="42.403694000" lon="-2.451742000">
        <ele>449.50</ele>
        <time>2014-11-01T07:43:41Z</time>
      </trkpt>
      <trkpt lat="42.403665000" lon="-2.451772000">
        <ele>449.50</ele>
        <time>2014-11-01T07:43:42Z</time>
      </trkpt>
      <trkpt lat="42.403634000" lon="-2.451804000">
        <ele>449.50</ele>
        <time>2014-11-01T07:43:43Z</time>
      </trkpt>
      <trkpt lat="42.403601000" lon="-2.451829000">
        <ele>449.50</ele>
        <time>2014-11-01T07:43:44Z</time>
      </trkpt>
      <trkpt lat="42.403566000" lon="-2.451856000">
        <ele>449.50</ele>
        <time>2014-11-01T07:43:45Z</time>
      </trkpt>
      <trkpt lat="42.403534000" lon="-2.451879000">
        <ele>449.50</ele>
        <time>2014-11-01T07:43:46Z</time>
      </trkpt>
      <trkpt lat="42.403501000" lon="-2.451901000">
        <ele>449.50</ele>
        <time>2014-11-01T07:43:47Z</time>
      </trkpt>
      <trkpt lat="42.403467000" lon="-2.451923000">
        <ele>449.50</ele>
        <time>2014-11-01T07:43:48Z</time>
      </trkpt>
      <trkpt lat="42.403401000" lon="-2.451968000">
        <ele>449.50</ele>
        <time>2014-11-01T07:43:50Z</time>
      </trkpt>
      <trkpt lat="42.403372000" lon="-2.451988000">
        <ele>449.50</ele>
        <time>2014-11-01T07:43:51Z</time>
      </trkpt>
      <trkpt lat="42.403340000" lon="-2.452012000">
        <ele>449.60</ele>
        <time>2014-11-01T07:43:52Z</time>
      </trkpt>
      <trkpt lat="42.403309000" lon="-2.452039000">
        <ele>449.70</ele>
        <time>2014-11-01T07:43:53Z</time>
      </trkpt>
      <trkpt lat="42.403276000" lon="-2.452069000">
        <ele>449.80</ele>
        <time>2014-11-01T07:43:54Z</time>
      </trkpt>
      <trkpt lat="42.403243000" lon="-2.452099000">
        <ele>449.90</ele>
        <time>2014-11-01T07:43:55Z</time>
      </trkpt>
      <trkpt lat="42.403211000" lon="-2.452128000">
        <ele>449.90</ele>
        <time>2014-11-01T07:43:56Z</time>
      </trkpt>
      <trkpt lat="42.403180000" lon="-2.452162000">
        <ele>449.90</ele>
        <time>2014-11-01T07:43:57Z</time>
      </trkpt>
      <trkpt lat="42.403149000" lon="-2.452194000">
        <ele>449.70</ele>
        <time>2014-11-01T07:43:58Z</time>
      </trkpt>
      <trkpt lat="42.403115000" lon="-2.452225000">
        <ele>449.50</ele>
        <time>2014-11-01T07:43:59Z</time>
      </trkpt>
      <trkpt lat="42.403083000" lon="-2.452257000">
        <ele>449.40</ele>
        <time>2014-11-01T07:44:00Z</time>
      </trkpt>
      <trkpt lat="42.403049000" lon="-2.452284000">
        <ele>449.30</ele>
        <time>2014-11-01T07:44:01Z</time>
      </trkpt>
      <trkpt lat="42.403016000" lon="-2.452308000">
        <ele>449.50</ele>
        <time>2014-11-01T07:44:02Z</time>
      </trkpt>
      <trkpt lat="42.402984000" lon="-2.452329000">
        <ele>449.60</ele>
        <time>2014-11-01T07:44:03Z</time>
      </trkpt>
      <trkpt lat="42.402950000" lon="-2.452351000">
        <ele>449.70</ele>
        <time>2014-11-01T07:44:04Z</time>
      </trkpt>
      <trkpt lat="42.402915000" lon="-2.452368000">
        <ele>449.80</ele>
        <time>2014-11-01T07:44:05Z</time>
      </trkpt>
      <trkpt lat="42.402880000" lon="-2.452384000">
        <ele>449.90</ele>
        <time>2014-11-01T07:44:06Z</time>
      </trkpt>
      <trkpt lat="42.402849000" lon="-2.452407000">
        <ele>449.90</ele>
        <time>2014-11-01T07:44:07Z</time>
      </trkpt>
      <trkpt lat="42.402816000" lon="-2.452433000">
        <ele>449.70</ele>
        <time>2014-11-01T07:44:08Z</time>
      </trkpt>
      <trkpt lat="42.402783000" lon="-2.452462000">
        <ele>449.60</ele>
        <time>2014-11-01T07:44:09Z</time>
      </trkpt>
      <trkpt lat="42.402750000" lon="-2.452492000">
        <ele>449.70</ele>
        <time>2014-11-01T07:44:10Z</time>
      </trkpt>
      <trkpt lat="42.402718000" lon="-2.452524000">
        <ele>449.80</ele>
        <time>2014-11-01T07:44:11Z</time>
      </trkpt>
      <trkpt lat="42.402688000" lon="-2.452558000">
        <ele>449.90</ele>
        <time>2014-11-01T07:44:12Z</time>
      </trkpt>
      <trkpt lat="42.402659000" lon="-2.452595000">
        <ele>450.00</ele>
        <time>2014-11-01T07:44:13Z</time>
      </trkpt>
      <trkpt lat="42.402631000" lon="-2.452633000">
        <ele>450.20</ele>
        <time>2014-11-01T07:44:14Z</time>
      </trkpt>
      <trkpt lat="42.402604000" lon="-2.452671000">
        <ele>450.40</ele>
        <time>2014-11-01T07:44:15Z</time>
      </trkpt>
      <trkpt lat="42.402577000" lon="-2.452709000">
        <ele>450.50</ele>
        <time>2014-11-01T07:44:16Z</time>
      </trkpt>
      <trkpt lat="42.402551000" lon="-2.452745000">
        <ele>450.60</ele>
        <time>2014-11-01T07:44:17Z</time>
      </trkpt>
      <trkpt lat="42.402528000" lon="-2.452777000">
        <ele>450.60</ele>
        <time>2014-11-01T07:44:18Z</time>
      </trkpt>
      <trkpt lat="42.402500000" lon="-2.452811000">
        <ele>450.70</ele>
        <time>2014-11-01T07:44:19Z</time>
      </trkpt>
      <trkpt lat="42.402473000" lon="-2.452845000">
        <ele>450.60</ele>
        <time>2014-11-01T07:44:20Z</time>
      </trkpt>
      <trkpt lat="42.402444000" lon="-2.452878000">
        <ele>450.60</ele>
        <time>2014-11-01T07:44:21Z</time>
      </trkpt>
      <trkpt lat="42.402414000" lon="-2.452912000">
        <ele>450.70</ele>
        <time>2014-11-01T07:44:22Z</time>
      </trkpt>
      <trkpt lat="42.402385000" lon="-2.452950000">
        <ele>450.70</ele>
        <time>2014-11-01T07:44:23Z</time>
      </trkpt>
      <trkpt lat="42.402355000" lon="-2.452987000">
        <ele>450.70</ele>
        <time>2014-11-01T07:44:24Z</time>
      </trkpt>
      <trkpt lat="42.402322000" lon="-2.453025000">
        <ele>450.70</ele>
        <time>2014-11-01T07:44:25Z</time>
      </trkpt>
      <trkpt lat="42.402288000" lon="-2.453059000">
        <ele>450.80</ele>
        <time>2014-11-01T07:44:26Z</time>
      </trkpt>
      <trkpt lat="42.402253000" lon="-2.453091000">
        <ele>450.80</ele>
        <time>2014-11-01T07:44:27Z</time>
      </trkpt>
      <trkpt lat="42.402219000" lon="-2.453125000">
        <ele>450.70</ele>
        <time>2014-11-01T07:44:28Z</time>
      </trkpt>
      <trkpt lat="42.402186000" lon="-2.453157000">
        <ele>450.70</ele>
        <time>2014-11-01T07:44:29Z</time>
      </trkpt>
      <trkpt lat="42.402147000" lon="-2.453192000">
        <ele>450.60</ele>
        <time>2014-11-01T07:44:30Z</time>
      </trkpt>
      <trkpt lat="42.402111000" lon="-2.453224000">
        <ele>450.60</ele>
        <time>2014-11-01T07:44:31Z</time>
      </trkpt>
      <trkpt lat="42.402075000" lon="-2.453258000">
        <ele>450.60</ele>
        <time>2014-11-01T07:44:32Z</time>
      </trkpt>
      <trkpt lat="42.402042000" lon="-2.453285000">
        <ele>450.60</ele>
        <time>2014-11-01T07:44:33Z</time>
      </trkpt>
      <trkpt lat="42.402004000" lon="-2.453318000">
        <ele>450.60</ele>
        <time>2014-11-01T07:44:34Z</time>
      </trkpt>
      <trkpt lat="42.401966000" lon="-2.453350000">
        <ele>450.60</ele>
        <time>2014-11-01T07:44:35Z</time>
      </trkpt>
      <trkpt lat="42.401931000" lon="-2.453380000">
        <ele>450.60</ele>
        <time>2014-11-01T07:44:36Z</time>
      </trkpt>
      <trkpt lat="42.401899000" lon="-2.453408000">
        <ele>450.60</ele>
        <time>2014-11-01T07:44:37Z</time>
      </trkpt>
      <trkpt lat="42.401864000" lon="-2.453433000">
        <ele>450.70</ele>
        <time>2014-11-01T07:44:38Z</time>
      </trkpt>
      <trkpt lat="42.401830000" lon="-2.453459000">
        <ele>450.80</ele>
        <time>2014-11-01T07:44:39Z</time>
      </trkpt>
      <trkpt lat="42.401793000" lon="-2.453488000">
        <ele>451.10</ele>
        <time>2014-11-01T07:44:40Z</time>
      </trkpt>
      <trkpt lat="42.401757000" lon="-2.453509000">
        <ele>451.30</ele>
        <time>2014-11-01T07:44:41Z</time>
      </trkpt>
      <trkpt lat="42.401722000" lon="-2.453534000">
        <ele>451.50</ele>
        <time>2014-11-01T07:44:42Z</time>
      </trkpt>
      <trkpt lat="42.401689000" lon="-2.453556000">
        <ele>451.60</ele>
        <time>2014-11-01T07:44:43Z</time>
      </trkpt>
      <trkpt lat="42.401658000" lon="-2.453579000">
        <ele>451.70</ele>
        <time>2014-11-01T07:44:44Z</time>
      </trkpt>
      <trkpt lat="42.401626000" lon="-2.453607000">
        <ele>451.80</ele>
        <time>2014-11-01T07:44:45Z</time>
      </trkpt>
      <trkpt lat="42.401594000" lon="-2.453635000">
        <ele>451.60</ele>
        <time>2014-11-01T07:44:46Z</time>
      </trkpt>
      <trkpt lat="42.401566000" lon="-2.453663000">
        <ele>451.50</ele>
        <time>2014-11-01T07:44:47Z</time>
      </trkpt>
      <trkpt lat="42.401536000" lon="-2.453694000">
        <ele>451.40</ele>
        <time>2014-11-01T07:44:48Z</time>
      </trkpt>
      <trkpt lat="42.401507000" lon="-2.453728000">
        <ele>451.30</ele>
        <time>2014-11-01T07:44:49Z</time>
      </trkpt>
      <trkpt lat="42.401482000" lon="-2.453760000">
        <ele>451.20</ele>
        <time>2014-11-01T07:44:50Z</time>
      </trkpt>
      <trkpt lat="42.401428000" lon="-2.453824000">
        <ele>451.30</ele>
        <time>2014-11-01T07:44:52Z</time>
      </trkpt>
      <trkpt lat="42.401401000" lon="-2.453860000">
        <ele>451.30</ele>
        <time>2014-11-01T07:44:53Z</time>
      </trkpt>
      <trkpt lat="42.401372000" lon="-2.453899000">
        <ele>451.40</ele>
        <time>2014-11-01T07:44:54Z</time>
      </trkpt>
      <trkpt lat="42.401340000" lon="-2.453939000">
        <ele>451.40</ele>
        <time>2014-11-01T07:44:55Z</time>
      </trkpt>
      <trkpt lat="42.401314000" lon="-2.453975000">
        <ele>451.40</ele>
        <time>2014-11-01T07:44:56Z</time>
      </trkpt>
      <trkpt lat="42.401283000" lon="-2.454013000">
        <ele>451.40</ele>
        <time>2014-11-01T07:44:57Z</time>
      </trkpt>
      <trkpt lat="42.401252000" lon="-2.454047000">
        <ele>451.30</ele>
        <time>2014-11-01T07:44:58Z</time>
      </trkpt>
      <trkpt lat="42.401222000" lon="-2.454079000">
        <ele>451.30</ele>
        <time>2014-11-01T07:44:59Z</time>
      </trkpt>
      <trkpt lat="42.401196000" lon="-2.454110000">
        <ele>451.20</ele>
        <time>2014-11-01T07:45:00Z</time>
      </trkpt>
      <trkpt lat="42.401165000" lon="-2.454139000">
        <ele>451.20</ele>
        <time>2014-11-01T07:45:01Z</time>
      </trkpt>
      <trkpt lat="42.401129000" lon="-2.454167000">
        <ele>451.00</ele>
        <time>2014-11-01T07:45:02Z</time>
      </trkpt>
      <trkpt lat="42.401095000" lon="-2.454198000">
        <ele>450.90</ele>
        <time>2014-11-01T07:45:03Z</time>
      </trkpt>
      <trkpt lat="42.401063000" lon="-2.454227000">
        <ele>451.00</ele>
        <time>2014-11-01T07:45:04Z</time>
      </trkpt>
      <trkpt lat="42.401028000" lon="-2.454258000">
        <ele>451.20</ele>
        <time>2014-11-01T07:45:05Z</time>
      </trkpt>
      <trkpt lat="42.400993000" lon="-2.454290000">
        <ele>451.20</ele>
        <time>2014-11-01T07:45:06Z</time>
      </trkpt>
      <trkpt lat="42.400958000" lon="-2.454318000">
        <ele>451.30</ele>
        <time>2014-11-01T07:45:07Z</time>
      </trkpt>
      <trkpt lat="42.400924000" lon="-2.454345000">
        <ele>451.30</ele>
        <time>2014-11-01T07:45:08Z</time>
      </trkpt>
      <trkpt lat="42.400890000" lon="-2.454370000">
        <ele>451.40</ele>
        <time>2014-11-01T07:45:09Z</time>
      </trkpt>
      <trkpt lat="42.400857000" lon="-2.454391000">
        <ele>451.40</ele>
        <time>2014-11-01T07:45:10Z</time>
      </trkpt>
      <trkpt lat="42.400823000" lon="-2.454410000">
        <ele>451.40</ele>
        <time>2014-11-01T07:45:11Z</time>
      </trkpt>
      <trkpt lat="42.400790000" lon="-2.454429000">
        <ele>451.40</ele>
        <time>2014-11-01T07:45:12Z</time>
      </trkpt>
      <trkpt lat="42.400758000" lon="-2.454448000">
        <ele>451.50</ele>
        <time>2014-11-01T07:45:13Z</time>
      </trkpt>
      <trkpt lat="42.400724000" lon="-2.454466000">
        <ele>451.80</ele>
        <time>2014-11-01T07:45:14Z</time>
      </trkpt>
      <trkpt lat="42.400690000" lon="-2.454485000">
        <ele>452.00</ele>
        <time>2014-11-01T07:45:15Z</time>
      </trkpt>
      <trkpt lat="42.400654000" lon="-2.454503000">
        <ele>452.20</ele>
        <time>2014-11-01T07:45:16Z</time>
      </trkpt>
      <trkpt lat="42.400621000" lon="-2.454522000">
        <ele>452.40</ele>
        <time>2014-11-01T07:45:17Z</time>
      </trkpt>
      <trkpt lat="42.400589000" lon="-2.454542000">
        <ele>452.40</ele>
        <time>2014-11-01T07:45:18Z</time>
      </trkpt>
      <trkpt lat="42.400557000" lon="-2.454561000">
        <ele>452.40</ele>
        <time>2014-11-01T07:45:19Z</time>
      </trkpt>
      <trkpt lat="42.400525000" lon="-2.454578000">
        <ele>452.50</ele>
        <time>2014-11-01T07:45:20Z</time>
      </trkpt>
      <trkpt lat="42.400491000" lon="-2.454601000">
        <ele>452.50</ele>
        <time>2014-11-01T07:45:21Z</time>
      </trkpt>
      <trkpt lat="42.400455000" lon="-2.454624000">
        <ele>452.50</ele>
        <time>2014-11-01T07:45:22Z</time>
      </trkpt>
      <trkpt lat="42.400418000" lon="-2.454645000">
        <ele>452.50</ele>
        <time>2014-11-01T07:45:23Z</time>
      </trkpt>
      <trkpt lat="42.400382000" lon="-2.454666000">
        <ele>452.50</ele>
        <time>2014-11-01T07:45:24Z</time>
      </trkpt>
      <trkpt lat="42.400345000" lon="-2.454689000">
        <ele>452.60</ele>
        <time>2014-11-01T07:45:25Z</time>
      </trkpt>
      <trkpt lat="42.400306000" lon="-2.454712000">
        <ele>452.70</ele>
        <time>2014-11-01T07:45:26Z</time>
      </trkpt>
      <trkpt lat="42.400271000" lon="-2.454732000">
        <ele>452.90</ele>
        <time>2014-11-01T07:45:27Z</time>
      </trkpt>
      <trkpt lat="42.400236000" lon="-2.454755000">
        <ele>452.90</ele>
        <time>2014-11-01T07:45:28Z</time>
      </trkpt>
      <trkpt lat="42.400201000" lon="-2.454774000">
        <ele>453.00</ele>
        <time>2014-11-01T07:45:29Z</time>
      </trkpt>
      <trkpt lat="42.400165000" lon="-2.454795000">
        <ele>453.10</ele>
        <time>2014-11-01T07:45:30Z</time>
      </trkpt>
      <trkpt lat="42.400130000" lon="-2.454813000">
        <ele>453.20</ele>
        <time>2014-11-01T07:45:31Z</time>
      </trkpt>
      <trkpt lat="42.400098000" lon="-2.454831000">
        <ele>453.20</ele>
        <time>2014-11-01T07:45:32Z</time>
      </trkpt>
      <trkpt lat="42.400062000" lon="-2.454851000">
        <ele>453.20</ele>
        <time>2014-11-01T07:45:33Z</time>
      </trkpt>
      <trkpt lat="42.400025000" lon="-2.454874000">
        <ele>453.30</ele>
        <time>2014-11-01T07:45:34Z</time>
      </trkpt>
      <trkpt lat="42.399990000" lon="-2.454899000">
        <ele>453.30</ele>
        <time>2014-11-01T07:45:35Z</time>
      </trkpt>
      <trkpt lat="42.399956000" lon="-2.454924000">
        <ele>453.40</ele>
        <time>2014-11-01T07:45:36Z</time>
      </trkpt>
      <trkpt lat="42.399924000" lon="-2.454950000">
        <ele>453.40</ele>
        <time>2014-11-01T07:45:37Z</time>
      </trkpt>
      <trkpt lat="42.399890000" lon="-2.454981000">
        <ele>453.40</ele>
        <time>2014-11-01T07:45:38Z</time>
      </trkpt>
      <trkpt lat="42.399859000" lon="-2.455014000">
        <ele>453.40</ele>
        <time>2014-11-01T07:45:39Z</time>
      </trkpt>
      <trkpt lat="42.399829000" lon="-2.455047000">
        <ele>453.40</ele>
        <time>2014-11-01T07:45:40Z</time>
      </trkpt>
      <trkpt lat="42.399800000" lon="-2.455079000">
        <ele>453.40</ele>
        <time>2014-11-01T07:45:41Z</time>
      </trkpt>
      <trkpt lat="42.399770000" lon="-2.455110000">
        <ele>453.60</ele>
        <time>2014-11-01T07:45:42Z</time>
      </trkpt>
      <trkpt lat="42.399744000" lon="-2.455144000">
        <ele>453.70</ele>
        <time>2014-11-01T07:45:43Z</time>
      </trkpt>
      <trkpt lat="42.399715000" lon="-2.455175000">
        <ele>453.80</ele>
        <time>2014-11-01T07:45:44Z</time>
      </trkpt>
      <trkpt lat="42.399687000" lon="-2.455201000">
        <ele>453.80</ele>
        <time>2014-11-01T07:45:45Z</time>
      </trkpt>
      <trkpt lat="42.399661000" lon="-2.455225000">
        <ele>453.60</ele>
        <time>2014-11-01T07:45:46Z</time>
      </trkpt>
      <trkpt lat="42.399643000" lon="-2.455249000">
        <ele>453.40</ele>
        <time>2014-11-01T07:45:47Z</time>
      </trkpt>
      <trkpt lat="42.399625000" lon="-2.455268000">
        <ele>453.30</ele>
        <time>2014-11-01T07:45:48Z</time>
      </trkpt>
      <trkpt lat="42.399607000" lon="-2.455283000">
        <ele>453.20</ele>
        <time>2014-11-01T07:45:49Z</time>
      </trkpt>
      <trkpt lat="42.399588000" lon="-2.455295000">
        <ele>453.40</ele>
        <time>2014-11-01T07:45:50Z</time>
      </trkpt>
      <trkpt lat="42.399572000" lon="-2.455307000">
        <ele>453.60</ele>
        <time>2014-11-01T07:45:51Z</time>
      </trkpt>
      <trkpt lat="42.399557000" lon="-2.455319000">
        <ele>453.70</ele>
        <time>2014-11-01T07:45:52Z</time>
      </trkpt>
      <trkpt lat="42.399523000" lon="-2.455340000">
        <ele>453.90</ele>
        <time>2014-11-01T07:45:54Z</time>
      </trkpt>
      <trkpt lat="42.399505000" lon="-2.455350000">
        <ele>453.90</ele>
        <time>2014-11-01T07:45:55Z</time>
      </trkpt>
      <trkpt lat="42.399487000" lon="-2.455359000">
        <ele>453.90</ele>
        <time>2014-11-01T07:45:56Z</time>
      </trkpt>
      <trkpt lat="42.399473000" lon="-2.455367000">
        <ele>453.90</ele>
        <time>2014-11-01T07:45:57Z</time>
      </trkpt>
      <trkpt lat="42.399458000" lon="-2.455378000">
        <ele>454.00</ele>
        <time>2014-11-01T07:45:58Z</time>
      </trkpt>
      <trkpt lat="42.399444000" lon="-2.455387000">
        <ele>454.00</ele>
        <time>2014-11-01T07:45:59Z</time>
      </trkpt>
      <trkpt lat="42.399431000" lon="-2.455397000">
        <ele>453.80</ele>
        <time>2014-11-01T07:46:00Z</time>
      </trkpt>
      <trkpt lat="42.399418000" lon="-2.455405000">
        <ele>453.70</ele>
        <time>2014-11-01T07:46:01Z</time>
      </trkpt>
      <trkpt lat="42.399407000" lon="-2.455414000">
        <ele>453.70</ele>
        <time>2014-11-01T07:46:02Z</time>
      </trkpt>
      <trkpt lat="42.399396000" lon="-2.455423000">
        <ele>453.60</ele>
        <time>2014-11-01T07:46:03Z</time>
      </trkpt>
      <trkpt lat="42.399381000" lon="-2.455435000">
        <ele>453.70</ele>
        <time>2014-11-01T07:46:04Z</time>
      </trkpt>
      <trkpt lat="42.399364000" lon="-2.455449000">
        <ele>453.70</ele>
        <time>2014-11-01T07:46:05Z</time>
      </trkpt>
      <trkpt lat="42.399348000" lon="-2.455464000">
        <ele>453.70</ele>
        <time>2014-11-01T07:46:06Z</time>
      </trkpt>
      <trkpt lat="42.399331000" lon="-2.455479000">
        <ele>453.70</ele>
        <time>2014-11-01T07:46:07Z</time>
      </trkpt>
      <trkpt lat="42.399312000" lon="-2.455489000">
        <ele>453.60</ele>
        <time>2014-11-01T07:46:08Z</time>
      </trkpt>
      <trkpt lat="42.399295000" lon="-2.455502000">
        <ele>453.50</ele>
        <time>2014-11-01T07:46:09Z</time>
      </trkpt>
      <trkpt lat="42.399275000" lon="-2.455513000">
        <ele>453.40</ele>
        <time>2014-11-01T07:46:10Z</time>
      </trkpt>
      <trkpt lat="42.399256000" lon="-2.455521000">
        <ele>453.40</ele>
        <time>2014-11-01T07:46:11Z</time>
      </trkpt>
      <trkpt lat="42.399243000" lon="-2.455533000">
        <ele>453.40</ele>
        <time>2014-11-01T07:46:12Z</time>
      </trkpt>
      <trkpt lat="42.399224000" lon="-2.455549000">
        <ele>453.40</ele>
        <time>2014-11-01T07:46:13Z</time>
      </trkpt>
      <trkpt lat="42.399209000" lon="-2.455563000">
        <ele>453.60</ele>
        <time>2014-11-01T07:46:14Z</time>
      </trkpt>
      <trkpt lat="42.399186000" lon="-2.455576000">
        <ele>453.70</ele>
        <time>2014-11-01T07:46:15Z</time>
      </trkpt>
      <trkpt lat="42.399163000" lon="-2.455586000">
        <ele>453.70</ele>
        <time>2014-11-01T07:46:16Z</time>
      </trkpt>
      <trkpt lat="42.399137000" lon="-2.455597000">
        <ele>453.80</ele>
        <time>2014-11-01T07:46:17Z</time>
      </trkpt>
      <trkpt lat="42.399110000" lon="-2.455609000">
        <ele>453.60</ele>
        <time>2014-11-01T07:46:18Z</time>
      </trkpt>
      <trkpt lat="42.399080000" lon="-2.455620000">
        <ele>453.40</ele>
        <time>2014-11-01T07:46:19Z</time>
      </trkpt>
      <trkpt lat="42.399050000" lon="-2.455630000">
        <ele>453.30</ele>
        <time>2014-11-01T07:46:20Z</time>
      </trkpt>
      <trkpt lat="42.399018000" lon="-2.455645000">
        <ele>453.20</ele>
        <time>2014-11-01T07:46:21Z</time>
      </trkpt>
      <trkpt lat="42.398990000" lon="-2.455654000">
        <ele>453.30</ele>
        <time>2014-11-01T07:46:22Z</time>
      </trkpt>
      <trkpt lat="42.398966000" lon="-2.455663000">
        <ele>453.30</ele>
        <time>2014-11-01T07:46:23Z</time>
      </trkpt>
      <trkpt lat="42.398940000" lon="-2.455673000">
        <ele>453.40</ele>
        <time>2014-11-01T07:46:24Z</time>
      </trkpt>
      <trkpt lat="42.398915000" lon="-2.455682000">
        <ele>453.40</ele>
        <time>2014-11-01T07:46:25Z</time>
      </trkpt>
      <trkpt lat="42.398887000" lon="-2.455692000">
        <ele>453.30</ele>
        <time>2014-11-01T07:46:26Z</time>
      </trkpt>
      <trkpt lat="42.398861000" lon="-2.455700000">
        <ele>453.30</ele>
        <time>2014-11-01T07:46:27Z</time>
      </trkpt>
      <trkpt lat="42.398834000" lon="-2.455708000">
        <ele>453.30</ele>
        <time>2014-11-01T07:46:28Z</time>
      </trkpt>
      <trkpt lat="42.398805000" lon="-2.455715000">
        <ele>453.30</ele>
        <time>2014-11-01T07:46:29Z</time>
      </trkpt>
      <trkpt lat="42.398773000" lon="-2.455723000">
        <ele>453.30</ele>
        <time>2014-11-01T07:46:30Z</time>
      </trkpt>
      <trkpt lat="42.398756000" lon="-2.455733000">
        <ele>453.20</ele>
        <time>2014-11-01T07:46:31Z</time>
      </trkpt>
      <trkpt lat="42.398734000" lon="-2.455743000">
        <ele>453.50</ele>
        <time>2014-11-01T07:46:32Z</time>
      </trkpt>
      <trkpt lat="42.398705000" lon="-2.455763000">
        <ele>453.70</ele>
        <time>2014-11-01T07:46:33Z</time>
      </trkpt>
      <trkpt lat="42.398675000" lon="-2.455784000">
        <ele>453.80</ele>
        <time>2014-11-01T07:46:34Z</time>
      </trkpt>
      <trkpt lat="42.398645000" lon="-2.455800000">
        <ele>453.90</ele>
        <time>2014-11-01T07:46:35Z</time>
      </trkpt>
      <trkpt lat="42.398617000" lon="-2.455816000">
        <ele>454.10</ele>
        <time>2014-11-01T07:46:36Z</time>
      </trkpt>
      <trkpt lat="42.398590000" lon="-2.455827000">
        <ele>454.30</ele>
        <time>2014-11-01T07:46:37Z</time>
      </trkpt>
      <trkpt lat="42.398567000" lon="-2.455841000">
        <ele>454.60</ele>
        <time>2014-11-01T07:46:38Z</time>
      </trkpt>
      <trkpt lat="42.398542000" lon="-2.455856000">
        <ele>454.80</ele>
        <time>2014-11-01T07:46:39Z</time>
      </trkpt>
      <trkpt lat="42.398516000" lon="-2.455867000">
        <ele>455.00</ele>
        <time>2014-11-01T07:46:40Z</time>
      </trkpt>
      <trkpt lat="42.398491000" lon="-2.455876000">
        <ele>455.10</ele>
        <time>2014-11-01T07:46:41Z</time>
      </trkpt>
      <trkpt lat="42.398466000" lon="-2.455891000">
        <ele>455.10</ele>
        <time>2014-11-01T07:46:42Z</time>
      </trkpt>
      <trkpt lat="42.398441000" lon="-2.455903000">
        <ele>455.10</ele>
        <time>2014-11-01T07:46:43Z</time>
      </trkpt>
      <trkpt lat="42.398417000" lon="-2.455918000">
        <ele>455.00</ele>
        <time>2014-11-01T07:46:44Z</time>
      </trkpt>
      <trkpt lat="42.398394000" lon="-2.455934000">
        <ele>455.00</ele>
        <time>2014-11-01T07:46:45Z</time>
      </trkpt>
      <trkpt lat="42.398368000" lon="-2.455946000">
        <ele>455.10</ele>
        <time>2014-11-01T07:46:46Z</time>
      </trkpt>
      <trkpt lat="42.398343000" lon="-2.455961000">
        <ele>455.20</ele>
        <time>2014-11-01T07:46:47Z</time>
      </trkpt>
      <trkpt lat="42.398319000" lon="-2.455975000">
        <ele>455.70</ele>
        <time>2014-11-01T07:46:48Z</time>
      </trkpt>
      <trkpt lat="42.398290000" lon="-2.455986000">
        <ele>456.10</ele>
        <time>2014-11-01T07:46:49Z</time>
      </trkpt>
      <trkpt lat="42.398264000" lon="-2.455990000">
        <ele>456.40</ele>
        <time>2014-11-01T07:46:50Z</time>
      </trkpt>
      <trkpt lat="42.398238000" lon="-2.455997000">
        <ele>456.60</ele>
        <time>2014-11-01T07:46:51Z</time>
      </trkpt>
      <trkpt lat="42.398213000" lon="-2.456004000">
        <ele>456.50</ele>
        <time>2014-11-01T07:46:52Z</time>
      </trkpt>
      <trkpt lat="42.398186000" lon="-2.456014000">
        <ele>456.40</ele>
        <time>2014-11-01T07:46:53Z</time>
      </trkpt>
      <trkpt lat="42.398157000" lon="-2.456023000">
        <ele>456.40</ele>
        <time>2014-11-01T07:46:54Z</time>
      </trkpt>
      <trkpt lat="42.398093000" lon="-2.456037000">
        <ele>456.40</ele>
        <time>2014-11-01T07:46:56Z</time>
      </trkpt>
      <trkpt lat="42.398058000" lon="-2.456042000">
        <ele>456.50</ele>
        <time>2014-11-01T07:46:57Z</time>
      </trkpt>
      <trkpt lat="42.398021000" lon="-2.456050000">
        <ele>456.60</ele>
        <time>2014-11-01T07:46:58Z</time>
      </trkpt>
      <trkpt lat="42.397986000" lon="-2.456065000">
        <ele>456.60</ele>
        <time>2014-11-01T07:46:59Z</time>
      </trkpt>
      <trkpt lat="42.397959000" lon="-2.456077000">
        <ele>456.60</ele>
        <time>2014-11-01T07:47:00Z</time>
      </trkpt>
      <trkpt lat="42.397930000" lon="-2.456092000">
        <ele>456.70</ele>
        <time>2014-11-01T07:47:01Z</time>
      </trkpt>
      <trkpt lat="42.397900000" lon="-2.456109000">
        <ele>456.70</ele>
        <time>2014-11-01T07:47:02Z</time>
      </trkpt>
      <trkpt lat="42.397874000" lon="-2.456129000">
        <ele>456.70</ele>
        <time>2014-11-01T07:47:03Z</time>
      </trkpt>
      <trkpt lat="42.397847000" lon="-2.456151000">
        <ele>457.00</ele>
        <time>2014-11-01T07:47:04Z</time>
      </trkpt>
      <trkpt lat="42.397822000" lon="-2.456180000">
        <ele>457.20</ele>
        <time>2014-11-01T07:47:05Z</time>
      </trkpt>
      <trkpt lat="42.397796000" lon="-2.456208000">
        <ele>457.30</ele>
        <time>2014-11-01T07:47:06Z</time>
      </trkpt>
      <trkpt lat="42.397770000" lon="-2.456237000">
        <ele>457.40</ele>
        <time>2014-11-01T07:47:07Z</time>
      </trkpt>
      <trkpt lat="42.397745000" lon="-2.456263000">
        <ele>457.50</ele>
        <time>2014-11-01T07:47:08Z</time>
      </trkpt>
      <trkpt lat="42.397721000" lon="-2.456286000">
        <ele>457.60</ele>
        <time>2014-11-01T07:47:09Z</time>
      </trkpt>
      <trkpt lat="42.397696000" lon="-2.456308000">
        <ele>457.70</ele>
        <time>2014-11-01T07:47:10Z</time>
      </trkpt>
      <trkpt lat="42.397670000" lon="-2.456327000">
        <ele>457.80</ele>
        <time>2014-11-01T07:47:11Z</time>
      </trkpt>
      <trkpt lat="42.397643000" lon="-2.456353000">
        <ele>457.60</ele>
        <time>2014-11-01T07:47:12Z</time>
      </trkpt>
      <trkpt lat="42.397614000" lon="-2.456372000">
        <ele>457.60</ele>
        <time>2014-11-01T07:47:13Z</time>
      </trkpt>
      <trkpt lat="42.397590000" lon="-2.456382000">
        <ele>457.70</ele>
        <time>2014-11-01T07:47:14Z</time>
      </trkpt>
      <trkpt lat="42.397561000" lon="-2.456392000">
        <ele>457.90</ele>
        <time>2014-11-01T07:47:15Z</time>
      </trkpt>
      <trkpt lat="42.397533000" lon="-2.456398000">
        <ele>458.00</ele>
        <time>2014-11-01T07:47:16Z</time>
      </trkpt>
      <trkpt lat="42.397497000" lon="-2.456405000">
        <ele>458.10</ele>
        <time>2014-11-01T07:47:17Z</time>
      </trkpt>
      <trkpt lat="42.397458000" lon="-2.456415000">
        <ele>458.10</ele>
        <time>2014-11-01T07:47:18Z</time>
      </trkpt>
      <trkpt lat="42.397420000" lon="-2.456420000">
        <ele>458.20</ele>
        <time>2014-11-01T07:47:19Z</time>
      </trkpt>
      <trkpt lat="42.397387000" lon="-2.456425000">
        <ele>458.20</ele>
        <time>2014-11-01T07:47:20Z</time>
      </trkpt>
      <trkpt lat="42.397353000" lon="-2.456427000">
        <ele>458.20</ele>
        <time>2014-11-01T07:47:21Z</time>
      </trkpt>
      <trkpt lat="42.397318000" lon="-2.456440000">
        <ele>458.60</ele>
        <time>2014-11-01T07:47:22Z</time>
      </trkpt>
      <trkpt lat="42.397284000" lon="-2.456450000">
        <ele>458.90</ele>
        <time>2014-11-01T07:47:23Z</time>
      </trkpt>
      <trkpt lat="42.397249000" lon="-2.456460000">
        <ele>459.20</ele>
        <time>2014-11-01T07:47:24Z</time>
      </trkpt>
      <trkpt lat="42.397215000" lon="-2.456477000">
        <ele>459.30</ele>
        <time>2014-11-01T07:47:25Z</time>
      </trkpt>
      <trkpt lat="42.397182000" lon="-2.456493000">
        <ele>459.00</ele>
        <time>2014-11-01T07:47:26Z</time>
      </trkpt>
      <trkpt lat="42.397150000" lon="-2.456512000">
        <ele>458.80</ele>
        <time>2014-11-01T07:47:27Z</time>
      </trkpt>
      <trkpt lat="42.397119000" lon="-2.456537000">
        <ele>458.60</ele>
        <time>2014-11-01T07:47:28Z</time>
      </trkpt>
      <trkpt lat="42.397089000" lon="-2.456563000">
        <ele>458.40</ele>
        <time>2014-11-01T07:47:29Z</time>
      </trkpt>
      <trkpt lat="42.397062000" lon="-2.456597000">
        <ele>458.30</ele>
        <time>2014-11-01T07:47:30Z</time>
      </trkpt>
      <trkpt lat="42.397035000" lon="-2.456633000">
        <ele>458.30</ele>
        <time>2014-11-01T07:47:31Z</time>
      </trkpt>
      <trkpt lat="42.397006000" lon="-2.456668000">
        <ele>458.20</ele>
        <time>2014-11-01T07:47:32Z</time>
      </trkpt>
      <trkpt lat="42.396978000" lon="-2.456706000">
        <ele>458.20</ele>
        <time>2014-11-01T07:47:33Z</time>
      </trkpt>
      <trkpt lat="42.396953000" lon="-2.456740000">
        <ele>458.20</ele>
        <time>2014-11-01T07:47:34Z</time>
      </trkpt>
      <trkpt lat="42.396925000" lon="-2.456771000">
        <ele>458.20</ele>
        <time>2014-11-01T07:47:35Z</time>
      </trkpt>
      <trkpt lat="42.396895000" lon="-2.456803000">
        <ele>458.20</ele>
        <time>2014-11-01T07:47:36Z</time>
      </trkpt>
      <trkpt lat="42.396864000" lon="-2.456834000">
        <ele>458.20</ele>
        <time>2014-11-01T07:47:37Z</time>
      </trkpt>
      <trkpt lat="42.396831000" lon="-2.456865000">
        <ele>458.40</ele>
        <time>2014-11-01T07:47:38Z</time>
      </trkpt>
      <trkpt lat="42.396803000" lon="-2.456892000">
        <ele>458.50</ele>
        <time>2014-11-01T07:47:39Z</time>
      </trkpt>
      <trkpt lat="42.396767000" lon="-2.456912000">
        <ele>458.60</ele>
        <time>2014-11-01T07:47:40Z</time>
      </trkpt>
      <trkpt lat="42.396736000" lon="-2.456929000">
        <ele>458.60</ele>
        <time>2014-11-01T07:47:41Z</time>
      </trkpt>
      <trkpt lat="42.396705000" lon="-2.456944000">
        <ele>458.50</ele>
        <time>2014-11-01T07:47:42Z</time>
      </trkpt>
      <trkpt lat="42.396671000" lon="-2.456958000">
        <ele>458.50</ele>
        <time>2014-11-01T07:47:43Z</time>
      </trkpt>
      <trkpt lat="42.396638000" lon="-2.456972000">
        <ele>458.40</ele>
        <time>2014-11-01T07:47:44Z</time>
      </trkpt>
      <trkpt lat="42.396603000" lon="-2.456984000">
        <ele>458.40</ele>
        <time>2014-11-01T07:47:45Z</time>
      </trkpt>
      <trkpt lat="42.396568000" lon="-2.456990000">
        <ele>458.60</ele>
        <time>2014-11-01T07:47:46Z</time>
      </trkpt>
      <trkpt lat="42.396533000" lon="-2.456993000">
        <ele>458.70</ele>
        <time>2014-11-01T07:47:47Z</time>
      </trkpt>
      <trkpt lat="42.396498000" lon="-2.456993000">
        <ele>458.80</ele>
        <time>2014-11-01T07:47:48Z</time>
      </trkpt>
      <trkpt lat="42.396461000" lon="-2.456985000">
        <ele>458.90</ele>
        <time>2014-11-01T07:47:49Z</time>
      </trkpt>
      <trkpt lat="42.396427000" lon="-2.456978000">
        <ele>459.00</ele>
        <time>2014-11-01T07:47:50Z</time>
      </trkpt>
      <trkpt lat="42.396393000" lon="-2.456971000">
        <ele>459.10</ele>
        <time>2014-11-01T07:47:51Z</time>
      </trkpt>
      <trkpt lat="42.396359000" lon="-2.456962000">
        <ele>459.00</ele>
        <time>2014-11-01T07:47:52Z</time>
      </trkpt>
      <trkpt lat="42.396326000" lon="-2.456960000">
        <ele>458.90</ele>
        <time>2014-11-01T07:47:53Z</time>
      </trkpt>
      <trkpt lat="42.396291000" lon="-2.456961000">
        <ele>458.80</ele>
        <time>2014-11-01T07:47:54Z</time>
      </trkpt>
      <trkpt lat="42.396258000" lon="-2.456967000">
        <ele>458.70</ele>
        <time>2014-11-01T07:47:55Z</time>
      </trkpt>
      <trkpt lat="42.396228000" lon="-2.456978000">
        <ele>458.60</ele>
        <time>2014-11-01T07:47:56Z</time>
      </trkpt>
      <trkpt lat="42.396169000" lon="-2.457016000">
        <ele>458.80</ele>
        <time>2014-11-01T07:47:58Z</time>
      </trkpt>
      <trkpt lat="42.396139000" lon="-2.457041000">
        <ele>459.00</ele>
        <time>2014-11-01T07:47:59Z</time>
      </trkpt>
      <trkpt lat="42.396111000" lon="-2.457063000">
        <ele>459.20</ele>
        <time>2014-11-01T07:48:00Z</time>
      </trkpt>
      <trkpt lat="42.396079000" lon="-2.457086000">
        <ele>459.40</ele>
        <time>2014-11-01T07:48:01Z</time>
      </trkpt>
      <trkpt lat="42.396050000" lon="-2.457106000">
        <ele>459.50</ele>
        <time>2014-11-01T07:48:02Z</time>
      </trkpt>
      <trkpt lat="42.396016000" lon="-2.457126000">
        <ele>459.60</ele>
        <time>2014-11-01T07:48:03Z</time>
      </trkpt>
      <trkpt lat="42.395986000" lon="-2.457144000">
        <ele>459.60</ele>
        <time>2014-11-01T07:48:04Z</time>
      </trkpt>
      <trkpt lat="42.395956000" lon="-2.457160000">
        <ele>459.70</ele>
        <time>2014-11-01T07:48:05Z</time>
      </trkpt>
      <trkpt lat="42.395928000" lon="-2.457181000">
        <ele>459.60</ele>
        <time>2014-11-01T07:48:06Z</time>
      </trkpt>
      <trkpt lat="42.395897000" lon="-2.457202000">
        <ele>459.50</ele>
        <time>2014-11-01T07:48:07Z</time>
      </trkpt>
      <trkpt lat="42.395871000" lon="-2.457221000">
        <ele>459.70</ele>
        <time>2014-11-01T07:48:08Z</time>
      </trkpt>
      <trkpt lat="42.395840000" lon="-2.457247000">
        <ele>459.90</ele>
        <time>2014-11-01T07:48:09Z</time>
      </trkpt>
      <trkpt lat="42.395806000" lon="-2.457268000">
        <ele>459.80</ele>
        <time>2014-11-01T07:48:10Z</time>
      </trkpt>
      <trkpt lat="42.395777000" lon="-2.457288000">
        <ele>459.80</ele>
        <time>2014-11-01T07:48:11Z</time>
      </trkpt>
      <trkpt lat="42.395744000" lon="-2.457304000">
        <ele>459.80</ele>
        <time>2014-11-01T07:48:12Z</time>
      </trkpt>
      <trkpt lat="42.395710000" lon="-2.457321000">
        <ele>459.90</ele>
        <time>2014-11-01T07:48:13Z</time>
      </trkpt>
      <trkpt lat="42.395676000" lon="-2.457335000">
        <ele>459.90</ele>
        <time>2014-11-01T07:48:14Z</time>
      </trkpt>
      <trkpt lat="42.395643000" lon="-2.457344000">
        <ele>459.90</ele>
        <time>2014-11-01T07:48:15Z</time>
      </trkpt>
      <trkpt lat="42.395608000" lon="-2.457349000">
        <ele>459.90</ele>
        <time>2014-11-01T07:48:16Z</time>
      </trkpt>
      <trkpt lat="42.395575000" lon="-2.457351000">
        <ele>460.00</ele>
        <time>2014-11-01T07:48:17Z</time>
      </trkpt>
      <trkpt lat="42.395543000" lon="-2.457359000">
        <ele>459.90</ele>
        <time>2014-11-01T07:48:18Z</time>
      </trkpt>
      <trkpt lat="42.395513000" lon="-2.457368000">
        <ele>459.90</ele>
        <time>2014-11-01T07:48:19Z</time>
      </trkpt>
      <trkpt lat="42.395482000" lon="-2.457379000">
        <ele>460.00</ele>
        <time>2014-11-01T07:48:20Z</time>
      </trkpt>
      <trkpt lat="42.395448000" lon="-2.457395000">
        <ele>460.00</ele>
        <time>2014-11-01T07:48:21Z</time>
      </trkpt>
      <trkpt lat="42.395415000" lon="-2.457416000">
        <ele>460.00</ele>
        <time>2014-11-01T07:48:22Z</time>
      </trkpt>
      <trkpt lat="42.395385000" lon="-2.457437000">
        <ele>460.00</ele>
        <time>2014-11-01T07:48:23Z</time>
      </trkpt>
      <trkpt lat="42.395350000" lon="-2.457462000">
        <ele>460.10</ele>
        <time>2014-11-01T07:48:24Z</time>
      </trkpt>
      <trkpt lat="42.395314000" lon="-2.457492000">
        <ele>460.10</ele>
        <time>2014-11-01T07:48:25Z</time>
      </trkpt>
      <trkpt lat="42.395279000" lon="-2.457516000">
        <ele>460.10</ele>
        <time>2014-11-01T07:48:26Z</time>
      </trkpt>
      <trkpt lat="42.395244000" lon="-2.457540000">
        <ele>460.10</ele>
        <time>2014-11-01T07:48:27Z</time>
      </trkpt>
      <trkpt lat="42.395212000" lon="-2.457565000">
        <ele>460.20</ele>
        <time>2014-11-01T07:48:28Z</time>
      </trkpt>
      <trkpt lat="42.395179000" lon="-2.457587000">
        <ele>460.30</ele>
        <time>2014-11-01T07:48:29Z</time>
      </trkpt>
      <trkpt lat="42.395146000" lon="-2.457610000">
        <ele>460.40</ele>
        <time>2014-11-01T07:48:30Z</time>
      </trkpt>
      <trkpt lat="42.395112000" lon="-2.457627000">
        <ele>460.40</ele>
        <time>2014-11-01T07:48:31Z</time>
      </trkpt>
      <trkpt lat="42.395077000" lon="-2.457646000">
        <ele>460.70</ele>
        <time>2014-11-01T07:48:32Z</time>
      </trkpt>
      <trkpt lat="42.395042000" lon="-2.457668000">
        <ele>461.00</ele>
        <time>2014-11-01T07:48:33Z</time>
      </trkpt>
      <trkpt lat="42.395008000" lon="-2.457693000">
        <ele>460.90</ele>
        <time>2014-11-01T07:48:34Z</time>
      </trkpt>
      <trkpt lat="42.394971000" lon="-2.457720000">
        <ele>460.90</ele>
        <time>2014-11-01T07:48:35Z</time>
      </trkpt>
      <trkpt lat="42.394936000" lon="-2.457748000">
        <ele>461.00</ele>
        <time>2014-11-01T07:48:36Z</time>
      </trkpt>
      <trkpt lat="42.394903000" lon="-2.457779000">
        <ele>461.10</ele>
        <time>2014-11-01T07:48:37Z</time>
      </trkpt>
      <trkpt lat="42.394872000" lon="-2.457806000">
        <ele>461.10</ele>
        <time>2014-11-01T07:48:38Z</time>
      </trkpt>
      <trkpt lat="42.394847000" lon="-2.457833000">
        <ele>461.00</ele>
        <time>2014-11-01T07:48:39Z</time>
      </trkpt>
      <trkpt lat="42.394818000" lon="-2.457866000">
        <ele>460.80</ele>
        <time>2014-11-01T07:48:40Z</time>
      </trkpt>
      <trkpt lat="42.394787000" lon="-2.457899000">
        <ele>460.60</ele>
        <time>2014-11-01T07:48:41Z</time>
      </trkpt>
      <trkpt lat="42.394755000" lon="-2.457931000">
        <ele>460.50</ele>
        <time>2014-11-01T07:48:42Z</time>
      </trkpt>
      <trkpt lat="42.394724000" lon="-2.457967000">
        <ele>460.40</ele>
        <time>2014-11-01T07:48:43Z</time>
      </trkpt>
      <trkpt lat="42.394694000" lon="-2.457999000">
        <ele>460.50</ele>
        <time>2014-11-01T07:48:44Z</time>
      </trkpt>
      <trkpt lat="42.394667000" lon="-2.458028000">
        <ele>460.60</ele>
        <time>2014-11-01T07:48:45Z</time>
      </trkpt>
      <trkpt lat="42.394641000" lon="-2.458061000">
        <ele>460.70</ele>
        <time>2014-11-01T07:48:46Z</time>
      </trkpt>
      <trkpt lat="42.394614000" lon="-2.458094000">
        <ele>460.70</ele>
        <time>2014-11-01T07:48:47Z</time>
      </trkpt>
      <trkpt lat="42.394585000" lon="-2.458126000">
        <ele>461.00</ele>
        <time>2014-11-01T07:48:48Z</time>
      </trkpt>
      <trkpt lat="42.394556000" lon="-2.458161000">
        <ele>461.20</ele>
        <time>2014-11-01T07:48:49Z</time>
      </trkpt>
      <trkpt lat="42.394528000" lon="-2.458200000">
        <ele>461.20</ele>
        <time>2014-11-01T07:48:50Z</time>
      </trkpt>
      <trkpt lat="42.394501000" lon="-2.458239000">
        <ele>461.20</ele>
        <time>2014-11-01T07:48:51Z</time>
      </trkpt>
      <trkpt lat="42.394475000" lon="-2.458276000">
        <ele>461.40</ele>
        <time>2014-11-01T07:48:52Z</time>
      </trkpt>
      <trkpt lat="42.394448000" lon="-2.458310000">
        <ele>461.60</ele>
        <time>2014-11-01T07:48:53Z</time>
      </trkpt>
      <trkpt lat="42.394424000" lon="-2.458344000">
        <ele>461.60</ele>
        <time>2014-11-01T07:48:54Z</time>
      </trkpt>
      <trkpt lat="42.394395000" lon="-2.458377000">
        <ele>461.50</ele>
        <time>2014-11-01T07:48:55Z</time>
      </trkpt>
      <trkpt lat="42.394361000" lon="-2.458411000">
        <ele>461.60</ele>
        <time>2014-11-01T07:48:56Z</time>
      </trkpt>
      <trkpt lat="42.394325000" lon="-2.458447000">
        <ele>461.60</ele>
        <time>2014-11-01T07:48:57Z</time>
      </trkpt>
      <trkpt lat="42.394288000" lon="-2.458479000">
        <ele>461.50</ele>
        <time>2014-11-01T07:48:58Z</time>
      </trkpt>
      <trkpt lat="42.394223000" lon="-2.458530000">
        <ele>461.50</ele>
        <time>2014-11-01T07:49:00Z</time>
      </trkpt>
      <trkpt lat="42.394187000" lon="-2.458560000">
        <ele>461.40</ele>
        <time>2014-11-01T07:49:01Z</time>
      </trkpt>
      <trkpt lat="42.394151000" lon="-2.458586000">
        <ele>461.40</ele>
        <time>2014-11-01T07:49:02Z</time>
      </trkpt>
      <trkpt lat="42.394115000" lon="-2.458609000">
        <ele>461.40</ele>
        <time>2014-11-01T07:49:03Z</time>
      </trkpt>
      <trkpt lat="42.394081000" lon="-2.458628000">
        <ele>461.70</ele>
        <time>2014-11-01T07:49:04Z</time>
      </trkpt>
      <trkpt lat="42.394044000" lon="-2.458646000">
        <ele>461.90</ele>
        <time>2014-11-01T07:49:05Z</time>
      </trkpt>
      <trkpt lat="42.394012000" lon="-2.458667000">
        <ele>462.00</ele>
        <time>2014-11-01T07:49:06Z</time>
      </trkpt>
      <trkpt lat="42.393978000" lon="-2.458688000">
        <ele>462.10</ele>
        <time>2014-11-01T07:49:07Z</time>
      </trkpt>
      <trkpt lat="42.393945000" lon="-2.458705000">
        <ele>462.30</ele>
        <time>2014-11-01T07:49:08Z</time>
      </trkpt>
      <trkpt lat="42.393911000" lon="-2.458723000">
        <ele>462.50</ele>
        <time>2014-11-01T07:49:09Z</time>
      </trkpt>
      <trkpt lat="42.393878000" lon="-2.458740000">
        <ele>462.30</ele>
        <time>2014-11-01T07:49:10Z</time>
      </trkpt>
      <trkpt lat="42.393846000" lon="-2.458757000">
        <ele>462.20</ele>
        <time>2014-11-01T07:49:11Z</time>
      </trkpt>
      <trkpt lat="42.393815000" lon="-2.458776000">
        <ele>462.60</ele>
        <time>2014-11-01T07:49:12Z</time>
      </trkpt>
      <trkpt lat="42.393780000" lon="-2.458793000">
        <ele>462.90</ele>
        <time>2014-11-01T07:49:13Z</time>
      </trkpt>
      <trkpt lat="42.393745000" lon="-2.458808000">
        <ele>463.00</ele>
        <time>2014-11-01T07:49:14Z</time>
      </trkpt>
      <trkpt lat="42.393710000" lon="-2.458825000">
        <ele>463.00</ele>
        <time>2014-11-01T07:49:15Z</time>
      </trkpt>
      <trkpt lat="42.393674000" lon="-2.458837000">
        <ele>463.20</ele>
        <time>2014-11-01T07:49:16Z</time>
      </trkpt>
      <trkpt lat="42.393638000" lon="-2.458851000">
        <ele>463.30</ele>
        <time>2014-11-01T07:49:17Z</time>
      </trkpt>
      <trkpt lat="42.393606000" lon="-2.458855000">
        <ele>463.30</ele>
        <time>2014-11-01T07:49:18Z</time>
      </trkpt>
      <trkpt lat="42.393573000" lon="-2.458862000">
        <ele>463.30</ele>
        <time>2014-11-01T07:49:19Z</time>
      </trkpt>
      <trkpt lat="42.393536000" lon="-2.458874000">
        <ele>463.00</ele>
        <time>2014-11-01T07:49:20Z</time>
      </trkpt>
      <trkpt lat="42.393499000" lon="-2.458883000">
        <ele>462.80</ele>
        <time>2014-11-01T07:49:21Z</time>
      </trkpt>
      <trkpt lat="42.393463000" lon="-2.458890000">
        <ele>462.60</ele>
        <time>2014-11-01T07:49:22Z</time>
      </trkpt>
      <trkpt lat="42.393427000" lon="-2.458901000">
        <ele>462.50</ele>
        <time>2014-11-01T07:49:23Z</time>
      </trkpt>
      <trkpt lat="42.393394000" lon="-2.458909000">
        <ele>462.40</ele>
        <time>2014-11-01T07:49:24Z</time>
      </trkpt>
      <trkpt lat="42.393360000" lon="-2.458917000">
        <ele>462.40</ele>
        <time>2014-11-01T07:49:25Z</time>
      </trkpt>
      <trkpt lat="42.393323000" lon="-2.458933000">
        <ele>462.40</ele>
        <time>2014-11-01T07:49:26Z</time>
      </trkpt>
      <trkpt lat="42.393291000" lon="-2.458944000">
        <ele>462.40</ele>
        <time>2014-11-01T07:49:27Z</time>
      </trkpt>
      <trkpt lat="42.393256000" lon="-2.458961000">
        <ele>462.50</ele>
        <time>2014-11-01T07:49:28Z</time>
      </trkpt>
      <trkpt lat="42.393222000" lon="-2.458979000">
        <ele>462.60</ele>
        <time>2014-11-01T07:49:29Z</time>
      </trkpt>
      <trkpt lat="42.393187000" lon="-2.458996000">
        <ele>462.70</ele>
        <time>2014-11-01T07:49:30Z</time>
      </trkpt>
      <trkpt lat="42.393154000" lon="-2.459016000">
        <ele>462.80</ele>
        <time>2014-11-01T07:49:31Z</time>
      </trkpt>
      <trkpt lat="42.393119000" lon="-2.459033000">
        <ele>462.80</ele>
        <time>2014-11-01T07:49:32Z</time>
      </trkpt>
      <trkpt lat="42.393083000" lon="-2.459053000">
        <ele>462.80</ele>
        <time>2014-11-01T07:49:33Z</time>
      </trkpt>
      <trkpt lat="42.393049000" lon="-2.459071000">
        <ele>462.90</ele>
        <time>2014-11-01T07:49:34Z</time>
      </trkpt>
      <trkpt lat="42.393013000" lon="-2.459094000">
        <ele>462.90</ele>
        <time>2014-11-01T07:49:35Z</time>
      </trkpt>
      <trkpt lat="42.392978000" lon="-2.459117000">
        <ele>463.00</ele>
        <time>2014-11-01T07:49:36Z</time>
      </trkpt>
      <trkpt lat="42.392942000" lon="-2.459139000">
        <ele>463.00</ele>
        <time>2014-11-01T07:49:37Z</time>
      </trkpt>
      <trkpt lat="42.392906000" lon="-2.459155000">
        <ele>463.10</ele>
        <time>2014-11-01T07:49:38Z</time>
      </trkpt>
      <trkpt lat="42.392871000" lon="-2.459176000">
        <ele>463.20</ele>
        <time>2014-11-01T07:49:39Z</time>
      </trkpt>
      <trkpt lat="42.392836000" lon="-2.459192000">
        <ele>463.30</ele>
        <time>2014-11-01T07:49:40Z</time>
      </trkpt>
      <trkpt lat="42.392797000" lon="-2.459202000">
        <ele>463.30</ele>
        <time>2014-11-01T07:49:41Z</time>
      </trkpt>
      <trkpt lat="42.392763000" lon="-2.459208000">
        <ele>463.40</ele>
        <time>2014-11-01T07:49:42Z</time>
      </trkpt>
      <trkpt lat="42.392729000" lon="-2.459215000">
        <ele>463.50</ele>
        <time>2014-11-01T07:49:43Z</time>
      </trkpt>
      <trkpt lat="42.392695000" lon="-2.459223000">
        <ele>463.50</ele>
        <time>2014-11-01T07:49:44Z</time>
      </trkpt>
      <trkpt lat="42.392662000" lon="-2.459230000">
        <ele>463.60</ele>
        <time>2014-11-01T07:49:45Z</time>
      </trkpt>
      <trkpt lat="42.392629000" lon="-2.459235000">
        <ele>463.70</ele>
        <time>2014-11-01T07:49:46Z</time>
      </trkpt>
      <trkpt lat="42.392594000" lon="-2.459242000">
        <ele>463.70</ele>
        <time>2014-11-01T07:49:47Z</time>
      </trkpt>
      <trkpt lat="42.392556000" lon="-2.459247000">
        <ele>463.80</ele>
        <time>2014-11-01T07:49:48Z</time>
      </trkpt>
      <trkpt lat="42.392520000" lon="-2.459251000">
        <ele>463.80</ele>
        <time>2014-11-01T07:49:49Z</time>
      </trkpt>
      <trkpt lat="42.392482000" lon="-2.459262000">
        <ele>463.90</ele>
        <time>2014-11-01T07:49:50Z</time>
      </trkpt>
      <trkpt lat="42.392447000" lon="-2.459270000">
        <ele>463.90</ele>
        <time>2014-11-01T07:49:51Z</time>
      </trkpt>
      <trkpt lat="42.392411000" lon="-2.459283000">
        <ele>463.90</ele>
        <time>2014-11-01T07:49:52Z</time>
      </trkpt>
      <trkpt lat="42.392374000" lon="-2.459294000">
        <ele>463.90</ele>
        <time>2014-11-01T07:49:53Z</time>
      </trkpt>
      <trkpt lat="42.392340000" lon="-2.459303000">
        <ele>464.00</ele>
        <time>2014-11-01T07:49:54Z</time>
      </trkpt>
      <trkpt lat="42.392302000" lon="-2.459310000">
        <ele>464.00</ele>
        <time>2014-11-01T07:49:55Z</time>
      </trkpt>
      <trkpt lat="42.392262000" lon="-2.459321000">
        <ele>464.30</ele>
        <time>2014-11-01T07:49:56Z</time>
      </trkpt>
      <trkpt lat="42.392229000" lon="-2.459332000">
        <ele>464.50</ele>
        <time>2014-11-01T07:49:57Z</time>
      </trkpt>
      <trkpt lat="42.392195000" lon="-2.459345000">
        <ele>464.80</ele>
        <time>2014-11-01T07:49:58Z</time>
      </trkpt>
      <trkpt lat="42.392158000" lon="-2.459358000">
        <ele>464.90</ele>
        <time>2014-11-01T07:49:59Z</time>
      </trkpt>
      <trkpt lat="42.392126000" lon="-2.459374000">
        <ele>465.00</ele>
        <time>2014-11-01T07:50:00Z</time>
      </trkpt>
      <trkpt lat="42.392056000" lon="-2.459408000">
        <ele>465.00</ele>
        <time>2014-11-01T07:50:02Z</time>
      </trkpt>
      <trkpt lat="42.392023000" lon="-2.459425000">
        <ele>465.00</ele>
        <time>2014-11-01T07:50:03Z</time>
      </trkpt>
      <trkpt lat="42.391989000" lon="-2.459444000">
        <ele>465.00</ele>
        <time>2014-11-01T07:50:04Z</time>
      </trkpt>
      <trkpt lat="42.391953000" lon="-2.459463000">
        <ele>465.00</ele>
        <time>2014-11-01T07:50:05Z</time>
      </trkpt>
      <trkpt lat="42.391920000" lon="-2.459483000">
        <ele>464.90</ele>
        <time>2014-11-01T07:50:06Z</time>
      </trkpt>
      <trkpt lat="42.391886000" lon="-2.459500000">
        <ele>464.90</ele>
        <time>2014-11-01T07:50:07Z</time>
      </trkpt>
      <trkpt lat="42.391851000" lon="-2.459519000">
        <ele>464.90</ele>
        <time>2014-11-01T07:50:08Z</time>
      </trkpt>
      <trkpt lat="42.391819000" lon="-2.459538000">
        <ele>464.90</ele>
        <time>2014-11-01T07:50:09Z</time>
      </trkpt>
      <trkpt lat="42.391783000" lon="-2.459556000">
        <ele>464.90</ele>
        <time>2014-11-01T07:50:10Z</time>
      </trkpt>
      <trkpt lat="42.391746000" lon="-2.459576000">
        <ele>464.90</ele>
        <time>2014-11-01T07:50:11Z</time>
      </trkpt>
      <trkpt lat="42.391711000" lon="-2.459594000">
        <ele>465.10</ele>
        <time>2014-11-01T07:50:12Z</time>
      </trkpt>
      <trkpt lat="42.391672000" lon="-2.459616000">
        <ele>465.20</ele>
        <time>2014-11-01T07:50:13Z</time>
      </trkpt>
      <trkpt lat="42.391635000" lon="-2.459632000">
        <ele>465.20</ele>
        <time>2014-11-01T07:50:14Z</time>
      </trkpt>
      <trkpt lat="42.391598000" lon="-2.459646000">
        <ele>465.30</ele>
        <time>2014-11-01T07:50:15Z</time>
      </trkpt>
      <trkpt lat="42.391562000" lon="-2.459662000">
        <ele>465.30</ele>
        <time>2014-11-01T07:50:16Z</time>
      </trkpt>
      <trkpt lat="42.391526000" lon="-2.459674000">
        <ele>465.30</ele>
        <time>2014-11-01T07:50:17Z</time>
      </trkpt>
      <trkpt lat="42.391489000" lon="-2.459686000">
        <ele>465.40</ele>
        <time>2014-11-01T07:50:18Z</time>
      </trkpt>
      <trkpt lat="42.391451000" lon="-2.459697000">
        <ele>465.40</ele>
        <time>2014-11-01T07:50:19Z</time>
      </trkpt>
      <trkpt lat="42.391413000" lon="-2.459705000">
        <ele>465.50</ele>
        <time>2014-11-01T07:50:20Z</time>
      </trkpt>
      <trkpt lat="42.391377000" lon="-2.459711000">
        <ele>465.50</ele>
        <time>2014-11-01T07:50:21Z</time>
      </trkpt>
      <trkpt lat="42.391341000" lon="-2.459715000">
        <ele>465.60</ele>
        <time>2014-11-01T07:50:22Z</time>
      </trkpt>
      <trkpt lat="42.391307000" lon="-2.459718000">
        <ele>465.60</ele>
        <time>2014-11-01T07:50:23Z</time>
      </trkpt>
      <trkpt lat="42.391270000" lon="-2.459721000">
        <ele>465.60</ele>
        <time>2014-11-01T07:50:24Z</time>
      </trkpt>
      <trkpt lat="42.391235000" lon="-2.459726000">
        <ele>465.60</ele>
        <time>2014-11-01T07:50:25Z</time>
      </trkpt>
      <trkpt lat="42.391196000" lon="-2.459730000">
        <ele>465.30</ele>
        <time>2014-11-01T07:50:26Z</time>
      </trkpt>
      <trkpt lat="42.391159000" lon="-2.459732000">
        <ele>465.10</ele>
        <time>2014-11-01T07:50:27Z</time>
      </trkpt>
      <trkpt lat="42.391123000" lon="-2.459726000">
        <ele>464.90</ele>
        <time>2014-11-01T07:50:28Z</time>
      </trkpt>
      <trkpt lat="42.391090000" lon="-2.459720000">
        <ele>464.80</ele>
        <time>2014-11-01T07:50:29Z</time>
      </trkpt>
      <trkpt lat="42.391058000" lon="-2.459714000">
        <ele>464.80</ele>
        <time>2014-11-01T07:50:30Z</time>
      </trkpt>
      <trkpt lat="42.391027000" lon="-2.459705000">
        <ele>464.70</ele>
        <time>2014-11-01T07:50:31Z</time>
      </trkpt>
      <trkpt lat="42.390993000" lon="-2.459704000">
        <ele>464.80</ele>
        <time>2014-11-01T07:50:32Z</time>
      </trkpt>
      <trkpt lat="42.390959000" lon="-2.459700000">
        <ele>464.90</ele>
        <time>2014-11-01T07:50:33Z</time>
      </trkpt>
      <trkpt lat="42.390923000" lon="-2.459694000">
        <ele>465.10</ele>
        <time>2014-11-01T07:50:34Z</time>
      </trkpt>
      <trkpt lat="42.390891000" lon="-2.459687000">
        <ele>465.30</ele>
        <time>2014-11-01T07:50:35Z</time>
      </trkpt>
      <trkpt lat="42.390860000" lon="-2.459679000">
        <ele>465.40</ele>
        <time>2014-11-01T07:50:36Z</time>
      </trkpt>
      <trkpt lat="42.390829000" lon="-2.459674000">
        <ele>465.50</ele>
        <time>2014-11-01T07:50:37Z</time>
      </trkpt>
      <trkpt lat="42.390800000" lon="-2.459669000">
        <ele>465.60</ele>
        <time>2014-11-01T07:50:38Z</time>
      </trkpt>
      <trkpt lat="42.390777000" lon="-2.459662000">
        <ele>465.60</ele>
        <time>2014-11-01T07:50:39Z</time>
      </trkpt>
      <trkpt lat="42.390751000" lon="-2.459658000">
        <ele>465.50</ele>
        <time>2014-11-01T07:50:40Z</time>
      </trkpt>
      <trkpt lat="42.390722000" lon="-2.459654000">
        <ele>465.40</ele>
        <time>2014-11-01T07:50:41Z</time>
      </trkpt>
      <trkpt lat="42.390696000" lon="-2.459646000">
        <ele>465.30</ele>
        <time>2014-11-01T07:50:42Z</time>
      </trkpt>
      <trkpt lat="42.390668000" lon="-2.459646000">
        <ele>465.20</ele>
        <time>2014-11-01T07:50:43Z</time>
      </trkpt>
      <trkpt lat="42.390644000" lon="-2.459651000">
        <ele>465.20</ele>
        <time>2014-11-01T07:50:44Z</time>
      </trkpt>
      <trkpt lat="42.390617000" lon="-2.459662000">
        <ele>465.20</ele>
        <time>2014-11-01T07:50:45Z</time>
      </trkpt>
      <trkpt lat="42.390592000" lon="-2.459673000">
        <ele>465.40</ele>
        <time>2014-11-01T07:50:46Z</time>
      </trkpt>
      <trkpt lat="42.390563000" lon="-2.459685000">
        <ele>465.50</ele>
        <time>2014-11-01T07:50:47Z</time>
      </trkpt>
      <trkpt lat="42.390528000" lon="-2.459698000">
        <ele>465.60</ele>
        <time>2014-11-01T07:50:48Z</time>
      </trkpt>
      <trkpt lat="42.390492000" lon="-2.459707000">
        <ele>465.70</ele>
        <time>2014-11-01T07:50:49Z</time>
      </trkpt>
      <trkpt lat="42.390456000" lon="-2.459721000">
        <ele>465.70</ele>
        <time>2014-11-01T07:50:50Z</time>
      </trkpt>
      <trkpt lat="42.390422000" lon="-2.459735000">
        <ele>465.70</ele>
        <time>2014-11-01T07:50:51Z</time>
      </trkpt>
      <trkpt lat="42.390388000" lon="-2.459748000">
        <ele>465.80</ele>
        <time>2014-11-01T07:50:52Z</time>
      </trkpt>
      <trkpt lat="42.390356000" lon="-2.459764000">
        <ele>465.80</ele>
        <time>2014-11-01T07:50:53Z</time>
      </trkpt>
      <trkpt lat="42.390325000" lon="-2.459777000">
        <ele>465.80</ele>
        <time>2014-11-01T07:50:54Z</time>
      </trkpt>
      <trkpt lat="42.390295000" lon="-2.459792000">
        <ele>465.80</ele>
        <time>2014-11-01T07:50:55Z</time>
      </trkpt>
      <trkpt lat="42.390265000" lon="-2.459812000">
        <ele>465.80</ele>
        <time>2014-11-01T07:50:56Z</time>
      </trkpt>
      <trkpt lat="42.390233000" lon="-2.459826000">
        <ele>465.80</ele>
        <time>2014-11-01T07:50:57Z</time>
      </trkpt>
      <trkpt lat="42.390202000" lon="-2.459841000">
        <ele>465.80</ele>
        <time>2014-11-01T07:50:58Z</time>
      </trkpt>
      <trkpt lat="42.390170000" lon="-2.459855000">
        <ele>465.80</ele>
        <time>2014-11-01T07:50:59Z</time>
      </trkpt>
      <trkpt lat="42.390142000" lon="-2.459870000">
        <ele>465.90</ele>
        <time>2014-11-01T07:51:00Z</time>
      </trkpt>
      <trkpt lat="42.390112000" lon="-2.459882000">
        <ele>465.90</ele>
        <time>2014-11-01T07:51:01Z</time>
      </trkpt>
      <trkpt lat="42.390081000" lon="-2.459900000">
        <ele>465.90</ele>
        <time>2014-11-01T07:51:02Z</time>
      </trkpt>
      <trkpt lat="42.390022000" lon="-2.459944000">
        <ele>465.80</ele>
        <time>2014-11-01T07:51:04Z</time>
      </trkpt>
      <trkpt lat="42.389992000" lon="-2.459964000">
        <ele>465.80</ele>
        <time>2014-11-01T07:51:05Z</time>
      </trkpt>
      <trkpt lat="42.389964000" lon="-2.459984000">
        <ele>465.80</ele>
        <time>2014-11-01T07:51:06Z</time>
      </trkpt>
      <trkpt lat="42.389937000" lon="-2.460006000">
        <ele>465.70</ele>
        <time>2014-11-01T07:51:07Z</time>
      </trkpt>
      <trkpt lat="42.389910000" lon="-2.460032000">
        <ele>465.80</ele>
        <time>2014-11-01T07:51:08Z</time>
      </trkpt>
      <trkpt lat="42.389881000" lon="-2.460059000">
        <ele>465.80</ele>
        <time>2014-11-01T07:51:09Z</time>
      </trkpt>
      <trkpt lat="42.389853000" lon="-2.460089000">
        <ele>465.80</ele>
        <time>2014-11-01T07:51:10Z</time>
      </trkpt>
      <trkpt lat="42.389831000" lon="-2.460120000">
        <ele>465.80</ele>
        <time>2014-11-01T07:51:11Z</time>
      </trkpt>
      <trkpt lat="42.389814000" lon="-2.460158000">
        <ele>465.80</ele>
        <time>2014-11-01T07:51:12Z</time>
      </trkpt>
      <trkpt lat="42.389811000" lon="-2.460203000">
        <ele>465.80</ele>
        <time>2014-11-01T07:51:13Z</time>
      </trkpt>
      <trkpt lat="42.389815000" lon="-2.460253000">
        <ele>465.90</ele>
        <time>2014-11-01T07:51:14Z</time>
      </trkpt>
      <trkpt lat="42.389822000" lon="-2.460300000">
        <ele>465.90</ele>
        <time>2014-11-01T07:51:15Z</time>
      </trkpt>
      <trkpt lat="42.389834000" lon="-2.460348000">
        <ele>466.00</ele>
        <time>2014-11-01T07:51:16Z</time>
      </trkpt>
      <trkpt lat="42.389848000" lon="-2.460390000">
        <ele>466.10</ele>
        <time>2014-11-01T07:51:17Z</time>
      </trkpt>
      <trkpt lat="42.389869000" lon="-2.460428000">
        <ele>466.30</ele>
        <time>2014-11-01T07:51:18Z</time>
      </trkpt>
      <trkpt lat="42.389891000" lon="-2.460467000">
        <ele>466.40</ele>
        <time>2014-11-01T07:51:19Z</time>
      </trkpt>
      <trkpt lat="42.389912000" lon="-2.460503000">
        <ele>466.60</ele>
        <time>2014-11-01T07:51:20Z</time>
      </trkpt>
      <trkpt lat="42.389931000" lon="-2.460541000">
        <ele>466.60</ele>
        <time>2014-11-01T07:51:21Z</time>
      </trkpt>
      <trkpt lat="42.389950000" lon="-2.460580000">
        <ele>466.80</ele>
        <time>2014-11-01T07:51:22Z</time>
      </trkpt>
      <trkpt lat="42.389969000" lon="-2.460617000">
        <ele>466.90</ele>
        <time>2014-11-01T07:51:23Z</time>
      </trkpt>
      <trkpt lat="42.389983000" lon="-2.460658000">
        <ele>466.90</ele>
        <time>2014-11-01T07:51:24Z</time>
      </trkpt>
      <trkpt lat="42.389999000" lon="-2.460698000">
        <ele>467.00</ele>
        <time>2014-11-01T07:51:25Z</time>
      </trkpt>
      <trkpt lat="42.390011000" lon="-2.460741000">
        <ele>467.00</ele>
        <time>2014-11-01T07:51:26Z</time>
      </trkpt>
      <trkpt lat="42.390025000" lon="-2.460784000">
        <ele>467.10</ele>
        <time>2014-11-01T07:51:27Z</time>
      </trkpt>
      <trkpt lat="42.390041000" lon="-2.460825000">
        <ele>467.00</ele>
        <time>2014-11-01T07:51:28Z</time>
      </trkpt>
      <trkpt lat="42.390058000" lon="-2.460866000">
        <ele>466.90</ele>
        <time>2014-11-01T07:51:29Z</time>
      </trkpt>
      <trkpt lat="42.390077000" lon="-2.460909000">
        <ele>466.80</ele>
        <time>2014-11-01T07:51:30Z</time>
      </trkpt>
      <trkpt lat="42.390096000" lon="-2.460951000">
        <ele>466.70</ele>
        <time>2014-11-01T07:51:31Z</time>
      </trkpt>
      <trkpt lat="42.390118000" lon="-2.460992000">
        <ele>466.60</ele>
        <time>2014-11-01T07:51:32Z</time>
      </trkpt>
      <trkpt lat="42.390142000" lon="-2.461032000">
        <ele>466.50</ele>
        <time>2014-11-01T07:51:33Z</time>
      </trkpt>
      <trkpt lat="42.390166000" lon="-2.461070000">
        <ele>466.70</ele>
        <time>2014-11-01T07:51:34Z</time>
      </trkpt>
      <trkpt lat="42.390194000" lon="-2.461108000">
        <ele>466.80</ele>
        <time>2014-11-01T07:51:35Z</time>
      </trkpt>
      <trkpt lat="42.390223000" lon="-2.461143000">
        <ele>467.00</ele>
        <time>2014-11-01T07:51:36Z</time>
      </trkpt>
      <trkpt lat="42.390248000" lon="-2.461175000">
        <ele>467.10</ele>
        <time>2014-11-01T07:51:37Z</time>
      </trkpt>
      <trkpt lat="42.390278000" lon="-2.461208000">
        <ele>467.20</ele>
        <time>2014-11-01T07:51:38Z</time>
      </trkpt>
      <trkpt lat="42.390304000" lon="-2.461244000">
        <ele>467.20</ele>
        <time>2014-11-01T07:51:39Z</time>
      </trkpt>
      <trkpt lat="42.390331000" lon="-2.461282000">
        <ele>467.10</ele>
        <time>2014-11-01T07:51:40Z</time>
      </trkpt>
      <trkpt lat="42.390358000" lon="-2.461314000">
        <ele>467.10</ele>
        <time>2014-11-01T07:51:41Z</time>
      </trkpt>
      <trkpt lat="42.390385000" lon="-2.461348000">
        <ele>467.00</ele>
        <time>2014-11-01T07:51:42Z</time>
      </trkpt>
      <trkpt lat="42.390410000" lon="-2.461383000">
        <ele>467.00</ele>
        <time>2014-11-01T07:51:43Z</time>
      </trkpt>
      <trkpt lat="42.390435000" lon="-2.461419000">
        <ele>467.20</ele>
        <time>2014-11-01T07:51:44Z</time>
      </trkpt>
      <trkpt lat="42.390459000" lon="-2.461456000">
        <ele>467.40</ele>
        <time>2014-11-01T07:51:45Z</time>
      </trkpt>
      <trkpt lat="42.390485000" lon="-2.461490000">
        <ele>467.50</ele>
        <time>2014-11-01T07:51:46Z</time>
      </trkpt>
      <trkpt lat="42.390513000" lon="-2.461525000">
        <ele>467.60</ele>
        <time>2014-11-01T07:51:47Z</time>
      </trkpt>
      <trkpt lat="42.390539000" lon="-2.461556000">
        <ele>467.50</ele>
        <time>2014-11-01T07:51:48Z</time>
      </trkpt>
      <trkpt lat="42.390566000" lon="-2.461589000">
        <ele>467.30</ele>
        <time>2014-11-01T07:51:49Z</time>
      </trkpt>
      <trkpt lat="42.390591000" lon="-2.461623000">
        <ele>467.20</ele>
        <time>2014-11-01T07:51:50Z</time>
      </trkpt>
      <trkpt lat="42.390617000" lon="-2.461661000">
        <ele>467.10</ele>
        <time>2014-11-01T07:51:51Z</time>
      </trkpt>
      <trkpt lat="42.390645000" lon="-2.461696000">
        <ele>467.10</ele>
        <time>2014-11-01T07:51:52Z</time>
      </trkpt>
      <trkpt lat="42.390676000" lon="-2.461729000">
        <ele>467.00</ele>
        <time>2014-11-01T07:51:53Z</time>
      </trkpt>
      <trkpt lat="42.390707000" lon="-2.461768000">
        <ele>467.00</ele>
        <time>2014-11-01T07:51:54Z</time>
      </trkpt>
      <trkpt lat="42.390736000" lon="-2.461805000">
        <ele>467.00</ele>
        <time>2014-11-01T07:51:55Z</time>
      </trkpt>
      <trkpt lat="42.390770000" lon="-2.461839000">
        <ele>466.90</ele>
        <time>2014-11-01T07:51:56Z</time>
      </trkpt>
      <trkpt lat="42.390806000" lon="-2.461871000">
        <ele>466.80</ele>
        <time>2014-11-01T07:51:57Z</time>
      </trkpt>
      <trkpt lat="42.390842000" lon="-2.461902000">
        <ele>466.80</ele>
        <time>2014-11-01T07:51:58Z</time>
      </trkpt>
      <trkpt lat="42.390878000" lon="-2.461934000">
        <ele>466.80</ele>
        <time>2014-11-01T07:51:59Z</time>
      </trkpt>
      <trkpt lat="42.390910000" lon="-2.461963000">
        <ele>466.60</ele>
        <time>2014-11-01T07:52:00Z</time>
      </trkpt>
      <trkpt lat="42.390942000" lon="-2.461992000">
        <ele>466.50</ele>
        <time>2014-11-01T07:52:01Z</time>
      </trkpt>
      <trkpt lat="42.390970000" lon="-2.462021000">
        <ele>466.40</ele>
        <time>2014-11-01T07:52:02Z</time>
      </trkpt>
      <trkpt lat="42.390999000" lon="-2.462049000">
        <ele>466.30</ele>
        <time>2014-11-01T07:52:03Z</time>
      </trkpt>
      <trkpt lat="42.391027000" lon="-2.462077000">
        <ele>466.30</ele>
        <time>2014-11-01T07:52:04Z</time>
      </trkpt>
      <trkpt lat="42.391087000" lon="-2.462136000">
        <ele>466.20</ele>
        <time>2014-11-01T07:52:06Z</time>
      </trkpt>
      <trkpt lat="42.391117000" lon="-2.462167000">
        <ele>466.20</ele>
        <time>2014-11-01T07:52:07Z</time>
      </trkpt>
      <trkpt lat="42.391148000" lon="-2.462199000">
        <ele>466.20</ele>
        <time>2014-11-01T07:52:08Z</time>
      </trkpt>
      <trkpt lat="42.391178000" lon="-2.462235000">
        <ele>466.30</ele>
        <time>2014-11-01T07:52:09Z</time>
      </trkpt>
      <trkpt lat="42.391206000" lon="-2.462275000">
        <ele>466.50</ele>
        <time>2014-11-01T07:52:10Z</time>
      </trkpt>
      <trkpt lat="42.391234000" lon="-2.462316000">
        <ele>466.70</ele>
        <time>2014-11-01T07:52:11Z</time>
      </trkpt>
      <trkpt lat="42.391260000" lon="-2.462364000">
        <ele>466.80</ele>
        <time>2014-11-01T07:52:12Z</time>
      </trkpt>
      <trkpt lat="42.391282000" lon="-2.462414000">
        <ele>466.90</ele>
        <time>2014-11-01T07:52:13Z</time>
      </trkpt>
      <trkpt lat="42.391302000" lon="-2.462462000">
        <ele>467.00</ele>
        <time>2014-11-01T07:52:14Z</time>
      </trkpt>
      <trkpt lat="42.391320000" lon="-2.462506000">
        <ele>467.10</ele>
        <time>2014-11-01T07:52:15Z</time>
      </trkpt>
      <trkpt lat="42.391341000" lon="-2.462555000">
        <ele>467.20</ele>
        <time>2014-11-01T07:52:16Z</time>
      </trkpt>
      <trkpt lat="42.391363000" lon="-2.462598000">
        <ele>467.30</ele>
        <time>2014-11-01T07:52:17Z</time>
      </trkpt>
      <trkpt lat="42.391380000" lon="-2.462642000">
        <ele>467.30</ele>
        <time>2014-11-01T07:52:18Z</time>
      </trkpt>
      <trkpt lat="42.391394000" lon="-2.462691000">
        <ele>467.30</ele>
        <time>2014-11-01T07:52:19Z</time>
      </trkpt>
      <trkpt lat="42.391409000" lon="-2.462745000">
        <ele>467.20</ele>
        <time>2014-11-01T07:52:20Z</time>
      </trkpt>
      <trkpt lat="42.391429000" lon="-2.462798000">
        <ele>467.10</ele>
        <time>2014-11-01T07:52:21Z</time>
      </trkpt>
      <trkpt lat="42.391450000" lon="-2.462850000">
        <ele>467.10</ele>
        <time>2014-11-01T07:52:22Z</time>
      </trkpt>
      <trkpt lat="42.391472000" lon="-2.462899000">
        <ele>467.00</ele>
        <time>2014-11-01T07:52:23Z</time>
      </trkpt>
      <trkpt lat="42.391497000" lon="-2.462944000">
        <ele>466.90</ele>
        <time>2014-11-01T07:52:24Z</time>
      </trkpt>
      <trkpt lat="42.391526000" lon="-2.462983000">
        <ele>466.90</ele>
        <time>2014-11-01T07:52:25Z</time>
      </trkpt>
      <trkpt lat="42.391553000" lon="-2.463022000">
        <ele>466.60</ele>
        <time>2014-11-01T07:52:26Z</time>
      </trkpt>
      <trkpt lat="42.391583000" lon="-2.463060000">
        <ele>466.40</ele>
        <time>2014-11-01T07:52:27Z</time>
      </trkpt>
      <trkpt lat="42.391612000" lon="-2.463091000">
        <ele>466.30</ele>
        <time>2014-11-01T07:52:28Z</time>
      </trkpt>
      <trkpt lat="42.391639000" lon="-2.463125000">
        <ele>466.20</ele>
        <time>2014-11-01T07:52:29Z</time>
      </trkpt>
      <trkpt lat="42.391666000" lon="-2.463155000">
        <ele>466.20</ele>
        <time>2014-11-01T07:52:30Z</time>
      </trkpt>
      <trkpt lat="42.391695000" lon="-2.463184000">
        <ele>466.20</ele>
        <time>2014-11-01T07:52:31Z</time>
      </trkpt>
      <trkpt lat="42.391718000" lon="-2.463215000">
        <ele>466.20</ele>
        <time>2014-11-01T07:52:32Z</time>
      </trkpt>
      <trkpt lat="42.391731000" lon="-2.463250000">
        <ele>466.10</ele>
        <time>2014-11-01T07:52:33Z</time>
      </trkpt>
      <trkpt lat="42.391731000" lon="-2.463292000">
        <ele>466.30</ele>
        <time>2014-11-01T07:52:34Z</time>
      </trkpt>
      <trkpt lat="42.391714000" lon="-2.463329000">
        <ele>466.40</ele>
        <time>2014-11-01T07:52:35Z</time>
      </trkpt>
      <trkpt lat="42.391698000" lon="-2.463362000">
        <ele>466.50</ele>
        <time>2014-11-01T07:52:36Z</time>
      </trkpt>
      <trkpt lat="42.391679000" lon="-2.463392000">
        <ele>466.60</ele>
        <time>2014-11-01T07:52:37Z</time>
      </trkpt>
      <trkpt lat="42.391658000" lon="-2.463423000">
        <ele>466.80</ele>
        <time>2014-11-01T07:52:38Z</time>
      </trkpt>
      <trkpt lat="42.391635000" lon="-2.463451000">
        <ele>467.00</ele>
        <time>2014-11-01T07:52:39Z</time>
      </trkpt>
      <trkpt lat="42.391610000" lon="-2.463475000">
        <ele>467.10</ele>
        <time>2014-11-01T07:52:40Z</time>
      </trkpt>
      <trkpt lat="42.391579000" lon="-2.463495000">
        <ele>467.20</ele>
        <time>2014-11-01T07:52:41Z</time>
      </trkpt>
      <trkpt lat="42.391547000" lon="-2.463513000">
        <ele>467.00</ele>
        <time>2014-11-01T07:52:42Z</time>
      </trkpt>
      <trkpt lat="42.391514000" lon="-2.463526000">
        <ele>466.80</ele>
        <time>2014-11-01T07:52:43Z</time>
      </trkpt>
      <trkpt lat="42.391479000" lon="-2.463536000">
        <ele>466.60</ele>
        <time>2014-11-01T07:52:44Z</time>
      </trkpt>
      <trkpt lat="42.391447000" lon="-2.463549000">
        <ele>466.40</ele>
        <time>2014-11-01T07:52:45Z</time>
      </trkpt>
      <trkpt lat="42.391413000" lon="-2.463563000">
        <ele>466.30</ele>
        <time>2014-11-01T07:52:46Z</time>
      </trkpt>
      <trkpt lat="42.391378000" lon="-2.463577000">
        <ele>466.20</ele>
        <time>2014-11-01T07:52:47Z</time>
      </trkpt>
      <trkpt lat="42.391344000" lon="-2.463593000">
        <ele>466.10</ele>
        <time>2014-11-01T07:52:48Z</time>
      </trkpt>
      <trkpt lat="42.391306000" lon="-2.463613000">
        <ele>466.00</ele>
        <time>2014-11-01T07:52:49Z</time>
      </trkpt>
      <trkpt lat="42.391271000" lon="-2.463634000">
        <ele>466.00</ele>
        <time>2014-11-01T07:52:50Z</time>
      </trkpt>
      <trkpt lat="42.391237000" lon="-2.463656000">
        <ele>466.00</ele>
        <time>2014-11-01T07:52:51Z</time>
      </trkpt>
      <trkpt lat="42.391204000" lon="-2.463678000">
        <ele>466.20</ele>
        <time>2014-11-01T07:52:52Z</time>
      </trkpt>
      <trkpt lat="42.391172000" lon="-2.463703000">
        <ele>466.40</ele>
        <time>2014-11-01T07:52:53Z</time>
      </trkpt>
      <trkpt lat="42.391140000" lon="-2.463730000">
        <ele>466.50</ele>
        <time>2014-11-01T07:52:54Z</time>
      </trkpt>
      <trkpt lat="42.391109000" lon="-2.463763000">
        <ele>466.60</ele>
        <time>2014-11-01T07:52:55Z</time>
      </trkpt>
      <trkpt lat="42.391082000" lon="-2.463796000">
        <ele>466.90</ele>
        <time>2014-11-01T07:52:56Z</time>
      </trkpt>
      <trkpt lat="42.391059000" lon="-2.463824000">
        <ele>467.20</ele>
        <time>2014-11-01T07:52:57Z</time>
      </trkpt>
      <trkpt lat="42.391033000" lon="-2.463854000">
        <ele>467.10</ele>
        <time>2014-11-01T07:52:58Z</time>
      </trkpt>
      <trkpt lat="42.391007000" lon="-2.463887000">
        <ele>467.00</ele>
        <time>2014-11-01T07:52:59Z</time>
      </trkpt>
      <trkpt lat="42.390979000" lon="-2.463920000">
        <ele>467.10</ele>
        <time>2014-11-01T07:53:00Z</time>
      </trkpt>
      <trkpt lat="42.390954000" lon="-2.463952000">
        <ele>467.20</ele>
        <time>2014-11-01T07:53:01Z</time>
      </trkpt>
      <trkpt lat="42.390927000" lon="-2.463980000">
        <ele>467.00</ele>
        <time>2014-11-01T07:53:02Z</time>
      </trkpt>
      <trkpt lat="42.390900000" lon="-2.464008000">
        <ele>466.90</ele>
        <time>2014-11-01T07:53:03Z</time>
      </trkpt>
      <trkpt lat="42.390871000" lon="-2.464039000">
        <ele>466.90</ele>
        <time>2014-11-01T07:53:04Z</time>
      </trkpt>
      <trkpt lat="42.390842000" lon="-2.464069000">
        <ele>466.80</ele>
        <time>2014-11-01T07:53:05Z</time>
      </trkpt>
      <trkpt lat="42.390814000" lon="-2.464093000">
        <ele>466.80</ele>
        <time>2014-11-01T07:53:06Z</time>
      </trkpt>
      <trkpt lat="42.390758000" lon="-2.464147000">
        <ele>466.80</ele>
        <time>2014-11-01T07:53:08Z</time>
      </trkpt>
      <trkpt lat="42.390730000" lon="-2.464169000">
        <ele>466.90</ele>
        <time>2014-11-01T07:53:09Z</time>
      </trkpt>
      <trkpt lat="42.390700000" lon="-2.464193000">
        <ele>467.00</ele>
        <time>2014-11-01T07:53:10Z</time>
      </trkpt>
      <trkpt lat="42.390670000" lon="-2.464222000">
        <ele>467.00</ele>
        <time>2014-11-01T07:53:11Z</time>
      </trkpt>
      <trkpt lat="42.390637000" lon="-2.464248000">
        <ele>467.10</ele>
        <time>2014-11-01T07:53:12Z</time>
      </trkpt>
      <trkpt lat="42.390604000" lon="-2.464275000">
        <ele>467.10</ele>
        <time>2014-11-01T07:53:13Z</time>
      </trkpt>
      <trkpt lat="42.390574000" lon="-2.464302000">
        <ele>467.00</ele>
        <time>2014-11-01T07:53:14Z</time>
      </trkpt>
      <trkpt lat="42.390542000" lon="-2.464329000">
        <ele>466.90</ele>
        <time>2014-11-01T07:53:15Z</time>
      </trkpt>
      <trkpt lat="42.390509000" lon="-2.464357000">
        <ele>466.80</ele>
        <time>2014-11-01T07:53:16Z</time>
      </trkpt>
      <trkpt lat="42.390478000" lon="-2.464385000">
        <ele>466.80</ele>
        <time>2014-11-01T07:53:17Z</time>
      </trkpt>
      <trkpt lat="42.390448000" lon="-2.464406000">
        <ele>466.70</ele>
        <time>2014-11-01T07:53:18Z</time>
      </trkpt>
      <trkpt lat="42.390417000" lon="-2.464423000">
        <ele>466.60</ele>
        <time>2014-11-01T07:53:19Z</time>
      </trkpt>
      <trkpt lat="42.390388000" lon="-2.464433000">
        <ele>466.60</ele>
        <time>2014-11-01T07:53:20Z</time>
      </trkpt>
      <trkpt lat="42.390355000" lon="-2.464437000">
        <ele>466.60</ele>
        <time>2014-11-01T07:53:21Z</time>
      </trkpt>
      <trkpt lat="42.390323000" lon="-2.464443000">
        <ele>466.90</ele>
        <time>2014-11-01T07:53:22Z</time>
      </trkpt>
      <trkpt lat="42.390294000" lon="-2.464445000">
        <ele>467.10</ele>
        <time>2014-11-01T07:53:23Z</time>
      </trkpt>
      <trkpt lat="42.390263000" lon="-2.464452000">
        <ele>467.20</ele>
        <time>2014-11-01T07:53:24Z</time>
      </trkpt>
      <trkpt lat="42.390236000" lon="-2.464458000">
        <ele>467.30</ele>
        <time>2014-11-01T07:53:25Z</time>
      </trkpt>
      <trkpt lat="42.390208000" lon="-2.464469000">
        <ele>467.40</ele>
        <time>2014-11-01T07:53:26Z</time>
      </trkpt>
      <trkpt lat="42.390181000" lon="-2.464473000">
        <ele>467.50</ele>
        <time>2014-11-01T07:53:27Z</time>
      </trkpt>
      <trkpt lat="42.390151000" lon="-2.464485000">
        <ele>467.50</ele>
        <time>2014-11-01T07:53:28Z</time>
      </trkpt>
      <trkpt lat="42.390122000" lon="-2.464500000">
        <ele>467.60</ele>
        <time>2014-11-01T07:53:29Z</time>
      </trkpt>
      <trkpt lat="42.390091000" lon="-2.464514000">
        <ele>467.70</ele>
        <time>2014-11-01T07:53:30Z</time>
      </trkpt>
      <trkpt lat="42.390061000" lon="-2.464523000">
        <ele>467.80</ele>
        <time>2014-11-01T07:53:31Z</time>
      </trkpt>
      <trkpt lat="42.390029000" lon="-2.464537000">
        <ele>468.10</ele>
        <time>2014-11-01T07:53:32Z</time>
      </trkpt>
      <trkpt lat="42.389998000" lon="-2.464549000">
        <ele>468.20</ele>
        <time>2014-11-01T07:53:33Z</time>
      </trkpt>
      <trkpt lat="42.389968000" lon="-2.464558000">
        <ele>468.30</ele>
        <time>2014-11-01T07:53:34Z</time>
      </trkpt>
      <trkpt lat="42.389939000" lon="-2.464561000">
        <ele>468.40</ele>
        <time>2014-11-01T07:53:35Z</time>
      </trkpt>
      <trkpt lat="42.389913000" lon="-2.464556000">
        <ele>468.40</ele>
        <time>2014-11-01T07:53:36Z</time>
      </trkpt>
      <trkpt lat="42.389885000" lon="-2.464550000">
        <ele>468.30</ele>
        <time>2014-11-01T07:53:37Z</time>
      </trkpt>
      <trkpt lat="42.389857000" lon="-2.464544000">
        <ele>468.20</ele>
        <time>2014-11-01T07:53:38Z</time>
      </trkpt>
      <trkpt lat="42.389828000" lon="-2.464531000">
        <ele>468.00</ele>
        <time>2014-11-01T07:53:39Z</time>
      </trkpt>
      <trkpt lat="42.389802000" lon="-2.464508000">
        <ele>468.00</ele>
        <time>2014-11-01T07:53:40Z</time>
      </trkpt>
      <trkpt lat="42.389780000" lon="-2.464478000">
        <ele>467.90</ele>
        <time>2014-11-01T07:53:41Z</time>
      </trkpt>
      <trkpt lat="42.389764000" lon="-2.464441000">
        <ele>467.80</ele>
        <time>2014-11-01T07:53:42Z</time>
      </trkpt>
      <trkpt lat="42.389753000" lon="-2.464401000">
        <ele>467.80</ele>
        <time>2014-11-01T07:53:43Z</time>
      </trkpt>
      <trkpt lat="42.389744000" lon="-2.464363000">
        <ele>468.10</ele>
        <time>2014-11-01T07:53:44Z</time>
      </trkpt>
      <trkpt lat="42.389739000" lon="-2.464323000">
        <ele>468.30</ele>
        <time>2014-11-01T07:53:45Z</time>
      </trkpt>
      <trkpt lat="42.389735000" lon="-2.464281000">
        <ele>468.50</ele>
        <time>2014-11-01T07:53:46Z</time>
      </trkpt>
      <trkpt lat="42.389734000" lon="-2.464239000">
        <ele>468.60</ele>
        <time>2014-11-01T07:53:47Z</time>
      </trkpt>
      <trkpt lat="42.389728000" lon="-2.464195000">
        <ele>468.70</ele>
        <time>2014-11-01T07:53:48Z</time>
      </trkpt>
      <trkpt lat="42.389724000" lon="-2.464153000">
        <ele>468.80</ele>
        <time>2014-11-01T07:53:49Z</time>
      </trkpt>
      <trkpt lat="42.389722000" lon="-2.464114000">
        <ele>468.80</ele>
        <time>2014-11-01T07:53:50Z</time>
      </trkpt>
      <trkpt lat="42.389718000" lon="-2.464071000">
        <ele>468.70</ele>
        <time>2014-11-01T07:53:51Z</time>
      </trkpt>
      <trkpt lat="42.389716000" lon="-2.464032000">
        <ele>468.70</ele>
        <time>2014-11-01T07:53:52Z</time>
      </trkpt>
      <trkpt lat="42.389716000" lon="-2.463990000">
        <ele>468.70</ele>
        <time>2014-11-01T07:53:53Z</time>
      </trkpt>
      <trkpt lat="42.389712000" lon="-2.463947000">
        <ele>468.70</ele>
        <time>2014-11-01T07:53:54Z</time>
      </trkpt>
      <trkpt lat="42.389710000" lon="-2.463905000">
        <ele>468.70</ele>
        <time>2014-11-01T07:53:55Z</time>
      </trkpt>
      <trkpt lat="42.389704000" lon="-2.463860000">
        <ele>468.70</ele>
        <time>2014-11-01T07:53:56Z</time>
      </trkpt>
      <trkpt lat="42.389695000" lon="-2.463817000">
        <ele>468.60</ele>
        <time>2014-11-01T07:53:57Z</time>
      </trkpt>
      <trkpt lat="42.389682000" lon="-2.463775000">
        <ele>468.50</ele>
        <time>2014-11-01T07:53:58Z</time>
      </trkpt>
      <trkpt lat="42.389667000" lon="-2.463739000">
        <ele>468.40</ele>
        <time>2014-11-01T07:53:59Z</time>
      </trkpt>
      <trkpt lat="42.389644000" lon="-2.463713000">
        <ele>468.40</ele>
        <time>2014-11-01T07:54:00Z</time>
      </trkpt>
      <trkpt lat="42.389617000" lon="-2.463698000">
        <ele>468.30</ele>
        <time>2014-11-01T07:54:01Z</time>
      </trkpt>
      <trkpt lat="42.389588000" lon="-2.463682000">
        <ele>468.30</ele>
        <time>2014-11-01T07:54:02Z</time>
      </trkpt>
      <trkpt lat="42.389562000" lon="-2.463663000">
        <ele>468.30</ele>
        <time>2014-11-01T07:54:03Z</time>
      </trkpt>
      <trkpt lat="42.389535000" lon="-2.463640000">
        <ele>468.30</ele>
        <time>2014-11-01T07:54:04Z</time>
      </trkpt>
      <trkpt lat="42.389510000" lon="-2.463619000">
        <ele>468.20</ele>
        <time>2014-11-01T07:54:05Z</time>
      </trkpt>
      <trkpt lat="42.389482000" lon="-2.463599000">
        <ele>468.20</ele>
        <time>2014-11-01T07:54:06Z</time>
      </trkpt>
      <trkpt lat="42.389454000" lon="-2.463577000">
        <ele>468.20</ele>
        <time>2014-11-01T07:54:07Z</time>
      </trkpt>
      <trkpt lat="42.389425000" lon="-2.463554000">
        <ele>468.20</ele>
        <time>2014-11-01T07:54:08Z</time>
      </trkpt>
      <trkpt lat="42.389372000" lon="-2.463509000">
        <ele>468.10</ele>
        <time>2014-11-01T07:54:10Z</time>
      </trkpt>
      <trkpt lat="42.389342000" lon="-2.463490000">
        <ele>468.10</ele>
        <time>2014-11-01T07:54:11Z</time>
      </trkpt>
      <trkpt lat="42.389313000" lon="-2.463472000">
        <ele>468.10</ele>
        <time>2014-11-01T07:54:12Z</time>
      </trkpt>
      <trkpt lat="42.389284000" lon="-2.463457000">
        <ele>468.10</ele>
        <time>2014-11-01T07:54:13Z</time>
      </trkpt>
      <trkpt lat="42.389256000" lon="-2.463434000">
        <ele>468.10</ele>
        <time>2014-11-01T07:54:14Z</time>
      </trkpt>
      <trkpt lat="42.389229000" lon="-2.463409000">
        <ele>468.00</ele>
        <time>2014-11-01T07:54:15Z</time>
      </trkpt>
      <trkpt lat="42.389200000" lon="-2.463389000">
        <ele>468.00</ele>
        <time>2014-11-01T07:54:16Z</time>
      </trkpt>
      <trkpt lat="42.389173000" lon="-2.463374000">
        <ele>468.00</ele>
        <time>2014-11-01T07:54:17Z</time>
      </trkpt>
      <trkpt lat="42.389137000" lon="-2.463376000">
        <ele>468.10</ele>
        <time>2014-11-01T07:54:18Z</time>
      </trkpt>
      <trkpt lat="42.389108000" lon="-2.463386000">
        <ele>468.10</ele>
        <time>2014-11-01T07:54:19Z</time>
      </trkpt>
      <trkpt lat="42.389085000" lon="-2.463406000">
        <ele>468.40</ele>
        <time>2014-11-01T07:54:20Z</time>
      </trkpt>
      <trkpt lat="42.389063000" lon="-2.463430000">
        <ele>468.60</ele>
        <time>2014-11-01T07:54:21Z</time>
      </trkpt>
      <trkpt lat="42.389036000" lon="-2.463451000">
        <ele>468.60</ele>
        <time>2014-11-01T07:54:22Z</time>
      </trkpt>
      <trkpt lat="42.389007000" lon="-2.463462000">
        <ele>468.60</ele>
        <time>2014-11-01T07:54:23Z</time>
      </trkpt>
      <trkpt lat="42.388979000" lon="-2.463476000">
        <ele>468.80</ele>
        <time>2014-11-01T07:54:24Z</time>
      </trkpt>
      <trkpt lat="42.388947000" lon="-2.463493000">
        <ele>468.90</ele>
        <time>2014-11-01T07:54:25Z</time>
      </trkpt>
      <trkpt lat="42.388917000" lon="-2.463509000">
        <ele>468.80</ele>
        <time>2014-11-01T07:54:26Z</time>
      </trkpt>
      <trkpt lat="42.388887000" lon="-2.463526000">
        <ele>468.70</ele>
        <time>2014-11-01T07:54:27Z</time>
      </trkpt>
      <trkpt lat="42.388858000" lon="-2.463540000">
        <ele>468.80</ele>
        <time>2014-11-01T07:54:28Z</time>
      </trkpt>
      <trkpt lat="42.388829000" lon="-2.463554000">
        <ele>468.80</ele>
        <time>2014-11-01T07:54:29Z</time>
      </trkpt>
      <trkpt lat="42.388798000" lon="-2.463569000">
        <ele>468.80</ele>
        <time>2014-11-01T07:54:30Z</time>
      </trkpt>
      <trkpt lat="42.388767000" lon="-2.463582000">
        <ele>468.80</ele>
        <time>2014-11-01T07:54:31Z</time>
      </trkpt>
      <trkpt lat="42.388736000" lon="-2.463595000">
        <ele>468.80</ele>
        <time>2014-11-01T07:54:32Z</time>
      </trkpt>
      <trkpt lat="42.388705000" lon="-2.463607000">
        <ele>468.80</ele>
        <time>2014-11-01T07:54:33Z</time>
      </trkpt>
      <trkpt lat="42.388672000" lon="-2.463624000">
        <ele>468.90</ele>
        <time>2014-11-01T07:54:34Z</time>
      </trkpt>
      <trkpt lat="42.388641000" lon="-2.463641000">
        <ele>469.00</ele>
        <time>2014-11-01T07:54:35Z</time>
      </trkpt>
      <trkpt lat="42.388611000" lon="-2.463656000">
        <ele>469.10</ele>
        <time>2014-11-01T07:54:36Z</time>
      </trkpt>
      <trkpt lat="42.388580000" lon="-2.463668000">
        <ele>469.20</ele>
        <time>2014-11-01T07:54:37Z</time>
      </trkpt>
      <trkpt lat="42.388552000" lon="-2.463690000">
        <ele>469.20</ele>
        <time>2014-11-01T07:54:38Z</time>
      </trkpt>
      <trkpt lat="42.388528000" lon="-2.463720000">
        <ele>469.20</ele>
        <time>2014-11-01T07:54:39Z</time>
      </trkpt>
      <trkpt lat="42.388511000" lon="-2.463756000">
        <ele>469.30</ele>
        <time>2014-11-01T07:54:40Z</time>
      </trkpt>
      <trkpt lat="42.388496000" lon="-2.463794000">
        <ele>469.40</ele>
        <time>2014-11-01T07:54:41Z</time>
      </trkpt>
      <trkpt lat="42.388481000" lon="-2.463833000">
        <ele>469.40</ele>
        <time>2014-11-01T07:54:42Z</time>
      </trkpt>
      <trkpt lat="42.388463000" lon="-2.463873000">
        <ele>469.50</ele>
        <time>2014-11-01T07:54:43Z</time>
      </trkpt>
      <trkpt lat="42.388446000" lon="-2.463913000">
        <ele>469.50</ele>
        <time>2014-11-01T07:54:44Z</time>
      </trkpt>
      <trkpt lat="42.388430000" lon="-2.463953000">
        <ele>469.50</ele>
        <time>2014-11-01T07:54:45Z</time>
      </trkpt>
      <trkpt lat="42.388413000" lon="-2.463992000">
        <ele>469.70</ele>
        <time>2014-11-01T07:54:46Z</time>
      </trkpt>
      <trkpt lat="42.388392000" lon="-2.464031000">
        <ele>469.90</ele>
        <time>2014-11-01T07:54:47Z</time>
      </trkpt>
      <trkpt lat="42.388370000" lon="-2.464063000">
        <ele>470.00</ele>
        <time>2014-11-01T07:54:48Z</time>
      </trkpt>
      <trkpt lat="42.388347000" lon="-2.464089000">
        <ele>470.10</ele>
        <time>2014-11-01T07:54:49Z</time>
      </trkpt>
      <trkpt lat="42.388318000" lon="-2.464114000">
        <ele>470.20</ele>
        <time>2014-11-01T07:54:50Z</time>
      </trkpt>
      <trkpt lat="42.388286000" lon="-2.464139000">
        <ele>470.20</ele>
        <time>2014-11-01T07:54:51Z</time>
      </trkpt>
      <trkpt lat="42.388252000" lon="-2.464162000">
        <ele>470.20</ele>
        <time>2014-11-01T07:54:52Z</time>
      </trkpt>
      <trkpt lat="42.388219000" lon="-2.464180000">
        <ele>470.30</ele>
        <time>2014-11-01T07:54:53Z</time>
      </trkpt>
      <trkpt lat="42.388187000" lon="-2.464199000">
        <ele>470.30</ele>
        <time>2014-11-01T07:54:54Z</time>
      </trkpt>
      <trkpt lat="42.388155000" lon="-2.464220000">
        <ele>470.30</ele>
        <time>2014-11-01T07:54:55Z</time>
      </trkpt>
      <trkpt lat="42.388125000" lon="-2.464242000">
        <ele>470.30</ele>
        <time>2014-11-01T07:54:56Z</time>
      </trkpt>
      <trkpt lat="42.388093000" lon="-2.464266000">
        <ele>470.30</ele>
        <time>2014-11-01T07:54:57Z</time>
      </trkpt>
      <trkpt lat="42.388062000" lon="-2.464289000">
        <ele>470.30</ele>
        <time>2014-11-01T07:54:58Z</time>
      </trkpt>
      <trkpt lat="42.388031000" lon="-2.464312000">
        <ele>470.30</ele>
        <time>2014-11-01T07:54:59Z</time>
      </trkpt>
      <trkpt lat="42.387998000" lon="-2.464334000">
        <ele>470.50</ele>
        <time>2014-11-01T07:55:00Z</time>
      </trkpt>
      <trkpt lat="42.387968000" lon="-2.464361000">
        <ele>470.60</ele>
        <time>2014-11-01T07:55:01Z</time>
      </trkpt>
      <trkpt lat="42.387939000" lon="-2.464394000">
        <ele>470.60</ele>
        <time>2014-11-01T07:55:02Z</time>
      </trkpt>
      <trkpt lat="42.387912000" lon="-2.464427000">
        <ele>470.70</ele>
        <time>2014-11-01T07:55:03Z</time>
      </trkpt>
      <trkpt lat="42.387885000" lon="-2.464459000">
        <ele>470.70</ele>
        <time>2014-11-01T07:55:04Z</time>
      </trkpt>
      <trkpt lat="42.387861000" lon="-2.464494000">
        <ele>470.80</ele>
        <time>2014-11-01T07:55:05Z</time>
      </trkpt>
      <trkpt lat="42.387837000" lon="-2.464527000">
        <ele>470.90</ele>
        <time>2014-11-01T07:55:06Z</time>
      </trkpt>
      <trkpt lat="42.387812000" lon="-2.464559000">
        <ele>470.90</ele>
        <time>2014-11-01T07:55:07Z</time>
      </trkpt>
      <trkpt lat="42.387786000" lon="-2.464591000">
        <ele>471.00</ele>
        <time>2014-11-01T07:55:08Z</time>
      </trkpt>
      <trkpt lat="42.387761000" lon="-2.464624000">
        <ele>471.00</ele>
        <time>2014-11-01T07:55:09Z</time>
      </trkpt>
      <trkpt lat="42.387737000" lon="-2.464660000">
        <ele>471.00</ele>
        <time>2014-11-01T07:55:10Z</time>
      </trkpt>
      <trkpt lat="42.387695000" lon="-2.464727000">
        <ele>471.10</ele>
        <time>2014-11-01T07:55:12Z</time>
      </trkpt>
      <trkpt lat="42.387670000" lon="-2.464758000">
        <ele>471.20</ele>
        <time>2014-11-01T07:55:13Z</time>
      </trkpt>
      <trkpt lat="42.387641000" lon="-2.464783000">
        <ele>471.30</ele>
        <time>2014-11-01T07:55:14Z</time>
      </trkpt>
      <trkpt lat="42.387612000" lon="-2.464799000">
        <ele>471.30</ele>
        <time>2014-11-01T07:55:15Z</time>
      </trkpt>
      <trkpt lat="42.387577000" lon="-2.464804000">
        <ele>471.40</ele>
        <time>2014-11-01T07:55:16Z</time>
      </trkpt>
      <trkpt lat="42.387543000" lon="-2.464802000">
        <ele>471.40</ele>
        <time>2014-11-01T07:55:17Z</time>
      </trkpt>
      <trkpt lat="42.387509000" lon="-2.464799000">
        <ele>471.50</ele>
        <time>2014-11-01T07:55:18Z</time>
      </trkpt>
      <trkpt lat="42.387477000" lon="-2.464796000">
        <ele>471.50</ele>
        <time>2014-11-01T07:55:19Z</time>
      </trkpt>
      <trkpt lat="42.387447000" lon="-2.464797000">
        <ele>471.60</ele>
        <time>2014-11-01T07:55:20Z</time>
      </trkpt>
      <trkpt lat="42.387419000" lon="-2.464803000">
        <ele>471.60</ele>
        <time>2014-11-01T07:55:21Z</time>
      </trkpt>
      <trkpt lat="42.387393000" lon="-2.464807000">
        <ele>471.70</ele>
        <time>2014-11-01T07:55:22Z</time>
      </trkpt>
      <trkpt lat="42.387370000" lon="-2.464807000">
        <ele>471.80</ele>
        <time>2014-11-01T07:55:23Z</time>
      </trkpt>
      <trkpt lat="42.387344000" lon="-2.464813000">
        <ele>471.60</ele>
        <time>2014-11-01T07:55:24Z</time>
      </trkpt>
      <trkpt lat="42.387313000" lon="-2.464817000">
        <ele>471.40</ele>
        <time>2014-11-01T07:55:25Z</time>
      </trkpt>
      <trkpt lat="42.387276000" lon="-2.464814000">
        <ele>471.40</ele>
        <time>2014-11-01T07:55:26Z</time>
      </trkpt>
      <trkpt lat="42.387236000" lon="-2.464811000">
        <ele>471.40</ele>
        <time>2014-11-01T07:55:27Z</time>
      </trkpt>
      <trkpt lat="42.387199000" lon="-2.464814000">
        <ele>471.40</ele>
        <time>2014-11-01T07:55:28Z</time>
      </trkpt>
      <trkpt lat="42.387161000" lon="-2.464820000">
        <ele>471.40</ele>
        <time>2014-11-01T07:55:29Z</time>
      </trkpt>
      <trkpt lat="42.387122000" lon="-2.464822000">
        <ele>471.50</ele>
        <time>2014-11-01T07:55:30Z</time>
      </trkpt>
      <trkpt lat="42.387084000" lon="-2.464826000">
        <ele>471.60</ele>
        <time>2014-11-01T07:55:31Z</time>
      </trkpt>
      <trkpt lat="42.387048000" lon="-2.464831000">
        <ele>471.80</ele>
        <time>2014-11-01T07:55:32Z</time>
      </trkpt>
      <trkpt lat="42.387011000" lon="-2.464832000">
        <ele>471.90</ele>
        <time>2014-11-01T07:55:33Z</time>
      </trkpt>
      <trkpt lat="42.386977000" lon="-2.464837000">
        <ele>472.00</ele>
        <time>2014-11-01T07:55:34Z</time>
      </trkpt>
      <trkpt lat="42.386944000" lon="-2.464835000">
        <ele>472.10</ele>
        <time>2014-11-01T07:55:35Z</time>
      </trkpt>
      <trkpt lat="42.386907000" lon="-2.464833000">
        <ele>472.20</ele>
        <time>2014-11-01T07:55:36Z</time>
      </trkpt>
      <trkpt lat="42.386871000" lon="-2.464829000">
        <ele>472.20</ele>
        <time>2014-11-01T07:55:37Z</time>
      </trkpt>
      <trkpt lat="42.386837000" lon="-2.464828000">
        <ele>472.30</ele>
        <time>2014-11-01T07:55:38Z</time>
      </trkpt>
      <trkpt lat="42.386800000" lon="-2.464826000">
        <ele>472.30</ele>
        <time>2014-11-01T07:55:39Z</time>
      </trkpt>
      <trkpt lat="42.386764000" lon="-2.464823000">
        <ele>472.30</ele>
        <time>2014-11-01T07:55:40Z</time>
      </trkpt>
      <trkpt lat="42.386732000" lon="-2.464821000">
        <ele>472.40</ele>
        <time>2014-11-01T07:55:41Z</time>
      </trkpt>
      <trkpt lat="42.386696000" lon="-2.464821000">
        <ele>472.50</ele>
        <time>2014-11-01T07:55:42Z</time>
      </trkpt>
      <trkpt lat="42.386667000" lon="-2.464822000">
        <ele>472.60</ele>
        <time>2014-11-01T07:55:43Z</time>
      </trkpt>
      <trkpt lat="42.386639000" lon="-2.464829000">
        <ele>472.70</ele>
        <time>2014-11-01T07:55:44Z</time>
      </trkpt>
      <trkpt lat="42.386607000" lon="-2.464831000">
        <ele>472.80</ele>
        <time>2014-11-01T07:55:45Z</time>
      </trkpt>
      <trkpt lat="42.386570000" lon="-2.464829000">
        <ele>472.70</ele>
        <time>2014-11-01T07:55:46Z</time>
      </trkpt>
      <trkpt lat="42.386534000" lon="-2.464826000">
        <ele>472.70</ele>
        <time>2014-11-01T07:55:47Z</time>
      </trkpt>
      <trkpt lat="42.386497000" lon="-2.464820000">
        <ele>472.70</ele>
        <time>2014-11-01T07:55:48Z</time>
      </trkpt>
      <trkpt lat="42.386459000" lon="-2.464813000">
        <ele>472.70</ele>
        <time>2014-11-01T07:55:49Z</time>
      </trkpt>
      <trkpt lat="42.386423000" lon="-2.464806000">
        <ele>472.80</ele>
        <time>2014-11-01T07:55:50Z</time>
      </trkpt>
      <trkpt lat="42.386386000" lon="-2.464804000">
        <ele>472.90</ele>
        <time>2014-11-01T07:55:51Z</time>
      </trkpt>
      <trkpt lat="42.386348000" lon="-2.464800000">
        <ele>473.00</ele>
        <time>2014-11-01T07:55:52Z</time>
      </trkpt>
      <trkpt lat="42.386309000" lon="-2.464799000">
        <ele>473.00</ele>
        <time>2014-11-01T07:55:53Z</time>
      </trkpt>
      <trkpt lat="42.386272000" lon="-2.464798000">
        <ele>473.10</ele>
        <time>2014-11-01T07:55:54Z</time>
      </trkpt>
      <trkpt lat="42.386235000" lon="-2.464795000">
        <ele>473.10</ele>
        <time>2014-11-01T07:55:55Z</time>
      </trkpt>
      <trkpt lat="42.386198000" lon="-2.464793000">
        <ele>473.50</ele>
        <time>2014-11-01T07:55:56Z</time>
      </trkpt>
      <trkpt lat="42.386160000" lon="-2.464791000">
        <ele>473.70</ele>
        <time>2014-11-01T07:55:57Z</time>
      </trkpt>
      <trkpt lat="42.386124000" lon="-2.464789000">
        <ele>473.90</ele>
        <time>2014-11-01T07:55:58Z</time>
      </trkpt>
      <trkpt lat="42.386088000" lon="-2.464791000">
        <ele>474.10</ele>
        <time>2014-11-01T07:55:59Z</time>
      </trkpt>
      <trkpt lat="42.386049000" lon="-2.464789000">
        <ele>473.50</ele>
        <time>2014-11-01T07:56:00Z</time>
      </trkpt>
      <trkpt lat="42.386011000" lon="-2.464788000">
        <ele>473.20</ele>
        <time>2014-11-01T07:56:01Z</time>
      </trkpt>
      <trkpt lat="42.385974000" lon="-2.464790000">
        <ele>472.90</ele>
        <time>2014-11-01T07:56:02Z</time>
      </trkpt>
      <trkpt lat="42.385936000" lon="-2.464789000">
        <ele>472.60</ele>
        <time>2014-11-01T07:56:03Z</time>
      </trkpt>
      <trkpt lat="42.385899000" lon="-2.464788000">
        <ele>472.90</ele>
        <time>2014-11-01T07:56:04Z</time>
      </trkpt>
      <trkpt lat="42.385864000" lon="-2.464787000">
        <ele>473.10</ele>
        <time>2014-11-01T07:56:05Z</time>
      </trkpt>
      <trkpt lat="42.385827000" lon="-2.464786000">
        <ele>473.30</ele>
        <time>2014-11-01T07:56:06Z</time>
      </trkpt>
      <trkpt lat="42.385790000" lon="-2.464782000">
        <ele>473.40</ele>
        <time>2014-11-01T07:56:07Z</time>
      </trkpt>
      <trkpt lat="42.385751000" lon="-2.464778000">
        <ele>473.60</ele>
        <time>2014-11-01T07:56:08Z</time>
      </trkpt>
      <trkpt lat="42.385713000" lon="-2.464777000">
        <ele>473.70</ele>
        <time>2014-11-01T07:56:09Z</time>
      </trkpt>
      <trkpt lat="42.385677000" lon="-2.464770000">
        <ele>473.90</ele>
        <time>2014-11-01T07:56:10Z</time>
      </trkpt>
      <trkpt lat="42.385641000" lon="-2.464763000">
        <ele>474.00</ele>
        <time>2014-11-01T07:56:11Z</time>
      </trkpt>
      <trkpt lat="42.385605000" lon="-2.464756000">
        <ele>473.90</ele>
        <time>2014-11-01T07:56:12Z</time>
      </trkpt>
      <trkpt lat="42.385536000" lon="-2.464733000">
        <ele>473.70</ele>
        <time>2014-11-01T07:56:14Z</time>
      </trkpt>
      <trkpt lat="42.385501000" lon="-2.464722000">
        <ele>473.70</ele>
        <time>2014-11-01T07:56:15Z</time>
      </trkpt>
      <trkpt lat="42.385465000" lon="-2.464711000">
        <ele>473.80</ele>
        <time>2014-11-01T07:56:16Z</time>
      </trkpt>
      <trkpt lat="42.385428000" lon="-2.464698000">
        <ele>474.00</ele>
        <time>2014-11-01T07:56:17Z</time>
      </trkpt>
      <trkpt lat="42.385391000" lon="-2.464683000">
        <ele>474.00</ele>
        <time>2014-11-01T07:56:18Z</time>
      </trkpt>
      <trkpt lat="42.385355000" lon="-2.464667000">
        <ele>474.10</ele>
        <time>2014-11-01T07:56:19Z</time>
      </trkpt>
      <trkpt lat="42.385318000" lon="-2.464655000">
        <ele>474.20</ele>
        <time>2014-11-01T07:56:20Z</time>
      </trkpt>
      <trkpt lat="42.385282000" lon="-2.464642000">
        <ele>474.20</ele>
        <time>2014-11-01T07:56:21Z</time>
      </trkpt>
      <trkpt lat="42.385248000" lon="-2.464627000">
        <ele>474.20</ele>
        <time>2014-11-01T07:56:22Z</time>
      </trkpt>
      <trkpt lat="42.385212000" lon="-2.464613000">
        <ele>474.30</ele>
        <time>2014-11-01T07:56:23Z</time>
      </trkpt>
      <trkpt lat="42.385171000" lon="-2.464601000">
        <ele>474.30</ele>
        <time>2014-11-01T07:56:24Z</time>
      </trkpt>
      <trkpt lat="42.385133000" lon="-2.464588000">
        <ele>474.30</ele>
        <time>2014-11-01T07:56:25Z</time>
      </trkpt>
      <trkpt lat="42.385098000" lon="-2.464575000">
        <ele>474.30</ele>
        <time>2014-11-01T07:56:26Z</time>
      </trkpt>
      <trkpt lat="42.385063000" lon="-2.464561000">
        <ele>474.30</ele>
        <time>2014-11-01T07:56:27Z</time>
      </trkpt>
      <trkpt lat="42.385027000" lon="-2.464548000">
        <ele>474.40</ele>
        <time>2014-11-01T07:56:28Z</time>
      </trkpt>
      <trkpt lat="42.384994000" lon="-2.464532000">
        <ele>474.50</ele>
        <time>2014-11-01T07:56:29Z</time>
      </trkpt>
      <trkpt lat="42.384957000" lon="-2.464520000">
        <ele>474.60</ele>
        <time>2014-11-01T07:56:30Z</time>
      </trkpt>
      <trkpt lat="42.384922000" lon="-2.464508000">
        <ele>474.70</ele>
        <time>2014-11-01T07:56:31Z</time>
      </trkpt>
      <trkpt lat="42.384889000" lon="-2.464497000">
        <ele>474.70</ele>
        <time>2014-11-01T07:56:32Z</time>
      </trkpt>
      <trkpt lat="42.384852000" lon="-2.464481000">
        <ele>474.70</ele>
        <time>2014-11-01T07:56:33Z</time>
      </trkpt>
      <trkpt lat="42.384816000" lon="-2.464468000">
        <ele>474.80</ele>
        <time>2014-11-01T07:56:34Z</time>
      </trkpt>
      <trkpt lat="42.384781000" lon="-2.464459000">
        <ele>474.80</ele>
        <time>2014-11-01T07:56:35Z</time>
      </trkpt>
      <trkpt lat="42.384744000" lon="-2.464448000">
        <ele>474.90</ele>
        <time>2014-11-01T07:56:36Z</time>
      </trkpt>
      <trkpt lat="42.384707000" lon="-2.464442000">
        <ele>475.00</ele>
        <time>2014-11-01T07:56:37Z</time>
      </trkpt>
      <trkpt lat="42.384671000" lon="-2.464436000">
        <ele>475.10</ele>
        <time>2014-11-01T07:56:38Z</time>
      </trkpt>
      <trkpt lat="42.384634000" lon="-2.464432000">
        <ele>475.20</ele>
        <time>2014-11-01T07:56:39Z</time>
      </trkpt>
      <trkpt lat="42.384597000" lon="-2.464434000">
        <ele>475.20</ele>
        <time>2014-11-01T07:56:40Z</time>
      </trkpt>
      <trkpt lat="42.384561000" lon="-2.464438000">
        <ele>475.30</ele>
        <time>2014-11-01T07:56:41Z</time>
      </trkpt>
      <trkpt lat="42.384525000" lon="-2.464443000">
        <ele>475.10</ele>
        <time>2014-11-01T07:56:42Z</time>
      </trkpt>
      <trkpt lat="42.384487000" lon="-2.464445000">
        <ele>475.00</ele>
        <time>2014-11-01T07:56:43Z</time>
      </trkpt>
      <trkpt lat="42.384448000" lon="-2.464449000">
        <ele>474.90</ele>
        <time>2014-11-01T07:56:44Z</time>
      </trkpt>
      <trkpt lat="42.384412000" lon="-2.464453000">
        <ele>474.80</ele>
        <time>2014-11-01T07:56:45Z</time>
      </trkpt>
      <trkpt lat="42.384378000" lon="-2.464457000">
        <ele>474.90</ele>
        <time>2014-11-01T07:56:46Z</time>
      </trkpt>
      <trkpt lat="42.384343000" lon="-2.464462000">
        <ele>475.00</ele>
        <time>2014-11-01T07:56:47Z</time>
      </trkpt>
      <trkpt lat="42.384307000" lon="-2.464472000">
        <ele>475.10</ele>
        <time>2014-11-01T07:56:48Z</time>
      </trkpt>
      <trkpt lat="42.384269000" lon="-2.464478000">
        <ele>475.20</ele>
        <time>2014-11-01T07:56:49Z</time>
      </trkpt>
      <trkpt lat="42.384234000" lon="-2.464488000">
        <ele>475.20</ele>
        <time>2014-11-01T07:56:50Z</time>
      </trkpt>
      <trkpt lat="42.384198000" lon="-2.464500000">
        <ele>475.10</ele>
        <time>2014-11-01T07:56:51Z</time>
      </trkpt>
      <trkpt lat="42.384162000" lon="-2.464514000">
        <ele>475.10</ele>
        <time>2014-11-01T07:56:52Z</time>
      </trkpt>
      <trkpt lat="42.384128000" lon="-2.464532000">
        <ele>475.10</ele>
        <time>2014-11-01T07:56:53Z</time>
      </trkpt>
      <trkpt lat="42.384096000" lon="-2.464549000">
        <ele>475.10</ele>
        <time>2014-11-01T07:56:54Z</time>
      </trkpt>
      <trkpt lat="42.384064000" lon="-2.464569000">
        <ele>475.10</ele>
        <time>2014-11-01T07:56:55Z</time>
      </trkpt>
      <trkpt lat="42.384030000" lon="-2.464592000">
        <ele>475.10</ele>
        <time>2014-11-01T07:56:56Z</time>
      </trkpt>
      <trkpt lat="42.383994000" lon="-2.464615000">
        <ele>475.10</ele>
        <time>2014-11-01T07:56:57Z</time>
      </trkpt>
      <trkpt lat="42.383958000" lon="-2.464640000">
        <ele>475.50</ele>
        <time>2014-11-01T07:56:58Z</time>
      </trkpt>
      <trkpt lat="42.383920000" lon="-2.464663000">
        <ele>475.80</ele>
        <time>2014-11-01T07:56:59Z</time>
      </trkpt>
      <trkpt lat="42.383883000" lon="-2.464693000">
        <ele>476.00</ele>
        <time>2014-11-01T07:57:00Z</time>
      </trkpt>
      <trkpt lat="42.383850000" lon="-2.464720000">
        <ele>476.20</ele>
        <time>2014-11-01T07:57:01Z</time>
      </trkpt>
      <trkpt lat="42.383821000" lon="-2.464751000">
        <ele>476.30</ele>
        <time>2014-11-01T07:57:02Z</time>
      </trkpt>
      <trkpt lat="42.383791000" lon="-2.464785000">
        <ele>476.40</ele>
        <time>2014-11-01T07:57:03Z</time>
      </trkpt>
      <trkpt lat="42.383760000" lon="-2.464819000">
        <ele>476.40</ele>
        <time>2014-11-01T07:57:04Z</time>
      </trkpt>
      <trkpt lat="42.383731000" lon="-2.464851000">
        <ele>476.50</ele>
        <time>2014-11-01T07:57:05Z</time>
      </trkpt>
      <trkpt lat="42.383701000" lon="-2.464882000">
        <ele>476.50</ele>
        <time>2014-11-01T07:57:06Z</time>
      </trkpt>
      <trkpt lat="42.383672000" lon="-2.464910000">
        <ele>476.60</ele>
        <time>2014-11-01T07:57:07Z</time>
      </trkpt>
      <trkpt lat="42.383642000" lon="-2.464933000">
        <ele>476.60</ele>
        <time>2014-11-01T07:57:08Z</time>
      </trkpt>
      <trkpt lat="42.383612000" lon="-2.464960000">
        <ele>476.70</ele>
        <time>2014-11-01T07:57:09Z</time>
      </trkpt>
      <trkpt lat="42.383578000" lon="-2.464986000">
        <ele>476.80</ele>
        <time>2014-11-01T07:57:10Z</time>
      </trkpt>
      <trkpt lat="42.383548000" lon="-2.465010000">
        <ele>476.80</ele>
        <time>2014-11-01T07:57:11Z</time>
      </trkpt>
      <trkpt lat="42.383517000" lon="-2.465035000">
        <ele>476.80</ele>
        <time>2014-11-01T07:57:12Z</time>
      </trkpt>
      <trkpt lat="42.383487000" lon="-2.465059000">
        <ele>476.70</ele>
        <time>2014-11-01T07:57:13Z</time>
      </trkpt>
      <trkpt lat="42.383435000" lon="-2.465123000">
        <ele>476.70</ele>
        <time>2014-11-01T07:57:15Z</time>
      </trkpt>
      <trkpt lat="42.383418000" lon="-2.465167000">
        <ele>476.70</ele>
        <time>2014-11-01T07:57:16Z</time>
      </trkpt>
      <trkpt lat="42.383404000" lon="-2.465215000">
        <ele>476.70</ele>
        <time>2014-11-01T07:57:17Z</time>
      </trkpt>
      <trkpt lat="42.383396000" lon="-2.465261000">
        <ele>476.70</ele>
        <time>2014-11-01T07:57:18Z</time>
      </trkpt>
      <trkpt lat="42.383391000" lon="-2.465308000">
        <ele>476.80</ele>
        <time>2014-11-01T07:57:19Z</time>
      </trkpt>
      <trkpt lat="42.383390000" lon="-2.465356000">
        <ele>476.80</ele>
        <time>2014-11-01T07:57:20Z</time>
      </trkpt>
      <trkpt lat="42.383393000" lon="-2.465403000">
        <ele>476.80</ele>
        <time>2014-11-01T07:57:21Z</time>
      </trkpt>
      <trkpt lat="42.383394000" lon="-2.465450000">
        <ele>476.90</ele>
        <time>2014-11-01T07:57:22Z</time>
      </trkpt>
      <trkpt lat="42.383385000" lon="-2.465493000">
        <ele>476.90</ele>
        <time>2014-11-01T07:57:23Z</time>
      </trkpt>
      <trkpt lat="42.383366000" lon="-2.465534000">
        <ele>477.10</ele>
        <time>2014-11-01T07:57:24Z</time>
      </trkpt>
      <trkpt lat="42.383343000" lon="-2.465569000">
        <ele>477.30</ele>
        <time>2014-11-01T07:57:25Z</time>
      </trkpt>
      <trkpt lat="42.383318000" lon="-2.465604000">
        <ele>477.50</ele>
        <time>2014-11-01T07:57:26Z</time>
      </trkpt>
      <trkpt lat="42.383287000" lon="-2.465634000">
        <ele>477.60</ele>
        <time>2014-11-01T07:57:27Z</time>
      </trkpt>
      <trkpt lat="42.383257000" lon="-2.465666000">
        <ele>477.70</ele>
        <time>2014-11-01T07:57:28Z</time>
      </trkpt>
      <trkpt lat="42.383228000" lon="-2.465694000">
        <ele>477.70</ele>
        <time>2014-11-01T07:57:29Z</time>
      </trkpt>
      <trkpt lat="42.383200000" lon="-2.465723000">
        <ele>477.40</ele>
        <time>2014-11-01T07:57:30Z</time>
      </trkpt>
      <trkpt lat="42.383174000" lon="-2.465752000">
        <ele>477.20</ele>
        <time>2014-11-01T07:57:31Z</time>
      </trkpt>
      <trkpt lat="42.383145000" lon="-2.465776000">
        <ele>477.00</ele>
        <time>2014-11-01T07:57:32Z</time>
      </trkpt>
      <trkpt lat="42.383115000" lon="-2.465801000">
        <ele>476.90</ele>
        <time>2014-11-01T07:57:33Z</time>
      </trkpt>
      <trkpt lat="42.383084000" lon="-2.465826000">
        <ele>477.00</ele>
        <time>2014-11-01T07:57:34Z</time>
      </trkpt>
      <trkpt lat="42.383052000" lon="-2.465847000">
        <ele>477.00</ele>
        <time>2014-11-01T07:57:35Z</time>
      </trkpt>
      <trkpt lat="42.383017000" lon="-2.465865000">
        <ele>477.40</ele>
        <time>2014-11-01T07:57:36Z</time>
      </trkpt>
      <trkpt lat="42.382980000" lon="-2.465881000">
        <ele>477.70</ele>
        <time>2014-11-01T07:57:37Z</time>
      </trkpt>
      <trkpt lat="42.382945000" lon="-2.465899000">
        <ele>478.00</ele>
        <time>2014-11-01T07:57:38Z</time>
      </trkpt>
      <trkpt lat="42.382910000" lon="-2.465915000">
        <ele>478.10</ele>
        <time>2014-11-01T07:57:39Z</time>
      </trkpt>
      <trkpt lat="42.382878000" lon="-2.465927000">
        <ele>478.10</ele>
        <time>2014-11-01T07:57:40Z</time>
      </trkpt>
      <trkpt lat="42.382846000" lon="-2.465941000">
        <ele>478.00</ele>
        <time>2014-11-01T07:57:41Z</time>
      </trkpt>
      <trkpt lat="42.382813000" lon="-2.465951000">
        <ele>478.00</ele>
        <time>2014-11-01T07:57:42Z</time>
      </trkpt>
      <trkpt lat="42.382780000" lon="-2.465962000">
        <ele>477.90</ele>
        <time>2014-11-01T07:57:43Z</time>
      </trkpt>
      <trkpt lat="42.382751000" lon="-2.465972000">
        <ele>477.80</ele>
        <time>2014-11-01T07:57:44Z</time>
      </trkpt>
      <trkpt lat="42.382719000" lon="-2.465981000">
        <ele>477.80</ele>
        <time>2014-11-01T07:57:45Z</time>
      </trkpt>
      <trkpt lat="42.382686000" lon="-2.465991000">
        <ele>477.80</ele>
        <time>2014-11-01T07:57:46Z</time>
      </trkpt>
      <trkpt lat="42.382655000" lon="-2.465999000">
        <ele>477.70</ele>
        <time>2014-11-01T07:57:47Z</time>
      </trkpt>
      <trkpt lat="42.382621000" lon="-2.466011000">
        <ele>477.80</ele>
        <time>2014-11-01T07:57:48Z</time>
      </trkpt>
      <trkpt lat="42.382587000" lon="-2.466023000">
        <ele>477.80</ele>
        <time>2014-11-01T07:57:49Z</time>
      </trkpt>
      <trkpt lat="42.382554000" lon="-2.466038000">
        <ele>477.60</ele>
        <time>2014-11-01T07:57:50Z</time>
      </trkpt>
      <trkpt lat="42.382519000" lon="-2.466055000">
        <ele>477.50</ele>
        <time>2014-11-01T07:57:51Z</time>
      </trkpt>
      <trkpt lat="42.382486000" lon="-2.466078000">
        <ele>477.50</ele>
        <time>2014-11-01T07:57:52Z</time>
      </trkpt>
      <trkpt lat="42.382452000" lon="-2.466101000">
        <ele>477.60</ele>
        <time>2014-11-01T07:57:53Z</time>
      </trkpt>
      <trkpt lat="42.382422000" lon="-2.466124000">
        <ele>477.60</ele>
        <time>2014-11-01T07:57:54Z</time>
      </trkpt>
      <trkpt lat="42.382393000" lon="-2.466148000">
        <ele>477.60</ele>
        <time>2014-11-01T07:57:55Z</time>
      </trkpt>
      <trkpt lat="42.382364000" lon="-2.466171000">
        <ele>477.80</ele>
        <time>2014-11-01T07:57:56Z</time>
      </trkpt>
      <trkpt lat="42.382337000" lon="-2.466200000">
        <ele>477.90</ele>
        <time>2014-11-01T07:57:57Z</time>
      </trkpt>
      <trkpt lat="42.382310000" lon="-2.466228000">
        <ele>478.10</ele>
        <time>2014-11-01T07:57:58Z</time>
      </trkpt>
      <trkpt lat="42.382285000" lon="-2.466259000">
        <ele>478.30</ele>
        <time>2014-11-01T07:57:59Z</time>
      </trkpt>
      <trkpt lat="42.382258000" lon="-2.466290000">
        <ele>478.50</ele>
        <time>2014-11-01T07:58:00Z</time>
      </trkpt>
      <trkpt lat="42.382234000" lon="-2.466319000">
        <ele>478.60</ele>
        <time>2014-11-01T07:58:01Z</time>
      </trkpt>
      <trkpt lat="42.382208000" lon="-2.466349000">
        <ele>478.60</ele>
        <time>2014-11-01T07:58:02Z</time>
      </trkpt>
      <trkpt lat="42.382186000" lon="-2.466377000">
        <ele>478.60</ele>
        <time>2014-11-01T07:58:03Z</time>
      </trkpt>
      <trkpt lat="42.382164000" lon="-2.466405000">
        <ele>478.50</ele>
        <time>2014-11-01T07:58:04Z</time>
      </trkpt>
      <trkpt lat="42.382141000" lon="-2.466429000">
        <ele>478.40</ele>
        <time>2014-11-01T07:58:05Z</time>
      </trkpt>
      <trkpt lat="42.382114000" lon="-2.466456000">
        <ele>478.50</ele>
        <time>2014-11-01T07:58:06Z</time>
      </trkpt>
      <trkpt lat="42.382088000" lon="-2.466484000">
        <ele>478.60</ele>
        <time>2014-11-01T07:58:07Z</time>
      </trkpt>
      <trkpt lat="42.382060000" lon="-2.466513000">
        <ele>478.70</ele>
        <time>2014-11-01T07:58:08Z</time>
      </trkpt>
      <trkpt lat="42.382034000" lon="-2.466538000">
        <ele>478.80</ele>
        <time>2014-11-01T07:58:09Z</time>
      </trkpt>
      <trkpt lat="42.382010000" lon="-2.466568000">
        <ele>478.90</ele>
        <time>2014-11-01T07:58:10Z</time>
      </trkpt>
      <trkpt lat="42.381985000" lon="-2.466600000">
        <ele>479.00</ele>
        <time>2014-11-01T07:58:11Z</time>
      </trkpt>
      <trkpt lat="42.381959000" lon="-2.466628000">
        <ele>479.10</ele>
        <time>2014-11-01T07:58:12Z</time>
      </trkpt>
      <trkpt lat="42.381930000" lon="-2.466657000">
        <ele>479.30</ele>
        <time>2014-11-01T07:58:13Z</time>
      </trkpt>
      <trkpt lat="42.381905000" lon="-2.466691000">
        <ele>479.00</ele>
        <time>2014-11-01T07:58:14Z</time>
      </trkpt>
      <trkpt lat="42.381854000" lon="-2.466759000">
        <ele>478.80</ele>
        <time>2014-11-01T07:58:16Z</time>
      </trkpt>
      <trkpt lat="42.381832000" lon="-2.466794000">
        <ele>478.70</ele>
        <time>2014-11-01T07:58:17Z</time>
      </trkpt>
      <trkpt lat="42.381807000" lon="-2.466826000">
        <ele>478.60</ele>
        <time>2014-11-01T07:58:18Z</time>
      </trkpt>
      <trkpt lat="42.381781000" lon="-2.466860000">
        <ele>478.50</ele>
        <time>2014-11-01T07:58:19Z</time>
      </trkpt>
      <trkpt lat="42.381757000" lon="-2.466900000">
        <ele>478.60</ele>
        <time>2014-11-01T07:58:20Z</time>
      </trkpt>
      <trkpt lat="42.381725000" lon="-2.466953000">
        <ele>478.70</ele>
        <time>2014-11-01T07:58:21Z</time>
      </trkpt>
      <trkpt lat="42.381695000" lon="-2.467002000">
        <ele>478.90</ele>
        <time>2014-11-01T07:58:22Z</time>
      </trkpt>
      <trkpt lat="42.381656000" lon="-2.467032000">
        <ele>478.90</ele>
        <time>2014-11-01T07:58:23Z</time>
      </trkpt>
      <trkpt lat="42.381623000" lon="-2.467059000">
        <ele>479.00</ele>
        <time>2014-11-01T07:58:24Z</time>
      </trkpt>
      <trkpt lat="42.381596000" lon="-2.467086000">
        <ele>479.00</ele>
        <time>2014-11-01T07:58:25Z</time>
      </trkpt>
      <trkpt lat="42.381570000" lon="-2.467112000">
        <ele>479.10</ele>
        <time>2014-11-01T07:58:26Z</time>
      </trkpt>
      <trkpt lat="42.381545000" lon="-2.467141000">
        <ele>479.30</ele>
        <time>2014-11-01T07:58:27Z</time>
      </trkpt>
      <trkpt lat="42.381517000" lon="-2.467168000">
        <ele>479.40</ele>
        <time>2014-11-01T07:58:28Z</time>
      </trkpt>
      <trkpt lat="42.381489000" lon="-2.467190000">
        <ele>479.40</ele>
        <time>2014-11-01T07:58:29Z</time>
      </trkpt>
      <trkpt lat="42.381462000" lon="-2.467211000">
        <ele>479.50</ele>
        <time>2014-11-01T07:58:30Z</time>
      </trkpt>
      <trkpt lat="42.381431000" lon="-2.467231000">
        <ele>479.50</ele>
        <time>2014-11-01T07:58:31Z</time>
      </trkpt>
      <trkpt lat="42.381402000" lon="-2.467253000">
        <ele>479.40</ele>
        <time>2014-11-01T07:58:32Z</time>
      </trkpt>
      <trkpt lat="42.381370000" lon="-2.467273000">
        <ele>479.30</ele>
        <time>2014-11-01T07:58:33Z</time>
      </trkpt>
      <trkpt lat="42.381337000" lon="-2.467291000">
        <ele>479.20</ele>
        <time>2014-11-01T07:58:34Z</time>
      </trkpt>
      <trkpt lat="42.381304000" lon="-2.467308000">
        <ele>479.10</ele>
        <time>2014-11-01T07:58:35Z</time>
      </trkpt>
      <trkpt lat="42.381273000" lon="-2.467329000">
        <ele>479.10</ele>
        <time>2014-11-01T07:58:36Z</time>
      </trkpt>
      <trkpt lat="42.381242000" lon="-2.467351000">
        <ele>479.10</ele>
        <time>2014-11-01T07:58:37Z</time>
      </trkpt>
      <trkpt lat="42.381210000" lon="-2.467373000">
        <ele>479.10</ele>
        <time>2014-11-01T07:58:38Z</time>
      </trkpt>
      <trkpt lat="42.381178000" lon="-2.467394000">
        <ele>479.10</ele>
        <time>2014-11-01T07:58:39Z</time>
      </trkpt>
      <trkpt lat="42.381145000" lon="-2.467415000">
        <ele>479.10</ele>
        <time>2014-11-01T07:58:40Z</time>
      </trkpt>
      <trkpt lat="42.381115000" lon="-2.467435000">
        <ele>479.10</ele>
        <time>2014-11-01T07:58:41Z</time>
      </trkpt>
      <trkpt lat="42.381082000" lon="-2.467454000">
        <ele>479.20</ele>
        <time>2014-11-01T07:58:42Z</time>
      </trkpt>
      <trkpt lat="42.381050000" lon="-2.467471000">
        <ele>479.30</ele>
        <time>2014-11-01T07:58:43Z</time>
      </trkpt>
      <trkpt lat="42.381018000" lon="-2.467487000">
        <ele>479.30</ele>
        <time>2014-11-01T07:58:44Z</time>
      </trkpt>
      <trkpt lat="42.380985000" lon="-2.467501000">
        <ele>479.30</ele>
        <time>2014-11-01T07:58:45Z</time>
      </trkpt>
      <trkpt lat="42.380949000" lon="-2.467514000">
        <ele>479.30</ele>
        <time>2014-11-01T07:58:46Z</time>
      </trkpt>
      <trkpt lat="42.380915000" lon="-2.467527000">
        <ele>479.40</ele>
        <time>2014-11-01T07:58:47Z</time>
      </trkpt>
      <trkpt lat="42.380881000" lon="-2.467537000">
        <ele>479.70</ele>
        <time>2014-11-01T07:58:48Z</time>
      </trkpt>
      <trkpt lat="42.380846000" lon="-2.467544000">
        <ele>479.90</ele>
        <time>2014-11-01T07:58:49Z</time>
      </trkpt>
      <trkpt lat="42.380813000" lon="-2.467553000">
        <ele>480.10</ele>
        <time>2014-11-01T07:58:50Z</time>
      </trkpt>
      <trkpt lat="42.380777000" lon="-2.467567000">
        <ele>480.20</ele>
        <time>2014-11-01T07:58:51Z</time>
      </trkpt>
      <trkpt lat="42.380744000" lon="-2.467582000">
        <ele>480.40</ele>
        <time>2014-11-01T07:58:52Z</time>
      </trkpt>
      <trkpt lat="42.380710000" lon="-2.467594000">
        <ele>480.50</ele>
        <time>2014-11-01T07:58:53Z</time>
      </trkpt>
      <trkpt lat="42.380677000" lon="-2.467611000">
        <ele>480.60</ele>
        <time>2014-11-01T07:58:54Z</time>
      </trkpt>
      <trkpt lat="42.380642000" lon="-2.467631000">
        <ele>480.70</ele>
        <time>2014-11-01T07:58:55Z</time>
      </trkpt>
      <trkpt lat="42.380608000" lon="-2.467647000">
        <ele>480.70</ele>
        <time>2014-11-01T07:58:56Z</time>
      </trkpt>
      <trkpt lat="42.380575000" lon="-2.467664000">
        <ele>480.80</ele>
        <time>2014-11-01T07:58:57Z</time>
      </trkpt>
      <trkpt lat="42.380542000" lon="-2.467679000">
        <ele>480.80</ele>
        <time>2014-11-01T07:58:58Z</time>
      </trkpt>
      <trkpt lat="42.380509000" lon="-2.467699000">
        <ele>480.80</ele>
        <time>2014-11-01T07:58:59Z</time>
      </trkpt>
      <trkpt lat="42.380476000" lon="-2.467722000">
        <ele>480.80</ele>
        <time>2014-11-01T07:59:00Z</time>
      </trkpt>
      <trkpt lat="42.380443000" lon="-2.467744000">
        <ele>480.70</ele>
        <time>2014-11-01T07:59:01Z</time>
      </trkpt>
      <trkpt lat="42.380410000" lon="-2.467765000">
        <ele>480.70</ele>
        <time>2014-11-01T07:59:02Z</time>
      </trkpt>
      <trkpt lat="42.380377000" lon="-2.467785000">
        <ele>480.70</ele>
        <time>2014-11-01T07:59:03Z</time>
      </trkpt>
      <trkpt lat="42.380344000" lon="-2.467804000">
        <ele>480.70</ele>
        <time>2014-11-01T07:59:04Z</time>
      </trkpt>
      <trkpt lat="42.380311000" lon="-2.467825000">
        <ele>480.60</ele>
        <time>2014-11-01T07:59:05Z</time>
      </trkpt>
      <trkpt lat="42.380276000" lon="-2.467845000">
        <ele>480.70</ele>
        <time>2014-11-01T07:59:06Z</time>
      </trkpt>
      <trkpt lat="42.380243000" lon="-2.467866000">
        <ele>480.70</ele>
        <time>2014-11-01T07:59:07Z</time>
      </trkpt>
      <trkpt lat="42.380209000" lon="-2.467887000">
        <ele>480.80</ele>
        <time>2014-11-01T07:59:08Z</time>
      </trkpt>
      <trkpt lat="42.380175000" lon="-2.467908000">
        <ele>480.80</ele>
        <time>2014-11-01T07:59:09Z</time>
      </trkpt>
      <trkpt lat="42.380144000" lon="-2.467927000">
        <ele>481.10</ele>
        <time>2014-11-01T07:59:10Z</time>
      </trkpt>
      <trkpt lat="42.380111000" lon="-2.467949000">
        <ele>481.30</ele>
        <time>2014-11-01T07:59:11Z</time>
      </trkpt>
      <trkpt lat="42.380079000" lon="-2.467967000">
        <ele>481.40</ele>
        <time>2014-11-01T07:59:12Z</time>
      </trkpt>
      <trkpt lat="42.380049000" lon="-2.467983000">
        <ele>481.60</ele>
        <time>2014-11-01T07:59:13Z</time>
      </trkpt>
      <trkpt lat="42.380017000" lon="-2.468003000">
        <ele>481.60</ele>
        <time>2014-11-01T07:59:14Z</time>
      </trkpt>
      <trkpt lat="42.379983000" lon="-2.468022000">
        <ele>481.60</ele>
        <time>2014-11-01T07:59:15Z</time>
      </trkpt>
      <trkpt lat="42.379950000" lon="-2.468042000">
        <ele>481.60</ele>
        <time>2014-11-01T07:59:16Z</time>
      </trkpt>
      <trkpt lat="42.379883000" lon="-2.468080000">
        <ele>481.60</ele>
        <time>2014-11-01T07:59:18Z</time>
      </trkpt>
      <trkpt lat="42.379849000" lon="-2.468098000">
        <ele>481.60</ele>
        <time>2014-11-01T07:59:19Z</time>
      </trkpt>
      <trkpt lat="42.379813000" lon="-2.468118000">
        <ele>481.60</ele>
        <time>2014-11-01T07:59:20Z</time>
      </trkpt>
      <trkpt lat="42.379781000" lon="-2.468135000">
        <ele>481.60</ele>
        <time>2014-11-01T07:59:21Z</time>
      </trkpt>
      <trkpt lat="42.379750000" lon="-2.468157000">
        <ele>481.70</ele>
        <time>2014-11-01T07:59:22Z</time>
      </trkpt>
      <trkpt lat="42.379719000" lon="-2.468180000">
        <ele>481.80</ele>
        <time>2014-11-01T07:59:23Z</time>
      </trkpt>
      <trkpt lat="42.379687000" lon="-2.468204000">
        <ele>481.80</ele>
        <time>2014-11-01T07:59:24Z</time>
      </trkpt>
      <trkpt lat="42.379657000" lon="-2.468234000">
        <ele>481.80</ele>
        <time>2014-11-01T07:59:25Z</time>
      </trkpt>
      <trkpt lat="42.379630000" lon="-2.468256000">
        <ele>481.70</ele>
        <time>2014-11-01T07:59:26Z</time>
      </trkpt>
      <trkpt lat="42.379603000" lon="-2.468285000">
        <ele>481.60</ele>
        <time>2014-11-01T07:59:27Z</time>
      </trkpt>
      <trkpt lat="42.379575000" lon="-2.468310000">
        <ele>481.60</ele>
        <time>2014-11-01T07:59:28Z</time>
      </trkpt>
      <trkpt lat="42.379546000" lon="-2.468341000">
        <ele>481.50</ele>
        <time>2014-11-01T07:59:29Z</time>
      </trkpt>
      <trkpt lat="42.379515000" lon="-2.468369000">
        <ele>481.80</ele>
        <time>2014-11-01T07:59:30Z</time>
      </trkpt>
      <trkpt lat="42.379486000" lon="-2.468401000">
        <ele>482.00</ele>
        <time>2014-11-01T07:59:31Z</time>
      </trkpt>
      <trkpt lat="42.379456000" lon="-2.468432000">
        <ele>482.20</ele>
        <time>2014-11-01T07:59:32Z</time>
      </trkpt>
      <trkpt lat="42.379429000" lon="-2.468468000">
        <ele>482.30</ele>
        <time>2014-11-01T07:59:33Z</time>
      </trkpt>
      <trkpt lat="42.379404000" lon="-2.468501000">
        <ele>482.30</ele>
        <time>2014-11-01T07:59:34Z</time>
      </trkpt>
      <trkpt lat="42.379378000" lon="-2.468535000">
        <ele>482.40</ele>
        <time>2014-11-01T07:59:35Z</time>
      </trkpt>
      <trkpt lat="42.379355000" lon="-2.468574000">
        <ele>482.40</ele>
        <time>2014-11-01T07:59:36Z</time>
      </trkpt>
      <trkpt lat="42.379329000" lon="-2.468612000">
        <ele>482.40</ele>
        <time>2014-11-01T07:59:37Z</time>
      </trkpt>
      <trkpt lat="42.379303000" lon="-2.468649000">
        <ele>482.50</ele>
        <time>2014-11-01T07:59:38Z</time>
      </trkpt>
      <trkpt lat="42.379278000" lon="-2.468688000">
        <ele>482.50</ele>
        <time>2014-11-01T07:59:39Z</time>
      </trkpt>
      <trkpt lat="42.379251000" lon="-2.468724000">
        <ele>482.60</ele>
        <time>2014-11-01T07:59:40Z</time>
      </trkpt>
      <trkpt lat="42.379227000" lon="-2.468761000">
        <ele>482.60</ele>
        <time>2014-11-01T07:59:41Z</time>
      </trkpt>
      <trkpt lat="42.379203000" lon="-2.468799000">
        <ele>482.70</ele>
        <time>2014-11-01T07:59:42Z</time>
      </trkpt>
      <trkpt lat="42.379176000" lon="-2.468838000">
        <ele>482.70</ele>
        <time>2014-11-01T07:59:43Z</time>
      </trkpt>
      <trkpt lat="42.379145000" lon="-2.468870000">
        <ele>482.90</ele>
        <time>2014-11-01T07:59:44Z</time>
      </trkpt>
      <trkpt lat="42.379113000" lon="-2.468906000">
        <ele>483.00</ele>
        <time>2014-11-01T07:59:45Z</time>
      </trkpt>
      <trkpt lat="42.379084000" lon="-2.468939000">
        <ele>483.10</ele>
        <time>2014-11-01T07:59:46Z</time>
      </trkpt>
      <trkpt lat="42.379055000" lon="-2.468972000">
        <ele>483.10</ele>
        <time>2014-11-01T07:59:47Z</time>
      </trkpt>
      <trkpt lat="42.379023000" lon="-2.469001000">
        <ele>482.90</ele>
        <time>2014-11-01T07:59:48Z</time>
      </trkpt>
      <trkpt lat="42.378995000" lon="-2.469030000">
        <ele>482.70</ele>
        <time>2014-11-01T07:59:49Z</time>
      </trkpt>
      <trkpt lat="42.378967000" lon="-2.469057000">
        <ele>482.60</ele>
        <time>2014-11-01T07:59:50Z</time>
      </trkpt>
      <trkpt lat="42.378936000" lon="-2.469084000">
        <ele>482.50</ele>
        <time>2014-11-01T07:59:51Z</time>
      </trkpt>
      <trkpt lat="42.378908000" lon="-2.469106000">
        <ele>482.50</ele>
        <time>2014-11-01T07:59:52Z</time>
      </trkpt>
      <trkpt lat="42.378875000" lon="-2.469129000">
        <ele>482.40</ele>
        <time>2014-11-01T07:59:53Z</time>
      </trkpt>
      <trkpt lat="42.378843000" lon="-2.469150000">
        <ele>482.20</ele>
        <time>2014-11-01T07:59:54Z</time>
      </trkpt>
      <trkpt lat="42.378814000" lon="-2.469171000">
        <ele>482.10</ele>
        <time>2014-11-01T07:59:55Z</time>
      </trkpt>
      <trkpt lat="42.378781000" lon="-2.469191000">
        <ele>482.00</ele>
        <time>2014-11-01T07:59:56Z</time>
      </trkpt>
      <trkpt lat="42.378752000" lon="-2.469209000">
        <ele>481.90</ele>
        <time>2014-11-01T07:59:57Z</time>
      </trkpt>
      <trkpt lat="42.378724000" lon="-2.469223000">
        <ele>482.20</ele>
        <time>2014-11-01T07:59:58Z</time>
      </trkpt>
      <trkpt lat="42.378691000" lon="-2.469242000">
        <ele>482.30</ele>
        <time>2014-11-01T07:59:59Z</time>
      </trkpt>
      <trkpt lat="42.378658000" lon="-2.469255000">
        <ele>482.50</ele>
        <time>2014-11-01T08:00:00Z</time>
      </trkpt>
      <trkpt lat="42.378624000" lon="-2.469270000">
        <ele>482.60</ele>
        <time>2014-11-01T08:00:01Z</time>
      </trkpt>
      <trkpt lat="42.378590000" lon="-2.469288000">
        <ele>482.90</ele>
        <time>2014-11-01T08:00:02Z</time>
      </trkpt>
      <trkpt lat="42.378555000" lon="-2.469306000">
        <ele>483.10</ele>
        <time>2014-11-01T08:00:03Z</time>
      </trkpt>
      <trkpt lat="42.378522000" lon="-2.469321000">
        <ele>483.40</ele>
        <time>2014-11-01T08:00:04Z</time>
      </trkpt>
      <trkpt lat="42.378488000" lon="-2.469340000">
        <ele>483.60</ele>
        <time>2014-11-01T08:00:05Z</time>
      </trkpt>
      <trkpt lat="42.378454000" lon="-2.469360000">
        <ele>483.80</ele>
        <time>2014-11-01T08:00:06Z</time>
      </trkpt>
      <trkpt lat="42.378419000" lon="-2.469382000">
        <ele>483.90</ele>
        <time>2014-11-01T08:00:07Z</time>
      </trkpt>
      <trkpt lat="42.378388000" lon="-2.469402000">
        <ele>484.00</ele>
        <time>2014-11-01T08:00:08Z</time>
      </trkpt>
      <trkpt lat="42.378357000" lon="-2.469423000">
        <ele>484.00</ele>
        <time>2014-11-01T08:00:09Z</time>
      </trkpt>
      <trkpt lat="42.378327000" lon="-2.469442000">
        <ele>483.90</ele>
        <time>2014-11-01T08:00:10Z</time>
      </trkpt>
      <trkpt lat="42.378296000" lon="-2.469463000">
        <ele>483.80</ele>
        <time>2014-11-01T08:00:11Z</time>
      </trkpt>
      <trkpt lat="42.378264000" lon="-2.469488000">
        <ele>483.80</ele>
        <time>2014-11-01T08:00:12Z</time>
      </trkpt>
      <trkpt lat="42.378230000" lon="-2.469508000">
        <ele>483.70</ele>
        <time>2014-11-01T08:00:13Z</time>
      </trkpt>
      <trkpt lat="42.378198000" lon="-2.469531000">
        <ele>483.70</ele>
        <time>2014-11-01T08:00:14Z</time>
      </trkpt>
      <trkpt lat="42.378167000" lon="-2.469550000">
        <ele>483.60</ele>
        <time>2014-11-01T08:00:15Z</time>
      </trkpt>
      <trkpt lat="42.378136000" lon="-2.469570000">
        <ele>483.60</ele>
        <time>2014-11-01T08:00:16Z</time>
      </trkpt>
      <trkpt lat="42.378105000" lon="-2.469590000">
        <ele>483.60</ele>
        <time>2014-11-01T08:00:17Z</time>
      </trkpt>
      <trkpt lat="42.378075000" lon="-2.469608000">
        <ele>483.60</ele>
        <time>2014-11-01T08:00:18Z</time>
      </trkpt>
      <trkpt lat="42.378011000" lon="-2.469640000">
        <ele>483.70</ele>
        <time>2014-11-01T08:00:20Z</time>
      </trkpt>
      <trkpt lat="42.377980000" lon="-2.469651000">
        <ele>483.70</ele>
        <time>2014-11-01T08:00:21Z</time>
      </trkpt>
      <trkpt lat="42.377949000" lon="-2.469663000">
        <ele>483.70</ele>
        <time>2014-11-01T08:00:22Z</time>
      </trkpt>
      <trkpt lat="42.377917000" lon="-2.469674000">
        <ele>483.70</ele>
        <time>2014-11-01T08:00:23Z</time>
      </trkpt>
      <trkpt lat="42.377885000" lon="-2.469682000">
        <ele>483.70</ele>
        <time>2014-11-01T08:00:24Z</time>
      </trkpt>
      <trkpt lat="42.377851000" lon="-2.469691000">
        <ele>483.70</ele>
        <time>2014-11-01T08:00:25Z</time>
      </trkpt>
      <trkpt lat="42.377816000" lon="-2.469699000">
        <ele>483.80</ele>
        <time>2014-11-01T08:00:26Z</time>
      </trkpt>
      <trkpt lat="42.377778000" lon="-2.469704000">
        <ele>483.90</ele>
        <time>2014-11-01T08:00:27Z</time>
      </trkpt>
      <trkpt lat="42.377744000" lon="-2.469711000">
        <ele>484.00</ele>
        <time>2014-11-01T08:00:28Z</time>
      </trkpt>
      <trkpt lat="42.377710000" lon="-2.469713000">
        <ele>484.10</ele>
        <time>2014-11-01T08:00:29Z</time>
      </trkpt>
      <trkpt lat="42.377674000" lon="-2.469716000">
        <ele>484.10</ele>
        <time>2014-11-01T08:00:30Z</time>
      </trkpt>
      <trkpt lat="42.377639000" lon="-2.469718000">
        <ele>484.10</ele>
        <time>2014-11-01T08:00:31Z</time>
      </trkpt>
      <trkpt lat="42.377605000" lon="-2.469721000">
        <ele>484.20</ele>
        <time>2014-11-01T08:00:32Z</time>
      </trkpt>
      <trkpt lat="42.377572000" lon="-2.469717000">
        <ele>484.20</ele>
        <time>2014-11-01T08:00:33Z</time>
      </trkpt>
      <trkpt lat="42.377538000" lon="-2.469713000">
        <ele>484.30</ele>
        <time>2014-11-01T08:00:34Z</time>
      </trkpt>
      <trkpt lat="42.377501000" lon="-2.469715000">
        <ele>484.40</ele>
        <time>2014-11-01T08:00:35Z</time>
      </trkpt>
      <trkpt lat="42.377463000" lon="-2.469718000">
        <ele>484.50</ele>
        <time>2014-11-01T08:00:36Z</time>
      </trkpt>
      <trkpt lat="42.377428000" lon="-2.469721000">
        <ele>484.60</ele>
        <time>2014-11-01T08:00:37Z</time>
      </trkpt>
      <trkpt lat="42.377390000" lon="-2.469721000">
        <ele>484.60</ele>
        <time>2014-11-01T08:00:38Z</time>
      </trkpt>
      <trkpt lat="42.377353000" lon="-2.469725000">
        <ele>484.70</ele>
        <time>2014-11-01T08:00:39Z</time>
      </trkpt>
      <trkpt lat="42.377316000" lon="-2.469730000">
        <ele>484.80</ele>
        <time>2014-11-01T08:00:40Z</time>
      </trkpt>
      <trkpt lat="42.377279000" lon="-2.469736000">
        <ele>484.90</ele>
        <time>2014-11-01T08:00:41Z</time>
      </trkpt>
      <trkpt lat="42.377240000" lon="-2.469744000">
        <ele>485.00</ele>
        <time>2014-11-01T08:00:42Z</time>
      </trkpt>
      <trkpt lat="42.377203000" lon="-2.469753000">
        <ele>485.10</ele>
        <time>2014-11-01T08:00:43Z</time>
      </trkpt>
      <trkpt lat="42.377167000" lon="-2.469767000">
        <ele>485.10</ele>
        <time>2014-11-01T08:00:44Z</time>
      </trkpt>
      <trkpt lat="42.377131000" lon="-2.469784000">
        <ele>485.20</ele>
        <time>2014-11-01T08:00:45Z</time>
      </trkpt>
      <trkpt lat="42.377096000" lon="-2.469799000">
        <ele>485.00</ele>
        <time>2014-11-01T08:00:46Z</time>
      </trkpt>
      <trkpt lat="42.377056000" lon="-2.469815000">
        <ele>484.90</ele>
        <time>2014-11-01T08:00:47Z</time>
      </trkpt>
      <trkpt lat="42.377018000" lon="-2.469830000">
        <ele>484.80</ele>
        <time>2014-11-01T08:00:48Z</time>
      </trkpt>
      <trkpt lat="42.376985000" lon="-2.469851000">
        <ele>484.70</ele>
        <time>2014-11-01T08:00:49Z</time>
      </trkpt>
      <trkpt lat="42.376952000" lon="-2.469868000">
        <ele>484.70</ele>
        <time>2014-11-01T08:00:50Z</time>
      </trkpt>
      <trkpt lat="42.376920000" lon="-2.469884000">
        <ele>484.60</ele>
        <time>2014-11-01T08:00:51Z</time>
      </trkpt>
      <trkpt lat="42.376886000" lon="-2.469900000">
        <ele>484.40</ele>
        <time>2014-11-01T08:00:52Z</time>
      </trkpt>
      <trkpt lat="42.376850000" lon="-2.469913000">
        <ele>484.20</ele>
        <time>2014-11-01T08:00:53Z</time>
      </trkpt>
      <trkpt lat="42.376813000" lon="-2.469924000">
        <ele>484.20</ele>
        <time>2014-11-01T08:00:54Z</time>
      </trkpt>
      <trkpt lat="42.376778000" lon="-2.469930000">
        <ele>484.10</ele>
        <time>2014-11-01T08:00:55Z</time>
      </trkpt>
      <trkpt lat="42.376741000" lon="-2.469938000">
        <ele>484.10</ele>
        <time>2014-11-01T08:00:56Z</time>
      </trkpt>
      <trkpt lat="42.376706000" lon="-2.469946000">
        <ele>484.10</ele>
        <time>2014-11-01T08:00:57Z</time>
      </trkpt>
      <trkpt lat="42.376671000" lon="-2.469956000">
        <ele>484.40</ele>
        <time>2014-11-01T08:00:58Z</time>
      </trkpt>
      <trkpt lat="42.376636000" lon="-2.469962000">
        <ele>484.60</ele>
        <time>2014-11-01T08:00:59Z</time>
      </trkpt>
      <trkpt lat="42.376603000" lon="-2.469970000">
        <ele>484.80</ele>
        <time>2014-11-01T08:01:00Z</time>
      </trkpt>
      <trkpt lat="42.376569000" lon="-2.469981000">
        <ele>484.90</ele>
        <time>2014-11-01T08:01:01Z</time>
      </trkpt>
      <trkpt lat="42.376534000" lon="-2.469991000">
        <ele>485.10</ele>
        <time>2014-11-01T08:01:02Z</time>
      </trkpt>
      <trkpt lat="42.376501000" lon="-2.470005000">
        <ele>485.30</ele>
        <time>2014-11-01T08:01:03Z</time>
      </trkpt>
      <trkpt lat="42.376468000" lon="-2.470022000">
        <ele>485.40</ele>
        <time>2014-11-01T08:01:04Z</time>
      </trkpt>
      <trkpt lat="42.376438000" lon="-2.470038000">
        <ele>485.50</ele>
        <time>2014-11-01T08:01:05Z</time>
      </trkpt>
      <trkpt lat="42.376405000" lon="-2.470058000">
        <ele>485.70</ele>
        <time>2014-11-01T08:01:06Z</time>
      </trkpt>
      <trkpt lat="42.376372000" lon="-2.470078000">
        <ele>485.90</ele>
        <time>2014-11-01T08:01:07Z</time>
      </trkpt>
      <trkpt lat="42.376340000" lon="-2.470101000">
        <ele>486.00</ele>
        <time>2014-11-01T08:01:08Z</time>
      </trkpt>
      <trkpt lat="42.376311000" lon="-2.470129000">
        <ele>486.10</ele>
        <time>2014-11-01T08:01:09Z</time>
      </trkpt>
      <trkpt lat="42.376281000" lon="-2.470157000">
        <ele>486.10</ele>
        <time>2014-11-01T08:01:10Z</time>
      </trkpt>
      <trkpt lat="42.376256000" lon="-2.470185000">
        <ele>486.20</ele>
        <time>2014-11-01T08:01:11Z</time>
      </trkpt>
      <trkpt lat="42.376227000" lon="-2.470217000">
        <ele>486.20</ele>
        <time>2014-11-01T08:01:12Z</time>
      </trkpt>
      <trkpt lat="42.376199000" lon="-2.470252000">
        <ele>486.20</ele>
        <time>2014-11-01T08:01:13Z</time>
      </trkpt>
      <trkpt lat="42.376174000" lon="-2.470284000">
        <ele>486.40</ele>
        <time>2014-11-01T08:01:14Z</time>
      </trkpt>
      <trkpt lat="42.376150000" lon="-2.470317000">
        <ele>486.50</ele>
        <time>2014-11-01T08:01:15Z</time>
      </trkpt>
      <trkpt lat="42.376121000" lon="-2.470351000">
        <ele>486.60</ele>
        <time>2014-11-01T08:01:16Z</time>
      </trkpt>
      <trkpt lat="42.376092000" lon="-2.470382000">
        <ele>486.60</ele>
        <time>2014-11-01T08:01:17Z</time>
      </trkpt>
      <trkpt lat="42.376061000" lon="-2.470416000">
        <ele>486.70</ele>
        <time>2014-11-01T08:01:18Z</time>
      </trkpt>
      <trkpt lat="42.376036000" lon="-2.470447000">
        <ele>486.70</ele>
        <time>2014-11-01T08:01:19Z</time>
      </trkpt>
      <trkpt lat="42.376006000" lon="-2.470477000">
        <ele>486.70</ele>
        <time>2014-11-01T08:01:20Z</time>
      </trkpt>
      <trkpt lat="42.375950000" lon="-2.470543000">
        <ele>486.60</ele>
        <time>2014-11-01T08:01:22Z</time>
      </trkpt>
      <trkpt lat="42.375924000" lon="-2.470574000">
        <ele>486.60</ele>
        <time>2014-11-01T08:01:23Z</time>
      </trkpt>
      <trkpt lat="42.375899000" lon="-2.470603000">
        <ele>486.70</ele>
        <time>2014-11-01T08:01:24Z</time>
      </trkpt>
      <trkpt lat="42.375875000" lon="-2.470630000">
        <ele>486.80</ele>
        <time>2014-11-01T08:01:25Z</time>
      </trkpt>
      <trkpt lat="42.375849000" lon="-2.470660000">
        <ele>487.00</ele>
        <time>2014-11-01T08:01:26Z</time>
      </trkpt>
      <trkpt lat="42.375824000" lon="-2.470691000">
        <ele>487.20</ele>
        <time>2014-11-01T08:01:27Z</time>
      </trkpt>
      <trkpt lat="42.375795000" lon="-2.470723000">
        <ele>487.10</ele>
        <time>2014-11-01T08:01:28Z</time>
      </trkpt>
      <trkpt lat="42.375765000" lon="-2.470754000">
        <ele>487.10</ele>
        <time>2014-11-01T08:01:29Z</time>
      </trkpt>
      <trkpt lat="42.375736000" lon="-2.470786000">
        <ele>487.20</ele>
        <time>2014-11-01T08:01:30Z</time>
      </trkpt>
      <trkpt lat="42.375710000" lon="-2.470815000">
        <ele>487.20</ele>
        <time>2014-11-01T08:01:31Z</time>
      </trkpt>
      <trkpt lat="42.375683000" lon="-2.470845000">
        <ele>487.30</ele>
        <time>2014-11-01T08:01:32Z</time>
      </trkpt>
      <trkpt lat="42.375657000" lon="-2.470874000">
        <ele>487.30</ele>
        <time>2014-11-01T08:01:33Z</time>
      </trkpt>
      <trkpt lat="42.375629000" lon="-2.470904000">
        <ele>487.30</ele>
        <time>2014-11-01T08:01:34Z</time>
      </trkpt>
      <trkpt lat="42.375601000" lon="-2.470932000">
        <ele>487.30</ele>
        <time>2014-11-01T08:01:35Z</time>
      </trkpt>
      <trkpt lat="42.375574000" lon="-2.470961000">
        <ele>487.30</ele>
        <time>2014-11-01T08:01:36Z</time>
      </trkpt>
      <trkpt lat="42.375546000" lon="-2.470992000">
        <ele>487.20</ele>
        <time>2014-11-01T08:01:37Z</time>
      </trkpt>
      <trkpt lat="42.375517000" lon="-2.471023000">
        <ele>487.20</ele>
        <time>2014-11-01T08:01:38Z</time>
      </trkpt>
      <trkpt lat="42.375491000" lon="-2.471054000">
        <ele>487.20</ele>
        <time>2014-11-01T08:01:39Z</time>
      </trkpt>
      <trkpt lat="42.375463000" lon="-2.471088000">
        <ele>487.30</ele>
        <time>2014-11-01T08:01:40Z</time>
      </trkpt>
      <trkpt lat="42.375433000" lon="-2.471117000">
        <ele>487.40</ele>
        <time>2014-11-01T08:01:41Z</time>
      </trkpt>
      <trkpt lat="42.375404000" lon="-2.471146000">
        <ele>487.50</ele>
        <time>2014-11-01T08:01:42Z</time>
      </trkpt>
      <trkpt lat="42.375373000" lon="-2.471176000">
        <ele>487.70</ele>
        <time>2014-11-01T08:01:43Z</time>
      </trkpt>
      <trkpt lat="42.375345000" lon="-2.471209000">
        <ele>487.80</ele>
        <time>2014-11-01T08:01:44Z</time>
      </trkpt>
      <trkpt lat="42.375317000" lon="-2.471237000">
        <ele>487.90</ele>
        <time>2014-11-01T08:01:45Z</time>
      </trkpt>
      <trkpt lat="42.375287000" lon="-2.471263000">
        <ele>487.90</ele>
        <time>2014-11-01T08:01:46Z</time>
      </trkpt>
      <trkpt lat="42.375257000" lon="-2.471289000">
        <ele>488.00</ele>
        <time>2014-11-01T08:01:47Z</time>
      </trkpt>
      <trkpt lat="42.375227000" lon="-2.471318000">
        <ele>488.20</ele>
        <time>2014-11-01T08:01:48Z</time>
      </trkpt>
      <trkpt lat="42.375198000" lon="-2.471346000">
        <ele>488.30</ele>
        <time>2014-11-01T08:01:49Z</time>
      </trkpt>
      <trkpt lat="42.375165000" lon="-2.471371000">
        <ele>488.40</ele>
        <time>2014-11-01T08:01:50Z</time>
      </trkpt>
      <trkpt lat="42.375138000" lon="-2.471396000">
        <ele>488.40</ele>
        <time>2014-11-01T08:01:51Z</time>
      </trkpt>
      <trkpt lat="42.375109000" lon="-2.471422000">
        <ele>488.40</ele>
        <time>2014-11-01T08:01:52Z</time>
      </trkpt>
      <trkpt lat="42.375078000" lon="-2.471447000">
        <ele>488.40</ele>
        <time>2014-11-01T08:01:53Z</time>
      </trkpt>
      <trkpt lat="42.375048000" lon="-2.471473000">
        <ele>488.40</ele>
        <time>2014-11-01T08:01:54Z</time>
      </trkpt>
      <trkpt lat="42.375018000" lon="-2.471500000">
        <ele>488.40</ele>
        <time>2014-11-01T08:01:55Z</time>
      </trkpt>
      <trkpt lat="42.374987000" lon="-2.471527000">
        <ele>488.50</ele>
        <time>2014-11-01T08:01:56Z</time>
      </trkpt>
      <trkpt lat="42.374956000" lon="-2.471550000">
        <ele>488.60</ele>
        <time>2014-11-01T08:01:57Z</time>
      </trkpt>
      <trkpt lat="42.374923000" lon="-2.471573000">
        <ele>488.70</ele>
        <time>2014-11-01T08:01:58Z</time>
      </trkpt>
      <trkpt lat="42.374894000" lon="-2.471596000">
        <ele>488.70</ele>
        <time>2014-11-01T08:01:59Z</time>
      </trkpt>
      <trkpt lat="42.374862000" lon="-2.471620000">
        <ele>488.80</ele>
        <time>2014-11-01T08:02:00Z</time>
      </trkpt>
      <trkpt lat="42.374832000" lon="-2.471640000">
        <ele>488.80</ele>
        <time>2014-11-01T08:02:01Z</time>
      </trkpt>
      <trkpt lat="42.374801000" lon="-2.471665000">
        <ele>488.70</ele>
        <time>2014-11-01T08:02:02Z</time>
      </trkpt>
      <trkpt lat="42.374769000" lon="-2.471688000">
        <ele>488.70</ele>
        <time>2014-11-01T08:02:03Z</time>
      </trkpt>
      <trkpt lat="42.374734000" lon="-2.471715000">
        <ele>489.00</ele>
        <time>2014-11-01T08:02:04Z</time>
      </trkpt>
      <trkpt lat="42.374701000" lon="-2.471742000">
        <ele>489.20</ele>
        <time>2014-11-01T08:02:05Z</time>
      </trkpt>
      <trkpt lat="42.374673000" lon="-2.471764000">
        <ele>489.40</ele>
        <time>2014-11-01T08:02:06Z</time>
      </trkpt>
      <trkpt lat="42.374641000" lon="-2.471791000">
        <ele>489.60</ele>
        <time>2014-11-01T08:02:07Z</time>
      </trkpt>
      <trkpt lat="42.374609000" lon="-2.471816000">
        <ele>489.70</ele>
        <time>2014-11-01T08:02:08Z</time>
      </trkpt>
      <trkpt lat="42.374576000" lon="-2.471844000">
        <ele>489.80</ele>
        <time>2014-11-01T08:02:09Z</time>
      </trkpt>
      <trkpt lat="42.374542000" lon="-2.471869000">
        <ele>489.80</ele>
        <time>2014-11-01T08:02:10Z</time>
      </trkpt>
      <trkpt lat="42.374508000" lon="-2.471895000">
        <ele>489.70</ele>
        <time>2014-11-01T08:02:11Z</time>
      </trkpt>
      <trkpt lat="42.374479000" lon="-2.471919000">
        <ele>489.60</ele>
        <time>2014-11-01T08:02:12Z</time>
      </trkpt>
      <trkpt lat="42.374445000" lon="-2.471944000">
        <ele>489.40</ele>
        <time>2014-11-01T08:02:13Z</time>
      </trkpt>
      <trkpt lat="42.374414000" lon="-2.471967000">
        <ele>489.50</ele>
        <time>2014-11-01T08:02:14Z</time>
      </trkpt>
      <trkpt lat="42.374386000" lon="-2.471993000">
        <ele>489.50</ele>
        <time>2014-11-01T08:02:15Z</time>
      </trkpt>
      <trkpt lat="42.374354000" lon="-2.472019000">
        <ele>489.50</ele>
        <time>2014-11-01T08:02:16Z</time>
      </trkpt>
      <trkpt lat="42.374321000" lon="-2.472048000">
        <ele>489.40</ele>
        <time>2014-11-01T08:02:17Z</time>
      </trkpt>
      <trkpt lat="42.374289000" lon="-2.472074000">
        <ele>489.50</ele>
        <time>2014-11-01T08:02:18Z</time>
      </trkpt>
      <trkpt lat="42.374260000" lon="-2.472099000">
        <ele>489.60</ele>
        <time>2014-11-01T08:02:19Z</time>
      </trkpt>
      <trkpt lat="42.374227000" lon="-2.472126000">
        <ele>489.50</ele>
        <time>2014-11-01T08:02:20Z</time>
      </trkpt>
      <trkpt lat="42.374197000" lon="-2.472153000">
        <ele>489.50</ele>
        <time>2014-11-01T08:02:21Z</time>
      </trkpt>
      <trkpt lat="42.374129000" lon="-2.472207000">
        <ele>489.60</ele>
        <time>2014-11-01T08:02:23Z</time>
      </trkpt>
      <trkpt lat="42.374097000" lon="-2.472234000">
        <ele>489.60</ele>
        <time>2014-11-01T08:02:24Z</time>
      </trkpt>
      <trkpt lat="42.374064000" lon="-2.472259000">
        <ele>489.50</ele>
        <time>2014-11-01T08:02:25Z</time>
      </trkpt>
      <trkpt lat="42.374034000" lon="-2.472283000">
        <ele>489.70</ele>
        <time>2014-11-01T08:02:26Z</time>
      </trkpt>
      <trkpt lat="42.374001000" lon="-2.472303000">
        <ele>489.80</ele>
        <time>2014-11-01T08:02:27Z</time>
      </trkpt>
      <trkpt lat="42.373968000" lon="-2.472324000">
        <ele>490.10</ele>
        <time>2014-11-01T08:02:28Z</time>
      </trkpt>
      <trkpt lat="42.373932000" lon="-2.472348000">
        <ele>490.30</ele>
        <time>2014-11-01T08:02:29Z</time>
      </trkpt>
      <trkpt lat="42.373899000" lon="-2.472371000">
        <ele>490.40</ele>
        <time>2014-11-01T08:02:30Z</time>
      </trkpt>
      <trkpt lat="42.373866000" lon="-2.472393000">
        <ele>490.50</ele>
        <time>2014-11-01T08:02:31Z</time>
      </trkpt>
      <trkpt lat="42.373830000" lon="-2.472411000">
        <ele>490.50</ele>
        <time>2014-11-01T08:02:32Z</time>
      </trkpt>
      <trkpt lat="42.373795000" lon="-2.472428000">
        <ele>490.50</ele>
        <time>2014-11-01T08:02:33Z</time>
      </trkpt>
      <trkpt lat="42.373760000" lon="-2.472442000">
        <ele>490.30</ele>
        <time>2014-11-01T08:02:34Z</time>
      </trkpt>
      <trkpt lat="42.373725000" lon="-2.472455000">
        <ele>490.20</ele>
        <time>2014-11-01T08:02:35Z</time>
      </trkpt>
      <trkpt lat="42.373692000" lon="-2.472473000">
        <ele>490.10</ele>
        <time>2014-11-01T08:02:36Z</time>
      </trkpt>
      <trkpt lat="42.373658000" lon="-2.472489000">
        <ele>490.00</ele>
        <time>2014-11-01T08:02:37Z</time>
      </trkpt>
      <trkpt lat="42.373623000" lon="-2.472506000">
        <ele>490.00</ele>
        <time>2014-11-01T08:02:38Z</time>
      </trkpt>
      <trkpt lat="42.373590000" lon="-2.472521000">
        <ele>490.00</ele>
        <time>2014-11-01T08:02:39Z</time>
      </trkpt>
      <trkpt lat="42.373557000" lon="-2.472532000">
        <ele>490.00</ele>
        <time>2014-11-01T08:02:40Z</time>
      </trkpt>
      <trkpt lat="42.373523000" lon="-2.472548000">
        <ele>490.00</ele>
        <time>2014-11-01T08:02:41Z</time>
      </trkpt>
      <trkpt lat="42.373492000" lon="-2.472568000">
        <ele>490.10</ele>
        <time>2014-11-01T08:02:42Z</time>
      </trkpt>
      <trkpt lat="42.373458000" lon="-2.472586000">
        <ele>490.20</ele>
        <time>2014-11-01T08:02:43Z</time>
      </trkpt>
      <trkpt lat="42.373425000" lon="-2.472605000">
        <ele>490.20</ele>
        <time>2014-11-01T08:02:44Z</time>
      </trkpt>
      <trkpt lat="42.373394000" lon="-2.472631000">
        <ele>490.30</ele>
        <time>2014-11-01T08:02:45Z</time>
      </trkpt>
      <trkpt lat="42.373361000" lon="-2.472663000">
        <ele>490.40</ele>
        <time>2014-11-01T08:02:46Z</time>
      </trkpt>
      <trkpt lat="42.373327000" lon="-2.472692000">
        <ele>490.40</ele>
        <time>2014-11-01T08:02:47Z</time>
      </trkpt>
      <trkpt lat="42.373296000" lon="-2.472721000">
        <ele>490.50</ele>
        <time>2014-11-01T08:02:48Z</time>
      </trkpt>
      <trkpt lat="42.373267000" lon="-2.472749000">
        <ele>490.50</ele>
        <time>2014-11-01T08:02:49Z</time>
      </trkpt>
      <trkpt lat="42.373237000" lon="-2.472779000">
        <ele>490.70</ele>
        <time>2014-11-01T08:02:50Z</time>
      </trkpt>
      <trkpt lat="42.373206000" lon="-2.472808000">
        <ele>490.80</ele>
        <time>2014-11-01T08:02:51Z</time>
      </trkpt>
      <trkpt lat="42.373176000" lon="-2.472834000">
        <ele>490.80</ele>
        <time>2014-11-01T08:02:52Z</time>
      </trkpt>
      <trkpt lat="42.373145000" lon="-2.472862000">
        <ele>490.80</ele>
        <time>2014-11-01T08:02:53Z</time>
      </trkpt>
      <trkpt lat="42.373110000" lon="-2.472887000">
        <ele>490.90</ele>
        <time>2014-11-01T08:02:54Z</time>
      </trkpt>
      <trkpt lat="42.373072000" lon="-2.472916000">
        <ele>491.00</ele>
        <time>2014-11-01T08:02:55Z</time>
      </trkpt>
      <trkpt lat="42.373038000" lon="-2.472939000">
        <ele>491.10</ele>
        <time>2014-11-01T08:02:56Z</time>
      </trkpt>
      <trkpt lat="42.373005000" lon="-2.472961000">
        <ele>491.30</ele>
        <time>2014-11-01T08:02:57Z</time>
      </trkpt>
      <trkpt lat="42.372968000" lon="-2.472982000">
        <ele>491.40</ele>
        <time>2014-11-01T08:02:58Z</time>
      </trkpt>
      <trkpt lat="42.372935000" lon="-2.473002000">
        <ele>491.40</ele>
        <time>2014-11-01T08:02:59Z</time>
      </trkpt>
      <trkpt lat="42.372899000" lon="-2.473023000">
        <ele>491.50</ele>
        <time>2014-11-01T08:03:00Z</time>
      </trkpt>
      <trkpt lat="42.372867000" lon="-2.473041000">
        <ele>491.50</ele>
        <time>2014-11-01T08:03:01Z</time>
      </trkpt>
      <trkpt lat="42.372832000" lon="-2.473059000">
        <ele>491.60</ele>
        <time>2014-11-01T08:03:02Z</time>
      </trkpt>
      <trkpt lat="42.372798000" lon="-2.473078000">
        <ele>491.60</ele>
        <time>2014-11-01T08:03:03Z</time>
      </trkpt>
      <trkpt lat="42.372767000" lon="-2.473095000">
        <ele>491.60</ele>
        <time>2014-11-01T08:03:04Z</time>
      </trkpt>
      <trkpt lat="42.372733000" lon="-2.473111000">
        <ele>491.60</ele>
        <time>2014-11-01T08:03:05Z</time>
      </trkpt>
      <trkpt lat="42.372700000" lon="-2.473125000">
        <ele>491.60</ele>
        <time>2014-11-01T08:03:06Z</time>
      </trkpt>
      <trkpt lat="42.372670000" lon="-2.473141000">
        <ele>491.50</ele>
        <time>2014-11-01T08:03:07Z</time>
      </trkpt>
      <trkpt lat="42.372636000" lon="-2.473156000">
        <ele>491.40</ele>
        <time>2014-11-01T08:03:08Z</time>
      </trkpt>
      <trkpt lat="42.372603000" lon="-2.473173000">
        <ele>491.40</ele>
        <time>2014-11-01T08:03:09Z</time>
      </trkpt>
      <trkpt lat="42.372570000" lon="-2.473185000">
        <ele>491.30</ele>
        <time>2014-11-01T08:03:10Z</time>
      </trkpt>
      <trkpt lat="42.372534000" lon="-2.473198000">
        <ele>491.30</ele>
        <time>2014-11-01T08:03:11Z</time>
      </trkpt>
      <trkpt lat="42.372496000" lon="-2.473209000">
        <ele>491.20</ele>
        <time>2014-11-01T08:03:12Z</time>
      </trkpt>
      <trkpt lat="42.372459000" lon="-2.473215000">
        <ele>491.20</ele>
        <time>2014-11-01T08:03:13Z</time>
      </trkpt>
      <trkpt lat="42.372422000" lon="-2.473220000">
        <ele>491.20</ele>
        <time>2014-11-01T08:03:14Z</time>
      </trkpt>
      <trkpt lat="42.372384000" lon="-2.473229000">
        <ele>491.20</ele>
        <time>2014-11-01T08:03:15Z</time>
      </trkpt>
      <trkpt lat="42.372346000" lon="-2.473236000">
        <ele>491.20</ele>
        <time>2014-11-01T08:03:16Z</time>
      </trkpt>
      <trkpt lat="42.372311000" lon="-2.473242000">
        <ele>491.30</ele>
        <time>2014-11-01T08:03:17Z</time>
      </trkpt>
      <trkpt lat="42.372275000" lon="-2.473248000">
        <ele>491.60</ele>
        <time>2014-11-01T08:03:18Z</time>
      </trkpt>
      <trkpt lat="42.372239000" lon="-2.473260000">
        <ele>491.80</ele>
        <time>2014-11-01T08:03:19Z</time>
      </trkpt>
      <trkpt lat="42.372205000" lon="-2.473272000">
        <ele>492.00</ele>
        <time>2014-11-01T08:03:20Z</time>
      </trkpt>
      <trkpt lat="42.372171000" lon="-2.473283000">
        <ele>492.10</ele>
        <time>2014-11-01T08:03:21Z</time>
      </trkpt>
      <trkpt lat="42.372137000" lon="-2.473298000">
        <ele>492.20</ele>
        <time>2014-11-01T08:03:22Z</time>
      </trkpt>
      <trkpt lat="42.372069000" lon="-2.473322000">
        <ele>492.30</ele>
        <time>2014-11-01T08:03:24Z</time>
      </trkpt>
      <trkpt lat="42.372035000" lon="-2.473335000">
        <ele>492.30</ele>
        <time>2014-11-01T08:03:25Z</time>
      </trkpt>
      <trkpt lat="42.372001000" lon="-2.473353000">
        <ele>492.40</ele>
        <time>2014-11-01T08:03:26Z</time>
      </trkpt>
      <trkpt lat="42.371968000" lon="-2.473370000">
        <ele>492.50</ele>
        <time>2014-11-01T08:03:27Z</time>
      </trkpt>
      <trkpt lat="42.371934000" lon="-2.473386000">
        <ele>492.50</ele>
        <time>2014-11-01T08:03:28Z</time>
      </trkpt>
      <trkpt lat="42.371899000" lon="-2.473405000">
        <ele>492.60</ele>
        <time>2014-11-01T08:03:29Z</time>
      </trkpt>
      <trkpt lat="42.371866000" lon="-2.473423000">
        <ele>492.60</ele>
        <time>2014-11-01T08:03:30Z</time>
      </trkpt>
      <trkpt lat="42.371831000" lon="-2.473445000">
        <ele>492.60</ele>
        <time>2014-11-01T08:03:31Z</time>
      </trkpt>
      <trkpt lat="42.371796000" lon="-2.473464000">
        <ele>493.00</ele>
        <time>2014-11-01T08:03:32Z</time>
      </trkpt>
      <trkpt lat="42.371762000" lon="-2.473483000">
        <ele>493.20</ele>
        <time>2014-11-01T08:03:33Z</time>
      </trkpt>
      <trkpt lat="42.371729000" lon="-2.473506000">
        <ele>493.40</ele>
        <time>2014-11-01T08:03:34Z</time>
      </trkpt>
      <trkpt lat="42.371696000" lon="-2.473526000">
        <ele>493.60</ele>
        <time>2014-11-01T08:03:35Z</time>
      </trkpt>
      <trkpt lat="42.371661000" lon="-2.473546000">
        <ele>493.70</ele>
        <time>2014-11-01T08:03:36Z</time>
      </trkpt>
      <trkpt lat="42.371627000" lon="-2.473566000">
        <ele>493.70</ele>
        <time>2014-11-01T08:03:37Z</time>
      </trkpt>
      <trkpt lat="42.371594000" lon="-2.473588000">
        <ele>493.70</ele>
        <time>2014-11-01T08:03:38Z</time>
      </trkpt>
      <trkpt lat="42.371561000" lon="-2.473609000">
        <ele>493.60</ele>
        <time>2014-11-01T08:03:39Z</time>
      </trkpt>
      <trkpt lat="42.371533000" lon="-2.473627000">
        <ele>493.50</ele>
        <time>2014-11-01T08:03:40Z</time>
      </trkpt>
      <trkpt lat="42.371500000" lon="-2.473640000">
        <ele>493.40</ele>
        <time>2014-11-01T08:03:41Z</time>
      </trkpt>
      <trkpt lat="42.371470000" lon="-2.473649000">
        <ele>493.30</ele>
        <time>2014-11-01T08:03:42Z</time>
      </trkpt>
      <trkpt lat="42.371433000" lon="-2.473664000">
        <ele>493.30</ele>
        <time>2014-11-01T08:03:43Z</time>
      </trkpt>
      <trkpt lat="42.371397000" lon="-2.473680000">
        <ele>493.10</ele>
        <time>2014-11-01T08:03:44Z</time>
      </trkpt>
      <trkpt lat="42.371359000" lon="-2.473695000">
        <ele>493.00</ele>
        <time>2014-11-01T08:03:45Z</time>
      </trkpt>
      <trkpt lat="42.371321000" lon="-2.473708000">
        <ele>492.90</ele>
        <time>2014-11-01T08:03:46Z</time>
      </trkpt>
      <trkpt lat="42.371283000" lon="-2.473720000">
        <ele>492.90</ele>
        <time>2014-11-01T08:03:47Z</time>
      </trkpt>
      <trkpt lat="42.371247000" lon="-2.473734000">
        <ele>492.90</ele>
        <time>2014-11-01T08:03:48Z</time>
      </trkpt>
      <trkpt lat="42.371213000" lon="-2.473749000">
        <ele>492.90</ele>
        <time>2014-11-01T08:03:49Z</time>
      </trkpt>
      <trkpt lat="42.371177000" lon="-2.473761000">
        <ele>493.00</ele>
        <time>2014-11-01T08:03:50Z</time>
      </trkpt>
      <trkpt lat="42.371143000" lon="-2.473776000">
        <ele>493.10</ele>
        <time>2014-11-01T08:03:51Z</time>
      </trkpt>
      <trkpt lat="42.371107000" lon="-2.473786000">
        <ele>493.00</ele>
        <time>2014-11-01T08:03:52Z</time>
      </trkpt>
      <trkpt lat="42.371070000" lon="-2.473798000">
        <ele>493.00</ele>
        <time>2014-11-01T08:03:53Z</time>
      </trkpt>
      <trkpt lat="42.371036000" lon="-2.473811000">
        <ele>493.10</ele>
        <time>2014-11-01T08:03:54Z</time>
      </trkpt>
      <trkpt lat="42.371000000" lon="-2.473822000">
        <ele>493.20</ele>
        <time>2014-11-01T08:03:55Z</time>
      </trkpt>
      <trkpt lat="42.370964000" lon="-2.473834000">
        <ele>493.30</ele>
        <time>2014-11-01T08:03:56Z</time>
      </trkpt>
      <trkpt lat="42.370929000" lon="-2.473848000">
        <ele>493.40</ele>
        <time>2014-11-01T08:03:57Z</time>
      </trkpt>
      <trkpt lat="42.370893000" lon="-2.473862000">
        <ele>493.50</ele>
        <time>2014-11-01T08:03:58Z</time>
      </trkpt>
      <trkpt lat="42.370855000" lon="-2.473873000">
        <ele>493.50</ele>
        <time>2014-11-01T08:03:59Z</time>
      </trkpt>
      <trkpt lat="42.370819000" lon="-2.473885000">
        <ele>493.50</ele>
        <time>2014-11-01T08:04:00Z</time>
      </trkpt>
      <trkpt lat="42.370781000" lon="-2.473894000">
        <ele>493.60</ele>
        <time>2014-11-01T08:04:01Z</time>
      </trkpt>
      <trkpt lat="42.370745000" lon="-2.473904000">
        <ele>493.50</ele>
        <time>2014-11-01T08:04:02Z</time>
      </trkpt>
      <trkpt lat="42.370711000" lon="-2.473916000">
        <ele>493.50</ele>
        <time>2014-11-01T08:04:03Z</time>
      </trkpt>
      <trkpt lat="42.370676000" lon="-2.473932000">
        <ele>493.50</ele>
        <time>2014-11-01T08:04:04Z</time>
      </trkpt>
      <trkpt lat="42.370642000" lon="-2.473948000">
        <ele>493.60</ele>
        <time>2014-11-01T08:04:05Z</time>
      </trkpt>
      <trkpt lat="42.370607000" lon="-2.473963000">
        <ele>493.50</ele>
        <time>2014-11-01T08:04:06Z</time>
      </trkpt>
      <trkpt lat="42.370572000" lon="-2.473975000">
        <ele>493.50</ele>
        <time>2014-11-01T08:04:07Z</time>
      </trkpt>
      <trkpt lat="42.370539000" lon="-2.473986000">
        <ele>493.50</ele>
        <time>2014-11-01T08:04:08Z</time>
      </trkpt>
      <trkpt lat="42.370504000" lon="-2.473998000">
        <ele>493.60</ele>
        <time>2014-11-01T08:04:09Z</time>
      </trkpt>
      <trkpt lat="42.370470000" lon="-2.474012000">
        <ele>493.60</ele>
        <time>2014-11-01T08:04:10Z</time>
      </trkpt>
      <trkpt lat="42.370433000" lon="-2.474026000">
        <ele>493.60</ele>
        <time>2014-11-01T08:04:11Z</time>
      </trkpt>
      <trkpt lat="42.370398000" lon="-2.474037000">
        <ele>493.80</ele>
        <time>2014-11-01T08:04:12Z</time>
      </trkpt>
      <trkpt lat="42.370361000" lon="-2.474053000">
        <ele>494.00</ele>
        <time>2014-11-01T08:04:13Z</time>
      </trkpt>
      <trkpt lat="42.370326000" lon="-2.474070000">
        <ele>494.10</ele>
        <time>2014-11-01T08:04:14Z</time>
      </trkpt>
      <trkpt lat="42.370293000" lon="-2.474087000">
        <ele>494.20</ele>
        <time>2014-11-01T08:04:15Z</time>
      </trkpt>
      <trkpt lat="42.370260000" lon="-2.474102000">
        <ele>494.20</ele>
        <time>2014-11-01T08:04:16Z</time>
      </trkpt>
      <trkpt lat="42.370226000" lon="-2.474118000">
        <ele>494.30</ele>
        <time>2014-11-01T08:04:17Z</time>
      </trkpt>
      <trkpt lat="42.370191000" lon="-2.474133000">
        <ele>494.30</ele>
        <time>2014-11-01T08:04:18Z</time>
      </trkpt>
      <trkpt lat="42.370152000" lon="-2.474152000">
        <ele>494.20</ele>
        <time>2014-11-01T08:04:19Z</time>
      </trkpt>
      <trkpt lat="42.370114000" lon="-2.474168000">
        <ele>494.30</ele>
        <time>2014-11-01T08:04:20Z</time>
      </trkpt>
      <trkpt lat="42.370076000" lon="-2.474180000">
        <ele>494.30</ele>
        <time>2014-11-01T08:04:21Z</time>
      </trkpt>
      <trkpt lat="42.370039000" lon="-2.474193000">
        <ele>494.20</ele>
        <time>2014-11-01T08:04:22Z</time>
      </trkpt>
      <trkpt lat="42.370002000" lon="-2.474205000">
        <ele>494.10</ele>
        <time>2014-11-01T08:04:23Z</time>
      </trkpt>
      <trkpt lat="42.369931000" lon="-2.474230000">
        <ele>494.30</ele>
        <time>2014-11-01T08:04:25Z</time>
      </trkpt>
      <trkpt lat="42.369898000" lon="-2.474238000">
        <ele>494.50</ele>
        <time>2014-11-01T08:04:26Z</time>
      </trkpt>
      <trkpt lat="42.369865000" lon="-2.474248000">
        <ele>494.70</ele>
        <time>2014-11-01T08:04:27Z</time>
      </trkpt>
      <trkpt lat="42.369830000" lon="-2.474260000">
        <ele>494.80</ele>
        <time>2014-11-01T08:04:28Z</time>
      </trkpt>
      <trkpt lat="42.369792000" lon="-2.474276000">
        <ele>494.90</ele>
        <time>2014-11-01T08:04:29Z</time>
      </trkpt>
      <trkpt lat="42.369756000" lon="-2.474288000">
        <ele>495.00</ele>
        <time>2014-11-01T08:04:30Z</time>
      </trkpt>
      <trkpt lat="42.369719000" lon="-2.474302000">
        <ele>495.00</ele>
        <time>2014-11-01T08:04:31Z</time>
      </trkpt>
      <trkpt lat="42.369686000" lon="-2.474318000">
        <ele>494.80</ele>
        <time>2014-11-01T08:04:32Z</time>
      </trkpt>
      <trkpt lat="42.369651000" lon="-2.474339000">
        <ele>494.70</ele>
        <time>2014-11-01T08:04:33Z</time>
      </trkpt>
      <trkpt lat="42.369617000" lon="-2.474358000">
        <ele>494.80</ele>
        <time>2014-11-01T08:04:34Z</time>
      </trkpt>
      <trkpt lat="42.369582000" lon="-2.474384000">
        <ele>494.90</ele>
        <time>2014-11-01T08:04:35Z</time>
      </trkpt>
      <trkpt lat="42.369549000" lon="-2.474405000">
        <ele>495.10</ele>
        <time>2014-11-01T08:04:36Z</time>
      </trkpt>
      <trkpt lat="42.369516000" lon="-2.474431000">
        <ele>495.30</ele>
        <time>2014-11-01T08:04:37Z</time>
      </trkpt>
      <trkpt lat="42.369483000" lon="-2.474454000">
        <ele>495.40</ele>
        <time>2014-11-01T08:04:38Z</time>
      </trkpt>
      <trkpt lat="42.369449000" lon="-2.474476000">
        <ele>495.60</ele>
        <time>2014-11-01T08:04:39Z</time>
      </trkpt>
      <trkpt lat="42.369414000" lon="-2.474500000">
        <ele>495.70</ele>
        <time>2014-11-01T08:04:40Z</time>
      </trkpt>
      <trkpt lat="42.369380000" lon="-2.474523000">
        <ele>495.80</ele>
        <time>2014-11-01T08:04:41Z</time>
      </trkpt>
      <trkpt lat="42.369347000" lon="-2.474545000">
        <ele>495.70</ele>
        <time>2014-11-01T08:04:42Z</time>
      </trkpt>
      <trkpt lat="42.369313000" lon="-2.474566000">
        <ele>495.60</ele>
        <time>2014-11-01T08:04:43Z</time>
      </trkpt>
      <trkpt lat="42.369277000" lon="-2.474587000">
        <ele>495.60</ele>
        <time>2014-11-01T08:04:44Z</time>
      </trkpt>
      <trkpt lat="42.369243000" lon="-2.474609000">
        <ele>495.60</ele>
        <time>2014-11-01T08:04:45Z</time>
      </trkpt>
      <trkpt lat="42.369208000" lon="-2.474629000">
        <ele>495.50</ele>
        <time>2014-11-01T08:04:46Z</time>
      </trkpt>
      <trkpt lat="42.369172000" lon="-2.474648000">
        <ele>495.50</ele>
        <time>2014-11-01T08:04:47Z</time>
      </trkpt>
      <trkpt lat="42.369136000" lon="-2.474664000">
        <ele>495.50</ele>
        <time>2014-11-01T08:04:48Z</time>
      </trkpt>
      <trkpt lat="42.369101000" lon="-2.474678000">
        <ele>495.50</ele>
        <time>2014-11-01T08:04:49Z</time>
      </trkpt>
      <trkpt lat="42.369066000" lon="-2.474692000">
        <ele>495.60</ele>
        <time>2014-11-01T08:04:50Z</time>
      </trkpt>
      <trkpt lat="42.369031000" lon="-2.474705000">
        <ele>495.60</ele>
        <time>2014-11-01T08:04:51Z</time>
      </trkpt>
      <trkpt lat="42.368999000" lon="-2.474717000">
        <ele>495.60</ele>
        <time>2014-11-01T08:04:52Z</time>
      </trkpt>
      <trkpt lat="42.368965000" lon="-2.474727000">
        <ele>495.70</ele>
        <time>2014-11-01T08:04:53Z</time>
      </trkpt>
      <trkpt lat="42.368933000" lon="-2.474738000">
        <ele>495.70</ele>
        <time>2014-11-01T08:04:54Z</time>
      </trkpt>
      <trkpt lat="42.368902000" lon="-2.474745000">
        <ele>495.70</ele>
        <time>2014-11-01T08:04:55Z</time>
      </trkpt>
      <trkpt lat="42.368871000" lon="-2.474754000">
        <ele>495.70</ele>
        <time>2014-11-01T08:04:56Z</time>
      </trkpt>
      <trkpt lat="42.368840000" lon="-2.474756000">
        <ele>495.70</ele>
        <time>2014-11-01T08:04:57Z</time>
      </trkpt>
      <trkpt lat="42.368808000" lon="-2.474765000">
        <ele>495.90</ele>
        <time>2014-11-01T08:04:58Z</time>
      </trkpt>
      <trkpt lat="42.368774000" lon="-2.474760000">
        <ele>496.10</ele>
        <time>2014-11-01T08:04:59Z</time>
      </trkpt>
      <trkpt lat="42.368738000" lon="-2.474759000">
        <ele>496.00</ele>
        <time>2014-11-01T08:05:00Z</time>
      </trkpt>
      <trkpt lat="42.368698000" lon="-2.474754000">
        <ele>496.00</ele>
        <time>2014-11-01T08:05:01Z</time>
      </trkpt>
      <trkpt lat="42.368658000" lon="-2.474749000">
        <ele>496.10</ele>
        <time>2014-11-01T08:05:02Z</time>
      </trkpt>
      <trkpt lat="42.368623000" lon="-2.474744000">
        <ele>496.20</ele>
        <time>2014-11-01T08:05:03Z</time>
      </trkpt>
      <trkpt lat="42.368587000" lon="-2.474739000">
        <ele>496.40</ele>
        <time>2014-11-01T08:05:04Z</time>
      </trkpt>
      <trkpt lat="42.368549000" lon="-2.474735000">
        <ele>496.50</ele>
        <time>2014-11-01T08:05:05Z</time>
      </trkpt>
      <trkpt lat="42.368513000" lon="-2.474730000">
        <ele>496.70</ele>
        <time>2014-11-01T08:05:06Z</time>
      </trkpt>
      <trkpt lat="42.368477000" lon="-2.474725000">
        <ele>496.80</ele>
        <time>2014-11-01T08:05:07Z</time>
      </trkpt>
      <trkpt lat="42.368436000" lon="-2.474725000">
        <ele>496.80</ele>
        <time>2014-11-01T08:05:08Z</time>
      </trkpt>
      <trkpt lat="42.368393000" lon="-2.474728000">
        <ele>496.80</ele>
        <time>2014-11-01T08:05:09Z</time>
      </trkpt>
      <trkpt lat="42.368351000" lon="-2.474729000">
        <ele>496.90</ele>
        <time>2014-11-01T08:05:10Z</time>
      </trkpt>
      <trkpt lat="42.368312000" lon="-2.474729000">
        <ele>496.90</ele>
        <time>2014-11-01T08:05:11Z</time>
      </trkpt>
      <trkpt lat="42.368273000" lon="-2.474730000">
        <ele>497.00</ele>
        <time>2014-11-01T08:05:12Z</time>
      </trkpt>
      <trkpt lat="42.368233000" lon="-2.474734000">
        <ele>497.00</ele>
        <time>2014-11-01T08:05:13Z</time>
      </trkpt>
      <trkpt lat="42.368197000" lon="-2.474739000">
        <ele>497.20</ele>
        <time>2014-11-01T08:05:14Z</time>
      </trkpt>
      <trkpt lat="42.368161000" lon="-2.474744000">
        <ele>497.40</ele>
        <time>2014-11-01T08:05:15Z</time>
      </trkpt>
      <trkpt lat="42.368120000" lon="-2.474750000">
        <ele>497.30</ele>
        <time>2014-11-01T08:05:16Z</time>
      </trkpt>
      <trkpt lat="42.368082000" lon="-2.474755000">
        <ele>497.30</ele>
        <time>2014-11-01T08:05:17Z</time>
      </trkpt>
      <trkpt lat="42.368042000" lon="-2.474761000">
        <ele>497.40</ele>
        <time>2014-11-01T08:05:18Z</time>
      </trkpt>
      <trkpt lat="42.368000000" lon="-2.474769000">
        <ele>497.50</ele>
        <time>2014-11-01T08:05:19Z</time>
      </trkpt>
      <trkpt lat="42.367963000" lon="-2.474777000">
        <ele>497.70</ele>
        <time>2014-11-01T08:05:20Z</time>
      </trkpt>
      <trkpt lat="42.367924000" lon="-2.474790000">
        <ele>497.80</ele>
        <time>2014-11-01T08:05:21Z</time>
      </trkpt>
      <trkpt lat="42.367887000" lon="-2.474805000">
        <ele>497.90</ele>
        <time>2014-11-01T08:05:22Z</time>
      </trkpt>
      <trkpt lat="42.367851000" lon="-2.474820000">
        <ele>498.00</ele>
        <time>2014-11-01T08:05:23Z</time>
      </trkpt>
      <trkpt lat="42.367814000" lon="-2.474839000">
        <ele>498.10</ele>
        <time>2014-11-01T08:05:24Z</time>
      </trkpt>
      <trkpt lat="42.367747000" lon="-2.474876000">
        <ele>498.20</ele>
        <time>2014-11-01T08:05:26Z</time>
      </trkpt>
      <trkpt lat="42.367713000" lon="-2.474897000">
        <ele>498.30</ele>
        <time>2014-11-01T08:05:27Z</time>
      </trkpt>
      <trkpt lat="42.367677000" lon="-2.474920000">
        <ele>498.40</ele>
        <time>2014-11-01T08:05:28Z</time>
      </trkpt>
      <trkpt lat="42.367643000" lon="-2.474947000">
        <ele>498.40</ele>
        <time>2014-11-01T08:05:29Z</time>
      </trkpt>
      <trkpt lat="42.367611000" lon="-2.474975000">
        <ele>498.50</ele>
        <time>2014-11-01T08:05:30Z</time>
      </trkpt>
      <trkpt lat="42.367576000" lon="-2.475002000">
        <ele>498.50</ele>
        <time>2014-11-01T08:05:31Z</time>
      </trkpt>
      <trkpt lat="42.367544000" lon="-2.475030000">
        <ele>498.60</ele>
        <time>2014-11-01T08:05:32Z</time>
      </trkpt>
      <trkpt lat="42.367508000" lon="-2.475051000">
        <ele>498.60</ele>
        <time>2014-11-01T08:05:33Z</time>
      </trkpt>
      <trkpt lat="42.367472000" lon="-2.475075000">
        <ele>498.40</ele>
        <time>2014-11-01T08:05:34Z</time>
      </trkpt>
      <trkpt lat="42.367436000" lon="-2.475099000">
        <ele>498.30</ele>
        <time>2014-11-01T08:05:35Z</time>
      </trkpt>
      <trkpt lat="42.367400000" lon="-2.475122000">
        <ele>498.10</ele>
        <time>2014-11-01T08:05:36Z</time>
      </trkpt>
      <trkpt lat="42.367363000" lon="-2.475147000">
        <ele>498.00</ele>
        <time>2014-11-01T08:05:37Z</time>
      </trkpt>
      <trkpt lat="42.367329000" lon="-2.475170000">
        <ele>497.90</ele>
        <time>2014-11-01T08:05:38Z</time>
      </trkpt>
      <trkpt lat="42.367295000" lon="-2.475195000">
        <ele>497.80</ele>
        <time>2014-11-01T08:05:39Z</time>
      </trkpt>
      <trkpt lat="42.367263000" lon="-2.475222000">
        <ele>497.80</ele>
        <time>2014-11-01T08:05:40Z</time>
      </trkpt>
      <trkpt lat="42.367227000" lon="-2.475248000">
        <ele>497.70</ele>
        <time>2014-11-01T08:05:41Z</time>
      </trkpt>
      <trkpt lat="42.367193000" lon="-2.475278000">
        <ele>497.70</ele>
        <time>2014-11-01T08:05:42Z</time>
      </trkpt>
      <trkpt lat="42.367162000" lon="-2.475310000">
        <ele>497.60</ele>
        <time>2014-11-01T08:05:43Z</time>
      </trkpt>
      <trkpt lat="42.367132000" lon="-2.475342000">
        <ele>497.60</ele>
        <time>2014-11-01T08:05:44Z</time>
      </trkpt>
      <trkpt lat="42.367102000" lon="-2.475379000">
        <ele>497.50</ele>
        <time>2014-11-01T08:05:45Z</time>
      </trkpt>
      <trkpt lat="42.367076000" lon="-2.475417000">
        <ele>497.70</ele>
        <time>2014-11-01T08:05:46Z</time>
      </trkpt>
      <trkpt lat="42.367049000" lon="-2.475456000">
        <ele>497.70</ele>
        <time>2014-11-01T08:05:47Z</time>
      </trkpt>
      <trkpt lat="42.367020000" lon="-2.475496000">
        <ele>497.80</ele>
        <time>2014-11-01T08:05:48Z</time>
      </trkpt>
      <trkpt lat="42.366996000" lon="-2.475537000">
        <ele>497.80</ele>
        <time>2014-11-01T08:05:49Z</time>
      </trkpt>
      <trkpt lat="42.366978000" lon="-2.475576000">
        <ele>497.90</ele>
        <time>2014-11-01T08:05:50Z</time>
      </trkpt>
      <trkpt lat="42.366953000" lon="-2.475615000">
        <ele>498.00</ele>
        <time>2014-11-01T08:05:51Z</time>
      </trkpt>
      <trkpt lat="42.366927000" lon="-2.475654000">
        <ele>497.90</ele>
        <time>2014-11-01T08:05:52Z</time>
      </trkpt>
      <trkpt lat="42.366903000" lon="-2.475691000">
        <ele>497.80</ele>
        <time>2014-11-01T08:05:53Z</time>
      </trkpt>
      <trkpt lat="42.366875000" lon="-2.475729000">
        <ele>497.90</ele>
        <time>2014-11-01T08:05:54Z</time>
      </trkpt>
      <trkpt lat="42.366847000" lon="-2.475764000">
        <ele>498.00</ele>
        <time>2014-11-01T08:05:55Z</time>
      </trkpt>
      <trkpt lat="42.366821000" lon="-2.475798000">
        <ele>497.90</ele>
        <time>2014-11-01T08:05:56Z</time>
      </trkpt>
      <trkpt lat="42.366794000" lon="-2.475830000">
        <ele>497.90</ele>
        <time>2014-11-01T08:05:57Z</time>
      </trkpt>
      <trkpt lat="42.366766000" lon="-2.475862000">
        <ele>498.00</ele>
        <time>2014-11-01T08:05:58Z</time>
      </trkpt>
      <trkpt lat="42.366738000" lon="-2.475895000">
        <ele>498.10</ele>
        <time>2014-11-01T08:05:59Z</time>
      </trkpt>
      <trkpt lat="42.366715000" lon="-2.475929000">
        <ele>498.40</ele>
        <time>2014-11-01T08:06:00Z</time>
      </trkpt>
      <trkpt lat="42.366690000" lon="-2.475960000">
        <ele>498.50</ele>
        <time>2014-11-01T08:06:01Z</time>
      </trkpt>
      <trkpt lat="42.366661000" lon="-2.475988000">
        <ele>498.70</ele>
        <time>2014-11-01T08:06:02Z</time>
      </trkpt>
      <trkpt lat="42.366636000" lon="-2.476020000">
        <ele>498.80</ele>
        <time>2014-11-01T08:06:03Z</time>
      </trkpt>
      <trkpt lat="42.366612000" lon="-2.476056000">
        <ele>499.00</ele>
        <time>2014-11-01T08:06:04Z</time>
      </trkpt>
      <trkpt lat="42.366587000" lon="-2.476089000">
        <ele>499.00</ele>
        <time>2014-11-01T08:06:05Z</time>
      </trkpt>
      <trkpt lat="42.366563000" lon="-2.476120000">
        <ele>499.10</ele>
        <time>2014-11-01T08:06:06Z</time>
      </trkpt>
      <trkpt lat="42.366541000" lon="-2.476153000">
        <ele>499.10</ele>
        <time>2014-11-01T08:06:07Z</time>
      </trkpt>
      <trkpt lat="42.366517000" lon="-2.476188000">
        <ele>499.00</ele>
        <time>2014-11-01T08:06:08Z</time>
      </trkpt>
      <trkpt lat="42.366493000" lon="-2.476222000">
        <ele>499.00</ele>
        <time>2014-11-01T08:06:09Z</time>
      </trkpt>
      <trkpt lat="42.366465000" lon="-2.476256000">
        <ele>499.00</ele>
        <time>2014-11-01T08:06:10Z</time>
      </trkpt>
      <trkpt lat="42.366444000" lon="-2.476292000">
        <ele>499.10</ele>
        <time>2014-11-01T08:06:11Z</time>
      </trkpt>
      <trkpt lat="42.366421000" lon="-2.476329000">
        <ele>499.40</ele>
        <time>2014-11-01T08:06:12Z</time>
      </trkpt>
      <trkpt lat="42.366402000" lon="-2.476367000">
        <ele>499.60</ele>
        <time>2014-11-01T08:06:13Z</time>
      </trkpt>
      <trkpt lat="42.366380000" lon="-2.476408000">
        <ele>499.70</ele>
        <time>2014-11-01T08:06:14Z</time>
      </trkpt>
      <trkpt lat="42.366349000" lon="-2.476446000">
        <ele>499.90</ele>
        <time>2014-11-01T08:06:15Z</time>
      </trkpt>
      <trkpt lat="42.366317000" lon="-2.476492000">
        <ele>499.70</ele>
        <time>2014-11-01T08:06:16Z</time>
      </trkpt>
      <trkpt lat="42.366294000" lon="-2.476543000">
        <ele>499.60</ele>
        <time>2014-11-01T08:06:17Z</time>
      </trkpt>
      <trkpt lat="42.366280000" lon="-2.476593000">
        <ele>499.50</ele>
        <time>2014-11-01T08:06:18Z</time>
      </trkpt>
      <trkpt lat="42.366264000" lon="-2.476648000">
        <ele>499.50</ele>
        <time>2014-11-01T08:06:19Z</time>
      </trkpt>
      <trkpt lat="42.366251000" lon="-2.476700000">
        <ele>499.70</ele>
        <time>2014-11-01T08:06:20Z</time>
      </trkpt>
      <trkpt lat="42.366238000" lon="-2.476748000">
        <ele>499.90</ele>
        <time>2014-11-01T08:06:21Z</time>
      </trkpt>
      <trkpt lat="42.366228000" lon="-2.476798000">
        <ele>500.10</ele>
        <time>2014-11-01T08:06:22Z</time>
      </trkpt>
      <trkpt lat="42.366215000" lon="-2.476845000">
        <ele>500.30</ele>
        <time>2014-11-01T08:06:23Z</time>
      </trkpt>
      <trkpt lat="42.366199000" lon="-2.476888000">
        <ele>500.30</ele>
        <time>2014-11-01T08:06:24Z</time>
      </trkpt>
      <trkpt lat="42.366186000" lon="-2.476925000">
        <ele>500.40</ele>
        <time>2014-11-01T08:06:25Z</time>
      </trkpt>
      <trkpt lat="42.366174000" lon="-2.476954000">
        <ele>500.30</ele>
        <time>2014-11-01T08:06:26Z</time>
      </trkpt>
      <trkpt lat="42.366154000" lon="-2.477023000">
        <ele>500.20</ele>
        <time>2014-11-01T08:06:28Z</time>
      </trkpt>
      <trkpt lat="42.366136000" lon="-2.477054000">
        <ele>500.10</ele>
        <time>2014-11-01T08:06:29Z</time>
      </trkpt>
      <trkpt lat="42.366109000" lon="-2.477087000">
        <ele>500.20</ele>
        <time>2014-11-01T08:06:30Z</time>
      </trkpt>
      <trkpt lat="42.366079000" lon="-2.477116000">
        <ele>500.20</ele>
        <time>2014-11-01T08:06:31Z</time>
      </trkpt>
      <trkpt lat="42.366041000" lon="-2.477139000">
        <ele>500.40</ele>
        <time>2014-11-01T08:06:32Z</time>
      </trkpt>
      <trkpt lat="42.366003000" lon="-2.477159000">
        <ele>500.50</ele>
        <time>2014-11-01T08:06:33Z</time>
      </trkpt>
      <trkpt lat="42.365972000" lon="-2.477176000">
        <ele>500.60</ele>
        <time>2014-11-01T08:06:34Z</time>
      </trkpt>
      <trkpt lat="42.365938000" lon="-2.477192000">
        <ele>500.60</ele>
        <time>2014-11-01T08:06:35Z</time>
      </trkpt>
      <trkpt lat="42.365907000" lon="-2.477206000">
        <ele>500.70</ele>
        <time>2014-11-01T08:06:36Z</time>
      </trkpt>
      <trkpt lat="42.365877000" lon="-2.477225000">
        <ele>500.70</ele>
        <time>2014-11-01T08:06:37Z</time>
      </trkpt>
      <trkpt lat="42.365843000" lon="-2.477245000">
        <ele>500.70</ele>
        <time>2014-11-01T08:06:38Z</time>
      </trkpt>
      <trkpt lat="42.365809000" lon="-2.477261000">
        <ele>500.80</ele>
        <time>2014-11-01T08:06:39Z</time>
      </trkpt>
      <trkpt lat="42.365772000" lon="-2.477275000">
        <ele>501.00</ele>
        <time>2014-11-01T08:06:40Z</time>
      </trkpt>
      <trkpt lat="42.365737000" lon="-2.477290000">
        <ele>501.10</ele>
        <time>2014-11-01T08:06:41Z</time>
      </trkpt>
      <trkpt lat="42.365700000" lon="-2.477307000">
        <ele>501.30</ele>
        <time>2014-11-01T08:06:42Z</time>
      </trkpt>
      <trkpt lat="42.365663000" lon="-2.477326000">
        <ele>501.30</ele>
        <time>2014-11-01T08:06:43Z</time>
      </trkpt>
      <trkpt lat="42.365627000" lon="-2.477345000">
        <ele>501.10</ele>
        <time>2014-11-01T08:06:44Z</time>
      </trkpt>
      <trkpt lat="42.365592000" lon="-2.477362000">
        <ele>501.00</ele>
        <time>2014-11-01T08:06:45Z</time>
      </trkpt>
      <trkpt lat="42.365558000" lon="-2.477379000">
        <ele>500.80</ele>
        <time>2014-11-01T08:06:46Z</time>
      </trkpt>
      <trkpt lat="42.365523000" lon="-2.477393000">
        <ele>500.70</ele>
        <time>2014-11-01T08:06:47Z</time>
      </trkpt>
      <trkpt lat="42.365488000" lon="-2.477411000">
        <ele>500.60</ele>
        <time>2014-11-01T08:06:48Z</time>
      </trkpt>
      <trkpt lat="42.365451000" lon="-2.477425000">
        <ele>500.50</ele>
        <time>2014-11-01T08:06:49Z</time>
      </trkpt>
      <trkpt lat="42.365414000" lon="-2.477441000">
        <ele>500.40</ele>
        <time>2014-11-01T08:06:50Z</time>
      </trkpt>
      <trkpt lat="42.365381000" lon="-2.477455000">
        <ele>500.40</ele>
        <time>2014-11-01T08:06:51Z</time>
      </trkpt>
      <trkpt lat="42.365348000" lon="-2.477465000">
        <ele>500.30</ele>
        <time>2014-11-01T08:06:52Z</time>
      </trkpt>
      <trkpt lat="42.365315000" lon="-2.477475000">
        <ele>500.30</ele>
        <time>2014-11-01T08:06:53Z</time>
      </trkpt>
      <trkpt lat="42.365281000" lon="-2.477482000">
        <ele>500.40</ele>
        <time>2014-11-01T08:06:54Z</time>
      </trkpt>
      <trkpt lat="42.365245000" lon="-2.477490000">
        <ele>500.40</ele>
        <time>2014-11-01T08:06:55Z</time>
      </trkpt>
      <trkpt lat="42.365210000" lon="-2.477498000">
        <ele>500.50</ele>
        <time>2014-11-01T08:06:56Z</time>
      </trkpt>
      <trkpt lat="42.365176000" lon="-2.477509000">
        <ele>500.50</ele>
        <time>2014-11-01T08:06:57Z</time>
      </trkpt>
      <trkpt lat="42.365143000" lon="-2.477524000">
        <ele>500.80</ele>
        <time>2014-11-01T08:06:58Z</time>
      </trkpt>
      <trkpt lat="42.365110000" lon="-2.477536000">
        <ele>500.90</ele>
        <time>2014-11-01T08:06:59Z</time>
      </trkpt>
      <trkpt lat="42.365077000" lon="-2.477549000">
        <ele>501.10</ele>
        <time>2014-11-01T08:07:00Z</time>
      </trkpt>
      <trkpt lat="42.365040000" lon="-2.477566000">
        <ele>501.30</ele>
        <time>2014-11-01T08:07:01Z</time>
      </trkpt>
      <trkpt lat="42.365004000" lon="-2.477583000">
        <ele>501.40</ele>
        <time>2014-11-01T08:07:02Z</time>
      </trkpt>
      <trkpt lat="42.364968000" lon="-2.477600000">
        <ele>501.40</ele>
        <time>2014-11-01T08:07:03Z</time>
      </trkpt>
      <trkpt lat="42.364932000" lon="-2.477621000">
        <ele>501.50</ele>
        <time>2014-11-01T08:07:04Z</time>
      </trkpt>
      <trkpt lat="42.364894000" lon="-2.477638000">
        <ele>501.60</ele>
        <time>2014-11-01T08:07:05Z</time>
      </trkpt>
      <trkpt lat="42.364853000" lon="-2.477652000">
        <ele>501.70</ele>
        <time>2014-11-01T08:07:06Z</time>
      </trkpt>
      <trkpt lat="42.364813000" lon="-2.477663000">
        <ele>501.80</ele>
        <time>2014-11-01T08:07:07Z</time>
      </trkpt>
      <trkpt lat="42.364776000" lon="-2.477677000">
        <ele>501.90</ele>
        <time>2014-11-01T08:07:08Z</time>
      </trkpt>
      <trkpt lat="42.364739000" lon="-2.477690000">
        <ele>502.00</ele>
        <time>2014-11-01T08:07:09Z</time>
      </trkpt>
      <trkpt lat="42.364705000" lon="-2.477702000">
        <ele>502.10</ele>
        <time>2014-11-01T08:07:10Z</time>
      </trkpt>
      <trkpt lat="42.364676000" lon="-2.477710000">
        <ele>502.20</ele>
        <time>2014-11-01T08:07:11Z</time>
      </trkpt>
      <trkpt lat="42.364643000" lon="-2.477718000">
        <ele>502.10</ele>
        <time>2014-11-01T08:07:12Z</time>
      </trkpt>
      <trkpt lat="42.364610000" lon="-2.477727000">
        <ele>502.00</ele>
        <time>2014-11-01T08:07:13Z</time>
      </trkpt>
      <trkpt lat="42.364577000" lon="-2.477730000">
        <ele>501.90</ele>
        <time>2014-11-01T08:07:14Z</time>
      </trkpt>
      <trkpt lat="42.364545000" lon="-2.477734000">
        <ele>501.90</ele>
        <time>2014-11-01T08:07:15Z</time>
      </trkpt>
      <trkpt lat="42.364507000" lon="-2.477738000">
        <ele>501.80</ele>
        <time>2014-11-01T08:07:16Z</time>
      </trkpt>
      <trkpt lat="42.364467000" lon="-2.477743000">
        <ele>501.80</ele>
        <time>2014-11-01T08:07:17Z</time>
      </trkpt>
      <trkpt lat="42.364428000" lon="-2.477745000">
        <ele>501.90</ele>
        <time>2014-11-01T08:07:18Z</time>
      </trkpt>
      <trkpt lat="42.364390000" lon="-2.477748000">
        <ele>502.00</ele>
        <time>2014-11-01T08:07:19Z</time>
      </trkpt>
      <trkpt lat="42.364354000" lon="-2.477751000">
        <ele>502.00</ele>
        <time>2014-11-01T08:07:20Z</time>
      </trkpt>
      <trkpt lat="42.364320000" lon="-2.477756000">
        <ele>502.10</ele>
        <time>2014-11-01T08:07:21Z</time>
      </trkpt>
      <trkpt lat="42.364286000" lon="-2.477763000">
        <ele>502.00</ele>
        <time>2014-11-01T08:07:22Z</time>
      </trkpt>
      <trkpt lat="42.364257000" lon="-2.477776000">
        <ele>502.00</ele>
        <time>2014-11-01T08:07:23Z</time>
      </trkpt>
      <trkpt lat="42.364228000" lon="-2.477790000">
        <ele>502.00</ele>
        <time>2014-11-01T08:07:24Z</time>
      </trkpt>
      <trkpt lat="42.364202000" lon="-2.477804000">
        <ele>502.00</ele>
        <time>2014-11-01T08:07:25Z</time>
      </trkpt>
      <trkpt lat="42.364173000" lon="-2.477816000">
        <ele>502.30</ele>
        <time>2014-11-01T08:07:26Z</time>
      </trkpt>
      <trkpt lat="42.364144000" lon="-2.477832000">
        <ele>502.50</ele>
        <time>2014-11-01T08:07:27Z</time>
      </trkpt>
      <trkpt lat="42.364117000" lon="-2.477852000">
        <ele>502.70</ele>
        <time>2014-11-01T08:07:28Z</time>
      </trkpt>
      <trkpt lat="42.364072000" lon="-2.477891000">
        <ele>502.90</ele>
        <time>2014-11-01T08:07:30Z</time>
      </trkpt>
      <trkpt lat="42.364048000" lon="-2.477917000">
        <ele>503.00</ele>
        <time>2014-11-01T08:07:31Z</time>
      </trkpt>
      <trkpt lat="42.364026000" lon="-2.477946000">
        <ele>503.10</ele>
        <time>2014-11-01T08:07:32Z</time>
      </trkpt>
      <trkpt lat="42.364002000" lon="-2.477967000">
        <ele>503.10</ele>
        <time>2014-11-01T08:07:33Z</time>
      </trkpt>
      <trkpt lat="42.363970000" lon="-2.477997000">
        <ele>503.20</ele>
        <time>2014-11-01T08:07:34Z</time>
      </trkpt>
      <trkpt lat="42.363938000" lon="-2.478025000">
        <ele>503.20</ele>
        <time>2014-11-01T08:07:35Z</time>
      </trkpt>
      <trkpt lat="42.363907000" lon="-2.478049000">
        <ele>503.10</ele>
        <time>2014-11-01T08:07:36Z</time>
      </trkpt>
      <trkpt lat="42.363875000" lon="-2.478073000">
        <ele>503.10</ele>
        <time>2014-11-01T08:07:37Z</time>
      </trkpt>
      <trkpt lat="42.363844000" lon="-2.478094000">
        <ele>503.10</ele>
        <time>2014-11-01T08:07:38Z</time>
      </trkpt>
      <trkpt lat="42.363810000" lon="-2.478112000">
        <ele>503.00</ele>
        <time>2014-11-01T08:07:39Z</time>
      </trkpt>
      <trkpt lat="42.363778000" lon="-2.478145000">
        <ele>503.20</ele>
        <time>2014-11-01T08:07:40Z</time>
      </trkpt>
      <trkpt lat="42.363743000" lon="-2.478172000">
        <ele>503.20</ele>
        <time>2014-11-01T08:07:41Z</time>
      </trkpt>
      <trkpt lat="42.363711000" lon="-2.478204000">
        <ele>503.40</ele>
        <time>2014-11-01T08:07:42Z</time>
      </trkpt>
      <trkpt lat="42.363681000" lon="-2.478229000">
        <ele>503.50</ele>
        <time>2014-11-01T08:07:43Z</time>
      </trkpt>
      <trkpt lat="42.363656000" lon="-2.478255000">
        <ele>503.50</ele>
        <time>2014-11-01T08:07:44Z</time>
      </trkpt>
      <trkpt lat="42.363626000" lon="-2.478276000">
        <ele>503.60</ele>
        <time>2014-11-01T08:07:45Z</time>
      </trkpt>
      <trkpt lat="42.363597000" lon="-2.478300000">
        <ele>503.60</ele>
        <time>2014-11-01T08:07:46Z</time>
      </trkpt>
      <trkpt lat="42.363575000" lon="-2.478325000">
        <ele>503.70</ele>
        <time>2014-11-01T08:07:47Z</time>
      </trkpt>
      <trkpt lat="42.363548000" lon="-2.478359000">
        <ele>503.80</ele>
        <time>2014-11-01T08:07:48Z</time>
      </trkpt>
      <trkpt lat="42.363525000" lon="-2.478388000">
        <ele>503.80</ele>
        <time>2014-11-01T08:07:49Z</time>
      </trkpt>
      <trkpt lat="42.363498000" lon="-2.478416000">
        <ele>503.70</ele>
        <time>2014-11-01T08:07:50Z</time>
      </trkpt>
      <trkpt lat="42.363472000" lon="-2.478442000">
        <ele>503.70</ele>
        <time>2014-11-01T08:07:51Z</time>
      </trkpt>
      <trkpt lat="42.363443000" lon="-2.478463000">
        <ele>503.80</ele>
        <time>2014-11-01T08:07:52Z</time>
      </trkpt>
      <trkpt lat="42.363416000" lon="-2.478476000">
        <ele>503.80</ele>
        <time>2014-11-01T08:07:53Z</time>
      </trkpt>
      <trkpt lat="42.363387000" lon="-2.478487000">
        <ele>503.80</ele>
        <time>2014-11-01T08:07:54Z</time>
      </trkpt>
      <trkpt lat="42.363358000" lon="-2.478504000">
        <ele>503.80</ele>
        <time>2014-11-01T08:07:55Z</time>
      </trkpt>
      <trkpt lat="42.363329000" lon="-2.478522000">
        <ele>503.80</ele>
        <time>2014-11-01T08:07:56Z</time>
      </trkpt>
      <trkpt lat="42.363307000" lon="-2.478545000">
        <ele>503.80</ele>
        <time>2014-11-01T08:07:57Z</time>
      </trkpt>
      <trkpt lat="42.363288000" lon="-2.478572000">
        <ele>503.80</ele>
        <time>2014-11-01T08:07:58Z</time>
      </trkpt>
      <trkpt lat="42.363275000" lon="-2.478599000">
        <ele>503.70</ele>
        <time>2014-11-01T08:07:59Z</time>
      </trkpt>
      <trkpt lat="42.363267000" lon="-2.478627000">
        <ele>503.70</ele>
        <time>2014-11-01T08:08:00Z</time>
      </trkpt>
      <trkpt lat="42.363262000" lon="-2.478657000">
        <ele>503.70</ele>
        <time>2014-11-01T08:08:01Z</time>
      </trkpt>
      <trkpt lat="42.363254000" lon="-2.478688000">
        <ele>503.70</ele>
        <time>2014-11-01T08:08:02Z</time>
      </trkpt>
      <trkpt lat="42.363242000" lon="-2.478714000">
        <ele>503.60</ele>
        <time>2014-11-01T08:08:03Z</time>
      </trkpt>
      <trkpt lat="42.363227000" lon="-2.478734000">
        <ele>503.70</ele>
        <time>2014-11-01T08:08:04Z</time>
      </trkpt>
      <trkpt lat="42.363211000" lon="-2.478746000">
        <ele>503.70</ele>
        <time>2014-11-01T08:08:05Z</time>
      </trkpt>
      <trkpt lat="42.363188000" lon="-2.478759000">
        <ele>503.70</ele>
        <time>2014-11-01T08:08:06Z</time>
      </trkpt>
      <trkpt lat="42.363165000" lon="-2.478768000">
        <ele>503.70</ele>
        <time>2014-11-01T08:08:07Z</time>
      </trkpt>
      <trkpt lat="42.363136000" lon="-2.478774000">
        <ele>503.80</ele>
        <time>2014-11-01T08:08:08Z</time>
      </trkpt>
      <trkpt lat="42.363106000" lon="-2.478777000">
        <ele>503.90</ele>
        <time>2014-11-01T08:08:09Z</time>
      </trkpt>
      <trkpt lat="42.363073000" lon="-2.478782000">
        <ele>503.90</ele>
        <time>2014-11-01T08:08:10Z</time>
      </trkpt>
      <trkpt lat="42.363041000" lon="-2.478786000">
        <ele>503.90</ele>
        <time>2014-11-01T08:08:11Z</time>
      </trkpt>
      <trkpt lat="42.363008000" lon="-2.478788000">
        <ele>503.90</ele>
        <time>2014-11-01T08:08:12Z</time>
      </trkpt>
      <trkpt lat="42.362974000" lon="-2.478791000">
        <ele>504.00</ele>
        <time>2014-11-01T08:08:13Z</time>
      </trkpt>
      <trkpt lat="42.362939000" lon="-2.478788000">
        <ele>504.10</ele>
        <time>2014-11-01T08:08:14Z</time>
      </trkpt>
      <trkpt lat="42.362904000" lon="-2.478787000">
        <ele>504.10</ele>
        <time>2014-11-01T08:08:15Z</time>
      </trkpt>
      <trkpt lat="42.362868000" lon="-2.478794000">
        <ele>504.20</ele>
        <time>2014-11-01T08:08:16Z</time>
      </trkpt>
      <trkpt lat="42.362832000" lon="-2.478804000">
        <ele>504.20</ele>
        <time>2014-11-01T08:08:17Z</time>
      </trkpt>
      <trkpt lat="42.362793000" lon="-2.478815000">
        <ele>504.10</ele>
        <time>2014-11-01T08:08:18Z</time>
      </trkpt>
      <trkpt lat="42.362753000" lon="-2.478834000">
        <ele>504.10</ele>
        <time>2014-11-01T08:08:19Z</time>
      </trkpt>
      <trkpt lat="42.362712000" lon="-2.478845000">
        <ele>504.00</ele>
        <time>2014-11-01T08:08:20Z</time>
      </trkpt>
      <trkpt lat="42.362673000" lon="-2.478847000">
        <ele>503.90</ele>
        <time>2014-11-01T08:08:21Z</time>
      </trkpt>
      <trkpt lat="42.362629000" lon="-2.478855000">
        <ele>503.80</ele>
        <time>2014-11-01T08:08:22Z</time>
      </trkpt>
      <trkpt lat="42.362591000" lon="-2.478861000">
        <ele>503.70</ele>
        <time>2014-11-01T08:08:23Z</time>
      </trkpt>
      <trkpt lat="42.362551000" lon="-2.478873000">
        <ele>503.50</ele>
        <time>2014-11-01T08:08:24Z</time>
      </trkpt>
      <trkpt lat="42.362504000" lon="-2.478881000">
        <ele>503.30</ele>
        <time>2014-11-01T08:08:25Z</time>
      </trkpt>
      <trkpt lat="42.362459000" lon="-2.478887000">
        <ele>503.20</ele>
        <time>2014-11-01T08:08:26Z</time>
      </trkpt>
      <trkpt lat="42.362412000" lon="-2.478891000">
        <ele>503.10</ele>
        <time>2014-11-01T08:08:27Z</time>
      </trkpt>
      <trkpt lat="42.362369000" lon="-2.478901000">
        <ele>503.00</ele>
        <time>2014-11-01T08:08:28Z</time>
      </trkpt>
      <trkpt lat="42.362327000" lon="-2.478914000">
        <ele>503.00</ele>
        <time>2014-11-01T08:08:29Z</time>
      </trkpt>
      <trkpt lat="42.362283000" lon="-2.478928000">
        <ele>502.70</ele>
        <time>2014-11-01T08:08:30Z</time>
      </trkpt>
      <trkpt lat="42.362194000" lon="-2.478949000">
        <ele>502.30</ele>
        <time>2014-11-01T08:08:32Z</time>
      </trkpt>
      <trkpt lat="42.362153000" lon="-2.478954000">
        <ele>502.20</ele>
        <time>2014-11-01T08:08:33Z</time>
      </trkpt>
      <trkpt lat="42.362105000" lon="-2.478962000">
        <ele>502.10</ele>
        <time>2014-11-01T08:08:34Z</time>
      </trkpt>
      <trkpt lat="42.362059000" lon="-2.478967000">
        <ele>502.00</ele>
        <time>2014-11-01T08:08:35Z</time>
      </trkpt>
      <trkpt lat="42.362017000" lon="-2.478968000">
        <ele>501.90</ele>
        <time>2014-11-01T08:08:36Z</time>
      </trkpt>
      <trkpt lat="42.361978000" lon="-2.478968000">
        <ele>501.80</ele>
        <time>2014-11-01T08:08:37Z</time>
      </trkpt>
      <trkpt lat="42.361936000" lon="-2.478965000">
        <ele>501.70</ele>
        <time>2014-11-01T08:08:38Z</time>
      </trkpt>
      <trkpt lat="42.361898000" lon="-2.478964000">
        <ele>501.70</ele>
        <time>2014-11-01T08:08:39Z</time>
      </trkpt>
      <trkpt lat="42.361865000" lon="-2.478959000">
        <ele>501.60</ele>
        <time>2014-11-01T08:08:40Z</time>
      </trkpt>
      <trkpt lat="42.361836000" lon="-2.478960000">
        <ele>501.60</ele>
        <time>2014-11-01T08:08:41Z</time>
      </trkpt>
      <trkpt lat="42.361811000" lon="-2.478968000">
        <ele>501.60</ele>
        <time>2014-11-01T08:08:42Z</time>
      </trkpt>
      <trkpt lat="42.361793000" lon="-2.478982000">
        <ele>501.60</ele>
        <time>2014-11-01T08:08:43Z</time>
      </trkpt>
      <trkpt lat="42.361778000" lon="-2.479000000">
        <ele>501.60</ele>
        <time>2014-11-01T08:08:44Z</time>
      </trkpt>
      <trkpt lat="42.361759000" lon="-2.479021000">
        <ele>501.50</ele>
        <time>2014-11-01T08:08:45Z</time>
      </trkpt>
      <trkpt lat="42.361746000" lon="-2.479039000">
        <ele>501.30</ele>
        <time>2014-11-01T08:08:46Z</time>
      </trkpt>
      <trkpt lat="42.361728000" lon="-2.479052000">
        <ele>501.20</ele>
        <time>2014-11-01T08:08:47Z</time>
      </trkpt>
      <trkpt lat="42.361721000" lon="-2.479054000">
        <ele>501.20</ele>
        <time>2014-11-01T08:08:48Z</time>
      </trkpt>
      <trkpt lat="42.361719000" lon="-2.479055000">
        <ele>501.10</ele>
        <time>2014-11-01T08:08:49Z</time>
      </trkpt>
      <trkpt lat="42.361719000" lon="-2.479053000">
        <ele>501.10</ele>
        <time>2014-11-01T08:08:50Z</time>
      </trkpt>
      <trkpt lat="42.361719000" lon="-2.479049000">
        <ele>501.10</ele>
        <time>2014-11-01T08:08:51Z</time>
      </trkpt>
      <trkpt lat="42.361722000" lon="-2.479051000">
        <ele>501.10</ele>
        <time>2014-11-01T08:08:52Z</time>
      </trkpt>
      <trkpt lat="42.361719000" lon="-2.479052000">
        <ele>501.10</ele>
        <time>2014-11-01T08:08:53Z</time>
      </trkpt>
      <trkpt lat="42.361714000" lon="-2.479052000">
        <ele>501.00</ele>
        <time>2014-11-01T08:08:54Z</time>
      </trkpt>
      <trkpt lat="42.361711000" lon="-2.479050000">
        <ele>501.00</ele>
        <time>2014-11-01T08:08:55Z</time>
      </trkpt>
      <trkpt lat="42.361711000" lon="-2.479051000">
        <ele>500.90</ele>
        <time>2014-11-01T08:08:56Z</time>
      </trkpt>
      <trkpt lat="42.361705000" lon="-2.479057000">
        <ele>500.80</ele>
        <time>2014-11-01T08:08:57Z</time>
      </trkpt>
      <trkpt lat="42.361703000" lon="-2.479060000">
        <ele>500.70</ele>
        <time>2014-11-01T08:08:58Z</time>
      </trkpt>
      <trkpt lat="42.361696000" lon="-2.479066000">
        <ele>500.60</ele>
        <time>2014-11-01T08:08:59Z</time>
      </trkpt>
      <trkpt lat="42.361695000" lon="-2.479068000">
        <ele>500.50</ele>
        <time>2014-11-01T08:09:00Z</time>
      </trkpt>
      <trkpt lat="42.361697000" lon="-2.479064000">
        <ele>500.50</ele>
        <time>2014-11-01T08:09:01Z</time>
      </trkpt>
      <trkpt lat="42.361694000" lon="-2.479062000">
        <ele>500.50</ele>
        <time>2014-11-01T08:09:02Z</time>
      </trkpt>
      <trkpt lat="42.361693000" lon="-2.479056000">
        <ele>500.50</ele>
        <time>2014-11-01T08:09:03Z</time>
      </trkpt>
      <trkpt lat="42.361692000" lon="-2.479052000">
        <ele>500.50</ele>
        <time>2014-11-01T08:09:04Z</time>
      </trkpt>
      <trkpt lat="42.361693000" lon="-2.479053000">
        <ele>500.50</ele>
        <time>2014-11-01T08:09:05Z</time>
      </trkpt>
      <trkpt lat="42.361693000" lon="-2.479051000">
        <ele>500.60</ele>
        <time>2014-11-01T08:09:06Z</time>
      </trkpt>
      <trkpt lat="42.361693000" lon="-2.479049000">
        <ele>500.70</ele>
        <time>2014-11-01T08:09:07Z</time>
      </trkpt>
      <trkpt lat="42.361694000" lon="-2.479043000">
        <ele>500.60</ele>
        <time>2014-11-01T08:09:08Z</time>
      </trkpt>
      <trkpt lat="42.361695000" lon="-2.479043000">
        <ele>500.60</ele>
        <time>2014-11-01T08:09:09Z</time>
      </trkpt>
      <trkpt lat="42.361694000" lon="-2.479042000">
        <ele>500.50</ele>
        <time>2014-11-01T08:09:10Z</time>
      </trkpt>
      <trkpt lat="42.361691000" lon="-2.479043000">
        <ele>500.50</ele>
        <time>2014-11-01T08:09:11Z</time>
      </trkpt>
      <trkpt lat="42.361689000" lon="-2.479044000">
        <ele>500.40</ele>
        <time>2014-11-01T08:09:12Z</time>
      </trkpt>
      <trkpt lat="42.361686000" lon="-2.479046000">
        <ele>500.40</ele>
        <time>2014-11-01T08:09:13Z</time>
      </trkpt>
      <trkpt lat="42.361686000" lon="-2.479047000">
        <ele>500.40</ele>
        <time>2014-11-01T08:09:14Z</time>
      </trkpt>
      <trkpt lat="42.361687000" lon="-2.479051000">
        <ele>500.50</ele>
        <time>2014-11-01T08:09:15Z</time>
      </trkpt>
      <trkpt lat="42.361688000" lon="-2.479051000">
        <ele>500.50</ele>
        <time>2014-11-01T08:09:16Z</time>
      </trkpt>
      <trkpt lat="42.361689000" lon="-2.479052000">
        <ele>500.50</ele>
        <time>2014-11-01T08:09:17Z</time>
      </trkpt>
      <trkpt lat="42.361690000" lon="-2.479052000">
        <ele>500.50</ele>
        <time>2014-11-01T08:09:18Z</time>
      </trkpt>
      <trkpt lat="42.361691000" lon="-2.479051000">
        <ele>500.50</ele>
        <time>2014-11-01T08:09:19Z</time>
      </trkpt>
      <trkpt lat="42.361691000" lon="-2.479047000">
        <ele>500.40</ele>
        <time>2014-11-01T08:09:20Z</time>
      </trkpt>
      <trkpt lat="42.361692000" lon="-2.479044000">
        <ele>500.40</ele>
        <time>2014-11-01T08:09:21Z</time>
      </trkpt>
      <trkpt lat="42.361695000" lon="-2.479043000">
        <ele>500.30</ele>
        <time>2014-11-01T08:09:22Z</time>
      </trkpt>
      <trkpt lat="42.361696000" lon="-2.479044000">
        <ele>500.30</ele>
        <time>2014-11-01T08:09:23Z</time>
      </trkpt>
      <trkpt lat="42.361698000" lon="-2.479045000">
        <ele>500.10</ele>
        <time>2014-11-01T08:09:24Z</time>
      </trkpt>
      <trkpt lat="42.361699000" lon="-2.479046000">
        <ele>500.00</ele>
        <time>2014-11-01T08:09:25Z</time>
      </trkpt>
      <trkpt lat="42.361701000" lon="-2.479047000">
        <ele>500.10</ele>
        <time>2014-11-01T08:09:26Z</time>
      </trkpt>
      <trkpt lat="42.361703000" lon="-2.479049000">
        <ele>500.20</ele>
        <time>2014-11-01T08:09:27Z</time>
      </trkpt>
      <trkpt lat="42.361704000" lon="-2.479052000">
        <ele>500.20</ele>
        <time>2014-11-01T08:09:28Z</time>
      </trkpt>
      <trkpt lat="42.361706000" lon="-2.479053000">
        <ele>500.30</ele>
        <time>2014-11-01T08:09:29Z</time>
      </trkpt>
      <trkpt lat="42.361707000" lon="-2.479054000">
        <ele>500.30</ele>
        <time>2014-11-01T08:09:30Z</time>
      </trkpt>
      <trkpt lat="42.361706000" lon="-2.479053000">
        <ele>500.30</ele>
        <time>2014-11-01T08:09:31Z</time>
      </trkpt>
      <trkpt lat="42.361702000" lon="-2.479046000">
        <ele>500.10</ele>
        <time>2014-11-01T08:09:33Z</time>
      </trkpt>
      <trkpt lat="42.361701000" lon="-2.479043000">
        <ele>500.10</ele>
        <time>2014-11-01T08:09:34Z</time>
      </trkpt>
      <trkpt lat="42.361700000" lon="-2.479039000">
        <ele>500.00</ele>
        <time>2014-11-01T08:09:35Z</time>
      </trkpt>
      <trkpt lat="42.361696000" lon="-2.479034000">
        <ele>500.10</ele>
        <time>2014-11-01T08:09:36Z</time>
      </trkpt>
      <trkpt lat="42.361694000" lon="-2.479032000">
        <ele>500.10</ele>
        <time>2014-11-01T08:09:37Z</time>
      </trkpt>
      <trkpt lat="42.361693000" lon="-2.479033000">
        <ele>500.10</ele>
        <time>2014-11-01T08:09:38Z</time>
      </trkpt>
      <trkpt lat="42.361695000" lon="-2.479034000">
        <ele>500.20</ele>
        <time>2014-11-01T08:09:39Z</time>
      </trkpt>
      <trkpt lat="42.361695000" lon="-2.479035000">
        <ele>500.10</ele>
        <time>2014-11-01T08:09:40Z</time>
      </trkpt>
      <trkpt lat="42.361696000" lon="-2.479035000">
        <ele>500.10</ele>
        <time>2014-11-01T08:09:41Z</time>
      </trkpt>
      <trkpt lat="42.361694000" lon="-2.479036000">
        <ele>500.00</ele>
        <time>2014-11-01T08:09:42Z</time>
      </trkpt>
      <trkpt lat="42.361694000" lon="-2.479036000">
        <ele>500.00</ele>
        <time>2014-11-01T08:09:43Z</time>
      </trkpt>
      <trkpt lat="42.361693000" lon="-2.479036000">
        <ele>500.10</ele>
        <time>2014-11-01T08:09:44Z</time>
      </trkpt>
      <trkpt lat="42.361693000" lon="-2.479036000">
        <ele>500.10</ele>
        <time>2014-11-01T08:09:45Z</time>
      </trkpt>
      <trkpt lat="42.361693000" lon="-2.479034000">
        <ele>500.10</ele>
        <time>2014-11-01T08:09:46Z</time>
      </trkpt>
      <trkpt lat="42.361693000" lon="-2.479034000">
        <ele>500.20</ele>
        <time>2014-11-01T08:09:47Z</time>
      </trkpt>
      <trkpt lat="42.361693000" lon="-2.479033000">
        <ele>500.10</ele>
        <time>2014-11-01T08:09:48Z</time>
      </trkpt>
      <trkpt lat="42.361695000" lon="-2.479033000">
        <ele>500.10</ele>
        <time>2014-11-01T08:09:49Z</time>
      </trkpt>
      <trkpt lat="42.361698000" lon="-2.479034000">
        <ele>500.00</ele>
        <time>2014-11-01T08:09:50Z</time>
      </trkpt>
      <trkpt lat="42.361699000" lon="-2.479036000">
        <ele>500.00</ele>
        <time>2014-11-01T08:09:51Z</time>
      </trkpt>
      <trkpt lat="42.361698000" lon="-2.479041000">
        <ele>499.90</ele>
        <time>2014-11-01T08:09:52Z</time>
      </trkpt>
      <trkpt lat="42.361699000" lon="-2.479044000">
        <ele>499.90</ele>
        <time>2014-11-01T08:09:53Z</time>
      </trkpt>
      <trkpt lat="42.361702000" lon="-2.479044000">
        <ele>499.90</ele>
        <time>2014-11-01T08:09:54Z</time>
      </trkpt>
      <trkpt lat="42.361705000" lon="-2.479043000">
        <ele>499.80</ele>
        <time>2014-11-01T08:09:55Z</time>
      </trkpt>
      <trkpt lat="42.361709000" lon="-2.479045000">
        <ele>499.80</ele>
        <time>2014-11-01T08:09:56Z</time>
      </trkpt>
      <trkpt lat="42.361710000" lon="-2.479045000">
        <ele>499.80</ele>
        <time>2014-11-01T08:09:57Z</time>
      </trkpt>
      <trkpt lat="42.361712000" lon="-2.479046000">
        <ele>499.70</ele>
        <time>2014-11-01T08:09:58Z</time>
      </trkpt>
      <trkpt lat="42.361714000" lon="-2.479045000">
        <ele>499.60</ele>
        <time>2014-11-01T08:09:59Z</time>
      </trkpt>
      <trkpt lat="42.361716000" lon="-2.479045000">
        <ele>499.90</ele>
        <time>2014-11-01T08:10:00Z</time>
      </trkpt>
      <trkpt lat="42.361718000" lon="-2.479045000">
        <ele>500.10</ele>
        <time>2014-11-01T08:10:01Z</time>
      </trkpt>
      <trkpt lat="42.361719000" lon="-2.479048000">
        <ele>500.00</ele>
        <time>2014-11-01T08:10:02Z</time>
      </trkpt>
      <trkpt lat="42.361720000" lon="-2.479049000">
        <ele>500.00</ele>
        <time>2014-11-01T08:10:03Z</time>
      </trkpt>
      <trkpt lat="42.361721000" lon="-2.479048000">
        <ele>500.00</ele>
        <time>2014-11-01T08:10:04Z</time>
      </trkpt>
      <trkpt lat="42.361719000" lon="-2.479047000">
        <ele>500.10</ele>
        <time>2014-11-01T08:10:05Z</time>
      </trkpt>
      <trkpt lat="42.361718000" lon="-2.479046000">
        <ele>500.10</ele>
        <time>2014-11-01T08:10:06Z</time>
      </trkpt>
      <trkpt lat="42.361716000" lon="-2.479046000">
        <ele>500.10</ele>
        <time>2014-11-01T08:10:07Z</time>
      </trkpt>
      <trkpt lat="42.361708000" lon="-2.479043000">
        <ele>500.10</ele>
        <time>2014-11-01T08:10:08Z</time>
      </trkpt>
      <trkpt lat="42.361706000" lon="-2.479042000">
        <ele>500.10</ele>
        <time>2014-11-01T08:10:09Z</time>
      </trkpt>
      <trkpt lat="42.361704000" lon="-2.479044000">
        <ele>500.10</ele>
        <time>2014-11-01T08:10:10Z</time>
      </trkpt>
      <trkpt lat="42.361702000" lon="-2.479044000">
        <ele>500.10</ele>
        <time>2014-11-01T08:10:11Z</time>
      </trkpt>
      <trkpt lat="42.361698000" lon="-2.479043000">
        <ele>500.00</ele>
        <time>2014-11-01T08:10:12Z</time>
      </trkpt>
      <trkpt lat="42.361696000" lon="-2.479044000">
        <ele>499.90</ele>
        <time>2014-11-01T08:10:13Z</time>
      </trkpt>
      <trkpt lat="42.361695000" lon="-2.479042000">
        <ele>499.90</ele>
        <time>2014-11-01T08:10:14Z</time>
      </trkpt>
      <trkpt lat="42.361698000" lon="-2.479045000">
        <ele>499.80</ele>
        <time>2014-11-01T08:10:15Z</time>
      </trkpt>
      <trkpt lat="42.361700000" lon="-2.479052000">
        <ele>499.80</ele>
        <time>2014-11-01T08:10:16Z</time>
      </trkpt>
      <trkpt lat="42.361701000" lon="-2.479057000">
        <ele>499.80</ele>
        <time>2014-11-01T08:10:17Z</time>
      </trkpt>
      <trkpt lat="42.361699000" lon="-2.479063000">
        <ele>499.80</ele>
        <time>2014-11-01T08:10:18Z</time>
      </trkpt>
      <trkpt lat="42.361698000" lon="-2.479067000">
        <ele>499.90</ele>
        <time>2014-11-01T08:10:19Z</time>
      </trkpt>
      <trkpt lat="42.361698000" lon="-2.479074000">
        <ele>499.90</ele>
        <time>2014-11-01T08:10:20Z</time>
      </trkpt>
      <trkpt lat="42.361701000" lon="-2.479077000">
        <ele>499.90</ele>
        <time>2014-11-01T08:10:21Z</time>
      </trkpt>
      <trkpt lat="42.361702000" lon="-2.479080000">
        <ele>499.90</ele>
        <time>2014-11-01T08:10:22Z</time>
      </trkpt>
      <trkpt lat="42.361703000" lon="-2.479081000">
        <ele>499.90</ele>
        <time>2014-11-01T08:10:23Z</time>
      </trkpt>
      <trkpt lat="42.361704000" lon="-2.479080000">
        <ele>500.00</ele>
        <time>2014-11-01T08:10:24Z</time>
      </trkpt>
      <trkpt lat="42.361704000" lon="-2.479077000">
        <ele>500.00</ele>
        <time>2014-11-01T08:10:25Z</time>
      </trkpt>
      <trkpt lat="42.361704000" lon="-2.479076000">
        <ele>500.00</ele>
        <time>2014-11-01T08:10:26Z</time>
      </trkpt>
      <trkpt lat="42.361704000" lon="-2.479074000">
        <ele>500.00</ele>
        <time>2014-11-01T08:10:27Z</time>
      </trkpt>
      <trkpt lat="42.361705000" lon="-2.479070000">
        <ele>500.00</ele>
        <time>2014-11-01T08:10:28Z</time>
      </trkpt>
      <trkpt lat="42.361707000" lon="-2.479068000">
        <ele>500.00</ele>
        <time>2014-11-01T08:10:29Z</time>
      </trkpt>
      <trkpt lat="42.361709000" lon="-2.479068000">
        <ele>500.00</ele>
        <time>2014-11-01T08:10:30Z</time>
      </trkpt>
      <trkpt lat="42.361711000" lon="-2.479073000">
        <ele>500.00</ele>
        <time>2014-11-01T08:10:31Z</time>
      </trkpt>
      <trkpt lat="42.361712000" lon="-2.479075000">
        <ele>500.10</ele>
        <time>2014-11-01T08:10:32Z</time>
      </trkpt>
      <trkpt lat="42.361710000" lon="-2.479079000">
        <ele>500.20</ele>
        <time>2014-11-01T08:10:34Z</time>
      </trkpt>
      <trkpt lat="42.361712000" lon="-2.479081000">
        <ele>500.30</ele>
        <time>2014-11-01T08:10:35Z</time>
      </trkpt>
      <trkpt lat="42.361717000" lon="-2.479076000">
        <ele>500.10</ele>
        <time>2014-11-01T08:10:36Z</time>
      </trkpt>
      <trkpt lat="42.361721000" lon="-2.479072000">
        <ele>500.00</ele>
        <time>2014-11-01T08:10:37Z</time>
      </trkpt>
      <trkpt lat="42.361725000" lon="-2.479064000">
        <ele>499.90</ele>
        <time>2014-11-01T08:10:38Z</time>
      </trkpt>
      <trkpt lat="42.361726000" lon="-2.479061000">
        <ele>499.80</ele>
        <time>2014-11-01T08:10:39Z</time>
      </trkpt>
      <trkpt lat="42.361728000" lon="-2.479058000">
        <ele>499.90</ele>
        <time>2014-11-01T08:10:40Z</time>
      </trkpt>
      <trkpt lat="42.361728000" lon="-2.479056000">
        <ele>499.90</ele>
        <time>2014-11-01T08:10:41Z</time>
      </trkpt>
      <trkpt lat="42.361726000" lon="-2.479052000">
        <ele>500.00</ele>
        <time>2014-11-01T08:10:42Z</time>
      </trkpt>
      <trkpt lat="42.361725000" lon="-2.479050000">
        <ele>500.00</ele>
        <time>2014-11-01T08:10:43Z</time>
      </trkpt>
      <trkpt lat="42.361724000" lon="-2.479050000">
        <ele>500.00</ele>
        <time>2014-11-01T08:10:44Z</time>
      </trkpt>
      <trkpt lat="42.361723000" lon="-2.479048000">
        <ele>500.00</ele>
        <time>2014-11-01T08:10:45Z</time>
      </trkpt>
      <trkpt lat="42.361720000" lon="-2.479047000">
        <ele>499.90</ele>
        <time>2014-11-01T08:10:46Z</time>
      </trkpt>
      <trkpt lat="42.361718000" lon="-2.479046000">
        <ele>499.90</ele>
        <time>2014-11-01T08:10:47Z</time>
      </trkpt>
      <trkpt lat="42.361717000" lon="-2.479045000">
        <ele>499.80</ele>
        <time>2014-11-01T08:10:48Z</time>
      </trkpt>
      <trkpt lat="42.361715000" lon="-2.479046000">
        <ele>499.80</ele>
        <time>2014-11-01T08:10:49Z</time>
      </trkpt>
      <trkpt lat="42.361715000" lon="-2.479045000">
        <ele>499.90</ele>
        <time>2014-11-01T08:10:50Z</time>
      </trkpt>
      <trkpt lat="42.361715000" lon="-2.479043000">
        <ele>499.90</ele>
        <time>2014-11-01T08:10:51Z</time>
      </trkpt>
      <trkpt lat="42.361715000" lon="-2.479041000">
        <ele>499.90</ele>
        <time>2014-11-01T08:10:52Z</time>
      </trkpt>
      <trkpt lat="42.361716000" lon="-2.479039000">
        <ele>500.00</ele>
        <time>2014-11-01T08:10:53Z</time>
      </trkpt>
      <trkpt lat="42.361717000" lon="-2.479037000">
        <ele>500.00</ele>
        <time>2014-11-01T08:10:54Z</time>
      </trkpt>
      <trkpt lat="42.361717000" lon="-2.479037000">
        <ele>500.00</ele>
        <time>2014-11-01T08:10:55Z</time>
      </trkpt>
      <trkpt lat="42.361714000" lon="-2.479039000">
        <ele>500.00</ele>
        <time>2014-11-01T08:10:56Z</time>
      </trkpt>
      <trkpt lat="42.361713000" lon="-2.479043000">
        <ele>500.10</ele>
        <time>2014-11-01T08:10:57Z</time>
      </trkpt>
      <trkpt lat="42.361712000" lon="-2.479049000">
        <ele>500.10</ele>
        <time>2014-11-01T08:10:58Z</time>
      </trkpt>
      <trkpt lat="42.361711000" lon="-2.479051000">
        <ele>500.10</ele>
        <time>2014-11-01T08:10:59Z</time>
      </trkpt>
      <trkpt lat="42.361712000" lon="-2.479056000">
        <ele>500.10</ele>
        <time>2014-11-01T08:11:00Z</time>
      </trkpt>
      <trkpt lat="42.361714000" lon="-2.479060000">
        <ele>500.10</ele>
        <time>2014-11-01T08:11:01Z</time>
      </trkpt>
      <trkpt lat="42.361716000" lon="-2.479060000">
        <ele>500.10</ele>
        <time>2014-11-01T08:11:02Z</time>
      </trkpt>
      <trkpt lat="42.361717000" lon="-2.479061000">
        <ele>500.10</ele>
        <time>2014-11-01T08:11:03Z</time>
      </trkpt>
      <trkpt lat="42.361720000" lon="-2.479058000">
        <ele>500.20</ele>
        <time>2014-11-01T08:11:04Z</time>
      </trkpt>
      <trkpt lat="42.361720000" lon="-2.479057000">
        <ele>500.20</ele>
        <time>2014-11-01T08:11:05Z</time>
      </trkpt>
      <trkpt lat="42.361721000" lon="-2.479059000">
        <ele>500.30</ele>
        <time>2014-11-01T08:11:06Z</time>
      </trkpt>
      <trkpt lat="42.361724000" lon="-2.479061000">
        <ele>500.30</ele>
        <time>2014-11-01T08:11:07Z</time>
      </trkpt>
      <trkpt lat="42.361725000" lon="-2.479064000">
        <ele>500.40</ele>
        <time>2014-11-01T08:11:08Z</time>
      </trkpt>
      <trkpt lat="42.361725000" lon="-2.479064000">
        <ele>500.40</ele>
        <time>2014-11-01T08:11:09Z</time>
      </trkpt>
      <trkpt lat="42.361725000" lon="-2.479063000">
        <ele>500.40</ele>
        <time>2014-11-01T08:11:10Z</time>
      </trkpt>
      <trkpt lat="42.361723000" lon="-2.479064000">
        <ele>500.40</ele>
        <time>2014-11-01T08:11:11Z</time>
      </trkpt>
      <trkpt lat="42.361719000" lon="-2.479064000">
        <ele>500.40</ele>
        <time>2014-11-01T08:11:12Z</time>
      </trkpt>
      <trkpt lat="42.361720000" lon="-2.479066000">
        <ele>500.50</ele>
        <time>2014-11-01T08:11:13Z</time>
      </trkpt>
      <trkpt lat="42.361719000" lon="-2.479068000">
        <ele>500.50</ele>
        <time>2014-11-01T08:11:14Z</time>
      </trkpt>
      <trkpt lat="42.361718000" lon="-2.479068000">
        <ele>500.50</ele>
        <time>2014-11-01T08:11:15Z</time>
      </trkpt>
      <trkpt lat="42.361717000" lon="-2.479069000">
        <ele>500.40</ele>
        <time>2014-11-01T08:11:16Z</time>
      </trkpt>
      <trkpt lat="42.361717000" lon="-2.479065000">
        <ele>500.40</ele>
        <time>2014-11-01T08:11:17Z</time>
      </trkpt>
      <trkpt lat="42.361715000" lon="-2.479062000">
        <ele>500.40</ele>
        <time>2014-11-01T08:11:18Z</time>
      </trkpt>
      <trkpt lat="42.361713000" lon="-2.479056000">
        <ele>500.40</ele>
        <time>2014-11-01T08:11:19Z</time>
      </trkpt>
      <trkpt lat="42.361712000" lon="-2.479054000">
        <ele>500.30</ele>
        <time>2014-11-01T08:11:20Z</time>
      </trkpt>
      <trkpt lat="42.361714000" lon="-2.479051000">
        <ele>500.20</ele>
        <time>2014-11-01T08:11:21Z</time>
      </trkpt>
      <trkpt lat="42.361715000" lon="-2.479046000">
        <ele>500.20</ele>
        <time>2014-11-01T08:11:22Z</time>
      </trkpt>
      <trkpt lat="42.361717000" lon="-2.479047000">
        <ele>500.10</ele>
        <time>2014-11-01T08:11:23Z</time>
      </trkpt>
      <trkpt lat="42.361717000" lon="-2.479048000">
        <ele>500.10</ele>
        <time>2014-11-01T08:11:24Z</time>
      </trkpt>
      <trkpt lat="42.361717000" lon="-2.479047000">
        <ele>500.10</ele>
        <time>2014-11-01T08:11:25Z</time>
      </trkpt>
      <trkpt lat="42.361716000" lon="-2.479046000">
        <ele>500.20</ele>
        <time>2014-11-01T08:11:26Z</time>
      </trkpt>
      <trkpt lat="42.361715000" lon="-2.479045000">
        <ele>500.20</ele>
        <time>2014-11-01T08:11:27Z</time>
      </trkpt>
      <trkpt lat="42.361715000" lon="-2.479045000">
        <ele>500.40</ele>
        <time>2014-11-01T08:11:28Z</time>
      </trkpt>
      <trkpt lat="42.361715000" lon="-2.479046000">
        <ele>500.50</ele>
        <time>2014-11-01T08:11:29Z</time>
      </trkpt>
      <trkpt lat="42.361714000" lon="-2.479046000">
        <ele>500.50</ele>
        <time>2014-11-01T08:11:30Z</time>
      </trkpt>
      <trkpt lat="42.361714000" lon="-2.479047000">
        <ele>500.50</ele>
        <time>2014-11-01T08:11:31Z</time>
      </trkpt>
      <trkpt lat="42.361709000" lon="-2.479044000">
        <ele>500.30</ele>
        <time>2014-11-01T08:11:32Z</time>
      </trkpt>
      <trkpt lat="42.361708000" lon="-2.479046000">
        <ele>500.20</ele>
        <time>2014-11-01T08:11:33Z</time>
      </trkpt>
      <trkpt lat="42.361709000" lon="-2.479046000">
        <ele>500.10</ele>
        <time>2014-11-01T08:11:35Z</time>
      </trkpt>
      <trkpt lat="42.361711000" lon="-2.479047000">
        <ele>500.10</ele>
        <time>2014-11-01T08:11:36Z</time>
      </trkpt>
      <trkpt lat="42.361712000" lon="-2.479047000">
        <ele>500.20</ele>
        <time>2014-11-01T08:11:37Z</time>
      </trkpt>
      <trkpt lat="42.361715000" lon="-2.479047000">
        <ele>500.20</ele>
        <time>2014-11-01T08:11:38Z</time>
      </trkpt>
      <trkpt lat="42.361716000" lon="-2.479046000">
        <ele>500.20</ele>
        <time>2014-11-01T08:11:39Z</time>
      </trkpt>
      <trkpt lat="42.361714000" lon="-2.479050000">
        <ele>500.20</ele>
        <time>2014-11-01T08:11:40Z</time>
      </trkpt>
      <trkpt lat="42.361713000" lon="-2.479050000">
        <ele>500.20</ele>
        <time>2014-11-01T08:11:41Z</time>
      </trkpt>
      <trkpt lat="42.361713000" lon="-2.479050000">
        <ele>500.30</ele>
        <time>2014-11-01T08:11:42Z</time>
      </trkpt>
      <trkpt lat="42.361716000" lon="-2.479046000">
        <ele>500.40</ele>
        <time>2014-11-01T08:11:43Z</time>
      </trkpt>
      <trkpt lat="42.361716000" lon="-2.479044000">
        <ele>500.50</ele>
        <time>2014-11-01T08:11:44Z</time>
      </trkpt>
      <trkpt lat="42.361718000" lon="-2.479041000">
        <ele>500.50</ele>
        <time>2014-11-01T08:11:45Z</time>
      </trkpt>
      <trkpt lat="42.361717000" lon="-2.479042000">
        <ele>500.60</ele>
        <time>2014-11-01T08:11:46Z</time>
      </trkpt>
      <trkpt lat="42.361716000" lon="-2.479048000">
        <ele>500.70</ele>
        <time>2014-11-01T08:11:47Z</time>
      </trkpt>
      <trkpt lat="42.361722000" lon="-2.479054000">
        <ele>500.70</ele>
        <time>2014-11-01T08:11:48Z</time>
      </trkpt>
      <trkpt lat="42.361724000" lon="-2.479060000">
        <ele>500.70</ele>
        <time>2014-11-01T08:11:49Z</time>
      </trkpt>
      <trkpt lat="42.361725000" lon="-2.479065000">
        <ele>500.80</ele>
        <time>2014-11-01T08:11:50Z</time>
      </trkpt>
      <trkpt lat="42.361727000" lon="-2.479067000">
        <ele>500.80</ele>
        <time>2014-11-01T08:11:51Z</time>
      </trkpt>
      <trkpt lat="42.361727000" lon="-2.479070000">
        <ele>500.90</ele>
        <time>2014-11-01T08:11:52Z</time>
      </trkpt>
      <trkpt lat="42.361732000" lon="-2.479073000">
        <ele>500.90</ele>
        <time>2014-11-01T08:11:53Z</time>
      </trkpt>
      <trkpt lat="42.361735000" lon="-2.479074000">
        <ele>501.00</ele>
        <time>2014-11-01T08:11:54Z</time>
      </trkpt>
      <trkpt lat="42.361736000" lon="-2.479071000">
        <ele>501.00</ele>
        <time>2014-11-01T08:11:55Z</time>
      </trkpt>
      <trkpt lat="42.361736000" lon="-2.479067000">
        <ele>501.00</ele>
        <time>2014-11-01T08:11:56Z</time>
      </trkpt>
      <trkpt lat="42.361736000" lon="-2.479063000">
        <ele>501.00</ele>
        <time>2014-11-01T08:11:57Z</time>
      </trkpt>
      <trkpt lat="42.361736000" lon="-2.479061000">
        <ele>500.90</ele>
        <time>2014-11-01T08:11:58Z</time>
      </trkpt>
      <trkpt lat="42.361733000" lon="-2.479061000">
        <ele>500.90</ele>
        <time>2014-11-01T08:11:59Z</time>
      </trkpt>
      <trkpt lat="42.361732000" lon="-2.479062000">
        <ele>500.80</ele>
        <time>2014-11-01T08:12:00Z</time>
      </trkpt>
      <trkpt lat="42.361730000" lon="-2.479062000">
        <ele>500.80</ele>
        <time>2014-11-01T08:12:01Z</time>
      </trkpt>
      <trkpt lat="42.361725000" lon="-2.479060000">
        <ele>500.70</ele>
        <time>2014-11-01T08:12:02Z</time>
      </trkpt>
      <trkpt lat="42.361720000" lon="-2.479057000">
        <ele>500.70</ele>
        <time>2014-11-01T08:12:03Z</time>
      </trkpt>
      <trkpt lat="42.361716000" lon="-2.479056000">
        <ele>500.70</ele>
        <time>2014-11-01T08:12:04Z</time>
      </trkpt>
      <trkpt lat="42.361710000" lon="-2.479054000">
        <ele>500.70</ele>
        <time>2014-11-01T08:12:05Z</time>
      </trkpt>
      <trkpt lat="42.361705000" lon="-2.479052000">
        <ele>500.70</ele>
        <time>2014-11-01T08:12:06Z</time>
      </trkpt>
      <trkpt lat="42.361701000" lon="-2.479051000">
        <ele>500.70</ele>
        <time>2014-11-01T08:12:07Z</time>
      </trkpt>
      <trkpt lat="42.361697000" lon="-2.479051000">
        <ele>500.90</ele>
        <time>2014-11-01T08:12:08Z</time>
      </trkpt>
      <trkpt lat="42.361693000" lon="-2.479049000">
        <ele>501.00</ele>
        <time>2014-11-01T08:12:09Z</time>
      </trkpt>
      <trkpt lat="42.361693000" lon="-2.479053000">
        <ele>501.00</ele>
        <time>2014-11-01T08:12:10Z</time>
      </trkpt>
      <trkpt lat="42.361693000" lon="-2.479056000">
        <ele>501.10</ele>
        <time>2014-11-01T08:12:11Z</time>
      </trkpt>
      <trkpt lat="42.361694000" lon="-2.479056000">
        <ele>501.10</ele>
        <time>2014-11-01T08:12:12Z</time>
      </trkpt>
      <trkpt lat="42.361694000" lon="-2.479057000">
        <ele>501.20</ele>
        <time>2014-11-01T08:12:13Z</time>
      </trkpt>
      <trkpt lat="42.361691000" lon="-2.479055000">
        <ele>501.10</ele>
        <time>2014-11-01T08:12:14Z</time>
      </trkpt>
      <trkpt lat="42.361686000" lon="-2.479053000">
        <ele>501.00</ele>
        <time>2014-11-01T08:12:15Z</time>
      </trkpt>
      <trkpt lat="42.361681000" lon="-2.479051000">
        <ele>501.20</ele>
        <time>2014-11-01T08:12:16Z</time>
      </trkpt>
      <trkpt lat="42.361677000" lon="-2.479050000">
        <ele>501.30</ele>
        <time>2014-11-01T08:12:17Z</time>
      </trkpt>
      <trkpt lat="42.361672000" lon="-2.479049000">
        <ele>501.30</ele>
        <time>2014-11-01T08:12:18Z</time>
      </trkpt>
      <trkpt lat="42.361672000" lon="-2.479050000">
        <ele>501.20</ele>
        <time>2014-11-01T08:12:19Z</time>
      </trkpt>
      <trkpt lat="42.361672000" lon="-2.479051000">
        <ele>501.40</ele>
        <time>2014-11-01T08:12:20Z</time>
      </trkpt>
      <trkpt lat="42.361673000" lon="-2.479051000">
        <ele>501.50</ele>
        <time>2014-11-01T08:12:21Z</time>
      </trkpt>
      <trkpt lat="42.361676000" lon="-2.479051000">
        <ele>501.50</ele>
        <time>2014-11-01T08:12:22Z</time>
      </trkpt>
      <trkpt lat="42.361679000" lon="-2.479054000">
        <ele>501.50</ele>
        <time>2014-11-01T08:12:23Z</time>
      </trkpt>
      <trkpt lat="42.361680000" lon="-2.479050000">
        <ele>501.50</ele>
        <time>2014-11-01T08:12:24Z</time>
      </trkpt>
      <trkpt lat="42.361681000" lon="-2.479052000">
        <ele>501.60</ele>
        <time>2014-11-01T08:12:25Z</time>
      </trkpt>
      <trkpt lat="42.361682000" lon="-2.479052000">
        <ele>501.60</ele>
        <time>2014-11-01T08:12:26Z</time>
      </trkpt>
      <trkpt lat="42.361681000" lon="-2.479052000">
        <ele>501.60</ele>
        <time>2014-11-01T08:12:27Z</time>
      </trkpt>
      <trkpt lat="42.361679000" lon="-2.479051000">
        <ele>501.60</ele>
        <time>2014-11-01T08:12:28Z</time>
      </trkpt>
      <trkpt lat="42.361679000" lon="-2.479051000">
        <ele>501.60</ele>
        <time>2014-11-01T08:12:29Z</time>
      </trkpt>
      <trkpt lat="42.361681000" lon="-2.479049000">
        <ele>501.60</ele>
        <time>2014-11-01T08:12:30Z</time>
      </trkpt>
      <trkpt lat="42.361682000" lon="-2.479046000">
        <ele>501.60</ele>
        <time>2014-11-01T08:12:31Z</time>
      </trkpt>
      <trkpt lat="42.361683000" lon="-2.479048000">
        <ele>501.60</ele>
        <time>2014-11-01T08:12:32Z</time>
      </trkpt>
      <trkpt lat="42.361681000" lon="-2.479050000">
        <ele>501.60</ele>
        <time>2014-11-01T08:12:33Z</time>
      </trkpt>
      <trkpt lat="42.361680000" lon="-2.479052000">
        <ele>501.70</ele>
        <time>2014-11-01T08:12:34Z</time>
      </trkpt>
      <trkpt lat="42.361680000" lon="-2.479051000">
        <ele>501.70</ele>
        <time>2014-11-01T08:12:36Z</time>
      </trkpt>
      <trkpt lat="42.361678000" lon="-2.479050000">
        <ele>501.60</ele>
        <time>2014-11-01T08:12:37Z</time>
      </trkpt>
      <trkpt lat="42.361677000" lon="-2.479050000">
        <ele>501.60</ele>
        <time>2014-11-01T08:12:38Z</time>
      </trkpt>
      <trkpt lat="42.361683000" lon="-2.479053000">
        <ele>501.50</ele>
        <time>2014-11-01T08:12:39Z</time>
      </trkpt>
      <trkpt lat="42.361681000" lon="-2.479063000">
        <ele>501.50</ele>
        <time>2014-11-01T08:12:40Z</time>
      </trkpt>
      <trkpt lat="42.361675000" lon="-2.479074000">
        <ele>501.50</ele>
        <time>2014-11-01T08:12:41Z</time>
      </trkpt>
      <trkpt lat="42.361668000" lon="-2.479082000">
        <ele>501.50</ele>
        <time>2014-11-01T08:12:42Z</time>
      </trkpt>
      <trkpt lat="42.361652000" lon="-2.479090000">
        <ele>501.50</ele>
        <time>2014-11-01T08:12:43Z</time>
      </trkpt>
      <trkpt lat="42.361640000" lon="-2.479098000">
        <ele>501.60</ele>
        <time>2014-11-01T08:12:44Z</time>
      </trkpt>
      <trkpt lat="42.361624000" lon="-2.479103000">
        <ele>501.70</ele>
        <time>2014-11-01T08:12:45Z</time>
      </trkpt>
      <trkpt lat="42.361614000" lon="-2.479105000">
        <ele>501.70</ele>
        <time>2014-11-01T08:12:46Z</time>
      </trkpt>
      <trkpt lat="42.361611000" lon="-2.479102000">
        <ele>501.80</ele>
        <time>2014-11-01T08:12:47Z</time>
      </trkpt>
      <trkpt lat="42.361607000" lon="-2.479106000">
        <ele>501.80</ele>
        <time>2014-11-01T08:12:48Z</time>
      </trkpt>
      <trkpt lat="42.361600000" lon="-2.479112000">
        <ele>501.90</ele>
        <time>2014-11-01T08:12:49Z</time>
      </trkpt>
      <trkpt lat="42.361587000" lon="-2.479119000">
        <ele>501.80</ele>
        <time>2014-11-01T08:12:50Z</time>
      </trkpt>
      <trkpt lat="42.361579000" lon="-2.479115000">
        <ele>501.70</ele>
        <time>2014-11-01T08:12:51Z</time>
      </trkpt>
      <trkpt lat="42.361575000" lon="-2.479104000">
        <ele>501.60</ele>
        <time>2014-11-01T08:12:52Z</time>
      </trkpt>
      <trkpt lat="42.361577000" lon="-2.479095000">
        <ele>501.60</ele>
        <time>2014-11-01T08:12:53Z</time>
      </trkpt>
      <trkpt lat="42.361580000" lon="-2.479092000">
        <ele>501.50</ele>
        <time>2014-11-01T08:12:54Z</time>
      </trkpt>
      <trkpt lat="42.361577000" lon="-2.479093000">
        <ele>501.40</ele>
        <time>2014-11-01T08:12:55Z</time>
      </trkpt>
      <trkpt lat="42.361575000" lon="-2.479092000">
        <ele>501.50</ele>
        <time>2014-11-01T08:12:56Z</time>
      </trkpt>
      <trkpt lat="42.361576000" lon="-2.479092000">
        <ele>501.60</ele>
        <time>2014-11-01T08:12:57Z</time>
      </trkpt>
      <trkpt lat="42.361579000" lon="-2.479095000">
        <ele>501.60</ele>
        <time>2014-11-01T08:12:58Z</time>
      </trkpt>
      <trkpt lat="42.361581000" lon="-2.479101000">
        <ele>501.70</ele>
        <time>2014-11-01T08:12:59Z</time>
      </trkpt>
      <trkpt lat="42.361582000" lon="-2.479105000">
        <ele>501.70</ele>
        <time>2014-11-01T08:13:00Z</time>
      </trkpt>
      <trkpt lat="42.361584000" lon="-2.479106000">
        <ele>501.70</ele>
        <time>2014-11-01T08:13:01Z</time>
      </trkpt>
      <trkpt lat="42.361585000" lon="-2.479107000">
        <ele>501.50</ele>
        <time>2014-11-01T08:13:02Z</time>
      </trkpt>
      <trkpt lat="42.361587000" lon="-2.479106000">
        <ele>501.40</ele>
        <time>2014-11-01T08:13:03Z</time>
      </trkpt>
      <trkpt lat="42.361584000" lon="-2.479106000">
        <ele>501.30</ele>
        <time>2014-11-01T08:13:04Z</time>
      </trkpt>
      <trkpt lat="42.361582000" lon="-2.479105000">
        <ele>501.20</ele>
        <time>2014-11-01T08:13:05Z</time>
      </trkpt>
      <trkpt lat="42.361580000" lon="-2.479105000">
        <ele>501.20</ele>
        <time>2014-11-01T08:13:06Z</time>
      </trkpt>
      <trkpt lat="42.361577000" lon="-2.479103000">
        <ele>501.20</ele>
        <time>2014-11-01T08:13:07Z</time>
      </trkpt>
      <trkpt lat="42.361576000" lon="-2.479101000">
        <ele>501.20</ele>
        <time>2014-11-01T08:13:08Z</time>
      </trkpt>
      <trkpt lat="42.361576000" lon="-2.479101000">
        <ele>501.20</ele>
        <time>2014-11-01T08:13:09Z</time>
      </trkpt>
      <trkpt lat="42.361575000" lon="-2.479103000">
        <ele>501.30</ele>
        <time>2014-11-01T08:13:10Z</time>
      </trkpt>
      <trkpt lat="42.361575000" lon="-2.479107000">
        <ele>501.30</ele>
        <time>2014-11-01T08:13:11Z</time>
      </trkpt>
      <trkpt lat="42.361574000" lon="-2.479109000">
        <ele>501.30</ele>
        <time>2014-11-01T08:13:12Z</time>
      </trkpt>
      <trkpt lat="42.361573000" lon="-2.479112000">
        <ele>501.30</ele>
        <time>2014-11-01T08:13:13Z</time>
      </trkpt>
      <trkpt lat="42.361572000" lon="-2.479113000">
        <ele>501.30</ele>
        <time>2014-11-01T08:13:14Z</time>
      </trkpt>
      <trkpt lat="42.361573000" lon="-2.479115000">
        <ele>501.30</ele>
        <time>2014-11-01T08:13:15Z</time>
      </trkpt>
      <trkpt lat="42.361574000" lon="-2.479117000">
        <ele>501.30</ele>
        <time>2014-11-01T08:13:16Z</time>
      </trkpt>
      <trkpt lat="42.361574000" lon="-2.479121000">
        <ele>501.40</ele>
        <time>2014-11-01T08:13:17Z</time>
      </trkpt>
      <trkpt lat="42.361572000" lon="-2.479123000">
        <ele>501.40</ele>
        <time>2014-11-01T08:13:18Z</time>
      </trkpt>
      <trkpt lat="42.361574000" lon="-2.479122000">
        <ele>501.40</ele>
        <time>2014-11-01T08:13:19Z</time>
      </trkpt>
      <trkpt lat="42.361575000" lon="-2.479126000">
        <ele>501.40</ele>
        <time>2014-11-01T08:13:20Z</time>
      </trkpt>
      <trkpt lat="42.361576000" lon="-2.479125000">
        <ele>501.40</ele>
        <time>2014-11-01T08:13:21Z</time>
      </trkpt>
      <trkpt lat="42.361575000" lon="-2.479127000">
        <ele>501.30</ele>
        <time>2014-11-01T08:13:22Z</time>
      </trkpt>
      <trkpt lat="42.361575000" lon="-2.479128000">
        <ele>501.30</ele>
        <time>2014-11-01T08:13:23Z</time>
      </trkpt>
      <trkpt lat="42.361575000" lon="-2.479129000">
        <ele>501.20</ele>
        <time>2014-11-01T08:13:24Z</time>
      </trkpt>
      <trkpt lat="42.361574000" lon="-2.479128000">
        <ele>501.10</ele>
        <time>2014-11-01T08:13:25Z</time>
      </trkpt>
      <trkpt lat="42.361574000" lon="-2.479127000">
        <ele>501.00</ele>
        <time>2014-11-01T08:13:26Z</time>
      </trkpt>
      <trkpt lat="42.361575000" lon="-2.479129000">
        <ele>500.90</ele>
        <time>2014-11-01T08:13:27Z</time>
      </trkpt>
      <trkpt lat="42.361571000" lon="-2.479129000">
        <ele>501.00</ele>
        <time>2014-11-01T08:13:28Z</time>
      </trkpt>
      <trkpt lat="42.361570000" lon="-2.479128000">
        <ele>501.10</ele>
        <time>2014-11-01T08:13:29Z</time>
      </trkpt>
      <trkpt lat="42.361569000" lon="-2.479128000">
        <ele>501.10</ele>
        <time>2014-11-01T08:13:30Z</time>
      </trkpt>
      <trkpt lat="42.361566000" lon="-2.479132000">
        <ele>501.20</ele>
        <time>2014-11-01T08:13:31Z</time>
      </trkpt>
      <trkpt lat="42.361562000" lon="-2.479132000">
        <ele>501.20</ele>
        <time>2014-11-01T08:13:32Z</time>
      </trkpt>
      <trkpt lat="42.361562000" lon="-2.479130000">
        <ele>501.20</ele>
        <time>2014-11-01T08:13:33Z</time>
      </trkpt>
      <trkpt lat="42.361560000" lon="-2.479128000">
        <ele>501.20</ele>
        <time>2014-11-01T08:13:34Z</time>
      </trkpt>
      <trkpt lat="42.361559000" lon="-2.479124000">
        <ele>501.20</ele>
        <time>2014-11-01T08:13:35Z</time>
      </trkpt>
      <trkpt lat="42.361557000" lon="-2.479122000">
        <ele>501.40</ele>
        <time>2014-11-01T08:13:37Z</time>
      </trkpt>
      <trkpt lat="42.361556000" lon="-2.479120000">
        <ele>501.40</ele>
        <time>2014-11-01T08:13:38Z</time>
      </trkpt>
      <trkpt lat="42.361557000" lon="-2.479116000">
        <ele>501.40</ele>
        <time>2014-11-01T08:13:39Z</time>
      </trkpt>
      <trkpt lat="42.361556000" lon="-2.479115000">
        <ele>501.40</ele>
        <time>2014-11-01T08:13:40Z</time>
      </trkpt>
      <trkpt lat="42.361554000" lon="-2.479112000">
        <ele>501.50</ele>
        <time>2014-11-01T08:13:41Z</time>
      </trkpt>
      <trkpt lat="42.361558000" lon="-2.479115000">
        <ele>501.50</ele>
        <time>2014-11-01T08:13:42Z</time>
      </trkpt>
      <trkpt lat="42.361561000" lon="-2.479116000">
        <ele>501.50</ele>
        <time>2014-11-01T08:13:43Z</time>
      </trkpt>
      <trkpt lat="42.361563000" lon="-2.479114000">
        <ele>501.60</ele>
        <time>2014-11-01T08:13:44Z</time>
      </trkpt>
      <trkpt lat="42.361566000" lon="-2.479110000">
        <ele>501.60</ele>
        <time>2014-11-01T08:13:45Z</time>
      </trkpt>
      <trkpt lat="42.361568000" lon="-2.479107000">
        <ele>501.70</ele>
        <time>2014-11-01T08:13:46Z</time>
      </trkpt>
      <trkpt lat="42.361567000" lon="-2.479104000">
        <ele>501.70</ele>
        <time>2014-11-01T08:13:47Z</time>
      </trkpt>
      <trkpt lat="42.361565000" lon="-2.479103000">
        <ele>501.70</ele>
        <time>2014-11-01T08:13:48Z</time>
      </trkpt>
      <trkpt lat="42.361563000" lon="-2.479101000">
        <ele>501.70</ele>
        <time>2014-11-01T08:13:49Z</time>
      </trkpt>
      <trkpt lat="42.361562000" lon="-2.479101000">
        <ele>501.70</ele>
        <time>2014-11-01T08:13:50Z</time>
      </trkpt>
      <trkpt lat="42.361562000" lon="-2.479102000">
        <ele>501.70</ele>
        <time>2014-11-01T08:13:51Z</time>
      </trkpt>
      <trkpt lat="42.361561000" lon="-2.479101000">
        <ele>501.80</ele>
        <time>2014-11-01T08:13:52Z</time>
      </trkpt>
      <trkpt lat="42.361557000" lon="-2.479100000">
        <ele>501.80</ele>
        <time>2014-11-01T08:13:53Z</time>
      </trkpt>
      <trkpt lat="42.361558000" lon="-2.479099000">
        <ele>501.80</ele>
        <time>2014-11-01T08:13:54Z</time>
      </trkpt>
      <trkpt lat="42.361556000" lon="-2.479099000">
        <ele>501.80</ele>
        <time>2014-11-01T08:13:55Z</time>
      </trkpt>
      <trkpt lat="42.361555000" lon="-2.479097000">
        <ele>501.80</ele>
        <time>2014-11-01T08:13:56Z</time>
      </trkpt>
      <trkpt lat="42.361554000" lon="-2.479093000">
        <ele>501.80</ele>
        <time>2014-11-01T08:13:57Z</time>
      </trkpt>
      <trkpt lat="42.361553000" lon="-2.479091000">
        <ele>501.70</ele>
        <time>2014-11-01T08:13:58Z</time>
      </trkpt>
      <trkpt lat="42.361553000" lon="-2.479086000">
        <ele>501.70</ele>
        <time>2014-11-01T08:13:59Z</time>
      </trkpt>
      <trkpt lat="42.361553000" lon="-2.479082000">
        <ele>501.60</ele>
        <time>2014-11-01T08:14:00Z</time>
      </trkpt>
      <trkpt lat="42.361553000" lon="-2.479080000">
        <ele>501.60</ele>
        <time>2014-11-01T08:14:01Z</time>
      </trkpt>
      <trkpt lat="42.361555000" lon="-2.479079000">
        <ele>501.60</ele>
        <time>2014-11-01T08:14:02Z</time>
      </trkpt>
      <trkpt lat="42.361556000" lon="-2.479081000">
        <ele>501.60</ele>
        <time>2014-11-01T08:14:03Z</time>
      </trkpt>
      <trkpt lat="42.361557000" lon="-2.479080000">
        <ele>501.70</ele>
        <time>2014-11-01T08:14:04Z</time>
      </trkpt>
      <trkpt lat="42.361556000" lon="-2.479080000">
        <ele>501.80</ele>
        <time>2014-11-01T08:14:05Z</time>
      </trkpt>
      <trkpt lat="42.361556000" lon="-2.479081000">
        <ele>501.80</ele>
        <time>2014-11-01T08:14:06Z</time>
      </trkpt>
      <trkpt lat="42.361560000" lon="-2.479081000">
        <ele>501.90</ele>
        <time>2014-11-01T08:14:07Z</time>
      </trkpt>
      <trkpt lat="42.361560000" lon="-2.479084000">
        <ele>501.90</ele>
        <time>2014-11-01T08:14:08Z</time>
      </trkpt>
      <trkpt lat="42.361562000" lon="-2.479084000">
        <ele>501.80</ele>
        <time>2014-11-01T08:14:09Z</time>
      </trkpt>
      <trkpt lat="42.361566000" lon="-2.479085000">
        <ele>501.80</ele>
        <time>2014-11-01T08:14:10Z</time>
      </trkpt>
      <trkpt lat="42.361569000" lon="-2.479085000">
        <ele>501.80</ele>
        <time>2014-11-01T08:14:11Z</time>
      </trkpt>
      <trkpt lat="42.361569000" lon="-2.479085000">
        <ele>501.70</ele>
        <time>2014-11-01T08:14:12Z</time>
      </trkpt>
      <trkpt lat="42.361571000" lon="-2.479085000">
        <ele>501.60</ele>
        <time>2014-11-01T08:14:13Z</time>
      </trkpt>
      <trkpt lat="42.361573000" lon="-2.479084000">
        <ele>501.50</ele>
        <time>2014-11-01T08:14:14Z</time>
      </trkpt>
      <trkpt lat="42.361572000" lon="-2.479084000">
        <ele>501.40</ele>
        <time>2014-11-01T08:14:15Z</time>
      </trkpt>
      <trkpt lat="42.361574000" lon="-2.479086000">
        <ele>501.40</ele>
        <time>2014-11-01T08:14:16Z</time>
      </trkpt>
      <trkpt lat="42.361575000" lon="-2.479086000">
        <ele>501.40</ele>
        <time>2014-11-01T08:14:17Z</time>
      </trkpt>
      <trkpt lat="42.361574000" lon="-2.479084000">
        <ele>501.40</ele>
        <time>2014-11-01T08:14:18Z</time>
      </trkpt>
      <trkpt lat="42.361577000" lon="-2.479084000">
        <ele>501.40</ele>
        <time>2014-11-01T08:14:19Z</time>
      </trkpt>
      <trkpt lat="42.361579000" lon="-2.479085000">
        <ele>501.50</ele>
        <time>2014-11-01T08:14:20Z</time>
      </trkpt>
      <trkpt lat="42.361582000" lon="-2.479085000">
        <ele>501.50</ele>
        <time>2014-11-01T08:14:21Z</time>
      </trkpt>
      <trkpt lat="42.361584000" lon="-2.479086000">
        <ele>501.50</ele>
        <time>2014-11-01T08:14:22Z</time>
      </trkpt>
      <trkpt lat="42.361588000" lon="-2.479088000">
        <ele>501.50</ele>
        <time>2014-11-01T08:14:23Z</time>
      </trkpt>
      <trkpt lat="42.361589000" lon="-2.479088000">
        <ele>501.50</ele>
        <time>2014-11-01T08:14:24Z</time>
      </trkpt>
      <trkpt lat="42.361591000" lon="-2.479089000">
        <ele>501.50</ele>
        <time>2014-11-01T08:14:25Z</time>
      </trkpt>
      <trkpt lat="42.361594000" lon="-2.479089000">
        <ele>501.50</ele>
        <time>2014-11-01T08:14:26Z</time>
      </trkpt>
      <trkpt lat="42.361596000" lon="-2.479088000">
        <ele>501.50</ele>
        <time>2014-11-01T08:14:27Z</time>
      </trkpt>
      <trkpt lat="42.361595000" lon="-2.479090000">
        <ele>501.50</ele>
        <time>2014-11-01T08:14:28Z</time>
      </trkpt>
      <trkpt lat="42.361593000" lon="-2.479091000">
        <ele>501.50</ele>
        <time>2014-11-01T08:14:29Z</time>
      </trkpt>
      <trkpt lat="42.361592000" lon="-2.479095000">
        <ele>501.50</ele>
        <time>2014-11-01T08:14:30Z</time>
      </trkpt>
      <trkpt lat="42.361591000" lon="-2.479096000">
        <ele>501.50</ele>
        <time>2014-11-01T08:14:31Z</time>
      </trkpt>
      <trkpt lat="42.361589000" lon="-2.479095000">
        <ele>501.50</ele>
        <time>2014-11-01T08:14:32Z</time>
      </trkpt>
      <trkpt lat="42.361589000" lon="-2.479096000">
        <ele>501.40</ele>
        <time>2014-11-01T08:14:33Z</time>
      </trkpt>
      <trkpt lat="42.361589000" lon="-2.479095000">
        <ele>501.40</ele>
        <time>2014-11-01T08:14:34Z</time>
      </trkpt>
      <trkpt lat="42.361594000" lon="-2.479096000">
        <ele>501.50</ele>
        <time>2014-11-01T08:14:35Z</time>
      </trkpt>
      <trkpt lat="42.361595000" lon="-2.479095000">
        <ele>501.50</ele>
        <time>2014-11-01T08:14:36Z</time>
      </trkpt>
      <trkpt lat="42.361595000" lon="-2.479094000">
        <ele>501.50</ele>
        <time>2014-11-01T08:14:38Z</time>
      </trkpt>
      <trkpt lat="42.361595000" lon="-2.479096000">
        <ele>501.50</ele>
        <time>2014-11-01T08:14:39Z</time>
      </trkpt>
      <trkpt lat="42.361593000" lon="-2.479095000">
        <ele>501.60</ele>
        <time>2014-11-01T08:14:40Z</time>
      </trkpt>
      <trkpt lat="42.361594000" lon="-2.479095000">
        <ele>501.60</ele>
        <time>2014-11-01T08:14:41Z</time>
      </trkpt>
      <trkpt lat="42.361594000" lon="-2.479095000">
        <ele>501.70</ele>
        <time>2014-11-01T08:14:42Z</time>
      </trkpt>
      <trkpt lat="42.361592000" lon="-2.479096000">
        <ele>501.70</ele>
        <time>2014-11-01T08:14:43Z</time>
      </trkpt>
      <trkpt lat="42.361589000" lon="-2.479096000">
        <ele>501.80</ele>
        <time>2014-11-01T08:14:44Z</time>
      </trkpt>
      <trkpt lat="42.361590000" lon="-2.479099000">
        <ele>502.00</ele>
        <time>2014-11-01T08:14:45Z</time>
      </trkpt>
      <trkpt lat="42.361589000" lon="-2.479099000">
        <ele>501.90</ele>
        <time>2014-11-01T08:14:46Z</time>
      </trkpt>
      <trkpt lat="42.361588000" lon="-2.479098000">
        <ele>501.90</ele>
        <time>2014-11-01T08:14:47Z</time>
      </trkpt>
      <trkpt lat="42.361590000" lon="-2.479098000">
        <ele>502.00</ele>
        <time>2014-11-01T08:14:48Z</time>
      </trkpt>
      <trkpt lat="42.361590000" lon="-2.479100000">
        <ele>502.10</ele>
        <time>2014-11-01T08:14:49Z</time>
      </trkpt>
      <trkpt lat="42.361588000" lon="-2.479099000">
        <ele>502.20</ele>
        <time>2014-11-01T08:14:50Z</time>
      </trkpt>
      <trkpt lat="42.361586000" lon="-2.479101000">
        <ele>502.30</ele>
        <time>2014-11-01T08:14:51Z</time>
      </trkpt>
      <trkpt lat="42.361586000" lon="-2.479100000">
        <ele>502.30</ele>
        <time>2014-11-01T08:14:52Z</time>
      </trkpt>
      <trkpt lat="42.361588000" lon="-2.479104000">
        <ele>502.40</ele>
        <time>2014-11-01T08:14:53Z</time>
      </trkpt>
      <trkpt lat="42.361592000" lon="-2.479106000">
        <ele>502.20</ele>
        <time>2014-11-01T08:14:54Z</time>
      </trkpt>
      <trkpt lat="42.361592000" lon="-2.479108000">
        <ele>502.10</ele>
        <time>2014-11-01T08:14:55Z</time>
      </trkpt>
      <trkpt lat="42.361592000" lon="-2.479107000">
        <ele>502.00</ele>
        <time>2014-11-01T08:14:56Z</time>
      </trkpt>
      <trkpt lat="42.361594000" lon="-2.479109000">
        <ele>502.00</ele>
        <time>2014-11-01T08:14:57Z</time>
      </trkpt>
      <trkpt lat="42.361594000" lon="-2.479105000">
        <ele>501.80</ele>
        <time>2014-11-01T08:14:58Z</time>
      </trkpt>
      <trkpt lat="42.361597000" lon="-2.479104000">
        <ele>501.70</ele>
        <time>2014-11-01T08:14:59Z</time>
      </trkpt>
      <trkpt lat="42.361599000" lon="-2.479102000">
        <ele>501.60</ele>
        <time>2014-11-01T08:15:00Z</time>
      </trkpt>
      <trkpt lat="42.361598000" lon="-2.479099000">
        <ele>501.50</ele>
        <time>2014-11-01T08:15:01Z</time>
      </trkpt>
      <trkpt lat="42.361598000" lon="-2.479099000">
        <ele>501.50</ele>
        <time>2014-11-01T08:15:02Z</time>
      </trkpt>
      <trkpt lat="42.361599000" lon="-2.479096000">
        <ele>501.50</ele>
        <time>2014-11-01T08:15:03Z</time>
      </trkpt>
      <trkpt lat="42.361600000" lon="-2.479095000">
        <ele>501.60</ele>
        <time>2014-11-01T08:15:04Z</time>
      </trkpt>
      <trkpt lat="42.361603000" lon="-2.479094000">
        <ele>501.70</ele>
        <time>2014-11-01T08:15:05Z</time>
      </trkpt>
      <trkpt lat="42.361604000" lon="-2.479092000">
        <ele>501.80</ele>
        <time>2014-11-01T08:15:06Z</time>
      </trkpt>
      <trkpt lat="42.361607000" lon="-2.479093000">
        <ele>501.90</ele>
        <time>2014-11-01T08:15:07Z</time>
      </trkpt>
      <trkpt lat="42.361605000" lon="-2.479093000">
        <ele>501.90</ele>
        <time>2014-11-01T08:15:08Z</time>
      </trkpt>
      <trkpt lat="42.361603000" lon="-2.479095000">
        <ele>501.90</ele>
        <time>2014-11-01T08:15:09Z</time>
      </trkpt>
      <trkpt lat="42.361602000" lon="-2.479096000">
        <ele>502.00</ele>
        <time>2014-11-01T08:15:10Z</time>
      </trkpt>
      <trkpt lat="42.361600000" lon="-2.479098000">
        <ele>502.00</ele>
        <time>2014-11-01T08:15:11Z</time>
      </trkpt>
      <trkpt lat="42.361601000" lon="-2.479098000">
        <ele>501.80</ele>
        <time>2014-11-01T08:15:12Z</time>
      </trkpt>
      <trkpt lat="42.361597000" lon="-2.479099000">
        <ele>501.70</ele>
        <time>2014-11-01T08:15:13Z</time>
      </trkpt>
      <trkpt lat="42.361594000" lon="-2.479097000">
        <ele>501.60</ele>
        <time>2014-11-01T08:15:14Z</time>
      </trkpt>
      <trkpt lat="42.361593000" lon="-2.479097000">
        <ele>501.50</ele>
        <time>2014-11-01T08:15:15Z</time>
      </trkpt>
      <trkpt lat="42.361593000" lon="-2.479097000">
        <ele>501.50</ele>
        <time>2014-11-01T08:15:16Z</time>
      </trkpt>
      <trkpt lat="42.361593000" lon="-2.479100000">
        <ele>501.50</ele>
        <time>2014-11-01T08:15:17Z</time>
      </trkpt>
      <trkpt lat="42.361593000" lon="-2.479102000">
        <ele>501.60</ele>
        <time>2014-11-01T08:15:18Z</time>
      </trkpt>
      <trkpt lat="42.361594000" lon="-2.479102000">
        <ele>501.70</ele>
        <time>2014-11-01T08:15:19Z</time>
      </trkpt>
      <trkpt lat="42.361594000" lon="-2.479102000">
        <ele>501.70</ele>
        <time>2014-11-01T08:15:20Z</time>
      </trkpt>
      <trkpt lat="42.361594000" lon="-2.479100000">
        <ele>501.60</ele>
        <time>2014-11-01T08:15:21Z</time>
      </trkpt>
      <trkpt lat="42.361595000" lon="-2.479100000">
        <ele>501.70</ele>
        <time>2014-11-01T08:15:22Z</time>
      </trkpt>
      <trkpt lat="42.361594000" lon="-2.479099000">
        <ele>501.70</ele>
        <time>2014-11-01T08:15:23Z</time>
      </trkpt>
      <trkpt lat="42.361594000" lon="-2.479100000">
        <ele>501.60</ele>
        <time>2014-11-01T08:15:24Z</time>
      </trkpt>
      <trkpt lat="42.361595000" lon="-2.479103000">
        <ele>501.50</ele>
        <time>2014-11-01T08:15:25Z</time>
      </trkpt>
      <trkpt lat="42.361595000" lon="-2.479107000">
        <ele>501.60</ele>
        <time>2014-11-01T08:15:26Z</time>
      </trkpt>
      <trkpt lat="42.361594000" lon="-2.479106000">
        <ele>501.60</ele>
        <time>2014-11-01T08:15:27Z</time>
      </trkpt>
      <trkpt lat="42.361592000" lon="-2.479106000">
        <ele>501.70</ele>
        <time>2014-11-01T08:15:28Z</time>
      </trkpt>
      <trkpt lat="42.361592000" lon="-2.479107000">
        <ele>501.80</ele>
        <time>2014-11-01T08:15:29Z</time>
      </trkpt>
      <trkpt lat="42.361589000" lon="-2.479107000">
        <ele>501.90</ele>
        <time>2014-11-01T08:15:30Z</time>
      </trkpt>
      <trkpt lat="42.361590000" lon="-2.479105000">
        <ele>501.90</ele>
        <time>2014-11-01T08:15:31Z</time>
      </trkpt>
      <trkpt lat="42.361594000" lon="-2.479103000">
        <ele>501.90</ele>
        <time>2014-11-01T08:15:32Z</time>
      </trkpt>
      <trkpt lat="42.361594000" lon="-2.479099000">
        <ele>502.00</ele>
        <time>2014-11-01T08:15:33Z</time>
      </trkpt>
      <trkpt lat="42.361592000" lon="-2.479096000">
        <ele>501.80</ele>
        <time>2014-11-01T08:15:34Z</time>
      </trkpt>
      <trkpt lat="42.361591000" lon="-2.479092000">
        <ele>501.70</ele>
        <time>2014-11-01T08:15:35Z</time>
      </trkpt>
      <trkpt lat="42.361591000" lon="-2.479088000">
        <ele>501.60</ele>
        <time>2014-11-01T08:15:36Z</time>
      </trkpt>
      <trkpt lat="42.361591000" lon="-2.479088000">
        <ele>501.50</ele>
        <time>2014-11-01T08:15:37Z</time>
      </trkpt>
      <trkpt lat="42.361589000" lon="-2.479086000">
        <ele>501.40</ele>
        <time>2014-11-01T08:15:39Z</time>
      </trkpt>
      <trkpt lat="42.361587000" lon="-2.479086000">
        <ele>501.40</ele>
        <time>2014-11-01T08:15:40Z</time>
      </trkpt>
      <trkpt lat="42.361586000" lon="-2.479087000">
        <ele>501.30</ele>
        <time>2014-11-01T08:15:41Z</time>
      </trkpt>
      <trkpt lat="42.361583000" lon="-2.479090000">
        <ele>501.30</ele>
        <time>2014-11-01T08:15:42Z</time>
      </trkpt>
      <trkpt lat="42.361583000" lon="-2.479091000">
        <ele>501.30</ele>
        <time>2014-11-01T08:15:43Z</time>
      </trkpt>
      <trkpt lat="42.361583000" lon="-2.479092000">
        <ele>501.30</ele>
        <time>2014-11-01T08:15:44Z</time>
      </trkpt>
      <trkpt lat="42.361581000" lon="-2.479091000">
        <ele>501.30</ele>
        <time>2014-11-01T08:15:45Z</time>
      </trkpt>
      <trkpt lat="42.361582000" lon="-2.479089000">
        <ele>501.30</ele>
        <time>2014-11-01T08:15:46Z</time>
      </trkpt>
      <trkpt lat="42.361583000" lon="-2.479088000">
        <ele>501.30</ele>
        <time>2014-11-01T08:15:47Z</time>
      </trkpt>
      <trkpt lat="42.361582000" lon="-2.479087000">
        <ele>501.40</ele>
        <time>2014-11-01T08:15:48Z</time>
      </trkpt>
      <trkpt lat="42.361583000" lon="-2.479087000">
        <ele>501.50</ele>
        <time>2014-11-01T08:15:49Z</time>
      </trkpt>
      <trkpt lat="42.361583000" lon="-2.479086000">
        <ele>501.50</ele>
        <time>2014-11-01T08:15:50Z</time>
      </trkpt>
      <trkpt lat="42.361584000" lon="-2.479088000">
        <ele>501.60</ele>
        <time>2014-11-01T08:15:51Z</time>
      </trkpt>
      <trkpt lat="42.361583000" lon="-2.479088000">
        <ele>501.60</ele>
        <time>2014-11-01T08:15:52Z</time>
      </trkpt>
      <trkpt lat="42.361580000" lon="-2.479087000">
        <ele>501.70</ele>
        <time>2014-11-01T08:15:53Z</time>
      </trkpt>
      <trkpt lat="42.361578000" lon="-2.479088000">
        <ele>501.60</ele>
        <time>2014-11-01T08:15:54Z</time>
      </trkpt>
      <trkpt lat="42.361575000" lon="-2.479089000">
        <ele>501.60</ele>
        <time>2014-11-01T08:15:55Z</time>
      </trkpt>
      <trkpt lat="42.361573000" lon="-2.479094000">
        <ele>501.60</ele>
        <time>2014-11-01T08:15:56Z</time>
      </trkpt>
      <trkpt lat="42.361571000" lon="-2.479097000">
        <ele>501.60</ele>
        <time>2014-11-01T08:15:57Z</time>
      </trkpt>
      <trkpt lat="42.361570000" lon="-2.479099000">
        <ele>501.60</ele>
        <time>2014-11-01T08:15:58Z</time>
      </trkpt>
      <trkpt lat="42.361570000" lon="-2.479097000">
        <ele>501.50</ele>
        <time>2014-11-01T08:15:59Z</time>
      </trkpt>
      <trkpt lat="42.361573000" lon="-2.479098000">
        <ele>501.50</ele>
        <time>2014-11-01T08:16:00Z</time>
      </trkpt>
      <trkpt lat="42.361574000" lon="-2.479099000">
        <ele>501.50</ele>
        <time>2014-11-01T08:16:01Z</time>
      </trkpt>
      <trkpt lat="42.361574000" lon="-2.479100000">
        <ele>501.50</ele>
        <time>2014-11-01T08:16:02Z</time>
      </trkpt>
      <trkpt lat="42.361576000" lon="-2.479100000">
        <ele>501.50</ele>
        <time>2014-11-01T08:16:03Z</time>
      </trkpt>
      <trkpt lat="42.361577000" lon="-2.479100000">
        <ele>501.50</ele>
        <time>2014-11-01T08:16:04Z</time>
      </trkpt>
      <trkpt lat="42.361578000" lon="-2.479095000">
        <ele>501.50</ele>
        <time>2014-11-01T08:16:05Z</time>
      </trkpt>
      <trkpt lat="42.361578000" lon="-2.479089000">
        <ele>501.30</ele>
        <time>2014-11-01T08:16:06Z</time>
      </trkpt>
      <trkpt lat="42.361581000" lon="-2.479087000">
        <ele>501.30</ele>
        <time>2014-11-01T08:16:07Z</time>
      </trkpt>
      <trkpt lat="42.361583000" lon="-2.479085000">
        <ele>501.20</ele>
        <time>2014-11-01T08:16:08Z</time>
      </trkpt>
      <trkpt lat="42.361584000" lon="-2.479085000">
        <ele>501.10</ele>
        <time>2014-11-01T08:16:09Z</time>
      </trkpt>
      <trkpt lat="42.361585000" lon="-2.479086000">
        <ele>501.20</ele>
        <time>2014-11-01T08:16:10Z</time>
      </trkpt>
      <trkpt lat="42.361586000" lon="-2.479084000">
        <ele>501.30</ele>
        <time>2014-11-01T08:16:11Z</time>
      </trkpt>
      <trkpt lat="42.361591000" lon="-2.479079000">
        <ele>501.30</ele>
        <time>2014-11-01T08:16:12Z</time>
      </trkpt>
      <trkpt lat="42.361600000" lon="-2.479069000">
        <ele>501.30</ele>
        <time>2014-11-01T08:16:13Z</time>
      </trkpt>
      <trkpt lat="42.361609000" lon="-2.479069000">
        <ele>501.30</ele>
        <time>2014-11-01T08:16:14Z</time>
      </trkpt>
      <trkpt lat="42.361616000" lon="-2.479074000">
        <ele>501.30</ele>
        <time>2014-11-01T08:16:15Z</time>
      </trkpt>
      <trkpt lat="42.361623000" lon="-2.479086000">
        <ele>501.30</ele>
        <time>2014-11-01T08:16:16Z</time>
      </trkpt>
      <trkpt lat="42.361625000" lon="-2.479096000">
        <ele>501.30</ele>
        <time>2014-11-01T08:16:17Z</time>
      </trkpt>
      <trkpt lat="42.361626000" lon="-2.479108000">
        <ele>501.30</ele>
        <time>2014-11-01T08:16:18Z</time>
      </trkpt>
      <trkpt lat="42.361624000" lon="-2.479115000">
        <ele>501.30</ele>
        <time>2014-11-01T08:16:19Z</time>
      </trkpt>
      <trkpt lat="42.361624000" lon="-2.479125000">
        <ele>501.30</ele>
        <time>2014-11-01T08:16:20Z</time>
      </trkpt>
      <trkpt lat="42.361622000" lon="-2.479126000">
        <ele>501.30</ele>
        <time>2014-11-01T08:16:21Z</time>
      </trkpt>
      <trkpt lat="42.361624000" lon="-2.479130000">
        <ele>501.40</ele>
        <time>2014-11-01T08:16:22Z</time>
      </trkpt>
      <trkpt lat="42.361625000" lon="-2.479133000">
        <ele>501.40</ele>
        <time>2014-11-01T08:16:23Z</time>
      </trkpt>
      <trkpt lat="42.361628000" lon="-2.479133000">
        <ele>501.50</ele>
        <time>2014-11-01T08:16:24Z</time>
      </trkpt>
      <trkpt lat="42.361634000" lon="-2.479133000">
        <ele>501.60</ele>
        <time>2014-11-01T08:16:25Z</time>
      </trkpt>
      <trkpt lat="42.361634000" lon="-2.479131000">
        <ele>501.60</ele>
        <time>2014-11-01T08:16:26Z</time>
      </trkpt>
      <trkpt lat="42.361632000" lon="-2.479134000">
        <ele>501.50</ele>
        <time>2014-11-01T08:16:27Z</time>
      </trkpt>
      <trkpt lat="42.361629000" lon="-2.479136000">
        <ele>501.60</ele>
        <time>2014-11-01T08:16:28Z</time>
      </trkpt>
      <trkpt lat="42.361632000" lon="-2.479147000">
        <ele>501.70</ele>
        <time>2014-11-01T08:16:29Z</time>
      </trkpt>
      <trkpt lat="42.361630000" lon="-2.479159000">
        <ele>501.80</ele>
        <time>2014-11-01T08:16:30Z</time>
      </trkpt>
      <trkpt lat="42.361628000" lon="-2.479178000">
        <ele>501.80</ele>
        <time>2014-11-01T08:16:31Z</time>
      </trkpt>
      <trkpt lat="42.361624000" lon="-2.479192000">
        <ele>501.90</ele>
        <time>2014-11-01T08:16:32Z</time>
      </trkpt>
      <trkpt lat="42.361616000" lon="-2.479208000">
        <ele>501.90</ele>
        <time>2014-11-01T08:16:33Z</time>
      </trkpt>
      <trkpt lat="42.361606000" lon="-2.479222000">
        <ele>501.80</ele>
        <time>2014-11-01T08:16:34Z</time>
      </trkpt>
      <trkpt lat="42.361597000" lon="-2.479237000">
        <ele>501.70</ele>
        <time>2014-11-01T08:16:35Z</time>
      </trkpt>
      <trkpt lat="42.361582000" lon="-2.479250000">
        <ele>501.60</ele>
        <time>2014-11-01T08:16:36Z</time>
      </trkpt>
      <trkpt lat="42.361567000" lon="-2.479265000">
        <ele>501.60</ele>
        <time>2014-11-01T08:16:37Z</time>
      </trkpt>
      <trkpt lat="42.361551000" lon="-2.479280000">
        <ele>501.90</ele>
        <time>2014-11-01T08:16:38Z</time>
      </trkpt>
      <trkpt lat="42.361524000" lon="-2.479318000">
        <ele>502.30</ele>
        <time>2014-11-01T08:16:40Z</time>
      </trkpt>
      <trkpt lat="42.361510000" lon="-2.479326000">
        <ele>502.50</ele>
        <time>2014-11-01T08:16:41Z</time>
      </trkpt>
      <trkpt lat="42.361500000" lon="-2.479331000">
        <ele>502.60</ele>
        <time>2014-11-01T08:16:42Z</time>
      </trkpt>
      <trkpt lat="42.361489000" lon="-2.479343000">
        <ele>502.70</ele>
        <time>2014-11-01T08:16:43Z</time>
      </trkpt>
      <trkpt lat="42.361473000" lon="-2.479352000">
        <ele>502.80</ele>
        <time>2014-11-01T08:16:44Z</time>
      </trkpt>
      <trkpt lat="42.361458000" lon="-2.479367000">
        <ele>502.80</ele>
        <time>2014-11-01T08:16:45Z</time>
      </trkpt>
      <trkpt lat="42.361442000" lon="-2.479374000">
        <ele>502.70</ele>
        <time>2014-11-01T08:16:46Z</time>
      </trkpt>
      <trkpt lat="42.361426000" lon="-2.479392000">
        <ele>502.70</ele>
        <time>2014-11-01T08:16:47Z</time>
      </trkpt>
      <trkpt lat="42.361409000" lon="-2.479407000">
        <ele>502.90</ele>
        <time>2014-11-01T08:16:48Z</time>
      </trkpt>
      <trkpt lat="42.361396000" lon="-2.479420000">
        <ele>503.00</ele>
        <time>2014-11-01T08:16:49Z</time>
      </trkpt>
      <trkpt lat="42.361381000" lon="-2.479432000">
        <ele>503.20</ele>
        <time>2014-11-01T08:16:50Z</time>
      </trkpt>
      <trkpt lat="42.361367000" lon="-2.479446000">
        <ele>503.20</ele>
        <time>2014-11-01T08:16:51Z</time>
      </trkpt>
      <trkpt lat="42.361344000" lon="-2.479454000">
        <ele>503.40</ele>
        <time>2014-11-01T08:16:52Z</time>
      </trkpt>
      <trkpt lat="42.361322000" lon="-2.479472000">
        <ele>503.60</ele>
        <time>2014-11-01T08:16:53Z</time>
      </trkpt>
      <trkpt lat="42.361301000" lon="-2.479492000">
        <ele>503.70</ele>
        <time>2014-11-01T08:16:54Z</time>
      </trkpt>
      <trkpt lat="42.361281000" lon="-2.479511000">
        <ele>503.80</ele>
        <time>2014-11-01T08:16:55Z</time>
      </trkpt>
      <trkpt lat="42.361258000" lon="-2.479530000">
        <ele>504.00</ele>
        <time>2014-11-01T08:16:56Z</time>
      </trkpt>
      <trkpt lat="42.361240000" lon="-2.479549000">
        <ele>504.20</ele>
        <time>2014-11-01T08:16:57Z</time>
      </trkpt>
      <trkpt lat="42.361220000" lon="-2.479566000">
        <ele>504.40</ele>
        <time>2014-11-01T08:16:58Z</time>
      </trkpt>
      <trkpt lat="42.361200000" lon="-2.479583000">
        <ele>504.50</ele>
        <time>2014-11-01T08:16:59Z</time>
      </trkpt>
      <trkpt lat="42.361184000" lon="-2.479605000">
        <ele>504.80</ele>
        <time>2014-11-01T08:17:00Z</time>
      </trkpt>
      <trkpt lat="42.361167000" lon="-2.479620000">
        <ele>505.00</ele>
        <time>2014-11-01T08:17:01Z</time>
      </trkpt>
      <trkpt lat="42.361146000" lon="-2.479640000">
        <ele>505.20</ele>
        <time>2014-11-01T08:17:02Z</time>
      </trkpt>
      <trkpt lat="42.361128000" lon="-2.479659000">
        <ele>505.50</ele>
        <time>2014-11-01T08:17:03Z</time>
      </trkpt>
      <trkpt lat="42.361107000" lon="-2.479675000">
        <ele>505.60</ele>
        <time>2014-11-01T08:17:04Z</time>
      </trkpt>
      <trkpt lat="42.361087000" lon="-2.479691000">
        <ele>505.60</ele>
        <time>2014-11-01T08:17:05Z</time>
      </trkpt>
      <trkpt lat="42.361072000" lon="-2.479711000">
        <ele>505.70</ele>
        <time>2014-11-01T08:17:06Z</time>
      </trkpt>
      <trkpt lat="42.361056000" lon="-2.479734000">
        <ele>505.80</ele>
        <time>2014-11-01T08:17:07Z</time>
      </trkpt>
      <trkpt lat="42.361031000" lon="-2.479754000">
        <ele>505.90</ele>
        <time>2014-11-01T08:17:08Z</time>
      </trkpt>
      <trkpt lat="42.361010000" lon="-2.479773000">
        <ele>506.00</ele>
        <time>2014-11-01T08:17:09Z</time>
      </trkpt>
      <trkpt lat="42.360990000" lon="-2.479790000">
        <ele>506.20</ele>
        <time>2014-11-01T08:17:10Z</time>
      </trkpt>
      <trkpt lat="42.360970000" lon="-2.479808000">
        <ele>506.50</ele>
        <time>2014-11-01T08:17:11Z</time>
      </trkpt>
      <trkpt lat="42.360949000" lon="-2.479826000">
        <ele>506.70</ele>
        <time>2014-11-01T08:17:12Z</time>
      </trkpt>
      <trkpt lat="42.360927000" lon="-2.479846000">
        <ele>507.00</ele>
        <time>2014-11-01T08:17:13Z</time>
      </trkpt>
      <trkpt lat="42.360903000" lon="-2.479861000">
        <ele>507.20</ele>
        <time>2014-11-01T08:17:14Z</time>
      </trkpt>
      <trkpt lat="42.360879000" lon="-2.479878000">
        <ele>507.30</ele>
        <time>2014-11-01T08:17:15Z</time>
      </trkpt>
      <trkpt lat="42.360857000" lon="-2.479890000">
        <ele>507.50</ele>
        <time>2014-11-01T08:17:16Z</time>
      </trkpt>
      <trkpt lat="42.360836000" lon="-2.479904000">
        <ele>507.70</ele>
        <time>2014-11-01T08:17:17Z</time>
      </trkpt>
      <trkpt lat="42.360813000" lon="-2.479918000">
        <ele>507.80</ele>
        <time>2014-11-01T08:17:18Z</time>
      </trkpt>
      <trkpt lat="42.360789000" lon="-2.479936000">
        <ele>508.00</ele>
        <time>2014-11-01T08:17:19Z</time>
      </trkpt>
      <trkpt lat="42.360762000" lon="-2.479952000">
        <ele>508.20</ele>
        <time>2014-11-01T08:17:20Z</time>
      </trkpt>
      <trkpt lat="42.360737000" lon="-2.479966000">
        <ele>508.40</ele>
        <time>2014-11-01T08:17:21Z</time>
      </trkpt>
      <trkpt lat="42.360712000" lon="-2.479986000">
        <ele>508.50</ele>
        <time>2014-11-01T08:17:22Z</time>
      </trkpt>
      <trkpt lat="42.360690000" lon="-2.480007000">
        <ele>508.60</ele>
        <time>2014-11-01T08:17:23Z</time>
      </trkpt>
      <trkpt lat="42.360669000" lon="-2.480025000">
        <ele>508.60</ele>
        <time>2014-11-01T08:17:24Z</time>
      </trkpt>
      <trkpt lat="42.360648000" lon="-2.480047000">
        <ele>508.60</ele>
        <time>2014-11-01T08:17:25Z</time>
      </trkpt>
      <trkpt lat="42.360627000" lon="-2.480067000">
        <ele>508.60</ele>
        <time>2014-11-01T08:17:26Z</time>
      </trkpt>
      <trkpt lat="42.360606000" lon="-2.480088000">
        <ele>508.60</ele>
        <time>2014-11-01T08:17:27Z</time>
      </trkpt>
      <trkpt lat="42.360583000" lon="-2.480104000">
        <ele>508.60</ele>
        <time>2014-11-01T08:17:28Z</time>
      </trkpt>
      <trkpt lat="42.360560000" lon="-2.480124000">
        <ele>508.60</ele>
        <time>2014-11-01T08:17:29Z</time>
      </trkpt>
      <trkpt lat="42.360537000" lon="-2.480143000">
        <ele>508.90</ele>
        <time>2014-11-01T08:17:30Z</time>
      </trkpt>
      <trkpt lat="42.360512000" lon="-2.480164000">
        <ele>509.20</ele>
        <time>2014-11-01T08:17:31Z</time>
      </trkpt>
      <trkpt lat="42.360488000" lon="-2.480185000">
        <ele>509.40</ele>
        <time>2014-11-01T08:17:32Z</time>
      </trkpt>
      <trkpt lat="42.360465000" lon="-2.480201000">
        <ele>509.60</ele>
        <time>2014-11-01T08:17:33Z</time>
      </trkpt>
      <trkpt lat="42.360442000" lon="-2.480219000">
        <ele>509.80</ele>
        <time>2014-11-01T08:17:34Z</time>
      </trkpt>
      <trkpt lat="42.360419000" lon="-2.480233000">
        <ele>509.90</ele>
        <time>2014-11-01T08:17:35Z</time>
      </trkpt>
      <trkpt lat="42.360393000" lon="-2.480248000">
        <ele>509.80</ele>
        <time>2014-11-01T08:17:36Z</time>
      </trkpt>
      <trkpt lat="42.360368000" lon="-2.480261000">
        <ele>509.80</ele>
        <time>2014-11-01T08:17:37Z</time>
      </trkpt>
      <trkpt lat="42.360346000" lon="-2.480274000">
        <ele>509.70</ele>
        <time>2014-11-01T08:17:38Z</time>
      </trkpt>
      <trkpt lat="42.360321000" lon="-2.480287000">
        <ele>509.70</ele>
        <time>2014-11-01T08:17:39Z</time>
      </trkpt>
      <trkpt lat="42.360269000" lon="-2.480321000">
        <ele>509.70</ele>
        <time>2014-11-01T08:17:41Z</time>
      </trkpt>
      <trkpt lat="42.360241000" lon="-2.480336000">
        <ele>509.70</ele>
        <time>2014-11-01T08:17:42Z</time>
      </trkpt>
      <trkpt lat="42.360213000" lon="-2.480352000">
        <ele>509.70</ele>
        <time>2014-11-01T08:17:43Z</time>
      </trkpt>
      <trkpt lat="42.360186000" lon="-2.480368000">
        <ele>509.80</ele>
        <time>2014-11-01T08:17:44Z</time>
      </trkpt>
      <trkpt lat="42.360161000" lon="-2.480388000">
        <ele>509.90</ele>
        <time>2014-11-01T08:17:45Z</time>
      </trkpt>
      <trkpt lat="42.360137000" lon="-2.480403000">
        <ele>510.00</ele>
        <time>2014-11-01T08:17:46Z</time>
      </trkpt>
      <trkpt lat="42.360112000" lon="-2.480421000">
        <ele>510.00</ele>
        <time>2014-11-01T08:17:47Z</time>
      </trkpt>
      <trkpt lat="42.360087000" lon="-2.480436000">
        <ele>510.10</ele>
        <time>2014-11-01T08:17:48Z</time>
      </trkpt>
      <trkpt lat="42.360062000" lon="-2.480449000">
        <ele>510.10</ele>
        <time>2014-11-01T08:17:49Z</time>
      </trkpt>
      <trkpt lat="42.360032000" lon="-2.480458000">
        <ele>510.10</ele>
        <time>2014-11-01T08:17:50Z</time>
      </trkpt>
      <trkpt lat="42.360002000" lon="-2.480470000">
        <ele>510.10</ele>
        <time>2014-11-01T08:17:51Z</time>
      </trkpt>
      <trkpt lat="42.359971000" lon="-2.480483000">
        <ele>510.10</ele>
        <time>2014-11-01T08:17:52Z</time>
      </trkpt>
      <trkpt lat="42.359939000" lon="-2.480496000">
        <ele>510.10</ele>
        <time>2014-11-01T08:17:53Z</time>
      </trkpt>
      <trkpt lat="42.359906000" lon="-2.480506000">
        <ele>510.10</ele>
        <time>2014-11-01T08:17:54Z</time>
      </trkpt>
      <trkpt lat="42.359875000" lon="-2.480515000">
        <ele>510.20</ele>
        <time>2014-11-01T08:17:55Z</time>
      </trkpt>
      <trkpt lat="42.359843000" lon="-2.480532000">
        <ele>510.20</ele>
        <time>2014-11-01T08:17:56Z</time>
      </trkpt>
      <trkpt lat="42.359811000" lon="-2.480547000">
        <ele>510.20</ele>
        <time>2014-11-01T08:17:57Z</time>
      </trkpt>
      <trkpt lat="42.359780000" lon="-2.480563000">
        <ele>510.20</ele>
        <time>2014-11-01T08:17:58Z</time>
      </trkpt>
      <trkpt lat="42.359749000" lon="-2.480577000">
        <ele>510.20</ele>
        <time>2014-11-01T08:17:59Z</time>
      </trkpt>
      <trkpt lat="42.359716000" lon="-2.480593000">
        <ele>510.20</ele>
        <time>2014-11-01T08:18:00Z</time>
      </trkpt>
      <trkpt lat="42.359684000" lon="-2.480611000">
        <ele>510.30</ele>
        <time>2014-11-01T08:18:01Z</time>
      </trkpt>
      <trkpt lat="42.359653000" lon="-2.480628000">
        <ele>510.30</ele>
        <time>2014-11-01T08:18:02Z</time>
      </trkpt>
      <trkpt lat="42.359624000" lon="-2.480643000">
        <ele>510.20</ele>
        <time>2014-11-01T08:18:03Z</time>
      </trkpt>
      <trkpt lat="42.359594000" lon="-2.480657000">
        <ele>510.30</ele>
        <time>2014-11-01T08:18:04Z</time>
      </trkpt>
      <trkpt lat="42.359563000" lon="-2.480675000">
        <ele>510.30</ele>
        <time>2014-11-01T08:18:05Z</time>
      </trkpt>
      <trkpt lat="42.359531000" lon="-2.480698000">
        <ele>510.40</ele>
        <time>2014-11-01T08:18:06Z</time>
      </trkpt>
      <trkpt lat="42.359501000" lon="-2.480718000">
        <ele>510.50</ele>
        <time>2014-11-01T08:18:07Z</time>
      </trkpt>
      <trkpt lat="42.359470000" lon="-2.480738000">
        <ele>510.70</ele>
        <time>2014-11-01T08:18:08Z</time>
      </trkpt>
      <trkpt lat="42.359441000" lon="-2.480761000">
        <ele>510.80</ele>
        <time>2014-11-01T08:18:09Z</time>
      </trkpt>
      <trkpt lat="42.359411000" lon="-2.480786000">
        <ele>510.90</ele>
        <time>2014-11-01T08:18:10Z</time>
      </trkpt>
      <trkpt lat="42.359382000" lon="-2.480813000">
        <ele>511.00</ele>
        <time>2014-11-01T08:18:11Z</time>
      </trkpt>
      <trkpt lat="42.359353000" lon="-2.480840000">
        <ele>511.00</ele>
        <time>2014-11-01T08:18:12Z</time>
      </trkpt>
      <trkpt lat="42.359324000" lon="-2.480865000">
        <ele>511.10</ele>
        <time>2014-11-01T08:18:13Z</time>
      </trkpt>
      <trkpt lat="42.359295000" lon="-2.480892000">
        <ele>511.10</ele>
        <time>2014-11-01T08:18:14Z</time>
      </trkpt>
      <trkpt lat="42.359269000" lon="-2.480918000">
        <ele>511.10</ele>
        <time>2014-11-01T08:18:15Z</time>
      </trkpt>
      <trkpt lat="42.359241000" lon="-2.480945000">
        <ele>511.30</ele>
        <time>2014-11-01T08:18:16Z</time>
      </trkpt>
      <trkpt lat="42.359214000" lon="-2.480969000">
        <ele>511.40</ele>
        <time>2014-11-01T08:18:17Z</time>
      </trkpt>
      <trkpt lat="42.359185000" lon="-2.480992000">
        <ele>511.50</ele>
        <time>2014-11-01T08:18:18Z</time>
      </trkpt>
      <trkpt lat="42.359153000" lon="-2.481016000">
        <ele>511.50</ele>
        <time>2014-11-01T08:18:19Z</time>
      </trkpt>
      <trkpt lat="42.359125000" lon="-2.481041000">
        <ele>511.70</ele>
        <time>2014-11-01T08:18:20Z</time>
      </trkpt>
      <trkpt lat="42.359094000" lon="-2.481068000">
        <ele>511.70</ele>
        <time>2014-11-01T08:18:21Z</time>
      </trkpt>
      <trkpt lat="42.359065000" lon="-2.481091000">
        <ele>511.90</ele>
        <time>2014-11-01T08:18:22Z</time>
      </trkpt>
      <trkpt lat="42.359032000" lon="-2.481109000">
        <ele>512.00</ele>
        <time>2014-11-01T08:18:23Z</time>
      </trkpt>
      <trkpt lat="42.359001000" lon="-2.481127000">
        <ele>512.10</ele>
        <time>2014-11-01T08:18:24Z</time>
      </trkpt>
      <trkpt lat="42.358969000" lon="-2.481147000">
        <ele>512.20</ele>
        <time>2014-11-01T08:18:25Z</time>
      </trkpt>
      <trkpt lat="42.358939000" lon="-2.481162000">
        <ele>512.30</ele>
        <time>2014-11-01T08:18:26Z</time>
      </trkpt>
      <trkpt lat="42.358909000" lon="-2.481174000">
        <ele>512.30</ele>
        <time>2014-11-01T08:18:27Z</time>
      </trkpt>
      <trkpt lat="42.358878000" lon="-2.481189000">
        <ele>512.40</ele>
        <time>2014-11-01T08:18:28Z</time>
      </trkpt>
      <trkpt lat="42.358849000" lon="-2.481205000">
        <ele>512.40</ele>
        <time>2014-11-01T08:18:29Z</time>
      </trkpt>
      <trkpt lat="42.358820000" lon="-2.481219000">
        <ele>512.40</ele>
        <time>2014-11-01T08:18:30Z</time>
      </trkpt>
      <trkpt lat="42.358790000" lon="-2.481231000">
        <ele>512.50</ele>
        <time>2014-11-01T08:18:31Z</time>
      </trkpt>
      <trkpt lat="42.358757000" lon="-2.481244000">
        <ele>512.50</ele>
        <time>2014-11-01T08:18:32Z</time>
      </trkpt>
      <trkpt lat="42.358726000" lon="-2.481255000">
        <ele>512.50</ele>
        <time>2014-11-01T08:18:33Z</time>
      </trkpt>
      <trkpt lat="42.358696000" lon="-2.481270000">
        <ele>512.50</ele>
        <time>2014-11-01T08:18:34Z</time>
      </trkpt>
      <trkpt lat="42.358667000" lon="-2.481285000">
        <ele>512.60</ele>
        <time>2014-11-01T08:18:35Z</time>
      </trkpt>
      <trkpt lat="42.358639000" lon="-2.481303000">
        <ele>512.50</ele>
        <time>2014-11-01T08:18:36Z</time>
      </trkpt>
      <trkpt lat="42.358611000" lon="-2.481328000">
        <ele>512.40</ele>
        <time>2014-11-01T08:18:37Z</time>
      </trkpt>
      <trkpt lat="42.358584000" lon="-2.481350000">
        <ele>512.50</ele>
        <time>2014-11-01T08:18:38Z</time>
      </trkpt>
      <trkpt lat="42.358555000" lon="-2.481371000">
        <ele>512.60</ele>
        <time>2014-11-01T08:18:39Z</time>
      </trkpt>
      <trkpt lat="42.358527000" lon="-2.481397000">
        <ele>512.50</ele>
        <time>2014-11-01T08:18:40Z</time>
      </trkpt>
      <trkpt lat="42.358470000" lon="-2.481443000">
        <ele>512.40</ele>
        <time>2014-11-01T08:18:42Z</time>
      </trkpt>
      <trkpt lat="42.358438000" lon="-2.481469000">
        <ele>512.40</ele>
        <time>2014-11-01T08:18:43Z</time>
      </trkpt>
      <trkpt lat="42.358407000" lon="-2.481484000">
        <ele>512.30</ele>
        <time>2014-11-01T08:18:44Z</time>
      </trkpt>
      <trkpt lat="42.358379000" lon="-2.481506000">
        <ele>512.30</ele>
        <time>2014-11-01T08:18:45Z</time>
      </trkpt>
      <trkpt lat="42.358350000" lon="-2.481528000">
        <ele>512.30</ele>
        <time>2014-11-01T08:18:46Z</time>
      </trkpt>
      <trkpt lat="42.358327000" lon="-2.481546000">
        <ele>512.30</ele>
        <time>2014-11-01T08:18:47Z</time>
      </trkpt>
      <trkpt lat="42.358300000" lon="-2.481568000">
        <ele>512.30</ele>
        <time>2014-11-01T08:18:48Z</time>
      </trkpt>
      <trkpt lat="42.358273000" lon="-2.481588000">
        <ele>512.30</ele>
        <time>2014-11-01T08:18:49Z</time>
      </trkpt>
      <trkpt lat="42.358243000" lon="-2.481607000">
        <ele>512.10</ele>
        <time>2014-11-01T08:18:50Z</time>
      </trkpt>
      <trkpt lat="42.358213000" lon="-2.481627000">
        <ele>512.00</ele>
        <time>2014-11-01T08:18:51Z</time>
      </trkpt>
      <trkpt lat="42.358187000" lon="-2.481648000">
        <ele>512.00</ele>
        <time>2014-11-01T08:18:52Z</time>
      </trkpt>
      <trkpt lat="42.358157000" lon="-2.481668000">
        <ele>511.90</ele>
        <time>2014-11-01T08:18:53Z</time>
      </trkpt>
      <trkpt lat="42.358129000" lon="-2.481686000">
        <ele>511.90</ele>
        <time>2014-11-01T08:18:54Z</time>
      </trkpt>
      <trkpt lat="42.358097000" lon="-2.481706000">
        <ele>511.80</ele>
        <time>2014-11-01T08:18:55Z</time>
      </trkpt>
      <trkpt lat="42.358069000" lon="-2.481726000">
        <ele>512.20</ele>
        <time>2014-11-01T08:18:56Z</time>
      </trkpt>
      <trkpt lat="42.358042000" lon="-2.481751000">
        <ele>512.50</ele>
        <time>2014-11-01T08:18:57Z</time>
      </trkpt>
      <trkpt lat="42.358012000" lon="-2.481772000">
        <ele>512.50</ele>
        <time>2014-11-01T08:18:58Z</time>
      </trkpt>
      <trkpt lat="42.357980000" lon="-2.481785000">
        <ele>512.50</ele>
        <time>2014-11-01T08:18:59Z</time>
      </trkpt>
      <trkpt lat="42.357945000" lon="-2.481791000">
        <ele>512.50</ele>
        <time>2014-11-01T08:19:00Z</time>
      </trkpt>
      <trkpt lat="42.357911000" lon="-2.481795000">
        <ele>512.50</ele>
        <time>2014-11-01T08:19:01Z</time>
      </trkpt>
      <trkpt lat="42.357878000" lon="-2.481790000">
        <ele>512.50</ele>
        <time>2014-11-01T08:19:02Z</time>
      </trkpt>
      <trkpt lat="42.357846000" lon="-2.481783000">
        <ele>512.50</ele>
        <time>2014-11-01T08:19:03Z</time>
      </trkpt>
      <trkpt lat="42.357816000" lon="-2.481776000">
        <ele>512.60</ele>
        <time>2014-11-01T08:19:04Z</time>
      </trkpt>
      <trkpt lat="42.357784000" lon="-2.481770000">
        <ele>512.60</ele>
        <time>2014-11-01T08:19:05Z</time>
      </trkpt>
      <trkpt lat="42.357750000" lon="-2.481765000">
        <ele>512.80</ele>
        <time>2014-11-01T08:19:06Z</time>
      </trkpt>
      <trkpt lat="42.357716000" lon="-2.481759000">
        <ele>513.00</ele>
        <time>2014-11-01T08:19:07Z</time>
      </trkpt>
      <trkpt lat="42.357681000" lon="-2.481753000">
        <ele>513.20</ele>
        <time>2014-11-01T08:19:08Z</time>
      </trkpt>
      <trkpt lat="42.357646000" lon="-2.481752000">
        <ele>513.30</ele>
        <time>2014-11-01T08:19:09Z</time>
      </trkpt>
      <trkpt lat="42.357611000" lon="-2.481751000">
        <ele>513.30</ele>
        <time>2014-11-01T08:19:10Z</time>
      </trkpt>
      <trkpt lat="42.357576000" lon="-2.481750000">
        <ele>513.40</ele>
        <time>2014-11-01T08:19:11Z</time>
      </trkpt>
      <trkpt lat="42.357540000" lon="-2.481747000">
        <ele>513.40</ele>
        <time>2014-11-01T08:19:12Z</time>
      </trkpt>
      <trkpt lat="42.357507000" lon="-2.481748000">
        <ele>513.30</ele>
        <time>2014-11-01T08:19:13Z</time>
      </trkpt>
      <trkpt lat="42.357472000" lon="-2.481746000">
        <ele>513.30</ele>
        <time>2014-11-01T08:19:14Z</time>
      </trkpt>
      <trkpt lat="42.357441000" lon="-2.481748000">
        <ele>513.20</ele>
        <time>2014-11-01T08:19:15Z</time>
      </trkpt>
      <trkpt lat="42.357406000" lon="-2.481750000">
        <ele>513.00</ele>
        <time>2014-11-01T08:19:16Z</time>
      </trkpt>
      <trkpt lat="42.357371000" lon="-2.481752000">
        <ele>512.90</ele>
        <time>2014-11-01T08:19:17Z</time>
      </trkpt>
      <trkpt lat="42.357336000" lon="-2.481752000">
        <ele>512.80</ele>
        <time>2014-11-01T08:19:18Z</time>
      </trkpt>
      <trkpt lat="42.357301000" lon="-2.481752000">
        <ele>512.70</ele>
        <time>2014-11-01T08:19:19Z</time>
      </trkpt>
      <trkpt lat="42.357266000" lon="-2.481753000">
        <ele>513.10</ele>
        <time>2014-11-01T08:19:20Z</time>
      </trkpt>
      <trkpt lat="42.357231000" lon="-2.481759000">
        <ele>513.40</ele>
        <time>2014-11-01T08:19:21Z</time>
      </trkpt>
      <trkpt lat="42.357193000" lon="-2.481769000">
        <ele>513.70</ele>
        <time>2014-11-01T08:19:22Z</time>
      </trkpt>
      <trkpt lat="42.357157000" lon="-2.481776000">
        <ele>513.90</ele>
        <time>2014-11-01T08:19:23Z</time>
      </trkpt>
      <trkpt lat="42.357122000" lon="-2.481785000">
        <ele>514.10</ele>
        <time>2014-11-01T08:19:24Z</time>
      </trkpt>
      <trkpt lat="42.357084000" lon="-2.481790000">
        <ele>514.20</ele>
        <time>2014-11-01T08:19:25Z</time>
      </trkpt>
      <trkpt lat="42.357046000" lon="-2.481793000">
        <ele>514.40</ele>
        <time>2014-11-01T08:19:26Z</time>
      </trkpt>
      <trkpt lat="42.357008000" lon="-2.481796000">
        <ele>514.50</ele>
        <time>2014-11-01T08:19:27Z</time>
      </trkpt>
      <trkpt lat="42.356970000" lon="-2.481802000">
        <ele>514.50</ele>
        <time>2014-11-01T08:19:28Z</time>
      </trkpt>
      <trkpt lat="42.356931000" lon="-2.481805000">
        <ele>514.50</ele>
        <time>2014-11-01T08:19:29Z</time>
      </trkpt>
      <trkpt lat="42.356892000" lon="-2.481807000">
        <ele>514.50</ele>
        <time>2014-11-01T08:19:30Z</time>
      </trkpt>
      <trkpt lat="42.356855000" lon="-2.481811000">
        <ele>514.60</ele>
        <time>2014-11-01T08:19:31Z</time>
      </trkpt>
      <trkpt lat="42.356818000" lon="-2.481815000">
        <ele>514.60</ele>
        <time>2014-11-01T08:19:32Z</time>
      </trkpt>
      <trkpt lat="42.356781000" lon="-2.481819000">
        <ele>514.60</ele>
        <time>2014-11-01T08:19:33Z</time>
      </trkpt>
      <trkpt lat="42.356743000" lon="-2.481824000">
        <ele>514.60</ele>
        <time>2014-11-01T08:19:34Z</time>
      </trkpt>
      <trkpt lat="42.356707000" lon="-2.481831000">
        <ele>514.60</ele>
        <time>2014-11-01T08:19:35Z</time>
      </trkpt>
      <trkpt lat="42.356671000" lon="-2.481835000">
        <ele>514.50</ele>
        <time>2014-11-01T08:19:36Z</time>
      </trkpt>
      <trkpt lat="42.356634000" lon="-2.481846000">
        <ele>514.50</ele>
        <time>2014-11-01T08:19:37Z</time>
      </trkpt>
      <trkpt lat="42.356597000" lon="-2.481854000">
        <ele>514.40</ele>
        <time>2014-11-01T08:19:38Z</time>
      </trkpt>
      <trkpt lat="42.356561000" lon="-2.481859000">
        <ele>514.40</ele>
        <time>2014-11-01T08:19:39Z</time>
      </trkpt>
      <trkpt lat="42.356526000" lon="-2.481870000">
        <ele>514.40</ele>
        <time>2014-11-01T08:19:40Z</time>
      </trkpt>
      <trkpt lat="42.356493000" lon="-2.481880000">
        <ele>514.40</ele>
        <time>2014-11-01T08:19:41Z</time>
      </trkpt>
      <trkpt lat="42.356456000" lon="-2.481889000">
        <ele>514.40</ele>
        <time>2014-11-01T08:19:42Z</time>
      </trkpt>
      <trkpt lat="42.356381000" lon="-2.481901000">
        <ele>514.30</ele>
        <time>2014-11-01T08:19:44Z</time>
      </trkpt>
      <trkpt lat="42.356346000" lon="-2.481913000">
        <ele>514.30</ele>
        <time>2014-11-01T08:19:45Z</time>
      </trkpt>
      <trkpt lat="42.356309000" lon="-2.481923000">
        <ele>514.50</ele>
        <time>2014-11-01T08:19:46Z</time>
      </trkpt>
      <trkpt lat="42.356274000" lon="-2.481931000">
        <ele>514.70</ele>
        <time>2014-11-01T08:19:47Z</time>
      </trkpt>
      <trkpt lat="42.356237000" lon="-2.481940000">
        <ele>514.80</ele>
        <time>2014-11-01T08:19:48Z</time>
      </trkpt>
      <trkpt lat="42.356198000" lon="-2.481945000">
        <ele>515.00</ele>
        <time>2014-11-01T08:19:49Z</time>
      </trkpt>
      <trkpt lat="42.356161000" lon="-2.481952000">
        <ele>515.10</ele>
        <time>2014-11-01T08:19:50Z</time>
      </trkpt>
      <trkpt lat="42.356124000" lon="-2.481957000">
        <ele>515.10</ele>
        <time>2014-11-01T08:19:51Z</time>
      </trkpt>
      <trkpt lat="42.356087000" lon="-2.481968000">
        <ele>515.10</ele>
        <time>2014-11-01T08:19:52Z</time>
      </trkpt>
      <trkpt lat="42.356049000" lon="-2.481977000">
        <ele>515.10</ele>
        <time>2014-11-01T08:19:53Z</time>
      </trkpt>
      <trkpt lat="42.356009000" lon="-2.481987000">
        <ele>515.10</ele>
        <time>2014-11-01T08:19:54Z</time>
      </trkpt>
      <trkpt lat="42.355972000" lon="-2.481999000">
        <ele>515.10</ele>
        <time>2014-11-01T08:19:55Z</time>
      </trkpt>
      <trkpt lat="42.355934000" lon="-2.482008000">
        <ele>515.10</ele>
        <time>2014-11-01T08:19:56Z</time>
      </trkpt>
      <trkpt lat="42.355897000" lon="-2.482020000">
        <ele>515.10</ele>
        <time>2014-11-01T08:19:57Z</time>
      </trkpt>
      <trkpt lat="42.355859000" lon="-2.482031000">
        <ele>515.20</ele>
        <time>2014-11-01T08:19:58Z</time>
      </trkpt>
      <trkpt lat="42.355820000" lon="-2.482041000">
        <ele>515.30</ele>
        <time>2014-11-01T08:19:59Z</time>
      </trkpt>
      <trkpt lat="42.355782000" lon="-2.482055000">
        <ele>515.20</ele>
        <time>2014-11-01T08:20:00Z</time>
      </trkpt>
      <trkpt lat="42.355744000" lon="-2.482067000">
        <ele>515.10</ele>
        <time>2014-11-01T08:20:01Z</time>
      </trkpt>
      <trkpt lat="42.355703000" lon="-2.482080000">
        <ele>515.20</ele>
        <time>2014-11-01T08:20:02Z</time>
      </trkpt>
      <trkpt lat="42.355667000" lon="-2.482094000">
        <ele>515.30</ele>
        <time>2014-11-01T08:20:03Z</time>
      </trkpt>
      <trkpt lat="42.355631000" lon="-2.482108000">
        <ele>515.40</ele>
        <time>2014-11-01T08:20:04Z</time>
      </trkpt>
      <trkpt lat="42.355596000" lon="-2.482126000">
        <ele>515.50</ele>
        <time>2014-11-01T08:20:05Z</time>
      </trkpt>
      <trkpt lat="42.355560000" lon="-2.482143000">
        <ele>515.60</ele>
        <time>2014-11-01T08:20:06Z</time>
      </trkpt>
      <trkpt lat="42.355524000" lon="-2.482162000">
        <ele>515.80</ele>
        <time>2014-11-01T08:20:07Z</time>
      </trkpt>
      <trkpt lat="42.355492000" lon="-2.482185000">
        <ele>515.90</ele>
        <time>2014-11-01T08:20:08Z</time>
      </trkpt>
      <trkpt lat="42.355457000" lon="-2.482210000">
        <ele>515.90</ele>
        <time>2014-11-01T08:20:09Z</time>
      </trkpt>
      <trkpt lat="42.355424000" lon="-2.482234000">
        <ele>516.00</ele>
        <time>2014-11-01T08:20:10Z</time>
      </trkpt>
      <trkpt lat="42.355391000" lon="-2.482259000">
        <ele>516.00</ele>
        <time>2014-11-01T08:20:11Z</time>
      </trkpt>
      <trkpt lat="42.355356000" lon="-2.482282000">
        <ele>516.20</ele>
        <time>2014-11-01T08:20:12Z</time>
      </trkpt>
      <trkpt lat="42.355322000" lon="-2.482306000">
        <ele>516.30</ele>
        <time>2014-11-01T08:20:13Z</time>
      </trkpt>
      <trkpt lat="42.355286000" lon="-2.482333000">
        <ele>516.40</ele>
        <time>2014-11-01T08:20:14Z</time>
      </trkpt>
      <trkpt lat="42.355250000" lon="-2.482356000">
        <ele>516.50</ele>
        <time>2014-11-01T08:20:15Z</time>
      </trkpt>
      <trkpt lat="42.355216000" lon="-2.482383000">
        <ele>516.60</ele>
        <time>2014-11-01T08:20:16Z</time>
      </trkpt>
      <trkpt lat="42.355183000" lon="-2.482410000">
        <ele>516.70</ele>
        <time>2014-11-01T08:20:17Z</time>
      </trkpt>
      <trkpt lat="42.355148000" lon="-2.482439000">
        <ele>516.70</ele>
        <time>2014-11-01T08:20:18Z</time>
      </trkpt>
      <trkpt lat="42.355115000" lon="-2.482467000">
        <ele>516.80</ele>
        <time>2014-11-01T08:20:19Z</time>
      </trkpt>
      <trkpt lat="42.355081000" lon="-2.482494000">
        <ele>516.90</ele>
        <time>2014-11-01T08:20:20Z</time>
      </trkpt>
      <trkpt lat="42.355046000" lon="-2.482518000">
        <ele>517.10</ele>
        <time>2014-11-01T08:20:21Z</time>
      </trkpt>
      <trkpt lat="42.355012000" lon="-2.482540000">
        <ele>517.20</ele>
        <time>2014-11-01T08:20:22Z</time>
      </trkpt>
      <trkpt lat="42.354978000" lon="-2.482560000">
        <ele>517.20</ele>
        <time>2014-11-01T08:20:23Z</time>
      </trkpt>
      <trkpt lat="42.354944000" lon="-2.482584000">
        <ele>517.30</ele>
        <time>2014-11-01T08:20:24Z</time>
      </trkpt>
      <trkpt lat="42.354910000" lon="-2.482611000">
        <ele>517.40</ele>
        <time>2014-11-01T08:20:25Z</time>
      </trkpt>
      <trkpt lat="42.354875000" lon="-2.482639000">
        <ele>517.30</ele>
        <time>2014-11-01T08:20:26Z</time>
      </trkpt>
      <trkpt lat="42.354838000" lon="-2.482660000">
        <ele>517.20</ele>
        <time>2014-11-01T08:20:27Z</time>
      </trkpt>
      <trkpt lat="42.354800000" lon="-2.482682000">
        <ele>517.40</ele>
        <time>2014-11-01T08:20:28Z</time>
      </trkpt>
      <trkpt lat="42.354761000" lon="-2.482701000">
        <ele>517.50</ele>
        <time>2014-11-01T08:20:29Z</time>
      </trkpt>
      <trkpt lat="42.354722000" lon="-2.482722000">
        <ele>517.50</ele>
        <time>2014-11-01T08:20:30Z</time>
      </trkpt>
      <trkpt lat="42.354683000" lon="-2.482744000">
        <ele>517.60</ele>
        <time>2014-11-01T08:20:31Z</time>
      </trkpt>
      <trkpt lat="42.354646000" lon="-2.482763000">
        <ele>517.60</ele>
        <time>2014-11-01T08:20:32Z</time>
      </trkpt>
      <trkpt lat="42.354606000" lon="-2.482781000">
        <ele>517.60</ele>
        <time>2014-11-01T08:20:33Z</time>
      </trkpt>
      <trkpt lat="42.354571000" lon="-2.482806000">
        <ele>517.60</ele>
        <time>2014-11-01T08:20:34Z</time>
      </trkpt>
      <trkpt lat="42.354536000" lon="-2.482827000">
        <ele>517.60</ele>
        <time>2014-11-01T08:20:35Z</time>
      </trkpt>
      <trkpt lat="42.354498000" lon="-2.482845000">
        <ele>517.70</ele>
        <time>2014-11-01T08:20:36Z</time>
      </trkpt>
      <trkpt lat="42.354461000" lon="-2.482863000">
        <ele>517.70</ele>
        <time>2014-11-01T08:20:37Z</time>
      </trkpt>
      <trkpt lat="42.354424000" lon="-2.482884000">
        <ele>517.80</ele>
        <time>2014-11-01T08:20:38Z</time>
      </trkpt>
      <trkpt lat="42.354391000" lon="-2.482912000">
        <ele>517.80</ele>
        <time>2014-11-01T08:20:39Z</time>
      </trkpt>
      <trkpt lat="42.354357000" lon="-2.482945000">
        <ele>517.80</ele>
        <time>2014-11-01T08:20:40Z</time>
      </trkpt>
      <trkpt lat="42.354327000" lon="-2.482974000">
        <ele>517.80</ele>
        <time>2014-11-01T08:20:41Z</time>
      </trkpt>
      <trkpt lat="42.354295000" lon="-2.483007000">
        <ele>517.80</ele>
        <time>2014-11-01T08:20:42Z</time>
      </trkpt>
      <trkpt lat="42.354262000" lon="-2.483041000">
        <ele>517.70</ele>
        <time>2014-11-01T08:20:43Z</time>
      </trkpt>
      <trkpt lat="42.354195000" lon="-2.483102000">
        <ele>517.70</ele>
        <time>2014-11-01T08:20:45Z</time>
      </trkpt>
      <trkpt lat="42.354162000" lon="-2.483132000">
        <ele>517.80</ele>
        <time>2014-11-01T08:20:46Z</time>
      </trkpt>
      <trkpt lat="42.354129000" lon="-2.483162000">
        <ele>517.90</ele>
        <time>2014-11-01T08:20:47Z</time>
      </trkpt>
      <trkpt lat="42.354095000" lon="-2.483186000">
        <ele>517.90</ele>
        <time>2014-11-01T08:20:48Z</time>
      </trkpt>
      <trkpt lat="42.354060000" lon="-2.483212000">
        <ele>518.00</ele>
        <time>2014-11-01T08:20:49Z</time>
      </trkpt>
      <trkpt lat="42.354028000" lon="-2.483239000">
        <ele>518.00</ele>
        <time>2014-11-01T08:20:50Z</time>
      </trkpt>
      <trkpt lat="42.353993000" lon="-2.483265000">
        <ele>518.10</ele>
        <time>2014-11-01T08:20:51Z</time>
      </trkpt>
      <trkpt lat="42.353955000" lon="-2.483286000">
        <ele>518.10</ele>
        <time>2014-11-01T08:20:52Z</time>
      </trkpt>
      <trkpt lat="42.353920000" lon="-2.483307000">
        <ele>518.20</ele>
        <time>2014-11-01T08:20:53Z</time>
      </trkpt>
      <trkpt lat="42.353885000" lon="-2.483325000">
        <ele>518.40</ele>
        <time>2014-11-01T08:20:54Z</time>
      </trkpt>
      <trkpt lat="42.353847000" lon="-2.483343000">
        <ele>518.50</ele>
        <time>2014-11-01T08:20:55Z</time>
      </trkpt>
      <trkpt lat="42.353812000" lon="-2.483362000">
        <ele>518.60</ele>
        <time>2014-11-01T08:20:56Z</time>
      </trkpt>
      <trkpt lat="42.353778000" lon="-2.483382000">
        <ele>518.70</ele>
        <time>2014-11-01T08:20:57Z</time>
      </trkpt>
      <trkpt lat="42.353740000" lon="-2.483398000">
        <ele>518.50</ele>
        <time>2014-11-01T08:20:58Z</time>
      </trkpt>
      <trkpt lat="42.353698000" lon="-2.483406000">
        <ele>518.40</ele>
        <time>2014-11-01T08:20:59Z</time>
      </trkpt>
      <trkpt lat="42.353655000" lon="-2.483414000">
        <ele>518.30</ele>
        <time>2014-11-01T08:21:00Z</time>
      </trkpt>
      <trkpt lat="42.353615000" lon="-2.483423000">
        <ele>518.20</ele>
        <time>2014-11-01T08:21:01Z</time>
      </trkpt>
      <trkpt lat="42.353576000" lon="-2.483427000">
        <ele>518.20</ele>
        <time>2014-11-01T08:21:02Z</time>
      </trkpt>
      <trkpt lat="42.353536000" lon="-2.483434000">
        <ele>518.20</ele>
        <time>2014-11-01T08:21:03Z</time>
      </trkpt>
      <trkpt lat="42.353496000" lon="-2.483439000">
        <ele>518.30</ele>
        <time>2014-11-01T08:21:04Z</time>
      </trkpt>
      <trkpt lat="42.353458000" lon="-2.483449000">
        <ele>518.30</ele>
        <time>2014-11-01T08:21:05Z</time>
      </trkpt>
      <trkpt lat="42.353422000" lon="-2.483461000">
        <ele>518.40</ele>
        <time>2014-11-01T08:21:06Z</time>
      </trkpt>
      <trkpt lat="42.353384000" lon="-2.483478000">
        <ele>518.40</ele>
        <time>2014-11-01T08:21:07Z</time>
      </trkpt>
      <trkpt lat="42.353346000" lon="-2.483498000">
        <ele>518.50</ele>
        <time>2014-11-01T08:21:08Z</time>
      </trkpt>
      <trkpt lat="42.353307000" lon="-2.483517000">
        <ele>518.50</ele>
        <time>2014-11-01T08:21:09Z</time>
      </trkpt>
      <trkpt lat="42.353268000" lon="-2.483537000">
        <ele>518.60</ele>
        <time>2014-11-01T08:21:10Z</time>
      </trkpt>
      <trkpt lat="42.353232000" lon="-2.483560000">
        <ele>518.60</ele>
        <time>2014-11-01T08:21:11Z</time>
      </trkpt>
      <trkpt lat="42.353196000" lon="-2.483587000">
        <ele>518.80</ele>
        <time>2014-11-01T08:21:12Z</time>
      </trkpt>
      <trkpt lat="42.353161000" lon="-2.483614000">
        <ele>518.90</ele>
        <time>2014-11-01T08:21:13Z</time>
      </trkpt>
      <trkpt lat="42.353129000" lon="-2.483638000">
        <ele>518.90</ele>
        <time>2014-11-01T08:21:14Z</time>
      </trkpt>
      <trkpt lat="42.353099000" lon="-2.483665000">
        <ele>518.90</ele>
        <time>2014-11-01T08:21:15Z</time>
      </trkpt>
      <trkpt lat="42.353068000" lon="-2.483692000">
        <ele>519.00</ele>
        <time>2014-11-01T08:21:16Z</time>
      </trkpt>
      <trkpt lat="42.353036000" lon="-2.483720000">
        <ele>519.10</ele>
        <time>2014-11-01T08:21:17Z</time>
      </trkpt>
      <trkpt lat="42.353007000" lon="-2.483746000">
        <ele>519.20</ele>
        <time>2014-11-01T08:21:18Z</time>
      </trkpt>
      <trkpt lat="42.352978000" lon="-2.483773000">
        <ele>519.20</ele>
        <time>2014-11-01T08:21:19Z</time>
      </trkpt>
      <trkpt lat="42.352947000" lon="-2.483803000">
        <ele>519.30</ele>
        <time>2014-11-01T08:21:20Z</time>
      </trkpt>
      <trkpt lat="42.352918000" lon="-2.483836000">
        <ele>519.40</ele>
        <time>2014-11-01T08:21:21Z</time>
      </trkpt>
      <trkpt lat="42.352886000" lon="-2.483869000">
        <ele>519.50</ele>
        <time>2014-11-01T08:21:22Z</time>
      </trkpt>
      <trkpt lat="42.352853000" lon="-2.483901000">
        <ele>519.60</ele>
        <time>2014-11-01T08:21:23Z</time>
      </trkpt>
      <trkpt lat="42.352821000" lon="-2.483934000">
        <ele>519.60</ele>
        <time>2014-11-01T08:21:24Z</time>
      </trkpt>
      <trkpt lat="42.352786000" lon="-2.483968000">
        <ele>519.60</ele>
        <time>2014-11-01T08:21:25Z</time>
      </trkpt>
      <trkpt lat="42.352753000" lon="-2.484001000">
        <ele>519.60</ele>
        <time>2014-11-01T08:21:26Z</time>
      </trkpt>
      <trkpt lat="42.352721000" lon="-2.484036000">
        <ele>519.70</ele>
        <time>2014-11-01T08:21:27Z</time>
      </trkpt>
      <trkpt lat="42.352691000" lon="-2.484072000">
        <ele>519.80</ele>
        <time>2014-11-01T08:21:28Z</time>
      </trkpt>
      <trkpt lat="42.352661000" lon="-2.484105000">
        <ele>519.80</ele>
        <time>2014-11-01T08:21:29Z</time>
      </trkpt>
      <trkpt lat="42.352628000" lon="-2.484131000">
        <ele>519.90</ele>
        <time>2014-11-01T08:21:30Z</time>
      </trkpt>
      <trkpt lat="42.352595000" lon="-2.484160000">
        <ele>520.00</ele>
        <time>2014-11-01T08:21:31Z</time>
      </trkpt>
      <trkpt lat="42.352561000" lon="-2.484186000">
        <ele>520.10</ele>
        <time>2014-11-01T08:21:32Z</time>
      </trkpt>
      <trkpt lat="42.352528000" lon="-2.484213000">
        <ele>520.10</ele>
        <time>2014-11-01T08:21:33Z</time>
      </trkpt>
      <trkpt lat="42.352493000" lon="-2.484238000">
        <ele>519.90</ele>
        <time>2014-11-01T08:21:34Z</time>
      </trkpt>
      <trkpt lat="42.352458000" lon="-2.484259000">
        <ele>519.80</ele>
        <time>2014-11-01T08:21:35Z</time>
      </trkpt>
      <trkpt lat="42.352422000" lon="-2.484278000">
        <ele>519.80</ele>
        <time>2014-11-01T08:21:36Z</time>
      </trkpt>
      <trkpt lat="42.352388000" lon="-2.484298000">
        <ele>519.70</ele>
        <time>2014-11-01T08:21:37Z</time>
      </trkpt>
      <trkpt lat="42.352353000" lon="-2.484320000">
        <ele>519.70</ele>
        <time>2014-11-01T08:21:38Z</time>
      </trkpt>
      <trkpt lat="42.352317000" lon="-2.484340000">
        <ele>519.60</ele>
        <time>2014-11-01T08:21:39Z</time>
      </trkpt>
      <trkpt lat="42.352279000" lon="-2.484355000">
        <ele>519.60</ele>
        <time>2014-11-01T08:21:40Z</time>
      </trkpt>
      <trkpt lat="42.352243000" lon="-2.484365000">
        <ele>519.70</ele>
        <time>2014-11-01T08:21:41Z</time>
      </trkpt>
      <trkpt lat="42.352206000" lon="-2.484378000">
        <ele>519.70</ele>
        <time>2014-11-01T08:21:42Z</time>
      </trkpt>
      <trkpt lat="42.352168000" lon="-2.484391000">
        <ele>519.80</ele>
        <time>2014-11-01T08:21:43Z</time>
      </trkpt>
      <trkpt lat="42.352132000" lon="-2.484401000">
        <ele>520.00</ele>
        <time>2014-11-01T08:21:44Z</time>
      </trkpt>
      <trkpt lat="42.352057000" lon="-2.484414000">
        <ele>520.30</ele>
        <time>2014-11-01T08:21:46Z</time>
      </trkpt>
      <trkpt lat="42.352023000" lon="-2.484427000">
        <ele>520.40</ele>
        <time>2014-11-01T08:21:47Z</time>
      </trkpt>
      <trkpt lat="42.351988000" lon="-2.484453000">
        <ele>520.40</ele>
        <time>2014-11-01T08:21:48Z</time>
      </trkpt>
      <trkpt lat="42.351959000" lon="-2.484482000">
        <ele>520.40</ele>
        <time>2014-11-01T08:21:49Z</time>
      </trkpt>
      <trkpt lat="42.351933000" lon="-2.484506000">
        <ele>520.50</ele>
        <time>2014-11-01T08:21:50Z</time>
      </trkpt>
      <trkpt lat="42.351905000" lon="-2.484528000">
        <ele>520.50</ele>
        <time>2014-11-01T08:21:51Z</time>
      </trkpt>
      <trkpt lat="42.351874000" lon="-2.484545000">
        <ele>520.60</ele>
        <time>2014-11-01T08:21:52Z</time>
      </trkpt>
      <trkpt lat="42.351840000" lon="-2.484561000">
        <ele>520.70</ele>
        <time>2014-11-01T08:21:53Z</time>
      </trkpt>
      <trkpt lat="42.351803000" lon="-2.484571000">
        <ele>520.80</ele>
        <time>2014-11-01T08:21:54Z</time>
      </trkpt>
      <trkpt lat="42.351766000" lon="-2.484579000">
        <ele>520.80</ele>
        <time>2014-11-01T08:21:55Z</time>
      </trkpt>
      <trkpt lat="42.351729000" lon="-2.484587000">
        <ele>521.00</ele>
        <time>2014-11-01T08:21:56Z</time>
      </trkpt>
      <trkpt lat="42.351693000" lon="-2.484602000">
        <ele>521.10</ele>
        <time>2014-11-01T08:21:57Z</time>
      </trkpt>
      <trkpt lat="42.351659000" lon="-2.484618000">
        <ele>521.20</ele>
        <time>2014-11-01T08:21:58Z</time>
      </trkpt>
      <trkpt lat="42.351627000" lon="-2.484639000">
        <ele>521.20</ele>
        <time>2014-11-01T08:21:59Z</time>
      </trkpt>
      <trkpt lat="42.351594000" lon="-2.484664000">
        <ele>521.30</ele>
        <time>2014-11-01T08:22:00Z</time>
      </trkpt>
      <trkpt lat="42.351563000" lon="-2.484693000">
        <ele>521.30</ele>
        <time>2014-11-01T08:22:01Z</time>
      </trkpt>
      <trkpt lat="42.351534000" lon="-2.484721000">
        <ele>521.30</ele>
        <time>2014-11-01T08:22:02Z</time>
      </trkpt>
      <trkpt lat="42.351506000" lon="-2.484747000">
        <ele>521.40</ele>
        <time>2014-11-01T08:22:03Z</time>
      </trkpt>
      <trkpt lat="42.351474000" lon="-2.484772000">
        <ele>521.60</ele>
        <time>2014-11-01T08:22:04Z</time>
      </trkpt>
      <trkpt lat="42.351440000" lon="-2.484801000">
        <ele>521.80</ele>
        <time>2014-11-01T08:22:05Z</time>
      </trkpt>
      <trkpt lat="42.351409000" lon="-2.484831000">
        <ele>522.00</ele>
        <time>2014-11-01T08:22:06Z</time>
      </trkpt>
      <trkpt lat="42.351379000" lon="-2.484857000">
        <ele>522.10</ele>
        <time>2014-11-01T08:22:07Z</time>
      </trkpt>
      <trkpt lat="42.351345000" lon="-2.484881000">
        <ele>522.10</ele>
        <time>2014-11-01T08:22:08Z</time>
      </trkpt>
      <trkpt lat="42.351312000" lon="-2.484907000">
        <ele>522.20</ele>
        <time>2014-11-01T08:22:09Z</time>
      </trkpt>
      <trkpt lat="42.351281000" lon="-2.484934000">
        <ele>521.90</ele>
        <time>2014-11-01T08:22:10Z</time>
      </trkpt>
      <trkpt lat="42.351242000" lon="-2.484950000">
        <ele>521.60</ele>
        <time>2014-11-01T08:22:11Z</time>
      </trkpt>
      <trkpt lat="42.351203000" lon="-2.484969000">
        <ele>521.60</ele>
        <time>2014-11-01T08:22:12Z</time>
      </trkpt>
      <trkpt lat="42.351164000" lon="-2.484984000">
        <ele>521.50</ele>
        <time>2014-11-01T08:22:13Z</time>
      </trkpt>
      <trkpt lat="42.351126000" lon="-2.484995000">
        <ele>521.50</ele>
        <time>2014-11-01T08:22:14Z</time>
      </trkpt>
      <trkpt lat="42.351090000" lon="-2.485010000">
        <ele>521.50</ele>
        <time>2014-11-01T08:22:15Z</time>
      </trkpt>
      <trkpt lat="42.351064000" lon="-2.485027000">
        <ele>521.90</ele>
        <time>2014-11-01T08:22:16Z</time>
      </trkpt>
      <trkpt lat="42.351032000" lon="-2.485046000">
        <ele>522.20</ele>
        <time>2014-11-01T08:22:17Z</time>
      </trkpt>
      <trkpt lat="42.350996000" lon="-2.485073000">
        <ele>522.50</ele>
        <time>2014-11-01T08:22:18Z</time>
      </trkpt>
      <trkpt lat="42.350962000" lon="-2.485098000">
        <ele>522.60</ele>
        <time>2014-11-01T08:22:19Z</time>
      </trkpt>
      <trkpt lat="42.350931000" lon="-2.485125000">
        <ele>522.70</ele>
        <time>2014-11-01T08:22:20Z</time>
      </trkpt>
      <trkpt lat="42.350895000" lon="-2.485148000">
        <ele>522.70</ele>
        <time>2014-11-01T08:22:21Z</time>
      </trkpt>
      <trkpt lat="42.350862000" lon="-2.485171000">
        <ele>522.80</ele>
        <time>2014-11-01T08:22:22Z</time>
      </trkpt>
      <trkpt lat="42.350830000" lon="-2.485196000">
        <ele>522.80</ele>
        <time>2014-11-01T08:22:23Z</time>
      </trkpt>
      <trkpt lat="42.350799000" lon="-2.485215000">
        <ele>522.80</ele>
        <time>2014-11-01T08:22:24Z</time>
      </trkpt>
      <trkpt lat="42.350771000" lon="-2.485234000">
        <ele>522.90</ele>
        <time>2014-11-01T08:22:25Z</time>
      </trkpt>
      <trkpt lat="42.350740000" lon="-2.485255000">
        <ele>522.90</ele>
        <time>2014-11-01T08:22:26Z</time>
      </trkpt>
      <trkpt lat="42.350707000" lon="-2.485276000">
        <ele>522.90</ele>
        <time>2014-11-01T08:22:27Z</time>
      </trkpt>
      <trkpt lat="42.350678000" lon="-2.485294000">
        <ele>522.90</ele>
        <time>2014-11-01T08:22:28Z</time>
      </trkpt>
      <trkpt lat="42.350646000" lon="-2.485314000">
        <ele>522.90</ele>
        <time>2014-11-01T08:22:29Z</time>
      </trkpt>
      <trkpt lat="42.350613000" lon="-2.485326000">
        <ele>522.80</ele>
        <time>2014-11-01T08:22:30Z</time>
      </trkpt>
      <trkpt lat="42.350579000" lon="-2.485340000">
        <ele>522.70</ele>
        <time>2014-11-01T08:22:31Z</time>
      </trkpt>
      <trkpt lat="42.350546000" lon="-2.485352000">
        <ele>522.90</ele>
        <time>2014-11-01T08:22:32Z</time>
      </trkpt>
      <trkpt lat="42.350511000" lon="-2.485369000">
        <ele>523.00</ele>
        <time>2014-11-01T08:22:33Z</time>
      </trkpt>
      <trkpt lat="42.350478000" lon="-2.485384000">
        <ele>522.90</ele>
        <time>2014-11-01T08:22:34Z</time>
      </trkpt>
      <trkpt lat="42.350443000" lon="-2.485395000">
        <ele>522.80</ele>
        <time>2014-11-01T08:22:35Z</time>
      </trkpt>
      <trkpt lat="42.350407000" lon="-2.485406000">
        <ele>522.90</ele>
        <time>2014-11-01T08:22:36Z</time>
      </trkpt>
      <trkpt lat="42.350373000" lon="-2.485414000">
        <ele>522.90</ele>
        <time>2014-11-01T08:22:37Z</time>
      </trkpt>
      <trkpt lat="42.350338000" lon="-2.485423000">
        <ele>523.00</ele>
        <time>2014-11-01T08:22:38Z</time>
      </trkpt>
      <trkpt lat="42.350303000" lon="-2.485432000">
        <ele>523.00</ele>
        <time>2014-11-01T08:22:39Z</time>
      </trkpt>
      <trkpt lat="42.350267000" lon="-2.485439000">
        <ele>523.30</ele>
        <time>2014-11-01T08:22:40Z</time>
      </trkpt>
      <trkpt lat="42.350228000" lon="-2.485445000">
        <ele>523.50</ele>
        <time>2014-11-01T08:22:41Z</time>
      </trkpt>
      <trkpt lat="42.350191000" lon="-2.485454000">
        <ele>523.60</ele>
        <time>2014-11-01T08:22:42Z</time>
      </trkpt>
      <trkpt lat="42.350153000" lon="-2.485460000">
        <ele>523.80</ele>
        <time>2014-11-01T08:22:43Z</time>
      </trkpt>
      <trkpt lat="42.350116000" lon="-2.485470000">
        <ele>523.90</ele>
        <time>2014-11-01T08:22:44Z</time>
      </trkpt>
      <trkpt lat="42.350075000" lon="-2.485476000">
        <ele>524.00</ele>
        <time>2014-11-01T08:22:45Z</time>
      </trkpt>
      <trkpt lat="42.349996000" lon="-2.485496000">
        <ele>524.20</ele>
        <time>2014-11-01T08:22:47Z</time>
      </trkpt>
      <trkpt lat="42.349958000" lon="-2.485508000">
        <ele>524.10</ele>
        <time>2014-11-01T08:22:48Z</time>
      </trkpt>
      <trkpt lat="42.349921000" lon="-2.485520000">
        <ele>524.00</ele>
        <time>2014-11-01T08:22:49Z</time>
      </trkpt>
      <trkpt lat="42.349884000" lon="-2.485537000">
        <ele>523.90</ele>
        <time>2014-11-01T08:22:50Z</time>
      </trkpt>
      <trkpt lat="42.349847000" lon="-2.485550000">
        <ele>523.70</ele>
        <time>2014-11-01T08:22:51Z</time>
      </trkpt>
      <trkpt lat="42.349811000" lon="-2.485563000">
        <ele>523.70</ele>
        <time>2014-11-01T08:22:52Z</time>
      </trkpt>
      <trkpt lat="42.349772000" lon="-2.485576000">
        <ele>523.70</ele>
        <time>2014-11-01T08:22:53Z</time>
      </trkpt>
      <trkpt lat="42.349730000" lon="-2.485591000">
        <ele>523.70</ele>
        <time>2014-11-01T08:22:54Z</time>
      </trkpt>
      <trkpt lat="42.349691000" lon="-2.485611000">
        <ele>523.80</ele>
        <time>2014-11-01T08:22:55Z</time>
      </trkpt>
      <trkpt lat="42.349655000" lon="-2.485630000">
        <ele>523.90</ele>
        <time>2014-11-01T08:22:56Z</time>
      </trkpt>
      <trkpt lat="42.349619000" lon="-2.485649000">
        <ele>524.00</ele>
        <time>2014-11-01T08:22:57Z</time>
      </trkpt>
      <trkpt lat="42.349582000" lon="-2.485672000">
        <ele>524.10</ele>
        <time>2014-11-01T08:22:58Z</time>
      </trkpt>
      <trkpt lat="42.349547000" lon="-2.485694000">
        <ele>524.10</ele>
        <time>2014-11-01T08:22:59Z</time>
      </trkpt>
      <trkpt lat="42.349509000" lon="-2.485717000">
        <ele>524.20</ele>
        <time>2014-11-01T08:23:00Z</time>
      </trkpt>
      <trkpt lat="42.349474000" lon="-2.485740000">
        <ele>524.30</ele>
        <time>2014-11-01T08:23:01Z</time>
      </trkpt>
      <trkpt lat="42.349439000" lon="-2.485767000">
        <ele>524.40</ele>
        <time>2014-11-01T08:23:02Z</time>
      </trkpt>
      <trkpt lat="42.349407000" lon="-2.485798000">
        <ele>524.40</ele>
        <time>2014-11-01T08:23:03Z</time>
      </trkpt>
      <trkpt lat="42.349379000" lon="-2.485824000">
        <ele>524.40</ele>
        <time>2014-11-01T08:23:04Z</time>
      </trkpt>
      <trkpt lat="42.349351000" lon="-2.485851000">
        <ele>524.50</ele>
        <time>2014-11-01T08:23:05Z</time>
      </trkpt>
      <trkpt lat="42.349324000" lon="-2.485884000">
        <ele>524.40</ele>
        <time>2014-11-01T08:23:06Z</time>
      </trkpt>
      <trkpt lat="42.349290000" lon="-2.485920000">
        <ele>524.40</ele>
        <time>2014-11-01T08:23:07Z</time>
      </trkpt>
      <trkpt lat="42.349257000" lon="-2.485952000">
        <ele>524.40</ele>
        <time>2014-11-01T08:23:08Z</time>
      </trkpt>
      <trkpt lat="42.349223000" lon="-2.485982000">
        <ele>524.30</ele>
        <time>2014-11-01T08:23:09Z</time>
      </trkpt>
      <trkpt lat="42.349192000" lon="-2.486014000">
        <ele>524.30</ele>
        <time>2014-11-01T08:23:10Z</time>
      </trkpt>
      <trkpt lat="42.349162000" lon="-2.486041000">
        <ele>524.30</ele>
        <time>2014-11-01T08:23:11Z</time>
      </trkpt>
      <trkpt lat="42.349134000" lon="-2.486069000">
        <ele>524.40</ele>
        <time>2014-11-01T08:23:12Z</time>
      </trkpt>
      <trkpt lat="42.349103000" lon="-2.486093000">
        <ele>524.40</ele>
        <time>2014-11-01T08:23:13Z</time>
      </trkpt>
      <trkpt lat="42.349067000" lon="-2.486118000">
        <ele>524.40</ele>
        <time>2014-11-01T08:23:14Z</time>
      </trkpt>
      <trkpt lat="42.349032000" lon="-2.486139000">
        <ele>524.50</ele>
        <time>2014-11-01T08:23:15Z</time>
      </trkpt>
      <trkpt lat="42.348997000" lon="-2.486158000">
        <ele>524.70</ele>
        <time>2014-11-01T08:23:16Z</time>
      </trkpt>
      <trkpt lat="42.348962000" lon="-2.486176000">
        <ele>524.80</ele>
        <time>2014-11-01T08:23:17Z</time>
      </trkpt>
      <trkpt lat="42.348929000" lon="-2.486192000">
        <ele>525.00</ele>
        <time>2014-11-01T08:23:18Z</time>
      </trkpt>
      <trkpt lat="42.348895000" lon="-2.486209000">
        <ele>525.10</ele>
        <time>2014-11-01T08:23:19Z</time>
      </trkpt>
      <trkpt lat="42.348860000" lon="-2.486227000">
        <ele>525.10</ele>
        <time>2014-11-01T08:23:20Z</time>
      </trkpt>
      <trkpt lat="42.348822000" lon="-2.486246000">
        <ele>525.20</ele>
        <time>2014-11-01T08:23:21Z</time>
      </trkpt>
      <trkpt lat="42.348788000" lon="-2.486264000">
        <ele>525.10</ele>
        <time>2014-11-01T08:23:22Z</time>
      </trkpt>
      <trkpt lat="42.348752000" lon="-2.486280000">
        <ele>525.10</ele>
        <time>2014-11-01T08:23:23Z</time>
      </trkpt>
      <trkpt lat="42.348718000" lon="-2.486295000">
        <ele>525.30</ele>
        <time>2014-11-01T08:23:24Z</time>
      </trkpt>
      <trkpt lat="42.348689000" lon="-2.486311000">
        <ele>525.40</ele>
        <time>2014-11-01T08:23:25Z</time>
      </trkpt>
      <trkpt lat="42.348659000" lon="-2.486326000">
        <ele>525.50</ele>
        <time>2014-11-01T08:23:26Z</time>
      </trkpt>
      <trkpt lat="42.348629000" lon="-2.486340000">
        <ele>525.60</ele>
        <time>2014-11-01T08:23:27Z</time>
      </trkpt>
      <trkpt lat="42.348593000" lon="-2.486351000">
        <ele>525.70</ele>
        <time>2014-11-01T08:23:28Z</time>
      </trkpt>
      <trkpt lat="42.348557000" lon="-2.486366000">
        <ele>525.80</ele>
        <time>2014-11-01T08:23:29Z</time>
      </trkpt>
      <trkpt lat="42.348522000" lon="-2.486379000">
        <ele>525.80</ele>
        <time>2014-11-01T08:23:30Z</time>
      </trkpt>
      <trkpt lat="42.348486000" lon="-2.486393000">
        <ele>525.80</ele>
        <time>2014-11-01T08:23:31Z</time>
      </trkpt>
      <trkpt lat="42.348450000" lon="-2.486405000">
        <ele>525.90</ele>
        <time>2014-11-01T08:23:32Z</time>
      </trkpt>
      <trkpt lat="42.348416000" lon="-2.486418000">
        <ele>526.00</ele>
        <time>2014-11-01T08:23:33Z</time>
      </trkpt>
      <trkpt lat="42.348378000" lon="-2.486435000">
        <ele>525.90</ele>
        <time>2014-11-01T08:23:34Z</time>
      </trkpt>
      <trkpt lat="42.348341000" lon="-2.486449000">
        <ele>525.80</ele>
        <time>2014-11-01T08:23:35Z</time>
      </trkpt>
      <trkpt lat="42.348304000" lon="-2.486469000">
        <ele>525.80</ele>
        <time>2014-11-01T08:23:36Z</time>
      </trkpt>
      <trkpt lat="42.348265000" lon="-2.486491000">
        <ele>525.80</ele>
        <time>2014-11-01T08:23:37Z</time>
      </trkpt>
      <trkpt lat="42.348228000" lon="-2.486519000">
        <ele>525.80</ele>
        <time>2014-11-01T08:23:38Z</time>
      </trkpt>
      <trkpt lat="42.348193000" lon="-2.486549000">
        <ele>525.70</ele>
        <time>2014-11-01T08:23:39Z</time>
      </trkpt>
      <trkpt lat="42.348160000" lon="-2.486579000">
        <ele>525.70</ele>
        <time>2014-11-01T08:23:40Z</time>
      </trkpt>
      <trkpt lat="42.348130000" lon="-2.486617000">
        <ele>525.70</ele>
        <time>2014-11-01T08:23:41Z</time>
      </trkpt>
      <trkpt lat="42.348107000" lon="-2.486662000">
        <ele>525.60</ele>
        <time>2014-11-01T08:23:42Z</time>
      </trkpt>
      <trkpt lat="42.348090000" lon="-2.486709000">
        <ele>525.60</ele>
        <time>2014-11-01T08:23:43Z</time>
      </trkpt>
      <trkpt lat="42.348067000" lon="-2.486756000">
        <ele>525.60</ele>
        <time>2014-11-01T08:23:44Z</time>
      </trkpt>
      <trkpt lat="42.348044000" lon="-2.486801000">
        <ele>525.60</ele>
        <time>2014-11-01T08:23:45Z</time>
      </trkpt>
      <trkpt lat="42.348020000" lon="-2.486847000">
        <ele>525.80</ele>
        <time>2014-11-01T08:23:46Z</time>
      </trkpt>
      <trkpt lat="42.347972000" lon="-2.486923000">
        <ele>526.10</ele>
        <time>2014-11-01T08:23:48Z</time>
      </trkpt>
      <trkpt lat="42.347950000" lon="-2.486959000">
        <ele>526.20</ele>
        <time>2014-11-01T08:23:49Z</time>
      </trkpt>
      <trkpt lat="42.347928000" lon="-2.486993000">
        <ele>526.30</ele>
        <time>2014-11-01T08:23:50Z</time>
      </trkpt>
      <trkpt lat="42.347904000" lon="-2.487029000">
        <ele>526.50</ele>
        <time>2014-11-01T08:23:51Z</time>
      </trkpt>
      <trkpt lat="42.347881000" lon="-2.487066000">
        <ele>526.50</ele>
        <time>2014-11-01T08:23:52Z</time>
      </trkpt>
      <trkpt lat="42.347857000" lon="-2.487101000">
        <ele>526.50</ele>
        <time>2014-11-01T08:23:53Z</time>
      </trkpt>
      <trkpt lat="42.347829000" lon="-2.487138000">
        <ele>526.40</ele>
        <time>2014-11-01T08:23:54Z</time>
      </trkpt>
      <trkpt lat="42.347807000" lon="-2.487175000">
        <ele>526.40</ele>
        <time>2014-11-01T08:23:55Z</time>
      </trkpt>
      <trkpt lat="42.347783000" lon="-2.487210000">
        <ele>526.30</ele>
        <time>2014-11-01T08:23:56Z</time>
      </trkpt>
      <trkpt lat="42.347759000" lon="-2.487246000">
        <ele>526.20</ele>
        <time>2014-11-01T08:23:57Z</time>
      </trkpt>
      <trkpt lat="42.347737000" lon="-2.487281000">
        <ele>525.90</ele>
        <time>2014-11-01T08:23:58Z</time>
      </trkpt>
      <trkpt lat="42.347714000" lon="-2.487314000">
        <ele>525.70</ele>
        <time>2014-11-01T08:23:59Z</time>
      </trkpt>
      <trkpt lat="42.347693000" lon="-2.487349000">
        <ele>525.50</ele>
        <time>2014-11-01T08:24:00Z</time>
      </trkpt>
      <trkpt lat="42.347669000" lon="-2.487383000">
        <ele>525.40</ele>
        <time>2014-11-01T08:24:01Z</time>
      </trkpt>
      <trkpt lat="42.347645000" lon="-2.487417000">
        <ele>525.40</ele>
        <time>2014-11-01T08:24:02Z</time>
      </trkpt>
      <trkpt lat="42.347621000" lon="-2.487449000">
        <ele>525.40</ele>
        <time>2014-11-01T08:24:03Z</time>
      </trkpt>
      <trkpt lat="42.347598000" lon="-2.487485000">
        <ele>525.60</ele>
        <time>2014-11-01T08:24:04Z</time>
      </trkpt>
      <trkpt lat="42.347573000" lon="-2.487520000">
        <ele>525.70</ele>
        <time>2014-11-01T08:24:05Z</time>
      </trkpt>
      <trkpt lat="42.347547000" lon="-2.487555000">
        <ele>525.60</ele>
        <time>2014-11-01T08:24:06Z</time>
      </trkpt>
      <trkpt lat="42.347523000" lon="-2.487590000">
        <ele>525.50</ele>
        <time>2014-11-01T08:24:07Z</time>
      </trkpt>
      <trkpt lat="42.347500000" lon="-2.487621000">
        <ele>525.80</ele>
        <time>2014-11-01T08:24:08Z</time>
      </trkpt>
      <trkpt lat="42.347479000" lon="-2.487651000">
        <ele>526.00</ele>
        <time>2014-11-01T08:24:09Z</time>
      </trkpt>
      <trkpt lat="42.347455000" lon="-2.487686000">
        <ele>526.20</ele>
        <time>2014-11-01T08:24:10Z</time>
      </trkpt>
      <trkpt lat="42.347430000" lon="-2.487715000">
        <ele>526.30</ele>
        <time>2014-11-01T08:24:11Z</time>
      </trkpt>
      <trkpt lat="42.347409000" lon="-2.487748000">
        <ele>526.40</ele>
        <time>2014-11-01T08:24:12Z</time>
      </trkpt>
      <trkpt lat="42.347388000" lon="-2.487777000">
        <ele>526.40</ele>
        <time>2014-11-01T08:24:13Z</time>
      </trkpt>
      <trkpt lat="42.347366000" lon="-2.487801000">
        <ele>526.50</ele>
        <time>2014-11-01T08:24:14Z</time>
      </trkpt>
      <trkpt lat="42.347342000" lon="-2.487831000">
        <ele>526.50</ele>
        <time>2014-11-01T08:24:15Z</time>
      </trkpt>
      <trkpt lat="42.347320000" lon="-2.487861000">
        <ele>526.50</ele>
        <time>2014-11-01T08:24:16Z</time>
      </trkpt>
      <trkpt lat="42.347294000" lon="-2.487890000">
        <ele>526.40</ele>
        <time>2014-11-01T08:24:17Z</time>
      </trkpt>
      <trkpt lat="42.347264000" lon="-2.487917000">
        <ele>526.50</ele>
        <time>2014-11-01T08:24:18Z</time>
      </trkpt>
      <trkpt lat="42.347236000" lon="-2.487941000">
        <ele>526.50</ele>
        <time>2014-11-01T08:24:19Z</time>
      </trkpt>
      <trkpt lat="42.347202000" lon="-2.487966000">
        <ele>526.60</ele>
        <time>2014-11-01T08:24:20Z</time>
      </trkpt>
      <trkpt lat="42.347168000" lon="-2.487992000">
        <ele>526.70</ele>
        <time>2014-11-01T08:24:21Z</time>
      </trkpt>
      <trkpt lat="42.347136000" lon="-2.488018000">
        <ele>526.70</ele>
        <time>2014-11-01T08:24:22Z</time>
      </trkpt>
      <trkpt lat="42.347101000" lon="-2.488044000">
        <ele>526.80</ele>
        <time>2014-11-01T08:24:23Z</time>
      </trkpt>
      <trkpt lat="42.347068000" lon="-2.488072000">
        <ele>527.10</ele>
        <time>2014-11-01T08:24:24Z</time>
      </trkpt>
      <trkpt lat="42.347034000" lon="-2.488099000">
        <ele>527.30</ele>
        <time>2014-11-01T08:24:25Z</time>
      </trkpt>
      <trkpt lat="42.347001000" lon="-2.488125000">
        <ele>527.50</ele>
        <time>2014-11-01T08:24:26Z</time>
      </trkpt>
      <trkpt lat="42.346969000" lon="-2.488149000">
        <ele>527.70</ele>
        <time>2014-11-01T08:24:27Z</time>
      </trkpt>
      <trkpt lat="42.346932000" lon="-2.488175000">
        <ele>527.80</ele>
        <time>2014-11-01T08:24:28Z</time>
      </trkpt>
      <trkpt lat="42.346897000" lon="-2.488206000">
        <ele>527.90</ele>
        <time>2014-11-01T08:24:29Z</time>
      </trkpt>
      <trkpt lat="42.346861000" lon="-2.488236000">
        <ele>528.00</ele>
        <time>2014-11-01T08:24:30Z</time>
      </trkpt>
      <trkpt lat="42.346828000" lon="-2.488273000">
        <ele>528.00</ele>
        <time>2014-11-01T08:24:31Z</time>
      </trkpt>
      <trkpt lat="42.346793000" lon="-2.488307000">
        <ele>527.70</ele>
        <time>2014-11-01T08:24:32Z</time>
      </trkpt>
      <trkpt lat="42.346762000" lon="-2.488342000">
        <ele>527.50</ele>
        <time>2014-11-01T08:24:33Z</time>
      </trkpt>
      <trkpt lat="42.346733000" lon="-2.488376000">
        <ele>527.20</ele>
        <time>2014-11-01T08:24:34Z</time>
      </trkpt>
      <trkpt lat="42.346704000" lon="-2.488410000">
        <ele>527.00</ele>
        <time>2014-11-01T08:24:35Z</time>
      </trkpt>
      <trkpt lat="42.346677000" lon="-2.488443000">
        <ele>526.90</ele>
        <time>2014-11-01T08:24:36Z</time>
      </trkpt>
      <trkpt lat="42.346645000" lon="-2.488475000">
        <ele>526.70</ele>
        <time>2014-11-01T08:24:37Z</time>
      </trkpt>
      <trkpt lat="42.346613000" lon="-2.488502000">
        <ele>526.80</ele>
        <time>2014-11-01T08:24:38Z</time>
      </trkpt>
      <trkpt lat="42.346583000" lon="-2.488531000">
        <ele>526.80</ele>
        <time>2014-11-01T08:24:39Z</time>
      </trkpt>
      <trkpt lat="42.346554000" lon="-2.488561000">
        <ele>526.90</ele>
        <time>2014-11-01T08:24:40Z</time>
      </trkpt>
      <trkpt lat="42.346523000" lon="-2.488588000">
        <ele>526.90</ele>
        <time>2014-11-01T08:24:41Z</time>
      </trkpt>
      <trkpt lat="42.346491000" lon="-2.488619000">
        <ele>526.90</ele>
        <time>2014-11-01T08:24:42Z</time>
      </trkpt>
      <trkpt lat="42.346460000" lon="-2.488647000">
        <ele>526.90</ele>
        <time>2014-11-01T08:24:43Z</time>
      </trkpt>
      <trkpt lat="42.346427000" lon="-2.488676000">
        <ele>527.70</ele>
        <time>2014-11-01T08:24:44Z</time>
      </trkpt>
      <trkpt lat="42.346394000" lon="-2.488705000">
        <ele>528.20</ele>
        <time>2014-11-01T08:24:45Z</time>
      </trkpt>
      <trkpt lat="42.346362000" lon="-2.488734000">
        <ele>528.60</ele>
        <time>2014-11-01T08:24:46Z</time>
      </trkpt>
      <trkpt lat="42.346329000" lon="-2.488754000">
        <ele>528.90</ele>
        <time>2014-11-01T08:24:47Z</time>
      </trkpt>
      <trkpt lat="42.346269000" lon="-2.488798000">
        <ele>529.00</ele>
        <time>2014-11-01T08:24:49Z</time>
      </trkpt>
      <trkpt lat="42.346233000" lon="-2.488821000">
        <ele>528.70</ele>
        <time>2014-11-01T08:24:50Z</time>
      </trkpt>
      <trkpt lat="42.346202000" lon="-2.488843000">
        <ele>528.60</ele>
        <time>2014-11-01T08:24:51Z</time>
      </trkpt>
      <trkpt lat="42.346172000" lon="-2.488867000">
        <ele>528.60</ele>
        <time>2014-11-01T08:24:52Z</time>
      </trkpt>
      <trkpt lat="42.346140000" lon="-2.488889000">
        <ele>528.70</ele>
        <time>2014-11-01T08:24:53Z</time>
      </trkpt>
      <trkpt lat="42.346108000" lon="-2.488913000">
        <ele>528.70</ele>
        <time>2014-11-01T08:24:54Z</time>
      </trkpt>
      <trkpt lat="42.346074000" lon="-2.488941000">
        <ele>528.70</ele>
        <time>2014-11-01T08:24:55Z</time>
      </trkpt>
      <trkpt lat="42.346039000" lon="-2.488969000">
        <ele>528.90</ele>
        <time>2014-11-01T08:24:56Z</time>
      </trkpt>
      <trkpt lat="42.346003000" lon="-2.488994000">
        <ele>529.00</ele>
        <time>2014-11-01T08:24:57Z</time>
      </trkpt>
      <trkpt lat="42.345967000" lon="-2.489016000">
        <ele>529.10</ele>
        <time>2014-11-01T08:24:58Z</time>
      </trkpt>
      <trkpt lat="42.345931000" lon="-2.489041000">
        <ele>529.10</ele>
        <time>2014-11-01T08:24:59Z</time>
      </trkpt>
      <trkpt lat="42.345897000" lon="-2.489069000">
        <ele>528.80</ele>
        <time>2014-11-01T08:25:00Z</time>
      </trkpt>
      <trkpt lat="42.345861000" lon="-2.489097000">
        <ele>528.60</ele>
        <time>2014-11-01T08:25:01Z</time>
      </trkpt>
      <trkpt lat="42.345826000" lon="-2.489126000">
        <ele>528.40</ele>
        <time>2014-11-01T08:25:02Z</time>
      </trkpt>
      <trkpt lat="42.345791000" lon="-2.489148000">
        <ele>528.10</ele>
        <time>2014-11-01T08:25:03Z</time>
      </trkpt>
      <trkpt lat="42.345755000" lon="-2.489175000">
        <ele>528.00</ele>
        <time>2014-11-01T08:25:04Z</time>
      </trkpt>
      <trkpt lat="42.345717000" lon="-2.489196000">
        <ele>527.90</ele>
        <time>2014-11-01T08:25:05Z</time>
      </trkpt>
      <trkpt lat="42.345681000" lon="-2.489215000">
        <ele>528.20</ele>
        <time>2014-11-01T08:25:06Z</time>
      </trkpt>
      <trkpt lat="42.345646000" lon="-2.489232000">
        <ele>528.40</ele>
        <time>2014-11-01T08:25:07Z</time>
      </trkpt>
      <trkpt lat="42.345613000" lon="-2.489251000">
        <ele>528.70</ele>
        <time>2014-11-01T08:25:08Z</time>
      </trkpt>
      <trkpt lat="42.345582000" lon="-2.489271000">
        <ele>528.90</ele>
        <time>2014-11-01T08:25:09Z</time>
      </trkpt>
      <trkpt lat="42.345550000" lon="-2.489299000">
        <ele>529.10</ele>
        <time>2014-11-01T08:25:10Z</time>
      </trkpt>
      <trkpt lat="42.345523000" lon="-2.489329000">
        <ele>529.20</ele>
        <time>2014-11-01T08:25:11Z</time>
      </trkpt>
      <trkpt lat="42.345498000" lon="-2.489362000">
        <ele>529.30</ele>
        <time>2014-11-01T08:25:12Z</time>
      </trkpt>
      <trkpt lat="42.345469000" lon="-2.489400000">
        <ele>529.40</ele>
        <time>2014-11-01T08:25:13Z</time>
      </trkpt>
      <trkpt lat="42.345442000" lon="-2.489434000">
        <ele>529.20</ele>
        <time>2014-11-01T08:25:14Z</time>
      </trkpt>
      <trkpt lat="42.345419000" lon="-2.489471000">
        <ele>529.10</ele>
        <time>2014-11-01T08:25:15Z</time>
      </trkpt>
      <trkpt lat="42.345393000" lon="-2.489510000">
        <ele>529.10</ele>
        <time>2014-11-01T08:25:16Z</time>
      </trkpt>
      <trkpt lat="42.345366000" lon="-2.489549000">
        <ele>529.00</ele>
        <time>2014-11-01T08:25:17Z</time>
      </trkpt>
      <trkpt lat="42.345340000" lon="-2.489586000">
        <ele>529.30</ele>
        <time>2014-11-01T08:25:18Z</time>
      </trkpt>
      <trkpt lat="42.345317000" lon="-2.489624000">
        <ele>529.50</ele>
        <time>2014-11-01T08:25:19Z</time>
      </trkpt>
      <trkpt lat="42.345290000" lon="-2.489662000">
        <ele>529.70</ele>
        <time>2014-11-01T08:25:20Z</time>
      </trkpt>
      <trkpt lat="42.345264000" lon="-2.489695000">
        <ele>529.80</ele>
        <time>2014-11-01T08:25:21Z</time>
      </trkpt>
      <trkpt lat="42.345234000" lon="-2.489722000">
        <ele>529.90</ele>
        <time>2014-11-01T08:25:22Z</time>
      </trkpt>
      <trkpt lat="42.345201000" lon="-2.489749000">
        <ele>530.00</ele>
        <time>2014-11-01T08:25:23Z</time>
      </trkpt>
      <trkpt lat="42.345167000" lon="-2.489772000">
        <ele>529.80</ele>
        <time>2014-11-01T08:25:24Z</time>
      </trkpt>
      <trkpt lat="42.345131000" lon="-2.489793000">
        <ele>529.70</ele>
        <time>2014-11-01T08:25:25Z</time>
      </trkpt>
      <trkpt lat="42.345091000" lon="-2.489817000">
        <ele>529.80</ele>
        <time>2014-11-01T08:25:26Z</time>
      </trkpt>
      <trkpt lat="42.345055000" lon="-2.489843000">
        <ele>529.90</ele>
        <time>2014-11-01T08:25:27Z</time>
      </trkpt>
      <trkpt lat="42.345019000" lon="-2.489864000">
        <ele>530.00</ele>
        <time>2014-11-01T08:25:28Z</time>
      </trkpt>
      <trkpt lat="42.344978000" lon="-2.489892000">
        <ele>530.00</ele>
        <time>2014-11-01T08:25:29Z</time>
      </trkpt>
      <trkpt lat="42.344942000" lon="-2.489914000">
        <ele>530.10</ele>
        <time>2014-11-01T08:25:30Z</time>
      </trkpt>
      <trkpt lat="42.344905000" lon="-2.489941000">
        <ele>530.10</ele>
        <time>2014-11-01T08:25:31Z</time>
      </trkpt>
      <trkpt lat="42.344872000" lon="-2.489966000">
        <ele>529.90</ele>
        <time>2014-11-01T08:25:32Z</time>
      </trkpt>
      <trkpt lat="42.344838000" lon="-2.489990000">
        <ele>529.80</ele>
        <time>2014-11-01T08:25:33Z</time>
      </trkpt>
      <trkpt lat="42.344803000" lon="-2.490015000">
        <ele>529.70</ele>
        <time>2014-11-01T08:25:34Z</time>
      </trkpt>
      <trkpt lat="42.344769000" lon="-2.490040000">
        <ele>529.70</ele>
        <time>2014-11-01T08:25:35Z</time>
      </trkpt>
      <trkpt lat="42.344734000" lon="-2.490064000">
        <ele>530.00</ele>
        <time>2014-11-01T08:25:36Z</time>
      </trkpt>
      <trkpt lat="42.344700000" lon="-2.490090000">
        <ele>530.20</ele>
        <time>2014-11-01T08:25:37Z</time>
      </trkpt>
      <trkpt lat="42.344666000" lon="-2.490115000">
        <ele>530.30</ele>
        <time>2014-11-01T08:25:38Z</time>
      </trkpt>
      <trkpt lat="42.344629000" lon="-2.490139000">
        <ele>530.40</ele>
        <time>2014-11-01T08:25:39Z</time>
      </trkpt>
      <trkpt lat="42.344593000" lon="-2.490163000">
        <ele>530.50</ele>
        <time>2014-11-01T08:25:40Z</time>
      </trkpt>
      <trkpt lat="42.344558000" lon="-2.490190000">
        <ele>530.60</ele>
        <time>2014-11-01T08:25:41Z</time>
      </trkpt>
      <trkpt lat="42.344522000" lon="-2.490212000">
        <ele>530.70</ele>
        <time>2014-11-01T08:25:42Z</time>
      </trkpt>
      <trkpt lat="42.344485000" lon="-2.490232000">
        <ele>530.80</ele>
        <time>2014-11-01T08:25:43Z</time>
      </trkpt>
      <trkpt lat="42.344450000" lon="-2.490254000">
        <ele>530.90</ele>
        <time>2014-11-01T08:25:44Z</time>
      </trkpt>
      <trkpt lat="42.344413000" lon="-2.490271000">
        <ele>530.90</ele>
        <time>2014-11-01T08:25:45Z</time>
      </trkpt>
      <trkpt lat="42.344378000" lon="-2.490287000">
        <ele>531.00</ele>
        <time>2014-11-01T08:25:46Z</time>
      </trkpt>
      <trkpt lat="42.344343000" lon="-2.490305000">
        <ele>531.10</ele>
        <time>2014-11-01T08:25:47Z</time>
      </trkpt>
      <trkpt lat="42.344308000" lon="-2.490323000">
        <ele>531.00</ele>
        <time>2014-11-01T08:25:48Z</time>
      </trkpt>
      <trkpt lat="42.344244000" lon="-2.490359000">
        <ele>531.00</ele>
        <time>2014-11-01T08:25:50Z</time>
      </trkpt>
      <trkpt lat="42.344211000" lon="-2.490378000">
        <ele>531.10</ele>
        <time>2014-11-01T08:25:51Z</time>
      </trkpt>
      <trkpt lat="42.344176000" lon="-2.490397000">
        <ele>531.40</ele>
        <time>2014-11-01T08:25:52Z</time>
      </trkpt>
      <trkpt lat="42.344145000" lon="-2.490421000">
        <ele>531.60</ele>
        <time>2014-11-01T08:25:53Z</time>
      </trkpt>
      <trkpt lat="42.344111000" lon="-2.490445000">
        <ele>531.80</ele>
        <time>2014-11-01T08:25:54Z</time>
      </trkpt>
      <trkpt lat="42.344077000" lon="-2.490469000">
        <ele>532.00</ele>
        <time>2014-11-01T08:25:55Z</time>
      </trkpt>
      <trkpt lat="42.344041000" lon="-2.490494000">
        <ele>532.00</ele>
        <time>2014-11-01T08:25:56Z</time>
      </trkpt>
      <trkpt lat="42.344007000" lon="-2.490517000">
        <ele>532.00</ele>
        <time>2014-11-01T08:25:57Z</time>
      </trkpt>
      <trkpt lat="42.343974000" lon="-2.490540000">
        <ele>531.90</ele>
        <time>2014-11-01T08:25:58Z</time>
      </trkpt>
      <trkpt lat="42.343941000" lon="-2.490562000">
        <ele>531.80</ele>
        <time>2014-11-01T08:25:59Z</time>
      </trkpt>
      <trkpt lat="42.343905000" lon="-2.490584000">
        <ele>531.90</ele>
        <time>2014-11-01T08:26:00Z</time>
      </trkpt>
      <trkpt lat="42.343873000" lon="-2.490606000">
        <ele>531.90</ele>
        <time>2014-11-01T08:26:01Z</time>
      </trkpt>
      <trkpt lat="42.343846000" lon="-2.490636000">
        <ele>531.80</ele>
        <time>2014-11-01T08:26:02Z</time>
      </trkpt>
      <trkpt lat="42.343816000" lon="-2.490668000">
        <ele>531.80</ele>
        <time>2014-11-01T08:26:03Z</time>
      </trkpt>
      <trkpt lat="42.343788000" lon="-2.490702000">
        <ele>531.90</ele>
        <time>2014-11-01T08:26:04Z</time>
      </trkpt>
      <trkpt lat="42.343765000" lon="-2.490738000">
        <ele>531.90</ele>
        <time>2014-11-01T08:26:05Z</time>
      </trkpt>
      <trkpt lat="42.343741000" lon="-2.490773000">
        <ele>531.80</ele>
        <time>2014-11-01T08:26:06Z</time>
      </trkpt>
      <trkpt lat="42.343721000" lon="-2.490811000">
        <ele>531.80</ele>
        <time>2014-11-01T08:26:07Z</time>
      </trkpt>
      <trkpt lat="42.343698000" lon="-2.490850000">
        <ele>531.80</ele>
        <time>2014-11-01T08:26:08Z</time>
      </trkpt>
      <trkpt lat="42.343673000" lon="-2.490890000">
        <ele>531.80</ele>
        <time>2014-11-01T08:26:09Z</time>
      </trkpt>
      <trkpt lat="42.343643000" lon="-2.490926000">
        <ele>531.90</ele>
        <time>2014-11-01T08:26:10Z</time>
      </trkpt>
      <trkpt lat="42.343616000" lon="-2.490964000">
        <ele>531.90</ele>
        <time>2014-11-01T08:26:11Z</time>
      </trkpt>
      <trkpt lat="42.343591000" lon="-2.490999000">
        <ele>531.90</ele>
        <time>2014-11-01T08:26:12Z</time>
      </trkpt>
      <trkpt lat="42.343566000" lon="-2.491034000">
        <ele>531.90</ele>
        <time>2014-11-01T08:26:13Z</time>
      </trkpt>
      <trkpt lat="42.343539000" lon="-2.491068000">
        <ele>532.20</ele>
        <time>2014-11-01T08:26:14Z</time>
      </trkpt>
      <trkpt lat="42.343511000" lon="-2.491099000">
        <ele>532.40</ele>
        <time>2014-11-01T08:26:15Z</time>
      </trkpt>
      <trkpt lat="42.343485000" lon="-2.491130000">
        <ele>532.50</ele>
        <time>2014-11-01T08:26:16Z</time>
      </trkpt>
      <trkpt lat="42.343459000" lon="-2.491159000">
        <ele>532.60</ele>
        <time>2014-11-01T08:26:17Z</time>
      </trkpt>
      <trkpt lat="42.343430000" lon="-2.491192000">
        <ele>532.70</ele>
        <time>2014-11-01T08:26:18Z</time>
      </trkpt>
      <trkpt lat="42.343402000" lon="-2.491224000">
        <ele>532.80</ele>
        <time>2014-11-01T08:26:19Z</time>
      </trkpt>
      <trkpt lat="42.343377000" lon="-2.491258000">
        <ele>532.90</ele>
        <time>2014-11-01T08:26:20Z</time>
      </trkpt>
      <trkpt lat="42.343349000" lon="-2.491288000">
        <ele>533.10</ele>
        <time>2014-11-01T08:26:21Z</time>
      </trkpt>
      <trkpt lat="42.343320000" lon="-2.491320000">
        <ele>533.20</ele>
        <time>2014-11-01T08:26:22Z</time>
      </trkpt>
      <trkpt lat="42.343292000" lon="-2.491356000">
        <ele>533.40</ele>
        <time>2014-11-01T08:26:23Z</time>
      </trkpt>
      <trkpt lat="42.343264000" lon="-2.491389000">
        <ele>533.50</ele>
        <time>2014-11-01T08:26:24Z</time>
      </trkpt>
      <trkpt lat="42.343237000" lon="-2.491427000">
        <ele>533.50</ele>
        <time>2014-11-01T08:26:25Z</time>
      </trkpt>
      <trkpt lat="42.343212000" lon="-2.491461000">
        <ele>533.80</ele>
        <time>2014-11-01T08:26:26Z</time>
      </trkpt>
      <trkpt lat="42.343187000" lon="-2.491492000">
        <ele>533.90</ele>
        <time>2014-11-01T08:26:27Z</time>
      </trkpt>
      <trkpt lat="42.343165000" lon="-2.491527000">
        <ele>534.00</ele>
        <time>2014-11-01T08:26:28Z</time>
      </trkpt>
      <trkpt lat="42.343143000" lon="-2.491559000">
        <ele>534.10</ele>
        <time>2014-11-01T08:26:29Z</time>
      </trkpt>
      <trkpt lat="42.343118000" lon="-2.491593000">
        <ele>534.00</ele>
        <time>2014-11-01T08:26:30Z</time>
      </trkpt>
      <trkpt lat="42.343093000" lon="-2.491626000">
        <ele>534.00</ele>
        <time>2014-11-01T08:26:31Z</time>
      </trkpt>
      <trkpt lat="42.343069000" lon="-2.491659000">
        <ele>533.90</ele>
        <time>2014-11-01T08:26:32Z</time>
      </trkpt>
      <trkpt lat="42.343043000" lon="-2.491690000">
        <ele>533.90</ele>
        <time>2014-11-01T08:26:33Z</time>
      </trkpt>
      <trkpt lat="42.343017000" lon="-2.491722000">
        <ele>533.80</ele>
        <time>2014-11-01T08:26:34Z</time>
      </trkpt>
      <trkpt lat="42.342992000" lon="-2.491754000">
        <ele>533.80</ele>
        <time>2014-11-01T08:26:35Z</time>
      </trkpt>
      <trkpt lat="42.342967000" lon="-2.491787000">
        <ele>534.00</ele>
        <time>2014-11-01T08:26:36Z</time>
      </trkpt>
      <trkpt lat="42.342942000" lon="-2.491818000">
        <ele>534.20</ele>
        <time>2014-11-01T08:26:37Z</time>
      </trkpt>
      <trkpt lat="42.342914000" lon="-2.491852000">
        <ele>534.40</ele>
        <time>2014-11-01T08:26:38Z</time>
      </trkpt>
      <trkpt lat="42.342891000" lon="-2.491886000">
        <ele>534.60</ele>
        <time>2014-11-01T08:26:39Z</time>
      </trkpt>
      <trkpt lat="42.342863000" lon="-2.491916000">
        <ele>534.80</ele>
        <time>2014-11-01T08:26:40Z</time>
      </trkpt>
      <trkpt lat="42.342827000" lon="-2.491949000">
        <ele>534.90</ele>
        <time>2014-11-01T08:26:41Z</time>
      </trkpt>
      <trkpt lat="42.342784000" lon="-2.491981000">
        <ele>535.00</ele>
        <time>2014-11-01T08:26:42Z</time>
      </trkpt>
      <trkpt lat="42.342750000" lon="-2.492021000">
        <ele>535.00</ele>
        <time>2014-11-01T08:26:43Z</time>
      </trkpt>
      <trkpt lat="42.342714000" lon="-2.492059000">
        <ele>535.10</ele>
        <time>2014-11-01T08:26:44Z</time>
      </trkpt>
      <trkpt lat="42.342682000" lon="-2.492095000">
        <ele>535.10</ele>
        <time>2014-11-01T08:26:45Z</time>
      </trkpt>
      <trkpt lat="42.342651000" lon="-2.492135000">
        <ele>535.30</ele>
        <time>2014-11-01T08:26:46Z</time>
      </trkpt>
      <trkpt lat="42.342620000" lon="-2.492176000">
        <ele>535.40</ele>
        <time>2014-11-01T08:26:47Z</time>
      </trkpt>
      <trkpt lat="42.342588000" lon="-2.492219000">
        <ele>535.50</ele>
        <time>2014-11-01T08:26:48Z</time>
      </trkpt>
      <trkpt lat="42.342560000" lon="-2.492263000">
        <ele>535.50</ele>
        <time>2014-11-01T08:26:49Z</time>
      </trkpt>
      <trkpt lat="42.342511000" lon="-2.492347000">
        <ele>535.60</ele>
        <time>2014-11-01T08:26:51Z</time>
      </trkpt>
      <trkpt lat="42.342488000" lon="-2.492391000">
        <ele>535.60</ele>
        <time>2014-11-01T08:26:52Z</time>
      </trkpt>
      <trkpt lat="42.342465000" lon="-2.492439000">
        <ele>535.70</ele>
        <time>2014-11-01T08:26:53Z</time>
      </trkpt>
      <trkpt lat="42.342443000" lon="-2.492485000">
        <ele>535.80</ele>
        <time>2014-11-01T08:26:54Z</time>
      </trkpt>
      <trkpt lat="42.342423000" lon="-2.492535000">
        <ele>535.90</ele>
        <time>2014-11-01T08:26:55Z</time>
      </trkpt>
      <trkpt lat="42.342403000" lon="-2.492580000">
        <ele>536.30</ele>
        <time>2014-11-01T08:26:56Z</time>
      </trkpt>
      <trkpt lat="42.342384000" lon="-2.492627000">
        <ele>536.60</ele>
        <time>2014-11-01T08:26:57Z</time>
      </trkpt>
      <trkpt lat="42.342364000" lon="-2.492671000">
        <ele>536.90</ele>
        <time>2014-11-01T08:26:58Z</time>
      </trkpt>
      <trkpt lat="42.342344000" lon="-2.492712000">
        <ele>537.00</ele>
        <time>2014-11-01T08:26:59Z</time>
      </trkpt>
      <trkpt lat="42.342325000" lon="-2.492757000">
        <ele>536.80</ele>
        <time>2014-11-01T08:27:00Z</time>
      </trkpt>
      <trkpt lat="42.342305000" lon="-2.492799000">
        <ele>536.60</ele>
        <time>2014-11-01T08:27:01Z</time>
      </trkpt>
      <trkpt lat="42.342286000" lon="-2.492840000">
        <ele>536.50</ele>
        <time>2014-11-01T08:27:02Z</time>
      </trkpt>
      <trkpt lat="42.342267000" lon="-2.492882000">
        <ele>536.40</ele>
        <time>2014-11-01T08:27:03Z</time>
      </trkpt>
      <trkpt lat="42.342249000" lon="-2.492926000">
        <ele>536.30</ele>
        <time>2014-11-01T08:27:04Z</time>
      </trkpt>
      <trkpt lat="42.342228000" lon="-2.492969000">
        <ele>536.20</ele>
        <time>2014-11-01T08:27:05Z</time>
      </trkpt>
      <trkpt lat="42.342205000" lon="-2.493009000">
        <ele>536.20</ele>
        <time>2014-11-01T08:27:06Z</time>
      </trkpt>
      <trkpt lat="42.342178000" lon="-2.493050000">
        <ele>536.20</ele>
        <time>2014-11-01T08:27:07Z</time>
      </trkpt>
      <trkpt lat="42.342150000" lon="-2.493095000">
        <ele>536.30</ele>
        <time>2014-11-01T08:27:08Z</time>
      </trkpt>
      <trkpt lat="42.342124000" lon="-2.493134000">
        <ele>536.40</ele>
        <time>2014-11-01T08:27:09Z</time>
      </trkpt>
      <trkpt lat="42.342101000" lon="-2.493172000">
        <ele>536.60</ele>
        <time>2014-11-01T08:27:10Z</time>
      </trkpt>
      <trkpt lat="42.342079000" lon="-2.493212000">
        <ele>536.70</ele>
        <time>2014-11-01T08:27:11Z</time>
      </trkpt>
      <trkpt lat="42.342054000" lon="-2.493251000">
        <ele>536.80</ele>
        <time>2014-11-01T08:27:12Z</time>
      </trkpt>
      <trkpt lat="42.342030000" lon="-2.493295000">
        <ele>536.90</ele>
        <time>2014-11-01T08:27:13Z</time>
      </trkpt>
      <trkpt lat="42.342007000" lon="-2.493342000">
        <ele>537.00</ele>
        <time>2014-11-01T08:27:14Z</time>
      </trkpt>
      <trkpt lat="42.341990000" lon="-2.493393000">
        <ele>537.10</ele>
        <time>2014-11-01T08:27:15Z</time>
      </trkpt>
      <trkpt lat="42.341986000" lon="-2.493443000">
        <ele>537.40</ele>
        <time>2014-11-01T08:27:16Z</time>
      </trkpt>
      <trkpt lat="42.341981000" lon="-2.493490000">
        <ele>537.60</ele>
        <time>2014-11-01T08:27:17Z</time>
      </trkpt>
      <trkpt lat="42.341974000" lon="-2.493537000">
        <ele>537.80</ele>
        <time>2014-11-01T08:27:18Z</time>
      </trkpt>
      <trkpt lat="42.341963000" lon="-2.493586000">
        <ele>537.90</ele>
        <time>2014-11-01T08:27:19Z</time>
      </trkpt>
      <trkpt lat="42.341950000" lon="-2.493638000">
        <ele>538.20</ele>
        <time>2014-11-01T08:27:20Z</time>
      </trkpt>
      <trkpt lat="42.341934000" lon="-2.493683000">
        <ele>538.40</ele>
        <time>2014-11-01T08:27:21Z</time>
      </trkpt>
      <trkpt lat="42.341915000" lon="-2.493727000">
        <ele>538.50</ele>
        <time>2014-11-01T08:27:22Z</time>
      </trkpt>
      <trkpt lat="42.341891000" lon="-2.493767000">
        <ele>538.60</ele>
        <time>2014-11-01T08:27:23Z</time>
      </trkpt>
      <trkpt lat="42.341867000" lon="-2.493809000">
        <ele>538.70</ele>
        <time>2014-11-01T08:27:24Z</time>
      </trkpt>
      <trkpt lat="42.341845000" lon="-2.493850000">
        <ele>538.80</ele>
        <time>2014-11-01T08:27:25Z</time>
      </trkpt>
      <trkpt lat="42.341822000" lon="-2.493889000">
        <ele>538.50</ele>
        <time>2014-11-01T08:27:26Z</time>
      </trkpt>
      <trkpt lat="42.341798000" lon="-2.493931000">
        <ele>538.40</ele>
        <time>2014-11-01T08:27:27Z</time>
      </trkpt>
      <trkpt lat="42.341777000" lon="-2.493977000">
        <ele>538.30</ele>
        <time>2014-11-01T08:27:28Z</time>
      </trkpt>
      <trkpt lat="42.341754000" lon="-2.494019000">
        <ele>538.20</ele>
        <time>2014-11-01T08:27:29Z</time>
      </trkpt>
      <trkpt lat="42.341730000" lon="-2.494063000">
        <ele>538.40</ele>
        <time>2014-11-01T08:27:30Z</time>
      </trkpt>
      <trkpt lat="42.341707000" lon="-2.494104000">
        <ele>538.60</ele>
        <time>2014-11-01T08:27:31Z</time>
      </trkpt>
      <trkpt lat="42.341683000" lon="-2.494148000">
        <ele>538.80</ele>
        <time>2014-11-01T08:27:32Z</time>
      </trkpt>
      <trkpt lat="42.341654000" lon="-2.494188000">
        <ele>538.90</ele>
        <time>2014-11-01T08:27:33Z</time>
      </trkpt>
      <trkpt lat="42.341625000" lon="-2.494226000">
        <ele>539.00</ele>
        <time>2014-11-01T08:27:34Z</time>
      </trkpt>
      <trkpt lat="42.341595000" lon="-2.494264000">
        <ele>539.10</ele>
        <time>2014-11-01T08:27:35Z</time>
      </trkpt>
      <trkpt lat="42.341563000" lon="-2.494304000">
        <ele>539.10</ele>
        <time>2014-11-01T08:27:36Z</time>
      </trkpt>
      <trkpt lat="42.341533000" lon="-2.494341000">
        <ele>539.00</ele>
        <time>2014-11-01T08:27:37Z</time>
      </trkpt>
      <trkpt lat="42.341501000" lon="-2.494374000">
        <ele>539.00</ele>
        <time>2014-11-01T08:27:38Z</time>
      </trkpt>
      <trkpt lat="42.341470000" lon="-2.494411000">
        <ele>539.00</ele>
        <time>2014-11-01T08:27:39Z</time>
      </trkpt>
      <trkpt lat="42.341439000" lon="-2.494446000">
        <ele>539.00</ele>
        <time>2014-11-01T08:27:40Z</time>
      </trkpt>
      <trkpt lat="42.341407000" lon="-2.494480000">
        <ele>539.00</ele>
        <time>2014-11-01T08:27:41Z</time>
      </trkpt>
      <trkpt lat="42.341376000" lon="-2.494518000">
        <ele>539.00</ele>
        <time>2014-11-01T08:27:42Z</time>
      </trkpt>
      <trkpt lat="42.341346000" lon="-2.494549000">
        <ele>539.00</ele>
        <time>2014-11-01T08:27:43Z</time>
      </trkpt>
      <trkpt lat="42.341315000" lon="-2.494585000">
        <ele>539.10</ele>
        <time>2014-11-01T08:27:44Z</time>
      </trkpt>
      <trkpt lat="42.341281000" lon="-2.494621000">
        <ele>539.20</ele>
        <time>2014-11-01T08:27:45Z</time>
      </trkpt>
      <trkpt lat="42.341251000" lon="-2.494653000">
        <ele>539.30</ele>
        <time>2014-11-01T08:27:46Z</time>
      </trkpt>
      <trkpt lat="42.341222000" lon="-2.494689000">
        <ele>539.40</ele>
        <time>2014-11-01T08:27:47Z</time>
      </trkpt>
      <trkpt lat="42.341196000" lon="-2.494729000">
        <ele>539.40</ele>
        <time>2014-11-01T08:27:48Z</time>
      </trkpt>
      <trkpt lat="42.341170000" lon="-2.494768000">
        <ele>539.40</ele>
        <time>2014-11-01T08:27:49Z</time>
      </trkpt>
      <trkpt lat="42.341145000" lon="-2.494808000">
        <ele>539.30</ele>
        <time>2014-11-01T08:27:50Z</time>
      </trkpt>
      <trkpt lat="42.341097000" lon="-2.494890000">
        <ele>539.10</ele>
        <time>2014-11-01T08:27:52Z</time>
      </trkpt>
      <trkpt lat="42.341075000" lon="-2.494932000">
        <ele>539.10</ele>
        <time>2014-11-01T08:27:53Z</time>
      </trkpt>
      <trkpt lat="42.341052000" lon="-2.494977000">
        <ele>539.10</ele>
        <time>2014-11-01T08:27:54Z</time>
      </trkpt>
      <trkpt lat="42.341033000" lon="-2.495028000">
        <ele>539.00</ele>
        <time>2014-11-01T08:27:55Z</time>
      </trkpt>
      <trkpt lat="42.341012000" lon="-2.495074000">
        <ele>539.00</ele>
        <time>2014-11-01T08:27:56Z</time>
      </trkpt>
      <trkpt lat="42.340992000" lon="-2.495123000">
        <ele>539.00</ele>
        <time>2014-11-01T08:27:57Z</time>
      </trkpt>
      <trkpt lat="42.340972000" lon="-2.495167000">
        <ele>539.00</ele>
        <time>2014-11-01T08:27:58Z</time>
      </trkpt>
      <trkpt lat="42.340953000" lon="-2.495213000">
        <ele>539.10</ele>
        <time>2014-11-01T08:27:59Z</time>
      </trkpt>
      <trkpt lat="42.340933000" lon="-2.495260000">
        <ele>539.00</ele>
        <time>2014-11-01T08:28:00Z</time>
      </trkpt>
      <trkpt lat="42.340913000" lon="-2.495304000">
        <ele>539.00</ele>
        <time>2014-11-01T08:28:01Z</time>
      </trkpt>
      <trkpt lat="42.340888000" lon="-2.495347000">
        <ele>539.20</ele>
        <time>2014-11-01T08:28:02Z</time>
      </trkpt>
      <trkpt lat="42.340862000" lon="-2.495385000">
        <ele>539.30</ele>
        <time>2014-11-01T08:28:03Z</time>
      </trkpt>
      <trkpt lat="42.340838000" lon="-2.495422000">
        <ele>539.50</ele>
        <time>2014-11-01T08:28:04Z</time>
      </trkpt>
      <trkpt lat="42.340816000" lon="-2.495463000">
        <ele>539.60</ele>
        <time>2014-11-01T08:28:05Z</time>
      </trkpt>
      <trkpt lat="42.340793000" lon="-2.495503000">
        <ele>539.70</ele>
        <time>2014-11-01T08:28:06Z</time>
      </trkpt>
      <trkpt lat="42.340776000" lon="-2.495541000">
        <ele>539.80</ele>
        <time>2014-11-01T08:28:07Z</time>
      </trkpt>
      <trkpt lat="42.340756000" lon="-2.495580000">
        <ele>539.80</ele>
        <time>2014-11-01T08:28:08Z</time>
      </trkpt>
      <trkpt lat="42.340735000" lon="-2.495618000">
        <ele>539.90</ele>
        <time>2014-11-01T08:28:09Z</time>
      </trkpt>
      <trkpt lat="42.340713000" lon="-2.495660000">
        <ele>540.00</ele>
        <time>2014-11-01T08:28:10Z</time>
      </trkpt>
      <trkpt lat="42.340692000" lon="-2.495703000">
        <ele>540.10</ele>
        <time>2014-11-01T08:28:11Z</time>
      </trkpt>
      <trkpt lat="42.340666000" lon="-2.495746000">
        <ele>540.20</ele>
        <time>2014-11-01T08:28:12Z</time>
      </trkpt>
      <trkpt lat="42.340641000" lon="-2.495788000">
        <ele>540.30</ele>
        <time>2014-11-01T08:28:13Z</time>
      </trkpt>
      <trkpt lat="42.340619000" lon="-2.495827000">
        <ele>540.30</ele>
        <time>2014-11-01T08:28:14Z</time>
      </trkpt>
      <trkpt lat="42.340593000" lon="-2.495866000">
        <ele>540.30</ele>
        <time>2014-11-01T08:28:15Z</time>
      </trkpt>
      <trkpt lat="42.340567000" lon="-2.495908000">
        <ele>540.30</ele>
        <time>2014-11-01T08:28:16Z</time>
      </trkpt>
      <trkpt lat="42.340542000" lon="-2.495949000">
        <ele>540.30</ele>
        <time>2014-11-01T08:28:17Z</time>
      </trkpt>
      <trkpt lat="42.340515000" lon="-2.495987000">
        <ele>540.40</ele>
        <time>2014-11-01T08:28:18Z</time>
      </trkpt>
      <trkpt lat="42.340487000" lon="-2.496025000">
        <ele>540.40</ele>
        <time>2014-11-01T08:28:19Z</time>
      </trkpt>
      <trkpt lat="42.340462000" lon="-2.496062000">
        <ele>540.50</ele>
        <time>2014-11-01T08:28:20Z</time>
      </trkpt>
      <trkpt lat="42.340434000" lon="-2.496099000">
        <ele>540.60</ele>
        <time>2014-11-01T08:28:21Z</time>
      </trkpt>
      <trkpt lat="42.340407000" lon="-2.496136000">
        <ele>540.60</ele>
        <time>2014-11-01T08:28:22Z</time>
      </trkpt>
      <trkpt lat="42.340379000" lon="-2.496173000">
        <ele>540.60</ele>
        <time>2014-11-01T08:28:23Z</time>
      </trkpt>
      <trkpt lat="42.340350000" lon="-2.496209000">
        <ele>540.70</ele>
        <time>2014-11-01T08:28:24Z</time>
      </trkpt>
      <trkpt lat="42.340322000" lon="-2.496246000">
        <ele>540.70</ele>
        <time>2014-11-01T08:28:25Z</time>
      </trkpt>
      <trkpt lat="42.340296000" lon="-2.496286000">
        <ele>540.50</ele>
        <time>2014-11-01T08:28:26Z</time>
      </trkpt>
      <trkpt lat="42.340270000" lon="-2.496325000">
        <ele>540.30</ele>
        <time>2014-11-01T08:28:27Z</time>
      </trkpt>
      <trkpt lat="42.340244000" lon="-2.496366000">
        <ele>540.50</ele>
        <time>2014-11-01T08:28:28Z</time>
      </trkpt>
      <trkpt lat="42.340219000" lon="-2.496407000">
        <ele>540.60</ele>
        <time>2014-11-01T08:28:29Z</time>
      </trkpt>
      <trkpt lat="42.340196000" lon="-2.496448000">
        <ele>541.00</ele>
        <time>2014-11-01T08:28:30Z</time>
      </trkpt>
      <trkpt lat="42.340177000" lon="-2.496488000">
        <ele>541.30</ele>
        <time>2014-11-01T08:28:31Z</time>
      </trkpt>
      <trkpt lat="42.340158000" lon="-2.496530000">
        <ele>541.50</ele>
        <time>2014-11-01T08:28:32Z</time>
      </trkpt>
      <trkpt lat="42.340139000" lon="-2.496567000">
        <ele>541.70</ele>
        <time>2014-11-01T08:28:33Z</time>
      </trkpt>
      <trkpt lat="42.340120000" lon="-2.496608000">
        <ele>541.80</ele>
        <time>2014-11-01T08:28:34Z</time>
      </trkpt>
      <trkpt lat="42.340100000" lon="-2.496648000">
        <ele>541.90</ele>
        <time>2014-11-01T08:28:35Z</time>
      </trkpt>
      <trkpt lat="42.340078000" lon="-2.496690000">
        <ele>542.00</ele>
        <time>2014-11-01T08:28:36Z</time>
      </trkpt>
      <trkpt lat="42.340061000" lon="-2.496734000">
        <ele>542.10</ele>
        <time>2014-11-01T08:28:37Z</time>
      </trkpt>
      <trkpt lat="42.340048000" lon="-2.496775000">
        <ele>542.20</ele>
        <time>2014-11-01T08:28:38Z</time>
      </trkpt>
      <trkpt lat="42.340033000" lon="-2.496820000">
        <ele>542.40</ele>
        <time>2014-11-01T08:28:39Z</time>
      </trkpt>
      <trkpt lat="42.340018000" lon="-2.496861000">
        <ele>542.50</ele>
        <time>2014-11-01T08:28:40Z</time>
      </trkpt>
      <trkpt lat="42.340003000" lon="-2.496906000">
        <ele>542.50</ele>
        <time>2014-11-01T08:28:41Z</time>
      </trkpt>
      <trkpt lat="42.339984000" lon="-2.496951000">
        <ele>542.70</ele>
        <time>2014-11-01T08:28:42Z</time>
      </trkpt>
      <trkpt lat="42.339970000" lon="-2.496999000">
        <ele>542.80</ele>
        <time>2014-11-01T08:28:43Z</time>
      </trkpt>
      <trkpt lat="42.339958000" lon="-2.497046000">
        <ele>542.90</ele>
        <time>2014-11-01T08:28:44Z</time>
      </trkpt>
      <trkpt lat="42.339947000" lon="-2.497094000">
        <ele>543.00</ele>
        <time>2014-11-01T08:28:45Z</time>
      </trkpt>
      <trkpt lat="42.339937000" lon="-2.497141000">
        <ele>543.10</ele>
        <time>2014-11-01T08:28:45Z</time>
      </trkpt>
      <trkpt lat="42.339927000" lon="-2.497189000">
        <ele>543.10</ele>
        <time>2014-11-01T08:28:47Z</time>
      </trkpt>
      <trkpt lat="42.339917000" lon="-2.497237000">
        <ele>543.20</ele>
        <time>2014-11-01T08:28:48Z</time>
      </trkpt>
      <trkpt lat="42.339909000" lon="-2.497286000">
        <ele>543.20</ele>
        <time>2014-11-01T08:28:49Z</time>
      </trkpt>
      <trkpt lat="42.339899000" lon="-2.497335000">
        <ele>542.90</ele>
        <time>2014-11-01T08:28:50Z</time>
      </trkpt>
      <trkpt lat="42.339887000" lon="-2.497386000">
        <ele>542.80</ele>
        <time>2014-11-01T08:28:51Z</time>
      </trkpt>
      <trkpt lat="42.339865000" lon="-2.497486000">
        <ele>543.60</ele>
        <time>2014-11-01T08:28:53Z</time>
      </trkpt>
      <trkpt lat="42.339855000" lon="-2.497536000">
        <ele>543.70</ele>
        <time>2014-11-01T08:28:54Z</time>
      </trkpt>
      <trkpt lat="42.339842000" lon="-2.497587000">
        <ele>543.70</ele>
        <time>2014-11-01T08:28:55Z</time>
      </trkpt>
      <trkpt lat="42.339830000" lon="-2.497636000">
        <ele>543.70</ele>
        <time>2014-11-01T08:28:56Z</time>
      </trkpt>
      <trkpt lat="42.339816000" lon="-2.497685000">
        <ele>543.70</ele>
        <time>2014-11-01T08:28:57Z</time>
      </trkpt>
      <trkpt lat="42.339804000" lon="-2.497732000">
        <ele>543.80</ele>
        <time>2014-11-01T08:28:58Z</time>
      </trkpt>
      <trkpt lat="42.339792000" lon="-2.497778000">
        <ele>543.80</ele>
        <time>2014-11-01T08:28:59Z</time>
      </trkpt>
      <trkpt lat="42.339776000" lon="-2.497824000">
        <ele>543.80</ele>
        <time>2014-11-01T08:29:00Z</time>
      </trkpt>
      <trkpt lat="42.339761000" lon="-2.497872000">
        <ele>543.80</ele>
        <time>2014-11-01T08:29:01Z</time>
      </trkpt>
      <trkpt lat="42.339743000" lon="-2.497918000">
        <ele>543.80</ele>
        <time>2014-11-01T08:29:02Z</time>
      </trkpt>
      <trkpt lat="42.339724000" lon="-2.497958000">
        <ele>543.80</ele>
        <time>2014-11-01T08:29:03Z</time>
      </trkpt>
      <trkpt lat="42.339699000" lon="-2.497996000">
        <ele>543.80</ele>
        <time>2014-11-01T08:29:04Z</time>
      </trkpt>
      <trkpt lat="42.339675000" lon="-2.498031000">
        <ele>543.80</ele>
        <time>2014-11-01T08:29:05Z</time>
      </trkpt>
      <trkpt lat="42.339652000" lon="-2.498067000">
        <ele>543.90</ele>
        <time>2014-11-01T08:29:06Z</time>
      </trkpt>
      <trkpt lat="42.339628000" lon="-2.498104000">
        <ele>544.00</ele>
        <time>2014-11-01T08:29:07Z</time>
      </trkpt>
      <trkpt lat="42.339603000" lon="-2.498143000">
        <ele>544.00</ele>
        <time>2014-11-01T08:29:08Z</time>
      </trkpt>
      <trkpt lat="42.339572000" lon="-2.498177000">
        <ele>544.10</ele>
        <time>2014-11-01T08:29:09Z</time>
      </trkpt>
      <trkpt lat="42.339543000" lon="-2.498209000">
        <ele>544.10</ele>
        <time>2014-11-01T08:29:10Z</time>
      </trkpt>
      <trkpt lat="42.339517000" lon="-2.498246000">
        <ele>544.20</ele>
        <time>2014-11-01T08:29:11Z</time>
      </trkpt>
      <trkpt lat="42.339490000" lon="-2.498282000">
        <ele>544.40</ele>
        <time>2014-11-01T08:29:12Z</time>
      </trkpt>
      <trkpt lat="42.339467000" lon="-2.498318000">
        <ele>544.60</ele>
        <time>2014-11-01T08:29:13Z</time>
      </trkpt>
      <trkpt lat="42.339443000" lon="-2.498350000">
        <ele>544.80</ele>
        <time>2014-11-01T08:29:14Z</time>
      </trkpt>
      <trkpt lat="42.339419000" lon="-2.498385000">
        <ele>544.90</ele>
        <time>2014-11-01T08:29:15Z</time>
      </trkpt>
      <trkpt lat="42.339396000" lon="-2.498420000">
        <ele>545.00</ele>
        <time>2014-11-01T08:29:16Z</time>
      </trkpt>
      <trkpt lat="42.339380000" lon="-2.498454000">
        <ele>545.10</ele>
        <time>2014-11-01T08:29:17Z</time>
      </trkpt>
      <trkpt lat="42.339365000" lon="-2.498490000">
        <ele>545.10</ele>
        <time>2014-11-01T08:29:18Z</time>
      </trkpt>
      <trkpt lat="42.339352000" lon="-2.498522000">
        <ele>545.20</ele>
        <time>2014-11-01T08:29:19Z</time>
      </trkpt>
      <trkpt lat="42.339337000" lon="-2.498562000">
        <ele>545.30</ele>
        <time>2014-11-01T08:29:20Z</time>
      </trkpt>
      <trkpt lat="42.339326000" lon="-2.498598000">
        <ele>545.30</ele>
        <time>2014-11-01T08:29:21Z</time>
      </trkpt>
      <trkpt lat="42.339316000" lon="-2.498638000">
        <ele>545.20</ele>
        <time>2014-11-01T08:29:22Z</time>
      </trkpt>
      <trkpt lat="42.339309000" lon="-2.498676000">
        <ele>545.10</ele>
        <time>2014-11-01T08:29:23Z</time>
      </trkpt>
      <trkpt lat="42.339303000" lon="-2.498711000">
        <ele>545.00</ele>
        <time>2014-11-01T08:29:24Z</time>
      </trkpt>
      <trkpt lat="42.339299000" lon="-2.498733000">
        <ele>544.90</ele>
        <time>2014-11-01T08:29:25Z</time>
      </trkpt>
      <trkpt lat="42.339296000" lon="-2.498757000">
        <ele>544.90</ele>
        <time>2014-11-01T08:29:26Z</time>
      </trkpt>
      <trkpt lat="42.339286000" lon="-2.498780000">
        <ele>544.90</ele>
        <time>2014-11-01T08:29:27Z</time>
      </trkpt>
      <trkpt lat="42.339280000" lon="-2.498799000">
        <ele>544.90</ele>
        <time>2014-11-01T08:29:28Z</time>
      </trkpt>
      <trkpt lat="42.339278000" lon="-2.498816000">
        <ele>544.90</ele>
        <time>2014-11-01T08:29:29Z</time>
      </trkpt>
      <trkpt lat="42.339273000" lon="-2.498833000">
        <ele>545.10</ele>
        <time>2014-11-01T08:29:30Z</time>
      </trkpt>
      <trkpt lat="42.339263000" lon="-2.498850000">
        <ele>545.30</ele>
        <time>2014-11-01T08:29:31Z</time>
      </trkpt>
      <trkpt lat="42.339247000" lon="-2.498860000">
        <ele>545.40</ele>
        <time>2014-11-01T08:29:32Z</time>
      </trkpt>
      <trkpt lat="42.339238000" lon="-2.498871000">
        <ele>545.50</ele>
        <time>2014-11-01T08:29:33Z</time>
      </trkpt>
      <trkpt lat="42.339232000" lon="-2.498885000">
        <ele>545.80</ele>
        <time>2014-11-01T08:29:34Z</time>
      </trkpt>
      <trkpt lat="42.339227000" lon="-2.498901000">
        <ele>546.00</ele>
        <time>2014-11-01T08:29:35Z</time>
      </trkpt>
      <trkpt lat="42.339225000" lon="-2.498913000">
        <ele>546.20</ele>
        <time>2014-11-01T08:29:36Z</time>
      </trkpt>
      <trkpt lat="42.339212000" lon="-2.498930000">
        <ele>546.40</ele>
        <time>2014-11-01T08:29:37Z</time>
      </trkpt>
      <trkpt lat="42.339194000" lon="-2.498947000">
        <ele>546.50</ele>
        <time>2014-11-01T08:29:38Z</time>
      </trkpt>
      <trkpt lat="42.339181000" lon="-2.498963000">
        <ele>546.50</ele>
        <time>2014-11-01T08:29:39Z</time>
      </trkpt>
      <trkpt lat="42.339164000" lon="-2.498978000">
        <ele>546.60</ele>
        <time>2014-11-01T08:29:40Z</time>
      </trkpt>
      <trkpt lat="42.339150000" lon="-2.498997000">
        <ele>546.60</ele>
        <time>2014-11-01T08:29:41Z</time>
      </trkpt>
      <trkpt lat="42.339133000" lon="-2.499016000">
        <ele>546.70</ele>
        <time>2014-11-01T08:29:42Z</time>
      </trkpt>
      <trkpt lat="42.339117000" lon="-2.499030000">
        <ele>546.70</ele>
        <time>2014-11-01T08:29:43Z</time>
      </trkpt>
      <trkpt lat="42.339099000" lon="-2.499044000">
        <ele>546.80</ele>
        <time>2014-11-01T08:29:44Z</time>
      </trkpt>
      <trkpt lat="42.339081000" lon="-2.499058000">
        <ele>546.80</ele>
        <time>2014-11-01T08:29:45Z</time>
      </trkpt>
      <trkpt lat="42.339066000" lon="-2.499071000">
        <ele>546.90</ele>
        <time>2014-11-01T08:29:46Z</time>
      </trkpt>
      <trkpt lat="42.339053000" lon="-2.499087000">
        <ele>547.00</ele>
        <time>2014-11-01T08:29:47Z</time>
      </trkpt>
      <trkpt lat="42.339040000" lon="-2.499104000">
        <ele>547.10</ele>
        <time>2014-11-01T08:29:48Z</time>
      </trkpt>
      <trkpt lat="42.339025000" lon="-2.499118000">
        <ele>547.10</ele>
        <time>2014-11-01T08:29:49Z</time>
      </trkpt>
      <trkpt lat="42.339013000" lon="-2.499136000">
        <ele>547.20</ele>
        <time>2014-11-01T08:29:50Z</time>
      </trkpt>
      <trkpt lat="42.339006000" lon="-2.499157000">
        <ele>547.30</ele>
        <time>2014-11-01T08:29:51Z</time>
      </trkpt>
      <trkpt lat="42.338998000" lon="-2.499179000">
        <ele>547.40</ele>
        <time>2014-11-01T08:29:52Z</time>
      </trkpt>
      <trkpt lat="42.338988000" lon="-2.499222000">
        <ele>547.60</ele>
        <time>2014-11-01T08:29:54Z</time>
      </trkpt>
      <trkpt lat="42.338987000" lon="-2.499248000">
        <ele>547.70</ele>
        <time>2014-11-01T08:29:55Z</time>
      </trkpt>
      <trkpt lat="42.338981000" lon="-2.499271000">
        <ele>547.80</ele>
        <time>2014-11-01T08:29:56Z</time>
      </trkpt>
      <trkpt lat="42.338978000" lon="-2.499295000">
        <ele>548.00</ele>
        <time>2014-11-01T08:29:57Z</time>
      </trkpt>
      <trkpt lat="42.338975000" lon="-2.499315000">
        <ele>548.10</ele>
        <time>2014-11-01T08:29:58Z</time>
      </trkpt>
      <trkpt lat="42.338969000" lon="-2.499338000">
        <ele>548.10</ele>
        <time>2014-11-01T08:29:59Z</time>
      </trkpt>
      <trkpt lat="42.338964000" lon="-2.499358000">
        <ele>548.20</ele>
        <time>2014-11-01T08:30:00Z</time>
      </trkpt>
      <trkpt lat="42.338960000" lon="-2.499375000">
        <ele>548.20</ele>
        <time>2014-11-01T08:30:01Z</time>
      </trkpt>
      <trkpt lat="42.338954000" lon="-2.499393000">
        <ele>548.30</ele>
        <time>2014-11-01T08:30:02Z</time>
      </trkpt>
      <trkpt lat="42.338950000" lon="-2.499410000">
        <ele>548.40</ele>
        <time>2014-11-01T08:30:03Z</time>
      </trkpt>
      <trkpt lat="42.338945000" lon="-2.499426000">
        <ele>548.60</ele>
        <time>2014-11-01T08:30:04Z</time>
      </trkpt>
      <trkpt lat="42.338941000" lon="-2.499442000">
        <ele>548.70</ele>
        <time>2014-11-01T08:30:05Z</time>
      </trkpt>
      <trkpt lat="42.338936000" lon="-2.499459000">
        <ele>548.70</ele>
        <time>2014-11-01T08:30:06Z</time>
      </trkpt>
      <trkpt lat="42.338930000" lon="-2.499472000">
        <ele>548.70</ele>
        <time>2014-11-01T08:30:07Z</time>
      </trkpt>
      <trkpt lat="42.338926000" lon="-2.499488000">
        <ele>548.70</ele>
        <time>2014-11-01T08:30:08Z</time>
      </trkpt>
      <trkpt lat="42.338922000" lon="-2.499503000">
        <ele>548.60</ele>
        <time>2014-11-01T08:30:09Z</time>
      </trkpt>
      <trkpt lat="42.338917000" lon="-2.499517000">
        <ele>548.60</ele>
        <time>2014-11-01T08:30:10Z</time>
      </trkpt>
      <trkpt lat="42.338910000" lon="-2.499533000">
        <ele>548.60</ele>
        <time>2014-11-01T08:30:11Z</time>
      </trkpt>
      <trkpt lat="42.338907000" lon="-2.499546000">
        <ele>548.70</ele>
        <time>2014-11-01T08:30:12Z</time>
      </trkpt>
      <trkpt lat="42.338902000" lon="-2.499560000">
        <ele>548.80</ele>
        <time>2014-11-01T08:30:13Z</time>
      </trkpt>
      <trkpt lat="42.338898000" lon="-2.499578000">
        <ele>548.90</ele>
        <time>2014-11-01T08:30:14Z</time>
      </trkpt>
      <trkpt lat="42.338897000" lon="-2.499595000">
        <ele>549.00</ele>
        <time>2014-11-01T08:30:15Z</time>
      </trkpt>
      <trkpt lat="42.338897000" lon="-2.499615000">
        <ele>549.00</ele>
        <time>2014-11-01T08:30:16Z</time>
      </trkpt>
      <trkpt lat="42.338893000" lon="-2.499636000">
        <ele>549.00</ele>
        <time>2014-11-01T08:30:17Z</time>
      </trkpt>
      <trkpt lat="42.338888000" lon="-2.499658000">
        <ele>549.10</ele>
        <time>2014-11-01T08:30:18Z</time>
      </trkpt>
      <trkpt lat="42.338882000" lon="-2.499683000">
        <ele>549.10</ele>
        <time>2014-11-01T08:30:19Z</time>
      </trkpt>
      <trkpt lat="42.338874000" lon="-2.499704000">
        <ele>549.20</ele>
        <time>2014-11-01T08:30:20Z</time>
      </trkpt>
      <trkpt lat="42.338870000" lon="-2.499725000">
        <ele>549.30</ele>
        <time>2014-11-01T08:30:21Z</time>
      </trkpt>
      <trkpt lat="42.338866000" lon="-2.499749000">
        <ele>549.50</ele>
        <time>2014-11-01T08:30:22Z</time>
      </trkpt>
      <trkpt lat="42.338859000" lon="-2.499770000">
        <ele>549.60</ele>
        <time>2014-11-01T08:30:23Z</time>
      </trkpt>
      <trkpt lat="42.338854000" lon="-2.499788000">
        <ele>549.70</ele>
        <time>2014-11-01T08:30:24Z</time>
      </trkpt>
      <trkpt lat="42.338849000" lon="-2.499819000">
        <ele>549.80</ele>
        <time>2014-11-01T08:30:25Z</time>
      </trkpt>
      <trkpt lat="42.338841000" lon="-2.499848000">
        <ele>549.70</ele>
        <time>2014-11-01T08:30:26Z</time>
      </trkpt>
      <trkpt lat="42.338829000" lon="-2.499870000">
        <ele>549.70</ele>
        <time>2014-11-01T08:30:27Z</time>
      </trkpt>
      <trkpt lat="42.338818000" lon="-2.499895000">
        <ele>549.70</ele>
        <time>2014-11-01T08:30:28Z</time>
      </trkpt>
      <trkpt lat="42.338805000" lon="-2.499915000">
        <ele>549.60</ele>
        <time>2014-11-01T08:30:29Z</time>
      </trkpt>
      <trkpt lat="42.338795000" lon="-2.499932000">
        <ele>549.60</ele>
        <time>2014-11-01T08:30:30Z</time>
      </trkpt>
      <trkpt lat="42.338784000" lon="-2.499952000">
        <ele>549.60</ele>
        <time>2014-11-01T08:30:31Z</time>
      </trkpt>
      <trkpt lat="42.338773000" lon="-2.499973000">
        <ele>549.60</ele>
        <time>2014-11-01T08:30:32Z</time>
      </trkpt>
      <trkpt lat="42.338760000" lon="-2.499991000">
        <ele>549.60</ele>
        <time>2014-11-01T08:30:33Z</time>
      </trkpt>
      <trkpt lat="42.338746000" lon="-2.500010000">
        <ele>549.70</ele>
        <time>2014-11-01T08:30:34Z</time>
      </trkpt>
      <trkpt lat="42.338736000" lon="-2.500029000">
        <ele>549.80</ele>
        <time>2014-11-01T08:30:35Z</time>
      </trkpt>
      <trkpt lat="42.338720000" lon="-2.500043000">
        <ele>549.80</ele>
        <time>2014-11-01T08:30:36Z</time>
      </trkpt>
      <trkpt lat="42.338704000" lon="-2.500054000">
        <ele>549.90</ele>
        <time>2014-11-01T08:30:37Z</time>
      </trkpt>
      <trkpt lat="42.338685000" lon="-2.500068000">
        <ele>549.90</ele>
        <time>2014-11-01T08:30:38Z</time>
      </trkpt>
      <trkpt lat="42.338668000" lon="-2.500078000">
        <ele>550.00</ele>
        <time>2014-11-01T08:30:39Z</time>
      </trkpt>
      <trkpt lat="42.338652000" lon="-2.500092000">
        <ele>550.10</ele>
        <time>2014-11-01T08:30:40Z</time>
      </trkpt>
      <trkpt lat="42.338637000" lon="-2.500106000">
        <ele>550.20</ele>
        <time>2014-11-01T08:30:41Z</time>
      </trkpt>
      <trkpt lat="42.338624000" lon="-2.500128000">
        <ele>550.30</ele>
        <time>2014-11-01T08:30:42Z</time>
      </trkpt>
      <trkpt lat="42.338612000" lon="-2.500151000">
        <ele>550.40</ele>
        <time>2014-11-01T08:30:43Z</time>
      </trkpt>
      <trkpt lat="42.338595000" lon="-2.500173000">
        <ele>550.40</ele>
        <time>2014-11-01T08:30:44Z</time>
      </trkpt>
      <trkpt lat="42.338584000" lon="-2.500192000">
        <ele>550.50</ele>
        <time>2014-11-01T08:30:45Z</time>
      </trkpt>
      <trkpt lat="42.338568000" lon="-2.500210000">
        <ele>550.40</ele>
        <time>2014-11-01T08:30:46Z</time>
      </trkpt>
      <trkpt lat="42.338554000" lon="-2.500232000">
        <ele>550.30</ele>
        <time>2014-11-01T08:30:47Z</time>
      </trkpt>
      <trkpt lat="42.338536000" lon="-2.500249000">
        <ele>550.40</ele>
        <time>2014-11-01T08:30:48Z</time>
      </trkpt>
      <trkpt lat="42.338519000" lon="-2.500268000">
        <ele>550.50</ele>
        <time>2014-11-01T08:30:49Z</time>
      </trkpt>
      <trkpt lat="42.338501000" lon="-2.500290000">
        <ele>550.40</ele>
        <time>2014-11-01T08:30:50Z</time>
      </trkpt>
      <trkpt lat="42.338486000" lon="-2.500313000">
        <ele>550.30</ele>
        <time>2014-11-01T08:30:51Z</time>
      </trkpt>
      <trkpt lat="42.338469000" lon="-2.500336000">
        <ele>550.40</ele>
        <time>2014-11-01T08:30:52Z</time>
      </trkpt>
      <trkpt lat="42.338456000" lon="-2.500357000">
        <ele>550.50</ele>
        <time>2014-11-01T08:30:53Z</time>
      </trkpt>
      <trkpt lat="42.338424000" lon="-2.500402000">
        <ele>550.70</ele>
        <time>2014-11-01T08:30:55Z</time>
      </trkpt>
      <trkpt lat="42.338408000" lon="-2.500427000">
        <ele>550.80</ele>
        <time>2014-11-01T08:30:56Z</time>
      </trkpt>
      <trkpt lat="42.338391000" lon="-2.500450000">
        <ele>550.90</ele>
        <time>2014-11-01T08:30:57Z</time>
      </trkpt>
      <trkpt lat="42.338380000" lon="-2.500474000">
        <ele>551.00</ele>
        <time>2014-11-01T08:30:58Z</time>
      </trkpt>
      <trkpt lat="42.338366000" lon="-2.500499000">
        <ele>551.10</ele>
        <time>2014-11-01T08:30:59Z</time>
      </trkpt>
      <trkpt lat="42.338348000" lon="-2.500521000">
        <ele>551.20</ele>
        <time>2014-11-01T08:31:00Z</time>
      </trkpt>
      <trkpt lat="42.338333000" lon="-2.500545000">
        <ele>551.30</ele>
        <time>2014-11-01T08:31:01Z</time>
      </trkpt>
      <trkpt lat="42.338321000" lon="-2.500571000">
        <ele>551.40</ele>
        <time>2014-11-01T08:31:02Z</time>
      </trkpt>
      <trkpt lat="42.338313000" lon="-2.500594000">
        <ele>551.40</ele>
        <time>2014-11-01T08:31:03Z</time>
      </trkpt>
      <trkpt lat="42.338298000" lon="-2.500615000">
        <ele>551.60</ele>
        <time>2014-11-01T08:31:04Z</time>
      </trkpt>
      <trkpt lat="42.338282000" lon="-2.500637000">
        <ele>551.70</ele>
        <time>2014-11-01T08:31:05Z</time>
      </trkpt>
      <trkpt lat="42.338267000" lon="-2.500660000">
        <ele>551.80</ele>
        <time>2014-11-01T08:31:06Z</time>
      </trkpt>
      <trkpt lat="42.338254000" lon="-2.500683000">
        <ele>551.90</ele>
        <time>2014-11-01T08:31:07Z</time>
      </trkpt>
      <trkpt lat="42.338243000" lon="-2.500708000">
        <ele>552.00</ele>
        <time>2014-11-01T08:31:08Z</time>
      </trkpt>
      <trkpt lat="42.338235000" lon="-2.500737000">
        <ele>552.10</ele>
        <time>2014-11-01T08:31:09Z</time>
      </trkpt>
      <trkpt lat="42.338226000" lon="-2.500764000">
        <ele>552.20</ele>
        <time>2014-11-01T08:31:10Z</time>
      </trkpt>
      <trkpt lat="42.338218000" lon="-2.500789000">
        <ele>552.20</ele>
        <time>2014-11-01T08:31:11Z</time>
      </trkpt>
      <trkpt lat="42.338213000" lon="-2.500814000">
        <ele>552.30</ele>
        <time>2014-11-01T08:31:12Z</time>
      </trkpt>
      <trkpt lat="42.338208000" lon="-2.500836000">
        <ele>552.30</ele>
        <time>2014-11-01T08:31:13Z</time>
      </trkpt>
      <trkpt lat="42.338205000" lon="-2.500858000">
        <ele>552.70</ele>
        <time>2014-11-01T08:31:14Z</time>
      </trkpt>
      <trkpt lat="42.338200000" lon="-2.500877000">
        <ele>552.90</ele>
        <time>2014-11-01T08:31:15Z</time>
      </trkpt>
      <trkpt lat="42.338194000" lon="-2.500894000">
        <ele>553.10</ele>
        <time>2014-11-01T08:31:16Z</time>
      </trkpt>
      <trkpt lat="42.338191000" lon="-2.500916000">
        <ele>553.30</ele>
        <time>2014-11-01T08:31:17Z</time>
      </trkpt>
      <trkpt lat="42.338188000" lon="-2.500936000">
        <ele>553.40</ele>
        <time>2014-11-01T08:31:18Z</time>
      </trkpt>
      <trkpt lat="42.338177000" lon="-2.500951000">
        <ele>553.50</ele>
        <time>2014-11-01T08:31:19Z</time>
      </trkpt>
      <trkpt lat="42.338165000" lon="-2.500960000">
        <ele>553.60</ele>
        <time>2014-11-01T08:31:20Z</time>
      </trkpt>
      <trkpt lat="42.338149000" lon="-2.500958000">
        <ele>553.70</ele>
        <time>2014-11-01T08:31:21Z</time>
      </trkpt>
      <trkpt lat="42.338130000" lon="-2.500954000">
        <ele>553.70</ele>
        <time>2014-11-01T08:31:22Z</time>
      </trkpt>
      <trkpt lat="42.338110000" lon="-2.500946000">
        <ele>553.80</ele>
        <time>2014-11-01T08:31:23Z</time>
      </trkpt>
      <trkpt lat="42.338085000" lon="-2.500942000">
        <ele>553.70</ele>
        <time>2014-11-01T08:31:24Z</time>
      </trkpt>
      <trkpt lat="42.338058000" lon="-2.500946000">
        <ele>553.60</ele>
        <time>2014-11-01T08:31:25Z</time>
      </trkpt>
      <trkpt lat="42.338030000" lon="-2.500948000">
        <ele>553.60</ele>
        <time>2014-11-01T08:31:26Z</time>
      </trkpt>
      <trkpt lat="42.338002000" lon="-2.500954000">
        <ele>553.60</ele>
        <time>2014-11-01T08:31:27Z</time>
      </trkpt>
      <trkpt lat="42.337972000" lon="-2.500958000">
        <ele>553.60</ele>
        <time>2014-11-01T08:31:28Z</time>
      </trkpt>
      <trkpt lat="42.337943000" lon="-2.500963000">
        <ele>553.60</ele>
        <time>2014-11-01T08:31:29Z</time>
      </trkpt>
      <trkpt lat="42.337916000" lon="-2.500968000">
        <ele>553.60</ele>
        <time>2014-11-01T08:31:30Z</time>
      </trkpt>
      <trkpt lat="42.337889000" lon="-2.500983000">
        <ele>553.60</ele>
        <time>2014-11-01T08:31:31Z</time>
      </trkpt>
      <trkpt lat="42.337864000" lon="-2.500998000">
        <ele>553.60</ele>
        <time>2014-11-01T08:31:32Z</time>
      </trkpt>
      <trkpt lat="42.337840000" lon="-2.501010000">
        <ele>553.60</ele>
        <time>2014-11-01T08:31:33Z</time>
      </trkpt>
      <trkpt lat="42.337818000" lon="-2.501024000">
        <ele>553.60</ele>
        <time>2014-11-01T08:31:34Z</time>
      </trkpt>
      <trkpt lat="42.337798000" lon="-2.501039000">
        <ele>553.60</ele>
        <time>2014-11-01T08:31:35Z</time>
      </trkpt>
      <trkpt lat="42.337778000" lon="-2.501056000">
        <ele>553.60</ele>
        <time>2014-11-01T08:31:36Z</time>
      </trkpt>
      <trkpt lat="42.337757000" lon="-2.501069000">
        <ele>553.60</ele>
        <time>2014-11-01T08:31:37Z</time>
      </trkpt>
      <trkpt lat="42.337736000" lon="-2.501084000">
        <ele>553.60</ele>
        <time>2014-11-01T08:31:38Z</time>
      </trkpt>
      <trkpt lat="42.337711000" lon="-2.501098000">
        <ele>553.60</ele>
        <time>2014-11-01T08:31:39Z</time>
      </trkpt>
      <trkpt lat="42.337688000" lon="-2.501113000">
        <ele>553.60</ele>
        <time>2014-11-01T08:31:40Z</time>
      </trkpt>
      <trkpt lat="42.337667000" lon="-2.501129000">
        <ele>553.60</ele>
        <time>2014-11-01T08:31:41Z</time>
      </trkpt>
      <trkpt lat="42.337645000" lon="-2.501146000">
        <ele>553.60</ele>
        <time>2014-11-01T08:31:42Z</time>
      </trkpt>
      <trkpt lat="42.337623000" lon="-2.501160000">
        <ele>553.60</ele>
        <time>2014-11-01T08:31:43Z</time>
      </trkpt>
      <trkpt lat="42.337599000" lon="-2.501175000">
        <ele>553.60</ele>
        <time>2014-11-01T08:31:44Z</time>
      </trkpt>
      <trkpt lat="42.337576000" lon="-2.501189000">
        <ele>553.60</ele>
        <time>2014-11-01T08:31:45Z</time>
      </trkpt>
      <trkpt lat="42.337553000" lon="-2.501204000">
        <ele>553.60</ele>
        <time>2014-11-01T08:31:46Z</time>
      </trkpt>
      <trkpt lat="42.337533000" lon="-2.501221000">
        <ele>553.60</ele>
        <time>2014-11-01T08:31:47Z</time>
      </trkpt>
      <trkpt lat="42.337510000" lon="-2.501237000">
        <ele>553.60</ele>
        <time>2014-11-01T08:31:48Z</time>
      </trkpt>
      <trkpt lat="42.337488000" lon="-2.501253000">
        <ele>553.60</ele>
        <time>2014-11-01T08:31:49Z</time>
      </trkpt>
      <trkpt lat="42.337466000" lon="-2.501271000">
        <ele>553.60</ele>
        <time>2014-11-01T08:31:50Z</time>
      </trkpt>
      <trkpt lat="42.337445000" lon="-2.501291000">
        <ele>553.60</ele>
        <time>2014-11-01T08:31:51Z</time>
      </trkpt>
      <trkpt lat="42.337422000" lon="-2.501307000">
        <ele>553.60</ele>
        <time>2014-11-01T08:31:52Z</time>
      </trkpt>
      <trkpt lat="42.337397000" lon="-2.501323000">
        <ele>553.50</ele>
        <time>2014-11-01T08:31:53Z</time>
      </trkpt>
      <trkpt lat="42.337373000" lon="-2.501335000">
        <ele>553.50</ele>
        <time>2014-11-01T08:31:54Z</time>
      </trkpt>
      <trkpt lat="42.337326000" lon="-2.501370000">
        <ele>553.60</ele>
        <time>2014-11-01T08:31:56Z</time>
      </trkpt>
      <trkpt lat="42.337300000" lon="-2.501385000">
        <ele>553.60</ele>
        <time>2014-11-01T08:31:57Z</time>
      </trkpt>
      <trkpt lat="42.337280000" lon="-2.501402000">
        <ele>553.60</ele>
        <time>2014-11-01T08:31:58Z</time>
      </trkpt>
      <trkpt lat="42.337259000" lon="-2.501422000">
        <ele>553.60</ele>
        <time>2014-11-01T08:31:59Z</time>
      </trkpt>
      <trkpt lat="42.337239000" lon="-2.501439000">
        <ele>553.60</ele>
        <time>2014-11-01T08:32:00Z</time>
      </trkpt>
      <trkpt lat="42.337222000" lon="-2.501451000">
        <ele>553.60</ele>
        <time>2014-11-01T08:32:01Z</time>
      </trkpt>
      <trkpt lat="42.337204000" lon="-2.501467000">
        <ele>553.50</ele>
        <time>2014-11-01T08:32:02Z</time>
      </trkpt>
      <trkpt lat="42.337186000" lon="-2.501480000">
        <ele>553.50</ele>
        <time>2014-11-01T08:32:03Z</time>
      </trkpt>
      <trkpt lat="42.337167000" lon="-2.501499000">
        <ele>553.60</ele>
        <time>2014-11-01T08:32:04Z</time>
      </trkpt>
      <trkpt lat="42.337144000" lon="-2.501520000">
        <ele>553.70</ele>
        <time>2014-11-01T08:32:05Z</time>
      </trkpt>
      <trkpt lat="42.337121000" lon="-2.501541000">
        <ele>553.60</ele>
        <time>2014-11-01T08:32:06Z</time>
      </trkpt>
      <trkpt lat="42.337095000" lon="-2.501559000">
        <ele>553.50</ele>
        <time>2014-11-01T08:32:07Z</time>
      </trkpt>
      <trkpt lat="42.337066000" lon="-2.501572000">
        <ele>553.60</ele>
        <time>2014-11-01T08:32:08Z</time>
      </trkpt>
      <trkpt lat="42.337035000" lon="-2.501589000">
        <ele>553.70</ele>
        <time>2014-11-01T08:32:09Z</time>
      </trkpt>
      <trkpt lat="42.336999000" lon="-2.501607000">
        <ele>553.70</ele>
        <time>2014-11-01T08:32:10Z</time>
      </trkpt>
      <trkpt lat="42.336964000" lon="-2.501623000">
        <ele>553.70</ele>
        <time>2014-11-01T08:32:11Z</time>
      </trkpt>
      <trkpt lat="42.336929000" lon="-2.501637000">
        <ele>554.00</ele>
        <time>2014-11-01T08:32:12Z</time>
      </trkpt>
      <trkpt lat="42.336895000" lon="-2.501648000">
        <ele>554.30</ele>
        <time>2014-11-01T08:32:13Z</time>
      </trkpt>
      <trkpt lat="42.336863000" lon="-2.501666000">
        <ele>554.20</ele>
        <time>2014-11-01T08:32:14Z</time>
      </trkpt>
      <trkpt lat="42.336834000" lon="-2.501682000">
        <ele>554.10</ele>
        <time>2014-11-01T08:32:15Z</time>
      </trkpt>
      <trkpt lat="42.336807000" lon="-2.501695000">
        <ele>554.10</ele>
        <time>2014-11-01T08:32:16Z</time>
      </trkpt>
      <trkpt lat="42.336780000" lon="-2.501704000">
        <ele>554.00</ele>
        <time>2014-11-01T08:32:17Z</time>
      </trkpt>
      <trkpt lat="42.336755000" lon="-2.501713000">
        <ele>553.90</ele>
        <time>2014-11-01T08:32:18Z</time>
      </trkpt>
      <trkpt lat="42.336730000" lon="-2.501725000">
        <ele>553.70</ele>
        <time>2014-11-01T08:32:19Z</time>
      </trkpt>
      <trkpt lat="42.336704000" lon="-2.501735000">
        <ele>553.60</ele>
        <time>2014-11-01T08:32:20Z</time>
      </trkpt>
      <trkpt lat="42.336677000" lon="-2.501748000">
        <ele>553.60</ele>
        <time>2014-11-01T08:32:21Z</time>
      </trkpt>
      <trkpt lat="42.336651000" lon="-2.501761000">
        <ele>553.50</ele>
        <time>2014-11-01T08:32:22Z</time>
      </trkpt>
      <trkpt lat="42.336623000" lon="-2.501767000">
        <ele>553.50</ele>
        <time>2014-11-01T08:32:23Z</time>
      </trkpt>
      <trkpt lat="42.336598000" lon="-2.501782000">
        <ele>553.40</ele>
        <time>2014-11-01T08:32:24Z</time>
      </trkpt>
      <trkpt lat="42.336572000" lon="-2.501802000">
        <ele>553.40</ele>
        <time>2014-11-01T08:32:25Z</time>
      </trkpt>
      <trkpt lat="42.336548000" lon="-2.501819000">
        <ele>553.40</ele>
        <time>2014-11-01T08:32:26Z</time>
      </trkpt>
      <trkpt lat="42.336523000" lon="-2.501835000">
        <ele>553.40</ele>
        <time>2014-11-01T08:32:27Z</time>
      </trkpt>
      <trkpt lat="42.336496000" lon="-2.501849000">
        <ele>553.40</ele>
        <time>2014-11-01T08:32:28Z</time>
      </trkpt>
      <trkpt lat="42.336469000" lon="-2.501859000">
        <ele>553.40</ele>
        <time>2014-11-01T08:32:29Z</time>
      </trkpt>
      <trkpt lat="42.336442000" lon="-2.501872000">
        <ele>553.30</ele>
        <time>2014-11-01T08:32:30Z</time>
      </trkpt>
      <trkpt lat="42.336416000" lon="-2.501886000">
        <ele>553.30</ele>
        <time>2014-11-01T08:32:31Z</time>
      </trkpt>
      <trkpt lat="42.336385000" lon="-2.501897000">
        <ele>553.20</ele>
        <time>2014-11-01T08:32:32Z</time>
      </trkpt>
      <trkpt lat="42.336359000" lon="-2.501910000">
        <ele>553.20</ele>
        <time>2014-11-01T08:32:33Z</time>
      </trkpt>
      <trkpt lat="42.336328000" lon="-2.501921000">
        <ele>553.40</ele>
        <time>2014-11-01T08:32:34Z</time>
      </trkpt>
      <trkpt lat="42.336298000" lon="-2.501932000">
        <ele>553.50</ele>
        <time>2014-11-01T08:32:35Z</time>
      </trkpt>
      <trkpt lat="42.336266000" lon="-2.501948000">
        <ele>553.60</ele>
        <time>2014-11-01T08:32:36Z</time>
      </trkpt>
      <trkpt lat="42.336233000" lon="-2.501962000">
        <ele>553.80</ele>
        <time>2014-11-01T08:32:37Z</time>
      </trkpt>
      <trkpt lat="42.336201000" lon="-2.501980000">
        <ele>553.90</ele>
        <time>2014-11-01T08:32:38Z</time>
      </trkpt>
      <trkpt lat="42.336172000" lon="-2.501999000">
        <ele>553.90</ele>
        <time>2014-11-01T08:32:39Z</time>
      </trkpt>
      <trkpt lat="42.336142000" lon="-2.502021000">
        <ele>553.90</ele>
        <time>2014-11-01T08:32:40Z</time>
      </trkpt>
      <trkpt lat="42.336113000" lon="-2.502042000">
        <ele>553.90</ele>
        <time>2014-11-01T08:32:41Z</time>
      </trkpt>
      <trkpt lat="42.336085000" lon="-2.502069000">
        <ele>553.50</ele>
        <time>2014-11-01T08:32:42Z</time>
      </trkpt>
      <trkpt lat="42.336060000" lon="-2.502099000">
        <ele>553.20</ele>
        <time>2014-11-01T08:32:43Z</time>
      </trkpt>
      <trkpt lat="42.336041000" lon="-2.502127000">
        <ele>553.00</ele>
        <time>2014-11-01T08:32:44Z</time>
      </trkpt>
      <trkpt lat="42.336018000" lon="-2.502150000">
        <ele>552.80</ele>
        <time>2014-11-01T08:32:45Z</time>
      </trkpt>
      <trkpt lat="42.336001000" lon="-2.502174000">
        <ele>552.70</ele>
        <time>2014-11-01T08:32:46Z</time>
      </trkpt>
      <trkpt lat="42.335982000" lon="-2.502198000">
        <ele>552.60</ele>
        <time>2014-11-01T08:32:47Z</time>
      </trkpt>
      <trkpt lat="42.335965000" lon="-2.502222000">
        <ele>552.70</ele>
        <time>2014-11-01T08:32:48Z</time>
      </trkpt>
      <trkpt lat="42.335949000" lon="-2.502249000">
        <ele>552.80</ele>
        <time>2014-11-01T08:32:49Z</time>
      </trkpt>
      <trkpt lat="42.335933000" lon="-2.502277000">
        <ele>552.90</ele>
        <time>2014-11-01T08:32:50Z</time>
      </trkpt>
      <trkpt lat="42.335915000" lon="-2.502303000">
        <ele>552.90</ele>
        <time>2014-11-01T08:32:51Z</time>
      </trkpt>
      <trkpt lat="42.335894000" lon="-2.502332000">
        <ele>553.00</ele>
        <time>2014-11-01T08:32:52Z</time>
      </trkpt>
      <trkpt lat="42.335876000" lon="-2.502359000">
        <ele>553.00</ele>
        <time>2014-11-01T08:32:53Z</time>
      </trkpt>
      <trkpt lat="42.335858000" lon="-2.502387000">
        <ele>553.00</ele>
        <time>2014-11-01T08:32:54Z</time>
      </trkpt>
      <trkpt lat="42.335839000" lon="-2.502416000">
        <ele>553.00</ele>
        <time>2014-11-01T08:32:55Z</time>
      </trkpt>
      <trkpt lat="42.335802000" lon="-2.502472000">
        <ele>552.80</ele>
        <time>2014-11-01T08:32:57Z</time>
      </trkpt>
      <trkpt lat="42.335786000" lon="-2.502500000">
        <ele>552.70</ele>
        <time>2014-11-01T08:32:58Z</time>
      </trkpt>
      <trkpt lat="42.335766000" lon="-2.502524000">
        <ele>552.60</ele>
        <time>2014-11-01T08:32:59Z</time>
      </trkpt>
      <trkpt lat="42.335744000" lon="-2.502548000">
        <ele>552.50</ele>
        <time>2014-11-01T08:33:00Z</time>
      </trkpt>
      <trkpt lat="42.335725000" lon="-2.502569000">
        <ele>552.50</ele>
        <time>2014-11-01T08:33:01Z</time>
      </trkpt>
      <trkpt lat="42.335705000" lon="-2.502589000">
        <ele>552.60</ele>
        <time>2014-11-01T08:33:02Z</time>
      </trkpt>
      <trkpt lat="42.335684000" lon="-2.502609000">
        <ele>552.70</ele>
        <time>2014-11-01T08:33:03Z</time>
      </trkpt>
      <trkpt lat="42.335660000" lon="-2.502630000">
        <ele>552.80</ele>
        <time>2014-11-01T08:33:04Z</time>
      </trkpt>
      <trkpt lat="42.335640000" lon="-2.502651000">
        <ele>552.90</ele>
        <time>2014-11-01T08:33:05Z</time>
      </trkpt>
      <trkpt lat="42.335615000" lon="-2.502676000">
        <ele>553.00</ele>
        <time>2014-11-01T08:33:06Z</time>
      </trkpt>
      <trkpt lat="42.335593000" lon="-2.502707000">
        <ele>553.10</ele>
        <time>2014-11-01T08:33:07Z</time>
      </trkpt>
      <trkpt lat="42.335571000" lon="-2.502738000">
        <ele>553.20</ele>
        <time>2014-11-01T08:33:08Z</time>
      </trkpt>
      <trkpt lat="42.335548000" lon="-2.502767000">
        <ele>553.20</ele>
        <time>2014-11-01T08:33:09Z</time>
      </trkpt>
      <trkpt lat="42.335522000" lon="-2.502792000">
        <ele>553.20</ele>
        <time>2014-11-01T08:33:10Z</time>
      </trkpt>
      <trkpt lat="42.335495000" lon="-2.502817000">
        <ele>553.20</ele>
        <time>2014-11-01T08:33:11Z</time>
      </trkpt>
      <trkpt lat="42.335471000" lon="-2.502844000">
        <ele>552.90</ele>
        <time>2014-11-01T08:33:12Z</time>
      </trkpt>
      <trkpt lat="42.335445000" lon="-2.502870000">
        <ele>552.80</ele>
        <time>2014-11-01T08:33:13Z</time>
      </trkpt>
      <trkpt lat="42.335423000" lon="-2.502894000">
        <ele>552.70</ele>
        <time>2014-11-01T08:33:14Z</time>
      </trkpt>
      <trkpt lat="42.335397000" lon="-2.502914000">
        <ele>552.60</ele>
        <time>2014-11-01T08:33:15Z</time>
      </trkpt>
      <trkpt lat="42.335371000" lon="-2.502934000">
        <ele>552.70</ele>
        <time>2014-11-01T08:33:16Z</time>
      </trkpt>
      <trkpt lat="42.335344000" lon="-2.502956000">
        <ele>552.80</ele>
        <time>2014-11-01T08:33:17Z</time>
      </trkpt>
      <trkpt lat="42.335316000" lon="-2.502980000">
        <ele>552.90</ele>
        <time>2014-11-01T08:33:18Z</time>
      </trkpt>
      <trkpt lat="42.335291000" lon="-2.503005000">
        <ele>552.90</ele>
        <time>2014-11-01T08:33:19Z</time>
      </trkpt>
      <trkpt lat="42.335263000" lon="-2.503033000">
        <ele>552.80</ele>
        <time>2014-11-01T08:33:20Z</time>
      </trkpt>
      <trkpt lat="42.335232000" lon="-2.503060000">
        <ele>552.80</ele>
        <time>2014-11-01T08:33:21Z</time>
      </trkpt>
      <trkpt lat="42.335196000" lon="-2.503078000">
        <ele>552.70</ele>
        <time>2014-11-01T08:33:22Z</time>
      </trkpt>
      <trkpt lat="42.335160000" lon="-2.503093000">
        <ele>552.60</ele>
        <time>2014-11-01T08:33:23Z</time>
      </trkpt>
      <trkpt lat="42.335124000" lon="-2.503106000">
        <ele>552.50</ele>
        <time>2014-11-01T08:33:24Z</time>
      </trkpt>
      <trkpt lat="42.335086000" lon="-2.503114000">
        <ele>552.50</ele>
        <time>2014-11-01T08:33:25Z</time>
      </trkpt>
      <trkpt lat="42.335049000" lon="-2.503126000">
        <ele>552.60</ele>
        <time>2014-11-01T08:33:26Z</time>
      </trkpt>
      <trkpt lat="42.335013000" lon="-2.503133000">
        <ele>552.60</ele>
        <time>2014-11-01T08:33:27Z</time>
      </trkpt>
      <trkpt lat="42.334976000" lon="-2.503138000">
        <ele>552.70</ele>
        <time>2014-11-01T08:33:28Z</time>
      </trkpt>
      <trkpt lat="42.334939000" lon="-2.503143000">
        <ele>552.70</ele>
        <time>2014-11-01T08:33:29Z</time>
      </trkpt>
      <trkpt lat="42.334902000" lon="-2.503154000">
        <ele>552.70</ele>
        <time>2014-11-01T08:33:30Z</time>
      </trkpt>
      <trkpt lat="42.334866000" lon="-2.503164000">
        <ele>552.80</ele>
        <time>2014-11-01T08:33:31Z</time>
      </trkpt>
      <trkpt lat="42.334831000" lon="-2.503179000">
        <ele>552.80</ele>
        <time>2014-11-01T08:33:32Z</time>
      </trkpt>
      <trkpt lat="42.334798000" lon="-2.503193000">
        <ele>552.80</ele>
        <time>2014-11-01T08:33:33Z</time>
      </trkpt>
      <trkpt lat="42.334769000" lon="-2.503208000">
        <ele>552.70</ele>
        <time>2014-11-01T08:33:34Z</time>
      </trkpt>
      <trkpt lat="42.334740000" lon="-2.503227000">
        <ele>552.60</ele>
        <time>2014-11-01T08:33:35Z</time>
      </trkpt>
      <trkpt lat="42.334714000" lon="-2.503251000">
        <ele>552.50</ele>
        <time>2014-11-01T08:33:36Z</time>
      </trkpt>
      <trkpt lat="42.334690000" lon="-2.503275000">
        <ele>552.50</ele>
        <time>2014-11-01T08:33:37Z</time>
      </trkpt>
      <trkpt lat="42.334663000" lon="-2.503296000">
        <ele>552.70</ele>
        <time>2014-11-01T08:33:38Z</time>
      </trkpt>
      <trkpt lat="42.334637000" lon="-2.503319000">
        <ele>552.90</ele>
        <time>2014-11-01T08:33:39Z</time>
      </trkpt>
      <trkpt lat="42.334607000" lon="-2.503343000">
        <ele>553.00</ele>
        <time>2014-11-01T08:33:40Z</time>
      </trkpt>
      <trkpt lat="42.334575000" lon="-2.503368000">
        <ele>553.10</ele>
        <time>2014-11-01T08:33:41Z</time>
      </trkpt>
      <trkpt lat="42.334544000" lon="-2.503393000">
        <ele>553.10</ele>
        <time>2014-11-01T08:33:42Z</time>
      </trkpt>
      <trkpt lat="42.334512000" lon="-2.503422000">
        <ele>553.20</ele>
        <time>2014-11-01T08:33:43Z</time>
      </trkpt>
      <trkpt lat="42.334481000" lon="-2.503453000">
        <ele>553.10</ele>
        <time>2014-11-01T08:33:44Z</time>
      </trkpt>
      <trkpt lat="42.334452000" lon="-2.503486000">
        <ele>553.00</ele>
        <time>2014-11-01T08:33:45Z</time>
      </trkpt>
      <trkpt lat="42.334425000" lon="-2.503522000">
        <ele>553.20</ele>
        <time>2014-11-01T08:33:46Z</time>
      </trkpt>
      <trkpt lat="42.334397000" lon="-2.503552000">
        <ele>553.30</ele>
        <time>2014-11-01T08:33:47Z</time>
      </trkpt>
      <trkpt lat="42.334366000" lon="-2.503575000">
        <ele>553.30</ele>
        <time>2014-11-01T08:33:48Z</time>
      </trkpt>
      <trkpt lat="42.334335000" lon="-2.503595000">
        <ele>553.30</ele>
        <time>2014-11-01T08:33:49Z</time>
      </trkpt>
      <trkpt lat="42.334304000" lon="-2.503612000">
        <ele>553.30</ele>
        <time>2014-11-01T08:33:50Z</time>
      </trkpt>
      <trkpt lat="42.334272000" lon="-2.503625000">
        <ele>553.30</ele>
        <time>2014-11-01T08:33:51Z</time>
      </trkpt>
      <trkpt lat="42.334242000" lon="-2.503636000">
        <ele>553.30</ele>
        <time>2014-11-01T08:33:52Z</time>
      </trkpt>
      <trkpt lat="42.334210000" lon="-2.503653000">
        <ele>553.30</ele>
        <time>2014-11-01T08:33:53Z</time>
      </trkpt>
      <trkpt lat="42.334176000" lon="-2.503665000">
        <ele>553.30</ele>
        <time>2014-11-01T08:33:54Z</time>
      </trkpt>
      <trkpt lat="42.334143000" lon="-2.503678000">
        <ele>553.20</ele>
        <time>2014-11-01T08:33:55Z</time>
      </trkpt>
      <trkpt lat="42.334108000" lon="-2.503687000">
        <ele>553.20</ele>
        <time>2014-11-01T08:33:56Z</time>
      </trkpt>
      <trkpt lat="42.334043000" lon="-2.503702000">
        <ele>553.20</ele>
        <time>2014-11-01T08:33:58Z</time>
      </trkpt>
      <trkpt lat="42.334010000" lon="-2.503713000">
        <ele>553.10</ele>
        <time>2014-11-01T08:33:59Z</time>
      </trkpt>
      <trkpt lat="42.333978000" lon="-2.503729000">
        <ele>553.10</ele>
        <time>2014-11-01T08:34:00Z</time>
      </trkpt>
      <trkpt lat="42.333947000" lon="-2.503745000">
        <ele>553.10</ele>
        <time>2014-11-01T08:34:01Z</time>
      </trkpt>
      <trkpt lat="42.333915000" lon="-2.503763000">
        <ele>553.20</ele>
        <time>2014-11-01T08:34:02Z</time>
      </trkpt>
      <trkpt lat="42.333885000" lon="-2.503785000">
        <ele>553.30</ele>
        <time>2014-11-01T08:34:03Z</time>
      </trkpt>
      <trkpt lat="42.333857000" lon="-2.503805000">
        <ele>553.40</ele>
        <time>2014-11-01T08:34:04Z</time>
      </trkpt>
      <trkpt lat="42.333828000" lon="-2.503824000">
        <ele>553.50</ele>
        <time>2014-11-01T08:34:05Z</time>
      </trkpt>
      <trkpt lat="42.333800000" lon="-2.503843000">
        <ele>553.30</ele>
        <time>2014-11-01T08:34:06Z</time>
      </trkpt>
      <trkpt lat="42.333772000" lon="-2.503866000">
        <ele>553.20</ele>
        <time>2014-11-01T08:34:07Z</time>
      </trkpt>
      <trkpt lat="42.333745000" lon="-2.503890000">
        <ele>553.10</ele>
        <time>2014-11-01T08:34:08Z</time>
      </trkpt>
      <trkpt lat="42.333718000" lon="-2.503909000">
        <ele>553.00</ele>
        <time>2014-11-01T08:34:09Z</time>
      </trkpt>
      <trkpt lat="42.333692000" lon="-2.503924000">
        <ele>553.10</ele>
        <time>2014-11-01T08:34:10Z</time>
      </trkpt>
      <trkpt lat="42.333659000" lon="-2.503942000">
        <ele>553.20</ele>
        <time>2014-11-01T08:34:11Z</time>
      </trkpt>
      <trkpt lat="42.333626000" lon="-2.503962000">
        <ele>553.20</ele>
        <time>2014-11-01T08:34:12Z</time>
      </trkpt>
      <trkpt lat="42.333592000" lon="-2.503975000">
        <ele>553.30</ele>
        <time>2014-11-01T08:34:13Z</time>
      </trkpt>
      <trkpt lat="42.333556000" lon="-2.503981000">
        <ele>553.60</ele>
        <time>2014-11-01T08:34:14Z</time>
      </trkpt>
      <trkpt lat="42.333519000" lon="-2.503998000">
        <ele>553.90</ele>
        <time>2014-11-01T08:34:15Z</time>
      </trkpt>
      <trkpt lat="42.333480000" lon="-2.504013000">
        <ele>554.00</ele>
        <time>2014-11-01T08:34:16Z</time>
      </trkpt>
      <trkpt lat="42.333442000" lon="-2.504026000">
        <ele>554.10</ele>
        <time>2014-11-01T08:34:17Z</time>
      </trkpt>
      <trkpt lat="42.333405000" lon="-2.504037000">
        <ele>554.20</ele>
        <time>2014-11-01T08:34:18Z</time>
      </trkpt>
      <trkpt lat="42.333367000" lon="-2.504055000">
        <ele>554.20</ele>
        <time>2014-11-01T08:34:19Z</time>
      </trkpt>
      <trkpt lat="42.333333000" lon="-2.504072000">
        <ele>554.20</ele>
        <time>2014-11-01T08:34:20Z</time>
      </trkpt>
      <trkpt lat="42.333298000" lon="-2.504095000">
        <ele>554.20</ele>
        <time>2014-11-01T08:34:21Z</time>
      </trkpt>
      <trkpt lat="42.333261000" lon="-2.504117000">
        <ele>554.20</ele>
        <time>2014-11-01T08:34:22Z</time>
      </trkpt>
      <trkpt lat="42.333226000" lon="-2.504136000">
        <ele>554.20</ele>
        <time>2014-11-01T08:34:23Z</time>
      </trkpt>
      <trkpt lat="42.333189000" lon="-2.504154000">
        <ele>554.00</ele>
        <time>2014-11-01T08:34:24Z</time>
      </trkpt>
      <trkpt lat="42.333156000" lon="-2.504173000">
        <ele>553.90</ele>
        <time>2014-11-01T08:34:25Z</time>
      </trkpt>
      <trkpt lat="42.333124000" lon="-2.504194000">
        <ele>553.80</ele>
        <time>2014-11-01T08:34:26Z</time>
      </trkpt>
      <trkpt lat="42.333093000" lon="-2.504217000">
        <ele>553.80</ele>
        <time>2014-11-01T08:34:27Z</time>
      </trkpt>
      <trkpt lat="42.333063000" lon="-2.504243000">
        <ele>553.70</ele>
        <time>2014-11-01T08:34:28Z</time>
      </trkpt>
      <trkpt lat="42.333036000" lon="-2.504270000">
        <ele>553.70</ele>
        <time>2014-11-01T08:34:29Z</time>
      </trkpt>
      <trkpt lat="42.333005000" lon="-2.504301000">
        <ele>554.00</ele>
        <time>2014-11-01T08:34:30Z</time>
      </trkpt>
      <trkpt lat="42.332977000" lon="-2.504335000">
        <ele>554.20</ele>
        <time>2014-11-01T08:34:31Z</time>
      </trkpt>
      <trkpt lat="42.332954000" lon="-2.504375000">
        <ele>554.40</ele>
        <time>2014-11-01T08:34:32Z</time>
      </trkpt>
      <trkpt lat="42.332930000" lon="-2.504414000">
        <ele>554.50</ele>
        <time>2014-11-01T08:34:33Z</time>
      </trkpt>
      <trkpt lat="42.332910000" lon="-2.504457000">
        <ele>554.60</ele>
        <time>2014-11-01T08:34:34Z</time>
      </trkpt>
      <trkpt lat="42.332889000" lon="-2.504502000">
        <ele>554.60</ele>
        <time>2014-11-01T08:34:35Z</time>
      </trkpt>
      <trkpt lat="42.332870000" lon="-2.504547000">
        <ele>554.40</ele>
        <time>2014-11-01T08:34:36Z</time>
      </trkpt>
      <trkpt lat="42.332851000" lon="-2.504595000">
        <ele>554.30</ele>
        <time>2014-11-01T08:34:37Z</time>
      </trkpt>
      <trkpt lat="42.332834000" lon="-2.504640000">
        <ele>554.20</ele>
        <time>2014-11-01T08:34:38Z</time>
      </trkpt>
      <trkpt lat="42.332813000" lon="-2.504684000">
        <ele>554.10</ele>
        <time>2014-11-01T08:34:39Z</time>
      </trkpt>
      <trkpt lat="42.332795000" lon="-2.504730000">
        <ele>554.10</ele>
        <time>2014-11-01T08:34:40Z</time>
      </trkpt>
      <trkpt lat="42.332779000" lon="-2.504776000">
        <ele>554.10</ele>
        <time>2014-11-01T08:34:41Z</time>
      </trkpt>
      <trkpt lat="42.332762000" lon="-2.504820000">
        <ele>554.30</ele>
        <time>2014-11-01T08:34:42Z</time>
      </trkpt>
      <trkpt lat="42.332744000" lon="-2.504868000">
        <ele>554.50</ele>
        <time>2014-11-01T08:34:43Z</time>
      </trkpt>
      <trkpt lat="42.332729000" lon="-2.504917000">
        <ele>554.60</ele>
        <time>2014-11-01T08:34:44Z</time>
      </trkpt>
      <trkpt lat="42.332714000" lon="-2.504964000">
        <ele>554.70</ele>
        <time>2014-11-01T08:34:45Z</time>
      </trkpt>
      <trkpt lat="42.332696000" lon="-2.505012000">
        <ele>554.70</ele>
        <time>2014-11-01T08:34:46Z</time>
      </trkpt>
      <trkpt lat="42.332680000" lon="-2.505059000">
        <ele>554.70</ele>
        <time>2014-11-01T08:34:47Z</time>
      </trkpt>
      <trkpt lat="42.332664000" lon="-2.505106000">
        <ele>554.70</ele>
        <time>2014-11-01T08:34:48Z</time>
      </trkpt>
      <trkpt lat="42.332648000" lon="-2.505149000">
        <ele>554.70</ele>
        <time>2014-11-01T08:34:49Z</time>
      </trkpt>
      <trkpt lat="42.332632000" lon="-2.505194000">
        <ele>554.70</ele>
        <time>2014-11-01T08:34:50Z</time>
      </trkpt>
      <trkpt lat="42.332616000" lon="-2.505236000">
        <ele>554.70</ele>
        <time>2014-11-01T08:34:51Z</time>
      </trkpt>
      <trkpt lat="42.332600000" lon="-2.505279000">
        <ele>554.70</ele>
        <time>2014-11-01T08:34:52Z</time>
      </trkpt>
      <trkpt lat="42.332587000" lon="-2.505321000">
        <ele>554.80</ele>
        <time>2014-11-01T08:34:53Z</time>
      </trkpt>
      <trkpt lat="42.332575000" lon="-2.505365000">
        <ele>554.80</ele>
        <time>2014-11-01T08:34:54Z</time>
      </trkpt>
      <trkpt lat="42.332561000" lon="-2.505407000">
        <ele>554.90</ele>
        <time>2014-11-01T08:34:55Z</time>
      </trkpt>
      <trkpt lat="42.332546000" lon="-2.505447000">
        <ele>554.90</ele>
        <time>2014-11-01T08:34:56Z</time>
      </trkpt>
      <trkpt lat="42.332531000" lon="-2.505489000">
        <ele>554.90</ele>
        <time>2014-11-01T08:34:57Z</time>
      </trkpt>
      <trkpt lat="42.332508000" lon="-2.505570000">
        <ele>555.20</ele>
        <time>2014-11-01T08:34:59Z</time>
      </trkpt>
      <trkpt lat="42.332496000" lon="-2.505612000">
        <ele>555.20</ele>
        <time>2014-11-01T08:35:00Z</time>
      </trkpt>
      <trkpt lat="42.332486000" lon="-2.505651000">
        <ele>555.30</ele>
        <time>2014-11-01T08:35:01Z</time>
      </trkpt>
      <trkpt lat="42.332473000" lon="-2.505690000">
        <ele>555.50</ele>
        <time>2014-11-01T08:35:02Z</time>
      </trkpt>
      <trkpt lat="42.332457000" lon="-2.505729000">
        <ele>555.60</ele>
        <time>2014-11-01T08:35:03Z</time>
      </trkpt>
      <trkpt lat="42.332442000" lon="-2.505771000">
        <ele>555.70</ele>
        <time>2014-11-01T08:35:04Z</time>
      </trkpt>
      <trkpt lat="42.332424000" lon="-2.505814000">
        <ele>555.70</ele>
        <time>2014-11-01T08:35:05Z</time>
      </trkpt>
      <trkpt lat="42.332405000" lon="-2.505853000">
        <ele>556.00</ele>
        <time>2014-11-01T08:35:06Z</time>
      </trkpt>
      <trkpt lat="42.332385000" lon="-2.505891000">
        <ele>556.20</ele>
        <time>2014-11-01T08:35:07Z</time>
      </trkpt>
      <trkpt lat="42.332368000" lon="-2.505932000">
        <ele>556.20</ele>
        <time>2014-11-01T08:35:08Z</time>
      </trkpt>
      <trkpt lat="42.332350000" lon="-2.505969000">
        <ele>556.10</ele>
        <time>2014-11-01T08:35:09Z</time>
      </trkpt>
      <trkpt lat="42.332330000" lon="-2.506005000">
        <ele>556.20</ele>
        <time>2014-11-01T08:35:10Z</time>
      </trkpt>
      <trkpt lat="42.332304000" lon="-2.506040000">
        <ele>556.20</ele>
        <time>2014-11-01T08:35:11Z</time>
      </trkpt>
      <trkpt lat="42.332285000" lon="-2.506073000">
        <ele>556.20</ele>
        <time>2014-11-01T08:35:12Z</time>
      </trkpt>
      <trkpt lat="42.332269000" lon="-2.506098000">
        <ele>556.30</ele>
        <time>2014-11-01T08:35:13Z</time>
      </trkpt>
      <trkpt lat="42.332247000" lon="-2.506131000">
        <ele>556.30</ele>
        <time>2014-11-01T08:35:14Z</time>
      </trkpt>
      <trkpt lat="42.332229000" lon="-2.506163000">
        <ele>556.40</ele>
        <time>2014-11-01T08:35:15Z</time>
      </trkpt>
      <trkpt lat="42.332212000" lon="-2.506197000">
        <ele>556.60</ele>
        <time>2014-11-01T08:35:16Z</time>
      </trkpt>
      <trkpt lat="42.332194000" lon="-2.506232000">
        <ele>556.70</ele>
        <time>2014-11-01T08:35:17Z</time>
      </trkpt>
      <trkpt lat="42.332171000" lon="-2.506270000">
        <ele>556.90</ele>
        <time>2014-11-01T08:35:18Z</time>
      </trkpt>
      <trkpt lat="42.332150000" lon="-2.506307000">
        <ele>557.00</ele>
        <time>2014-11-01T08:35:19Z</time>
      </trkpt>
      <trkpt lat="42.332124000" lon="-2.506341000">
        <ele>557.10</ele>
        <time>2014-11-01T08:35:20Z</time>
      </trkpt>
      <trkpt lat="42.332101000" lon="-2.506372000">
        <ele>557.10</ele>
        <time>2014-11-01T08:35:21Z</time>
      </trkpt>
      <trkpt lat="42.332082000" lon="-2.506401000">
        <ele>557.50</ele>
        <time>2014-11-01T08:35:22Z</time>
      </trkpt>
      <trkpt lat="42.332062000" lon="-2.506431000">
        <ele>557.70</ele>
        <time>2014-11-01T08:35:23Z</time>
      </trkpt>
      <trkpt lat="42.332047000" lon="-2.506462000">
        <ele>558.00</ele>
        <time>2014-11-01T08:35:24Z</time>
      </trkpt>
      <trkpt lat="42.332030000" lon="-2.506493000">
        <ele>558.20</ele>
        <time>2014-11-01T08:35:25Z</time>
      </trkpt>
      <trkpt lat="42.332011000" lon="-2.506524000">
        <ele>558.40</ele>
        <time>2014-11-01T08:35:26Z</time>
      </trkpt>
      <trkpt lat="42.331990000" lon="-2.506556000">
        <ele>558.50</ele>
        <time>2014-11-01T08:35:27Z</time>
      </trkpt>
      <trkpt lat="42.331969000" lon="-2.506586000">
        <ele>558.80</ele>
        <time>2014-11-01T08:35:28Z</time>
      </trkpt>
      <trkpt lat="42.331945000" lon="-2.506616000">
        <ele>558.90</ele>
        <time>2014-11-01T08:35:29Z</time>
      </trkpt>
      <trkpt lat="42.331922000" lon="-2.506646000">
        <ele>559.40</ele>
        <time>2014-11-01T08:35:30Z</time>
      </trkpt>
      <trkpt lat="42.331904000" lon="-2.506672000">
        <ele>559.70</ele>
        <time>2014-11-01T08:35:31Z</time>
      </trkpt>
      <trkpt lat="42.331890000" lon="-2.506693000">
        <ele>560.00</ele>
        <time>2014-11-01T08:35:32Z</time>
      </trkpt>
      <trkpt lat="42.331872000" lon="-2.506710000">
        <ele>560.20</ele>
        <time>2014-11-01T08:35:33Z</time>
      </trkpt>
      <trkpt lat="42.331842000" lon="-2.506728000">
        <ele>560.30</ele>
        <time>2014-11-01T08:35:34Z</time>
      </trkpt>
      <trkpt lat="42.331811000" lon="-2.506744000">
        <ele>560.40</ele>
        <time>2014-11-01T08:35:35Z</time>
      </trkpt>
      <trkpt lat="42.331780000" lon="-2.506762000">
        <ele>560.50</ele>
        <time>2014-11-01T08:35:36Z</time>
      </trkpt>
      <trkpt lat="42.331748000" lon="-2.506776000">
        <ele>560.60</ele>
        <time>2014-11-01T08:35:37Z</time>
      </trkpt>
      <trkpt lat="42.331716000" lon="-2.506787000">
        <ele>560.70</ele>
        <time>2014-11-01T08:35:38Z</time>
      </trkpt>
      <trkpt lat="42.331685000" lon="-2.506798000">
        <ele>560.80</ele>
        <time>2014-11-01T08:35:39Z</time>
      </trkpt>
      <trkpt lat="42.331650000" lon="-2.506812000">
        <ele>561.00</ele>
        <time>2014-11-01T08:35:40Z</time>
      </trkpt>
      <trkpt lat="42.331618000" lon="-2.506822000">
        <ele>561.10</ele>
        <time>2014-11-01T08:35:41Z</time>
      </trkpt>
      <trkpt lat="42.331586000" lon="-2.506831000">
        <ele>561.20</ele>
        <time>2014-11-01T08:35:42Z</time>
      </trkpt>
      <trkpt lat="42.331551000" lon="-2.506839000">
        <ele>561.20</ele>
        <time>2014-11-01T08:35:43Z</time>
      </trkpt>
      <trkpt lat="42.331517000" lon="-2.506850000">
        <ele>561.20</ele>
        <time>2014-11-01T08:35:44Z</time>
      </trkpt>
      <trkpt lat="42.331483000" lon="-2.506862000">
        <ele>561.20</ele>
        <time>2014-11-01T08:35:45Z</time>
      </trkpt>
      <trkpt lat="42.331448000" lon="-2.506874000">
        <ele>561.20</ele>
        <time>2014-11-01T08:35:46Z</time>
      </trkpt>
      <trkpt lat="42.331413000" lon="-2.506886000">
        <ele>561.20</ele>
        <time>2014-11-01T08:35:47Z</time>
      </trkpt>
      <trkpt lat="42.331381000" lon="-2.506896000">
        <ele>561.20</ele>
        <time>2014-11-01T08:35:48Z</time>
      </trkpt>
      <trkpt lat="42.331347000" lon="-2.506904000">
        <ele>561.20</ele>
        <time>2014-11-01T08:35:49Z</time>
      </trkpt>
      <trkpt lat="42.331315000" lon="-2.506918000">
        <ele>561.30</ele>
        <time>2014-11-01T08:35:50Z</time>
      </trkpt>
      <trkpt lat="42.331284000" lon="-2.506931000">
        <ele>561.40</ele>
        <time>2014-11-01T08:35:51Z</time>
      </trkpt>
      <trkpt lat="42.331250000" lon="-2.506944000">
        <ele>561.50</ele>
        <time>2014-11-01T08:35:52Z</time>
      </trkpt>
      <trkpt lat="42.331217000" lon="-2.506957000">
        <ele>561.50</ele>
        <time>2014-11-01T08:35:53Z</time>
      </trkpt>
      <trkpt lat="42.331182000" lon="-2.506973000">
        <ele>561.60</ele>
        <time>2014-11-01T08:35:54Z</time>
      </trkpt>
      <trkpt lat="42.331150000" lon="-2.506990000">
        <ele>561.60</ele>
        <time>2014-11-01T08:35:55Z</time>
      </trkpt>
      <trkpt lat="42.331118000" lon="-2.507006000">
        <ele>561.60</ele>
        <time>2014-11-01T08:35:56Z</time>
      </trkpt>
      <trkpt lat="42.331083000" lon="-2.507019000">
        <ele>561.70</ele>
        <time>2014-11-01T08:35:57Z</time>
      </trkpt>
      <trkpt lat="42.331050000" lon="-2.507035000">
        <ele>561.50</ele>
        <time>2014-11-01T08:35:58Z</time>
      </trkpt>
      <trkpt lat="42.330978000" lon="-2.507069000">
        <ele>561.30</ele>
        <time>2014-11-01T08:36:00Z</time>
      </trkpt>
      <trkpt lat="42.330940000" lon="-2.507089000">
        <ele>561.20</ele>
        <time>2014-11-01T08:36:01Z</time>
      </trkpt>
      <trkpt lat="42.330903000" lon="-2.507103000">
        <ele>561.10</ele>
        <time>2014-11-01T08:36:02Z</time>
      </trkpt>
      <trkpt lat="42.330868000" lon="-2.507121000">
        <ele>561.10</ele>
        <time>2014-11-01T08:36:03Z</time>
      </trkpt>
      <trkpt lat="42.330830000" lon="-2.507136000">
        <ele>561.10</ele>
        <time>2014-11-01T08:36:04Z</time>
      </trkpt>
      <trkpt lat="42.330793000" lon="-2.507152000">
        <ele>561.10</ele>
        <time>2014-11-01T08:36:05Z</time>
      </trkpt>
      <trkpt lat="42.330755000" lon="-2.507168000">
        <ele>561.20</ele>
        <time>2014-11-01T08:36:06Z</time>
      </trkpt>
      <trkpt lat="42.330717000" lon="-2.507187000">
        <ele>561.40</ele>
        <time>2014-11-01T08:36:07Z</time>
      </trkpt>
      <trkpt lat="42.330680000" lon="-2.507208000">
        <ele>561.30</ele>
        <time>2014-11-01T08:36:08Z</time>
      </trkpt>
      <trkpt lat="42.330638000" lon="-2.507228000">
        <ele>561.30</ele>
        <time>2014-11-01T08:36:09Z</time>
      </trkpt>
      <trkpt lat="42.330598000" lon="-2.507246000">
        <ele>561.30</ele>
        <time>2014-11-01T08:36:10Z</time>
      </trkpt>
      <trkpt lat="42.330558000" lon="-2.507265000">
        <ele>561.30</ele>
        <time>2014-11-01T08:36:11Z</time>
      </trkpt>
      <trkpt lat="42.330520000" lon="-2.507287000">
        <ele>561.30</ele>
        <time>2014-11-01T08:36:12Z</time>
      </trkpt>
      <trkpt lat="42.330483000" lon="-2.507314000">
        <ele>561.30</ele>
        <time>2014-11-01T08:36:13Z</time>
      </trkpt>
      <trkpt lat="42.330450000" lon="-2.507345000">
        <ele>561.40</ele>
        <time>2014-11-01T08:36:14Z</time>
      </trkpt>
      <trkpt lat="42.330418000" lon="-2.507380000">
        <ele>561.50</ele>
        <time>2014-11-01T08:36:15Z</time>
      </trkpt>
      <trkpt lat="42.330383000" lon="-2.507413000">
        <ele>561.60</ele>
        <time>2014-11-01T08:36:16Z</time>
      </trkpt>
      <trkpt lat="42.330354000" lon="-2.507450000">
        <ele>561.60</ele>
        <time>2014-11-01T08:36:17Z</time>
      </trkpt>
      <trkpt lat="42.330323000" lon="-2.507490000">
        <ele>561.60</ele>
        <time>2014-11-01T08:36:18Z</time>
      </trkpt>
      <trkpt lat="42.330297000" lon="-2.507530000">
        <ele>561.60</ele>
        <time>2014-11-01T08:36:19Z</time>
      </trkpt>
      <trkpt lat="42.330266000" lon="-2.507573000">
        <ele>561.50</ele>
        <time>2014-11-01T08:36:20Z</time>
      </trkpt>
      <trkpt lat="42.330236000" lon="-2.507617000">
        <ele>561.40</ele>
        <time>2014-11-01T08:36:21Z</time>
      </trkpt>
      <trkpt lat="42.330202000" lon="-2.507663000">
        <ele>561.40</ele>
        <time>2014-11-01T08:36:22Z</time>
      </trkpt>
      <trkpt lat="42.330170000" lon="-2.507705000">
        <ele>561.40</ele>
        <time>2014-11-01T08:36:23Z</time>
      </trkpt>
      <trkpt lat="42.330136000" lon="-2.507741000">
        <ele>561.30</ele>
        <time>2014-11-01T08:36:24Z</time>
      </trkpt>
      <trkpt lat="42.330101000" lon="-2.507776000">
        <ele>561.30</ele>
        <time>2014-11-01T08:36:25Z</time>
      </trkpt>
      <trkpt lat="42.330069000" lon="-2.507807000">
        <ele>561.10</ele>
        <time>2014-11-01T08:36:26Z</time>
      </trkpt>
      <trkpt lat="42.330038000" lon="-2.507844000">
        <ele>560.90</ele>
        <time>2014-11-01T08:36:27Z</time>
      </trkpt>
      <trkpt lat="42.330006000" lon="-2.507884000">
        <ele>560.70</ele>
        <time>2014-11-01T08:36:28Z</time>
      </trkpt>
      <trkpt lat="42.329976000" lon="-2.507925000">
        <ele>560.60</ele>
        <time>2014-11-01T08:36:29Z</time>
      </trkpt>
      <trkpt lat="42.329944000" lon="-2.507962000">
        <ele>560.90</ele>
        <time>2014-11-01T08:36:30Z</time>
      </trkpt>
      <trkpt lat="42.329913000" lon="-2.507999000">
        <ele>561.00</ele>
        <time>2014-11-01T08:36:31Z</time>
      </trkpt>
      <trkpt lat="42.329882000" lon="-2.508034000">
        <ele>561.10</ele>
        <time>2014-11-01T08:36:32Z</time>
      </trkpt>
      <trkpt lat="42.329856000" lon="-2.508068000">
        <ele>561.20</ele>
        <time>2014-11-01T08:36:33Z</time>
      </trkpt>
      <trkpt lat="42.329830000" lon="-2.508097000">
        <ele>561.00</ele>
        <time>2014-11-01T08:36:34Z</time>
      </trkpt>
      <trkpt lat="42.329808000" lon="-2.508127000">
        <ele>560.90</ele>
        <time>2014-11-01T08:36:35Z</time>
      </trkpt>
      <trkpt lat="42.329787000" lon="-2.508159000">
        <ele>560.80</ele>
        <time>2014-11-01T08:36:36Z</time>
      </trkpt>
      <trkpt lat="42.329765000" lon="-2.508193000">
        <ele>560.70</ele>
        <time>2014-11-01T08:36:37Z</time>
      </trkpt>
      <trkpt lat="42.329739000" lon="-2.508231000">
        <ele>560.90</ele>
        <time>2014-11-01T08:36:38Z</time>
      </trkpt>
      <trkpt lat="42.329715000" lon="-2.508269000">
        <ele>561.00</ele>
        <time>2014-11-01T08:36:39Z</time>
      </trkpt>
      <trkpt lat="42.329690000" lon="-2.508306000">
        <ele>561.20</ele>
        <time>2014-11-01T08:36:40Z</time>
      </trkpt>
      <trkpt lat="42.329666000" lon="-2.508347000">
        <ele>561.40</ele>
        <time>2014-11-01T08:36:41Z</time>
      </trkpt>
      <trkpt lat="42.329642000" lon="-2.508387000">
        <ele>561.40</ele>
        <time>2014-11-01T08:36:42Z</time>
      </trkpt>
      <trkpt lat="42.329621000" lon="-2.508422000">
        <ele>561.40</ele>
        <time>2014-11-01T08:36:43Z</time>
      </trkpt>
      <trkpt lat="42.329598000" lon="-2.508457000">
        <ele>561.40</ele>
        <time>2014-11-01T08:36:44Z</time>
      </trkpt>
      <trkpt lat="42.329575000" lon="-2.508493000">
        <ele>561.40</ele>
        <time>2014-11-01T08:36:45Z</time>
      </trkpt>
      <trkpt lat="42.329554000" lon="-2.508528000">
        <ele>561.30</ele>
        <time>2014-11-01T08:36:46Z</time>
      </trkpt>
      <trkpt lat="42.329534000" lon="-2.508558000">
        <ele>561.20</ele>
        <time>2014-11-01T08:36:47Z</time>
      </trkpt>
      <trkpt lat="42.329517000" lon="-2.508586000">
        <ele>561.10</ele>
        <time>2014-11-01T08:36:48Z</time>
      </trkpt>
      <trkpt lat="42.329496000" lon="-2.508614000">
        <ele>561.00</ele>
        <time>2014-11-01T08:36:49Z</time>
      </trkpt>
      <trkpt lat="42.329478000" lon="-2.508642000">
        <ele>560.90</ele>
        <time>2014-11-01T08:36:50Z</time>
      </trkpt>
      <trkpt lat="42.329460000" lon="-2.508664000">
        <ele>560.90</ele>
        <time>2014-11-01T08:36:51Z</time>
      </trkpt>
      <trkpt lat="42.329446000" lon="-2.508688000">
        <ele>560.80</ele>
        <time>2014-11-01T08:36:52Z</time>
      </trkpt>
      <trkpt lat="42.329431000" lon="-2.508717000">
        <ele>560.80</ele>
        <time>2014-11-01T08:36:53Z</time>
      </trkpt>
      <trkpt lat="42.329413000" lon="-2.508744000">
        <ele>560.70</ele>
        <time>2014-11-01T08:36:54Z</time>
      </trkpt>
      <trkpt lat="42.329395000" lon="-2.508775000">
        <ele>560.70</ele>
        <time>2014-11-01T08:36:55Z</time>
      </trkpt>
      <trkpt lat="42.329375000" lon="-2.508806000">
        <ele>560.70</ele>
        <time>2014-11-01T08:36:56Z</time>
      </trkpt>
      <trkpt lat="42.329354000" lon="-2.508834000">
        <ele>560.70</ele>
        <time>2014-11-01T08:36:57Z</time>
      </trkpt>
      <trkpt lat="42.329331000" lon="-2.508864000">
        <ele>560.70</ele>
        <time>2014-11-01T08:36:58Z</time>
      </trkpt>
      <trkpt lat="42.329307000" lon="-2.508897000">
        <ele>560.80</ele>
        <time>2014-11-01T08:36:59Z</time>
      </trkpt>
      <trkpt lat="42.329261000" lon="-2.508971000">
        <ele>560.80</ele>
        <time>2014-11-01T08:37:01Z</time>
      </trkpt>
      <trkpt lat="42.329239000" lon="-2.509010000">
        <ele>560.80</ele>
        <time>2014-11-01T08:37:02Z</time>
      </trkpt>
      <trkpt lat="42.329210000" lon="-2.509051000">
        <ele>560.80</ele>
        <time>2014-11-01T08:37:03Z</time>
      </trkpt>
      <trkpt lat="42.329185000" lon="-2.509097000">
        <ele>560.80</ele>
        <time>2014-11-01T08:37:04Z</time>
      </trkpt>
      <trkpt lat="42.329164000" lon="-2.509149000">
        <ele>560.70</ele>
        <time>2014-11-01T08:37:05Z</time>
      </trkpt>
      <trkpt lat="42.329142000" lon="-2.509203000">
        <ele>560.60</ele>
        <time>2014-11-01T08:37:06Z</time>
      </trkpt>
      <trkpt lat="42.329118000" lon="-2.509261000">
        <ele>560.50</ele>
        <time>2014-11-01T08:37:07Z</time>
      </trkpt>
      <trkpt lat="42.329093000" lon="-2.509321000">
        <ele>560.40</ele>
        <time>2014-11-01T08:37:08Z</time>
      </trkpt>
      <trkpt lat="42.329069000" lon="-2.509382000">
        <ele>560.30</ele>
        <time>2014-11-01T08:37:09Z</time>
      </trkpt>
      <trkpt lat="42.329044000" lon="-2.509443000">
        <ele>560.30</ele>
        <time>2014-11-01T08:37:10Z</time>
      </trkpt>
      <trkpt lat="42.329021000" lon="-2.509504000">
        <ele>560.30</ele>
        <time>2014-11-01T08:37:11Z</time>
      </trkpt>
      <trkpt lat="42.329000000" lon="-2.509564000">
        <ele>560.30</ele>
        <time>2014-11-01T08:37:12Z</time>
      </trkpt>
      <trkpt lat="42.328981000" lon="-2.509620000">
        <ele>560.30</ele>
        <time>2014-11-01T08:37:13Z</time>
      </trkpt>
      <trkpt lat="42.328962000" lon="-2.509677000">
        <ele>560.20</ele>
        <time>2014-11-01T08:37:14Z</time>
      </trkpt>
      <trkpt lat="42.328942000" lon="-2.509733000">
        <ele>560.10</ele>
        <time>2014-11-01T08:37:15Z</time>
      </trkpt>
      <trkpt lat="42.328923000" lon="-2.509786000">
        <ele>559.90</ele>
        <time>2014-11-01T08:37:16Z</time>
      </trkpt>
      <trkpt lat="42.328902000" lon="-2.509835000">
        <ele>559.70</ele>
        <time>2014-11-01T08:37:17Z</time>
      </trkpt>
      <trkpt lat="42.328881000" lon="-2.509884000">
        <ele>559.60</ele>
        <time>2014-11-01T08:37:18Z</time>
      </trkpt>
      <trkpt lat="42.328859000" lon="-2.509929000">
        <ele>559.60</ele>
        <time>2014-11-01T08:37:19Z</time>
      </trkpt>
      <trkpt lat="42.328838000" lon="-2.509972000">
        <ele>559.40</ele>
        <time>2014-11-01T08:37:20Z</time>
      </trkpt>
      <trkpt lat="42.328817000" lon="-2.510013000">
        <ele>559.30</ele>
        <time>2014-11-01T08:37:21Z</time>
      </trkpt>
      <trkpt lat="42.328795000" lon="-2.510054000">
        <ele>559.30</ele>
        <time>2014-11-01T08:37:22Z</time>
      </trkpt>
      <trkpt lat="42.328769000" lon="-2.510090000">
        <ele>559.40</ele>
        <time>2014-11-01T08:37:23Z</time>
      </trkpt>
      <trkpt lat="42.328745000" lon="-2.510129000">
        <ele>559.40</ele>
        <time>2014-11-01T08:37:24Z</time>
      </trkpt>
      <trkpt lat="42.328722000" lon="-2.510168000">
        <ele>559.40</ele>
        <time>2014-11-01T08:37:25Z</time>
      </trkpt>
      <trkpt lat="42.328696000" lon="-2.510204000">
        <ele>559.40</ele>
        <time>2014-11-01T08:37:26Z</time>
      </trkpt>
      <trkpt lat="42.328671000" lon="-2.510245000">
        <ele>559.40</ele>
        <time>2014-11-01T08:37:27Z</time>
      </trkpt>
      <trkpt lat="42.328646000" lon="-2.510286000">
        <ele>559.60</ele>
        <time>2014-11-01T08:37:28Z</time>
      </trkpt>
      <trkpt lat="42.328622000" lon="-2.510328000">
        <ele>559.70</ele>
        <time>2014-11-01T08:37:29Z</time>
      </trkpt>
      <trkpt lat="42.328599000" lon="-2.510369000">
        <ele>559.80</ele>
        <time>2014-11-01T08:37:30Z</time>
      </trkpt>
      <trkpt lat="42.328576000" lon="-2.510409000">
        <ele>559.90</ele>
        <time>2014-11-01T08:37:31Z</time>
      </trkpt>
      <trkpt lat="42.328558000" lon="-2.510451000">
        <ele>560.00</ele>
        <time>2014-11-01T08:37:32Z</time>
      </trkpt>
      <trkpt lat="42.328537000" lon="-2.510497000">
        <ele>560.00</ele>
        <time>2014-11-01T08:37:33Z</time>
      </trkpt>
      <trkpt lat="42.328522000" lon="-2.510536000">
        <ele>560.20</ele>
        <time>2014-11-01T08:37:34Z</time>
      </trkpt>
      <trkpt lat="42.328507000" lon="-2.510582000">
        <ele>560.20</ele>
        <time>2014-11-01T08:37:35Z</time>
      </trkpt>
      <trkpt lat="42.328490000" lon="-2.510625000">
        <ele>560.40</ele>
        <time>2014-11-01T08:37:36Z</time>
      </trkpt>
      <trkpt lat="42.328475000" lon="-2.510666000">
        <ele>560.50</ele>
        <time>2014-11-01T08:37:37Z</time>
      </trkpt>
      <trkpt lat="42.328457000" lon="-2.510709000">
        <ele>560.50</ele>
        <time>2014-11-01T08:37:38Z</time>
      </trkpt>
      <trkpt lat="42.328439000" lon="-2.510748000">
        <ele>560.60</ele>
        <time>2014-11-01T08:37:39Z</time>
      </trkpt>
      <trkpt lat="42.328415000" lon="-2.510783000">
        <ele>560.70</ele>
        <time>2014-11-01T08:37:40Z</time>
      </trkpt>
      <trkpt lat="42.328394000" lon="-2.510819000">
        <ele>560.80</ele>
        <time>2014-11-01T08:37:41Z</time>
      </trkpt>
      <trkpt lat="42.328371000" lon="-2.510852000">
        <ele>561.10</ele>
        <time>2014-11-01T08:37:42Z</time>
      </trkpt>
      <trkpt lat="42.328346000" lon="-2.510883000">
        <ele>561.20</ele>
        <time>2014-11-01T08:37:43Z</time>
      </trkpt>
      <trkpt lat="42.328324000" lon="-2.510915000">
        <ele>561.80</ele>
        <time>2014-11-01T08:37:44Z</time>
      </trkpt>
      <trkpt lat="42.328303000" lon="-2.510946000">
        <ele>562.20</ele>
        <time>2014-11-01T08:37:45Z</time>
      </trkpt>
      <trkpt lat="42.328281000" lon="-2.510974000">
        <ele>562.50</ele>
        <time>2014-11-01T08:37:46Z</time>
      </trkpt>
      <trkpt lat="42.328262000" lon="-2.510998000">
        <ele>562.80</ele>
        <time>2014-11-01T08:37:47Z</time>
      </trkpt>
      <trkpt lat="42.328242000" lon="-2.511018000">
        <ele>563.20</ele>
        <time>2014-11-01T08:37:48Z</time>
      </trkpt>
      <trkpt lat="42.328222000" lon="-2.511041000">
        <ele>563.50</ele>
        <time>2014-11-01T08:37:49Z</time>
      </trkpt>
      <trkpt lat="42.328197000" lon="-2.511057000">
        <ele>564.20</ele>
        <time>2014-11-01T08:37:50Z</time>
      </trkpt>
      <trkpt lat="42.328172000" lon="-2.511074000">
        <ele>564.80</ele>
        <time>2014-11-01T08:37:51Z</time>
      </trkpt>
      <trkpt lat="42.328147000" lon="-2.511091000">
        <ele>565.30</ele>
        <time>2014-11-01T08:37:52Z</time>
      </trkpt>
      <trkpt lat="42.328121000" lon="-2.511106000">
        <ele>565.60</ele>
        <time>2014-11-01T08:37:53Z</time>
      </trkpt>
      <trkpt lat="42.328095000" lon="-2.511122000">
        <ele>565.70</ele>
        <time>2014-11-01T08:37:54Z</time>
      </trkpt>
      <trkpt lat="42.328073000" lon="-2.511140000">
        <ele>565.80</ele>
        <time>2014-11-01T08:37:55Z</time>
      </trkpt>
      <trkpt lat="42.328047000" lon="-2.511157000">
        <ele>565.80</ele>
        <time>2014-11-01T08:37:56Z</time>
      </trkpt>
      <trkpt lat="42.328022000" lon="-2.511174000">
        <ele>565.80</ele>
        <time>2014-11-01T08:37:57Z</time>
      </trkpt>
      <trkpt lat="42.327998000" lon="-2.511194000">
        <ele>566.00</ele>
        <time>2014-11-01T08:37:58Z</time>
      </trkpt>
      <trkpt lat="42.327973000" lon="-2.511213000">
        <ele>566.10</ele>
        <time>2014-11-01T08:37:59Z</time>
      </trkpt>
      <trkpt lat="42.327947000" lon="-2.511228000">
        <ele>566.30</ele>
        <time>2014-11-01T08:38:00Z</time>
      </trkpt>
      <trkpt lat="42.327903000" lon="-2.511254000">
        <ele>566.60</ele>
        <time>2014-11-01T08:38:02Z</time>
      </trkpt>
      <trkpt lat="42.327882000" lon="-2.511267000">
        <ele>566.70</ele>
        <time>2014-11-01T08:38:03Z</time>
      </trkpt>
      <trkpt lat="42.327862000" lon="-2.511274000">
        <ele>566.70</ele>
        <time>2014-11-01T08:38:04Z</time>
      </trkpt>
      <trkpt lat="42.327843000" lon="-2.511280000">
        <ele>566.80</ele>
        <time>2014-11-01T08:38:05Z</time>
      </trkpt>
      <trkpt lat="42.327820000" lon="-2.511291000">
        <ele>566.80</ele>
        <time>2014-11-01T08:38:06Z</time>
      </trkpt>
      <trkpt lat="42.327787000" lon="-2.511297000">
        <ele>566.80</ele>
        <time>2014-11-01T08:38:07Z</time>
      </trkpt>
      <trkpt lat="42.327747000" lon="-2.511299000">
        <ele>566.90</ele>
        <time>2014-11-01T08:38:08Z</time>
      </trkpt>
      <trkpt lat="42.327707000" lon="-2.511300000">
        <ele>566.90</ele>
        <time>2014-11-01T08:38:09Z</time>
      </trkpt>
      <trkpt lat="42.327668000" lon="-2.511307000">
        <ele>566.80</ele>
        <time>2014-11-01T08:38:10Z</time>
      </trkpt>
      <trkpt lat="42.327636000" lon="-2.511322000">
        <ele>566.80</ele>
        <time>2014-11-01T08:38:11Z</time>
      </trkpt>
      <trkpt lat="42.327604000" lon="-2.511352000">
        <ele>566.60</ele>
        <time>2014-11-01T08:38:12Z</time>
      </trkpt>
      <trkpt lat="42.327569000" lon="-2.511405000">
        <ele>566.40</ele>
        <time>2014-11-01T08:38:13Z</time>
      </trkpt>
      <trkpt lat="42.327533000" lon="-2.511472000">
        <ele>565.90</ele>
        <time>2014-11-01T08:38:14Z</time>
      </trkpt>
      <trkpt lat="42.327506000" lon="-2.511548000">
        <ele>565.40</ele>
        <time>2014-11-01T08:38:15Z</time>
      </trkpt>
      <trkpt lat="42.327486000" lon="-2.511622000">
        <ele>565.10</ele>
        <time>2014-11-01T08:38:16Z</time>
      </trkpt>
      <trkpt lat="42.327471000" lon="-2.511697000">
        <ele>564.90</ele>
        <time>2014-11-01T08:38:17Z</time>
      </trkpt>
      <trkpt lat="42.327458000" lon="-2.511767000">
        <ele>564.50</ele>
        <time>2014-11-01T08:38:18Z</time>
      </trkpt>
      <trkpt lat="42.327446000" lon="-2.511826000">
        <ele>564.20</ele>
        <time>2014-11-01T08:38:19Z</time>
      </trkpt>
      <trkpt lat="42.327436000" lon="-2.511882000">
        <ele>563.90</ele>
        <time>2014-11-01T08:38:20Z</time>
      </trkpt>
      <trkpt lat="42.327423000" lon="-2.511934000">
        <ele>563.70</ele>
        <time>2014-11-01T08:38:21Z</time>
      </trkpt>
      <trkpt lat="42.327410000" lon="-2.511985000">
        <ele>563.60</ele>
        <time>2014-11-01T08:38:22Z</time>
      </trkpt>
      <trkpt lat="42.327394000" lon="-2.512035000">
        <ele>563.40</ele>
        <time>2014-11-01T08:38:23Z</time>
      </trkpt>
      <trkpt lat="42.327380000" lon="-2.512084000">
        <ele>563.40</ele>
        <time>2014-11-01T08:38:24Z</time>
      </trkpt>
      <trkpt lat="42.327364000" lon="-2.512132000">
        <ele>563.30</ele>
        <time>2014-11-01T08:38:25Z</time>
      </trkpt>
      <trkpt lat="42.327345000" lon="-2.512179000">
        <ele>563.30</ele>
        <time>2014-11-01T08:38:26Z</time>
      </trkpt>
      <trkpt lat="42.327325000" lon="-2.512228000">
        <ele>563.20</ele>
        <time>2014-11-01T08:38:27Z</time>
      </trkpt>
      <trkpt lat="42.327302000" lon="-2.512275000">
        <ele>563.30</ele>
        <time>2014-11-01T08:38:28Z</time>
      </trkpt>
      <trkpt lat="42.327280000" lon="-2.512322000">
        <ele>563.30</ele>
        <time>2014-11-01T08:38:29Z</time>
      </trkpt>
      <trkpt lat="42.327255000" lon="-2.512368000">
        <ele>563.30</ele>
        <time>2014-11-01T08:38:30Z</time>
      </trkpt>
      <trkpt lat="42.327232000" lon="-2.512414000">
        <ele>563.30</ele>
        <time>2014-11-01T08:38:31Z</time>
      </trkpt>
      <trkpt lat="42.327209000" lon="-2.512461000">
        <ele>563.50</ele>
        <time>2014-11-01T08:38:32Z</time>
      </trkpt>
      <trkpt lat="42.327186000" lon="-2.512506000">
        <ele>563.60</ele>
        <time>2014-11-01T08:38:33Z</time>
      </trkpt>
      <trkpt lat="42.327166000" lon="-2.512555000">
        <ele>563.60</ele>
        <time>2014-11-01T08:38:34Z</time>
      </trkpt>
      <trkpt lat="42.327145000" lon="-2.512603000">
        <ele>563.70</ele>
        <time>2014-11-01T08:38:35Z</time>
      </trkpt>
      <trkpt lat="42.327124000" lon="-2.512653000">
        <ele>563.80</ele>
        <time>2014-11-01T08:38:36Z</time>
      </trkpt>
      <trkpt lat="42.327103000" lon="-2.512703000">
        <ele>563.90</ele>
        <time>2014-11-01T08:38:37Z</time>
      </trkpt>
      <trkpt lat="42.327081000" lon="-2.512753000">
        <ele>564.10</ele>
        <time>2014-11-01T08:38:38Z</time>
      </trkpt>
      <trkpt lat="42.327059000" lon="-2.512800000">
        <ele>564.20</ele>
        <time>2014-11-01T08:38:39Z</time>
      </trkpt>
      <trkpt lat="42.327036000" lon="-2.512846000">
        <ele>564.40</ele>
        <time>2014-11-01T08:38:40Z</time>
      </trkpt>
      <trkpt lat="42.327010000" lon="-2.512888000">
        <ele>564.50</ele>
        <time>2014-11-01T08:38:41Z</time>
      </trkpt>
      <trkpt lat="42.326979000" lon="-2.512924000">
        <ele>564.70</ele>
        <time>2014-11-01T08:38:42Z</time>
      </trkpt>
      <trkpt lat="42.326947000" lon="-2.512955000">
        <ele>564.70</ele>
        <time>2014-11-01T08:38:43Z</time>
      </trkpt>
      <trkpt lat="42.326910000" lon="-2.512979000">
        <ele>564.80</ele>
        <time>2014-11-01T08:38:44Z</time>
      </trkpt>
      <trkpt lat="42.326872000" lon="-2.512997000">
        <ele>564.90</ele>
        <time>2014-11-01T08:38:45Z</time>
      </trkpt>
      <trkpt lat="42.326832000" lon="-2.513012000">
        <ele>564.80</ele>
        <time>2014-11-01T08:38:46Z</time>
      </trkpt>
      <trkpt lat="42.326794000" lon="-2.513024000">
        <ele>564.70</ele>
        <time>2014-11-01T08:38:47Z</time>
      </trkpt>
      <trkpt lat="42.326754000" lon="-2.513031000">
        <ele>564.60</ele>
        <time>2014-11-01T08:38:48Z</time>
      </trkpt>
      <trkpt lat="42.326714000" lon="-2.513039000">
        <ele>564.60</ele>
        <time>2014-11-01T08:38:49Z</time>
      </trkpt>
      <trkpt lat="42.326675000" lon="-2.513053000">
        <ele>564.70</ele>
        <time>2014-11-01T08:38:50Z</time>
      </trkpt>
      <trkpt lat="42.326638000" lon="-2.513074000">
        <ele>564.80</ele>
        <time>2014-11-01T08:38:51Z</time>
      </trkpt>
      <trkpt lat="42.326606000" lon="-2.513099000">
        <ele>564.90</ele>
        <time>2014-11-01T08:38:52Z</time>
      </trkpt>
      <trkpt lat="42.326581000" lon="-2.513125000">
        <ele>565.00</ele>
        <time>2014-11-01T08:38:53Z</time>
      </trkpt>
      <trkpt lat="42.326569000" lon="-2.513146000">
        <ele>565.20</ele>
        <time>2014-11-01T08:38:54Z</time>
      </trkpt>
      <trkpt lat="42.326561000" lon="-2.513167000">
        <ele>565.30</ele>
        <time>2014-11-01T08:38:55Z</time>
      </trkpt>
      <trkpt lat="42.326559000" lon="-2.513187000">
        <ele>565.50</ele>
        <time>2014-11-01T08:38:56Z</time>
      </trkpt>
      <trkpt lat="42.326552000" lon="-2.513204000">
        <ele>565.50</ele>
        <time>2014-11-01T08:38:57Z</time>
      </trkpt>
      <trkpt lat="42.326545000" lon="-2.513220000">
        <ele>565.60</ele>
        <time>2014-11-01T08:38:58Z</time>
      </trkpt>
      <trkpt lat="42.326533000" lon="-2.513232000">
        <ele>565.60</ele>
        <time>2014-11-01T08:38:59Z</time>
      </trkpt>
      <trkpt lat="42.326518000" lon="-2.513239000">
        <ele>565.70</ele>
        <time>2014-11-01T08:39:00Z</time>
      </trkpt>
      <trkpt lat="42.326497000" lon="-2.513245000">
        <ele>565.70</ele>
        <time>2014-11-01T08:39:01Z</time>
      </trkpt>
      <trkpt lat="42.326439000" lon="-2.513259000">
        <ele>566.30</ele>
        <time>2014-11-01T08:39:03Z</time>
      </trkpt>
      <trkpt lat="42.326411000" lon="-2.513266000">
        <ele>566.50</ele>
        <time>2014-11-01T08:39:04Z</time>
      </trkpt>
      <trkpt lat="42.326384000" lon="-2.513274000">
        <ele>566.60</ele>
        <time>2014-11-01T08:39:05Z</time>
      </trkpt>
      <trkpt lat="42.326360000" lon="-2.513286000">
        <ele>566.60</ele>
        <time>2014-11-01T08:39:06Z</time>
      </trkpt>
      <trkpt lat="42.326338000" lon="-2.513299000">
        <ele>566.60</ele>
        <time>2014-11-01T08:39:07Z</time>
      </trkpt>
      <trkpt lat="42.326314000" lon="-2.513311000">
        <ele>566.40</ele>
        <time>2014-11-01T08:39:08Z</time>
      </trkpt>
      <trkpt lat="42.326285000" lon="-2.513318000">
        <ele>566.30</ele>
        <time>2014-11-01T08:39:09Z</time>
      </trkpt>
      <trkpt lat="42.326255000" lon="-2.513321000">
        <ele>566.40</ele>
        <time>2014-11-01T08:39:10Z</time>
      </trkpt>
      <trkpt lat="42.326225000" lon="-2.513319000">
        <ele>566.40</ele>
        <time>2014-11-01T08:39:11Z</time>
      </trkpt>
      <trkpt lat="42.326198000" lon="-2.513309000">
        <ele>566.40</ele>
        <time>2014-11-01T08:39:12Z</time>
      </trkpt>
      <trkpt lat="42.326172000" lon="-2.513295000">
        <ele>566.40</ele>
        <time>2014-11-01T08:39:13Z</time>
      </trkpt>
      <trkpt lat="42.326146000" lon="-2.513278000">
        <ele>566.50</ele>
        <time>2014-11-01T08:39:14Z</time>
      </trkpt>
      <trkpt lat="42.326123000" lon="-2.513257000">
        <ele>566.60</ele>
        <time>2014-11-01T08:39:15Z</time>
      </trkpt>
      <trkpt lat="42.326098000" lon="-2.513232000">
        <ele>566.60</ele>
        <time>2014-11-01T08:39:16Z</time>
      </trkpt>
      <trkpt lat="42.326074000" lon="-2.513204000">
        <ele>566.70</ele>
        <time>2014-11-01T08:39:17Z</time>
      </trkpt>
      <trkpt lat="42.326049000" lon="-2.513172000">
        <ele>566.80</ele>
        <time>2014-11-01T08:39:18Z</time>
      </trkpt>
      <trkpt lat="42.326024000" lon="-2.513144000">
        <ele>566.90</ele>
        <time>2014-11-01T08:39:19Z</time>
      </trkpt>
      <trkpt lat="42.325998000" lon="-2.513115000">
        <ele>566.90</ele>
        <time>2014-11-01T08:39:20Z</time>
      </trkpt>
      <trkpt lat="42.325972000" lon="-2.513088000">
        <ele>567.00</ele>
        <time>2014-11-01T08:39:21Z</time>
      </trkpt>
      <trkpt lat="42.325943000" lon="-2.513061000">
        <ele>567.00</ele>
        <time>2014-11-01T08:39:22Z</time>
      </trkpt>
      <trkpt lat="42.325915000" lon="-2.513029000">
        <ele>567.00</ele>
        <time>2014-11-01T08:39:23Z</time>
      </trkpt>
      <trkpt lat="42.325884000" lon="-2.512992000">
        <ele>567.00</ele>
        <time>2014-11-01T08:39:24Z</time>
      </trkpt>
      <trkpt lat="42.325849000" lon="-2.512948000">
        <ele>567.10</ele>
        <time>2014-11-01T08:39:25Z</time>
      </trkpt>
      <trkpt lat="42.325807000" lon="-2.512906000">
        <ele>567.10</ele>
        <time>2014-11-01T08:39:26Z</time>
      </trkpt>
      <trkpt lat="42.325766000" lon="-2.512857000">
        <ele>567.10</ele>
        <time>2014-11-01T08:39:27Z</time>
      </trkpt>
      <trkpt lat="42.325720000" lon="-2.512811000">
        <ele>566.90</ele>
        <time>2014-11-01T08:39:28Z</time>
      </trkpt>
      <trkpt lat="42.325672000" lon="-2.512774000">
        <ele>566.70</ele>
        <time>2014-11-01T08:39:29Z</time>
      </trkpt>
      <trkpt lat="42.325621000" lon="-2.512741000">
        <ele>566.20</ele>
        <time>2014-11-01T08:39:30Z</time>
      </trkpt>
      <trkpt lat="42.325574000" lon="-2.512710000">
        <ele>565.80</ele>
        <time>2014-11-01T08:39:31Z</time>
      </trkpt>
      <trkpt lat="42.325533000" lon="-2.512683000">
        <ele>565.50</ele>
        <time>2014-11-01T08:39:32Z</time>
      </trkpt>
      <trkpt lat="42.325494000" lon="-2.512665000">
        <ele>565.30</ele>
        <time>2014-11-01T08:39:33Z</time>
      </trkpt>
      <trkpt lat="42.325455000" lon="-2.512660000">
        <ele>565.00</ele>
        <time>2014-11-01T08:39:34Z</time>
      </trkpt>
      <trkpt lat="42.325417000" lon="-2.512665000">
        <ele>564.80</ele>
        <time>2014-11-01T08:39:35Z</time>
      </trkpt>
      <trkpt lat="42.325384000" lon="-2.512687000">
        <ele>564.60</ele>
        <time>2014-11-01T08:39:36Z</time>
      </trkpt>
      <trkpt lat="42.325351000" lon="-2.512705000">
        <ele>564.40</ele>
        <time>2014-11-01T08:39:37Z</time>
      </trkpt>
      <trkpt lat="42.325316000" lon="-2.512714000">
        <ele>564.20</ele>
        <time>2014-11-01T08:39:38Z</time>
      </trkpt>
      <trkpt lat="42.325282000" lon="-2.512707000">
        <ele>564.10</ele>
        <time>2014-11-01T08:39:39Z</time>
      </trkpt>
      <trkpt lat="42.325256000" lon="-2.512682000">
        <ele>564.00</ele>
        <time>2014-11-01T08:39:40Z</time>
      </trkpt>
      <trkpt lat="42.325242000" lon="-2.512647000">
        <ele>564.00</ele>
        <time>2014-11-01T08:39:41Z</time>
      </trkpt>
      <trkpt lat="42.325231000" lon="-2.512607000">
        <ele>563.90</ele>
        <time>2014-11-01T08:39:42Z</time>
      </trkpt>
      <trkpt lat="42.325224000" lon="-2.512560000">
        <ele>563.90</ele>
        <time>2014-11-01T08:39:43Z</time>
      </trkpt>
      <trkpt lat="42.325219000" lon="-2.512515000">
        <ele>563.70</ele>
        <time>2014-11-01T08:39:44Z</time>
      </trkpt>
      <trkpt lat="42.325213000" lon="-2.512469000">
        <ele>563.50</ele>
        <time>2014-11-01T08:39:45Z</time>
      </trkpt>
      <trkpt lat="42.325209000" lon="-2.512426000">
        <ele>563.40</ele>
        <time>2014-11-01T08:39:46Z</time>
      </trkpt>
      <trkpt lat="42.325204000" lon="-2.512379000">
        <ele>563.30</ele>
        <time>2014-11-01T08:39:47Z</time>
      </trkpt>
      <trkpt lat="42.325196000" lon="-2.512330000">
        <ele>563.20</ele>
        <time>2014-11-01T08:39:48Z</time>
      </trkpt>
      <trkpt lat="42.325185000" lon="-2.512283000">
        <ele>563.20</ele>
        <time>2014-11-01T08:39:49Z</time>
      </trkpt>
      <trkpt lat="42.325179000" lon="-2.512235000">
        <ele>563.30</ele>
        <time>2014-11-01T08:39:50Z</time>
      </trkpt>
      <trkpt lat="42.325173000" lon="-2.512189000">
        <ele>563.40</ele>
        <time>2014-11-01T08:39:51Z</time>
      </trkpt>
      <trkpt lat="42.325163000" lon="-2.512153000">
        <ele>563.50</ele>
        <time>2014-11-01T08:39:52Z</time>
      </trkpt>
      <trkpt lat="42.325154000" lon="-2.512116000">
        <ele>563.60</ele>
        <time>2014-11-01T08:39:53Z</time>
      </trkpt>
      <trkpt lat="42.325143000" lon="-2.512078000">
        <ele>563.50</ele>
        <time>2014-11-01T08:39:54Z</time>
      </trkpt>
      <trkpt lat="42.325127000" lon="-2.512047000">
        <ele>563.40</ele>
        <time>2014-11-01T08:39:55Z</time>
      </trkpt>
      <trkpt lat="42.325104000" lon="-2.512022000">
        <ele>563.40</ele>
        <time>2014-11-01T08:39:56Z</time>
      </trkpt>
      <trkpt lat="42.325087000" lon="-2.511991000">
        <ele>563.40</ele>
        <time>2014-11-01T08:39:57Z</time>
      </trkpt>
      <trkpt lat="42.325065000" lon="-2.511974000">
        <ele>563.60</ele>
        <time>2014-11-01T08:39:58Z</time>
      </trkpt>
      <trkpt lat="42.325038000" lon="-2.511966000">
        <ele>563.80</ele>
        <time>2014-11-01T08:39:59Z</time>
      </trkpt>
      <trkpt lat="42.325009000" lon="-2.511964000">
        <ele>563.90</ele>
        <time>2014-11-01T08:40:00Z</time>
      </trkpt>
      <trkpt lat="42.324980000" lon="-2.511975000">
        <ele>564.00</ele>
        <time>2014-11-01T08:40:01Z</time>
      </trkpt>
      <trkpt lat="42.324952000" lon="-2.511990000">
        <ele>564.00</ele>
        <time>2014-11-01T08:40:02Z</time>
      </trkpt>
      <trkpt lat="42.324903000" lon="-2.512055000">
        <ele>563.80</ele>
        <time>2014-11-01T08:40:04Z</time>
      </trkpt>
      <trkpt lat="42.324886000" lon="-2.512093000">
        <ele>563.50</ele>
        <time>2014-11-01T08:40:05Z</time>
      </trkpt>
      <trkpt lat="42.324869000" lon="-2.512131000">
        <ele>563.40</ele>
        <time>2014-11-01T08:40:06Z</time>
      </trkpt>
      <trkpt lat="42.324848000" lon="-2.512166000">
        <ele>563.20</ele>
        <time>2014-11-01T08:40:07Z</time>
      </trkpt>
      <trkpt lat="42.324829000" lon="-2.512206000">
        <ele>563.30</ele>
        <time>2014-11-01T08:40:08Z</time>
      </trkpt>
      <trkpt lat="42.324809000" lon="-2.512244000">
        <ele>563.40</ele>
        <time>2014-11-01T08:40:09Z</time>
      </trkpt>
      <trkpt lat="42.324793000" lon="-2.512280000">
        <ele>563.50</ele>
        <time>2014-11-01T08:40:10Z</time>
      </trkpt>
      <trkpt lat="42.324772000" lon="-2.512320000">
        <ele>563.50</ele>
        <time>2014-11-01T08:40:11Z</time>
      </trkpt>
      <trkpt lat="42.324746000" lon="-2.512361000">
        <ele>563.60</ele>
        <time>2014-11-01T08:40:12Z</time>
      </trkpt>
      <trkpt lat="42.324722000" lon="-2.512398000">
        <ele>563.70</ele>
        <time>2014-11-01T08:40:13Z</time>
      </trkpt>
      <trkpt lat="42.324699000" lon="-2.512436000">
        <ele>563.70</ele>
        <time>2014-11-01T08:40:14Z</time>
      </trkpt>
      <trkpt lat="42.324675000" lon="-2.512475000">
        <ele>563.70</ele>
        <time>2014-11-01T08:40:15Z</time>
      </trkpt>
      <trkpt lat="42.324651000" lon="-2.512514000">
        <ele>563.80</ele>
        <time>2014-11-01T08:40:16Z</time>
      </trkpt>
      <trkpt lat="42.324625000" lon="-2.512551000">
        <ele>563.90</ele>
        <time>2014-11-01T08:40:17Z</time>
      </trkpt>
      <trkpt lat="42.324595000" lon="-2.512589000">
        <ele>563.90</ele>
        <time>2014-11-01T08:40:18Z</time>
      </trkpt>
      <trkpt lat="42.324563000" lon="-2.512630000">
        <ele>564.00</ele>
        <time>2014-11-01T08:40:19Z</time>
      </trkpt>
      <trkpt lat="42.324532000" lon="-2.512670000">
        <ele>564.00</ele>
        <time>2014-11-01T08:40:20Z</time>
      </trkpt>
      <trkpt lat="42.324504000" lon="-2.512706000">
        <ele>564.00</ele>
        <time>2014-11-01T08:40:21Z</time>
      </trkpt>
      <trkpt lat="42.324483000" lon="-2.512737000">
        <ele>564.10</ele>
        <time>2014-11-01T08:40:22Z</time>
      </trkpt>
      <trkpt lat="42.324454000" lon="-2.512774000">
        <ele>564.10</ele>
        <time>2014-11-01T08:40:23Z</time>
      </trkpt>
      <trkpt lat="42.324423000" lon="-2.512811000">
        <ele>564.40</ele>
        <time>2014-11-01T08:40:24Z</time>
      </trkpt>
      <trkpt lat="42.324392000" lon="-2.512845000">
        <ele>564.70</ele>
        <time>2014-11-01T08:40:25Z</time>
      </trkpt>
      <trkpt lat="42.324363000" lon="-2.512878000">
        <ele>564.80</ele>
        <time>2014-11-01T08:40:26Z</time>
      </trkpt>
      <trkpt lat="42.324333000" lon="-2.512913000">
        <ele>565.00</ele>
        <time>2014-11-01T08:40:27Z</time>
      </trkpt>
      <trkpt lat="42.324305000" lon="-2.512947000">
        <ele>564.90</ele>
        <time>2014-11-01T08:40:28Z</time>
      </trkpt>
      <trkpt lat="42.324275000" lon="-2.512981000">
        <ele>564.90</ele>
        <time>2014-11-01T08:40:29Z</time>
      </trkpt>
      <trkpt lat="42.324250000" lon="-2.513018000">
        <ele>564.60</ele>
        <time>2014-11-01T08:40:30Z</time>
      </trkpt>
      <trkpt lat="42.324226000" lon="-2.513055000">
        <ele>564.40</ele>
        <time>2014-11-01T08:40:31Z</time>
      </trkpt>
      <trkpt lat="42.324199000" lon="-2.513088000">
        <ele>564.30</ele>
        <time>2014-11-01T08:40:32Z</time>
      </trkpt>
      <trkpt lat="42.324173000" lon="-2.513121000">
        <ele>564.10</ele>
        <time>2014-11-01T08:40:33Z</time>
      </trkpt>
      <trkpt lat="42.324150000" lon="-2.513153000">
        <ele>564.70</ele>
        <time>2014-11-01T08:40:34Z</time>
      </trkpt>
      <trkpt lat="42.324127000" lon="-2.513189000">
        <ele>565.10</ele>
        <time>2014-11-01T08:40:35Z</time>
      </trkpt>
      <trkpt lat="42.324101000" lon="-2.513220000">
        <ele>565.40</ele>
        <time>2014-11-01T08:40:36Z</time>
      </trkpt>
      <trkpt lat="42.324074000" lon="-2.513252000">
        <ele>565.60</ele>
        <time>2014-11-01T08:40:37Z</time>
      </trkpt>
      <trkpt lat="42.324046000" lon="-2.513282000">
        <ele>565.80</ele>
        <time>2014-11-01T08:40:38Z</time>
      </trkpt>
      <trkpt lat="42.324020000" lon="-2.513316000">
        <ele>565.90</ele>
        <time>2014-11-01T08:40:39Z</time>
      </trkpt>
      <trkpt lat="42.323994000" lon="-2.513345000">
        <ele>565.90</ele>
        <time>2014-11-01T08:40:40Z</time>
      </trkpt>
      <trkpt lat="42.323970000" lon="-2.513378000">
        <ele>565.90</ele>
        <time>2014-11-01T08:40:41Z</time>
      </trkpt>
      <trkpt lat="42.323948000" lon="-2.513414000">
        <ele>566.10</ele>
        <time>2014-11-01T08:40:42Z</time>
      </trkpt>
      <trkpt lat="42.323923000" lon="-2.513449000">
        <ele>566.30</ele>
        <time>2014-11-01T08:40:43Z</time>
      </trkpt>
      <trkpt lat="42.323899000" lon="-2.513482000">
        <ele>566.40</ele>
        <time>2014-11-01T08:40:44Z</time>
      </trkpt>
      <trkpt lat="42.323877000" lon="-2.513519000">
        <ele>566.40</ele>
        <time>2014-11-01T08:40:45Z</time>
      </trkpt>
      <trkpt lat="42.323853000" lon="-2.513553000">
        <ele>566.50</ele>
        <time>2014-11-01T08:40:46Z</time>
      </trkpt>
      <trkpt lat="42.323829000" lon="-2.513588000">
        <ele>566.60</ele>
        <time>2014-11-01T08:40:47Z</time>
      </trkpt>
      <trkpt lat="42.323805000" lon="-2.513621000">
        <ele>566.60</ele>
        <time>2014-11-01T08:40:48Z</time>
      </trkpt>
      <trkpt lat="42.323781000" lon="-2.513652000">
        <ele>566.60</ele>
        <time>2014-11-01T08:40:49Z</time>
      </trkpt>
      <trkpt lat="42.323759000" lon="-2.513685000">
        <ele>566.30</ele>
        <time>2014-11-01T08:40:50Z</time>
      </trkpt>
      <trkpt lat="42.323737000" lon="-2.513714000">
        <ele>566.20</ele>
        <time>2014-11-01T08:40:51Z</time>
      </trkpt>
      <trkpt lat="42.323712000" lon="-2.513738000">
        <ele>566.00</ele>
        <time>2014-11-01T08:40:52Z</time>
      </trkpt>
      <trkpt lat="42.323690000" lon="-2.513760000">
        <ele>565.80</ele>
        <time>2014-11-01T08:40:53Z</time>
      </trkpt>
      <trkpt lat="42.323665000" lon="-2.513786000">
        <ele>565.70</ele>
        <time>2014-11-01T08:40:54Z</time>
      </trkpt>
      <trkpt lat="42.323639000" lon="-2.513813000">
        <ele>565.60</ele>
        <time>2014-11-01T08:40:55Z</time>
      </trkpt>
      <trkpt lat="42.323611000" lon="-2.513839000">
        <ele>565.80</ele>
        <time>2014-11-01T08:40:56Z</time>
      </trkpt>
      <trkpt lat="42.323585000" lon="-2.513862000">
        <ele>565.90</ele>
        <time>2014-11-01T08:40:57Z</time>
      </trkpt>
      <trkpt lat="42.323557000" lon="-2.513889000">
        <ele>566.20</ele>
        <time>2014-11-01T08:40:58Z</time>
      </trkpt>
      <trkpt lat="42.323527000" lon="-2.513921000">
        <ele>566.40</ele>
        <time>2014-11-01T08:40:59Z</time>
      </trkpt>
      <trkpt lat="42.323498000" lon="-2.513953000">
        <ele>566.60</ele>
        <time>2014-11-01T08:41:00Z</time>
      </trkpt>
      <trkpt lat="42.323472000" lon="-2.513982000">
        <ele>566.70</ele>
        <time>2014-11-01T08:41:01Z</time>
      </trkpt>
      <trkpt lat="42.323446000" lon="-2.514010000">
        <ele>566.80</ele>
        <time>2014-11-01T08:41:02Z</time>
      </trkpt>
      <trkpt lat="42.323420000" lon="-2.514037000">
        <ele>566.90</ele>
        <time>2014-11-01T08:41:03Z</time>
      </trkpt>
      <trkpt lat="42.323368000" lon="-2.514093000">
        <ele>567.40</ele>
        <time>2014-11-01T08:41:05Z</time>
      </trkpt>
      <trkpt lat="42.323341000" lon="-2.514128000">
        <ele>567.40</ele>
        <time>2014-11-01T08:41:06Z</time>
      </trkpt>
      <trkpt lat="42.323313000" lon="-2.514161000">
        <ele>567.40</ele>
        <time>2014-11-01T08:41:07Z</time>
      </trkpt>
      <trkpt lat="42.323288000" lon="-2.514197000">
        <ele>567.60</ele>
        <time>2014-11-01T08:41:08Z</time>
      </trkpt>
      <trkpt lat="42.323264000" lon="-2.514230000">
        <ele>567.70</ele>
        <time>2014-11-01T08:41:09Z</time>
      </trkpt>
      <trkpt lat="42.323238000" lon="-2.514261000">
        <ele>567.70</ele>
        <time>2014-11-01T08:41:10Z</time>
      </trkpt>
      <trkpt lat="42.323211000" lon="-2.514294000">
        <ele>567.70</ele>
        <time>2014-11-01T08:41:11Z</time>
      </trkpt>
      <trkpt lat="42.323184000" lon="-2.514328000">
        <ele>567.70</ele>
        <time>2014-11-01T08:41:12Z</time>
      </trkpt>
      <trkpt lat="42.323158000" lon="-2.514361000">
        <ele>567.70</ele>
        <time>2014-11-01T08:41:13Z</time>
      </trkpt>
      <trkpt lat="42.323131000" lon="-2.514394000">
        <ele>567.60</ele>
        <time>2014-11-01T08:41:14Z</time>
      </trkpt>
      <trkpt lat="42.323105000" lon="-2.514426000">
        <ele>567.50</ele>
        <time>2014-11-01T08:41:15Z</time>
      </trkpt>
      <trkpt lat="42.323081000" lon="-2.514456000">
        <ele>567.50</ele>
        <time>2014-11-01T08:41:16Z</time>
      </trkpt>
      <trkpt lat="42.323059000" lon="-2.514485000">
        <ele>567.40</ele>
        <time>2014-11-01T08:41:17Z</time>
      </trkpt>
      <trkpt lat="42.323037000" lon="-2.514507000">
        <ele>567.40</ele>
        <time>2014-11-01T08:41:18Z</time>
      </trkpt>
      <trkpt lat="42.323015000" lon="-2.514525000">
        <ele>567.40</ele>
        <time>2014-11-01T08:41:19Z</time>
      </trkpt>
      <trkpt lat="42.322990000" lon="-2.514536000">
        <ele>567.50</ele>
        <time>2014-11-01T08:41:20Z</time>
      </trkpt>
      <trkpt lat="42.322972000" lon="-2.514534000">
        <ele>567.50</ele>
        <time>2014-11-01T08:41:21Z</time>
      </trkpt>
      <trkpt lat="42.322958000" lon="-2.514522000">
        <ele>567.70</ele>
        <time>2014-11-01T08:41:22Z</time>
      </trkpt>
      <trkpt lat="42.322947000" lon="-2.514504000">
        <ele>567.90</ele>
        <time>2014-11-01T08:41:23Z</time>
      </trkpt>
      <trkpt lat="42.322935000" lon="-2.514480000">
        <ele>568.20</ele>
        <time>2014-11-01T08:41:24Z</time>
      </trkpt>
      <trkpt lat="42.322922000" lon="-2.514447000">
        <ele>568.50</ele>
        <time>2014-11-01T08:41:25Z</time>
      </trkpt>
      <trkpt lat="42.322908000" lon="-2.514410000">
        <ele>568.80</ele>
        <time>2014-11-01T08:41:26Z</time>
      </trkpt>
      <trkpt lat="42.322892000" lon="-2.514370000">
        <ele>569.00</ele>
        <time>2014-11-01T08:41:27Z</time>
      </trkpt>
      <trkpt lat="42.322877000" lon="-2.514329000">
        <ele>569.20</ele>
        <time>2014-11-01T08:41:28Z</time>
      </trkpt>
      <trkpt lat="42.322861000" lon="-2.514289000">
        <ele>569.30</ele>
        <time>2014-11-01T08:41:29Z</time>
      </trkpt>
      <trkpt lat="42.322847000" lon="-2.514252000">
        <ele>569.40</ele>
        <time>2014-11-01T08:41:30Z</time>
      </trkpt>
      <trkpt lat="42.322837000" lon="-2.514224000">
        <ele>569.40</ele>
        <time>2014-11-01T08:41:31Z</time>
      </trkpt>
      <trkpt lat="42.322828000" lon="-2.514200000">
        <ele>569.40</ele>
        <time>2014-11-01T08:41:32Z</time>
      </trkpt>
      <trkpt lat="42.322819000" lon="-2.514181000">
        <ele>569.40</ele>
        <time>2014-11-01T08:41:33Z</time>
      </trkpt>
      <trkpt lat="42.322814000" lon="-2.514161000">
        <ele>569.30</ele>
        <time>2014-11-01T08:41:34Z</time>
      </trkpt>
      <trkpt lat="42.322803000" lon="-2.514143000">
        <ele>569.30</ele>
        <time>2014-11-01T08:41:35Z</time>
      </trkpt>
      <trkpt lat="42.322802000" lon="-2.514118000">
        <ele>569.20</ele>
        <time>2014-11-01T08:41:36Z</time>
      </trkpt>
      <trkpt lat="42.322812000" lon="-2.514092000">
        <ele>569.20</ele>
        <time>2014-11-01T08:41:37Z</time>
      </trkpt>
      <trkpt lat="42.322829000" lon="-2.514066000">
        <ele>569.20</ele>
        <time>2014-11-01T08:41:38Z</time>
      </trkpt>
      <trkpt lat="42.322852000" lon="-2.514036000">
        <ele>569.20</ele>
        <time>2014-11-01T08:41:39Z</time>
      </trkpt>
      <trkpt lat="42.322878000" lon="-2.514005000">
        <ele>569.10</ele>
        <time>2014-11-01T08:41:40Z</time>
      </trkpt>
      <trkpt lat="42.322906000" lon="-2.513972000">
        <ele>569.10</ele>
        <time>2014-11-01T08:41:41Z</time>
      </trkpt>
      <trkpt lat="42.322933000" lon="-2.513940000">
        <ele>569.10</ele>
        <time>2014-11-01T08:41:42Z</time>
      </trkpt>
      <trkpt lat="42.322963000" lon="-2.513902000">
        <ele>569.10</ele>
        <time>2014-11-01T08:41:43Z</time>
      </trkpt>
      <trkpt lat="42.322995000" lon="-2.513862000">
        <ele>568.80</ele>
        <time>2014-11-01T08:41:44Z</time>
      </trkpt>
      <trkpt lat="42.323026000" lon="-2.513823000">
        <ele>568.60</ele>
        <time>2014-11-01T08:41:45Z</time>
      </trkpt>
      <trkpt lat="42.323059000" lon="-2.513789000">
        <ele>568.50</ele>
        <time>2014-11-01T08:41:46Z</time>
      </trkpt>
      <trkpt lat="42.323086000" lon="-2.513756000">
        <ele>568.40</ele>
        <time>2014-11-01T08:41:47Z</time>
      </trkpt>
      <trkpt lat="42.323105000" lon="-2.513719000">
        <ele>568.00</ele>
        <time>2014-11-01T08:41:48Z</time>
      </trkpt>
      <trkpt lat="42.323117000" lon="-2.513684000">
        <ele>567.80</ele>
        <time>2014-11-01T08:41:49Z</time>
      </trkpt>
      <trkpt lat="42.323124000" lon="-2.513650000">
        <ele>568.00</ele>
        <time>2014-11-01T08:41:50Z</time>
      </trkpt>
      <trkpt lat="42.323125000" lon="-2.513616000">
        <ele>568.20</ele>
        <time>2014-11-01T08:41:51Z</time>
      </trkpt>
      <trkpt lat="42.323126000" lon="-2.513582000">
        <ele>568.30</ele>
        <time>2014-11-01T08:41:52Z</time>
      </trkpt>
      <trkpt lat="42.323120000" lon="-2.513538000">
        <ele>568.30</ele>
        <time>2014-11-01T08:41:53Z</time>
      </trkpt>
      <trkpt lat="42.323115000" lon="-2.513494000">
        <ele>568.40</ele>
        <time>2014-11-01T08:41:54Z</time>
      </trkpt>
      <trkpt lat="42.323107000" lon="-2.513451000">
        <ele>568.50</ele>
        <time>2014-11-01T08:41:55Z</time>
      </trkpt>
      <trkpt lat="42.323096000" lon="-2.513406000">
        <ele>568.50</ele>
        <time>2014-11-01T08:41:56Z</time>
      </trkpt>
      <trkpt lat="42.323087000" lon="-2.513359000">
        <ele>568.40</ele>
        <time>2014-11-01T08:41:57Z</time>
      </trkpt>
      <trkpt lat="42.323077000" lon="-2.513313000">
        <ele>568.30</ele>
        <time>2014-11-01T08:41:58Z</time>
      </trkpt>
      <trkpt lat="42.323068000" lon="-2.513266000">
        <ele>568.30</ele>
        <time>2014-11-01T08:41:59Z</time>
      </trkpt>
      <trkpt lat="42.323060000" lon="-2.513218000">
        <ele>568.20</ele>
        <time>2014-11-01T08:42:00Z</time>
      </trkpt>
      <trkpt lat="42.323051000" lon="-2.513172000">
        <ele>568.10</ele>
        <time>2014-11-01T08:42:01Z</time>
      </trkpt>
      <trkpt lat="42.323042000" lon="-2.513126000">
        <ele>568.10</ele>
        <time>2014-11-01T08:42:02Z</time>
      </trkpt>
      <trkpt lat="42.323032000" lon="-2.513081000">
        <ele>568.10</ele>
        <time>2014-11-01T08:42:03Z</time>
      </trkpt>
      <trkpt lat="42.323020000" lon="-2.513031000">
        <ele>568.10</ele>
        <time>2014-11-01T08:42:04Z</time>
      </trkpt>
      <trkpt lat="42.323000000" lon="-2.512933000">
        <ele>568.30</ele>
        <time>2014-11-01T08:42:06Z</time>
      </trkpt>
      <trkpt lat="42.322987000" lon="-2.512883000">
        <ele>568.40</ele>
        <time>2014-11-01T08:42:07Z</time>
      </trkpt>
      <trkpt lat="42.322971000" lon="-2.512835000">
        <ele>568.60</ele>
        <time>2014-11-01T08:42:08Z</time>
      </trkpt>
      <trkpt lat="42.322954000" lon="-2.512790000">
        <ele>568.80</ele>
        <time>2014-11-01T08:42:09Z</time>
      </trkpt>
      <trkpt lat="42.322934000" lon="-2.512748000">
        <ele>568.90</ele>
        <time>2014-11-01T08:42:10Z</time>
      </trkpt>
      <trkpt lat="42.322912000" lon="-2.512705000">
        <ele>569.00</ele>
        <time>2014-11-01T08:42:11Z</time>
      </trkpt>
      <trkpt lat="42.322888000" lon="-2.512662000">
        <ele>569.10</ele>
        <time>2014-11-01T08:42:12Z</time>
      </trkpt>
      <trkpt lat="42.322867000" lon="-2.512618000">
        <ele>569.10</ele>
        <time>2014-11-01T08:42:13Z</time>
      </trkpt>
      <trkpt lat="42.322847000" lon="-2.512573000">
        <ele>569.20</ele>
        <time>2014-11-01T08:42:14Z</time>
      </trkpt>
      <trkpt lat="42.322827000" lon="-2.512524000">
        <ele>569.30</ele>
        <time>2014-11-01T08:42:15Z</time>
      </trkpt>
      <trkpt lat="42.322816000" lon="-2.512473000">
        <ele>569.40</ele>
        <time>2014-11-01T08:42:16Z</time>
      </trkpt>
      <trkpt lat="42.322817000" lon="-2.512415000">
        <ele>569.40</ele>
        <time>2014-11-01T08:42:17Z</time>
      </trkpt>
      <trkpt lat="42.322820000" lon="-2.512355000">
        <ele>569.40</ele>
        <time>2014-11-01T08:42:18Z</time>
      </trkpt>
      <trkpt lat="42.322827000" lon="-2.512293000">
        <ele>569.30</ele>
        <time>2014-11-01T08:42:19Z</time>
      </trkpt>
      <trkpt lat="42.322833000" lon="-2.512233000">
        <ele>569.30</ele>
        <time>2014-11-01T08:42:20Z</time>
      </trkpt>
      <trkpt lat="42.322836000" lon="-2.512175000">
        <ele>569.20</ele>
        <time>2014-11-01T08:42:21Z</time>
      </trkpt>
      <trkpt lat="42.322830000" lon="-2.512118000">
        <ele>569.20</ele>
        <time>2014-11-01T08:42:22Z</time>
      </trkpt>
      <trkpt lat="42.322820000" lon="-2.512067000">
        <ele>569.20</ele>
        <time>2014-11-01T08:42:23Z</time>
      </trkpt>
      <trkpt lat="42.322808000" lon="-2.512015000">
        <ele>569.20</ele>
        <time>2014-11-01T08:42:24Z</time>
      </trkpt>
      <trkpt lat="42.322787000" lon="-2.511960000">
        <ele>569.20</ele>
        <time>2014-11-01T08:42:25Z</time>
      </trkpt>
      <trkpt lat="42.322762000" lon="-2.511910000">
        <ele>569.40</ele>
        <time>2014-11-01T08:42:26Z</time>
      </trkpt>
      <trkpt lat="42.322732000" lon="-2.511865000">
        <ele>569.50</ele>
        <time>2014-11-01T08:42:27Z</time>
      </trkpt>
      <trkpt lat="42.322700000" lon="-2.511817000">
        <ele>569.60</ele>
        <time>2014-11-01T08:42:28Z</time>
      </trkpt>
      <trkpt lat="42.322665000" lon="-2.511773000">
        <ele>569.60</ele>
        <time>2014-11-01T08:42:29Z</time>
      </trkpt>
      <trkpt lat="42.322631000" lon="-2.511729000">
        <ele>569.70</ele>
        <time>2014-11-01T08:42:30Z</time>
      </trkpt>
      <trkpt lat="42.322596000" lon="-2.511684000">
        <ele>569.70</ele>
        <time>2014-11-01T08:42:31Z</time>
      </trkpt>
      <trkpt lat="42.322560000" lon="-2.511640000">
        <ele>569.50</ele>
        <time>2014-11-01T08:42:32Z</time>
      </trkpt>
      <trkpt lat="42.322527000" lon="-2.511597000">
        <ele>569.40</ele>
        <time>2014-11-01T08:42:33Z</time>
      </trkpt>
      <trkpt lat="42.322492000" lon="-2.511558000">
        <ele>569.20</ele>
        <time>2014-11-01T08:42:34Z</time>
      </trkpt>
      <trkpt lat="42.322458000" lon="-2.511517000">
        <ele>569.10</ele>
        <time>2014-11-01T08:42:35Z</time>
      </trkpt>
      <trkpt lat="42.322426000" lon="-2.511480000">
        <ele>569.00</ele>
        <time>2014-11-01T08:42:36Z</time>
      </trkpt>
      <trkpt lat="42.322395000" lon="-2.511443000">
        <ele>568.80</ele>
        <time>2014-11-01T08:42:37Z</time>
      </trkpt>
      <trkpt lat="42.322368000" lon="-2.511406000">
        <ele>568.80</ele>
        <time>2014-11-01T08:42:38Z</time>
      </trkpt>
      <trkpt lat="42.322342000" lon="-2.511369000">
        <ele>568.70</ele>
        <time>2014-11-01T08:42:39Z</time>
      </trkpt>
      <trkpt lat="42.322316000" lon="-2.511330000">
        <ele>568.80</ele>
        <time>2014-11-01T08:42:40Z</time>
      </trkpt>
      <trkpt lat="42.322294000" lon="-2.511289000">
        <ele>568.90</ele>
        <time>2014-11-01T08:42:41Z</time>
      </trkpt>
      <trkpt lat="42.322267000" lon="-2.511251000">
        <ele>569.10</ele>
        <time>2014-11-01T08:42:42Z</time>
      </trkpt>
      <trkpt lat="42.322237000" lon="-2.511217000">
        <ele>569.30</ele>
        <time>2014-11-01T08:42:43Z</time>
      </trkpt>
      <trkpt lat="42.322204000" lon="-2.511184000">
        <ele>569.40</ele>
        <time>2014-11-01T08:42:44Z</time>
      </trkpt>
      <trkpt lat="42.322172000" lon="-2.511152000">
        <ele>569.50</ele>
        <time>2014-11-01T08:42:45Z</time>
      </trkpt>
      <trkpt lat="42.322138000" lon="-2.511121000">
        <ele>569.50</ele>
        <time>2014-11-01T08:42:46Z</time>
      </trkpt>
      <trkpt lat="42.322106000" lon="-2.511090000">
        <ele>569.50</ele>
        <time>2014-11-01T08:42:47Z</time>
      </trkpt>
      <trkpt lat="42.322075000" lon="-2.511058000">
        <ele>569.50</ele>
        <time>2014-11-01T08:42:48Z</time>
      </trkpt>
      <trkpt lat="42.322045000" lon="-2.511024000">
        <ele>569.50</ele>
        <time>2014-11-01T08:42:49Z</time>
      </trkpt>
      <trkpt lat="42.322012000" lon="-2.510997000">
        <ele>569.60</ele>
        <time>2014-11-01T08:42:50Z</time>
      </trkpt>
      <trkpt lat="42.321980000" lon="-2.510973000">
        <ele>569.70</ele>
        <time>2014-11-01T08:42:51Z</time>
      </trkpt>
      <trkpt lat="42.321950000" lon="-2.510952000">
        <ele>569.80</ele>
        <time>2014-11-01T08:42:52Z</time>
      </trkpt>
      <trkpt lat="42.321922000" lon="-2.510931000">
        <ele>569.90</ele>
        <time>2014-11-01T08:42:53Z</time>
      </trkpt>
      <trkpt lat="42.321897000" lon="-2.510903000">
        <ele>570.00</ele>
        <time>2014-11-01T08:42:54Z</time>
      </trkpt>
      <trkpt lat="42.321871000" lon="-2.510894000">
        <ele>570.10</ele>
        <time>2014-11-01T08:42:55Z</time>
      </trkpt>
      <trkpt lat="42.321845000" lon="-2.510894000">
        <ele>569.80</ele>
        <time>2014-11-01T08:42:56Z</time>
      </trkpt>
      <trkpt lat="42.321819000" lon="-2.510908000">
        <ele>569.70</ele>
        <time>2014-11-01T08:42:57Z</time>
      </trkpt>
      <trkpt lat="42.321794000" lon="-2.510929000">
        <ele>569.60</ele>
        <time>2014-11-01T08:42:58Z</time>
      </trkpt>
      <trkpt lat="42.321778000" lon="-2.510959000">
        <ele>569.50</ele>
        <time>2014-11-01T08:42:59Z</time>
      </trkpt>
      <trkpt lat="42.321761000" lon="-2.510994000">
        <ele>569.70</ele>
        <time>2014-11-01T08:43:00Z</time>
      </trkpt>
      <trkpt lat="42.321744000" lon="-2.511031000">
        <ele>569.80</ele>
        <time>2014-11-01T08:43:01Z</time>
      </trkpt>
      <trkpt lat="42.321725000" lon="-2.511073000">
        <ele>570.00</ele>
        <time>2014-11-01T08:43:02Z</time>
      </trkpt>
      <trkpt lat="42.321705000" lon="-2.511112000">
        <ele>570.20</ele>
        <time>2014-11-01T08:43:03Z</time>
      </trkpt>
      <trkpt lat="42.321688000" lon="-2.511151000">
        <ele>570.40</ele>
        <time>2014-11-01T08:43:04Z</time>
      </trkpt>
      <trkpt lat="42.321667000" lon="-2.511194000">
        <ele>570.60</ele>
        <time>2014-11-01T08:43:05Z</time>
      </trkpt>
      <trkpt lat="42.321629000" lon="-2.511275000">
        <ele>570.80</ele>
        <time>2014-11-01T08:43:07Z</time>
      </trkpt>
      <trkpt lat="42.321609000" lon="-2.511315000">
        <ele>570.80</ele>
        <time>2014-11-01T08:43:08Z</time>
      </trkpt>
      <trkpt lat="42.321588000" lon="-2.511356000">
        <ele>570.90</ele>
        <time>2014-11-01T08:43:09Z</time>
      </trkpt>
      <trkpt lat="42.321563000" lon="-2.511394000">
        <ele>571.30</ele>
        <time>2014-11-01T08:43:10Z</time>
      </trkpt>
      <trkpt lat="42.321538000" lon="-2.511433000">
        <ele>571.70</ele>
        <time>2014-11-01T08:43:11Z</time>
      </trkpt>
      <trkpt lat="42.321511000" lon="-2.511471000">
        <ele>572.00</ele>
        <time>2014-11-01T08:43:12Z</time>
      </trkpt>
      <trkpt lat="42.321486000" lon="-2.511511000">
        <ele>572.20</ele>
        <time>2014-11-01T08:43:13Z</time>
      </trkpt>
      <trkpt lat="42.321460000" lon="-2.511550000">
        <ele>572.00</ele>
        <time>2014-11-01T08:43:14Z</time>
      </trkpt>
      <trkpt lat="42.321432000" lon="-2.511585000">
        <ele>571.80</ele>
        <time>2014-11-01T08:43:15Z</time>
      </trkpt>
      <trkpt lat="42.321410000" lon="-2.511622000">
        <ele>571.70</ele>
        <time>2014-11-01T08:43:16Z</time>
      </trkpt>
      <trkpt lat="42.321388000" lon="-2.511653000">
        <ele>571.70</ele>
        <time>2014-11-01T08:43:17Z</time>
      </trkpt>
      <trkpt lat="42.321364000" lon="-2.511684000">
        <ele>571.60</ele>
        <time>2014-11-01T08:43:18Z</time>
      </trkpt>
      <trkpt lat="42.321341000" lon="-2.511714000">
        <ele>571.60</ele>
        <time>2014-11-01T08:43:19Z</time>
      </trkpt>
      <trkpt lat="42.321323000" lon="-2.511746000">
        <ele>572.10</ele>
        <time>2014-11-01T08:43:20Z</time>
      </trkpt>
      <trkpt lat="42.321300000" lon="-2.511778000">
        <ele>572.40</ele>
        <time>2014-11-01T08:43:21Z</time>
      </trkpt>
      <trkpt lat="42.321274000" lon="-2.511810000">
        <ele>572.70</ele>
        <time>2014-11-01T08:43:22Z</time>
      </trkpt>
      <trkpt lat="42.321250000" lon="-2.511844000">
        <ele>572.90</ele>
        <time>2014-11-01T08:43:23Z</time>
      </trkpt>
      <trkpt lat="42.321226000" lon="-2.511876000">
        <ele>573.00</ele>
        <time>2014-11-01T08:43:24Z</time>
      </trkpt>
      <trkpt lat="42.321203000" lon="-2.511913000">
        <ele>573.00</ele>
        <time>2014-11-01T08:43:25Z</time>
      </trkpt>
      <trkpt lat="42.321181000" lon="-2.511946000">
        <ele>572.90</ele>
        <time>2014-11-01T08:43:26Z</time>
      </trkpt>
      <trkpt lat="42.321158000" lon="-2.511979000">
        <ele>572.90</ele>
        <time>2014-11-01T08:43:27Z</time>
      </trkpt>
      <trkpt lat="42.321137000" lon="-2.512011000">
        <ele>572.80</ele>
        <time>2014-11-01T08:43:28Z</time>
      </trkpt>
      <trkpt lat="42.321113000" lon="-2.512044000">
        <ele>572.70</ele>
        <time>2014-11-01T08:43:29Z</time>
      </trkpt>
      <trkpt lat="42.321090000" lon="-2.512077000">
        <ele>572.60</ele>
        <time>2014-11-01T08:43:30Z</time>
      </trkpt>
      <trkpt lat="42.321064000" lon="-2.512110000">
        <ele>572.60</ele>
        <time>2014-11-01T08:43:31Z</time>
      </trkpt>
      <trkpt lat="42.321040000" lon="-2.512143000">
        <ele>572.60</ele>
        <time>2014-11-01T08:43:32Z</time>
      </trkpt>
      <trkpt lat="42.321017000" lon="-2.512173000">
        <ele>572.60</ele>
        <time>2014-11-01T08:43:33Z</time>
      </trkpt>
      <trkpt lat="42.320994000" lon="-2.512203000">
        <ele>572.60</ele>
        <time>2014-11-01T08:43:34Z</time>
      </trkpt>
      <trkpt lat="42.320972000" lon="-2.512232000">
        <ele>572.60</ele>
        <time>2014-11-01T08:43:35Z</time>
      </trkpt>
      <trkpt lat="42.320948000" lon="-2.512265000">
        <ele>572.60</ele>
        <time>2014-11-01T08:43:36Z</time>
      </trkpt>
      <trkpt lat="42.320925000" lon="-2.512298000">
        <ele>572.60</ele>
        <time>2014-11-01T08:43:37Z</time>
      </trkpt>
      <trkpt lat="42.320903000" lon="-2.512329000">
        <ele>572.70</ele>
        <time>2014-11-01T08:43:38Z</time>
      </trkpt>
      <trkpt lat="42.320882000" lon="-2.512359000">
        <ele>572.80</ele>
        <time>2014-11-01T08:43:39Z</time>
      </trkpt>
      <trkpt lat="42.320862000" lon="-2.512390000">
        <ele>572.80</ele>
        <time>2014-11-01T08:43:40Z</time>
      </trkpt>
      <trkpt lat="42.320842000" lon="-2.512419000">
        <ele>572.80</ele>
        <time>2014-11-01T08:43:41Z</time>
      </trkpt>
      <trkpt lat="42.320821000" lon="-2.512445000">
        <ele>572.90</ele>
        <time>2014-11-01T08:43:42Z</time>
      </trkpt>
      <trkpt lat="42.320799000" lon="-2.512474000">
        <ele>572.90</ele>
        <time>2014-11-01T08:43:43Z</time>
      </trkpt>
      <trkpt lat="42.320775000" lon="-2.512507000">
        <ele>573.00</ele>
        <time>2014-11-01T08:43:44Z</time>
      </trkpt>
      <trkpt lat="42.320753000" lon="-2.512540000">
        <ele>573.10</ele>
        <time>2014-11-01T08:43:45Z</time>
      </trkpt>
      <trkpt lat="42.320731000" lon="-2.512574000">
        <ele>573.20</ele>
        <time>2014-11-01T08:43:46Z</time>
      </trkpt>
      <trkpt lat="42.320712000" lon="-2.512609000">
        <ele>573.20</ele>
        <time>2014-11-01T08:43:47Z</time>
      </trkpt>
      <trkpt lat="42.320691000" lon="-2.512643000">
        <ele>573.30</ele>
        <time>2014-11-01T08:43:48Z</time>
      </trkpt>
      <trkpt lat="42.320669000" lon="-2.512679000">
        <ele>573.40</ele>
        <time>2014-11-01T08:43:49Z</time>
      </trkpt>
      <trkpt lat="42.320653000" lon="-2.512708000">
        <ele>573.70</ele>
        <time>2014-11-01T08:43:50Z</time>
      </trkpt>
      <trkpt lat="42.320634000" lon="-2.512737000">
        <ele>574.00</ele>
        <time>2014-11-01T08:43:51Z</time>
      </trkpt>
      <trkpt lat="42.320613000" lon="-2.512772000">
        <ele>574.10</ele>
        <time>2014-11-01T08:43:52Z</time>
      </trkpt>
      <trkpt lat="42.320591000" lon="-2.512809000">
        <ele>574.30</ele>
        <time>2014-11-01T08:43:53Z</time>
      </trkpt>
      <trkpt lat="42.320568000" lon="-2.512848000">
        <ele>574.20</ele>
        <time>2014-11-01T08:43:54Z</time>
      </trkpt>
      <trkpt lat="42.320547000" lon="-2.512885000">
        <ele>574.20</ele>
        <time>2014-11-01T08:43:55Z</time>
      </trkpt>
      <trkpt lat="42.320527000" lon="-2.512923000">
        <ele>574.10</ele>
        <time>2014-11-01T08:43:56Z</time>
      </trkpt>
      <trkpt lat="42.320513000" lon="-2.512961000">
        <ele>574.10</ele>
        <time>2014-11-01T08:43:57Z</time>
      </trkpt>
      <trkpt lat="42.320494000" lon="-2.512994000">
        <ele>574.00</ele>
        <time>2014-11-01T08:43:58Z</time>
      </trkpt>
      <trkpt lat="42.320481000" lon="-2.513030000">
        <ele>574.00</ele>
        <time>2014-11-01T08:43:59Z</time>
      </trkpt>
      <trkpt lat="42.320465000" lon="-2.513067000">
        <ele>574.00</ele>
        <time>2014-11-01T08:44:00Z</time>
      </trkpt>
      <trkpt lat="42.320448000" lon="-2.513108000">
        <ele>574.10</ele>
        <time>2014-11-01T08:44:01Z</time>
      </trkpt>
      <trkpt lat="42.320431000" lon="-2.513148000">
        <ele>574.10</ele>
        <time>2014-11-01T08:44:02Z</time>
      </trkpt>
      <trkpt lat="42.320413000" lon="-2.513187000">
        <ele>574.10</ele>
        <time>2014-11-01T08:44:03Z</time>
      </trkpt>
      <trkpt lat="42.320395000" lon="-2.513227000">
        <ele>574.10</ele>
        <time>2014-11-01T08:44:04Z</time>
      </trkpt>
      <trkpt lat="42.320377000" lon="-2.513266000">
        <ele>574.10</ele>
        <time>2014-11-01T08:44:05Z</time>
      </trkpt>
      <trkpt lat="42.320359000" lon="-2.513303000">
        <ele>574.10</ele>
        <time>2014-11-01T08:44:06Z</time>
      </trkpt>
      <trkpt lat="42.320320000" lon="-2.513375000">
        <ele>574.30</ele>
        <time>2014-11-01T08:44:08Z</time>
      </trkpt>
      <trkpt lat="42.320302000" lon="-2.513415000">
        <ele>574.40</ele>
        <time>2014-11-01T08:44:09Z</time>
      </trkpt>
      <trkpt lat="42.320285000" lon="-2.513455000">
        <ele>574.60</ele>
        <time>2014-11-01T08:44:10Z</time>
      </trkpt>
      <trkpt lat="42.320268000" lon="-2.513497000">
        <ele>574.80</ele>
        <time>2014-11-01T08:44:11Z</time>
      </trkpt>
      <trkpt lat="42.320253000" lon="-2.513540000">
        <ele>574.90</ele>
        <time>2014-11-01T08:44:12Z</time>
      </trkpt>
      <trkpt lat="42.320234000" lon="-2.513578000">
        <ele>575.00</ele>
        <time>2014-11-01T08:44:13Z</time>
      </trkpt>
      <trkpt lat="42.320215000" lon="-2.513616000">
        <ele>575.10</ele>
        <time>2014-11-01T08:44:14Z</time>
      </trkpt>
      <trkpt lat="42.320198000" lon="-2.513651000">
        <ele>575.10</ele>
        <time>2014-11-01T08:44:15Z</time>
      </trkpt>
      <trkpt lat="42.320183000" lon="-2.513687000">
        <ele>575.00</ele>
        <time>2014-11-01T08:44:16Z</time>
      </trkpt>
      <trkpt lat="42.320169000" lon="-2.513720000">
        <ele>575.00</ele>
        <time>2014-11-01T08:44:17Z</time>
      </trkpt>
      <trkpt lat="42.320156000" lon="-2.513754000">
        <ele>575.00</ele>
        <time>2014-11-01T08:44:18Z</time>
      </trkpt>
      <trkpt lat="42.320142000" lon="-2.513789000">
        <ele>575.00</ele>
        <time>2014-11-01T08:44:19Z</time>
      </trkpt>
      <trkpt lat="42.320128000" lon="-2.513825000">
        <ele>575.10</ele>
        <time>2014-11-01T08:44:20Z</time>
      </trkpt>
      <trkpt lat="42.320117000" lon="-2.513862000">
        <ele>575.20</ele>
        <time>2014-11-01T08:44:21Z</time>
      </trkpt>
      <trkpt lat="42.320102000" lon="-2.513903000">
        <ele>575.40</ele>
        <time>2014-11-01T08:44:22Z</time>
      </trkpt>
      <trkpt lat="42.320087000" lon="-2.513940000">
        <ele>575.50</ele>
        <time>2014-11-01T08:44:23Z</time>
      </trkpt>
      <trkpt lat="42.320074000" lon="-2.513982000">
        <ele>575.60</ele>
        <time>2014-11-01T08:44:24Z</time>
      </trkpt>
      <trkpt lat="42.320062000" lon="-2.514024000">
        <ele>575.70</ele>
        <time>2014-11-01T08:44:25Z</time>
      </trkpt>
      <trkpt lat="42.320051000" lon="-2.514061000">
        <ele>576.00</ele>
        <time>2014-11-01T08:44:26Z</time>
      </trkpt>
      <trkpt lat="42.320041000" lon="-2.514099000">
        <ele>576.20</ele>
        <time>2014-11-01T08:44:27Z</time>
      </trkpt>
      <trkpt lat="42.320031000" lon="-2.514135000">
        <ele>576.30</ele>
        <time>2014-11-01T08:44:28Z</time>
      </trkpt>
      <trkpt lat="42.320020000" lon="-2.514173000">
        <ele>576.40</ele>
        <time>2014-11-01T08:44:29Z</time>
      </trkpt>
      <trkpt lat="42.320010000" lon="-2.514210000">
        <ele>576.50</ele>
        <time>2014-11-01T08:44:30Z</time>
      </trkpt>
      <trkpt lat="42.320002000" lon="-2.514250000">
        <ele>576.60</ele>
        <time>2014-11-01T08:44:31Z</time>
      </trkpt>
      <trkpt lat="42.319992000" lon="-2.514290000">
        <ele>576.60</ele>
        <time>2014-11-01T08:44:32Z</time>
      </trkpt>
      <trkpt lat="42.319981000" lon="-2.514329000">
        <ele>576.70</ele>
        <time>2014-11-01T08:44:33Z</time>
      </trkpt>
      <trkpt lat="42.319966000" lon="-2.514371000">
        <ele>576.90</ele>
        <time>2014-11-01T08:44:34Z</time>
      </trkpt>
      <trkpt lat="42.319955000" lon="-2.514413000">
        <ele>577.20</ele>
        <time>2014-11-01T08:44:35Z</time>
      </trkpt>
      <trkpt lat="42.319943000" lon="-2.514454000">
        <ele>577.30</ele>
        <time>2014-11-01T08:44:36Z</time>
      </trkpt>
      <trkpt lat="42.319932000" lon="-2.514494000">
        <ele>577.40</ele>
        <time>2014-11-01T08:44:37Z</time>
      </trkpt>
      <trkpt lat="42.319917000" lon="-2.514532000">
        <ele>577.30</ele>
        <time>2014-11-01T08:44:38Z</time>
      </trkpt>
      <trkpt lat="42.319908000" lon="-2.514568000">
        <ele>577.30</ele>
        <time>2014-11-01T08:44:39Z</time>
      </trkpt>
      <trkpt lat="42.319896000" lon="-2.514604000">
        <ele>577.20</ele>
        <time>2014-11-01T08:44:40Z</time>
      </trkpt>
      <trkpt lat="42.319884000" lon="-2.514643000">
        <ele>577.20</ele>
        <time>2014-11-01T08:44:41Z</time>
      </trkpt>
      <trkpt lat="42.319874000" lon="-2.514677000">
        <ele>577.20</ele>
        <time>2014-11-01T08:44:42Z</time>
      </trkpt>
      <trkpt lat="42.319866000" lon="-2.514716000">
        <ele>577.30</ele>
        <time>2014-11-01T08:44:43Z</time>
      </trkpt>
      <trkpt lat="42.319854000" lon="-2.514753000">
        <ele>577.40</ele>
        <time>2014-11-01T08:44:44Z</time>
      </trkpt>
      <trkpt lat="42.319843000" lon="-2.514797000">
        <ele>577.50</ele>
        <time>2014-11-01T08:44:45Z</time>
      </trkpt>
      <trkpt lat="42.319830000" lon="-2.514843000">
        <ele>577.50</ele>
        <time>2014-11-01T08:44:46Z</time>
      </trkpt>
      <trkpt lat="42.319816000" lon="-2.514885000">
        <ele>577.60</ele>
        <time>2014-11-01T08:44:47Z</time>
      </trkpt>
      <trkpt lat="42.319803000" lon="-2.514929000">
        <ele>577.60</ele>
        <time>2014-11-01T08:44:48Z</time>
      </trkpt>
      <trkpt lat="42.319789000" lon="-2.514975000">
        <ele>577.60</ele>
        <time>2014-11-01T08:44:49Z</time>
      </trkpt>
      <trkpt lat="42.319776000" lon="-2.515021000">
        <ele>577.70</ele>
        <time>2014-11-01T08:44:50Z</time>
      </trkpt>
      <trkpt lat="42.319762000" lon="-2.515066000">
        <ele>577.70</ele>
        <time>2014-11-01T08:44:51Z</time>
      </trkpt>
      <trkpt lat="42.319752000" lon="-2.515110000">
        <ele>577.70</ele>
        <time>2014-11-01T08:44:52Z</time>
      </trkpt>
      <trkpt lat="42.319737000" lon="-2.515156000">
        <ele>577.70</ele>
        <time>2014-11-01T08:44:53Z</time>
      </trkpt>
      <trkpt lat="42.319727000" lon="-2.515205000">
        <ele>577.70</ele>
        <time>2014-11-01T08:44:54Z</time>
      </trkpt>
      <trkpt lat="42.319714000" lon="-2.515251000">
        <ele>577.70</ele>
        <time>2014-11-01T08:44:55Z</time>
      </trkpt>
      <trkpt lat="42.319704000" lon="-2.515297000">
        <ele>577.60</ele>
        <time>2014-11-01T08:44:56Z</time>
      </trkpt>
      <trkpt lat="42.319690000" lon="-2.515342000">
        <ele>577.60</ele>
        <time>2014-11-01T08:44:57Z</time>
      </trkpt>
      <trkpt lat="42.319677000" lon="-2.515388000">
        <ele>577.50</ele>
        <time>2014-11-01T08:44:58Z</time>
      </trkpt>
      <trkpt lat="42.319664000" lon="-2.515436000">
        <ele>577.40</ele>
        <time>2014-11-01T08:44:59Z</time>
      </trkpt>
      <trkpt lat="42.319652000" lon="-2.515483000">
        <ele>577.30</ele>
        <time>2014-11-01T08:45:00Z</time>
      </trkpt>
      <trkpt lat="42.319640000" lon="-2.515527000">
        <ele>577.20</ele>
        <time>2014-11-01T08:45:01Z</time>
      </trkpt>
      <trkpt lat="42.319627000" lon="-2.515573000">
        <ele>577.10</ele>
        <time>2014-11-01T08:45:02Z</time>
      </trkpt>
      <trkpt lat="42.319614000" lon="-2.515624000">
        <ele>577.00</ele>
        <time>2014-11-01T08:45:03Z</time>
      </trkpt>
      <trkpt lat="42.319600000" lon="-2.515671000">
        <ele>576.90</ele>
        <time>2014-11-01T08:45:04Z</time>
      </trkpt>
      <trkpt lat="42.319588000" lon="-2.515717000">
        <ele>576.80</ele>
        <time>2014-11-01T08:45:05Z</time>
      </trkpt>
      <trkpt lat="42.319571000" lon="-2.515761000">
        <ele>576.80</ele>
        <time>2014-11-01T08:45:06Z</time>
      </trkpt>
      <trkpt lat="42.319556000" lon="-2.515806000">
        <ele>576.80</ele>
        <time>2014-11-01T08:45:07Z</time>
      </trkpt>
      <trkpt lat="42.319529000" lon="-2.515895000">
        <ele>576.60</ele>
        <time>2014-11-01T08:45:09Z</time>
      </trkpt>
      <trkpt lat="42.319515000" lon="-2.515942000">
        <ele>576.80</ele>
        <time>2014-11-01T08:45:10Z</time>
      </trkpt>
      <trkpt lat="42.319504000" lon="-2.515988000">
        <ele>577.00</ele>
        <time>2014-11-01T08:45:11Z</time>
      </trkpt>
      <trkpt lat="42.319494000" lon="-2.516035000">
        <ele>577.00</ele>
        <time>2014-11-01T08:45:12Z</time>
      </trkpt>
      <trkpt lat="42.319478000" lon="-2.516079000">
        <ele>577.00</ele>
        <time>2014-11-01T08:45:13Z</time>
      </trkpt>
      <trkpt lat="42.319463000" lon="-2.516128000">
        <ele>577.10</ele>
        <time>2014-11-01T08:45:14Z</time>
      </trkpt>
      <trkpt lat="42.319450000" lon="-2.516175000">
        <ele>577.30</ele>
        <time>2014-11-01T08:45:15Z</time>
      </trkpt>
      <trkpt lat="42.319439000" lon="-2.516220000">
        <ele>577.20</ele>
        <time>2014-11-01T08:45:16Z</time>
      </trkpt>
      <trkpt lat="42.319424000" lon="-2.516265000">
        <ele>577.10</ele>
        <time>2014-11-01T08:45:17Z</time>
      </trkpt>
      <trkpt lat="42.319411000" lon="-2.516313000">
        <ele>577.20</ele>
        <time>2014-11-01T08:45:18Z</time>
      </trkpt>
      <trkpt lat="42.319398000" lon="-2.516360000">
        <ele>577.30</ele>
        <time>2014-11-01T08:45:19Z</time>
      </trkpt>
      <trkpt lat="42.319382000" lon="-2.516408000">
        <ele>577.30</ele>
        <time>2014-11-01T08:45:20Z</time>
      </trkpt>
      <trkpt lat="42.319367000" lon="-2.516452000">
        <ele>577.20</ele>
        <time>2014-11-01T08:45:21Z</time>
      </trkpt>
      <trkpt lat="42.319355000" lon="-2.516497000">
        <ele>577.20</ele>
        <time>2014-11-01T08:45:22Z</time>
      </trkpt>
      <trkpt lat="42.319340000" lon="-2.516542000">
        <ele>577.20</ele>
        <time>2014-11-01T08:45:23Z</time>
      </trkpt>
      <trkpt lat="42.319330000" lon="-2.516586000">
        <ele>577.20</ele>
        <time>2014-11-01T08:45:24Z</time>
      </trkpt>
      <trkpt lat="42.319319000" lon="-2.516632000">
        <ele>577.20</ele>
        <time>2014-11-01T08:45:25Z</time>
      </trkpt>
      <trkpt lat="42.319306000" lon="-2.516675000">
        <ele>577.30</ele>
        <time>2014-11-01T08:45:26Z</time>
      </trkpt>
      <trkpt lat="42.319293000" lon="-2.516715000">
        <ele>577.40</ele>
        <time>2014-11-01T08:45:27Z</time>
      </trkpt>
      <trkpt lat="42.319282000" lon="-2.516760000">
        <ele>577.50</ele>
        <time>2014-11-01T08:45:28Z</time>
      </trkpt>
      <trkpt lat="42.319270000" lon="-2.516805000">
        <ele>577.60</ele>
        <time>2014-11-01T08:45:29Z</time>
      </trkpt>
      <trkpt lat="42.319255000" lon="-2.516850000">
        <ele>577.60</ele>
        <time>2014-11-01T08:45:30Z</time>
      </trkpt>
      <trkpt lat="42.319245000" lon="-2.516892000">
        <ele>577.60</ele>
        <time>2014-11-01T08:45:31Z</time>
      </trkpt>
      <trkpt lat="42.319234000" lon="-2.516933000">
        <ele>577.60</ele>
        <time>2014-11-01T08:45:32Z</time>
      </trkpt>
      <trkpt lat="42.319225000" lon="-2.516974000">
        <ele>577.70</ele>
        <time>2014-11-01T08:45:33Z</time>
      </trkpt>
      <trkpt lat="42.319215000" lon="-2.517012000">
        <ele>577.90</ele>
        <time>2014-11-01T08:45:34Z</time>
      </trkpt>
      <trkpt lat="42.319205000" lon="-2.517044000">
        <ele>578.10</ele>
        <time>2014-11-01T08:45:35Z</time>
      </trkpt>
      <trkpt lat="42.319195000" lon="-2.517078000">
        <ele>578.30</ele>
        <time>2014-11-01T08:45:36Z</time>
      </trkpt>
      <trkpt lat="42.319186000" lon="-2.517111000">
        <ele>578.40</ele>
        <time>2014-11-01T08:45:37Z</time>
      </trkpt>
      <trkpt lat="42.319177000" lon="-2.517147000">
        <ele>578.60</ele>
        <time>2014-11-01T08:45:38Z</time>
      </trkpt>
      <trkpt lat="42.319169000" lon="-2.517187000">
        <ele>578.70</ele>
        <time>2014-11-01T08:45:39Z</time>
      </trkpt>
      <trkpt lat="42.319157000" lon="-2.517224000">
        <ele>578.80</ele>
        <time>2014-11-01T08:45:40Z</time>
      </trkpt>
      <trkpt lat="42.319144000" lon="-2.517262000">
        <ele>578.80</ele>
        <time>2014-11-01T08:45:41Z</time>
      </trkpt>
      <trkpt lat="42.319135000" lon="-2.517302000">
        <ele>578.90</ele>
        <time>2014-11-01T08:45:42Z</time>
      </trkpt>
      <trkpt lat="42.319125000" lon="-2.517339000">
        <ele>578.90</ele>
        <time>2014-11-01T08:45:43Z</time>
      </trkpt>
      <trkpt lat="42.319114000" lon="-2.517378000">
        <ele>578.90</ele>
        <time>2014-11-01T08:45:44Z</time>
      </trkpt>
      <trkpt lat="42.319103000" lon="-2.517413000">
        <ele>579.00</ele>
        <time>2014-11-01T08:45:45Z</time>
      </trkpt>
      <trkpt lat="42.319090000" lon="-2.517448000">
        <ele>579.00</ele>
        <time>2014-11-01T08:45:46Z</time>
      </trkpt>
      <trkpt lat="42.319080000" lon="-2.517484000">
        <ele>579.00</ele>
        <time>2014-11-01T08:45:47Z</time>
      </trkpt>
      <trkpt lat="42.319070000" lon="-2.517521000">
        <ele>579.20</ele>
        <time>2014-11-01T08:45:48Z</time>
      </trkpt>
      <trkpt lat="42.319060000" lon="-2.517557000">
        <ele>579.30</ele>
        <time>2014-11-01T08:45:49Z</time>
      </trkpt>
      <trkpt lat="42.319049000" lon="-2.517594000">
        <ele>579.50</ele>
        <time>2014-11-01T08:45:50Z</time>
      </trkpt>
      <trkpt lat="42.319037000" lon="-2.517628000">
        <ele>579.50</ele>
        <time>2014-11-01T08:45:51Z</time>
      </trkpt>
      <trkpt lat="42.319025000" lon="-2.517664000">
        <ele>579.60</ele>
        <time>2014-11-01T08:45:52Z</time>
      </trkpt>
      <trkpt lat="42.319014000" lon="-2.517697000">
        <ele>579.70</ele>
        <time>2014-11-01T08:45:53Z</time>
      </trkpt>
      <trkpt lat="42.319003000" lon="-2.517730000">
        <ele>579.60</ele>
        <time>2014-11-01T08:45:54Z</time>
      </trkpt>
      <trkpt lat="42.318993000" lon="-2.517764000">
        <ele>579.50</ele>
        <time>2014-11-01T08:45:55Z</time>
      </trkpt>
      <trkpt lat="42.318979000" lon="-2.517793000">
        <ele>579.40</ele>
        <time>2014-11-01T08:45:56Z</time>
      </trkpt>
      <trkpt lat="42.318967000" lon="-2.517825000">
        <ele>579.40</ele>
        <time>2014-11-01T08:45:57Z</time>
      </trkpt>
      <trkpt lat="42.318957000" lon="-2.517860000">
        <ele>579.70</ele>
        <time>2014-11-01T08:45:58Z</time>
      </trkpt>
      <trkpt lat="42.318941000" lon="-2.517902000">
        <ele>579.90</ele>
        <time>2014-11-01T08:45:59Z</time>
      </trkpt>
      <trkpt lat="42.318928000" lon="-2.517950000">
        <ele>580.00</ele>
        <time>2014-11-01T08:46:00Z</time>
      </trkpt>
      <trkpt lat="42.318915000" lon="-2.518003000">
        <ele>580.20</ele>
        <time>2014-11-01T08:46:01Z</time>
      </trkpt>
      <trkpt lat="42.318895000" lon="-2.518054000">
        <ele>580.30</ele>
        <time>2014-11-01T08:46:02Z</time>
      </trkpt>
      <trkpt lat="42.318879000" lon="-2.518111000">
        <ele>580.50</ele>
        <time>2014-11-01T08:46:03Z</time>
      </trkpt>
      <trkpt lat="42.318863000" lon="-2.518172000">
        <ele>580.60</ele>
        <time>2014-11-01T08:46:04Z</time>
      </trkpt>
      <trkpt lat="42.318848000" lon="-2.518232000">
        <ele>580.60</ele>
        <time>2014-11-01T08:46:05Z</time>
      </trkpt>
      <trkpt lat="42.318836000" lon="-2.518294000">
        <ele>580.20</ele>
        <time>2014-11-01T08:46:06Z</time>
      </trkpt>
      <trkpt lat="42.318823000" lon="-2.518358000">
        <ele>579.90</ele>
        <time>2014-11-01T08:46:07Z</time>
      </trkpt>
      <trkpt lat="42.318814000" lon="-2.518417000">
        <ele>579.70</ele>
        <time>2014-11-01T08:46:08Z</time>
      </trkpt>
      <trkpt lat="42.318801000" lon="-2.518537000">
        <ele>579.30</ele>
        <time>2014-11-01T08:46:10Z</time>
      </trkpt>
      <trkpt lat="42.318793000" lon="-2.518594000">
        <ele>579.10</ele>
        <time>2014-11-01T08:46:11Z</time>
      </trkpt>
      <trkpt lat="42.318785000" lon="-2.518649000">
        <ele>578.90</ele>
        <time>2014-11-01T08:46:12Z</time>
      </trkpt>
      <trkpt lat="42.318779000" lon="-2.518705000">
        <ele>578.70</ele>
        <time>2014-11-01T08:46:13Z</time>
      </trkpt>
      <trkpt lat="42.318771000" lon="-2.518763000">
        <ele>578.60</ele>
        <time>2014-11-01T08:46:14Z</time>
      </trkpt>
      <trkpt lat="42.318768000" lon="-2.518824000">
        <ele>578.50</ele>
        <time>2014-11-01T08:46:15Z</time>
      </trkpt>
      <trkpt lat="42.318761000" lon="-2.518886000">
        <ele>578.40</ele>
        <time>2014-11-01T08:46:16Z</time>
      </trkpt>
      <trkpt lat="42.318753000" lon="-2.518949000">
        <ele>578.30</ele>
        <time>2014-11-01T08:46:17Z</time>
      </trkpt>
      <trkpt lat="42.318745000" lon="-2.519013000">
        <ele>578.50</ele>
        <time>2014-11-01T08:46:18Z</time>
      </trkpt>
      <trkpt lat="42.318738000" lon="-2.519070000">
        <ele>578.60</ele>
        <time>2014-11-01T08:46:19Z</time>
      </trkpt>
      <trkpt lat="42.318732000" lon="-2.519127000">
        <ele>578.70</ele>
        <time>2014-11-01T08:46:20Z</time>
      </trkpt>
      <trkpt lat="42.318726000" lon="-2.519188000">
        <ele>578.80</ele>
        <time>2014-11-01T08:46:21Z</time>
      </trkpt>
      <trkpt lat="42.318722000" lon="-2.519246000">
        <ele>579.10</ele>
        <time>2014-11-01T08:46:22Z</time>
      </trkpt>
      <trkpt lat="42.318717000" lon="-2.519300000">
        <ele>579.30</ele>
        <time>2014-11-01T08:46:23Z</time>
      </trkpt>
      <trkpt lat="42.318711000" lon="-2.519351000">
        <ele>579.40</ele>
        <time>2014-11-01T08:46:24Z</time>
      </trkpt>
      <trkpt lat="42.318702000" lon="-2.519401000">
        <ele>579.40</ele>
        <time>2014-11-01T08:46:25Z</time>
      </trkpt>
      <trkpt lat="42.318695000" lon="-2.519448000">
        <ele>579.40</ele>
        <time>2014-11-01T08:46:26Z</time>
      </trkpt>
      <trkpt lat="42.318691000" lon="-2.519493000">
        <ele>579.50</ele>
        <time>2014-11-01T08:46:27Z</time>
      </trkpt>
      <trkpt lat="42.318686000" lon="-2.519538000">
        <ele>579.10</ele>
        <time>2014-11-01T08:46:28Z</time>
      </trkpt>
      <trkpt lat="42.318683000" lon="-2.519587000">
        <ele>578.80</ele>
        <time>2014-11-01T08:46:29Z</time>
      </trkpt>
      <trkpt lat="42.318679000" lon="-2.519634000">
        <ele>578.40</ele>
        <time>2014-11-01T08:46:30Z</time>
      </trkpt>
      <trkpt lat="42.318673000" lon="-2.519681000">
        <ele>578.10</ele>
        <time>2014-11-01T08:46:31Z</time>
      </trkpt>
      <trkpt lat="42.318669000" lon="-2.519726000">
        <ele>577.90</ele>
        <time>2014-11-01T08:46:32Z</time>
      </trkpt>
      <trkpt lat="42.318662000" lon="-2.519771000">
        <ele>577.70</ele>
        <time>2014-11-01T08:46:33Z</time>
      </trkpt>
      <trkpt lat="42.318655000" lon="-2.519819000">
        <ele>577.60</ele>
        <time>2014-11-01T08:46:34Z</time>
      </trkpt>
      <trkpt lat="42.318648000" lon="-2.519868000">
        <ele>577.60</ele>
        <time>2014-11-01T08:46:35Z</time>
      </trkpt>
      <trkpt lat="42.318640000" lon="-2.519919000">
        <ele>577.50</ele>
        <time>2014-11-01T08:46:36Z</time>
      </trkpt>
      <trkpt lat="42.318636000" lon="-2.519969000">
        <ele>577.50</ele>
        <time>2014-11-01T08:46:37Z</time>
      </trkpt>
      <trkpt lat="42.318629000" lon="-2.520020000">
        <ele>577.50</ele>
        <time>2014-11-01T08:46:38Z</time>
      </trkpt>
      <trkpt lat="42.318619000" lon="-2.520065000">
        <ele>577.60</ele>
        <time>2014-11-01T08:46:39Z</time>
      </trkpt>
      <trkpt lat="42.318613000" lon="-2.520114000">
        <ele>577.80</ele>
        <time>2014-11-01T08:46:40Z</time>
      </trkpt>
      <trkpt lat="42.318610000" lon="-2.520160000">
        <ele>577.90</ele>
        <time>2014-11-01T08:46:41Z</time>
      </trkpt>
      <trkpt lat="42.318606000" lon="-2.520208000">
        <ele>578.10</ele>
        <time>2014-11-01T08:46:42Z</time>
      </trkpt>
      <trkpt lat="42.318601000" lon="-2.520254000">
        <ele>578.20</ele>
        <time>2014-11-01T08:46:43Z</time>
      </trkpt>
      <trkpt lat="42.318595000" lon="-2.520300000">
        <ele>578.10</ele>
        <time>2014-11-01T08:46:44Z</time>
      </trkpt>
      <trkpt lat="42.318590000" lon="-2.520344000">
        <ele>578.00</ele>
        <time>2014-11-01T08:46:45Z</time>
      </trkpt>
      <trkpt lat="42.318586000" lon="-2.520392000">
        <ele>578.00</ele>
        <time>2014-11-01T08:46:46Z</time>
      </trkpt>
      <trkpt lat="42.318578000" lon="-2.520438000">
        <ele>578.00</ele>
        <time>2014-11-01T08:46:47Z</time>
      </trkpt>
      <trkpt lat="42.318574000" lon="-2.520482000">
        <ele>578.10</ele>
        <time>2014-11-01T08:46:48Z</time>
      </trkpt>
      <trkpt lat="42.318569000" lon="-2.520528000">
        <ele>578.20</ele>
        <time>2014-11-01T08:46:49Z</time>
      </trkpt>
      <trkpt lat="42.318567000" lon="-2.520572000">
        <ele>578.20</ele>
        <time>2014-11-01T08:46:50Z</time>
      </trkpt>
      <trkpt lat="42.318565000" lon="-2.520619000">
        <ele>578.30</ele>
        <time>2014-11-01T08:46:51Z</time>
      </trkpt>
      <trkpt lat="42.318559000" lon="-2.520666000">
        <ele>578.60</ele>
        <time>2014-11-01T08:46:52Z</time>
      </trkpt>
      <trkpt lat="42.318552000" lon="-2.520712000">
        <ele>578.90</ele>
        <time>2014-11-01T08:46:53Z</time>
      </trkpt>
      <trkpt lat="42.318550000" lon="-2.520761000">
        <ele>578.90</ele>
        <time>2014-11-01T08:46:54Z</time>
      </trkpt>
      <trkpt lat="42.318546000" lon="-2.520810000">
        <ele>578.90</ele>
        <time>2014-11-01T08:46:55Z</time>
      </trkpt>
      <trkpt lat="42.318540000" lon="-2.520859000">
        <ele>578.90</ele>
        <time>2014-11-01T08:46:56Z</time>
      </trkpt>
      <trkpt lat="42.318534000" lon="-2.520906000">
        <ele>578.90</ele>
        <time>2014-11-01T08:46:57Z</time>
      </trkpt>
      <trkpt lat="42.318531000" lon="-2.520949000">
        <ele>578.90</ele>
        <time>2014-11-01T08:46:58Z</time>
      </trkpt>
      <trkpt lat="42.318525000" lon="-2.520993000">
        <ele>578.90</ele>
        <time>2014-11-01T08:46:59Z</time>
      </trkpt>
      <trkpt lat="42.318520000" lon="-2.521037000">
        <ele>578.70</ele>
        <time>2014-11-01T08:47:00Z</time>
      </trkpt>
      <trkpt lat="42.318516000" lon="-2.521081000">
        <ele>578.60</ele>
        <time>2014-11-01T08:47:01Z</time>
      </trkpt>
      <trkpt lat="42.318509000" lon="-2.521127000">
        <ele>578.50</ele>
        <time>2014-11-01T08:47:02Z</time>
      </trkpt>
      <trkpt lat="42.318500000" lon="-2.521180000">
        <ele>578.40</ele>
        <time>2014-11-01T08:47:03Z</time>
      </trkpt>
      <trkpt lat="42.318496000" lon="-2.521234000">
        <ele>578.50</ele>
        <time>2014-11-01T08:47:04Z</time>
      </trkpt>
      <trkpt lat="42.318490000" lon="-2.521286000">
        <ele>578.50</ele>
        <time>2014-11-01T08:47:05Z</time>
      </trkpt>
      <trkpt lat="42.318483000" lon="-2.521339000">
        <ele>578.70</ele>
        <time>2014-11-01T08:47:06Z</time>
      </trkpt>
      <trkpt lat="42.318476000" lon="-2.521390000">
        <ele>578.80</ele>
        <time>2014-11-01T08:47:07Z</time>
      </trkpt>
      <trkpt lat="42.318468000" lon="-2.521442000">
        <ele>578.90</ele>
        <time>2014-11-01T08:47:08Z</time>
      </trkpt>
      <trkpt lat="42.318462000" lon="-2.521500000">
        <ele>579.00</ele>
        <time>2014-11-01T08:47:09Z</time>
      </trkpt>
      <trkpt lat="42.318449000" lon="-2.521603000">
        <ele>579.20</ele>
        <time>2014-11-01T08:47:11Z</time>
      </trkpt>
      <trkpt lat="42.318442000" lon="-2.521657000">
        <ele>579.30</ele>
        <time>2014-11-01T08:47:12Z</time>
      </trkpt>
      <trkpt lat="42.318435000" lon="-2.521712000">
        <ele>579.30</ele>
        <time>2014-11-01T08:47:13Z</time>
      </trkpt>
      <trkpt lat="42.318430000" lon="-2.521765000">
        <ele>579.30</ele>
        <time>2014-11-01T08:47:14Z</time>
      </trkpt>
      <trkpt lat="42.318418000" lon="-2.521821000">
        <ele>579.40</ele>
        <time>2014-11-01T08:47:15Z</time>
      </trkpt>
      <trkpt lat="42.318409000" lon="-2.521876000">
        <ele>579.40</ele>
        <time>2014-11-01T08:47:16Z</time>
      </trkpt>
      <trkpt lat="42.318407000" lon="-2.521929000">
        <ele>579.40</ele>
        <time>2014-11-01T08:47:17Z</time>
      </trkpt>
      <trkpt lat="42.318404000" lon="-2.521978000">
        <ele>579.40</ele>
        <time>2014-11-01T08:47:18Z</time>
      </trkpt>
      <trkpt lat="42.318397000" lon="-2.522028000">
        <ele>579.30</ele>
        <time>2014-11-01T08:47:19Z</time>
      </trkpt>
      <trkpt lat="42.318393000" lon="-2.522078000">
        <ele>579.40</ele>
        <time>2014-11-01T08:47:20Z</time>
      </trkpt>
      <trkpt lat="42.318387000" lon="-2.522125000">
        <ele>579.40</ele>
        <time>2014-11-01T08:47:21Z</time>
      </trkpt>
      <trkpt lat="42.318382000" lon="-2.522173000">
        <ele>579.30</ele>
        <time>2014-11-01T08:47:22Z</time>
      </trkpt>
      <trkpt lat="42.318376000" lon="-2.522219000">
        <ele>579.30</ele>
        <time>2014-11-01T08:47:23Z</time>
      </trkpt>
      <trkpt lat="42.318371000" lon="-2.522264000">
        <ele>579.20</ele>
        <time>2014-11-01T08:47:24Z</time>
      </trkpt>
      <trkpt lat="42.318363000" lon="-2.522310000">
        <ele>579.10</ele>
        <time>2014-11-01T08:47:25Z</time>
      </trkpt>
      <trkpt lat="42.318355000" lon="-2.522359000">
        <ele>579.10</ele>
        <time>2014-11-01T08:47:26Z</time>
      </trkpt>
      <trkpt lat="42.318348000" lon="-2.522405000">
        <ele>579.10</ele>
        <time>2014-11-01T08:47:27Z</time>
      </trkpt>
      <trkpt lat="42.318341000" lon="-2.522453000">
        <ele>579.00</ele>
        <time>2014-11-01T08:47:28Z</time>
      </trkpt>
      <trkpt lat="42.318338000" lon="-2.522503000">
        <ele>578.90</ele>
        <time>2014-11-01T08:47:29Z</time>
      </trkpt>
      <trkpt lat="42.318334000" lon="-2.522550000">
        <ele>579.00</ele>
        <time>2014-11-01T08:47:30Z</time>
      </trkpt>
      <trkpt lat="42.318328000" lon="-2.522599000">
        <ele>579.10</ele>
        <time>2014-11-01T08:47:31Z</time>
      </trkpt>
      <trkpt lat="42.318321000" lon="-2.522646000">
        <ele>579.20</ele>
        <time>2014-11-01T08:47:32Z</time>
      </trkpt>
      <trkpt lat="42.318314000" lon="-2.522688000">
        <ele>579.30</ele>
        <time>2014-11-01T08:47:33Z</time>
      </trkpt>
      <trkpt lat="42.318310000" lon="-2.522732000">
        <ele>579.50</ele>
        <time>2014-11-01T08:47:34Z</time>
      </trkpt>
      <trkpt lat="42.318305000" lon="-2.522772000">
        <ele>579.70</ele>
        <time>2014-11-01T08:47:35Z</time>
      </trkpt>
      <trkpt lat="42.318300000" lon="-2.522815000">
        <ele>579.80</ele>
        <time>2014-11-01T08:47:36Z</time>
      </trkpt>
      <trkpt lat="42.318295000" lon="-2.522859000">
        <ele>579.90</ele>
        <time>2014-11-01T08:47:37Z</time>
      </trkpt>
      <trkpt lat="42.318290000" lon="-2.522901000">
        <ele>580.10</ele>
        <time>2014-11-01T08:47:38Z</time>
      </trkpt>
      <trkpt lat="42.318283000" lon="-2.522941000">
        <ele>580.20</ele>
        <time>2014-11-01T08:47:39Z</time>
      </trkpt>
      <trkpt lat="42.318278000" lon="-2.522980000">
        <ele>580.40</ele>
        <time>2014-11-01T08:47:40Z</time>
      </trkpt>
      <trkpt lat="42.318274000" lon="-2.523019000">
        <ele>580.60</ele>
        <time>2014-11-01T08:47:41Z</time>
      </trkpt>
      <trkpt lat="42.318269000" lon="-2.523056000">
        <ele>580.70</ele>
        <time>2014-11-01T08:47:42Z</time>
      </trkpt>
      <trkpt lat="42.318266000" lon="-2.523097000">
        <ele>580.90</ele>
        <time>2014-11-01T08:47:43Z</time>
      </trkpt>
      <trkpt lat="42.318257000" lon="-2.523136000">
        <ele>581.00</ele>
        <time>2014-11-01T08:47:44Z</time>
      </trkpt>
      <trkpt lat="42.318255000" lon="-2.523172000">
        <ele>581.10</ele>
        <time>2014-11-01T08:47:45Z</time>
      </trkpt>
      <trkpt lat="42.318249000" lon="-2.523209000">
        <ele>581.10</ele>
        <time>2014-11-01T08:47:46Z</time>
      </trkpt>
      <trkpt lat="42.318243000" lon="-2.523247000">
        <ele>581.20</ele>
        <time>2014-11-01T08:47:47Z</time>
      </trkpt>
      <trkpt lat="42.318239000" lon="-2.523285000">
        <ele>581.80</ele>
        <time>2014-11-01T08:47:48Z</time>
      </trkpt>
      <trkpt lat="42.318236000" lon="-2.523327000">
        <ele>582.20</ele>
        <time>2014-11-01T08:47:49Z</time>
      </trkpt>
      <trkpt lat="42.318230000" lon="-2.523375000">
        <ele>582.60</ele>
        <time>2014-11-01T08:47:50Z</time>
      </trkpt>
      <trkpt lat="42.318224000" lon="-2.523418000">
        <ele>582.90</ele>
        <time>2014-11-01T08:47:51Z</time>
      </trkpt>
      <trkpt lat="42.318217000" lon="-2.523464000">
        <ele>583.00</ele>
        <time>2014-11-01T08:47:52Z</time>
      </trkpt>
      <trkpt lat="42.318209000" lon="-2.523508000">
        <ele>583.20</ele>
        <time>2014-11-01T08:47:53Z</time>
      </trkpt>
      <trkpt lat="42.318201000" lon="-2.523552000">
        <ele>582.90</ele>
        <time>2014-11-01T08:47:54Z</time>
      </trkpt>
      <trkpt lat="42.318193000" lon="-2.523599000">
        <ele>582.70</ele>
        <time>2014-11-01T08:47:55Z</time>
      </trkpt>
      <trkpt lat="42.318185000" lon="-2.523645000">
        <ele>582.80</ele>
        <time>2014-11-01T08:47:56Z</time>
      </trkpt>
      <trkpt lat="42.318174000" lon="-2.523693000">
        <ele>583.00</ele>
        <time>2014-11-01T08:47:57Z</time>
      </trkpt>
      <trkpt lat="42.318166000" lon="-2.523743000">
        <ele>582.70</ele>
        <time>2014-11-01T08:47:58Z</time>
      </trkpt>
      <trkpt lat="42.318161000" lon="-2.523795000">
        <ele>582.60</ele>
        <time>2014-11-01T08:47:59Z</time>
      </trkpt>
      <trkpt lat="42.318155000" lon="-2.523847000">
        <ele>582.50</ele>
        <time>2014-11-01T08:48:00Z</time>
      </trkpt>
      <trkpt lat="42.318149000" lon="-2.523891000">
        <ele>582.40</ele>
        <time>2014-11-01T08:48:01Z</time>
      </trkpt>
      <trkpt lat="42.318145000" lon="-2.523932000">
        <ele>582.30</ele>
        <time>2014-11-01T08:48:02Z</time>
      </trkpt>
      <trkpt lat="42.318139000" lon="-2.523973000">
        <ele>582.20</ele>
        <time>2014-11-01T08:48:03Z</time>
      </trkpt>
      <trkpt lat="42.318134000" lon="-2.524013000">
        <ele>582.20</ele>
        <time>2014-11-01T08:48:04Z</time>
      </trkpt>
      <trkpt lat="42.318124000" lon="-2.524050000">
        <ele>582.20</ele>
        <time>2014-11-01T08:48:05Z</time>
      </trkpt>
      <trkpt lat="42.318117000" lon="-2.524083000">
        <ele>582.30</ele>
        <time>2014-11-01T08:48:06Z</time>
      </trkpt>
      <trkpt lat="42.318111000" lon="-2.524110000">
        <ele>582.40</ele>
        <time>2014-11-01T08:48:07Z</time>
      </trkpt>
      <trkpt lat="42.318104000" lon="-2.524137000">
        <ele>582.40</ele>
        <time>2014-11-01T08:48:08Z</time>
      </trkpt>
      <trkpt lat="42.318092000" lon="-2.524163000">
        <ele>582.40</ele>
        <time>2014-11-01T08:48:09Z</time>
      </trkpt>
      <trkpt lat="42.318081000" lon="-2.524193000">
        <ele>582.40</ele>
        <time>2014-11-01T08:48:10Z</time>
      </trkpt>
      <trkpt lat="42.318048000" lon="-2.524247000">
        <ele>582.20</ele>
        <time>2014-11-01T08:48:12Z</time>
      </trkpt>
      <trkpt lat="42.318028000" lon="-2.524272000">
        <ele>582.00</ele>
        <time>2014-11-01T08:48:13Z</time>
      </trkpt>
      <trkpt lat="42.318013000" lon="-2.524299000">
        <ele>581.90</ele>
        <time>2014-11-01T08:48:14Z</time>
      </trkpt>
      <trkpt lat="42.317997000" lon="-2.524330000">
        <ele>581.80</ele>
        <time>2014-11-01T08:48:15Z</time>
      </trkpt>
      <trkpt lat="42.317982000" lon="-2.524359000">
        <ele>582.00</ele>
        <time>2014-11-01T08:48:16Z</time>
      </trkpt>
      <trkpt lat="42.317966000" lon="-2.524382000">
        <ele>582.10</ele>
        <time>2014-11-01T08:48:17Z</time>
      </trkpt>
      <trkpt lat="42.317945000" lon="-2.524399000">
        <ele>582.30</ele>
        <time>2014-11-01T08:48:18Z</time>
      </trkpt>
      <trkpt lat="42.317926000" lon="-2.524425000">
        <ele>582.50</ele>
        <time>2014-11-01T08:48:19Z</time>
      </trkpt>
      <trkpt lat="42.317906000" lon="-2.524449000">
        <ele>582.90</ele>
        <time>2014-11-01T08:48:20Z</time>
      </trkpt>
      <trkpt lat="42.317884000" lon="-2.524468000">
        <ele>583.30</ele>
        <time>2014-11-01T08:48:21Z</time>
      </trkpt>
      <trkpt lat="42.317862000" lon="-2.524488000">
        <ele>583.50</ele>
        <time>2014-11-01T08:48:22Z</time>
      </trkpt>
      <trkpt lat="42.317835000" lon="-2.524503000">
        <ele>583.70</ele>
        <time>2014-11-01T08:48:23Z</time>
      </trkpt>
      <trkpt lat="42.317804000" lon="-2.524512000">
        <ele>583.70</ele>
        <time>2014-11-01T08:48:24Z</time>
      </trkpt>
      <trkpt lat="42.317774000" lon="-2.524521000">
        <ele>583.70</ele>
        <time>2014-11-01T08:48:25Z</time>
      </trkpt>
      <trkpt lat="42.317746000" lon="-2.524530000">
        <ele>583.70</ele>
        <time>2014-11-01T08:48:26Z</time>
      </trkpt>
      <trkpt lat="42.317717000" lon="-2.524536000">
        <ele>583.70</ele>
        <time>2014-11-01T08:48:27Z</time>
      </trkpt>
      <trkpt lat="42.317689000" lon="-2.524547000">
        <ele>584.00</ele>
        <time>2014-11-01T08:48:28Z</time>
      </trkpt>
      <trkpt lat="42.317661000" lon="-2.524559000">
        <ele>584.20</ele>
        <time>2014-11-01T08:48:29Z</time>
      </trkpt>
      <trkpt lat="42.317634000" lon="-2.524572000">
        <ele>584.40</ele>
        <time>2014-11-01T08:48:30Z</time>
      </trkpt>
      <trkpt lat="42.317607000" lon="-2.524586000">
        <ele>584.60</ele>
        <time>2014-11-01T08:48:31Z</time>
      </trkpt>
      <trkpt lat="42.317579000" lon="-2.524599000">
        <ele>584.60</ele>
        <time>2014-11-01T08:48:32Z</time>
      </trkpt>
      <trkpt lat="42.317550000" lon="-2.524608000">
        <ele>584.70</ele>
        <time>2014-11-01T08:48:33Z</time>
      </trkpt>
      <trkpt lat="42.317521000" lon="-2.524621000">
        <ele>584.70</ele>
        <time>2014-11-01T08:48:34Z</time>
      </trkpt>
      <trkpt lat="42.317492000" lon="-2.524633000">
        <ele>584.80</ele>
        <time>2014-11-01T08:48:35Z</time>
      </trkpt>
      <trkpt lat="42.317463000" lon="-2.524645000">
        <ele>584.80</ele>
        <time>2014-11-01T08:48:36Z</time>
      </trkpt>
      <trkpt lat="42.317432000" lon="-2.524658000">
        <ele>584.80</ele>
        <time>2014-11-01T08:48:37Z</time>
      </trkpt>
      <trkpt lat="42.317400000" lon="-2.524667000">
        <ele>584.90</ele>
        <time>2014-11-01T08:48:38Z</time>
      </trkpt>
      <trkpt lat="42.317369000" lon="-2.524674000">
        <ele>585.00</ele>
        <time>2014-11-01T08:48:39Z</time>
      </trkpt>
      <trkpt lat="42.317338000" lon="-2.524679000">
        <ele>585.00</ele>
        <time>2014-11-01T08:48:40Z</time>
      </trkpt>
      <trkpt lat="42.317308000" lon="-2.524687000">
        <ele>585.00</ele>
        <time>2014-11-01T08:48:41Z</time>
      </trkpt>
      <trkpt lat="42.317276000" lon="-2.524694000">
        <ele>585.00</ele>
        <time>2014-11-01T08:48:42Z</time>
      </trkpt>
      <trkpt lat="42.317243000" lon="-2.524707000">
        <ele>585.00</ele>
        <time>2014-11-01T08:48:43Z</time>
      </trkpt>
      <trkpt lat="42.317212000" lon="-2.524719000">
        <ele>585.00</ele>
        <time>2014-11-01T08:48:44Z</time>
      </trkpt>
      <trkpt lat="42.317181000" lon="-2.524732000">
        <ele>585.00</ele>
        <time>2014-11-01T08:48:45Z</time>
      </trkpt>
      <trkpt lat="42.317152000" lon="-2.524751000">
        <ele>585.00</ele>
        <time>2014-11-01T08:48:46Z</time>
      </trkpt>
      <trkpt lat="42.317122000" lon="-2.524779000">
        <ele>585.00</ele>
        <time>2014-11-01T08:48:47Z</time>
      </trkpt>
      <trkpt lat="42.317094000" lon="-2.524800000">
        <ele>585.20</ele>
        <time>2014-11-01T08:48:48Z</time>
      </trkpt>
      <trkpt lat="42.317065000" lon="-2.524817000">
        <ele>585.30</ele>
        <time>2014-11-01T08:48:49Z</time>
      </trkpt>
      <trkpt lat="42.317035000" lon="-2.524839000">
        <ele>585.30</ele>
        <time>2014-11-01T08:48:50Z</time>
      </trkpt>
      <trkpt lat="42.317008000" lon="-2.524862000">
        <ele>585.40</ele>
        <time>2014-11-01T08:48:51Z</time>
      </trkpt>
      <trkpt lat="42.316980000" lon="-2.524886000">
        <ele>585.50</ele>
        <time>2014-11-01T08:48:52Z</time>
      </trkpt>
      <trkpt lat="42.316950000" lon="-2.524909000">
        <ele>585.60</ele>
        <time>2014-11-01T08:48:53Z</time>
      </trkpt>
      <trkpt lat="42.316924000" lon="-2.524937000">
        <ele>585.90</ele>
        <time>2014-11-01T08:48:54Z</time>
      </trkpt>
      <trkpt lat="42.316897000" lon="-2.524960000">
        <ele>586.00</ele>
        <time>2014-11-01T08:48:55Z</time>
      </trkpt>
      <trkpt lat="42.316873000" lon="-2.524987000">
        <ele>586.30</ele>
        <time>2014-11-01T08:48:56Z</time>
      </trkpt>
      <trkpt lat="42.316849000" lon="-2.525017000">
        <ele>586.40</ele>
        <time>2014-11-01T08:48:57Z</time>
      </trkpt>
      <trkpt lat="42.316823000" lon="-2.525046000">
        <ele>586.50</ele>
        <time>2014-11-01T08:48:58Z</time>
      </trkpt>
      <trkpt lat="42.316795000" lon="-2.525075000">
        <ele>586.50</ele>
        <time>2014-11-01T08:48:59Z</time>
      </trkpt>
      <trkpt lat="42.316767000" lon="-2.525103000">
        <ele>586.50</ele>
        <time>2014-11-01T08:49:00Z</time>
      </trkpt>
      <trkpt lat="42.316742000" lon="-2.525137000">
        <ele>586.50</ele>
        <time>2014-11-01T08:49:01Z</time>
      </trkpt>
      <trkpt lat="42.316714000" lon="-2.525171000">
        <ele>586.40</ele>
        <time>2014-11-01T08:49:02Z</time>
      </trkpt>
      <trkpt lat="42.316687000" lon="-2.525203000">
        <ele>586.40</ele>
        <time>2014-11-01T08:49:03Z</time>
      </trkpt>
      <trkpt lat="42.316658000" lon="-2.525236000">
        <ele>586.50</ele>
        <time>2014-11-01T08:49:04Z</time>
      </trkpt>
      <trkpt lat="42.316634000" lon="-2.525274000">
        <ele>586.60</ele>
        <time>2014-11-01T08:49:05Z</time>
      </trkpt>
      <trkpt lat="42.316611000" lon="-2.525314000">
        <ele>586.70</ele>
        <time>2014-11-01T08:49:06Z</time>
      </trkpt>
      <trkpt lat="42.316589000" lon="-2.525353000">
        <ele>586.70</ele>
        <time>2014-11-01T08:49:07Z</time>
      </trkpt>
      <trkpt lat="42.316565000" lon="-2.525389000">
        <ele>586.70</ele>
        <time>2014-11-01T08:49:08Z</time>
      </trkpt>
      <trkpt lat="42.316540000" lon="-2.525429000">
        <ele>586.70</ele>
        <time>2014-11-01T08:49:09Z</time>
      </trkpt>
      <trkpt lat="42.316515000" lon="-2.525468000">
        <ele>586.50</ele>
        <time>2014-11-01T08:49:10Z</time>
      </trkpt>
      <trkpt lat="42.316493000" lon="-2.525503000">
        <ele>586.40</ele>
        <time>2014-11-01T08:49:11Z</time>
      </trkpt>
      <trkpt lat="42.316447000" lon="-2.525569000">
        <ele>586.20</ele>
        <time>2014-11-01T08:49:13Z</time>
      </trkpt>
      <trkpt lat="42.316423000" lon="-2.525599000">
        <ele>586.30</ele>
        <time>2014-11-01T08:49:14Z</time>
      </trkpt>
      <trkpt lat="42.316397000" lon="-2.525629000">
        <ele>586.40</ele>
        <time>2014-11-01T08:49:15Z</time>
      </trkpt>
      <trkpt lat="42.316372000" lon="-2.525654000">
        <ele>586.50</ele>
        <time>2014-11-01T08:49:16Z</time>
      </trkpt>
      <trkpt lat="42.316343000" lon="-2.525678000">
        <ele>586.50</ele>
        <time>2014-11-01T08:49:17Z</time>
      </trkpt>
      <trkpt lat="42.316312000" lon="-2.525696000">
        <ele>586.60</ele>
        <time>2014-11-01T08:49:18Z</time>
      </trkpt>
      <trkpt lat="42.316280000" lon="-2.525716000">
        <ele>586.60</ele>
        <time>2014-11-01T08:49:19Z</time>
      </trkpt>
      <trkpt lat="42.316249000" lon="-2.525731000">
        <ele>586.50</ele>
        <time>2014-11-01T08:49:20Z</time>
      </trkpt>
      <trkpt lat="42.316216000" lon="-2.525739000">
        <ele>586.50</ele>
        <time>2014-11-01T08:49:21Z</time>
      </trkpt>
      <trkpt lat="42.316184000" lon="-2.525750000">
        <ele>586.50</ele>
        <time>2014-11-01T08:49:22Z</time>
      </trkpt>
      <trkpt lat="42.316154000" lon="-2.525761000">
        <ele>586.60</ele>
        <time>2014-11-01T08:49:23Z</time>
      </trkpt>
      <trkpt lat="42.316125000" lon="-2.525771000">
        <ele>586.70</ele>
        <time>2014-11-01T08:49:24Z</time>
      </trkpt>
      <trkpt lat="42.316092000" lon="-2.525779000">
        <ele>586.70</ele>
        <time>2014-11-01T08:49:25Z</time>
      </trkpt>
      <trkpt lat="42.316060000" lon="-2.525791000">
        <ele>586.80</ele>
        <time>2014-11-01T08:49:26Z</time>
      </trkpt>
      <trkpt lat="42.316029000" lon="-2.525802000">
        <ele>586.90</ele>
        <time>2014-11-01T08:49:27Z</time>
      </trkpt>
      <trkpt lat="42.315998000" lon="-2.525818000">
        <ele>586.90</ele>
        <time>2014-11-01T08:49:28Z</time>
      </trkpt>
      <trkpt lat="42.315966000" lon="-2.525831000">
        <ele>587.00</ele>
        <time>2014-11-01T08:49:29Z</time>
      </trkpt>
      <trkpt lat="42.315937000" lon="-2.525846000">
        <ele>587.00</ele>
        <time>2014-11-01T08:49:30Z</time>
      </trkpt>
      <trkpt lat="42.315902000" lon="-2.525857000">
        <ele>587.10</ele>
        <time>2014-11-01T08:49:31Z</time>
      </trkpt>
      <trkpt lat="42.315868000" lon="-2.525868000">
        <ele>587.10</ele>
        <time>2014-11-01T08:49:32Z</time>
      </trkpt>
      <trkpt lat="42.315836000" lon="-2.525883000">
        <ele>587.10</ele>
        <time>2014-11-01T08:49:33Z</time>
      </trkpt>
      <trkpt lat="42.315802000" lon="-2.525898000">
        <ele>587.20</ele>
        <time>2014-11-01T08:49:34Z</time>
      </trkpt>
      <trkpt lat="42.315771000" lon="-2.525915000">
        <ele>587.30</ele>
        <time>2014-11-01T08:49:35Z</time>
      </trkpt>
      <trkpt lat="42.315741000" lon="-2.525935000">
        <ele>587.40</ele>
        <time>2014-11-01T08:49:36Z</time>
      </trkpt>
      <trkpt lat="42.315710000" lon="-2.525958000">
        <ele>587.50</ele>
        <time>2014-11-01T08:49:37Z</time>
      </trkpt>
      <trkpt lat="42.315682000" lon="-2.525985000">
        <ele>587.30</ele>
        <time>2014-11-01T08:49:38Z</time>
      </trkpt>
      <trkpt lat="42.315656000" lon="-2.526010000">
        <ele>587.20</ele>
        <time>2014-11-01T08:49:39Z</time>
      </trkpt>
      <trkpt lat="42.315629000" lon="-2.526040000">
        <ele>587.10</ele>
        <time>2014-11-01T08:49:40Z</time>
      </trkpt>
      <trkpt lat="42.315601000" lon="-2.526072000">
        <ele>587.10</ele>
        <time>2014-11-01T08:49:41Z</time>
      </trkpt>
      <trkpt lat="42.315572000" lon="-2.526099000">
        <ele>587.00</ele>
        <time>2014-11-01T08:49:42Z</time>
      </trkpt>
      <trkpt lat="42.315544000" lon="-2.526126000">
        <ele>586.90</ele>
        <time>2014-11-01T08:49:43Z</time>
      </trkpt>
      <trkpt lat="42.315519000" lon="-2.526155000">
        <ele>586.90</ele>
        <time>2014-11-01T08:49:44Z</time>
      </trkpt>
      <trkpt lat="42.315491000" lon="-2.526183000">
        <ele>586.90</ele>
        <time>2014-11-01T08:49:45Z</time>
      </trkpt>
      <trkpt lat="42.315467000" lon="-2.526214000">
        <ele>586.80</ele>
        <time>2014-11-01T08:49:46Z</time>
      </trkpt>
      <trkpt lat="42.315444000" lon="-2.526244000">
        <ele>586.70</ele>
        <time>2014-11-01T08:49:47Z</time>
      </trkpt>
      <trkpt lat="42.315421000" lon="-2.526275000">
        <ele>586.70</ele>
        <time>2014-11-01T08:49:48Z</time>
      </trkpt>
      <trkpt lat="42.315398000" lon="-2.526304000">
        <ele>586.60</ele>
        <time>2014-11-01T08:49:49Z</time>
      </trkpt>
      <trkpt lat="42.315374000" lon="-2.526333000">
        <ele>586.90</ele>
        <time>2014-11-01T08:49:50Z</time>
      </trkpt>
      <trkpt lat="42.315351000" lon="-2.526366000">
        <ele>587.20</ele>
        <time>2014-11-01T08:49:51Z</time>
      </trkpt>
      <trkpt lat="42.315286000" lon="-2.526436000">
        <ele>587.00</ele>
        <time>2014-11-01T08:49:53Z</time>
      </trkpt>
      <trkpt lat="42.315223000" lon="-2.526506000">
        <ele>587.40</ele>
        <time>2014-11-01T08:49:56Z</time>
      </trkpt>
      <trkpt lat="42.315198000" lon="-2.526533000">
        <ele>587.30</ele>
        <time>2014-11-01T08:49:57Z</time>
      </trkpt>
      <trkpt lat="42.315172000" lon="-2.526560000">
        <ele>587.30</ele>
        <time>2014-11-01T08:49:58Z</time>
      </trkpt>
      <trkpt lat="42.315145000" lon="-2.526591000">
        <ele>587.30</ele>
        <time>2014-11-01T08:49:59Z</time>
      </trkpt>
      <trkpt lat="42.315123000" lon="-2.526622000">
        <ele>587.40</ele>
        <time>2014-11-01T08:50:00Z</time>
      </trkpt>
      <trkpt lat="42.315100000" lon="-2.526660000">
        <ele>587.40</ele>
        <time>2014-11-01T08:50:01Z</time>
      </trkpt>
      <trkpt lat="42.315076000" lon="-2.526693000">
        <ele>587.40</ele>
        <time>2014-11-01T08:50:02Z</time>
      </trkpt>
      <trkpt lat="42.315051000" lon="-2.526722000">
        <ele>587.40</ele>
        <time>2014-11-01T08:50:03Z</time>
      </trkpt>
      <trkpt lat="42.315025000" lon="-2.526753000">
        <ele>587.50</ele>
        <time>2014-11-01T08:50:04Z</time>
      </trkpt>
      <trkpt lat="42.315001000" lon="-2.526787000">
        <ele>587.60</ele>
        <time>2014-11-01T08:50:05Z</time>
      </trkpt>
      <trkpt lat="42.314977000" lon="-2.526818000">
        <ele>587.60</ele>
        <time>2014-11-01T08:50:06Z</time>
      </trkpt>
      <trkpt lat="42.314956000" lon="-2.526847000">
        <ele>587.60</ele>
        <time>2014-11-01T08:50:07Z</time>
      </trkpt>
      <trkpt lat="42.314933000" lon="-2.526887000">
        <ele>587.70</ele>
        <time>2014-11-01T08:50:08Z</time>
      </trkpt>
      <trkpt lat="42.314903000" lon="-2.526920000">
        <ele>587.70</ele>
        <time>2014-11-01T08:50:09Z</time>
      </trkpt>
      <trkpt lat="42.314876000" lon="-2.526960000">
        <ele>587.50</ele>
        <time>2014-11-01T08:50:10Z</time>
      </trkpt>
      <trkpt lat="42.314846000" lon="-2.526999000">
        <ele>587.40</ele>
        <time>2014-11-01T08:50:11Z</time>
      </trkpt>
      <trkpt lat="42.314818000" lon="-2.527037000">
        <ele>587.30</ele>
        <time>2014-11-01T08:50:12Z</time>
      </trkpt>
      <trkpt lat="42.314761000" lon="-2.527115000">
        <ele>587.10</ele>
        <time>2014-11-01T08:50:14Z</time>
      </trkpt>
      <trkpt lat="42.314730000" lon="-2.527152000">
        <ele>587.00</ele>
        <time>2014-11-01T08:50:15Z</time>
      </trkpt>
      <trkpt lat="42.314699000" lon="-2.527193000">
        <ele>587.00</ele>
        <time>2014-11-01T08:50:16Z</time>
      </trkpt>
      <trkpt lat="42.314669000" lon="-2.527230000">
        <ele>587.00</ele>
        <time>2014-11-01T08:50:17Z</time>
      </trkpt>
      <trkpt lat="42.314639000" lon="-2.527267000">
        <ele>587.00</ele>
        <time>2014-11-01T08:50:18Z</time>
      </trkpt>
      <trkpt lat="42.314604000" lon="-2.527311000">
        <ele>587.10</ele>
        <time>2014-11-01T08:50:19Z</time>
      </trkpt>
      <trkpt lat="42.314564000" lon="-2.527355000">
        <ele>587.10</ele>
        <time>2014-11-01T08:50:20Z</time>
      </trkpt>
      <trkpt lat="42.314520000" lon="-2.527393000">
        <ele>587.10</ele>
        <time>2014-11-01T08:50:21Z</time>
      </trkpt>
      <trkpt lat="42.314479000" lon="-2.527425000">
        <ele>587.20</ele>
        <time>2014-11-01T08:50:22Z</time>
      </trkpt>
      <trkpt lat="42.314431000" lon="-2.527447000">
        <ele>587.20</ele>
        <time>2014-11-01T08:50:23Z</time>
      </trkpt>
      <trkpt lat="42.314382000" lon="-2.527459000">
        <ele>587.20</ele>
        <time>2014-11-01T08:50:24Z</time>
      </trkpt>
      <trkpt lat="42.314335000" lon="-2.527471000">
        <ele>587.20</ele>
        <time>2014-11-01T08:50:25Z</time>
      </trkpt>
      <trkpt lat="42.314283000" lon="-2.527473000">
        <ele>587.10</ele>
        <time>2014-11-01T08:50:26Z</time>
      </trkpt>
      <trkpt lat="42.314243000" lon="-2.527468000">
        <ele>587.00</ele>
        <time>2014-11-01T08:50:27Z</time>
      </trkpt>
      <trkpt lat="42.314209000" lon="-2.527470000">
        <ele>586.80</ele>
        <time>2014-11-01T08:50:28Z</time>
      </trkpt>
      <trkpt lat="42.314177000" lon="-2.527477000">
        <ele>586.70</ele>
        <time>2014-11-01T08:50:29Z</time>
      </trkpt>
      <trkpt lat="42.314151000" lon="-2.527485000">
        <ele>586.70</ele>
        <time>2014-11-01T08:50:30Z</time>
      </trkpt>
      <trkpt lat="42.314120000" lon="-2.527489000">
        <ele>586.60</ele>
        <time>2014-11-01T08:50:31Z</time>
      </trkpt>
      <trkpt lat="42.314094000" lon="-2.527486000">
        <ele>586.50</ele>
        <time>2014-11-01T08:50:32Z</time>
      </trkpt>
      <trkpt lat="42.314058000" lon="-2.527476000">
        <ele>586.40</ele>
        <time>2014-11-01T08:50:33Z</time>
      </trkpt>
      <trkpt lat="42.314022000" lon="-2.527453000">
        <ele>586.40</ele>
        <time>2014-11-01T08:50:34Z</time>
      </trkpt>
      <trkpt lat="42.314001000" lon="-2.527420000">
        <ele>586.30</ele>
        <time>2014-11-01T08:50:35Z</time>
      </trkpt>
      <trkpt lat="42.313982000" lon="-2.527389000">
        <ele>586.30</ele>
        <time>2014-11-01T08:50:36Z</time>
      </trkpt>
      <trkpt lat="42.313962000" lon="-2.527357000">
        <ele>586.20</ele>
        <time>2014-11-01T08:50:37Z</time>
      </trkpt>
      <trkpt lat="42.313945000" lon="-2.527325000">
        <ele>585.80</ele>
        <time>2014-11-01T08:50:38Z</time>
      </trkpt>
      <trkpt lat="42.313932000" lon="-2.527293000">
        <ele>585.50</ele>
        <time>2014-11-01T08:50:39Z</time>
      </trkpt>
      <trkpt lat="42.313923000" lon="-2.527263000">
        <ele>585.30</ele>
        <time>2014-11-01T08:50:40Z</time>
      </trkpt>
      <trkpt lat="42.313920000" lon="-2.527231000">
        <ele>585.10</ele>
        <time>2014-11-01T08:50:41Z</time>
      </trkpt>
      <trkpt lat="42.313917000" lon="-2.527210000">
        <ele>585.40</ele>
        <time>2014-11-01T08:50:42Z</time>
      </trkpt>
      <trkpt lat="42.313913000" lon="-2.527193000">
        <ele>585.60</ele>
        <time>2014-11-01T08:50:43Z</time>
      </trkpt>
      <trkpt lat="42.313910000" lon="-2.527173000">
        <ele>585.90</ele>
        <time>2014-11-01T08:50:44Z</time>
      </trkpt>
      <trkpt lat="42.313908000" lon="-2.527150000">
        <ele>586.10</ele>
        <time>2014-11-01T08:50:45Z</time>
      </trkpt>
      <trkpt lat="42.313901000" lon="-2.527129000">
        <ele>586.40</ele>
        <time>2014-11-01T08:50:46Z</time>
      </trkpt>
      <trkpt lat="42.313895000" lon="-2.527102000">
        <ele>586.60</ele>
        <time>2014-11-01T08:50:47Z</time>
      </trkpt>
      <trkpt lat="42.313888000" lon="-2.527074000">
        <ele>586.80</ele>
        <time>2014-11-01T08:50:48Z</time>
      </trkpt>
      <trkpt lat="42.313880000" lon="-2.527044000">
        <ele>586.90</ele>
        <time>2014-11-01T08:50:49Z</time>
      </trkpt>
      <trkpt lat="42.313870000" lon="-2.527021000">
        <ele>587.10</ele>
        <time>2014-11-01T08:50:50Z</time>
      </trkpt>
      <trkpt lat="42.313851000" lon="-2.527012000">
        <ele>587.20</ele>
        <time>2014-11-01T08:50:51Z</time>
      </trkpt>
      <trkpt lat="42.313833000" lon="-2.527011000">
        <ele>587.70</ele>
        <time>2014-11-01T08:50:52Z</time>
      </trkpt>
      <trkpt lat="42.313815000" lon="-2.527013000">
        <ele>588.00</ele>
        <time>2014-11-01T08:50:53Z</time>
      </trkpt>
      <trkpt lat="42.313799000" lon="-2.527018000">
        <ele>588.20</ele>
        <time>2014-11-01T08:50:54Z</time>
      </trkpt>
      <trkpt lat="42.313780000" lon="-2.527027000">
        <ele>588.40</ele>
        <time>2014-11-01T08:50:55Z</time>
      </trkpt>
      <trkpt lat="42.313765000" lon="-2.527034000">
        <ele>588.70</ele>
        <time>2014-11-01T08:50:56Z</time>
      </trkpt>
      <trkpt lat="42.313754000" lon="-2.527043000">
        <ele>589.00</ele>
        <time>2014-11-01T08:50:57Z</time>
      </trkpt>
      <trkpt lat="42.313743000" lon="-2.527052000">
        <ele>589.30</ele>
        <time>2014-11-01T08:50:58Z</time>
      </trkpt>
      <trkpt lat="42.313731000" lon="-2.527059000">
        <ele>589.40</ele>
        <time>2014-11-01T08:50:59Z</time>
      </trkpt>
      <trkpt lat="42.313718000" lon="-2.527062000">
        <ele>589.50</ele>
        <time>2014-11-01T08:51:00Z</time>
      </trkpt>
      <trkpt lat="42.313703000" lon="-2.527067000">
        <ele>589.50</ele>
        <time>2014-11-01T08:51:01Z</time>
      </trkpt>
      <trkpt lat="42.313689000" lon="-2.527064000">
        <ele>589.20</ele>
        <time>2014-11-01T08:51:02Z</time>
      </trkpt>
      <trkpt lat="42.313676000" lon="-2.527063000">
        <ele>589.00</ele>
        <time>2014-11-01T08:51:03Z</time>
      </trkpt>
      <trkpt lat="42.313667000" lon="-2.527055000">
        <ele>589.20</ele>
        <time>2014-11-01T08:51:04Z</time>
      </trkpt>
      <trkpt lat="42.313657000" lon="-2.527049000">
        <ele>589.30</ele>
        <time>2014-11-01T08:51:05Z</time>
      </trkpt>
      <trkpt lat="42.313645000" lon="-2.527046000">
        <ele>589.60</ele>
        <time>2014-11-01T08:51:06Z</time>
      </trkpt>
      <trkpt lat="42.313632000" lon="-2.527045000">
        <ele>589.80</ele>
        <time>2014-11-01T08:51:07Z</time>
      </trkpt>
      <trkpt lat="42.313621000" lon="-2.527048000">
        <ele>590.00</ele>
        <time>2014-11-01T08:51:08Z</time>
      </trkpt>
      <trkpt lat="42.313611000" lon="-2.527049000">
        <ele>590.10</ele>
        <time>2014-11-01T08:51:09Z</time>
      </trkpt>
      <trkpt lat="42.313598000" lon="-2.527050000">
        <ele>590.20</ele>
        <time>2014-11-01T08:51:10Z</time>
      </trkpt>
      <trkpt lat="42.313586000" lon="-2.527050000">
        <ele>590.20</ele>
        <time>2014-11-01T08:51:11Z</time>
      </trkpt>
      <trkpt lat="42.313574000" lon="-2.527046000">
        <ele>590.20</ele>
        <time>2014-11-01T08:51:12Z</time>
      </trkpt>
      <trkpt lat="42.313562000" lon="-2.527043000">
        <ele>590.20</ele>
        <time>2014-11-01T08:51:13Z</time>
      </trkpt>
      <trkpt lat="42.313536000" lon="-2.527039000">
        <ele>590.20</ele>
        <time>2014-11-01T08:51:15Z</time>
      </trkpt>
      <trkpt lat="42.313522000" lon="-2.527040000">
        <ele>590.20</ele>
        <time>2014-11-01T08:51:16Z</time>
      </trkpt>
      <trkpt lat="42.313511000" lon="-2.527037000">
        <ele>590.20</ele>
        <time>2014-11-01T08:51:17Z</time>
      </trkpt>
      <trkpt lat="42.313498000" lon="-2.527037000">
        <ele>590.30</ele>
        <time>2014-11-01T08:51:18Z</time>
      </trkpt>
      <trkpt lat="42.313485000" lon="-2.527033000">
        <ele>590.30</ele>
        <time>2014-11-01T08:51:19Z</time>
      </trkpt>
      <trkpt lat="42.313476000" lon="-2.527034000">
        <ele>590.40</ele>
        <time>2014-11-01T08:51:20Z</time>
      </trkpt>
      <trkpt lat="42.313463000" lon="-2.527036000">
        <ele>590.40</ele>
        <time>2014-11-01T08:51:21Z</time>
      </trkpt>
      <trkpt lat="42.313451000" lon="-2.527040000">
        <ele>590.50</ele>
        <time>2014-11-01T08:51:22Z</time>
      </trkpt>
      <trkpt lat="42.313434000" lon="-2.527043000">
        <ele>590.60</ele>
        <time>2014-11-01T08:51:23Z</time>
      </trkpt>
      <trkpt lat="42.313419000" lon="-2.527044000">
        <ele>590.60</ele>
        <time>2014-11-01T08:51:24Z</time>
      </trkpt>
      <trkpt lat="42.313404000" lon="-2.527042000">
        <ele>590.70</ele>
        <time>2014-11-01T08:51:25Z</time>
      </trkpt>
      <trkpt lat="42.313386000" lon="-2.527039000">
        <ele>590.70</ele>
        <time>2014-11-01T08:51:26Z</time>
      </trkpt>
      <trkpt lat="42.313373000" lon="-2.527040000">
        <ele>590.70</ele>
        <time>2014-11-01T08:51:27Z</time>
      </trkpt>
      <trkpt lat="42.313360000" lon="-2.527043000">
        <ele>590.70</ele>
        <time>2014-11-01T08:51:28Z</time>
      </trkpt>
      <trkpt lat="42.313345000" lon="-2.527045000">
        <ele>590.80</ele>
        <time>2014-11-01T08:51:29Z</time>
      </trkpt>
      <trkpt lat="42.313328000" lon="-2.527049000">
        <ele>591.00</ele>
        <time>2014-11-01T08:51:30Z</time>
      </trkpt>
      <trkpt lat="42.313310000" lon="-2.527053000">
        <ele>591.10</ele>
        <time>2014-11-01T08:51:31Z</time>
      </trkpt>
      <trkpt lat="42.313288000" lon="-2.527056000">
        <ele>591.40</ele>
        <time>2014-11-01T08:51:32Z</time>
      </trkpt>
      <trkpt lat="42.313268000" lon="-2.527062000">
        <ele>591.50</ele>
        <time>2014-11-01T08:51:33Z</time>
      </trkpt>
      <trkpt lat="42.313247000" lon="-2.527071000">
        <ele>591.90</ele>
        <time>2014-11-01T08:51:34Z</time>
      </trkpt>
      <trkpt lat="42.313230000" lon="-2.527083000">
        <ele>592.10</ele>
        <time>2014-11-01T08:51:35Z</time>
      </trkpt>
      <trkpt lat="42.313215000" lon="-2.527089000">
        <ele>592.40</ele>
        <time>2014-11-01T08:51:36Z</time>
      </trkpt>
      <trkpt lat="42.313192000" lon="-2.527096000">
        <ele>592.60</ele>
        <time>2014-11-01T08:51:37Z</time>
      </trkpt>
      <trkpt lat="42.313174000" lon="-2.527102000">
        <ele>592.80</ele>
        <time>2014-11-01T08:51:38Z</time>
      </trkpt>
      <trkpt lat="42.313157000" lon="-2.527113000">
        <ele>592.90</ele>
        <time>2014-11-01T08:51:39Z</time>
      </trkpt>
      <trkpt lat="42.313139000" lon="-2.527121000">
        <ele>593.10</ele>
        <time>2014-11-01T08:51:40Z</time>
      </trkpt>
      <trkpt lat="42.313121000" lon="-2.527128000">
        <ele>593.10</ele>
        <time>2014-11-01T08:51:41Z</time>
      </trkpt>
      <trkpt lat="42.313105000" lon="-2.527132000">
        <ele>593.20</ele>
        <time>2014-11-01T08:51:42Z</time>
      </trkpt>
      <trkpt lat="42.313091000" lon="-2.527136000">
        <ele>593.30</ele>
        <time>2014-11-01T08:51:43Z</time>
      </trkpt>
      <trkpt lat="42.313079000" lon="-2.527140000">
        <ele>593.30</ele>
        <time>2014-11-01T08:51:44Z</time>
      </trkpt>
      <trkpt lat="42.313065000" lon="-2.527146000">
        <ele>593.30</ele>
        <time>2014-11-01T08:51:45Z</time>
      </trkpt>
      <trkpt lat="42.313054000" lon="-2.527153000">
        <ele>593.70</ele>
        <time>2014-11-01T08:51:46Z</time>
      </trkpt>
      <trkpt lat="42.313039000" lon="-2.527160000">
        <ele>593.90</ele>
        <time>2014-11-01T08:51:47Z</time>
      </trkpt>
      <trkpt lat="42.313028000" lon="-2.527166000">
        <ele>594.20</ele>
        <time>2014-11-01T08:51:48Z</time>
      </trkpt>
      <trkpt lat="42.313018000" lon="-2.527171000">
        <ele>594.40</ele>
        <time>2014-11-01T08:51:49Z</time>
      </trkpt>
      <trkpt lat="42.313005000" lon="-2.527176000">
        <ele>594.70</ele>
        <time>2014-11-01T08:51:50Z</time>
      </trkpt>
      <trkpt lat="42.312993000" lon="-2.527180000">
        <ele>594.90</ele>
        <time>2014-11-01T08:51:51Z</time>
      </trkpt>
      <trkpt lat="42.312979000" lon="-2.527185000">
        <ele>595.00</ele>
        <time>2014-11-01T08:51:52Z</time>
      </trkpt>
      <trkpt lat="42.312966000" lon="-2.527187000">
        <ele>595.20</ele>
        <time>2014-11-01T08:51:53Z</time>
      </trkpt>
      <trkpt lat="42.312951000" lon="-2.527187000">
        <ele>595.20</ele>
        <time>2014-11-01T08:51:54Z</time>
      </trkpt>
      <trkpt lat="42.312934000" lon="-2.527187000">
        <ele>595.20</ele>
        <time>2014-11-01T08:51:55Z</time>
      </trkpt>
      <trkpt lat="42.312918000" lon="-2.527188000">
        <ele>595.20</ele>
        <time>2014-11-01T08:51:56Z</time>
      </trkpt>
      <trkpt lat="42.312902000" lon="-2.527191000">
        <ele>595.20</ele>
        <time>2014-11-01T08:51:57Z</time>
      </trkpt>
      <trkpt lat="42.312885000" lon="-2.527194000">
        <ele>595.50</ele>
        <time>2014-11-01T08:51:58Z</time>
      </trkpt>
      <trkpt lat="42.312867000" lon="-2.527193000">
        <ele>595.80</ele>
        <time>2014-11-01T08:51:59Z</time>
      </trkpt>
      <trkpt lat="42.312852000" lon="-2.527199000">
        <ele>596.00</ele>
        <time>2014-11-01T08:52:00Z</time>
      </trkpt>
      <trkpt lat="42.312835000" lon="-2.527200000">
        <ele>596.10</ele>
        <time>2014-11-01T08:52:01Z</time>
      </trkpt>
      <trkpt lat="42.312817000" lon="-2.527205000">
        <ele>596.20</ele>
        <time>2014-11-01T08:52:02Z</time>
      </trkpt>
      <trkpt lat="42.312800000" lon="-2.527208000">
        <ele>596.30</ele>
        <time>2014-11-01T08:52:03Z</time>
      </trkpt>
      <trkpt lat="42.312781000" lon="-2.527211000">
        <ele>596.40</ele>
        <time>2014-11-01T08:52:04Z</time>
      </trkpt>
      <trkpt lat="42.312763000" lon="-2.527215000">
        <ele>596.50</ele>
        <time>2014-11-01T08:52:05Z</time>
      </trkpt>
      <trkpt lat="42.312747000" lon="-2.527217000">
        <ele>596.60</ele>
        <time>2014-11-01T08:52:06Z</time>
      </trkpt>
      <trkpt lat="42.312732000" lon="-2.527220000">
        <ele>596.60</ele>
        <time>2014-11-01T08:52:07Z</time>
      </trkpt>
      <trkpt lat="42.312715000" lon="-2.527221000">
        <ele>596.70</ele>
        <time>2014-11-01T08:52:08Z</time>
      </trkpt>
      <trkpt lat="42.312697000" lon="-2.527226000">
        <ele>596.80</ele>
        <time>2014-11-01T08:52:09Z</time>
      </trkpt>
      <trkpt lat="42.312680000" lon="-2.527228000">
        <ele>596.90</ele>
        <time>2014-11-01T08:52:10Z</time>
      </trkpt>
      <trkpt lat="42.312663000" lon="-2.527230000">
        <ele>597.00</ele>
        <time>2014-11-01T08:52:11Z</time>
      </trkpt>
      <trkpt lat="42.312647000" lon="-2.527232000">
        <ele>597.20</ele>
        <time>2014-11-01T08:52:12Z</time>
      </trkpt>
      <trkpt lat="42.312628000" lon="-2.527233000">
        <ele>597.30</ele>
        <time>2014-11-01T08:52:13Z</time>
      </trkpt>
      <trkpt lat="42.312609000" lon="-2.527235000">
        <ele>597.50</ele>
        <time>2014-11-01T08:52:14Z</time>
      </trkpt>
      <trkpt lat="42.312575000" lon="-2.527245000">
        <ele>597.80</ele>
        <time>2014-11-01T08:52:16Z</time>
      </trkpt>
      <trkpt lat="42.312559000" lon="-2.527251000">
        <ele>597.90</ele>
        <time>2014-11-01T08:52:17Z</time>
      </trkpt>
      <trkpt lat="42.312540000" lon="-2.527253000">
        <ele>598.00</ele>
        <time>2014-11-01T08:52:18Z</time>
      </trkpt>
      <trkpt lat="42.312523000" lon="-2.527257000">
        <ele>598.10</ele>
        <time>2014-11-01T08:52:19Z</time>
      </trkpt>
      <trkpt lat="42.312511000" lon="-2.527258000">
        <ele>598.50</ele>
        <time>2014-11-01T08:52:20Z</time>
      </trkpt>
      <trkpt lat="42.312496000" lon="-2.527260000">
        <ele>598.80</ele>
        <time>2014-11-01T08:52:21Z</time>
      </trkpt>
      <trkpt lat="42.312483000" lon="-2.527258000">
        <ele>599.10</ele>
        <time>2014-11-01T08:52:22Z</time>
      </trkpt>
      <trkpt lat="42.312468000" lon="-2.527260000">
        <ele>599.30</ele>
        <time>2014-11-01T08:52:23Z</time>
      </trkpt>
      <trkpt lat="42.312455000" lon="-2.527267000">
        <ele>599.50</ele>
        <time>2014-11-01T08:52:24Z</time>
      </trkpt>
      <trkpt lat="42.312439000" lon="-2.527266000">
        <ele>599.60</ele>
        <time>2014-11-01T08:52:25Z</time>
      </trkpt>
      <trkpt lat="42.312426000" lon="-2.527270000">
        <ele>599.70</ele>
        <time>2014-11-01T08:52:26Z</time>
      </trkpt>
      <trkpt lat="42.312412000" lon="-2.527270000">
        <ele>599.80</ele>
        <time>2014-11-01T08:52:27Z</time>
      </trkpt>
      <trkpt lat="42.312400000" lon="-2.527279000">
        <ele>599.90</ele>
        <time>2014-11-01T08:52:28Z</time>
      </trkpt>
      <trkpt lat="42.312386000" lon="-2.527283000">
        <ele>600.00</ele>
        <time>2014-11-01T08:52:29Z</time>
      </trkpt>
      <trkpt lat="42.312372000" lon="-2.527288000">
        <ele>600.20</ele>
        <time>2014-11-01T08:52:30Z</time>
      </trkpt>
      <trkpt lat="42.312359000" lon="-2.527293000">
        <ele>600.40</ele>
        <time>2014-11-01T08:52:31Z</time>
      </trkpt>
      <trkpt lat="42.312345000" lon="-2.527296000">
        <ele>600.50</ele>
        <time>2014-11-01T08:52:32Z</time>
      </trkpt>
      <trkpt lat="42.312333000" lon="-2.527293000">
        <ele>600.60</ele>
        <time>2014-11-01T08:52:33Z</time>
      </trkpt>
      <trkpt lat="42.312322000" lon="-2.527291000">
        <ele>600.60</ele>
        <time>2014-11-01T08:52:34Z</time>
      </trkpt>
      <trkpt lat="42.312308000" lon="-2.527293000">
        <ele>600.70</ele>
        <time>2014-11-01T08:52:35Z</time>
      </trkpt>
      <trkpt lat="42.312295000" lon="-2.527294000">
        <ele>600.90</ele>
        <time>2014-11-01T08:52:36Z</time>
      </trkpt>
      <trkpt lat="42.312284000" lon="-2.527295000">
        <ele>601.00</ele>
        <time>2014-11-01T08:52:37Z</time>
      </trkpt>
      <trkpt lat="42.312271000" lon="-2.527297000">
        <ele>601.30</ele>
        <time>2014-11-01T08:52:38Z</time>
      </trkpt>
      <trkpt lat="42.312259000" lon="-2.527296000">
        <ele>601.60</ele>
        <time>2014-11-01T08:52:39Z</time>
      </trkpt>
      <trkpt lat="42.312247000" lon="-2.527300000">
        <ele>601.80</ele>
        <time>2014-11-01T08:52:40Z</time>
      </trkpt>
      <trkpt lat="42.312232000" lon="-2.527305000">
        <ele>601.90</ele>
        <time>2014-11-01T08:52:41Z</time>
      </trkpt>
      <trkpt lat="42.312218000" lon="-2.527308000">
        <ele>602.10</ele>
        <time>2014-11-01T08:52:42Z</time>
      </trkpt>
      <trkpt lat="42.312203000" lon="-2.527312000">
        <ele>602.30</ele>
        <time>2014-11-01T08:52:43Z</time>
      </trkpt>
      <trkpt lat="42.312188000" lon="-2.527316000">
        <ele>602.30</ele>
        <time>2014-11-01T08:52:44Z</time>
      </trkpt>
      <trkpt lat="42.312172000" lon="-2.527319000">
        <ele>602.30</ele>
        <time>2014-11-01T08:52:45Z</time>
      </trkpt>
      <trkpt lat="42.312157000" lon="-2.527318000">
        <ele>602.40</ele>
        <time>2014-11-01T08:52:46Z</time>
      </trkpt>
      <trkpt lat="42.312142000" lon="-2.527315000">
        <ele>602.50</ele>
        <time>2014-11-01T08:52:47Z</time>
      </trkpt>
      <trkpt lat="42.312129000" lon="-2.527315000">
        <ele>602.70</ele>
        <time>2014-11-01T08:52:48Z</time>
      </trkpt>
      <trkpt lat="42.312113000" lon="-2.527313000">
        <ele>602.90</ele>
        <time>2014-11-01T08:52:49Z</time>
      </trkpt>
      <trkpt lat="42.312098000" lon="-2.527313000">
        <ele>603.10</ele>
        <time>2014-11-01T08:52:50Z</time>
      </trkpt>
      <trkpt lat="42.312083000" lon="-2.527311000">
        <ele>603.20</ele>
        <time>2014-11-01T08:52:51Z</time>
      </trkpt>
      <trkpt lat="42.312069000" lon="-2.527307000">
        <ele>603.30</ele>
        <time>2014-11-01T08:52:52Z</time>
      </trkpt>
      <trkpt lat="42.312054000" lon="-2.527302000">
        <ele>603.40</ele>
        <time>2014-11-01T08:52:53Z</time>
      </trkpt>
      <trkpt lat="42.312041000" lon="-2.527302000">
        <ele>603.70</ele>
        <time>2014-11-01T08:52:54Z</time>
      </trkpt>
      <trkpt lat="42.312025000" lon="-2.527300000">
        <ele>604.00</ele>
        <time>2014-11-01T08:52:55Z</time>
      </trkpt>
      <trkpt lat="42.312012000" lon="-2.527299000">
        <ele>604.20</ele>
        <time>2014-11-01T08:52:56Z</time>
      </trkpt>
      <trkpt lat="42.311998000" lon="-2.527296000">
        <ele>604.40</ele>
        <time>2014-11-01T08:52:57Z</time>
      </trkpt>
      <trkpt lat="42.311984000" lon="-2.527297000">
        <ele>604.60</ele>
        <time>2014-11-01T08:52:58Z</time>
      </trkpt>
      <trkpt lat="42.311971000" lon="-2.527299000">
        <ele>604.70</ele>
        <time>2014-11-01T08:52:59Z</time>
      </trkpt>
      <trkpt lat="42.311956000" lon="-2.527300000">
        <ele>604.90</ele>
        <time>2014-11-01T08:53:00Z</time>
      </trkpt>
      <trkpt lat="42.311941000" lon="-2.527303000">
        <ele>604.90</ele>
        <time>2014-11-01T08:53:01Z</time>
      </trkpt>
      <trkpt lat="42.311926000" lon="-2.527305000">
        <ele>605.20</ele>
        <time>2014-11-01T08:53:02Z</time>
      </trkpt>
      <trkpt lat="42.311911000" lon="-2.527305000">
        <ele>605.40</ele>
        <time>2014-11-01T08:53:03Z</time>
      </trkpt>
      <trkpt lat="42.311897000" lon="-2.527307000">
        <ele>605.60</ele>
        <time>2014-11-01T08:53:04Z</time>
      </trkpt>
      <trkpt lat="42.311884000" lon="-2.527309000">
        <ele>605.70</ele>
        <time>2014-11-01T08:53:05Z</time>
      </trkpt>
      <trkpt lat="42.311869000" lon="-2.527309000">
        <ele>605.90</ele>
        <time>2014-11-01T08:53:06Z</time>
      </trkpt>
      <trkpt lat="42.311854000" lon="-2.527309000">
        <ele>606.00</ele>
        <time>2014-11-01T08:53:07Z</time>
      </trkpt>
      <trkpt lat="42.311839000" lon="-2.527310000">
        <ele>606.20</ele>
        <time>2014-11-01T08:53:08Z</time>
      </trkpt>
      <trkpt lat="42.311825000" lon="-2.527311000">
        <ele>606.40</ele>
        <time>2014-11-01T08:53:09Z</time>
      </trkpt>
      <trkpt lat="42.311812000" lon="-2.527314000">
        <ele>606.50</ele>
        <time>2014-11-01T08:53:10Z</time>
      </trkpt>
      <trkpt lat="42.311798000" lon="-2.527322000">
        <ele>606.50</ele>
        <time>2014-11-01T08:53:11Z</time>
      </trkpt>
      <trkpt lat="42.311784000" lon="-2.527326000">
        <ele>606.50</ele>
        <time>2014-11-01T08:53:12Z</time>
      </trkpt>
      <trkpt lat="42.311771000" lon="-2.527329000">
        <ele>606.40</ele>
        <time>2014-11-01T08:53:13Z</time>
      </trkpt>
      <trkpt lat="42.311759000" lon="-2.527336000">
        <ele>606.40</ele>
        <time>2014-11-01T08:53:14Z</time>
      </trkpt>
      <trkpt lat="42.311746000" lon="-2.527345000">
        <ele>606.30</ele>
        <time>2014-11-01T08:53:15Z</time>
      </trkpt>
      <trkpt lat="42.311721000" lon="-2.527359000">
        <ele>606.30</ele>
        <time>2014-11-01T08:53:17Z</time>
      </trkpt>
      <trkpt lat="42.311709000" lon="-2.527368000">
        <ele>606.70</ele>
        <time>2014-11-01T08:53:18Z</time>
      </trkpt>
      <trkpt lat="42.311696000" lon="-2.527376000">
        <ele>606.90</ele>
        <time>2014-11-01T08:53:19Z</time>
      </trkpt>
      <trkpt lat="42.311684000" lon="-2.527386000">
        <ele>607.00</ele>
        <time>2014-11-01T08:53:20Z</time>
      </trkpt>
      <trkpt lat="42.311673000" lon="-2.527394000">
        <ele>607.10</ele>
        <time>2014-11-01T08:53:21Z</time>
      </trkpt>
      <trkpt lat="42.311660000" lon="-2.527407000">
        <ele>607.20</ele>
        <time>2014-11-01T08:53:22Z</time>
      </trkpt>
      <trkpt lat="42.311650000" lon="-2.527418000">
        <ele>607.20</ele>
        <time>2014-11-01T08:53:23Z</time>
      </trkpt>
      <trkpt lat="42.311635000" lon="-2.527425000">
        <ele>607.30</ele>
        <time>2014-11-01T08:53:24Z</time>
      </trkpt>
      <trkpt lat="42.311622000" lon="-2.527431000">
        <ele>607.30</ele>
        <time>2014-11-01T08:53:25Z</time>
      </trkpt>
      <trkpt lat="42.311608000" lon="-2.527433000">
        <ele>607.50</ele>
        <time>2014-11-01T08:53:26Z</time>
      </trkpt>
      <trkpt lat="42.311596000" lon="-2.527439000">
        <ele>607.60</ele>
        <time>2014-11-01T08:53:27Z</time>
      </trkpt>
      <trkpt lat="42.311580000" lon="-2.527443000">
        <ele>607.70</ele>
        <time>2014-11-01T08:53:28Z</time>
      </trkpt>
      <trkpt lat="42.311560000" lon="-2.527446000">
        <ele>607.80</ele>
        <time>2014-11-01T08:53:29Z</time>
      </trkpt>
      <trkpt lat="42.311542000" lon="-2.527449000">
        <ele>607.80</ele>
        <time>2014-11-01T08:53:30Z</time>
      </trkpt>
      <trkpt lat="42.311528000" lon="-2.527448000">
        <ele>607.90</ele>
        <time>2014-11-01T08:53:31Z</time>
      </trkpt>
      <trkpt lat="42.311513000" lon="-2.527449000">
        <ele>608.30</ele>
        <time>2014-11-01T08:53:32Z</time>
      </trkpt>
      <trkpt lat="42.311501000" lon="-2.527446000">
        <ele>608.60</ele>
        <time>2014-11-01T08:53:33Z</time>
      </trkpt>
      <trkpt lat="42.311487000" lon="-2.527451000">
        <ele>608.80</ele>
        <time>2014-11-01T08:53:34Z</time>
      </trkpt>
      <trkpt lat="42.311474000" lon="-2.527456000">
        <ele>609.00</ele>
        <time>2014-11-01T08:53:35Z</time>
      </trkpt>
      <trkpt lat="42.311461000" lon="-2.527458000">
        <ele>609.40</ele>
        <time>2014-11-01T08:53:36Z</time>
      </trkpt>
      <trkpt lat="42.311446000" lon="-2.527456000">
        <ele>609.60</ele>
        <time>2014-11-01T08:53:37Z</time>
      </trkpt>
      <trkpt lat="42.311429000" lon="-2.527442000">
        <ele>610.00</ele>
        <time>2014-11-01T08:53:38Z</time>
      </trkpt>
      <trkpt lat="42.311409000" lon="-2.527429000">
        <ele>610.40</ele>
        <time>2014-11-01T08:53:39Z</time>
      </trkpt>
      <trkpt lat="42.311388000" lon="-2.527425000">
        <ele>610.60</ele>
        <time>2014-11-01T08:53:40Z</time>
      </trkpt>
      <trkpt lat="42.311368000" lon="-2.527425000">
        <ele>610.80</ele>
        <time>2014-11-01T08:53:41Z</time>
      </trkpt>
      <trkpt lat="42.311349000" lon="-2.527433000">
        <ele>610.90</ele>
        <time>2014-11-01T08:53:42Z</time>
      </trkpt>
      <trkpt lat="42.311333000" lon="-2.527436000">
        <ele>611.00</ele>
        <time>2014-11-01T08:53:43Z</time>
      </trkpt>
      <trkpt lat="42.311316000" lon="-2.527435000">
        <ele>611.10</ele>
        <time>2014-11-01T08:53:44Z</time>
      </trkpt>
      <trkpt lat="42.311302000" lon="-2.527441000">
        <ele>611.30</ele>
        <time>2014-11-01T08:53:45Z</time>
      </trkpt>
      <trkpt lat="42.311290000" lon="-2.527447000">
        <ele>611.50</ele>
        <time>2014-11-01T08:53:46Z</time>
      </trkpt>
      <trkpt lat="42.311275000" lon="-2.527457000">
        <ele>611.60</ele>
        <time>2014-11-01T08:53:47Z</time>
      </trkpt>
      <trkpt lat="42.311263000" lon="-2.527467000">
        <ele>611.80</ele>
        <time>2014-11-01T08:53:48Z</time>
      </trkpt>
      <trkpt lat="42.311250000" lon="-2.527478000">
        <ele>611.90</ele>
        <time>2014-11-01T08:53:49Z</time>
      </trkpt>
      <trkpt lat="42.311238000" lon="-2.527493000">
        <ele>612.30</ele>
        <time>2014-11-01T08:53:50Z</time>
      </trkpt>
      <trkpt lat="42.311222000" lon="-2.527505000">
        <ele>612.60</ele>
        <time>2014-11-01T08:53:51Z</time>
      </trkpt>
      <trkpt lat="42.311211000" lon="-2.527520000">
        <ele>612.80</ele>
        <time>2014-11-01T08:53:52Z</time>
      </trkpt>
      <trkpt lat="42.311197000" lon="-2.527530000">
        <ele>612.90</ele>
        <time>2014-11-01T08:53:53Z</time>
      </trkpt>
      <trkpt lat="42.311185000" lon="-2.527542000">
        <ele>613.10</ele>
        <time>2014-11-01T08:53:54Z</time>
      </trkpt>
      <trkpt lat="42.311177000" lon="-2.527555000">
        <ele>613.10</ele>
        <time>2014-11-01T08:53:55Z</time>
      </trkpt>
      <trkpt lat="42.311168000" lon="-2.527569000">
        <ele>613.20</ele>
        <time>2014-11-01T08:53:56Z</time>
      </trkpt>
      <trkpt lat="42.311160000" lon="-2.527581000">
        <ele>613.30</ele>
        <time>2014-11-01T08:53:57Z</time>
      </trkpt>
      <trkpt lat="42.311158000" lon="-2.527591000">
        <ele>613.60</ele>
        <time>2014-11-01T08:53:58Z</time>
      </trkpt>
      <trkpt lat="42.311147000" lon="-2.527604000">
        <ele>613.90</ele>
        <time>2014-11-01T08:53:59Z</time>
      </trkpt>
      <trkpt lat="42.311134000" lon="-2.527618000">
        <ele>614.20</ele>
        <time>2014-11-01T08:54:00Z</time>
      </trkpt>
      <trkpt lat="42.311122000" lon="-2.527630000">
        <ele>614.40</ele>
        <time>2014-11-01T08:54:01Z</time>
      </trkpt>
      <trkpt lat="42.311108000" lon="-2.527642000">
        <ele>614.50</ele>
        <time>2014-11-01T08:54:02Z</time>
      </trkpt>
      <trkpt lat="42.311093000" lon="-2.527651000">
        <ele>614.50</ele>
        <time>2014-11-01T08:54:03Z</time>
      </trkpt>
      <trkpt lat="42.311077000" lon="-2.527658000">
        <ele>614.60</ele>
        <time>2014-11-01T08:54:04Z</time>
      </trkpt>
      <trkpt lat="42.311061000" lon="-2.527667000">
        <ele>614.70</ele>
        <time>2014-11-01T08:54:05Z</time>
      </trkpt>
      <trkpt lat="42.311043000" lon="-2.527676000">
        <ele>614.80</ele>
        <time>2014-11-01T08:54:06Z</time>
      </trkpt>
      <trkpt lat="42.311026000" lon="-2.527684000">
        <ele>614.80</ele>
        <time>2014-11-01T08:54:07Z</time>
      </trkpt>
      <trkpt lat="42.311007000" lon="-2.527686000">
        <ele>615.10</ele>
        <time>2014-11-01T08:54:08Z</time>
      </trkpt>
      <trkpt lat="42.310991000" lon="-2.527691000">
        <ele>615.40</ele>
        <time>2014-11-01T08:54:09Z</time>
      </trkpt>
      <trkpt lat="42.310974000" lon="-2.527689000">
        <ele>615.50</ele>
        <time>2014-11-01T08:54:10Z</time>
      </trkpt>
      <trkpt lat="42.310956000" lon="-2.527687000">
        <ele>615.70</ele>
        <time>2014-11-01T08:54:11Z</time>
      </trkpt>
      <trkpt lat="42.310938000" lon="-2.527688000">
        <ele>615.80</ele>
        <time>2014-11-01T08:54:12Z</time>
      </trkpt>
      <trkpt lat="42.310924000" lon="-2.527693000">
        <ele>615.90</ele>
        <time>2014-11-01T08:54:13Z</time>
      </trkpt>
      <trkpt lat="42.310910000" lon="-2.527699000">
        <ele>616.30</ele>
        <time>2014-11-01T08:54:14Z</time>
      </trkpt>
      <trkpt lat="42.310895000" lon="-2.527704000">
        <ele>616.50</ele>
        <time>2014-11-01T08:54:15Z</time>
      </trkpt>
      <trkpt lat="42.310878000" lon="-2.527708000">
        <ele>616.70</ele>
        <time>2014-11-01T08:54:16Z</time>
      </trkpt>
      <trkpt lat="42.310848000" lon="-2.527717000">
        <ele>617.20</ele>
        <time>2014-11-01T08:54:18Z</time>
      </trkpt>
      <trkpt lat="42.310835000" lon="-2.527726000">
        <ele>617.40</ele>
        <time>2014-11-01T08:54:19Z</time>
      </trkpt>
      <trkpt lat="42.310822000" lon="-2.527736000">
        <ele>617.60</ele>
        <time>2014-11-01T08:54:20Z</time>
      </trkpt>
      <trkpt lat="42.310808000" lon="-2.527747000">
        <ele>617.80</ele>
        <time>2014-11-01T08:54:21Z</time>
      </trkpt>
      <trkpt lat="42.310795000" lon="-2.527755000">
        <ele>617.70</ele>
        <time>2014-11-01T08:54:22Z</time>
      </trkpt>
      <trkpt lat="42.310780000" lon="-2.527767000">
        <ele>617.60</ele>
        <time>2014-11-01T08:54:23Z</time>
      </trkpt>
      <trkpt lat="42.310766000" lon="-2.527779000">
        <ele>617.60</ele>
        <time>2014-11-01T08:54:24Z</time>
      </trkpt>
      <trkpt lat="42.310751000" lon="-2.527790000">
        <ele>617.50</ele>
        <time>2014-11-01T08:54:25Z</time>
      </trkpt>
      <trkpt lat="42.310735000" lon="-2.527802000">
        <ele>617.60</ele>
        <time>2014-11-01T08:54:26Z</time>
      </trkpt>
      <trkpt lat="42.310721000" lon="-2.527815000">
        <ele>617.60</ele>
        <time>2014-11-01T08:54:27Z</time>
      </trkpt>
      <trkpt lat="42.310708000" lon="-2.527827000">
        <ele>617.80</ele>
        <time>2014-11-01T08:54:28Z</time>
      </trkpt>
      <trkpt lat="42.310697000" lon="-2.527841000">
        <ele>617.90</ele>
        <time>2014-11-01T08:54:29Z</time>
      </trkpt>
      <trkpt lat="42.310682000" lon="-2.527847000">
        <ele>618.00</ele>
        <time>2014-11-01T08:54:30Z</time>
      </trkpt>
      <trkpt lat="42.310663000" lon="-2.527855000">
        <ele>618.10</ele>
        <time>2014-11-01T08:54:31Z</time>
      </trkpt>
      <trkpt lat="42.310646000" lon="-2.527855000">
        <ele>618.30</ele>
        <time>2014-11-01T08:54:32Z</time>
      </trkpt>
      <trkpt lat="42.310626000" lon="-2.527854000">
        <ele>618.40</ele>
        <time>2014-11-01T08:54:33Z</time>
      </trkpt>
      <trkpt lat="42.310607000" lon="-2.527854000">
        <ele>618.50</ele>
        <time>2014-11-01T08:54:34Z</time>
      </trkpt>
      <trkpt lat="42.310585000" lon="-2.527857000">
        <ele>618.50</ele>
        <time>2014-11-01T08:54:35Z</time>
      </trkpt>
      <trkpt lat="42.310567000" lon="-2.527859000">
        <ele>618.90</ele>
        <time>2014-11-01T08:54:36Z</time>
      </trkpt>
      <trkpt lat="42.310549000" lon="-2.527865000">
        <ele>619.10</ele>
        <time>2014-11-01T08:54:37Z</time>
      </trkpt>
      <trkpt lat="42.310532000" lon="-2.527872000">
        <ele>619.30</ele>
        <time>2014-11-01T08:54:38Z</time>
      </trkpt>
      <trkpt lat="42.310514000" lon="-2.527879000">
        <ele>619.40</ele>
        <time>2014-11-01T08:54:39Z</time>
      </trkpt>
      <trkpt lat="42.310499000" lon="-2.527895000">
        <ele>619.50</ele>
        <time>2014-11-01T08:54:40Z</time>
      </trkpt>
      <trkpt lat="42.310482000" lon="-2.527911000">
        <ele>619.60</ele>
        <time>2014-11-01T08:54:41Z</time>
      </trkpt>
      <trkpt lat="42.310465000" lon="-2.527927000">
        <ele>619.70</ele>
        <time>2014-11-01T08:54:42Z</time>
      </trkpt>
      <trkpt lat="42.310448000" lon="-2.527947000">
        <ele>619.80</ele>
        <time>2014-11-01T08:54:43Z</time>
      </trkpt>
      <trkpt lat="42.310433000" lon="-2.527964000">
        <ele>619.80</ele>
        <time>2014-11-01T08:54:44Z</time>
      </trkpt>
      <trkpt lat="42.310414000" lon="-2.527980000">
        <ele>619.90</ele>
        <time>2014-11-01T08:54:45Z</time>
      </trkpt>
      <trkpt lat="42.310392000" lon="-2.527989000">
        <ele>620.30</ele>
        <time>2014-11-01T08:54:46Z</time>
      </trkpt>
      <trkpt lat="42.310375000" lon="-2.527995000">
        <ele>620.50</ele>
        <time>2014-11-01T08:54:47Z</time>
      </trkpt>
      <trkpt lat="42.310358000" lon="-2.527991000">
        <ele>620.70</ele>
        <time>2014-11-01T08:54:48Z</time>
      </trkpt>
      <trkpt lat="42.310344000" lon="-2.527992000">
        <ele>620.90</ele>
        <time>2014-11-01T08:54:49Z</time>
      </trkpt>
      <trkpt lat="42.310324000" lon="-2.527986000">
        <ele>621.00</ele>
        <time>2014-11-01T08:54:50Z</time>
      </trkpt>
      <trkpt lat="42.310306000" lon="-2.527986000">
        <ele>621.10</ele>
        <time>2014-11-01T08:54:51Z</time>
      </trkpt>
      <trkpt lat="42.310289000" lon="-2.527993000">
        <ele>621.20</ele>
        <time>2014-11-01T08:54:52Z</time>
      </trkpt>
      <trkpt lat="42.310272000" lon="-2.527997000">
        <ele>621.30</ele>
        <time>2014-11-01T08:54:53Z</time>
      </trkpt>
      <trkpt lat="42.310256000" lon="-2.528005000">
        <ele>621.50</ele>
        <time>2014-11-01T08:54:54Z</time>
      </trkpt>
      <trkpt lat="42.310240000" lon="-2.528014000">
        <ele>621.60</ele>
        <time>2014-11-01T08:54:55Z</time>
      </trkpt>
      <trkpt lat="42.310225000" lon="-2.528028000">
        <ele>621.80</ele>
        <time>2014-11-01T08:54:56Z</time>
      </trkpt>
      <trkpt lat="42.310210000" lon="-2.528041000">
        <ele>621.90</ele>
        <time>2014-11-01T08:54:57Z</time>
      </trkpt>
      <trkpt lat="42.310198000" lon="-2.528054000">
        <ele>622.20</ele>
        <time>2014-11-01T08:54:58Z</time>
      </trkpt>
      <trkpt lat="42.310188000" lon="-2.528068000">
        <ele>622.40</ele>
        <time>2014-11-01T08:54:59Z</time>
      </trkpt>
      <trkpt lat="42.310176000" lon="-2.528083000">
        <ele>622.50</ele>
        <time>2014-11-01T08:55:00Z</time>
      </trkpt>
      <trkpt lat="42.310165000" lon="-2.528097000">
        <ele>622.60</ele>
        <time>2014-11-01T08:55:01Z</time>
      </trkpt>
      <trkpt lat="42.310153000" lon="-2.528112000">
        <ele>622.70</ele>
        <time>2014-11-01T08:55:02Z</time>
      </trkpt>
      <trkpt lat="42.310142000" lon="-2.528129000">
        <ele>622.80</ele>
        <time>2014-11-01T08:55:03Z</time>
      </trkpt>
      <trkpt lat="42.310130000" lon="-2.528141000">
        <ele>622.80</ele>
        <time>2014-11-01T08:55:04Z</time>
      </trkpt>
      <trkpt lat="42.310121000" lon="-2.528158000">
        <ele>622.80</ele>
        <time>2014-11-01T08:55:05Z</time>
      </trkpt>
      <trkpt lat="42.310112000" lon="-2.528174000">
        <ele>622.90</ele>
        <time>2014-11-01T08:55:06Z</time>
      </trkpt>
      <trkpt lat="42.310100000" lon="-2.528192000">
        <ele>622.90</ele>
        <time>2014-11-01T08:55:07Z</time>
      </trkpt>
      <trkpt lat="42.310086000" lon="-2.528208000">
        <ele>622.90</ele>
        <time>2014-11-01T08:55:08Z</time>
      </trkpt>
      <trkpt lat="42.310072000" lon="-2.528224000">
        <ele>622.90</ele>
        <time>2014-11-01T08:55:09Z</time>
      </trkpt>
      <trkpt lat="42.310058000" lon="-2.528239000">
        <ele>623.20</ele>
        <time>2014-11-01T08:55:10Z</time>
      </trkpt>
      <trkpt lat="42.310043000" lon="-2.528255000">
        <ele>623.50</ele>
        <time>2014-11-01T08:55:11Z</time>
      </trkpt>
      <trkpt lat="42.310029000" lon="-2.528271000">
        <ele>623.70</ele>
        <time>2014-11-01T08:55:12Z</time>
      </trkpt>
      <trkpt lat="42.310014000" lon="-2.528289000">
        <ele>623.80</ele>
        <time>2014-11-01T08:55:13Z</time>
      </trkpt>
      <trkpt lat="42.310000000" lon="-2.528306000">
        <ele>624.00</ele>
        <time>2014-11-01T08:55:14Z</time>
      </trkpt>
      <trkpt lat="42.309985000" lon="-2.528322000">
        <ele>624.10</ele>
        <time>2014-11-01T08:55:15Z</time>
      </trkpt>
      <trkpt lat="42.309973000" lon="-2.528340000">
        <ele>624.30</ele>
        <time>2014-11-01T08:55:16Z</time>
      </trkpt>
      <trkpt lat="42.309958000" lon="-2.528354000">
        <ele>624.40</ele>
        <time>2014-11-01T08:55:17Z</time>
      </trkpt>
      <trkpt lat="42.309928000" lon="-2.528382000">
        <ele>624.70</ele>
        <time>2014-11-01T08:55:19Z</time>
      </trkpt>
      <trkpt lat="42.309911000" lon="-2.528399000">
        <ele>624.90</ele>
        <time>2014-11-01T08:55:20Z</time>
      </trkpt>
      <trkpt lat="42.309897000" lon="-2.528415000">
        <ele>625.10</ele>
        <time>2014-11-01T08:55:21Z</time>
      </trkpt>
      <trkpt lat="42.309882000" lon="-2.528428000">
        <ele>625.30</ele>
        <time>2014-11-01T08:55:22Z</time>
      </trkpt>
      <trkpt lat="42.309865000" lon="-2.528442000">
        <ele>625.50</ele>
        <time>2014-11-01T08:55:23Z</time>
      </trkpt>
      <trkpt lat="42.309847000" lon="-2.528453000">
        <ele>625.70</ele>
        <time>2014-11-01T08:55:24Z</time>
      </trkpt>
      <trkpt lat="42.309832000" lon="-2.528471000">
        <ele>625.90</ele>
        <time>2014-11-01T08:55:25Z</time>
      </trkpt>
      <trkpt lat="42.309817000" lon="-2.528487000">
        <ele>626.10</ele>
        <time>2014-11-01T08:55:26Z</time>
      </trkpt>
      <trkpt lat="42.309803000" lon="-2.528500000">
        <ele>626.20</ele>
        <time>2014-11-01T08:55:27Z</time>
      </trkpt>
      <trkpt lat="42.309789000" lon="-2.528515000">
        <ele>626.40</ele>
        <time>2014-11-01T08:55:28Z</time>
      </trkpt>
      <trkpt lat="42.309774000" lon="-2.528526000">
        <ele>626.50</ele>
        <time>2014-11-01T08:55:29Z</time>
      </trkpt>
      <trkpt lat="42.309758000" lon="-2.528544000">
        <ele>626.60</ele>
        <time>2014-11-01T08:55:30Z</time>
      </trkpt>
      <trkpt lat="42.309742000" lon="-2.528557000">
        <ele>626.70</ele>
        <time>2014-11-01T08:55:31Z</time>
      </trkpt>
      <trkpt lat="42.309728000" lon="-2.528570000">
        <ele>626.80</ele>
        <time>2014-11-01T08:55:32Z</time>
      </trkpt>
      <trkpt lat="42.309715000" lon="-2.528586000">
        <ele>626.90</ele>
        <time>2014-11-01T08:55:33Z</time>
      </trkpt>
      <trkpt lat="42.309700000" lon="-2.528598000">
        <ele>626.90</ele>
        <time>2014-11-01T08:55:34Z</time>
      </trkpt>
      <trkpt lat="42.309685000" lon="-2.528608000">
        <ele>626.90</ele>
        <time>2014-11-01T08:55:35Z</time>
      </trkpt>
      <trkpt lat="42.309669000" lon="-2.528621000">
        <ele>627.30</ele>
        <time>2014-11-01T08:55:36Z</time>
      </trkpt>
      <trkpt lat="42.309658000" lon="-2.528639000">
        <ele>627.70</ele>
        <time>2014-11-01T08:55:37Z</time>
      </trkpt>
      <trkpt lat="42.309643000" lon="-2.528654000">
        <ele>627.60</ele>
        <time>2014-11-01T08:55:38Z</time>
      </trkpt>
      <trkpt lat="42.309627000" lon="-2.528664000">
        <ele>627.60</ele>
        <time>2014-11-01T08:55:39Z</time>
      </trkpt>
      <trkpt lat="42.309613000" lon="-2.528679000">
        <ele>627.90</ele>
        <time>2014-11-01T08:55:40Z</time>
      </trkpt>
      <trkpt lat="42.309596000" lon="-2.528689000">
        <ele>628.10</ele>
        <time>2014-11-01T08:55:41Z</time>
      </trkpt>
      <trkpt lat="42.309580000" lon="-2.528701000">
        <ele>628.30</ele>
        <time>2014-11-01T08:55:42Z</time>
      </trkpt>
      <trkpt lat="42.309562000" lon="-2.528711000">
        <ele>628.50</ele>
        <time>2014-11-01T08:55:43Z</time>
      </trkpt>
      <trkpt lat="42.309545000" lon="-2.528719000">
        <ele>628.60</ele>
        <time>2014-11-01T08:55:44Z</time>
      </trkpt>
      <trkpt lat="42.309529000" lon="-2.528732000">
        <ele>628.70</ele>
        <time>2014-11-01T08:55:45Z</time>
      </trkpt>
      <trkpt lat="42.309514000" lon="-2.528746000">
        <ele>628.80</ele>
        <time>2014-11-01T08:55:46Z</time>
      </trkpt>
      <trkpt lat="42.309500000" lon="-2.528756000">
        <ele>628.80</ele>
        <time>2014-11-01T08:55:47Z</time>
      </trkpt>
      <trkpt lat="42.309485000" lon="-2.528769000">
        <ele>628.90</ele>
        <time>2014-11-01T08:55:48Z</time>
      </trkpt>
      <trkpt lat="42.309470000" lon="-2.528782000">
        <ele>628.90</ele>
        <time>2014-11-01T08:55:49Z</time>
      </trkpt>
      <trkpt lat="42.309456000" lon="-2.528794000">
        <ele>628.90</ele>
        <time>2014-11-01T08:55:50Z</time>
      </trkpt>
      <trkpt lat="42.309441000" lon="-2.528807000">
        <ele>628.90</ele>
        <time>2014-11-01T08:55:51Z</time>
      </trkpt>
      <trkpt lat="42.309427000" lon="-2.528817000">
        <ele>628.90</ele>
        <time>2014-11-01T08:55:52Z</time>
      </trkpt>
      <trkpt lat="42.309413000" lon="-2.528824000">
        <ele>629.00</ele>
        <time>2014-11-01T08:55:53Z</time>
      </trkpt>
      <trkpt lat="42.309399000" lon="-2.528834000">
        <ele>629.10</ele>
        <time>2014-11-01T08:55:54Z</time>
      </trkpt>
      <trkpt lat="42.309384000" lon="-2.528845000">
        <ele>629.20</ele>
        <time>2014-11-01T08:55:55Z</time>
      </trkpt>
      <trkpt lat="42.309372000" lon="-2.528853000">
        <ele>629.40</ele>
        <time>2014-11-01T08:55:56Z</time>
      </trkpt>
      <trkpt lat="42.309356000" lon="-2.528862000">
        <ele>629.60</ele>
        <time>2014-11-01T08:55:57Z</time>
      </trkpt>
      <trkpt lat="42.309343000" lon="-2.528870000">
        <ele>629.80</ele>
        <time>2014-11-01T08:55:58Z</time>
      </trkpt>
      <trkpt lat="42.309327000" lon="-2.528882000">
        <ele>629.90</ele>
        <time>2014-11-01T08:55:59Z</time>
      </trkpt>
      <trkpt lat="42.309313000" lon="-2.528894000">
        <ele>630.00</ele>
        <time>2014-11-01T08:56:00Z</time>
      </trkpt>
      <trkpt lat="42.309298000" lon="-2.528909000">
        <ele>630.00</ele>
        <time>2014-11-01T08:56:01Z</time>
      </trkpt>
      <trkpt lat="42.309281000" lon="-2.528918000">
        <ele>630.30</ele>
        <time>2014-11-01T08:56:02Z</time>
      </trkpt>
      <trkpt lat="42.309262000" lon="-2.528927000">
        <ele>630.60</ele>
        <time>2014-11-01T08:56:03Z</time>
      </trkpt>
      <trkpt lat="42.309246000" lon="-2.528936000">
        <ele>630.70</ele>
        <time>2014-11-01T08:56:04Z</time>
      </trkpt>
      <trkpt lat="42.309235000" lon="-2.528948000">
        <ele>630.90</ele>
        <time>2014-11-01T08:56:05Z</time>
      </trkpt>
      <trkpt lat="42.309220000" lon="-2.528954000">
        <ele>631.00</ele>
        <time>2014-11-01T08:56:06Z</time>
      </trkpt>
      <trkpt lat="42.309207000" lon="-2.528964000">
        <ele>631.10</ele>
        <time>2014-11-01T08:56:07Z</time>
      </trkpt>
      <trkpt lat="42.309192000" lon="-2.528970000">
        <ele>631.20</ele>
        <time>2014-11-01T08:56:08Z</time>
      </trkpt>
      <trkpt lat="42.309177000" lon="-2.528981000">
        <ele>631.20</ele>
        <time>2014-11-01T08:56:09Z</time>
      </trkpt>
      <trkpt lat="42.309160000" lon="-2.528990000">
        <ele>631.50</ele>
        <time>2014-11-01T08:56:10Z</time>
      </trkpt>
      <trkpt lat="42.309145000" lon="-2.529001000">
        <ele>631.70</ele>
        <time>2014-11-01T08:56:11Z</time>
      </trkpt>
      <trkpt lat="42.309130000" lon="-2.529011000">
        <ele>631.80</ele>
        <time>2014-11-01T08:56:12Z</time>
      </trkpt>
      <trkpt lat="42.309114000" lon="-2.529023000">
        <ele>631.90</ele>
        <time>2014-11-01T08:56:13Z</time>
      </trkpt>
      <trkpt lat="42.309098000" lon="-2.529034000">
        <ele>632.10</ele>
        <time>2014-11-01T08:56:14Z</time>
      </trkpt>
      <trkpt lat="42.309083000" lon="-2.529042000">
        <ele>632.20</ele>
        <time>2014-11-01T08:56:15Z</time>
      </trkpt>
      <trkpt lat="42.309068000" lon="-2.529054000">
        <ele>632.30</ele>
        <time>2014-11-01T08:56:16Z</time>
      </trkpt>
      <trkpt lat="42.309053000" lon="-2.529063000">
        <ele>632.40</ele>
        <time>2014-11-01T08:56:17Z</time>
      </trkpt>
      <trkpt lat="42.309039000" lon="-2.529074000">
        <ele>632.60</ele>
        <time>2014-11-01T08:56:18Z</time>
      </trkpt>
      <trkpt lat="42.309009000" lon="-2.529098000">
        <ele>632.80</ele>
        <time>2014-11-01T08:56:20Z</time>
      </trkpt>
      <trkpt lat="42.308995000" lon="-2.529111000">
        <ele>632.80</ele>
        <time>2014-11-01T08:56:21Z</time>
      </trkpt>
      <trkpt lat="42.308981000" lon="-2.529125000">
        <ele>633.00</ele>
        <time>2014-11-01T08:56:22Z</time>
      </trkpt>
      <trkpt lat="42.308967000" lon="-2.529137000">
        <ele>633.20</ele>
        <time>2014-11-01T08:56:23Z</time>
      </trkpt>
      <trkpt lat="42.308954000" lon="-2.529149000">
        <ele>633.30</ele>
        <time>2014-11-01T08:56:24Z</time>
      </trkpt>
      <trkpt lat="42.308940000" lon="-2.529164000">
        <ele>633.30</ele>
        <time>2014-11-01T08:56:25Z</time>
      </trkpt>
      <trkpt lat="42.308927000" lon="-2.529170000">
        <ele>633.50</ele>
        <time>2014-11-01T08:56:26Z</time>
      </trkpt>
      <trkpt lat="42.308911000" lon="-2.529182000">
        <ele>633.60</ele>
        <time>2014-11-01T08:56:27Z</time>
      </trkpt>
      <trkpt lat="42.308898000" lon="-2.529193000">
        <ele>633.60</ele>
        <time>2014-11-01T08:56:28Z</time>
      </trkpt>
      <trkpt lat="42.308883000" lon="-2.529206000">
        <ele>633.50</ele>
        <time>2014-11-01T08:56:29Z</time>
      </trkpt>
      <trkpt lat="42.308869000" lon="-2.529222000">
        <ele>633.40</ele>
        <time>2014-11-01T08:56:30Z</time>
      </trkpt>
      <trkpt lat="42.308857000" lon="-2.529241000">
        <ele>633.30</ele>
        <time>2014-11-01T08:56:31Z</time>
      </trkpt>
      <trkpt lat="42.308846000" lon="-2.529260000">
        <ele>633.20</ele>
        <time>2014-11-01T08:56:32Z</time>
      </trkpt>
      <trkpt lat="42.308835000" lon="-2.529280000">
        <ele>633.20</ele>
        <time>2014-11-01T08:56:33Z</time>
      </trkpt>
      <trkpt lat="42.308825000" lon="-2.529299000">
        <ele>633.50</ele>
        <time>2014-11-01T08:56:34Z</time>
      </trkpt>
      <trkpt lat="42.308812000" lon="-2.529317000">
        <ele>633.70</ele>
        <time>2014-11-01T08:56:35Z</time>
      </trkpt>
      <trkpt lat="42.308797000" lon="-2.529332000">
        <ele>633.90</ele>
        <time>2014-11-01T08:56:36Z</time>
      </trkpt>
      <trkpt lat="42.308785000" lon="-2.529350000">
        <ele>634.00</ele>
        <time>2014-11-01T08:56:37Z</time>
      </trkpt>
      <trkpt lat="42.308770000" lon="-2.529368000">
        <ele>634.10</ele>
        <time>2014-11-01T08:56:38Z</time>
      </trkpt>
      <trkpt lat="42.308760000" lon="-2.529388000">
        <ele>634.20</ele>
        <time>2014-11-01T08:56:39Z</time>
      </trkpt>
      <trkpt lat="42.308749000" lon="-2.529406000">
        <ele>634.40</ele>
        <time>2014-11-01T08:56:40Z</time>
      </trkpt>
      <trkpt lat="42.308738000" lon="-2.529427000">
        <ele>634.50</ele>
        <time>2014-11-01T08:56:41Z</time>
      </trkpt>
      <trkpt lat="42.308728000" lon="-2.529448000">
        <ele>634.60</ele>
        <time>2014-11-01T08:56:42Z</time>
      </trkpt>
      <trkpt lat="42.308713000" lon="-2.529463000">
        <ele>634.70</ele>
        <time>2014-11-01T08:56:43Z</time>
      </trkpt>
      <trkpt lat="42.308703000" lon="-2.529482000">
        <ele>635.00</ele>
        <time>2014-11-01T08:56:44Z</time>
      </trkpt>
      <trkpt lat="42.308690000" lon="-2.529497000">
        <ele>635.10</ele>
        <time>2014-11-01T08:56:45Z</time>
      </trkpt>
      <trkpt lat="42.308675000" lon="-2.529512000">
        <ele>635.40</ele>
        <time>2014-11-01T08:56:46Z</time>
      </trkpt>
      <trkpt lat="42.308657000" lon="-2.529524000">
        <ele>635.50</ele>
        <time>2014-11-01T08:56:47Z</time>
      </trkpt>
      <trkpt lat="42.308641000" lon="-2.529538000">
        <ele>635.60</ele>
        <time>2014-11-01T08:56:48Z</time>
      </trkpt>
      <trkpt lat="42.308624000" lon="-2.529550000">
        <ele>635.70</ele>
        <time>2014-11-01T08:56:49Z</time>
      </trkpt>
      <trkpt lat="42.308607000" lon="-2.529562000">
        <ele>635.80</ele>
        <time>2014-11-01T08:56:50Z</time>
      </trkpt>
      <trkpt lat="42.308587000" lon="-2.529574000">
        <ele>635.80</ele>
        <time>2014-11-01T08:56:51Z</time>
      </trkpt>
      <trkpt lat="42.308568000" lon="-2.529584000">
        <ele>635.90</ele>
        <time>2014-11-01T08:56:52Z</time>
      </trkpt>
      <trkpt lat="42.308547000" lon="-2.529592000">
        <ele>636.00</ele>
        <time>2014-11-01T08:56:53Z</time>
      </trkpt>
      <trkpt lat="42.308525000" lon="-2.529599000">
        <ele>636.20</ele>
        <time>2014-11-01T08:56:54Z</time>
      </trkpt>
      <trkpt lat="42.308505000" lon="-2.529608000">
        <ele>636.30</ele>
        <time>2014-11-01T08:56:55Z</time>
      </trkpt>
      <trkpt lat="42.308484000" lon="-2.529614000">
        <ele>636.50</ele>
        <time>2014-11-01T08:56:56Z</time>
      </trkpt>
      <trkpt lat="42.308463000" lon="-2.529618000">
        <ele>636.70</ele>
        <time>2014-11-01T08:56:57Z</time>
      </trkpt>
      <trkpt lat="42.308440000" lon="-2.529620000">
        <ele>636.80</ele>
        <time>2014-11-01T08:56:58Z</time>
      </trkpt>
      <trkpt lat="42.308415000" lon="-2.529621000">
        <ele>636.90</ele>
        <time>2014-11-01T08:56:59Z</time>
      </trkpt>
      <trkpt lat="42.308390000" lon="-2.529623000">
        <ele>637.10</ele>
        <time>2014-11-01T08:57:00Z</time>
      </trkpt>
      <trkpt lat="42.308367000" lon="-2.529625000">
        <ele>637.20</ele>
        <time>2014-11-01T08:57:01Z</time>
      </trkpt>
      <trkpt lat="42.308340000" lon="-2.529623000">
        <ele>637.00</ele>
        <time>2014-11-01T08:57:02Z</time>
      </trkpt>
      <trkpt lat="42.308312000" lon="-2.529621000">
        <ele>637.00</ele>
        <time>2014-11-01T08:57:03Z</time>
      </trkpt>
      <trkpt lat="42.308283000" lon="-2.529614000">
        <ele>637.00</ele>
        <time>2014-11-01T08:57:04Z</time>
      </trkpt>
      <trkpt lat="42.308256000" lon="-2.529602000">
        <ele>637.10</ele>
        <time>2014-11-01T08:57:05Z</time>
      </trkpt>
      <trkpt lat="42.308226000" lon="-2.529595000">
        <ele>637.10</ele>
        <time>2014-11-01T08:57:06Z</time>
      </trkpt>
      <trkpt lat="42.308194000" lon="-2.529589000">
        <ele>637.10</ele>
        <time>2014-11-01T08:57:07Z</time>
      </trkpt>
      <trkpt lat="42.308163000" lon="-2.529591000">
        <ele>637.10</ele>
        <time>2014-11-01T08:57:08Z</time>
      </trkpt>
      <trkpt lat="42.308140000" lon="-2.529599000">
        <ele>637.20</ele>
        <time>2014-11-01T08:57:09Z</time>
      </trkpt>
      <trkpt lat="42.308117000" lon="-2.529614000">
        <ele>637.20</ele>
        <time>2014-11-01T08:57:10Z</time>
      </trkpt>
      <trkpt lat="42.308093000" lon="-2.529636000">
        <ele>637.20</ele>
        <time>2014-11-01T08:57:11Z</time>
      </trkpt>
      <trkpt lat="42.308070000" lon="-2.529658000">
        <ele>637.20</ele>
        <time>2014-11-01T08:57:12Z</time>
      </trkpt>
      <trkpt lat="42.308051000" lon="-2.529686000">
        <ele>637.20</ele>
        <time>2014-11-01T08:57:13Z</time>
      </trkpt>
      <trkpt lat="42.308032000" lon="-2.529715000">
        <ele>637.20</ele>
        <time>2014-11-01T08:57:14Z</time>
      </trkpt>
      <trkpt lat="42.308014000" lon="-2.529745000">
        <ele>637.20</ele>
        <time>2014-11-01T08:57:15Z</time>
      </trkpt>
      <trkpt lat="42.307999000" lon="-2.529775000">
        <ele>637.20</ele>
        <time>2014-11-01T08:57:16Z</time>
      </trkpt>
      <trkpt lat="42.307983000" lon="-2.529806000">
        <ele>637.20</ele>
        <time>2014-11-01T08:57:17Z</time>
      </trkpt>
      <trkpt lat="42.307967000" lon="-2.529842000">
        <ele>637.20</ele>
        <time>2014-11-01T08:57:18Z</time>
      </trkpt>
      <trkpt lat="42.307952000" lon="-2.529868000">
        <ele>637.20</ele>
        <time>2014-11-01T08:57:19Z</time>
      </trkpt>
      <trkpt lat="42.307938000" lon="-2.529915000">
        <ele>637.20</ele>
        <time>2014-11-01T08:57:21Z</time>
      </trkpt>
      <trkpt lat="42.307933000" lon="-2.529941000">
        <ele>637.20</ele>
        <time>2014-11-01T08:57:22Z</time>
      </trkpt>
      <trkpt lat="42.307930000" lon="-2.529972000">
        <ele>637.20</ele>
        <time>2014-11-01T08:57:23Z</time>
      </trkpt>
      <trkpt lat="42.307923000" lon="-2.530005000">
        <ele>637.10</ele>
        <time>2014-11-01T08:57:24Z</time>
      </trkpt>
      <trkpt lat="42.307923000" lon="-2.530036000">
        <ele>637.00</ele>
        <time>2014-11-01T08:57:25Z</time>
      </trkpt>
      <trkpt lat="42.307924000" lon="-2.530067000">
        <ele>637.00</ele>
        <time>2014-11-01T08:57:26Z</time>
      </trkpt>
      <trkpt lat="42.307928000" lon="-2.530099000">
        <ele>637.10</ele>
        <time>2014-11-01T08:57:27Z</time>
      </trkpt>
      <trkpt lat="42.307934000" lon="-2.530132000">
        <ele>637.10</ele>
        <time>2014-11-01T08:57:28Z</time>
      </trkpt>
      <trkpt lat="42.307940000" lon="-2.530164000">
        <ele>637.10</ele>
        <time>2014-11-01T08:57:29Z</time>
      </trkpt>
      <trkpt lat="42.307945000" lon="-2.530191000">
        <ele>637.40</ele>
        <time>2014-11-01T08:57:30Z</time>
      </trkpt>
      <trkpt lat="42.307951000" lon="-2.530217000">
        <ele>637.60</ele>
        <time>2014-11-01T08:57:31Z</time>
      </trkpt>
      <trkpt lat="42.307959000" lon="-2.530241000">
        <ele>637.80</ele>
        <time>2014-11-01T08:57:32Z</time>
      </trkpt>
      <trkpt lat="42.307965000" lon="-2.530266000">
        <ele>637.90</ele>
        <time>2014-11-01T08:57:33Z</time>
      </trkpt>
      <trkpt lat="42.307970000" lon="-2.530292000">
        <ele>638.10</ele>
        <time>2014-11-01T08:57:34Z</time>
      </trkpt>
      <trkpt lat="42.307975000" lon="-2.530315000">
        <ele>638.30</ele>
        <time>2014-11-01T08:57:35Z</time>
      </trkpt>
      <trkpt lat="42.307982000" lon="-2.530337000">
        <ele>638.40</ele>
        <time>2014-11-01T08:57:36Z</time>
      </trkpt>
      <trkpt lat="42.307992000" lon="-2.530358000">
        <ele>638.50</ele>
        <time>2014-11-01T08:57:37Z</time>
      </trkpt>
      <trkpt lat="42.307997000" lon="-2.530380000">
        <ele>638.80</ele>
        <time>2014-11-01T08:57:38Z</time>
      </trkpt>
      <trkpt lat="42.308006000" lon="-2.530401000">
        <ele>639.10</ele>
        <time>2014-11-01T08:57:39Z</time>
      </trkpt>
      <trkpt lat="42.308009000" lon="-2.530422000">
        <ele>639.30</ele>
        <time>2014-11-01T08:57:40Z</time>
      </trkpt>
      <trkpt lat="42.308016000" lon="-2.530441000">
        <ele>639.40</ele>
        <time>2014-11-01T08:57:41Z</time>
      </trkpt>
      <trkpt lat="42.308021000" lon="-2.530460000">
        <ele>639.60</ele>
        <time>2014-11-01T08:57:42Z</time>
      </trkpt>
      <trkpt lat="42.308021000" lon="-2.530484000">
        <ele>639.70</ele>
        <time>2014-11-01T08:57:43Z</time>
      </trkpt>
      <trkpt lat="42.308023000" lon="-2.530510000">
        <ele>639.90</ele>
        <time>2014-11-01T08:57:44Z</time>
      </trkpt>
      <trkpt lat="42.308026000" lon="-2.530534000">
        <ele>640.10</ele>
        <time>2014-11-01T08:57:45Z</time>
      </trkpt>
      <trkpt lat="42.308032000" lon="-2.530557000">
        <ele>640.20</ele>
        <time>2014-11-01T08:57:46Z</time>
      </trkpt>
      <trkpt lat="42.308035000" lon="-2.530579000">
        <ele>640.30</ele>
        <time>2014-11-01T08:57:47Z</time>
      </trkpt>
      <trkpt lat="42.308039000" lon="-2.530600000">
        <ele>640.50</ele>
        <time>2014-11-01T08:57:48Z</time>
      </trkpt>
      <trkpt lat="42.308044000" lon="-2.530622000">
        <ele>640.70</ele>
        <time>2014-11-01T08:57:49Z</time>
      </trkpt>
      <trkpt lat="42.308048000" lon="-2.530643000">
        <ele>640.80</ele>
        <time>2014-11-01T08:57:50Z</time>
      </trkpt>
      <trkpt lat="42.308054000" lon="-2.530664000">
        <ele>641.00</ele>
        <time>2014-11-01T08:57:51Z</time>
      </trkpt>
      <trkpt lat="42.308061000" lon="-2.530683000">
        <ele>641.30</ele>
        <time>2014-11-01T08:57:52Z</time>
      </trkpt>
      <trkpt lat="42.308061000" lon="-2.530705000">
        <ele>641.60</ele>
        <time>2014-11-01T08:57:53Z</time>
      </trkpt>
      <trkpt lat="42.308064000" lon="-2.530724000">
        <ele>641.80</ele>
        <time>2014-11-01T08:57:54Z</time>
      </trkpt>
      <trkpt lat="42.308064000" lon="-2.530743000">
        <ele>642.00</ele>
        <time>2014-11-01T08:57:55Z</time>
      </trkpt>
      <trkpt lat="42.308066000" lon="-2.530764000">
        <ele>642.20</ele>
        <time>2014-11-01T08:57:56Z</time>
      </trkpt>
      <trkpt lat="42.308064000" lon="-2.530785000">
        <ele>642.30</ele>
        <time>2014-11-01T08:57:57Z</time>
      </trkpt>
      <trkpt lat="42.308066000" lon="-2.530806000">
        <ele>642.60</ele>
        <time>2014-11-01T08:57:58Z</time>
      </trkpt>
      <trkpt lat="42.308068000" lon="-2.530829000">
        <ele>642.90</ele>
        <time>2014-11-01T08:57:59Z</time>
      </trkpt>
      <trkpt lat="42.308068000" lon="-2.530852000">
        <ele>643.30</ele>
        <time>2014-11-01T08:58:00Z</time>
      </trkpt>
      <trkpt lat="42.308070000" lon="-2.530875000">
        <ele>643.50</ele>
        <time>2014-11-01T08:58:01Z</time>
      </trkpt>
      <trkpt lat="42.308074000" lon="-2.530896000">
        <ele>643.80</ele>
        <time>2014-11-01T08:58:02Z</time>
      </trkpt>
      <trkpt lat="42.308077000" lon="-2.530917000">
        <ele>643.90</ele>
        <time>2014-11-01T08:58:03Z</time>
      </trkpt>
      <trkpt lat="42.308081000" lon="-2.530939000">
        <ele>644.10</ele>
        <time>2014-11-01T08:58:04Z</time>
      </trkpt>
      <trkpt lat="42.308083000" lon="-2.530960000">
        <ele>644.20</ele>
        <time>2014-11-01T08:58:05Z</time>
      </trkpt>
      <trkpt lat="42.308082000" lon="-2.530980000">
        <ele>644.40</ele>
        <time>2014-11-01T08:58:06Z</time>
      </trkpt>
      <trkpt lat="42.308082000" lon="-2.531001000">
        <ele>644.50</ele>
        <time>2014-11-01T08:58:07Z</time>
      </trkpt>
      <trkpt lat="42.308082000" lon="-2.531023000">
        <ele>644.60</ele>
        <time>2014-11-01T08:58:08Z</time>
      </trkpt>
      <trkpt lat="42.308079000" lon="-2.531046000">
        <ele>644.70</ele>
        <time>2014-11-01T08:58:09Z</time>
      </trkpt>
      <trkpt lat="42.308078000" lon="-2.531066000">
        <ele>644.90</ele>
        <time>2014-11-01T08:58:10Z</time>
      </trkpt>
      <trkpt lat="42.308079000" lon="-2.531087000">
        <ele>645.00</ele>
        <time>2014-11-01T08:58:11Z</time>
      </trkpt>
      <trkpt lat="42.308074000" lon="-2.531116000">
        <ele>645.10</ele>
        <time>2014-11-01T08:58:12Z</time>
      </trkpt>
      <trkpt lat="42.308072000" lon="-2.531155000">
        <ele>645.20</ele>
        <time>2014-11-01T08:58:13Z</time>
      </trkpt>
      <trkpt lat="42.308080000" lon="-2.531183000">
        <ele>645.30</ele>
        <time>2014-11-01T08:58:14Z</time>
      </trkpt>
      <trkpt lat="42.308087000" lon="-2.531209000">
        <ele>645.30</ele>
        <time>2014-11-01T08:58:15Z</time>
      </trkpt>
      <trkpt lat="42.308092000" lon="-2.531231000">
        <ele>645.60</ele>
        <time>2014-11-01T08:58:16Z</time>
      </trkpt>
      <trkpt lat="42.308094000" lon="-2.531251000">
        <ele>645.80</ele>
        <time>2014-11-01T08:58:17Z</time>
      </trkpt>
      <trkpt lat="42.308092000" lon="-2.531272000">
        <ele>646.00</ele>
        <time>2014-11-01T08:58:18Z</time>
      </trkpt>
      <trkpt lat="42.308091000" lon="-2.531296000">
        <ele>646.10</ele>
        <time>2014-11-01T08:58:19Z</time>
      </trkpt>
      <trkpt lat="42.308090000" lon="-2.531321000">
        <ele>646.40</ele>
        <time>2014-11-01T08:58:20Z</time>
      </trkpt>
      <trkpt lat="42.308088000" lon="-2.531366000">
        <ele>646.90</ele>
        <time>2014-11-01T08:58:22Z</time>
      </trkpt>
      <trkpt lat="42.308084000" lon="-2.531390000">
        <ele>647.20</ele>
        <time>2014-11-01T08:58:23Z</time>
      </trkpt>
      <trkpt lat="42.308081000" lon="-2.531413000">
        <ele>647.60</ele>
        <time>2014-11-01T08:58:24Z</time>
      </trkpt>
      <trkpt lat="42.308081000" lon="-2.531434000">
        <ele>647.80</ele>
        <time>2014-11-01T08:58:25Z</time>
      </trkpt>
      <trkpt lat="42.308082000" lon="-2.531456000">
        <ele>648.00</ele>
        <time>2014-11-01T08:58:26Z</time>
      </trkpt>
      <trkpt lat="42.308078000" lon="-2.531478000">
        <ele>648.20</ele>
        <time>2014-11-01T08:58:27Z</time>
      </trkpt>
      <trkpt lat="42.308073000" lon="-2.531498000">
        <ele>648.50</ele>
        <time>2014-11-01T08:58:28Z</time>
      </trkpt>
      <trkpt lat="42.308068000" lon="-2.531516000">
        <ele>648.80</ele>
        <time>2014-11-01T08:58:29Z</time>
      </trkpt>
      <trkpt lat="42.308064000" lon="-2.531534000">
        <ele>649.20</ele>
        <time>2014-11-01T08:58:30Z</time>
      </trkpt>
      <trkpt lat="42.308062000" lon="-2.531554000">
        <ele>649.40</ele>
        <time>2014-11-01T08:58:31Z</time>
      </trkpt>
      <trkpt lat="42.308059000" lon="-2.531574000">
        <ele>649.70</ele>
        <time>2014-11-01T08:58:32Z</time>
      </trkpt>
      <trkpt lat="42.308060000" lon="-2.531596000">
        <ele>650.00</ele>
        <time>2014-11-01T08:58:33Z</time>
      </trkpt>
      <trkpt lat="42.308060000" lon="-2.531616000">
        <ele>650.30</ele>
        <time>2014-11-01T08:58:34Z</time>
      </trkpt>
      <trkpt lat="42.308059000" lon="-2.531635000">
        <ele>650.50</ele>
        <time>2014-11-01T08:58:35Z</time>
      </trkpt>
      <trkpt lat="42.308057000" lon="-2.531656000">
        <ele>650.70</ele>
        <time>2014-11-01T08:58:36Z</time>
      </trkpt>
      <trkpt lat="42.308056000" lon="-2.531677000">
        <ele>650.80</ele>
        <time>2014-11-01T08:58:37Z</time>
      </trkpt>
      <trkpt lat="42.308054000" lon="-2.531700000">
        <ele>651.00</ele>
        <time>2014-11-01T08:58:38Z</time>
      </trkpt>
      <trkpt lat="42.308053000" lon="-2.531720000">
        <ele>651.10</ele>
        <time>2014-11-01T08:58:39Z</time>
      </trkpt>
      <trkpt lat="42.308051000" lon="-2.531738000">
        <ele>651.40</ele>
        <time>2014-11-01T08:58:40Z</time>
      </trkpt>
      <trkpt lat="42.308048000" lon="-2.531757000">
        <ele>651.50</ele>
        <time>2014-11-01T08:58:41Z</time>
      </trkpt>
      <trkpt lat="42.308043000" lon="-2.531774000">
        <ele>651.70</ele>
        <time>2014-11-01T08:58:42Z</time>
      </trkpt>
      <trkpt lat="42.308041000" lon="-2.531794000">
        <ele>651.90</ele>
        <time>2014-11-01T08:58:43Z</time>
      </trkpt>
      <trkpt lat="42.308038000" lon="-2.531814000">
        <ele>652.00</ele>
        <time>2014-11-01T08:58:44Z</time>
      </trkpt>
      <trkpt lat="42.308040000" lon="-2.531835000">
        <ele>652.20</ele>
        <time>2014-11-01T08:58:45Z</time>
      </trkpt>
      <trkpt lat="42.308038000" lon="-2.531855000">
        <ele>652.40</ele>
        <time>2014-11-01T08:58:46Z</time>
      </trkpt>
      <trkpt lat="42.308037000" lon="-2.531877000">
        <ele>652.60</ele>
        <time>2014-11-01T08:58:47Z</time>
      </trkpt>
      <trkpt lat="42.308042000" lon="-2.531892000">
        <ele>652.80</ele>
        <time>2014-11-01T08:58:48Z</time>
      </trkpt>
      <trkpt lat="42.308046000" lon="-2.531907000">
        <ele>652.90</ele>
        <time>2014-11-01T08:58:49Z</time>
      </trkpt>
      <trkpt lat="42.308049000" lon="-2.531920000">
        <ele>653.40</ele>
        <time>2014-11-01T08:58:50Z</time>
      </trkpt>
      <trkpt lat="42.308048000" lon="-2.531941000">
        <ele>653.70</ele>
        <time>2014-11-01T08:58:51Z</time>
      </trkpt>
      <trkpt lat="42.308049000" lon="-2.531957000">
        <ele>654.00</ele>
        <time>2014-11-01T08:58:52Z</time>
      </trkpt>
      <trkpt lat="42.308053000" lon="-2.531974000">
        <ele>654.20</ele>
        <time>2014-11-01T08:58:53Z</time>
      </trkpt>
      <trkpt lat="42.308059000" lon="-2.531989000">
        <ele>654.40</ele>
        <time>2014-11-01T08:58:54Z</time>
      </trkpt>
      <trkpt lat="42.308061000" lon="-2.532007000">
        <ele>654.70</ele>
        <time>2014-11-01T08:58:55Z</time>
      </trkpt>
      <trkpt lat="42.308063000" lon="-2.532032000">
        <ele>654.80</ele>
        <time>2014-11-01T08:58:56Z</time>
      </trkpt>
      <trkpt lat="42.308063000" lon="-2.532054000">
        <ele>654.90</ele>
        <time>2014-11-01T08:58:57Z</time>
      </trkpt>
      <trkpt lat="42.308065000" lon="-2.532072000">
        <ele>655.20</ele>
        <time>2014-11-01T08:58:58Z</time>
      </trkpt>
      <trkpt lat="42.308064000" lon="-2.532091000">
        <ele>655.40</ele>
        <time>2014-11-01T08:58:59Z</time>
      </trkpt>
      <trkpt lat="42.308066000" lon="-2.532108000">
        <ele>655.70</ele>
        <time>2014-11-01T08:59:00Z</time>
      </trkpt>
      <trkpt lat="42.308067000" lon="-2.532126000">
        <ele>655.90</ele>
        <time>2014-11-01T08:59:01Z</time>
      </trkpt>
      <trkpt lat="42.308068000" lon="-2.532145000">
        <ele>656.10</ele>
        <time>2014-11-01T08:59:02Z</time>
      </trkpt>
      <trkpt lat="42.308068000" lon="-2.532163000">
        <ele>656.20</ele>
        <time>2014-11-01T08:59:03Z</time>
      </trkpt>
      <trkpt lat="42.308071000" lon="-2.532183000">
        <ele>656.50</ele>
        <time>2014-11-01T08:59:04Z</time>
      </trkpt>
      <trkpt lat="42.308076000" lon="-2.532202000">
        <ele>656.70</ele>
        <time>2014-11-01T08:59:05Z</time>
      </trkpt>
      <trkpt lat="42.308077000" lon="-2.532223000">
        <ele>657.30</ele>
        <time>2014-11-01T08:59:06Z</time>
      </trkpt>
      <trkpt lat="42.308075000" lon="-2.532244000">
        <ele>657.70</ele>
        <time>2014-11-01T08:59:07Z</time>
      </trkpt>
      <trkpt lat="42.308076000" lon="-2.532265000">
        <ele>658.00</ele>
        <time>2014-11-01T08:59:08Z</time>
      </trkpt>
      <trkpt lat="42.308079000" lon="-2.532283000">
        <ele>658.30</ele>
        <time>2014-11-01T08:59:09Z</time>
      </trkpt>
      <trkpt lat="42.308081000" lon="-2.532304000">
        <ele>658.70</ele>
        <time>2014-11-01T08:59:10Z</time>
      </trkpt>
      <trkpt lat="42.308083000" lon="-2.532323000">
        <ele>659.00</ele>
        <time>2014-11-01T08:59:11Z</time>
      </trkpt>
      <trkpt lat="42.308085000" lon="-2.532344000">
        <ele>659.20</ele>
        <time>2014-11-01T08:59:12Z</time>
      </trkpt>
      <trkpt lat="42.308088000" lon="-2.532365000">
        <ele>659.40</ele>
        <time>2014-11-01T08:59:13Z</time>
      </trkpt>
      <trkpt lat="42.308088000" lon="-2.532384000">
        <ele>659.70</ele>
        <time>2014-11-01T08:59:14Z</time>
      </trkpt>
      <trkpt lat="42.308093000" lon="-2.532405000">
        <ele>659.90</ele>
        <time>2014-11-01T08:59:15Z</time>
      </trkpt>
      <trkpt lat="42.308098000" lon="-2.532421000">
        <ele>660.00</ele>
        <time>2014-11-01T08:59:16Z</time>
      </trkpt>
      <trkpt lat="42.308101000" lon="-2.532444000">
        <ele>660.20</ele>
        <time>2014-11-01T08:59:17Z</time>
      </trkpt>
      <trkpt lat="42.308103000" lon="-2.532461000">
        <ele>660.60</ele>
        <time>2014-11-01T08:59:18Z</time>
      </trkpt>
      <trkpt lat="42.308104000" lon="-2.532478000">
        <ele>660.90</ele>
        <time>2014-11-01T08:59:19Z</time>
      </trkpt>
      <trkpt lat="42.308106000" lon="-2.532495000">
        <ele>661.30</ele>
        <time>2014-11-01T08:59:20Z</time>
      </trkpt>
      <trkpt lat="42.308109000" lon="-2.532514000">
        <ele>661.60</ele>
        <time>2014-11-01T08:59:21Z</time>
      </trkpt>
      <trkpt lat="42.308113000" lon="-2.532548000">
        <ele>662.30</ele>
        <time>2014-11-01T08:59:23Z</time>
      </trkpt>
      <trkpt lat="42.308115000" lon="-2.532562000">
        <ele>662.50</ele>
        <time>2014-11-01T08:59:24Z</time>
      </trkpt>
      <trkpt lat="42.308124000" lon="-2.532576000">
        <ele>662.70</ele>
        <time>2014-11-01T08:59:25Z</time>
      </trkpt>
      <trkpt lat="42.308127000" lon="-2.532590000">
        <ele>663.00</ele>
        <time>2014-11-01T08:59:26Z</time>
      </trkpt>
      <trkpt lat="42.308129000" lon="-2.532609000">
        <ele>663.20</ele>
        <time>2014-11-01T08:59:27Z</time>
      </trkpt>
      <trkpt lat="42.308127000" lon="-2.532629000">
        <ele>663.50</ele>
        <time>2014-11-01T08:59:28Z</time>
      </trkpt>
      <trkpt lat="42.308127000" lon="-2.532648000">
        <ele>663.70</ele>
        <time>2014-11-01T08:59:29Z</time>
      </trkpt>
      <trkpt lat="42.308124000" lon="-2.532668000">
        <ele>663.80</ele>
        <time>2014-11-01T08:59:30Z</time>
      </trkpt>
      <trkpt lat="42.308129000" lon="-2.532687000">
        <ele>663.90</ele>
        <time>2014-11-01T08:59:31Z</time>
      </trkpt>
      <trkpt lat="42.308134000" lon="-2.532702000">
        <ele>664.40</ele>
        <time>2014-11-01T08:59:32Z</time>
      </trkpt>
      <trkpt lat="42.308138000" lon="-2.532722000">
        <ele>664.70</ele>
        <time>2014-11-01T08:59:33Z</time>
      </trkpt>
      <trkpt lat="42.308140000" lon="-2.532747000">
        <ele>665.10</ele>
        <time>2014-11-01T08:59:34Z</time>
      </trkpt>
      <trkpt lat="42.308136000" lon="-2.532772000">
        <ele>665.40</ele>
        <time>2014-11-01T08:59:35Z</time>
      </trkpt>
      <trkpt lat="42.308137000" lon="-2.532791000">
        <ele>665.90</ele>
        <time>2014-11-01T08:59:36Z</time>
      </trkpt>
      <trkpt lat="42.308130000" lon="-2.532813000">
        <ele>666.30</ele>
        <time>2014-11-01T08:59:37Z</time>
      </trkpt>
      <trkpt lat="42.308128000" lon="-2.532833000">
        <ele>666.60</ele>
        <time>2014-11-01T08:59:38Z</time>
      </trkpt>
      <trkpt lat="42.308133000" lon="-2.532856000">
        <ele>666.80</ele>
        <time>2014-11-01T08:59:39Z</time>
      </trkpt>
      <trkpt lat="42.308136000" lon="-2.532871000">
        <ele>667.00</ele>
        <time>2014-11-01T08:59:40Z</time>
      </trkpt>
      <trkpt lat="42.308139000" lon="-2.532896000">
        <ele>667.20</ele>
        <time>2014-11-01T08:59:41Z</time>
      </trkpt>
      <trkpt lat="42.308154000" lon="-2.532930000">
        <ele>667.40</ele>
        <time>2014-11-01T08:59:42Z</time>
      </trkpt>
      <trkpt lat="42.308168000" lon="-2.532952000">
        <ele>667.50</ele>
        <time>2014-11-01T08:59:43Z</time>
      </trkpt>
      <trkpt lat="42.308169000" lon="-2.532972000">
        <ele>668.00</ele>
        <time>2014-11-01T08:59:44Z</time>
      </trkpt>
      <trkpt lat="42.308175000" lon="-2.532995000">
        <ele>668.30</ele>
        <time>2014-11-01T08:59:45Z</time>
      </trkpt>
      <trkpt lat="42.308173000" lon="-2.533017000">
        <ele>668.60</ele>
        <time>2014-11-01T08:59:46Z</time>
      </trkpt>
      <trkpt lat="42.308170000" lon="-2.533034000">
        <ele>668.80</ele>
        <time>2014-11-01T08:59:47Z</time>
      </trkpt>
      <trkpt lat="42.308168000" lon="-2.533054000">
        <ele>669.00</ele>
        <time>2014-11-01T08:59:48Z</time>
      </trkpt>
      <trkpt lat="42.308163000" lon="-2.533076000">
        <ele>669.20</ele>
        <time>2014-11-01T08:59:49Z</time>
      </trkpt>
      <trkpt lat="42.308158000" lon="-2.533097000">
        <ele>669.60</ele>
        <time>2014-11-01T08:59:50Z</time>
      </trkpt>
      <trkpt lat="42.308153000" lon="-2.533122000">
        <ele>669.90</ele>
        <time>2014-11-01T08:59:51Z</time>
      </trkpt>
      <trkpt lat="42.308150000" lon="-2.533128000">
        <ele>670.20</ele>
        <time>2014-11-01T08:59:52Z</time>
      </trkpt>
      <trkpt lat="42.308149000" lon="-2.533140000">
        <ele>670.40</ele>
        <time>2014-11-01T08:59:53Z</time>
      </trkpt>
      <trkpt lat="42.308151000" lon="-2.533151000">
        <ele>670.60</ele>
        <time>2014-11-01T08:59:54Z</time>
      </trkpt>
      <trkpt lat="42.308154000" lon="-2.533157000">
        <ele>670.80</ele>
        <time>2014-11-01T08:59:55Z</time>
      </trkpt>
      <trkpt lat="42.308157000" lon="-2.533168000">
        <ele>671.10</ele>
        <time>2014-11-01T08:59:56Z</time>
      </trkpt>
      <trkpt lat="42.308163000" lon="-2.533176000">
        <ele>671.40</ele>
        <time>2014-11-01T08:59:57Z</time>
      </trkpt>
      <trkpt lat="42.308162000" lon="-2.533190000">
        <ele>671.80</ele>
        <time>2014-11-01T08:59:58Z</time>
      </trkpt>
      <trkpt lat="42.308160000" lon="-2.533212000">
        <ele>672.10</ele>
        <time>2014-11-01T08:59:59Z</time>
      </trkpt>
      <trkpt lat="42.308157000" lon="-2.533235000">
        <ele>672.50</ele>
        <time>2014-11-01T09:00:00Z</time>
      </trkpt>
      <trkpt lat="42.308152000" lon="-2.533268000">
        <ele>672.80</ele>
        <time>2014-11-01T09:00:01Z</time>
      </trkpt>
      <trkpt lat="42.308149000" lon="-2.533301000">
        <ele>673.00</ele>
        <time>2014-11-01T09:00:02Z</time>
      </trkpt>
      <trkpt lat="42.308145000" lon="-2.533332000">
        <ele>673.20</ele>
        <time>2014-11-01T09:00:03Z</time>
      </trkpt>
      <trkpt lat="42.308145000" lon="-2.533353000">
        <ele>673.70</ele>
        <time>2014-11-01T09:00:04Z</time>
      </trkpt>
      <trkpt lat="42.308145000" lon="-2.533375000">
        <ele>674.00</ele>
        <time>2014-11-01T09:00:05Z</time>
      </trkpt>
      <trkpt lat="42.308142000" lon="-2.533396000">
        <ele>674.40</ele>
        <time>2014-11-01T09:00:06Z</time>
      </trkpt>
      <trkpt lat="42.308142000" lon="-2.533412000">
        <ele>674.70</ele>
        <time>2014-11-01T09:00:07Z</time>
      </trkpt>
      <trkpt lat="42.308142000" lon="-2.533437000">
        <ele>675.00</ele>
        <time>2014-11-01T09:00:08Z</time>
      </trkpt>
      <trkpt lat="42.308139000" lon="-2.533466000">
        <ele>675.20</ele>
        <time>2014-11-01T09:00:09Z</time>
      </trkpt>
      <trkpt lat="42.308140000" lon="-2.533502000">
        <ele>675.50</ele>
        <time>2014-11-01T09:00:10Z</time>
      </trkpt>
      <trkpt lat="42.308140000" lon="-2.533522000">
        <ele>675.70</ele>
        <time>2014-11-01T09:00:11Z</time>
      </trkpt>
      <trkpt lat="42.308139000" lon="-2.533539000">
        <ele>675.90</ele>
        <time>2014-11-01T09:00:12Z</time>
      </trkpt>
      <trkpt lat="42.308139000" lon="-2.533556000">
        <ele>676.10</ele>
        <time>2014-11-01T09:00:13Z</time>
      </trkpt>
      <trkpt lat="42.308139000" lon="-2.533572000">
        <ele>676.40</ele>
        <time>2014-11-01T09:00:14Z</time>
      </trkpt>
      <trkpt lat="42.308137000" lon="-2.533587000">
        <ele>676.60</ele>
        <time>2014-11-01T09:00:15Z</time>
      </trkpt>
      <trkpt lat="42.308137000" lon="-2.533606000">
        <ele>677.00</ele>
        <time>2014-11-01T09:00:16Z</time>
      </trkpt>
      <trkpt lat="42.308140000" lon="-2.533618000">
        <ele>677.30</ele>
        <time>2014-11-01T09:00:17Z</time>
      </trkpt>
      <trkpt lat="42.308144000" lon="-2.533632000">
        <ele>677.50</ele>
        <time>2014-11-01T09:00:18Z</time>
      </trkpt>
      <trkpt lat="42.308147000" lon="-2.533655000">
        <ele>677.70</ele>
        <time>2014-11-01T09:00:19Z</time>
      </trkpt>
      <trkpt lat="42.308162000" lon="-2.533653000">
        <ele>678.20</ele>
        <time>2014-11-01T09:00:20Z</time>
      </trkpt>
      <trkpt lat="42.308166000" lon="-2.533660000">
        <ele>678.60</ele>
        <time>2014-11-01T09:00:21Z</time>
      </trkpt>
      <trkpt lat="42.308170000" lon="-2.533676000">
        <ele>679.00</ele>
        <time>2014-11-01T09:00:22Z</time>
      </trkpt>
      <trkpt lat="42.308162000" lon="-2.533714000">
        <ele>679.60</ele>
        <time>2014-11-01T09:00:24Z</time>
      </trkpt>
      <trkpt lat="42.308166000" lon="-2.533703000">
        <ele>679.80</ele>
        <time>2014-11-01T09:00:25Z</time>
      </trkpt>
      <trkpt lat="42.308165000" lon="-2.533714000">
        <ele>680.30</ele>
        <time>2014-11-01T09:00:26Z</time>
      </trkpt>
      <trkpt lat="42.308168000" lon="-2.533724000">
        <ele>680.60</ele>
        <time>2014-11-01T09:00:27Z</time>
      </trkpt>
      <trkpt lat="42.308165000" lon="-2.533752000">
        <ele>680.90</ele>
        <time>2014-11-01T09:00:28Z</time>
      </trkpt>
      <trkpt lat="42.308169000" lon="-2.533756000">
        <ele>681.10</ele>
        <time>2014-11-01T09:00:29Z</time>
      </trkpt>
      <trkpt lat="42.308174000" lon="-2.533761000">
        <ele>681.30</ele>
        <time>2014-11-01T09:00:30Z</time>
      </trkpt>
      <trkpt lat="42.308191000" lon="-2.533747000">
        <ele>681.40</ele>
        <time>2014-11-01T09:00:31Z</time>
      </trkpt>
      <trkpt lat="42.308207000" lon="-2.533735000">
        <ele>681.50</ele>
        <time>2014-11-01T09:00:32Z</time>
      </trkpt>
      <trkpt lat="42.308226000" lon="-2.533715000">
        <ele>681.50</ele>
        <time>2014-11-01T09:00:33Z</time>
      </trkpt>
      <trkpt lat="42.308241000" lon="-2.533704000">
        <ele>681.60</ele>
        <time>2014-11-01T09:00:34Z</time>
      </trkpt>
      <trkpt lat="42.308261000" lon="-2.533698000">
        <ele>681.70</ele>
        <time>2014-11-01T09:00:35Z</time>
      </trkpt>
      <trkpt lat="42.308279000" lon="-2.533687000">
        <ele>681.70</ele>
        <time>2014-11-01T09:00:36Z</time>
      </trkpt>
      <trkpt lat="42.308299000" lon="-2.533684000">
        <ele>681.80</ele>
        <time>2014-11-01T09:00:37Z</time>
      </trkpt>
      <trkpt lat="42.308313000" lon="-2.533686000">
        <ele>681.80</ele>
        <time>2014-11-01T09:00:38Z</time>
      </trkpt>
      <trkpt lat="42.308312000" lon="-2.533704000">
        <ele>681.80</ele>
        <time>2014-11-01T09:00:39Z</time>
      </trkpt>
      <trkpt lat="42.308313000" lon="-2.533720000">
        <ele>681.90</ele>
        <time>2014-11-01T09:00:40Z</time>
      </trkpt>
      <trkpt lat="42.308313000" lon="-2.533733000">
        <ele>681.90</ele>
        <time>2014-11-01T09:00:41Z</time>
      </trkpt>
      <trkpt lat="42.308315000" lon="-2.533746000">
        <ele>682.00</ele>
        <time>2014-11-01T09:00:42Z</time>
      </trkpt>
      <trkpt lat="42.308315000" lon="-2.533753000">
        <ele>682.10</ele>
        <time>2014-11-01T09:00:43Z</time>
      </trkpt>
      <trkpt lat="42.308313000" lon="-2.533764000">
        <ele>682.20</ele>
        <time>2014-11-01T09:00:44Z</time>
      </trkpt>
      <trkpt lat="42.308303000" lon="-2.533781000">
        <ele>682.30</ele>
        <time>2014-11-01T09:00:45Z</time>
      </trkpt>
      <trkpt lat="42.308292000" lon="-2.533805000">
        <ele>682.30</ele>
        <time>2014-11-01T09:00:46Z</time>
      </trkpt>
      <trkpt lat="42.308279000" lon="-2.533822000">
        <ele>682.30</ele>
        <time>2014-11-01T09:00:47Z</time>
      </trkpt>
      <trkpt lat="42.308261000" lon="-2.533835000">
        <ele>682.30</ele>
        <time>2014-11-01T09:00:48Z</time>
      </trkpt>
      <trkpt lat="42.308238000" lon="-2.533878000">
        <ele>682.30</ele>
        <time>2014-11-01T09:00:49Z</time>
      </trkpt>
      <trkpt lat="42.308216000" lon="-2.533898000">
        <ele>682.20</ele>
        <time>2014-11-01T09:00:50Z</time>
      </trkpt>
      <trkpt lat="42.308201000" lon="-2.533902000">
        <ele>682.20</ele>
        <time>2014-11-01T09:00:51Z</time>
      </trkpt>
      <trkpt lat="42.308189000" lon="-2.533905000">
        <ele>682.20</ele>
        <time>2014-11-01T09:00:52Z</time>
      </trkpt>
      <trkpt lat="42.308177000" lon="-2.533900000">
        <ele>682.20</ele>
        <time>2014-11-01T09:00:53Z</time>
      </trkpt>
      <trkpt lat="42.308167000" lon="-2.533888000">
        <ele>682.20</ele>
        <time>2014-11-01T09:00:54Z</time>
      </trkpt>
      <trkpt lat="42.308165000" lon="-2.533873000">
        <ele>682.10</ele>
        <time>2014-11-01T09:00:55Z</time>
      </trkpt>
      <trkpt lat="42.308162000" lon="-2.533860000">
        <ele>682.00</ele>
        <time>2014-11-01T09:00:56Z</time>
      </trkpt>
      <trkpt lat="42.308167000" lon="-2.533850000">
        <ele>681.90</ele>
        <time>2014-11-01T09:00:57Z</time>
      </trkpt>
      <trkpt lat="42.308177000" lon="-2.533835000">
        <ele>681.90</ele>
        <time>2014-11-01T09:00:58Z</time>
      </trkpt>
      <trkpt lat="42.308189000" lon="-2.533825000">
        <ele>681.80</ele>
        <time>2014-11-01T09:00:59Z</time>
      </trkpt>
      <trkpt lat="42.308199000" lon="-2.533825000">
        <ele>681.80</ele>
        <time>2014-11-01T09:01:00Z</time>
      </trkpt>
      <trkpt lat="42.308211000" lon="-2.533825000">
        <ele>681.80</ele>
        <time>2014-11-01T09:01:01Z</time>
      </trkpt>
      <trkpt lat="42.308221000" lon="-2.533831000">
        <ele>681.70</ele>
        <time>2014-11-01T09:01:02Z</time>
      </trkpt>
      <trkpt lat="42.308231000" lon="-2.533836000">
        <ele>681.60</ele>
        <time>2014-11-01T09:01:03Z</time>
      </trkpt>
      <trkpt lat="42.308236000" lon="-2.533837000">
        <ele>681.60</ele>
        <time>2014-11-01T09:01:04Z</time>
      </trkpt>
      <trkpt lat="42.308241000" lon="-2.533832000">
        <ele>681.60</ele>
        <time>2014-11-01T09:01:05Z</time>
      </trkpt>
      <trkpt lat="42.308247000" lon="-2.533821000">
        <ele>681.50</ele>
        <time>2014-11-01T09:01:06Z</time>
      </trkpt>
      <trkpt lat="42.308254000" lon="-2.533806000">
        <ele>681.50</ele>
        <time>2014-11-01T09:01:07Z</time>
      </trkpt>
      <trkpt lat="42.308262000" lon="-2.533785000">
        <ele>681.60</ele>
        <time>2014-11-01T09:01:08Z</time>
      </trkpt>
      <trkpt lat="42.308269000" lon="-2.533770000">
        <ele>681.70</ele>
        <time>2014-11-01T09:01:09Z</time>
      </trkpt>
      <trkpt lat="42.308271000" lon="-2.533760000">
        <ele>681.90</ele>
        <time>2014-11-01T09:01:10Z</time>
      </trkpt>
      <trkpt lat="42.308277000" lon="-2.533749000">
        <ele>682.00</ele>
        <time>2014-11-01T09:01:11Z</time>
      </trkpt>
      <trkpt lat="42.308283000" lon="-2.533741000">
        <ele>682.10</ele>
        <time>2014-11-01T09:01:12Z</time>
      </trkpt>
      <trkpt lat="42.308288000" lon="-2.533735000">
        <ele>682.20</ele>
        <time>2014-11-01T09:01:13Z</time>
      </trkpt>
      <trkpt lat="42.308291000" lon="-2.533734000">
        <ele>682.30</ele>
        <time>2014-11-01T09:01:14Z</time>
      </trkpt>
      <trkpt lat="42.308290000" lon="-2.533727000">
        <ele>682.40</ele>
        <time>2014-11-01T09:01:15Z</time>
      </trkpt>
      <trkpt lat="42.308288000" lon="-2.533720000">
        <ele>682.50</ele>
        <time>2014-11-01T09:01:16Z</time>
      </trkpt>
      <trkpt lat="42.308291000" lon="-2.533718000">
        <ele>682.60</ele>
        <time>2014-11-01T09:01:17Z</time>
      </trkpt>
      <trkpt lat="42.308291000" lon="-2.533720000">
        <ele>682.70</ele>
        <time>2014-11-01T09:01:18Z</time>
      </trkpt>
      <trkpt lat="42.308294000" lon="-2.533727000">
        <ele>682.80</ele>
        <time>2014-11-01T09:01:19Z</time>
      </trkpt>
      <trkpt lat="42.308304000" lon="-2.533740000">
        <ele>683.00</ele>
        <time>2014-11-01T09:01:20Z</time>
      </trkpt>
      <trkpt lat="42.308303000" lon="-2.533745000">
        <ele>683.10</ele>
        <time>2014-11-01T09:01:21Z</time>
      </trkpt>
      <trkpt lat="42.308293000" lon="-2.533757000">
        <ele>683.10</ele>
        <time>2014-11-01T09:01:22Z</time>
      </trkpt>
      <trkpt lat="42.308276000" lon="-2.533756000">
        <ele>683.10</ele>
        <time>2014-11-01T09:01:23Z</time>
      </trkpt>
      <trkpt lat="42.308251000" lon="-2.533758000">
        <ele>683.10</ele>
        <time>2014-11-01T09:01:25Z</time>
      </trkpt>
      <trkpt lat="42.308241000" lon="-2.533759000">
        <ele>683.10</ele>
        <time>2014-11-01T09:01:26Z</time>
      </trkpt>
      <trkpt lat="42.308232000" lon="-2.533765000">
        <ele>683.00</ele>
        <time>2014-11-01T09:01:27Z</time>
      </trkpt>
      <trkpt lat="42.308226000" lon="-2.533772000">
        <ele>683.00</ele>
        <time>2014-11-01T09:01:28Z</time>
      </trkpt>
      <trkpt lat="42.308226000" lon="-2.533766000">
        <ele>683.00</ele>
        <time>2014-11-01T09:01:29Z</time>
      </trkpt>
      <trkpt lat="42.308227000" lon="-2.533758000">
        <ele>682.90</ele>
        <time>2014-11-01T09:01:30Z</time>
      </trkpt>
      <trkpt lat="42.308232000" lon="-2.533752000">
        <ele>682.80</ele>
        <time>2014-11-01T09:01:31Z</time>
      </trkpt>
      <trkpt lat="42.308233000" lon="-2.533749000">
        <ele>682.70</ele>
        <time>2014-11-01T09:01:32Z</time>
      </trkpt>
      <trkpt lat="42.308233000" lon="-2.533746000">
        <ele>682.60</ele>
        <time>2014-11-01T09:01:33Z</time>
      </trkpt>
      <trkpt lat="42.308237000" lon="-2.533742000">
        <ele>682.60</ele>
        <time>2014-11-01T09:01:34Z</time>
      </trkpt>
      <trkpt lat="42.308248000" lon="-2.533741000">
        <ele>682.50</ele>
        <time>2014-11-01T09:01:35Z</time>
      </trkpt>
      <trkpt lat="42.308262000" lon="-2.533733000">
        <ele>682.50</ele>
        <time>2014-11-01T09:01:36Z</time>
      </trkpt>
      <trkpt lat="42.308277000" lon="-2.533738000">
        <ele>682.50</ele>
        <time>2014-11-01T09:01:37Z</time>
      </trkpt>
      <trkpt lat="42.308283000" lon="-2.533759000">
        <ele>682.50</ele>
        <time>2014-11-01T09:01:38Z</time>
      </trkpt>
      <trkpt lat="42.308289000" lon="-2.533781000">
        <ele>682.50</ele>
        <time>2014-11-01T09:01:39Z</time>
      </trkpt>
      <trkpt lat="42.308280000" lon="-2.533793000">
        <ele>682.50</ele>
        <time>2014-11-01T09:01:40Z</time>
      </trkpt>
      <trkpt lat="42.308274000" lon="-2.533799000">
        <ele>682.40</ele>
        <time>2014-11-01T09:01:41Z</time>
      </trkpt>
      <trkpt lat="42.308270000" lon="-2.533808000">
        <ele>682.40</ele>
        <time>2014-11-01T09:01:42Z</time>
      </trkpt>
      <trkpt lat="42.308266000" lon="-2.533805000">
        <ele>682.40</ele>
        <time>2014-11-01T09:01:43Z</time>
      </trkpt>
      <trkpt lat="42.308261000" lon="-2.533806000">
        <ele>682.40</ele>
        <time>2014-11-01T09:01:44Z</time>
      </trkpt>
      <trkpt lat="42.308256000" lon="-2.533808000">
        <ele>682.40</ele>
        <time>2014-11-01T09:01:45Z</time>
      </trkpt>
      <trkpt lat="42.308251000" lon="-2.533806000">
        <ele>682.40</ele>
        <time>2014-11-01T09:01:46Z</time>
      </trkpt>
      <trkpt lat="42.308247000" lon="-2.533803000">
        <ele>682.40</ele>
        <time>2014-11-01T09:01:47Z</time>
      </trkpt>
      <trkpt lat="42.308243000" lon="-2.533801000">
        <ele>682.40</ele>
        <time>2014-11-01T09:01:48Z</time>
      </trkpt>
      <trkpt lat="42.308240000" lon="-2.533800000">
        <ele>682.40</ele>
        <time>2014-11-01T09:01:49Z</time>
      </trkpt>
      <trkpt lat="42.308235000" lon="-2.533801000">
        <ele>682.40</ele>
        <time>2014-11-01T09:01:50Z</time>
      </trkpt>
      <trkpt lat="42.308233000" lon="-2.533803000">
        <ele>682.30</ele>
        <time>2014-11-01T09:01:51Z</time>
      </trkpt>
      <trkpt lat="42.308230000" lon="-2.533805000">
        <ele>682.30</ele>
        <time>2014-11-01T09:01:52Z</time>
      </trkpt>
      <trkpt lat="42.308227000" lon="-2.533804000">
        <ele>682.40</ele>
        <time>2014-11-01T09:01:53Z</time>
      </trkpt>
      <trkpt lat="42.308225000" lon="-2.533804000">
        <ele>682.20</ele>
        <time>2014-11-01T09:01:54Z</time>
      </trkpt>
      <trkpt lat="42.308221000" lon="-2.533804000">
        <ele>682.10</ele>
        <time>2014-11-01T09:01:55Z</time>
      </trkpt>
      <trkpt lat="42.308219000" lon="-2.533807000">
        <ele>682.10</ele>
        <time>2014-11-01T09:01:56Z</time>
      </trkpt>
      <trkpt lat="42.308216000" lon="-2.533809000">
        <ele>682.00</ele>
        <time>2014-11-01T09:01:57Z</time>
      </trkpt>
      <trkpt lat="42.308213000" lon="-2.533811000">
        <ele>682.00</ele>
        <time>2014-11-01T09:01:58Z</time>
      </trkpt>
      <trkpt lat="42.308209000" lon="-2.533812000">
        <ele>681.90</ele>
        <time>2014-11-01T09:01:59Z</time>
      </trkpt>
      <trkpt lat="42.308207000" lon="-2.533815000">
        <ele>681.90</ele>
        <time>2014-11-01T09:02:00Z</time>
      </trkpt>
      <trkpt lat="42.308203000" lon="-2.533817000">
        <ele>681.90</ele>
        <time>2014-11-01T09:02:01Z</time>
      </trkpt>
      <trkpt lat="42.308200000" lon="-2.533819000">
        <ele>681.80</ele>
        <time>2014-11-01T09:02:02Z</time>
      </trkpt>
      <trkpt lat="42.308198000" lon="-2.533820000">
        <ele>681.70</ele>
        <time>2014-11-01T09:02:03Z</time>
      </trkpt>
      <trkpt lat="42.308195000" lon="-2.533822000">
        <ele>681.70</ele>
        <time>2014-11-01T09:02:04Z</time>
      </trkpt>
      <trkpt lat="42.308193000" lon="-2.533824000">
        <ele>681.70</ele>
        <time>2014-11-01T09:02:05Z</time>
      </trkpt>
      <trkpt lat="42.308191000" lon="-2.533826000">
        <ele>681.70</ele>
        <time>2014-11-01T09:02:06Z</time>
      </trkpt>
      <trkpt lat="42.308190000" lon="-2.533826000">
        <ele>681.70</ele>
        <time>2014-11-01T09:02:07Z</time>
      </trkpt>
      <trkpt lat="42.308190000" lon="-2.533827000">
        <ele>681.80</ele>
        <time>2014-11-01T09:02:08Z</time>
      </trkpt>
      <trkpt lat="42.308188000" lon="-2.533829000">
        <ele>681.80</ele>
        <time>2014-11-01T09:02:09Z</time>
      </trkpt>
      <trkpt lat="42.308187000" lon="-2.533830000">
        <ele>681.80</ele>
        <time>2014-11-01T09:02:10Z</time>
      </trkpt>
      <trkpt lat="42.308188000" lon="-2.533831000">
        <ele>681.80</ele>
        <time>2014-11-01T09:02:11Z</time>
      </trkpt>
      <trkpt lat="42.308186000" lon="-2.533833000">
        <ele>681.80</ele>
        <time>2014-11-01T09:02:12Z</time>
      </trkpt>
      <trkpt lat="42.308184000" lon="-2.533833000">
        <ele>681.80</ele>
        <time>2014-11-01T09:02:13Z</time>
      </trkpt>
      <trkpt lat="42.308185000" lon="-2.533835000">
        <ele>681.80</ele>
        <time>2014-11-01T09:02:14Z</time>
      </trkpt>
      <trkpt lat="42.308184000" lon="-2.533834000">
        <ele>681.80</ele>
        <time>2014-11-01T09:02:15Z</time>
      </trkpt>
      <trkpt lat="42.308187000" lon="-2.533834000">
        <ele>681.90</ele>
        <time>2014-11-01T09:02:16Z</time>
      </trkpt>
      <trkpt lat="42.308203000" lon="-2.533852000">
        <ele>681.90</ele>
        <time>2014-11-01T09:02:17Z</time>
      </trkpt>
      <trkpt lat="42.308213000" lon="-2.533865000">
        <ele>682.00</ele>
        <time>2014-11-01T09:02:18Z</time>
      </trkpt>
      <trkpt lat="42.308220000" lon="-2.533874000">
        <ele>682.00</ele>
        <time>2014-11-01T09:02:19Z</time>
      </trkpt>
      <trkpt lat="42.308227000" lon="-2.533881000">
        <ele>681.90</ele>
        <time>2014-11-01T09:02:20Z</time>
      </trkpt>
      <trkpt lat="42.308234000" lon="-2.533886000">
        <ele>681.90</ele>
        <time>2014-11-01T09:02:21Z</time>
      </trkpt>
      <trkpt lat="42.308235000" lon="-2.533890000">
        <ele>681.80</ele>
        <time>2014-11-01T09:02:22Z</time>
      </trkpt>
      <trkpt lat="42.308237000" lon="-2.533892000">
        <ele>681.60</ele>
        <time>2014-11-01T09:02:23Z</time>
      </trkpt>
      <trkpt lat="42.308242000" lon="-2.533895000">
        <ele>681.50</ele>
        <time>2014-11-01T09:02:24Z</time>
      </trkpt>
      <trkpt lat="42.308251000" lon="-2.533891000">
        <ele>681.30</ele>
        <time>2014-11-01T09:02:26Z</time>
      </trkpt>
      <trkpt lat="42.308248000" lon="-2.533889000">
        <ele>681.20</ele>
        <time>2014-11-01T09:02:27Z</time>
      </trkpt>
      <trkpt lat="42.308249000" lon="-2.533886000">
        <ele>681.30</ele>
        <time>2014-11-01T09:02:28Z</time>
      </trkpt>
      <trkpt lat="42.308248000" lon="-2.533882000">
        <ele>681.30</ele>
        <time>2014-11-01T09:02:29Z</time>
      </trkpt>
      <trkpt lat="42.308248000" lon="-2.533882000">
        <ele>681.40</ele>
        <time>2014-11-01T09:02:30Z</time>
      </trkpt>
      <trkpt lat="42.308247000" lon="-2.533880000">
        <ele>681.60</ele>
        <time>2014-11-01T09:02:31Z</time>
      </trkpt>
      <trkpt lat="42.308246000" lon="-2.533879000">
        <ele>681.60</ele>
        <time>2014-11-01T09:02:32Z</time>
      </trkpt>
      <trkpt lat="42.308246000" lon="-2.533877000">
        <ele>681.70</ele>
        <time>2014-11-01T09:02:33Z</time>
      </trkpt>
      <trkpt lat="42.308245000" lon="-2.533875000">
        <ele>681.70</ele>
        <time>2014-11-01T09:02:34Z</time>
      </trkpt>
      <trkpt lat="42.308245000" lon="-2.533873000">
        <ele>681.70</ele>
        <time>2014-11-01T09:02:35Z</time>
      </trkpt>
      <trkpt lat="42.308243000" lon="-2.533870000">
        <ele>681.70</ele>
        <time>2014-11-01T09:02:36Z</time>
      </trkpt>
      <trkpt lat="42.308241000" lon="-2.533867000">
        <ele>681.70</ele>
        <time>2014-11-01T09:02:37Z</time>
      </trkpt>
      <trkpt lat="42.308240000" lon="-2.533864000">
        <ele>681.70</ele>
        <time>2014-11-01T09:02:38Z</time>
      </trkpt>
      <trkpt lat="42.308240000" lon="-2.533864000">
        <ele>681.80</ele>
        <time>2014-11-01T09:02:39Z</time>
      </trkpt>
      <trkpt lat="42.308239000" lon="-2.533863000">
        <ele>681.80</ele>
        <time>2014-11-01T09:02:40Z</time>
      </trkpt>
      <trkpt lat="42.308237000" lon="-2.533864000">
        <ele>681.80</ele>
        <time>2014-11-01T09:02:41Z</time>
      </trkpt>
      <trkpt lat="42.308236000" lon="-2.533863000">
        <ele>681.80</ele>
        <time>2014-11-01T09:02:42Z</time>
      </trkpt>
      <trkpt lat="42.308234000" lon="-2.533866000">
        <ele>681.90</ele>
        <time>2014-11-01T09:02:43Z</time>
      </trkpt>
      <trkpt lat="42.308233000" lon="-2.533869000">
        <ele>681.80</ele>
        <time>2014-11-01T09:02:44Z</time>
      </trkpt>
      <trkpt lat="42.308230000" lon="-2.533871000">
        <ele>681.80</ele>
        <time>2014-11-01T09:02:45Z</time>
      </trkpt>
      <trkpt lat="42.308227000" lon="-2.533872000">
        <ele>681.90</ele>
        <time>2014-11-01T09:02:46Z</time>
      </trkpt>
      <trkpt lat="42.308224000" lon="-2.533875000">
        <ele>682.00</ele>
        <time>2014-11-01T09:02:47Z</time>
      </trkpt>
      <trkpt lat="42.308220000" lon="-2.533877000">
        <ele>681.90</ele>
        <time>2014-11-01T09:02:48Z</time>
      </trkpt>
      <trkpt lat="42.308218000" lon="-2.533876000">
        <ele>681.90</ele>
        <time>2014-11-01T09:02:49Z</time>
      </trkpt>
      <trkpt lat="42.308217000" lon="-2.533874000">
        <ele>681.80</ele>
        <time>2014-11-01T09:02:50Z</time>
      </trkpt>
      <trkpt lat="42.308216000" lon="-2.533870000">
        <ele>681.80</ele>
        <time>2014-11-01T09:02:51Z</time>
      </trkpt>
      <trkpt lat="42.308217000" lon="-2.533866000">
        <ele>681.80</ele>
        <time>2014-11-01T09:02:52Z</time>
      </trkpt>
      <trkpt lat="42.308217000" lon="-2.533862000">
        <ele>681.80</ele>
        <time>2014-11-01T09:02:53Z</time>
      </trkpt>
      <trkpt lat="42.308218000" lon="-2.533856000">
        <ele>681.80</ele>
        <time>2014-11-01T09:02:54Z</time>
      </trkpt>
      <trkpt lat="42.308220000" lon="-2.533852000">
        <ele>681.90</ele>
        <time>2014-11-01T09:02:55Z</time>
      </trkpt>
      <trkpt lat="42.308220000" lon="-2.533847000">
        <ele>681.90</ele>
        <time>2014-11-01T09:02:56Z</time>
      </trkpt>
      <trkpt lat="42.308220000" lon="-2.533841000">
        <ele>681.90</ele>
        <time>2014-11-01T09:02:57Z</time>
      </trkpt>
      <trkpt lat="42.308219000" lon="-2.533836000">
        <ele>681.80</ele>
        <time>2014-11-01T09:02:58Z</time>
      </trkpt>
      <trkpt lat="42.308218000" lon="-2.533830000">
        <ele>681.80</ele>
        <time>2014-11-01T09:02:59Z</time>
      </trkpt>
      <trkpt lat="42.308218000" lon="-2.533825000">
        <ele>681.70</ele>
        <time>2014-11-01T09:03:00Z</time>
      </trkpt>
      <trkpt lat="42.308220000" lon="-2.533821000">
        <ele>681.70</ele>
        <time>2014-11-01T09:03:01Z</time>
      </trkpt>
      <trkpt lat="42.308222000" lon="-2.533816000">
        <ele>681.80</ele>
        <time>2014-11-01T09:03:02Z</time>
      </trkpt>
      <trkpt lat="42.308227000" lon="-2.533806000">
        <ele>681.80</ele>
        <time>2014-11-01T09:03:03Z</time>
      </trkpt>
      <trkpt lat="42.308228000" lon="-2.533797000">
        <ele>681.90</ele>
        <time>2014-11-01T09:03:04Z</time>
      </trkpt>
      <trkpt lat="42.308228000" lon="-2.533787000">
        <ele>681.90</ele>
        <time>2014-11-01T09:03:05Z</time>
      </trkpt>
      <trkpt lat="42.308230000" lon="-2.533781000">
        <ele>682.00</ele>
        <time>2014-11-01T09:03:06Z</time>
      </trkpt>
      <trkpt lat="42.308231000" lon="-2.533777000">
        <ele>682.00</ele>
        <time>2014-11-01T09:03:07Z</time>
      </trkpt>
      <trkpt lat="42.308232000" lon="-2.533774000">
        <ele>682.00</ele>
        <time>2014-11-01T09:03:08Z</time>
      </trkpt>
      <trkpt lat="42.308233000" lon="-2.533774000">
        <ele>682.00</ele>
        <time>2014-11-01T09:03:09Z</time>
      </trkpt>
      <trkpt lat="42.308234000" lon="-2.533775000">
        <ele>682.00</ele>
        <time>2014-11-01T09:03:10Z</time>
      </trkpt>
      <trkpt lat="42.308234000" lon="-2.533776000">
        <ele>682.10</ele>
        <time>2014-11-01T09:03:11Z</time>
      </trkpt>
      <trkpt lat="42.308235000" lon="-2.533773000">
        <ele>682.10</ele>
        <time>2014-11-01T09:03:12Z</time>
      </trkpt>
      <trkpt lat="42.308237000" lon="-2.533773000">
        <ele>682.20</ele>
        <time>2014-11-01T09:03:13Z</time>
      </trkpt>
      <trkpt lat="42.308240000" lon="-2.533775000">
        <ele>682.00</ele>
        <time>2014-11-01T09:03:14Z</time>
      </trkpt>
      <trkpt lat="42.308240000" lon="-2.533776000">
        <ele>681.80</ele>
        <time>2014-11-01T09:03:15Z</time>
      </trkpt>
      <trkpt lat="42.308240000" lon="-2.533777000">
        <ele>682.00</ele>
        <time>2014-11-01T09:03:16Z</time>
      </trkpt>
      <trkpt lat="42.308240000" lon="-2.533778000">
        <ele>682.10</ele>
        <time>2014-11-01T09:03:17Z</time>
      </trkpt>
      <trkpt lat="42.308241000" lon="-2.533780000">
        <ele>682.00</ele>
        <time>2014-11-01T09:03:18Z</time>
      </trkpt>
      <trkpt lat="42.308242000" lon="-2.533782000">
        <ele>682.00</ele>
        <time>2014-11-01T09:03:19Z</time>
      </trkpt>
      <trkpt lat="42.308242000" lon="-2.533784000">
        <ele>682.00</ele>
        <time>2014-11-01T09:03:20Z</time>
      </trkpt>
      <trkpt lat="42.308242000" lon="-2.533787000">
        <ele>682.00</ele>
        <time>2014-11-01T09:03:21Z</time>
      </trkpt>
      <trkpt lat="42.308241000" lon="-2.533788000">
        <ele>682.00</ele>
        <time>2014-11-01T09:03:22Z</time>
      </trkpt>
      <trkpt lat="42.308240000" lon="-2.533791000">
        <ele>682.00</ele>
        <time>2014-11-01T09:03:23Z</time>
      </trkpt>
      <trkpt lat="42.308239000" lon="-2.533796000">
        <ele>682.00</ele>
        <time>2014-11-01T09:03:24Z</time>
      </trkpt>
      <trkpt lat="42.308239000" lon="-2.533799000">
        <ele>682.00</ele>
        <time>2014-11-01T09:03:25Z</time>
      </trkpt>
      <trkpt lat="42.308237000" lon="-2.533803000">
        <ele>681.90</ele>
        <time>2014-11-01T09:03:27Z</time>
      </trkpt>
      <trkpt lat="42.308236000" lon="-2.533807000">
        <ele>681.80</ele>
        <time>2014-11-01T09:03:28Z</time>
      </trkpt>
      <trkpt lat="42.308236000" lon="-2.533811000">
        <ele>681.80</ele>
        <time>2014-11-01T09:03:29Z</time>
      </trkpt>
      <trkpt lat="42.308236000" lon="-2.533814000">
        <ele>681.90</ele>
        <time>2014-11-01T09:03:30Z</time>
      </trkpt>
      <trkpt lat="42.308235000" lon="-2.533818000">
        <ele>681.90</ele>
        <time>2014-11-01T09:03:31Z</time>
      </trkpt>
      <trkpt lat="42.308235000" lon="-2.533824000">
        <ele>681.90</ele>
        <time>2014-11-01T09:03:32Z</time>
      </trkpt>
      <trkpt lat="42.308232000" lon="-2.533830000">
        <ele>681.90</ele>
        <time>2014-11-01T09:03:33Z</time>
      </trkpt>
      <trkpt lat="42.308230000" lon="-2.533835000">
        <ele>682.00</ele>
        <time>2014-11-01T09:03:34Z</time>
      </trkpt>
      <trkpt lat="42.308229000" lon="-2.533838000">
        <ele>682.10</ele>
        <time>2014-11-01T09:03:35Z</time>
      </trkpt>
      <trkpt lat="42.308227000" lon="-2.533841000">
        <ele>682.10</ele>
        <time>2014-11-01T09:03:36Z</time>
      </trkpt>
      <trkpt lat="42.308227000" lon="-2.533843000">
        <ele>682.20</ele>
        <time>2014-11-01T09:03:37Z</time>
      </trkpt>
      <trkpt lat="42.308226000" lon="-2.533846000">
        <ele>682.20</ele>
        <time>2014-11-01T09:03:38Z</time>
      </trkpt>
      <trkpt lat="42.308225000" lon="-2.533846000">
        <ele>682.30</ele>
        <time>2014-11-01T09:03:39Z</time>
      </trkpt>
      <trkpt lat="42.308224000" lon="-2.533848000">
        <ele>682.30</ele>
        <time>2014-11-01T09:03:40Z</time>
      </trkpt>
      <trkpt lat="42.308223000" lon="-2.533846000">
        <ele>682.30</ele>
        <time>2014-11-01T09:03:41Z</time>
      </trkpt>
      <trkpt lat="42.308222000" lon="-2.533844000">
        <ele>682.30</ele>
        <time>2014-11-01T09:03:42Z</time>
      </trkpt>
      <trkpt lat="42.308221000" lon="-2.533841000">
        <ele>682.30</ele>
        <time>2014-11-01T09:03:43Z</time>
      </trkpt>
      <trkpt lat="42.308220000" lon="-2.533840000">
        <ele>682.30</ele>
        <time>2014-11-01T09:03:44Z</time>
      </trkpt>
      <trkpt lat="42.308219000" lon="-2.533839000">
        <ele>682.30</ele>
        <time>2014-11-01T09:03:45Z</time>
      </trkpt>
      <trkpt lat="42.308219000" lon="-2.533835000">
        <ele>682.30</ele>
        <time>2014-11-01T09:03:46Z</time>
      </trkpt>
      <trkpt lat="42.308219000" lon="-2.533831000">
        <ele>682.30</ele>
        <time>2014-11-01T09:03:47Z</time>
      </trkpt>
      <trkpt lat="42.308219000" lon="-2.533830000">
        <ele>682.30</ele>
        <time>2014-11-01T09:03:48Z</time>
      </trkpt>
      <trkpt lat="42.308220000" lon="-2.533829000">
        <ele>682.30</ele>
        <time>2014-11-01T09:03:49Z</time>
      </trkpt>
      <trkpt lat="42.308220000" lon="-2.533827000">
        <ele>682.30</ele>
        <time>2014-11-01T09:03:50Z</time>
      </trkpt>
      <trkpt lat="42.308219000" lon="-2.533825000">
        <ele>682.30</ele>
        <time>2014-11-01T09:03:51Z</time>
      </trkpt>
      <trkpt lat="42.308217000" lon="-2.533825000">
        <ele>682.10</ele>
        <time>2014-11-01T09:03:52Z</time>
      </trkpt>
      <trkpt lat="42.308217000" lon="-2.533826000">
        <ele>682.00</ele>
        <time>2014-11-01T09:03:53Z</time>
      </trkpt>
      <trkpt lat="42.308217000" lon="-2.533827000">
        <ele>682.00</ele>
        <time>2014-11-01T09:03:54Z</time>
      </trkpt>
      <trkpt lat="42.308215000" lon="-2.533828000">
        <ele>682.00</ele>
        <time>2014-11-01T09:03:55Z</time>
      </trkpt>
      <trkpt lat="42.308213000" lon="-2.533828000">
        <ele>681.90</ele>
        <time>2014-11-01T09:03:56Z</time>
      </trkpt>
      <trkpt lat="42.308214000" lon="-2.533830000">
        <ele>681.90</ele>
        <time>2014-11-01T09:03:57Z</time>
      </trkpt>
      <trkpt lat="42.308214000" lon="-2.533833000">
        <ele>681.90</ele>
        <time>2014-11-01T09:03:58Z</time>
      </trkpt>
      <trkpt lat="42.308213000" lon="-2.533835000">
        <ele>681.90</ele>
        <time>2014-11-01T09:03:59Z</time>
      </trkpt>
      <trkpt lat="42.308211000" lon="-2.533837000">
        <ele>682.00</ele>
        <time>2014-11-01T09:04:00Z</time>
      </trkpt>
      <trkpt lat="42.308210000" lon="-2.533841000">
        <ele>682.10</ele>
        <time>2014-11-01T09:04:01Z</time>
      </trkpt>
      <trkpt lat="42.308209000" lon="-2.533844000">
        <ele>682.00</ele>
        <time>2014-11-01T09:04:02Z</time>
      </trkpt>
      <trkpt lat="42.308209000" lon="-2.533849000">
        <ele>682.00</ele>
        <time>2014-11-01T09:04:03Z</time>
      </trkpt>
      <trkpt lat="42.308208000" lon="-2.533852000">
        <ele>682.00</ele>
        <time>2014-11-01T09:04:04Z</time>
      </trkpt>
      <trkpt lat="42.308206000" lon="-2.533857000">
        <ele>682.00</ele>
        <time>2014-11-01T09:04:05Z</time>
      </trkpt>
      <trkpt lat="42.308206000" lon="-2.533860000">
        <ele>682.00</ele>
        <time>2014-11-01T09:04:06Z</time>
      </trkpt>
      <trkpt lat="42.308205000" lon="-2.533866000">
        <ele>682.00</ele>
        <time>2014-11-01T09:04:07Z</time>
      </trkpt>
      <trkpt lat="42.308204000" lon="-2.533870000">
        <ele>682.00</ele>
        <time>2014-11-01T09:04:08Z</time>
      </trkpt>
      <trkpt lat="42.308204000" lon="-2.533874000">
        <ele>682.00</ele>
        <time>2014-11-01T09:04:09Z</time>
      </trkpt>
      <trkpt lat="42.308205000" lon="-2.533878000">
        <ele>682.10</ele>
        <time>2014-11-01T09:04:10Z</time>
      </trkpt>
      <trkpt lat="42.308205000" lon="-2.533881000">
        <ele>682.10</ele>
        <time>2014-11-01T09:04:11Z</time>
      </trkpt>
      <trkpt lat="42.308206000" lon="-2.533885000">
        <ele>682.20</ele>
        <time>2014-11-01T09:04:12Z</time>
      </trkpt>
      <trkpt lat="42.308206000" lon="-2.533887000">
        <ele>682.20</ele>
        <time>2014-11-01T09:04:13Z</time>
      </trkpt>
      <trkpt lat="42.308206000" lon="-2.533886000">
        <ele>682.30</ele>
        <time>2014-11-01T09:04:14Z</time>
      </trkpt>
      <trkpt lat="42.308207000" lon="-2.533885000">
        <ele>682.40</ele>
        <time>2014-11-01T09:04:15Z</time>
      </trkpt>
      <trkpt lat="42.308206000" lon="-2.533882000">
        <ele>682.40</ele>
        <time>2014-11-01T09:04:16Z</time>
      </trkpt>
      <trkpt lat="42.308206000" lon="-2.533879000">
        <ele>682.50</ele>
        <time>2014-11-01T09:04:17Z</time>
      </trkpt>
      <trkpt lat="42.308206000" lon="-2.533876000">
        <ele>682.50</ele>
        <time>2014-11-01T09:04:18Z</time>
      </trkpt>
      <trkpt lat="42.308206000" lon="-2.533877000">
        <ele>682.50</ele>
        <time>2014-11-01T09:04:19Z</time>
      </trkpt>
      <trkpt lat="42.308205000" lon="-2.533876000">
        <ele>682.40</ele>
        <time>2014-11-01T09:04:20Z</time>
      </trkpt>
      <trkpt lat="42.308204000" lon="-2.533877000">
        <ele>682.30</ele>
        <time>2014-11-01T09:04:21Z</time>
      </trkpt>
      <trkpt lat="42.308203000" lon="-2.533877000">
        <ele>682.10</ele>
        <time>2014-11-01T09:04:22Z</time>
      </trkpt>
      <trkpt lat="42.308205000" lon="-2.533873000">
        <ele>682.00</ele>
        <time>2014-11-01T09:04:23Z</time>
      </trkpt>
      <trkpt lat="42.308205000" lon="-2.533869000">
        <ele>681.90</ele>
        <time>2014-11-01T09:04:24Z</time>
      </trkpt>
      <trkpt lat="42.308207000" lon="-2.533865000">
        <ele>681.80</ele>
        <time>2014-11-01T09:04:25Z</time>
      </trkpt>
      <trkpt lat="42.308207000" lon="-2.533859000">
        <ele>681.80</ele>
        <time>2014-11-01T09:04:26Z</time>
      </trkpt>
      <trkpt lat="42.308209000" lon="-2.533852000">
        <ele>681.60</ele>
        <time>2014-11-01T09:04:28Z</time>
      </trkpt>
      <trkpt lat="42.308210000" lon="-2.533847000">
        <ele>681.50</ele>
        <time>2014-11-01T09:04:29Z</time>
      </trkpt>
      <trkpt lat="42.308212000" lon="-2.533842000">
        <ele>681.60</ele>
        <time>2014-11-01T09:04:30Z</time>
      </trkpt>
      <trkpt lat="42.308213000" lon="-2.533838000">
        <ele>681.60</ele>
        <time>2014-11-01T09:04:31Z</time>
      </trkpt>
      <trkpt lat="42.308214000" lon="-2.533837000">
        <ele>681.60</ele>
        <time>2014-11-01T09:04:32Z</time>
      </trkpt>
      <trkpt lat="42.308213000" lon="-2.533836000">
        <ele>681.70</ele>
        <time>2014-11-01T09:04:33Z</time>
      </trkpt>
      <trkpt lat="42.308212000" lon="-2.533834000">
        <ele>681.70</ele>
        <time>2014-11-01T09:04:34Z</time>
      </trkpt>
      <trkpt lat="42.308213000" lon="-2.533832000">
        <ele>681.70</ele>
        <time>2014-11-01T09:04:35Z</time>
      </trkpt>
      <trkpt lat="42.308212000" lon="-2.533829000">
        <ele>681.60</ele>
        <time>2014-11-01T09:04:36Z</time>
      </trkpt>
      <trkpt lat="42.308212000" lon="-2.533828000">
        <ele>681.60</ele>
        <time>2014-11-01T09:04:37Z</time>
      </trkpt>
      <trkpt lat="42.308211000" lon="-2.533829000">
        <ele>681.60</ele>
        <time>2014-11-01T09:04:38Z</time>
      </trkpt>
      <trkpt lat="42.308210000" lon="-2.533829000">
        <ele>681.50</ele>
        <time>2014-11-01T09:04:39Z</time>
      </trkpt>
      <trkpt lat="42.308210000" lon="-2.533828000">
        <ele>681.60</ele>
        <time>2014-11-01T09:04:40Z</time>
      </trkpt>
      <trkpt lat="42.308210000" lon="-2.533828000">
        <ele>681.70</ele>
        <time>2014-11-01T09:04:41Z</time>
      </trkpt>
      <trkpt lat="42.308209000" lon="-2.533829000">
        <ele>681.80</ele>
        <time>2014-11-01T09:04:42Z</time>
      </trkpt>
      <trkpt lat="42.308208000" lon="-2.533830000">
        <ele>681.80</ele>
        <time>2014-11-01T09:04:43Z</time>
      </trkpt>
      <trkpt lat="42.308207000" lon="-2.533833000">
        <ele>681.90</ele>
        <time>2014-11-01T09:04:44Z</time>
      </trkpt>
      <trkpt lat="42.308207000" lon="-2.533837000">
        <ele>681.90</ele>
        <time>2014-11-01T09:04:45Z</time>
      </trkpt>
      <trkpt lat="42.308206000" lon="-2.533840000">
        <ele>681.90</ele>
        <time>2014-11-01T09:04:46Z</time>
      </trkpt>
      <trkpt lat="42.308206000" lon="-2.533844000">
        <ele>681.90</ele>
        <time>2014-11-01T09:04:47Z</time>
      </trkpt>
      <trkpt lat="42.308206000" lon="-2.533849000">
        <ele>681.90</ele>
        <time>2014-11-01T09:04:48Z</time>
      </trkpt>
      <trkpt lat="42.308209000" lon="-2.533851000">
        <ele>681.90</ele>
        <time>2014-11-01T09:04:49Z</time>
      </trkpt>
      <trkpt lat="42.308210000" lon="-2.533857000">
        <ele>681.80</ele>
        <time>2014-11-01T09:04:50Z</time>
      </trkpt>
      <trkpt lat="42.308209000" lon="-2.533861000">
        <ele>681.80</ele>
        <time>2014-11-01T09:04:51Z</time>
      </trkpt>
      <trkpt lat="42.308208000" lon="-2.533866000">
        <ele>681.90</ele>
        <time>2014-11-01T09:04:52Z</time>
      </trkpt>
      <trkpt lat="42.308208000" lon="-2.533867000">
        <ele>681.90</ele>
        <time>2014-11-01T09:04:53Z</time>
      </trkpt>
      <trkpt lat="42.308211000" lon="-2.533865000">
        <ele>681.90</ele>
        <time>2014-11-01T09:04:54Z</time>
      </trkpt>
      <trkpt lat="42.308212000" lon="-2.533864000">
        <ele>681.90</ele>
        <time>2014-11-01T09:04:55Z</time>
      </trkpt>
      <trkpt lat="42.308213000" lon="-2.533865000">
        <ele>681.90</ele>
        <time>2014-11-01T09:04:56Z</time>
      </trkpt>
      <trkpt lat="42.308214000" lon="-2.533863000">
        <ele>681.90</ele>
        <time>2014-11-01T09:04:57Z</time>
      </trkpt>
      <trkpt lat="42.308215000" lon="-2.533862000">
        <ele>681.90</ele>
        <time>2014-11-01T09:04:58Z</time>
      </trkpt>
      <trkpt lat="42.308216000" lon="-2.533862000">
        <ele>681.90</ele>
        <time>2014-11-01T09:04:59Z</time>
      </trkpt>
      <trkpt lat="42.308217000" lon="-2.533863000">
        <ele>682.00</ele>
        <time>2014-11-01T09:05:00Z</time>
      </trkpt>
      <trkpt lat="42.308215000" lon="-2.533868000">
        <ele>682.10</ele>
        <time>2014-11-01T09:05:01Z</time>
      </trkpt>
      <trkpt lat="42.308215000" lon="-2.533868000">
        <ele>682.20</ele>
        <time>2014-11-01T09:05:02Z</time>
      </trkpt>
      <trkpt lat="42.308213000" lon="-2.533868000">
        <ele>682.30</ele>
        <time>2014-11-01T09:05:03Z</time>
      </trkpt>
      <trkpt lat="42.308215000" lon="-2.533864000">
        <ele>682.40</ele>
        <time>2014-11-01T09:05:04Z</time>
      </trkpt>
      <trkpt lat="42.308216000" lon="-2.533862000">
        <ele>682.40</ele>
        <time>2014-11-01T09:05:05Z</time>
      </trkpt>
      <trkpt lat="42.308213000" lon="-2.533863000">
        <ele>682.30</ele>
        <time>2014-11-01T09:05:06Z</time>
      </trkpt>
      <trkpt lat="42.308213000" lon="-2.533858000">
        <ele>682.20</ele>
        <time>2014-11-01T09:05:07Z</time>
      </trkpt>
      <trkpt lat="42.308212000" lon="-2.533852000">
        <ele>682.10</ele>
        <time>2014-11-01T09:05:08Z</time>
      </trkpt>
      <trkpt lat="42.308210000" lon="-2.533850000">
        <ele>682.00</ele>
        <time>2014-11-01T09:05:09Z</time>
      </trkpt>
      <trkpt lat="42.308212000" lon="-2.533849000">
        <ele>681.90</ele>
        <time>2014-11-01T09:05:10Z</time>
      </trkpt>
      <trkpt lat="42.308211000" lon="-2.533846000">
        <ele>681.90</ele>
        <time>2014-11-01T09:05:11Z</time>
      </trkpt>
      <trkpt lat="42.308210000" lon="-2.533845000">
        <ele>681.80</ele>
        <time>2014-11-01T09:05:12Z</time>
      </trkpt>
      <trkpt lat="42.308212000" lon="-2.533842000">
        <ele>681.80</ele>
        <time>2014-11-01T09:05:13Z</time>
      </trkpt>
      <trkpt lat="42.308211000" lon="-2.533838000">
        <ele>681.80</ele>
        <time>2014-11-01T09:05:14Z</time>
      </trkpt>
      <trkpt lat="42.308211000" lon="-2.533839000">
        <ele>681.80</ele>
        <time>2014-11-01T09:05:15Z</time>
      </trkpt>
      <trkpt lat="42.308209000" lon="-2.533845000">
        <ele>681.90</ele>
        <time>2014-11-01T09:05:16Z</time>
      </trkpt>
      <trkpt lat="42.308207000" lon="-2.533844000">
        <ele>681.90</ele>
        <time>2014-11-01T09:05:17Z</time>
      </trkpt>
      <trkpt lat="42.308206000" lon="-2.533842000">
        <ele>681.90</ele>
        <time>2014-11-01T09:05:18Z</time>
      </trkpt>
      <trkpt lat="42.308203000" lon="-2.533842000">
        <ele>681.90</ele>
        <time>2014-11-01T09:05:19Z</time>
      </trkpt>
      <trkpt lat="42.308202000" lon="-2.533840000">
        <ele>681.90</ele>
        <time>2014-11-01T09:05:20Z</time>
      </trkpt>
      <trkpt lat="42.308200000" lon="-2.533840000">
        <ele>681.90</ele>
        <time>2014-11-01T09:05:21Z</time>
      </trkpt>
      <trkpt lat="42.308199000" lon="-2.533840000">
        <ele>681.80</ele>
        <time>2014-11-01T09:05:22Z</time>
      </trkpt>
      <trkpt lat="42.308200000" lon="-2.533839000">
        <ele>681.80</ele>
        <time>2014-11-01T09:05:23Z</time>
      </trkpt>
      <trkpt lat="42.308198000" lon="-2.533840000">
        <ele>681.90</ele>
        <time>2014-11-01T09:05:24Z</time>
      </trkpt>
      <trkpt lat="42.308196000" lon="-2.533840000">
        <ele>682.00</ele>
        <time>2014-11-01T09:05:25Z</time>
      </trkpt>
      <trkpt lat="42.308195000" lon="-2.533841000">
        <ele>682.00</ele>
        <time>2014-11-01T09:05:26Z</time>
      </trkpt>
      <trkpt lat="42.308193000" lon="-2.533841000">
        <ele>682.10</ele>
        <time>2014-11-01T09:05:27Z</time>
      </trkpt>
      <trkpt lat="42.308193000" lon="-2.533837000">
        <ele>682.10</ele>
        <time>2014-11-01T09:05:29Z</time>
      </trkpt>
      <trkpt lat="42.308194000" lon="-2.533834000">
        <ele>682.10</ele>
        <time>2014-11-01T09:05:30Z</time>
      </trkpt>
      <trkpt lat="42.308196000" lon="-2.533831000">
        <ele>682.10</ele>
        <time>2014-11-01T09:05:31Z</time>
      </trkpt>
      <trkpt lat="42.308197000" lon="-2.533828000">
        <ele>682.10</ele>
        <time>2014-11-01T09:05:32Z</time>
      </trkpt>
      <trkpt lat="42.308200000" lon="-2.533824000">
        <ele>682.10</ele>
        <time>2014-11-01T09:05:33Z</time>
      </trkpt>
      <trkpt lat="42.308201000" lon="-2.533823000">
        <ele>682.20</ele>
        <time>2014-11-01T09:05:34Z</time>
      </trkpt>
      <trkpt lat="42.308202000" lon="-2.533821000">
        <ele>682.30</ele>
        <time>2014-11-01T09:05:35Z</time>
      </trkpt>
      <trkpt lat="42.308202000" lon="-2.533818000">
        <ele>682.30</ele>
        <time>2014-11-01T09:05:36Z</time>
      </trkpt>
      <trkpt lat="42.308202000" lon="-2.533814000">
        <ele>682.30</ele>
        <time>2014-11-01T09:05:37Z</time>
      </trkpt>
      <trkpt lat="42.308203000" lon="-2.533809000">
        <ele>682.30</ele>
        <time>2014-11-01T09:05:38Z</time>
      </trkpt>
      <trkpt lat="42.308204000" lon="-2.533810000">
        <ele>682.30</ele>
        <time>2014-11-01T09:05:39Z</time>
      </trkpt>
      <trkpt lat="42.308206000" lon="-2.533808000">
        <ele>682.30</ele>
        <time>2014-11-01T09:05:40Z</time>
      </trkpt>
      <trkpt lat="42.308207000" lon="-2.533805000">
        <ele>682.30</ele>
        <time>2014-11-01T09:05:41Z</time>
      </trkpt>
      <trkpt lat="42.308206000" lon="-2.533810000">
        <ele>682.40</ele>
        <time>2014-11-01T09:05:42Z</time>
      </trkpt>
      <trkpt lat="42.308206000" lon="-2.533808000">
        <ele>682.50</ele>
        <time>2014-11-01T09:05:43Z</time>
      </trkpt>
      <trkpt lat="42.308205000" lon="-2.533806000">
        <ele>682.60</ele>
        <time>2014-11-01T09:05:44Z</time>
      </trkpt>
      <trkpt lat="42.308206000" lon="-2.533803000">
        <ele>682.60</ele>
        <time>2014-11-01T09:05:45Z</time>
      </trkpt>
      <trkpt lat="42.308207000" lon="-2.533801000">
        <ele>682.70</ele>
        <time>2014-11-01T09:05:46Z</time>
      </trkpt>
      <trkpt lat="42.308207000" lon="-2.533807000">
        <ele>682.70</ele>
        <time>2014-11-01T09:05:47Z</time>
      </trkpt>
      <trkpt lat="42.308208000" lon="-2.533804000">
        <ele>682.40</ele>
        <time>2014-11-01T09:05:48Z</time>
      </trkpt>
      <trkpt lat="42.308208000" lon="-2.533808000">
        <ele>682.20</ele>
        <time>2014-11-01T09:05:49Z</time>
      </trkpt>
      <trkpt lat="42.308208000" lon="-2.533813000">
        <ele>682.00</ele>
        <time>2014-11-01T09:05:50Z</time>
      </trkpt>
      <trkpt lat="42.308209000" lon="-2.533819000">
        <ele>681.90</ele>
        <time>2014-11-01T09:05:51Z</time>
      </trkpt>
      <trkpt lat="42.308210000" lon="-2.533826000">
        <ele>681.80</ele>
        <time>2014-11-01T09:05:52Z</time>
      </trkpt>
      <trkpt lat="42.308213000" lon="-2.533824000">
        <ele>681.80</ele>
        <time>2014-11-01T09:05:53Z</time>
      </trkpt>
      <trkpt lat="42.308216000" lon="-2.533821000">
        <ele>681.80</ele>
        <time>2014-11-01T09:05:54Z</time>
      </trkpt>
      <trkpt lat="42.308218000" lon="-2.533817000">
        <ele>681.80</ele>
        <time>2014-11-01T09:05:55Z</time>
      </trkpt>
      <trkpt lat="42.308220000" lon="-2.533816000">
        <ele>681.90</ele>
        <time>2014-11-01T09:05:56Z</time>
      </trkpt>
      <trkpt lat="42.308223000" lon="-2.533814000">
        <ele>681.90</ele>
        <time>2014-11-01T09:05:57Z</time>
      </trkpt>
      <trkpt lat="42.308225000" lon="-2.533812000">
        <ele>682.00</ele>
        <time>2014-11-01T09:05:58Z</time>
      </trkpt>
      <trkpt lat="42.308225000" lon="-2.533811000">
        <ele>682.00</ele>
        <time>2014-11-01T09:05:59Z</time>
      </trkpt>
      <trkpt lat="42.308226000" lon="-2.533811000">
        <ele>682.00</ele>
        <time>2014-11-01T09:06:00Z</time>
      </trkpt>
      <trkpt lat="42.308229000" lon="-2.533810000">
        <ele>681.90</ele>
        <time>2014-11-01T09:06:01Z</time>
      </trkpt>
      <trkpt lat="42.308231000" lon="-2.533808000">
        <ele>681.90</ele>
        <time>2014-11-01T09:06:02Z</time>
      </trkpt>
      <trkpt lat="42.308232000" lon="-2.533809000">
        <ele>681.80</ele>
        <time>2014-11-01T09:06:03Z</time>
      </trkpt>
      <trkpt lat="42.308233000" lon="-2.533810000">
        <ele>681.80</ele>
        <time>2014-11-01T09:06:04Z</time>
      </trkpt>
      <trkpt lat="42.308234000" lon="-2.533811000">
        <ele>681.70</ele>
        <time>2014-11-01T09:06:05Z</time>
      </trkpt>
      <trkpt lat="42.308235000" lon="-2.533811000">
        <ele>681.80</ele>
        <time>2014-11-01T09:06:06Z</time>
      </trkpt>
      <trkpt lat="42.308235000" lon="-2.533812000">
        <ele>681.80</ele>
        <time>2014-11-01T09:06:07Z</time>
      </trkpt>
      <trkpt lat="42.308235000" lon="-2.533812000">
        <ele>681.90</ele>
        <time>2014-11-01T09:06:08Z</time>
      </trkpt>
      <trkpt lat="42.308234000" lon="-2.533814000">
        <ele>682.00</ele>
        <time>2014-11-01T09:06:09Z</time>
      </trkpt>
      <trkpt lat="42.308233000" lon="-2.533814000">
        <ele>682.00</ele>
        <time>2014-11-01T09:06:10Z</time>
      </trkpt>
      <trkpt lat="42.308232000" lon="-2.533814000">
        <ele>682.10</ele>
        <time>2014-11-01T09:06:11Z</time>
      </trkpt>
      <trkpt lat="42.308231000" lon="-2.533815000">
        <ele>682.00</ele>
        <time>2014-11-01T09:06:12Z</time>
      </trkpt>
      <trkpt lat="42.308230000" lon="-2.533814000">
        <ele>681.90</ele>
        <time>2014-11-01T09:06:13Z</time>
      </trkpt>
      <trkpt lat="42.308229000" lon="-2.533815000">
        <ele>681.90</ele>
        <time>2014-11-01T09:06:14Z</time>
      </trkpt>
      <trkpt lat="42.308229000" lon="-2.533813000">
        <ele>681.80</ele>
        <time>2014-11-01T09:06:15Z</time>
      </trkpt>
      <trkpt lat="42.308227000" lon="-2.533813000">
        <ele>681.80</ele>
        <time>2014-11-01T09:06:16Z</time>
      </trkpt>
      <trkpt lat="42.308228000" lon="-2.533814000">
        <ele>681.70</ele>
        <time>2014-11-01T09:06:17Z</time>
      </trkpt>
      <trkpt lat="42.308227000" lon="-2.533813000">
        <ele>681.70</ele>
        <time>2014-11-01T09:06:18Z</time>
      </trkpt>
      <trkpt lat="42.308226000" lon="-2.533813000">
        <ele>681.80</ele>
        <time>2014-11-01T09:06:19Z</time>
      </trkpt>
      <trkpt lat="42.308225000" lon="-2.533812000">
        <ele>681.80</ele>
        <time>2014-11-01T09:06:20Z</time>
      </trkpt>
      <trkpt lat="42.308226000" lon="-2.533813000">
        <ele>681.80</ele>
        <time>2014-11-01T09:06:21Z</time>
      </trkpt>
      <trkpt lat="42.308226000" lon="-2.533813000">
        <ele>681.90</ele>
        <time>2014-11-01T09:06:22Z</time>
      </trkpt>
      <trkpt lat="42.308227000" lon="-2.533813000">
        <ele>681.90</ele>
        <time>2014-11-01T09:06:23Z</time>
      </trkpt>
      <trkpt lat="42.308227000" lon="-2.533813000">
        <ele>682.00</ele>
        <time>2014-11-01T09:06:24Z</time>
      </trkpt>
      <trkpt lat="42.308228000" lon="-2.533811000">
        <ele>682.00</ele>
        <time>2014-11-01T09:06:25Z</time>
      </trkpt>
      <trkpt lat="42.308228000" lon="-2.533810000">
        <ele>682.00</ele>
        <time>2014-11-01T09:06:26Z</time>
      </trkpt>
      <trkpt lat="42.308227000" lon="-2.533809000">
        <ele>682.00</ele>
        <time>2014-11-01T09:06:27Z</time>
      </trkpt>
      <trkpt lat="42.308227000" lon="-2.533809000">
        <ele>681.90</ele>
        <time>2014-11-01T09:06:28Z</time>
      </trkpt>
      <trkpt lat="42.308227000" lon="-2.533812000">
        <ele>681.80</ele>
        <time>2014-11-01T09:06:30Z</time>
      </trkpt>
      <trkpt lat="42.308227000" lon="-2.533813000">
        <ele>681.80</ele>
        <time>2014-11-01T09:06:31Z</time>
      </trkpt>
      <trkpt lat="42.308227000" lon="-2.533816000">
        <ele>681.70</ele>
        <time>2014-11-01T09:06:32Z</time>
      </trkpt>
      <trkpt lat="42.308228000" lon="-2.533818000">
        <ele>681.70</ele>
        <time>2014-11-01T09:06:33Z</time>
      </trkpt>
      <trkpt lat="42.308229000" lon="-2.533822000">
        <ele>681.70</ele>
        <time>2014-11-01T09:06:34Z</time>
      </trkpt>
      <trkpt lat="42.308228000" lon="-2.533827000">
        <ele>681.70</ele>
        <time>2014-11-01T09:06:35Z</time>
      </trkpt>
      <trkpt lat="42.308228000" lon="-2.533830000">
        <ele>681.60</ele>
        <time>2014-11-01T09:06:36Z</time>
      </trkpt>
      <trkpt lat="42.308227000" lon="-2.533834000">
        <ele>681.50</ele>
        <time>2014-11-01T09:06:37Z</time>
      </trkpt>
      <trkpt lat="42.308226000" lon="-2.533836000">
        <ele>681.50</ele>
        <time>2014-11-01T09:06:38Z</time>
      </trkpt>
      <trkpt lat="42.308226000" lon="-2.533841000">
        <ele>681.50</ele>
        <time>2014-11-01T09:06:39Z</time>
      </trkpt>
      <trkpt lat="42.308227000" lon="-2.533843000">
        <ele>681.50</ele>
        <time>2014-11-01T09:06:40Z</time>
      </trkpt>
      <trkpt lat="42.308227000" lon="-2.533848000">
        <ele>681.50</ele>
        <time>2014-11-01T09:06:41Z</time>
      </trkpt>
      <trkpt lat="42.308227000" lon="-2.533852000">
        <ele>681.60</ele>
        <time>2014-11-01T09:06:42Z</time>
      </trkpt>
      <trkpt lat="42.308226000" lon="-2.533855000">
        <ele>681.70</ele>
        <time>2014-11-01T09:06:43Z</time>
      </trkpt>
      <trkpt lat="42.308226000" lon="-2.533857000">
        <ele>681.80</ele>
        <time>2014-11-01T09:06:44Z</time>
      </trkpt>
      <trkpt lat="42.308225000" lon="-2.533859000">
        <ele>681.80</ele>
        <time>2014-11-01T09:06:45Z</time>
      </trkpt>
      <trkpt lat="42.308224000" lon="-2.533864000">
        <ele>681.80</ele>
        <time>2014-11-01T09:06:46Z</time>
      </trkpt>
      <trkpt lat="42.308226000" lon="-2.533868000">
        <ele>681.80</ele>
        <time>2014-11-01T09:06:47Z</time>
      </trkpt>
      <trkpt lat="42.308227000" lon="-2.533869000">
        <ele>681.80</ele>
        <time>2014-11-01T09:06:48Z</time>
      </trkpt>
      <trkpt lat="42.308227000" lon="-2.533870000">
        <ele>681.80</ele>
        <time>2014-11-01T09:06:49Z</time>
      </trkpt>
      <trkpt lat="42.308228000" lon="-2.533870000">
        <ele>681.80</ele>
        <time>2014-11-01T09:06:50Z</time>
      </trkpt>
      <trkpt lat="42.308228000" lon="-2.533873000">
        <ele>681.90</ele>
        <time>2014-11-01T09:06:51Z</time>
      </trkpt>
      <trkpt lat="42.308227000" lon="-2.533875000">
        <ele>681.90</ele>
        <time>2014-11-01T09:06:52Z</time>
      </trkpt>
      <trkpt lat="42.308226000" lon="-2.533877000">
        <ele>682.00</ele>
        <time>2014-11-01T09:06:53Z</time>
      </trkpt>
      <trkpt lat="42.308226000" lon="-2.533879000">
        <ele>681.90</ele>
        <time>2014-11-01T09:06:54Z</time>
      </trkpt>
      <trkpt lat="42.308225000" lon="-2.533880000">
        <ele>681.80</ele>
        <time>2014-11-01T09:06:55Z</time>
      </trkpt>
      <trkpt lat="42.308223000" lon="-2.533881000">
        <ele>681.70</ele>
        <time>2014-11-01T09:06:56Z</time>
      </trkpt>
      <trkpt lat="42.308221000" lon="-2.533879000">
        <ele>681.70</ele>
        <time>2014-11-01T09:06:57Z</time>
      </trkpt>
      <trkpt lat="42.308219000" lon="-2.533880000">
        <ele>681.70</ele>
        <time>2014-11-01T09:06:58Z</time>
      </trkpt>
      <trkpt lat="42.308215000" lon="-2.533879000">
        <ele>681.60</ele>
        <time>2014-11-01T09:06:59Z</time>
      </trkpt>
      <trkpt lat="42.308213000" lon="-2.533878000">
        <ele>681.60</ele>
        <time>2014-11-01T09:07:00Z</time>
      </trkpt>
      <trkpt lat="42.308211000" lon="-2.533879000">
        <ele>681.60</ele>
        <time>2014-11-01T09:07:01Z</time>
      </trkpt>
      <trkpt lat="42.308210000" lon="-2.533877000">
        <ele>681.70</ele>
        <time>2014-11-01T09:07:02Z</time>
      </trkpt>
      <trkpt lat="42.308210000" lon="-2.533876000">
        <ele>681.70</ele>
        <time>2014-11-01T09:07:03Z</time>
      </trkpt>
      <trkpt lat="42.308209000" lon="-2.533877000">
        <ele>681.80</ele>
        <time>2014-11-01T09:07:04Z</time>
      </trkpt>
      <trkpt lat="42.308208000" lon="-2.533879000">
        <ele>681.80</ele>
        <time>2014-11-01T09:07:05Z</time>
      </trkpt>
      <trkpt lat="42.308208000" lon="-2.533879000">
        <ele>681.90</ele>
        <time>2014-11-01T09:07:06Z</time>
      </trkpt>
      <trkpt lat="42.308208000" lon="-2.533879000">
        <ele>682.00</ele>
        <time>2014-11-01T09:07:07Z</time>
      </trkpt>
      <trkpt lat="42.308207000" lon="-2.533881000">
        <ele>682.00</ele>
        <time>2014-11-01T09:07:08Z</time>
      </trkpt>
      <trkpt lat="42.308206000" lon="-2.533883000">
        <ele>682.00</ele>
        <time>2014-11-01T09:07:09Z</time>
      </trkpt>
      <trkpt lat="42.308206000" lon="-2.533881000">
        <ele>682.00</ele>
        <time>2014-11-01T09:07:10Z</time>
      </trkpt>
      <trkpt lat="42.308207000" lon="-2.533881000">
        <ele>682.10</ele>
        <time>2014-11-01T09:07:11Z</time>
      </trkpt>
      <trkpt lat="42.308207000" lon="-2.533879000">
        <ele>682.10</ele>
        <time>2014-11-01T09:07:12Z</time>
      </trkpt>
      <trkpt lat="42.308208000" lon="-2.533879000">
        <ele>682.10</ele>
        <time>2014-11-01T09:07:13Z</time>
      </trkpt>
      <trkpt lat="42.308210000" lon="-2.533877000">
        <ele>682.20</ele>
        <time>2014-11-01T09:07:14Z</time>
      </trkpt>
      <trkpt lat="42.308211000" lon="-2.533875000">
        <ele>682.30</ele>
        <time>2014-11-01T09:07:15Z</time>
      </trkpt>
      <trkpt lat="42.308211000" lon="-2.533873000">
        <ele>682.40</ele>
        <time>2014-11-01T09:07:16Z</time>
      </trkpt>
      <trkpt lat="42.308211000" lon="-2.533870000">
        <ele>682.40</ele>
        <time>2014-11-01T09:07:17Z</time>
      </trkpt>
      <trkpt lat="42.308211000" lon="-2.533869000">
        <ele>682.40</ele>
        <time>2014-11-01T09:07:18Z</time>
      </trkpt>
      <trkpt lat="42.308210000" lon="-2.533867000">
        <ele>682.50</ele>
        <time>2014-11-01T09:07:19Z</time>
      </trkpt>
      <trkpt lat="42.308211000" lon="-2.533866000">
        <ele>682.40</ele>
        <time>2014-11-01T09:07:20Z</time>
      </trkpt>
      <trkpt lat="42.308212000" lon="-2.533864000">
        <ele>682.40</ele>
        <time>2014-11-01T09:07:21Z</time>
      </trkpt>
      <trkpt lat="42.308213000" lon="-2.533863000">
        <ele>682.20</ele>
        <time>2014-11-01T09:07:22Z</time>
      </trkpt>
      <trkpt lat="42.308215000" lon="-2.533858000">
        <ele>682.00</ele>
        <time>2014-11-01T09:07:23Z</time>
      </trkpt>
      <trkpt lat="42.308216000" lon="-2.533856000">
        <ele>681.80</ele>
        <time>2014-11-01T09:07:24Z</time>
      </trkpt>
      <trkpt lat="42.308216000" lon="-2.533854000">
        <ele>681.60</ele>
        <time>2014-11-01T09:07:25Z</time>
      </trkpt>
      <trkpt lat="42.308216000" lon="-2.533849000">
        <ele>681.40</ele>
        <time>2014-11-01T09:07:26Z</time>
      </trkpt>
      <trkpt lat="42.308216000" lon="-2.533844000">
        <ele>681.30</ele>
        <time>2014-11-01T09:07:27Z</time>
      </trkpt>
      <trkpt lat="42.308217000" lon="-2.533840000">
        <ele>681.40</ele>
        <time>2014-11-01T09:07:28Z</time>
      </trkpt>
      <trkpt lat="42.308218000" lon="-2.533838000">
        <ele>681.50</ele>
        <time>2014-11-01T09:07:29Z</time>
      </trkpt>
      <trkpt lat="42.308220000" lon="-2.533836000">
        <ele>681.50</ele>
        <time>2014-11-01T09:07:31Z</time>
      </trkpt>
      <trkpt lat="42.308220000" lon="-2.533834000">
        <ele>681.60</ele>
        <time>2014-11-01T09:07:32Z</time>
      </trkpt>
      <trkpt lat="42.308221000" lon="-2.533832000">
        <ele>681.60</ele>
        <time>2014-11-01T09:07:33Z</time>
      </trkpt>
      <trkpt lat="42.308222000" lon="-2.533832000">
        <ele>681.60</ele>
        <time>2014-11-01T09:07:34Z</time>
      </trkpt>
      <trkpt lat="42.308223000" lon="-2.533832000">
        <ele>681.60</ele>
        <time>2014-11-01T09:07:35Z</time>
      </trkpt>
      <trkpt lat="42.308224000" lon="-2.533832000">
        <ele>681.60</ele>
        <time>2014-11-01T09:07:36Z</time>
      </trkpt>
      <trkpt lat="42.308225000" lon="-2.533832000">
        <ele>681.50</ele>
        <time>2014-11-01T09:07:37Z</time>
      </trkpt>
      <trkpt lat="42.308224000" lon="-2.533832000">
        <ele>681.50</ele>
        <time>2014-11-01T09:07:38Z</time>
      </trkpt>
      <trkpt lat="42.308224000" lon="-2.533833000">
        <ele>681.50</ele>
        <time>2014-11-01T09:07:39Z</time>
      </trkpt>
      <trkpt lat="42.308224000" lon="-2.533835000">
        <ele>681.50</ele>
        <time>2014-11-01T09:07:40Z</time>
      </trkpt>
      <trkpt lat="42.308223000" lon="-2.533836000">
        <ele>681.50</ele>
        <time>2014-11-01T09:07:41Z</time>
      </trkpt>
      <trkpt lat="42.308223000" lon="-2.533837000">
        <ele>681.60</ele>
        <time>2014-11-01T09:07:42Z</time>
      </trkpt>
      <trkpt lat="42.308222000" lon="-2.533839000">
        <ele>681.70</ele>
        <time>2014-11-01T09:07:43Z</time>
      </trkpt>
      <trkpt lat="42.308223000" lon="-2.533842000">
        <ele>681.60</ele>
        <time>2014-11-01T09:07:44Z</time>
      </trkpt>
      <trkpt lat="42.308224000" lon="-2.533846000">
        <ele>681.60</ele>
        <time>2014-11-01T09:07:45Z</time>
      </trkpt>
      <trkpt lat="42.308225000" lon="-2.533849000">
        <ele>681.70</ele>
        <time>2014-11-01T09:07:46Z</time>
      </trkpt>
      <trkpt lat="42.308226000" lon="-2.533852000">
        <ele>681.70</ele>
        <time>2014-11-01T09:07:47Z</time>
      </trkpt>
      <trkpt lat="42.308226000" lon="-2.533854000">
        <ele>681.60</ele>
        <time>2014-11-01T09:07:48Z</time>
      </trkpt>
      <trkpt lat="42.308227000" lon="-2.533857000">
        <ele>681.60</ele>
        <time>2014-11-01T09:07:49Z</time>
      </trkpt>
      <trkpt lat="42.308227000" lon="-2.533861000">
        <ele>681.50</ele>
        <time>2014-11-01T09:07:50Z</time>
      </trkpt>
      <trkpt lat="42.308227000" lon="-2.533864000">
        <ele>681.30</ele>
        <time>2014-11-01T09:07:51Z</time>
      </trkpt>
      <trkpt lat="42.308228000" lon="-2.533865000">
        <ele>681.30</ele>
        <time>2014-11-01T09:07:52Z</time>
      </trkpt>
      <trkpt lat="42.308228000" lon="-2.533868000">
        <ele>681.20</ele>
        <time>2014-11-01T09:07:53Z</time>
      </trkpt>
      <trkpt lat="42.308227000" lon="-2.533870000">
        <ele>681.20</ele>
        <time>2014-11-01T09:07:54Z</time>
      </trkpt>
      <trkpt lat="42.308226000" lon="-2.533873000">
        <ele>681.20</ele>
        <time>2014-11-01T09:07:55Z</time>
      </trkpt>
      <trkpt lat="42.308225000" lon="-2.533874000">
        <ele>681.30</ele>
        <time>2014-11-01T09:07:56Z</time>
      </trkpt>
      <trkpt lat="42.308224000" lon="-2.533876000">
        <ele>681.40</ele>
        <time>2014-11-01T09:07:57Z</time>
      </trkpt>
      <trkpt lat="42.308223000" lon="-2.533878000">
        <ele>681.50</ele>
        <time>2014-11-01T09:07:58Z</time>
      </trkpt>
      <trkpt lat="42.308222000" lon="-2.533879000">
        <ele>681.50</ele>
        <time>2014-11-01T09:07:59Z</time>
      </trkpt>
      <trkpt lat="42.308224000" lon="-2.533880000">
        <ele>681.50</ele>
        <time>2014-11-01T09:08:00Z</time>
      </trkpt>
      <trkpt lat="42.308225000" lon="-2.533881000">
        <ele>681.60</ele>
        <time>2014-11-01T09:08:01Z</time>
      </trkpt>
      <trkpt lat="42.308225000" lon="-2.533882000">
        <ele>681.60</ele>
        <time>2014-11-01T09:08:02Z</time>
      </trkpt>
      <trkpt lat="42.308225000" lon="-2.533882000">
        <ele>681.60</ele>
        <time>2014-11-01T09:08:03Z</time>
      </trkpt>
      <trkpt lat="42.308224000" lon="-2.533880000">
        <ele>681.60</ele>
        <time>2014-11-01T09:08:04Z</time>
      </trkpt>
      <trkpt lat="42.308222000" lon="-2.533881000">
        <ele>681.50</ele>
        <time>2014-11-01T09:08:05Z</time>
      </trkpt>
      <trkpt lat="42.308222000" lon="-2.533881000">
        <ele>681.60</ele>
        <time>2014-11-01T09:08:06Z</time>
      </trkpt>
      <trkpt lat="42.308219000" lon="-2.533880000">
        <ele>681.60</ele>
        <time>2014-11-01T09:08:07Z</time>
      </trkpt>
      <trkpt lat="42.308218000" lon="-2.533879000">
        <ele>681.60</ele>
        <time>2014-11-01T09:08:08Z</time>
      </trkpt>
      <trkpt lat="42.308218000" lon="-2.533877000">
        <ele>681.60</ele>
        <time>2014-11-01T09:08:09Z</time>
      </trkpt>
      <trkpt lat="42.308216000" lon="-2.533876000">
        <ele>681.70</ele>
        <time>2014-11-01T09:08:10Z</time>
      </trkpt>
      <trkpt lat="42.308215000" lon="-2.533875000">
        <ele>681.70</ele>
        <time>2014-11-01T09:08:11Z</time>
      </trkpt>
      <trkpt lat="42.308214000" lon="-2.533874000">
        <ele>681.70</ele>
        <time>2014-11-01T09:08:12Z</time>
      </trkpt>
      <trkpt lat="42.308212000" lon="-2.533874000">
        <ele>681.70</ele>
        <time>2014-11-01T09:08:13Z</time>
      </trkpt>
      <trkpt lat="42.308211000" lon="-2.533873000">
        <ele>681.70</ele>
        <time>2014-11-01T09:08:14Z</time>
      </trkpt>
      <trkpt lat="42.308209000" lon="-2.533873000">
        <ele>681.70</ele>
        <time>2014-11-01T09:08:15Z</time>
      </trkpt>
      <trkpt lat="42.308208000" lon="-2.533874000">
        <ele>681.70</ele>
        <time>2014-11-01T09:08:16Z</time>
      </trkpt>
      <trkpt lat="42.308207000" lon="-2.533874000">
        <ele>681.70</ele>
        <time>2014-11-01T09:08:17Z</time>
      </trkpt>
      <trkpt lat="42.308204000" lon="-2.533871000">
        <ele>681.60</ele>
        <time>2014-11-01T09:08:18Z</time>
      </trkpt>
      <trkpt lat="42.308203000" lon="-2.533869000">
        <ele>681.50</ele>
        <time>2014-11-01T09:08:19Z</time>
      </trkpt>
      <trkpt lat="42.308202000" lon="-2.533869000">
        <ele>681.50</ele>
        <time>2014-11-01T09:08:20Z</time>
      </trkpt>
      <trkpt lat="42.308199000" lon="-2.533866000">
        <ele>681.40</ele>
        <time>2014-11-01T09:08:21Z</time>
      </trkpt>
      <trkpt lat="42.308196000" lon="-2.533863000">
        <ele>681.40</ele>
        <time>2014-11-01T09:08:22Z</time>
      </trkpt>
      <trkpt lat="42.308194000" lon="-2.533862000">
        <ele>681.40</ele>
        <time>2014-11-01T09:08:23Z</time>
      </trkpt>
      <trkpt lat="42.308192000" lon="-2.533862000">
        <ele>681.30</ele>
        <time>2014-11-01T09:08:24Z</time>
      </trkpt>
      <trkpt lat="42.308190000" lon="-2.533862000">
        <ele>681.30</ele>
        <time>2014-11-01T09:08:25Z</time>
      </trkpt>
      <trkpt lat="42.308187000" lon="-2.533860000">
        <ele>681.30</ele>
        <time>2014-11-01T09:08:26Z</time>
      </trkpt>
      <trkpt lat="42.308185000" lon="-2.533862000">
        <ele>681.30</ele>
        <time>2014-11-01T09:08:27Z</time>
      </trkpt>
      <trkpt lat="42.308185000" lon="-2.533862000">
        <ele>681.40</ele>
        <time>2014-11-01T09:08:28Z</time>
      </trkpt>
      <trkpt lat="42.308182000" lon="-2.533860000">
        <ele>681.50</ele>
        <time>2014-11-01T09:08:29Z</time>
      </trkpt>
      <trkpt lat="42.308181000" lon="-2.533860000">
        <ele>681.40</ele>
        <time>2014-11-01T09:08:30Z</time>
      </trkpt>
      <trkpt lat="42.308182000" lon="-2.533856000">
        <ele>681.60</ele>
        <time>2014-11-01T09:08:32Z</time>
      </trkpt>
      <trkpt lat="42.308181000" lon="-2.533854000">
        <ele>681.80</ele>
        <time>2014-11-01T09:08:33Z</time>
      </trkpt>
      <trkpt lat="42.308180000" lon="-2.533853000">
        <ele>681.90</ele>
        <time>2014-11-01T09:08:34Z</time>
      </trkpt>
      <trkpt lat="42.308181000" lon="-2.533852000">
        <ele>682.00</ele>
        <time>2014-11-01T09:08:35Z</time>
      </trkpt>
      <trkpt lat="42.308180000" lon="-2.533852000">
        <ele>682.10</ele>
        <time>2014-11-01T09:08:36Z</time>
      </trkpt>
      <trkpt lat="42.308180000" lon="-2.533851000">
        <ele>682.10</ele>
        <time>2014-11-01T09:08:37Z</time>
      </trkpt>
      <trkpt lat="42.308181000" lon="-2.533849000">
        <ele>682.00</ele>
        <time>2014-11-01T09:08:38Z</time>
      </trkpt>
      <trkpt lat="42.308181000" lon="-2.533846000">
        <ele>681.90</ele>
        <time>2014-11-01T09:08:39Z</time>
      </trkpt>
      <trkpt lat="42.308181000" lon="-2.533844000">
        <ele>681.80</ele>
        <time>2014-11-01T09:08:40Z</time>
      </trkpt>
      <trkpt lat="42.308182000" lon="-2.533841000">
        <ele>681.70</ele>
        <time>2014-11-01T09:08:41Z</time>
      </trkpt>
      <trkpt lat="42.308184000" lon="-2.533839000">
        <ele>681.70</ele>
        <time>2014-11-01T09:08:42Z</time>
      </trkpt>
      <trkpt lat="42.308185000" lon="-2.533838000">
        <ele>681.70</ele>
        <time>2014-11-01T09:08:43Z</time>
      </trkpt>
      <trkpt lat="42.308186000" lon="-2.533837000">
        <ele>681.60</ele>
        <time>2014-11-01T09:08:44Z</time>
      </trkpt>
      <trkpt lat="42.308188000" lon="-2.533836000">
        <ele>681.60</ele>
        <time>2014-11-01T09:08:45Z</time>
      </trkpt>
      <trkpt lat="42.308189000" lon="-2.533834000">
        <ele>681.70</ele>
        <time>2014-11-01T09:08:46Z</time>
      </trkpt>
      <trkpt lat="42.308193000" lon="-2.533833000">
        <ele>681.80</ele>
        <time>2014-11-01T09:08:47Z</time>
      </trkpt>
      <trkpt lat="42.308194000" lon="-2.533831000">
        <ele>681.90</ele>
        <time>2014-11-01T09:08:48Z</time>
      </trkpt>
      <trkpt lat="42.308196000" lon="-2.533830000">
        <ele>681.90</ele>
        <time>2014-11-01T09:08:49Z</time>
      </trkpt>
      <trkpt lat="42.308198000" lon="-2.533833000">
        <ele>681.90</ele>
        <time>2014-11-01T09:08:50Z</time>
      </trkpt>
      <trkpt lat="42.308200000" lon="-2.533834000">
        <ele>681.90</ele>
        <time>2014-11-01T09:08:51Z</time>
      </trkpt>
      <trkpt lat="42.308201000" lon="-2.533834000">
        <ele>681.90</ele>
        <time>2014-11-01T09:08:52Z</time>
      </trkpt>
      <trkpt lat="42.308203000" lon="-2.533833000">
        <ele>681.90</ele>
        <time>2014-11-01T09:08:53Z</time>
      </trkpt>
      <trkpt lat="42.308207000" lon="-2.533835000">
        <ele>681.90</ele>
        <time>2014-11-01T09:08:54Z</time>
      </trkpt>
      <trkpt lat="42.308209000" lon="-2.533835000">
        <ele>681.90</ele>
        <time>2014-11-01T09:08:55Z</time>
      </trkpt>
      <trkpt lat="42.308211000" lon="-2.533834000">
        <ele>681.80</ele>
        <time>2014-11-01T09:08:56Z</time>
      </trkpt>
      <trkpt lat="42.308213000" lon="-2.533835000">
        <ele>681.80</ele>
        <time>2014-11-01T09:08:57Z</time>
      </trkpt>
      <trkpt lat="42.308215000" lon="-2.533835000">
        <ele>681.80</ele>
        <time>2014-11-01T09:08:58Z</time>
      </trkpt>
      <trkpt lat="42.308217000" lon="-2.533836000">
        <ele>681.70</ele>
        <time>2014-11-01T09:08:59Z</time>
      </trkpt>
      <trkpt lat="42.308219000" lon="-2.533837000">
        <ele>681.70</ele>
        <time>2014-11-01T09:09:00Z</time>
      </trkpt>
      <trkpt lat="42.308221000" lon="-2.533840000">
        <ele>681.70</ele>
        <time>2014-11-01T09:09:01Z</time>
      </trkpt>
      <trkpt lat="42.308224000" lon="-2.533842000">
        <ele>681.70</ele>
        <time>2014-11-01T09:09:02Z</time>
      </trkpt>
      <trkpt lat="42.308226000" lon="-2.533842000">
        <ele>681.70</ele>
        <time>2014-11-01T09:09:03Z</time>
      </trkpt>
      <trkpt lat="42.308229000" lon="-2.533843000">
        <ele>681.60</ele>
        <time>2014-11-01T09:09:04Z</time>
      </trkpt>
      <trkpt lat="42.308231000" lon="-2.533843000">
        <ele>681.60</ele>
        <time>2014-11-01T09:09:05Z</time>
      </trkpt>
      <trkpt lat="42.308233000" lon="-2.533842000">
        <ele>681.50</ele>
        <time>2014-11-01T09:09:06Z</time>
      </trkpt>
      <trkpt lat="42.308236000" lon="-2.533841000">
        <ele>681.50</ele>
        <time>2014-11-01T09:09:07Z</time>
      </trkpt>
      <trkpt lat="42.308237000" lon="-2.533840000">
        <ele>681.50</ele>
        <time>2014-11-01T09:09:08Z</time>
      </trkpt>
      <trkpt lat="42.308238000" lon="-2.533840000">
        <ele>681.50</ele>
        <time>2014-11-01T09:09:09Z</time>
      </trkpt>
      <trkpt lat="42.308240000" lon="-2.533840000">
        <ele>681.50</ele>
        <time>2014-11-01T09:09:10Z</time>
      </trkpt>
      <trkpt lat="42.308240000" lon="-2.533840000">
        <ele>681.50</ele>
        <time>2014-11-01T09:09:11Z</time>
      </trkpt>
      <trkpt lat="42.308240000" lon="-2.533840000">
        <ele>681.50</ele>
        <time>2014-11-01T09:09:12Z</time>
      </trkpt>
      <trkpt lat="42.308240000" lon="-2.533839000">
        <ele>681.50</ele>
        <time>2014-11-01T09:09:13Z</time>
      </trkpt>
      <trkpt lat="42.308241000" lon="-2.533839000">
        <ele>681.70</ele>
        <time>2014-11-01T09:09:14Z</time>
      </trkpt>
      <trkpt lat="42.308241000" lon="-2.533838000">
        <ele>681.80</ele>
        <time>2014-11-01T09:09:15Z</time>
      </trkpt>
      <trkpt lat="42.308242000" lon="-2.533837000">
        <ele>681.80</ele>
        <time>2014-11-01T09:09:16Z</time>
      </trkpt>
      <trkpt lat="42.308242000" lon="-2.533835000">
        <ele>681.90</ele>
        <time>2014-11-01T09:09:17Z</time>
      </trkpt>
      <trkpt lat="42.308242000" lon="-2.533834000">
        <ele>681.90</ele>
        <time>2014-11-01T09:09:18Z</time>
      </trkpt>
      <trkpt lat="42.308240000" lon="-2.533833000">
        <ele>682.00</ele>
        <time>2014-11-01T09:09:19Z</time>
      </trkpt>
      <trkpt lat="42.308239000" lon="-2.533830000">
        <ele>681.90</ele>
        <time>2014-11-01T09:09:20Z</time>
      </trkpt>
      <trkpt lat="42.308238000" lon="-2.533828000">
        <ele>681.80</ele>
        <time>2014-11-01T09:09:21Z</time>
      </trkpt>
      <trkpt lat="42.308238000" lon="-2.533827000">
        <ele>681.70</ele>
        <time>2014-11-01T09:09:22Z</time>
      </trkpt>
      <trkpt lat="42.308236000" lon="-2.533825000">
        <ele>681.60</ele>
        <time>2014-11-01T09:09:23Z</time>
      </trkpt>
      <trkpt lat="42.308236000" lon="-2.533823000">
        <ele>681.60</ele>
        <time>2014-11-01T09:09:24Z</time>
      </trkpt>
      <trkpt lat="42.308235000" lon="-2.533822000">
        <ele>681.50</ele>
        <time>2014-11-01T09:09:25Z</time>
      </trkpt>
      <trkpt lat="42.308233000" lon="-2.533820000">
        <ele>681.60</ele>
        <time>2014-11-01T09:09:26Z</time>
      </trkpt>
      <trkpt lat="42.308232000" lon="-2.533821000">
        <ele>681.70</ele>
        <time>2014-11-01T09:09:27Z</time>
      </trkpt>
      <trkpt lat="42.308230000" lon="-2.533822000">
        <ele>681.70</ele>
        <time>2014-11-01T09:09:28Z</time>
      </trkpt>
      <trkpt lat="42.308230000" lon="-2.533823000">
        <ele>681.80</ele>
        <time>2014-11-01T09:09:29Z</time>
      </trkpt>
      <trkpt lat="42.308228000" lon="-2.533825000">
        <ele>681.70</ele>
        <time>2014-11-01T09:09:30Z</time>
      </trkpt>
      <trkpt lat="42.308227000" lon="-2.533827000">
        <ele>681.60</ele>
        <time>2014-11-01T09:09:31Z</time>
      </trkpt>
      <trkpt lat="42.308226000" lon="-2.533830000">
        <ele>681.40</ele>
        <time>2014-11-01T09:09:33Z</time>
      </trkpt>
      <trkpt lat="42.308225000" lon="-2.533832000">
        <ele>681.50</ele>
        <time>2014-11-01T09:09:34Z</time>
      </trkpt>
      <trkpt lat="42.308224000" lon="-2.533835000">
        <ele>681.50</ele>
        <time>2014-11-01T09:09:35Z</time>
      </trkpt>
      <trkpt lat="42.308222000" lon="-2.533836000">
        <ele>681.50</ele>
        <time>2014-11-01T09:09:36Z</time>
      </trkpt>
      <trkpt lat="42.308222000" lon="-2.533838000">
        <ele>681.50</ele>
        <time>2014-11-01T09:09:37Z</time>
      </trkpt>
      <trkpt lat="42.308220000" lon="-2.533841000">
        <ele>681.60</ele>
        <time>2014-11-01T09:09:38Z</time>
      </trkpt>
      <trkpt lat="42.308220000" lon="-2.533845000">
        <ele>681.70</ele>
        <time>2014-11-01T09:09:39Z</time>
      </trkpt>
      <trkpt lat="42.308221000" lon="-2.533848000">
        <ele>681.70</ele>
        <time>2014-11-01T09:09:40Z</time>
      </trkpt>
      <trkpt lat="42.308220000" lon="-2.533851000">
        <ele>681.60</ele>
        <time>2014-11-01T09:09:41Z</time>
      </trkpt>
      <trkpt lat="42.308218000" lon="-2.533852000">
        <ele>681.70</ele>
        <time>2014-11-01T09:09:42Z</time>
      </trkpt>
      <trkpt lat="42.308220000" lon="-2.533856000">
        <ele>681.80</ele>
        <time>2014-11-01T09:09:43Z</time>
      </trkpt>
      <trkpt lat="42.308220000" lon="-2.533858000">
        <ele>681.70</ele>
        <time>2014-11-01T09:09:44Z</time>
      </trkpt>
      <trkpt lat="42.308222000" lon="-2.533861000">
        <ele>681.70</ele>
        <time>2014-11-01T09:09:45Z</time>
      </trkpt>
      <trkpt lat="42.308223000" lon="-2.533862000">
        <ele>681.70</ele>
        <time>2014-11-01T09:09:46Z</time>
      </trkpt>
      <trkpt lat="42.308224000" lon="-2.533861000">
        <ele>681.60</ele>
        <time>2014-11-01T09:09:47Z</time>
      </trkpt>
      <trkpt lat="42.308224000" lon="-2.533861000">
        <ele>681.50</ele>
        <time>2014-11-01T09:09:48Z</time>
      </trkpt>
      <trkpt lat="42.308223000" lon="-2.533862000">
        <ele>681.50</ele>
        <time>2014-11-01T09:09:49Z</time>
      </trkpt>
      <trkpt lat="42.308223000" lon="-2.533862000">
        <ele>681.40</ele>
        <time>2014-11-01T09:09:50Z</time>
      </trkpt>
      <trkpt lat="42.308222000" lon="-2.533863000">
        <ele>681.40</ele>
        <time>2014-11-01T09:09:51Z</time>
      </trkpt>
      <trkpt lat="42.308222000" lon="-2.533863000">
        <ele>681.40</ele>
        <time>2014-11-01T09:09:52Z</time>
      </trkpt>
      <trkpt lat="42.308224000" lon="-2.533861000">
        <ele>681.30</ele>
        <time>2014-11-01T09:09:53Z</time>
      </trkpt>
      <trkpt lat="42.308224000" lon="-2.533859000">
        <ele>681.50</ele>
        <time>2014-11-01T09:09:54Z</time>
      </trkpt>
      <trkpt lat="42.308224000" lon="-2.533861000">
        <ele>681.60</ele>
        <time>2014-11-01T09:09:55Z</time>
      </trkpt>
      <trkpt lat="42.308225000" lon="-2.533862000">
        <ele>681.70</ele>
        <time>2014-11-01T09:09:56Z</time>
      </trkpt>
      <trkpt lat="42.308225000" lon="-2.533860000">
        <ele>681.80</ele>
        <time>2014-11-01T09:09:57Z</time>
      </trkpt>
      <trkpt lat="42.308230000" lon="-2.533858000">
        <ele>681.90</ele>
        <time>2014-11-01T09:09:58Z</time>
      </trkpt>
      <trkpt lat="42.308230000" lon="-2.533857000">
        <ele>682.00</ele>
        <time>2014-11-01T09:09:59Z</time>
      </trkpt>
      <trkpt lat="42.308231000" lon="-2.533857000">
        <ele>682.20</ele>
        <time>2014-11-01T09:10:00Z</time>
      </trkpt>
      <trkpt lat="42.308233000" lon="-2.533857000">
        <ele>682.30</ele>
        <time>2014-11-01T09:10:01Z</time>
      </trkpt>
      <trkpt lat="42.308234000" lon="-2.533858000">
        <ele>682.30</ele>
        <time>2014-11-01T09:10:02Z</time>
      </trkpt>
      <trkpt lat="42.308234000" lon="-2.533859000">
        <ele>682.20</ele>
        <time>2014-11-01T09:10:03Z</time>
      </trkpt>
      <trkpt lat="42.308236000" lon="-2.533857000">
        <ele>682.00</ele>
        <time>2014-11-01T09:10:04Z</time>
      </trkpt>
      <trkpt lat="42.308237000" lon="-2.533858000">
        <ele>681.90</ele>
        <time>2014-11-01T09:10:05Z</time>
      </trkpt>
      <trkpt lat="42.308239000" lon="-2.533860000">
        <ele>681.70</ele>
        <time>2014-11-01T09:10:06Z</time>
      </trkpt>
      <trkpt lat="42.308242000" lon="-2.533860000">
        <ele>681.60</ele>
        <time>2014-11-01T09:10:07Z</time>
      </trkpt>
      <trkpt lat="42.308244000" lon="-2.533859000">
        <ele>681.60</ele>
        <time>2014-11-01T09:10:08Z</time>
      </trkpt>
      <trkpt lat="42.308245000" lon="-2.533858000">
        <ele>681.60</ele>
        <time>2014-11-01T09:10:09Z</time>
      </trkpt>
      <trkpt lat="42.308248000" lon="-2.533858000">
        <ele>681.70</ele>
        <time>2014-11-01T09:10:10Z</time>
      </trkpt>
      <trkpt lat="42.308250000" lon="-2.533857000">
        <ele>681.70</ele>
        <time>2014-11-01T09:10:11Z</time>
      </trkpt>
      <trkpt lat="42.308251000" lon="-2.533857000">
        <ele>681.80</ele>
        <time>2014-11-01T09:10:12Z</time>
      </trkpt>
      <trkpt lat="42.308252000" lon="-2.533857000">
        <ele>681.80</ele>
        <time>2014-11-01T09:10:13Z</time>
      </trkpt>
      <trkpt lat="42.308254000" lon="-2.533857000">
        <ele>681.90</ele>
        <time>2014-11-01T09:10:14Z</time>
      </trkpt>
      <trkpt lat="42.308257000" lon="-2.533855000">
        <ele>681.90</ele>
        <time>2014-11-01T09:10:15Z</time>
      </trkpt>
      <trkpt lat="42.308259000" lon="-2.533852000">
        <ele>681.90</ele>
        <time>2014-11-01T09:10:16Z</time>
      </trkpt>
      <trkpt lat="42.308262000" lon="-2.533850000">
        <ele>681.90</ele>
        <time>2014-11-01T09:10:17Z</time>
      </trkpt>
      <trkpt lat="42.308264000" lon="-2.533850000">
        <ele>681.90</ele>
        <time>2014-11-01T09:10:18Z</time>
      </trkpt>
      <trkpt lat="42.308265000" lon="-2.533849000">
        <ele>681.80</ele>
        <time>2014-11-01T09:10:19Z</time>
      </trkpt>
      <trkpt lat="42.308266000" lon="-2.533848000">
        <ele>681.80</ele>
        <time>2014-11-01T09:10:20Z</time>
      </trkpt>
      <trkpt lat="42.308267000" lon="-2.533847000">
        <ele>681.80</ele>
        <time>2014-11-01T09:10:21Z</time>
      </trkpt>
      <trkpt lat="42.308268000" lon="-2.533845000">
        <ele>681.90</ele>
        <time>2014-11-01T09:10:22Z</time>
      </trkpt>
      <trkpt lat="42.308268000" lon="-2.533845000">
        <ele>681.90</ele>
        <time>2014-11-01T09:10:23Z</time>
      </trkpt>
      <trkpt lat="42.308268000" lon="-2.533843000">
        <ele>682.00</ele>
        <time>2014-11-01T09:10:24Z</time>
      </trkpt>
      <trkpt lat="42.308270000" lon="-2.533840000">
        <ele>682.00</ele>
        <time>2014-11-01T09:10:25Z</time>
      </trkpt>
      <trkpt lat="42.308271000" lon="-2.533838000">
        <ele>682.00</ele>
        <time>2014-11-01T09:10:26Z</time>
      </trkpt>
      <trkpt lat="42.308273000" lon="-2.533837000">
        <ele>682.00</ele>
        <time>2014-11-01T09:10:27Z</time>
      </trkpt>
      <trkpt lat="42.308274000" lon="-2.533834000">
        <ele>682.00</ele>
        <time>2014-11-01T09:10:28Z</time>
      </trkpt>
      <trkpt lat="42.308274000" lon="-2.533832000">
        <ele>682.00</ele>
        <time>2014-11-01T09:10:29Z</time>
      </trkpt>
      <trkpt lat="42.308275000" lon="-2.533831000">
        <ele>682.10</ele>
        <time>2014-11-01T09:10:30Z</time>
      </trkpt>
      <trkpt lat="42.308274000" lon="-2.533829000">
        <ele>682.10</ele>
        <time>2014-11-01T09:10:31Z</time>
      </trkpt>
      <trkpt lat="42.308274000" lon="-2.533828000">
        <ele>682.20</ele>
        <time>2014-11-01T09:10:32Z</time>
      </trkpt>
      <trkpt lat="42.308273000" lon="-2.533827000">
        <ele>682.20</ele>
        <time>2014-11-01T09:10:34Z</time>
      </trkpt>
      <trkpt lat="42.308273000" lon="-2.533824000">
        <ele>682.20</ele>
        <time>2014-11-01T09:10:35Z</time>
      </trkpt>
      <trkpt lat="42.308271000" lon="-2.533820000">
        <ele>682.20</ele>
        <time>2014-11-01T09:10:36Z</time>
      </trkpt>
      <trkpt lat="42.308268000" lon="-2.533817000">
        <ele>682.20</ele>
        <time>2014-11-01T09:10:37Z</time>
      </trkpt>
      <trkpt lat="42.308266000" lon="-2.533816000">
        <ele>682.10</ele>
        <time>2014-11-01T09:10:38Z</time>
      </trkpt>
      <trkpt lat="42.308263000" lon="-2.533813000">
        <ele>681.90</ele>
        <time>2014-11-01T09:10:39Z</time>
      </trkpt>
      <trkpt lat="42.308261000" lon="-2.533812000">
        <ele>681.90</ele>
        <time>2014-11-01T09:10:40Z</time>
      </trkpt>
      <trkpt lat="42.308260000" lon="-2.533810000">
        <ele>681.80</ele>
        <time>2014-11-01T09:10:41Z</time>
      </trkpt>
      <trkpt lat="42.308259000" lon="-2.533805000">
        <ele>681.80</ele>
        <time>2014-11-01T09:10:42Z</time>
      </trkpt>
      <trkpt lat="42.308257000" lon="-2.533802000">
        <ele>681.70</ele>
        <time>2014-11-01T09:10:43Z</time>
      </trkpt>
      <trkpt lat="42.308257000" lon="-2.533799000">
        <ele>681.70</ele>
        <time>2014-11-01T09:10:44Z</time>
      </trkpt>
      <trkpt lat="42.308256000" lon="-2.533800000">
        <ele>681.70</ele>
        <time>2014-11-01T09:10:45Z</time>
      </trkpt>
      <trkpt lat="42.308256000" lon="-2.533798000">
        <ele>681.80</ele>
        <time>2014-11-01T09:10:46Z</time>
      </trkpt>
      <trkpt lat="42.308256000" lon="-2.533797000">
        <ele>681.90</ele>
        <time>2014-11-01T09:10:47Z</time>
      </trkpt>
      <trkpt lat="42.308256000" lon="-2.533795000">
        <ele>681.90</ele>
        <time>2014-11-01T09:10:48Z</time>
      </trkpt>
      <trkpt lat="42.308255000" lon="-2.533792000">
        <ele>681.90</ele>
        <time>2014-11-01T09:10:49Z</time>
      </trkpt>
      <trkpt lat="42.308254000" lon="-2.533789000">
        <ele>682.00</ele>
        <time>2014-11-01T09:10:50Z</time>
      </trkpt>
      <trkpt lat="42.308254000" lon="-2.533787000">
        <ele>682.10</ele>
        <time>2014-11-01T09:10:51Z</time>
      </trkpt>
      <trkpt lat="42.308252000" lon="-2.533785000">
        <ele>682.10</ele>
        <time>2014-11-01T09:10:52Z</time>
      </trkpt>
      <trkpt lat="42.308252000" lon="-2.533784000">
        <ele>682.00</ele>
        <time>2014-11-01T09:10:53Z</time>
      </trkpt>
      <trkpt lat="42.308252000" lon="-2.533783000">
        <ele>681.90</ele>
        <time>2014-11-01T09:10:54Z</time>
      </trkpt>
      <trkpt lat="42.308251000" lon="-2.533781000">
        <ele>681.80</ele>
        <time>2014-11-01T09:10:55Z</time>
      </trkpt>
      <trkpt lat="42.308249000" lon="-2.533780000">
        <ele>681.70</ele>
        <time>2014-11-01T09:10:56Z</time>
      </trkpt>
      <trkpt lat="42.308249000" lon="-2.533779000">
        <ele>681.60</ele>
        <time>2014-11-01T09:10:57Z</time>
      </trkpt>
      <trkpt lat="42.308248000" lon="-2.533780000">
        <ele>681.70</ele>
        <time>2014-11-01T09:10:58Z</time>
      </trkpt>
      <trkpt lat="42.308245000" lon="-2.533780000">
        <ele>681.70</ele>
        <time>2014-11-01T09:10:59Z</time>
      </trkpt>
      <trkpt lat="42.308244000" lon="-2.533781000">
        <ele>681.80</ele>
        <time>2014-11-01T09:11:00Z</time>
      </trkpt>
      <trkpt lat="42.308242000" lon="-2.533783000">
        <ele>681.90</ele>
        <time>2014-11-01T09:11:01Z</time>
      </trkpt>
      <trkpt lat="42.308242000" lon="-2.533783000">
        <ele>682.00</ele>
        <time>2014-11-01T09:11:02Z</time>
      </trkpt>
      <trkpt lat="42.308241000" lon="-2.533786000">
        <ele>682.10</ele>
        <time>2014-11-01T09:11:03Z</time>
      </trkpt>
      <trkpt lat="42.308240000" lon="-2.533787000">
        <ele>682.10</ele>
        <time>2014-11-01T09:11:04Z</time>
      </trkpt>
      <trkpt lat="42.308240000" lon="-2.533789000">
        <ele>682.20</ele>
        <time>2014-11-01T09:11:05Z</time>
      </trkpt>
      <trkpt lat="42.308238000" lon="-2.533791000">
        <ele>682.30</ele>
        <time>2014-11-01T09:11:06Z</time>
      </trkpt>
      <trkpt lat="42.308238000" lon="-2.533791000">
        <ele>682.40</ele>
        <time>2014-11-01T09:11:07Z</time>
      </trkpt>
      <trkpt lat="42.308238000" lon="-2.533792000">
        <ele>682.40</ele>
        <time>2014-11-01T09:11:08Z</time>
      </trkpt>
      <trkpt lat="42.308237000" lon="-2.533794000">
        <ele>682.40</ele>
        <time>2014-11-01T09:11:09Z</time>
      </trkpt>
      <trkpt lat="42.308237000" lon="-2.533795000">
        <ele>682.40</ele>
        <time>2014-11-01T09:11:10Z</time>
      </trkpt>
      <trkpt lat="42.308237000" lon="-2.533798000">
        <ele>682.40</ele>
        <time>2014-11-01T09:11:11Z</time>
      </trkpt>
      <trkpt lat="42.308236000" lon="-2.533805000">
        <ele>682.40</ele>
        <time>2014-11-01T09:11:12Z</time>
      </trkpt>
      <trkpt lat="42.308235000" lon="-2.533807000">
        <ele>682.40</ele>
        <time>2014-11-01T09:11:13Z</time>
      </trkpt>
      <trkpt lat="42.308236000" lon="-2.533808000">
        <ele>682.40</ele>
        <time>2014-11-01T09:11:14Z</time>
      </trkpt>
      <trkpt lat="42.308237000" lon="-2.533811000">
        <ele>682.50</ele>
        <time>2014-11-01T09:11:15Z</time>
      </trkpt>
      <trkpt lat="42.308236000" lon="-2.533816000">
        <ele>682.50</ele>
        <time>2014-11-01T09:11:16Z</time>
      </trkpt>
      <trkpt lat="42.308236000" lon="-2.533822000">
        <ele>682.50</ele>
        <time>2014-11-01T09:11:17Z</time>
      </trkpt>
      <trkpt lat="42.308237000" lon="-2.533829000">
        <ele>682.60</ele>
        <time>2014-11-01T09:11:18Z</time>
      </trkpt>
      <trkpt lat="42.308236000" lon="-2.533836000">
        <ele>682.70</ele>
        <time>2014-11-01T09:11:19Z</time>
      </trkpt>
      <trkpt lat="42.308235000" lon="-2.533840000">
        <ele>682.60</ele>
        <time>2014-11-01T09:11:20Z</time>
      </trkpt>
      <trkpt lat="42.308233000" lon="-2.533844000">
        <ele>682.50</ele>
        <time>2014-11-01T09:11:21Z</time>
      </trkpt>
      <trkpt lat="42.308232000" lon="-2.533846000">
        <ele>682.40</ele>
        <time>2014-11-01T09:11:22Z</time>
      </trkpt>
      <trkpt lat="42.308232000" lon="-2.533852000">
        <ele>682.30</ele>
        <time>2014-11-01T09:11:23Z</time>
      </trkpt>
      <trkpt lat="42.308232000" lon="-2.533855000">
        <ele>682.30</ele>
        <time>2014-11-01T09:11:24Z</time>
      </trkpt>
      <trkpt lat="42.308231000" lon="-2.533858000">
        <ele>682.20</ele>
        <time>2014-11-01T09:11:25Z</time>
      </trkpt>
      <trkpt lat="42.308230000" lon="-2.533859000">
        <ele>682.30</ele>
        <time>2014-11-01T09:11:26Z</time>
      </trkpt>
      <trkpt lat="42.308228000" lon="-2.533858000">
        <ele>682.40</ele>
        <time>2014-11-01T09:11:27Z</time>
      </trkpt>
      <trkpt lat="42.308228000" lon="-2.533858000">
        <ele>682.50</ele>
        <time>2014-11-01T09:11:28Z</time>
      </trkpt>
      <trkpt lat="42.308229000" lon="-2.533859000">
        <ele>682.60</ele>
        <time>2014-11-01T09:11:29Z</time>
      </trkpt>
      <trkpt lat="42.308229000" lon="-2.533859000">
        <ele>682.70</ele>
        <time>2014-11-01T09:11:30Z</time>
      </trkpt>
      <trkpt lat="42.308228000" lon="-2.533858000">
        <ele>682.80</ele>
        <time>2014-11-01T09:11:31Z</time>
      </trkpt>
      <trkpt lat="42.308228000" lon="-2.533862000">
        <ele>682.80</ele>
        <time>2014-11-01T09:11:32Z</time>
      </trkpt>
      <trkpt lat="42.308230000" lon="-2.533862000">
        <ele>682.90</ele>
        <time>2014-11-01T09:11:33Z</time>
      </trkpt>
      <trkpt lat="42.308228000" lon="-2.533865000">
        <ele>682.80</ele>
        <time>2014-11-01T09:11:35Z</time>
      </trkpt>
      <trkpt lat="42.308227000" lon="-2.533866000">
        <ele>682.80</ele>
        <time>2014-11-01T09:11:36Z</time>
      </trkpt>
      <trkpt lat="42.308225000" lon="-2.533868000">
        <ele>682.70</ele>
        <time>2014-11-01T09:11:37Z</time>
      </trkpt>
      <trkpt lat="42.308223000" lon="-2.533871000">
        <ele>682.70</ele>
        <time>2014-11-01T09:11:38Z</time>
      </trkpt>
      <trkpt lat="42.308222000" lon="-2.533874000">
        <ele>682.70</ele>
        <time>2014-11-01T09:11:39Z</time>
      </trkpt>
      <trkpt lat="42.308221000" lon="-2.533876000">
        <ele>682.70</ele>
        <time>2014-11-01T09:11:40Z</time>
      </trkpt>
      <trkpt lat="42.308220000" lon="-2.533876000">
        <ele>682.60</ele>
        <time>2014-11-01T09:11:41Z</time>
      </trkpt>
      <trkpt lat="42.308220000" lon="-2.533878000">
        <ele>682.60</ele>
        <time>2014-11-01T09:11:42Z</time>
      </trkpt>
      <trkpt lat="42.308220000" lon="-2.533879000">
        <ele>682.50</ele>
        <time>2014-11-01T09:11:43Z</time>
      </trkpt>
      <trkpt lat="42.308220000" lon="-2.533880000">
        <ele>682.50</ele>
        <time>2014-11-01T09:11:44Z</time>
      </trkpt>
      <trkpt lat="42.308220000" lon="-2.533882000">
        <ele>682.50</ele>
        <time>2014-11-01T09:11:45Z</time>
      </trkpt>
      <trkpt lat="42.308220000" lon="-2.533883000">
        <ele>682.50</ele>
        <time>2014-11-01T09:11:46Z</time>
      </trkpt>
      <trkpt lat="42.308219000" lon="-2.533883000">
        <ele>682.50</ele>
        <time>2014-11-01T09:11:47Z</time>
      </trkpt>
      <trkpt lat="42.308218000" lon="-2.533883000">
        <ele>682.50</ele>
        <time>2014-11-01T09:11:48Z</time>
      </trkpt>
      <trkpt lat="42.308216000" lon="-2.533883000">
        <ele>682.40</ele>
        <time>2014-11-01T09:11:49Z</time>
      </trkpt>
      <trkpt lat="42.308214000" lon="-2.533883000">
        <ele>682.40</ele>
        <time>2014-11-01T09:11:50Z</time>
      </trkpt>
      <trkpt lat="42.308214000" lon="-2.533882000">
        <ele>682.30</ele>
        <time>2014-11-01T09:11:51Z</time>
      </trkpt>
      <trkpt lat="42.308213000" lon="-2.533881000">
        <ele>682.20</ele>
        <time>2014-11-01T09:11:52Z</time>
      </trkpt>
      <trkpt lat="42.308212000" lon="-2.533877000">
        <ele>682.20</ele>
        <time>2014-11-01T09:11:53Z</time>
      </trkpt>
      <trkpt lat="42.308211000" lon="-2.533875000">
        <ele>682.10</ele>
        <time>2014-11-01T09:11:54Z</time>
      </trkpt>
      <trkpt lat="42.308211000" lon="-2.533872000">
        <ele>682.10</ele>
        <time>2014-11-01T09:11:55Z</time>
      </trkpt>
      <trkpt lat="42.308211000" lon="-2.533870000">
        <ele>682.20</ele>
        <time>2014-11-01T09:11:56Z</time>
      </trkpt>
      <trkpt lat="42.308211000" lon="-2.533868000">
        <ele>682.30</ele>
        <time>2014-11-01T09:11:57Z</time>
      </trkpt>
      <trkpt lat="42.308211000" lon="-2.533866000">
        <ele>682.30</ele>
        <time>2014-11-01T09:11:58Z</time>
      </trkpt>
      <trkpt lat="42.308209000" lon="-2.533862000">
        <ele>682.40</ele>
        <time>2014-11-01T09:11:59Z</time>
      </trkpt>
      <trkpt lat="42.308207000" lon="-2.533856000">
        <ele>682.40</ele>
        <time>2014-11-01T09:12:00Z</time>
      </trkpt>
      <trkpt lat="42.308206000" lon="-2.533851000">
        <ele>682.40</ele>
        <time>2014-11-01T09:12:01Z</time>
      </trkpt>
      <trkpt lat="42.308205000" lon="-2.533846000">
        <ele>682.50</ele>
        <time>2014-11-01T09:12:02Z</time>
      </trkpt>
      <trkpt lat="42.308203000" lon="-2.533841000">
        <ele>682.60</ele>
        <time>2014-11-01T09:12:03Z</time>
      </trkpt>
      <trkpt lat="42.308201000" lon="-2.533836000">
        <ele>682.60</ele>
        <time>2014-11-01T09:12:04Z</time>
      </trkpt>
      <trkpt lat="42.308200000" lon="-2.533833000">
        <ele>682.70</ele>
        <time>2014-11-01T09:12:05Z</time>
      </trkpt>
      <trkpt lat="42.308198000" lon="-2.533828000">
        <ele>682.70</ele>
        <time>2014-11-01T09:12:06Z</time>
      </trkpt>
      <trkpt lat="42.308197000" lon="-2.533826000">
        <ele>682.70</ele>
        <time>2014-11-01T09:12:07Z</time>
      </trkpt>
      <trkpt lat="42.308196000" lon="-2.533822000">
        <ele>682.70</ele>
        <time>2014-11-01T09:12:08Z</time>
      </trkpt>
      <trkpt lat="42.308194000" lon="-2.533819000">
        <ele>682.70</ele>
        <time>2014-11-01T09:12:09Z</time>
      </trkpt>
      <trkpt lat="42.308191000" lon="-2.533818000">
        <ele>682.80</ele>
        <time>2014-11-01T09:12:10Z</time>
      </trkpt>
      <trkpt lat="42.308188000" lon="-2.533815000">
        <ele>682.80</ele>
        <time>2014-11-01T09:12:11Z</time>
      </trkpt>
      <trkpt lat="42.308185000" lon="-2.533816000">
        <ele>682.80</ele>
        <time>2014-11-01T09:12:12Z</time>
      </trkpt>
      <trkpt lat="42.308183000" lon="-2.533815000">
        <ele>682.80</ele>
        <time>2014-11-01T09:12:13Z</time>
      </trkpt>
      <trkpt lat="42.308181000" lon="-2.533815000">
        <ele>682.80</ele>
        <time>2014-11-01T09:12:14Z</time>
      </trkpt>
      <trkpt lat="42.308179000" lon="-2.533817000">
        <ele>682.80</ele>
        <time>2014-11-01T09:12:15Z</time>
      </trkpt>
      <trkpt lat="42.308178000" lon="-2.533819000">
        <ele>682.80</ele>
        <time>2014-11-01T09:12:16Z</time>
      </trkpt>
      <trkpt lat="42.308179000" lon="-2.533818000">
        <ele>682.80</ele>
        <time>2014-11-01T09:12:17Z</time>
      </trkpt>
      <trkpt lat="42.308178000" lon="-2.533819000">
        <ele>682.80</ele>
        <time>2014-11-01T09:12:18Z</time>
      </trkpt>
      <trkpt lat="42.308177000" lon="-2.533821000">
        <ele>682.80</ele>
        <time>2014-11-01T09:12:19Z</time>
      </trkpt>
      <trkpt lat="42.308177000" lon="-2.533824000">
        <ele>682.80</ele>
        <time>2014-11-01T09:12:20Z</time>
      </trkpt>
      <trkpt lat="42.308179000" lon="-2.533823000">
        <ele>682.80</ele>
        <time>2014-11-01T09:12:21Z</time>
      </trkpt>
      <trkpt lat="42.308179000" lon="-2.533821000">
        <ele>682.80</ele>
        <time>2014-11-01T09:12:22Z</time>
      </trkpt>
      <trkpt lat="42.308181000" lon="-2.533821000">
        <ele>682.80</ele>
        <time>2014-11-01T09:12:23Z</time>
      </trkpt>
      <trkpt lat="42.308182000" lon="-2.533820000">
        <ele>682.60</ele>
        <time>2014-11-01T09:12:24Z</time>
      </trkpt>
      <trkpt lat="42.308182000" lon="-2.533820000">
        <ele>682.50</ele>
        <time>2014-11-01T09:12:25Z</time>
      </trkpt>
      <trkpt lat="42.308183000" lon="-2.533821000">
        <ele>682.30</ele>
        <time>2014-11-01T09:12:26Z</time>
      </trkpt>
      <trkpt lat="42.308185000" lon="-2.533823000">
        <ele>682.20</ele>
        <time>2014-11-01T09:12:27Z</time>
      </trkpt>
      <trkpt lat="42.308186000" lon="-2.533826000">
        <ele>682.20</ele>
        <time>2014-11-01T09:12:28Z</time>
      </trkpt>
      <trkpt lat="42.308187000" lon="-2.533828000">
        <ele>682.10</ele>
        <time>2014-11-01T09:12:29Z</time>
      </trkpt>
      <trkpt lat="42.308187000" lon="-2.533831000">
        <ele>682.20</ele>
        <time>2014-11-01T09:12:30Z</time>
      </trkpt>
      <trkpt lat="42.308189000" lon="-2.533836000">
        <ele>682.20</ele>
        <time>2014-11-01T09:12:31Z</time>
      </trkpt>
      <trkpt lat="42.308189000" lon="-2.533840000">
        <ele>682.30</ele>
        <time>2014-11-01T09:12:32Z</time>
      </trkpt>
      <trkpt lat="42.308190000" lon="-2.533843000">
        <ele>682.30</ele>
        <time>2014-11-01T09:12:33Z</time>
      </trkpt>
      <trkpt lat="42.308190000" lon="-2.533844000">
        <ele>682.20</ele>
        <time>2014-11-01T09:12:34Z</time>
      </trkpt>
      <trkpt lat="42.308190000" lon="-2.533844000">
        <ele>682.20</ele>
        <time>2014-11-01T09:12:36Z</time>
      </trkpt>
      <trkpt lat="42.308191000" lon="-2.533843000">
        <ele>682.10</ele>
        <time>2014-11-01T09:12:37Z</time>
      </trkpt>
      <trkpt lat="42.308192000" lon="-2.533842000">
        <ele>682.10</ele>
        <time>2014-11-01T09:12:38Z</time>
      </trkpt>
      <trkpt lat="42.308193000" lon="-2.533844000">
        <ele>682.10</ele>
        <time>2014-11-01T09:12:39Z</time>
      </trkpt>
      <trkpt lat="42.308195000" lon="-2.533844000">
        <ele>682.10</ele>
        <time>2014-11-01T09:12:40Z</time>
      </trkpt>
      <trkpt lat="42.308195000" lon="-2.533844000">
        <ele>682.10</ele>
        <time>2014-11-01T09:12:41Z</time>
      </trkpt>
      <trkpt lat="42.308198000" lon="-2.533844000">
        <ele>682.30</ele>
        <time>2014-11-01T09:12:42Z</time>
      </trkpt>
      <trkpt lat="42.308200000" lon="-2.533844000">
        <ele>682.40</ele>
        <time>2014-11-01T09:12:43Z</time>
      </trkpt>
      <trkpt lat="42.308201000" lon="-2.533844000">
        <ele>682.50</ele>
        <time>2014-11-01T09:12:44Z</time>
      </trkpt>
      <trkpt lat="42.308202000" lon="-2.533844000">
        <ele>682.50</ele>
        <time>2014-11-01T09:12:45Z</time>
      </trkpt>
      <trkpt lat="42.308203000" lon="-2.533845000">
        <ele>682.50</ele>
        <time>2014-11-01T09:12:46Z</time>
      </trkpt>
      <trkpt lat="42.308206000" lon="-2.533847000">
        <ele>682.60</ele>
        <time>2014-11-01T09:12:47Z</time>
      </trkpt>
      <trkpt lat="42.308209000" lon="-2.533847000">
        <ele>682.30</ele>
        <time>2014-11-01T09:12:48Z</time>
      </trkpt>
      <trkpt lat="42.308211000" lon="-2.533846000">
        <ele>682.20</ele>
        <time>2014-11-01T09:12:49Z</time>
      </trkpt>
      <trkpt lat="42.308213000" lon="-2.533846000">
        <ele>682.00</ele>
        <time>2014-11-01T09:12:50Z</time>
      </trkpt>
      <trkpt lat="42.308215000" lon="-2.533846000">
        <ele>681.90</ele>
        <time>2014-11-01T09:12:51Z</time>
      </trkpt>
      <trkpt lat="42.308218000" lon="-2.533846000">
        <ele>682.10</ele>
        <time>2014-11-01T09:12:52Z</time>
      </trkpt>
      <trkpt lat="42.308217000" lon="-2.533842000">
        <ele>682.10</ele>
        <time>2014-11-01T09:12:53Z</time>
      </trkpt>
      <trkpt lat="42.308215000" lon="-2.533839000">
        <ele>682.20</ele>
        <time>2014-11-01T09:12:54Z</time>
      </trkpt>
      <trkpt lat="42.308213000" lon="-2.533837000">
        <ele>682.30</ele>
        <time>2014-11-01T09:12:55Z</time>
      </trkpt>
      <trkpt lat="42.308210000" lon="-2.533839000">
        <ele>682.30</ele>
        <time>2014-11-01T09:12:56Z</time>
      </trkpt>
      <trkpt lat="42.308211000" lon="-2.533842000">
        <ele>682.30</ele>
        <time>2014-11-01T09:12:57Z</time>
      </trkpt>
      <trkpt lat="42.308216000" lon="-2.533848000">
        <ele>682.40</ele>
        <time>2014-11-01T09:12:58Z</time>
      </trkpt>
      <trkpt lat="42.308219000" lon="-2.533853000">
        <ele>682.40</ele>
        <time>2014-11-01T09:12:59Z</time>
      </trkpt>
      <trkpt lat="42.308220000" lon="-2.533853000">
        <ele>682.40</ele>
        <time>2014-11-01T09:13:00Z</time>
      </trkpt>
      <trkpt lat="42.308220000" lon="-2.533856000">
        <ele>682.40</ele>
        <time>2014-11-01T09:13:01Z</time>
      </trkpt>
      <trkpt lat="42.308221000" lon="-2.533856000">
        <ele>682.40</ele>
        <time>2014-11-01T09:13:02Z</time>
      </trkpt>
      <trkpt lat="42.308222000" lon="-2.533856000">
        <ele>682.40</ele>
        <time>2014-11-01T09:13:03Z</time>
      </trkpt>
      <trkpt lat="42.308220000" lon="-2.533858000">
        <ele>682.40</ele>
        <time>2014-11-01T09:13:04Z</time>
      </trkpt>
      <trkpt lat="42.308220000" lon="-2.533860000">
        <ele>682.40</ele>
        <time>2014-11-01T09:13:05Z</time>
      </trkpt>
      <trkpt lat="42.308218000" lon="-2.533860000">
        <ele>682.40</ele>
        <time>2014-11-01T09:13:06Z</time>
      </trkpt>
      <trkpt lat="42.308220000" lon="-2.533856000">
        <ele>682.40</ele>
        <time>2014-11-01T09:13:07Z</time>
      </trkpt>
      <trkpt lat="42.308221000" lon="-2.533856000">
        <ele>682.40</ele>
        <time>2014-11-01T09:13:08Z</time>
      </trkpt>
      <trkpt lat="42.308220000" lon="-2.533858000">
        <ele>682.40</ele>
        <time>2014-11-01T09:13:09Z</time>
      </trkpt>
      <trkpt lat="42.308220000" lon="-2.533857000">
        <ele>682.50</ele>
        <time>2014-11-01T09:13:10Z</time>
      </trkpt>
      <trkpt lat="42.308219000" lon="-2.533855000">
        <ele>682.50</ele>
        <time>2014-11-01T09:13:11Z</time>
      </trkpt>
      <trkpt lat="42.308219000" lon="-2.533852000">
        <ele>682.50</ele>
        <time>2014-11-01T09:13:12Z</time>
      </trkpt>
      <trkpt lat="42.308217000" lon="-2.533848000">
        <ele>682.50</ele>
        <time>2014-11-01T09:13:13Z</time>
      </trkpt>
      <trkpt lat="42.308216000" lon="-2.533847000">
        <ele>682.50</ele>
        <time>2014-11-01T09:13:14Z</time>
      </trkpt>
      <trkpt lat="42.308223000" lon="-2.533841000">
        <ele>682.50</ele>
        <time>2014-11-01T09:13:15Z</time>
      </trkpt>
      <trkpt lat="42.308224000" lon="-2.533836000">
        <ele>682.50</ele>
        <time>2014-11-01T09:13:16Z</time>
      </trkpt>
      <trkpt lat="42.308228000" lon="-2.533836000">
        <ele>682.50</ele>
        <time>2014-11-01T09:13:17Z</time>
      </trkpt>
      <trkpt lat="42.308229000" lon="-2.533838000">
        <ele>682.50</ele>
        <time>2014-11-01T09:13:18Z</time>
      </trkpt>
      <trkpt lat="42.308228000" lon="-2.533838000">
        <ele>682.50</ele>
        <time>2014-11-01T09:13:19Z</time>
      </trkpt>
      <trkpt lat="42.308228000" lon="-2.533835000">
        <ele>682.60</ele>
        <time>2014-11-01T09:13:20Z</time>
      </trkpt>
      <trkpt lat="42.308230000" lon="-2.533833000">
        <ele>682.60</ele>
        <time>2014-11-01T09:13:21Z</time>
      </trkpt>
      <trkpt lat="42.308229000" lon="-2.533829000">
        <ele>682.70</ele>
        <time>2014-11-01T09:13:22Z</time>
      </trkpt>
      <trkpt lat="42.308224000" lon="-2.533825000">
        <ele>682.80</ele>
        <time>2014-11-01T09:13:23Z</time>
      </trkpt>
      <trkpt lat="42.308218000" lon="-2.533822000">
        <ele>682.90</ele>
        <time>2014-11-01T09:13:24Z</time>
      </trkpt>
      <trkpt lat="42.308210000" lon="-2.533822000">
        <ele>683.00</ele>
        <time>2014-11-01T09:13:25Z</time>
      </trkpt>
      <trkpt lat="42.308203000" lon="-2.533825000">
        <ele>683.10</ele>
        <time>2014-11-01T09:13:26Z</time>
      </trkpt>
      <trkpt lat="42.308199000" lon="-2.533827000">
        <ele>683.20</ele>
        <time>2014-11-01T09:13:27Z</time>
      </trkpt>
      <trkpt lat="42.308198000" lon="-2.533827000">
        <ele>683.10</ele>
        <time>2014-11-01T09:13:28Z</time>
      </trkpt>
      <trkpt lat="42.308198000" lon="-2.533830000">
        <ele>683.00</ele>
        <time>2014-11-01T09:13:29Z</time>
      </trkpt>
      <trkpt lat="42.308196000" lon="-2.533830000">
        <ele>683.00</ele>
        <time>2014-11-01T09:13:30Z</time>
      </trkpt>
      <trkpt lat="42.308195000" lon="-2.533833000">
        <ele>683.00</ele>
        <time>2014-11-01T09:13:31Z</time>
      </trkpt>
      <trkpt lat="42.308194000" lon="-2.533839000">
        <ele>682.90</ele>
        <time>2014-11-01T09:13:32Z</time>
      </trkpt>
      <trkpt lat="42.308190000" lon="-2.533843000">
        <ele>682.90</ele>
        <time>2014-11-01T09:13:33Z</time>
      </trkpt>
      <trkpt lat="42.308186000" lon="-2.533837000">
        <ele>682.90</ele>
        <time>2014-11-01T09:13:34Z</time>
      </trkpt>
      <trkpt lat="42.308176000" lon="-2.533833000">
        <ele>682.90</ele>
        <time>2014-11-01T09:13:35Z</time>
      </trkpt>
      <trkpt lat="42.308161000" lon="-2.533817000">
        <ele>682.90</ele>
        <time>2014-11-01T09:13:37Z</time>
      </trkpt>
      <trkpt lat="42.308161000" lon="-2.533806000">
        <ele>682.70</ele>
        <time>2014-11-01T09:13:38Z</time>
      </trkpt>
      <trkpt lat="42.308159000" lon="-2.533796000">
        <ele>682.50</ele>
        <time>2014-11-01T09:13:39Z</time>
      </trkpt>
      <trkpt lat="42.308157000" lon="-2.533790000">
        <ele>682.40</ele>
        <time>2014-11-01T09:13:40Z</time>
      </trkpt>
      <trkpt lat="42.308158000" lon="-2.533785000">
        <ele>682.30</ele>
        <time>2014-11-01T09:13:41Z</time>
      </trkpt>
      <trkpt lat="42.308155000" lon="-2.533787000">
        <ele>682.30</ele>
        <time>2014-11-01T09:13:42Z</time>
      </trkpt>
      <trkpt lat="42.308152000" lon="-2.533787000">
        <ele>682.30</ele>
        <time>2014-11-01T09:13:43Z</time>
      </trkpt>
      <trkpt lat="42.308148000" lon="-2.533787000">
        <ele>682.30</ele>
        <time>2014-11-01T09:13:44Z</time>
      </trkpt>
      <trkpt lat="42.308145000" lon="-2.533788000">
        <ele>682.30</ele>
        <time>2014-11-01T09:13:45Z</time>
      </trkpt>
      <trkpt lat="42.308140000" lon="-2.533786000">
        <ele>682.30</ele>
        <time>2014-11-01T09:13:46Z</time>
      </trkpt>
      <trkpt lat="42.308134000" lon="-2.533784000">
        <ele>682.30</ele>
        <time>2014-11-01T09:13:47Z</time>
      </trkpt>
      <trkpt lat="42.308127000" lon="-2.533785000">
        <ele>682.30</ele>
        <time>2014-11-01T09:13:48Z</time>
      </trkpt>
      <trkpt lat="42.308119000" lon="-2.533790000">
        <ele>682.20</ele>
        <time>2014-11-01T09:13:49Z</time>
      </trkpt>
      <trkpt lat="42.308104000" lon="-2.533791000">
        <ele>682.10</ele>
        <time>2014-11-01T09:13:50Z</time>
      </trkpt>
      <trkpt lat="42.308092000" lon="-2.533785000">
        <ele>682.00</ele>
        <time>2014-11-01T09:13:51Z</time>
      </trkpt>
      <trkpt lat="42.308079000" lon="-2.533783000">
        <ele>681.90</ele>
        <time>2014-11-01T09:13:52Z</time>
      </trkpt>
      <trkpt lat="42.308067000" lon="-2.533780000">
        <ele>681.80</ele>
        <time>2014-11-01T09:13:53Z</time>
      </trkpt>
      <trkpt lat="42.308054000" lon="-2.533784000">
        <ele>682.00</ele>
        <time>2014-11-01T09:13:54Z</time>
      </trkpt>
      <trkpt lat="42.308046000" lon="-2.533787000">
        <ele>682.10</ele>
        <time>2014-11-01T09:13:55Z</time>
      </trkpt>
      <trkpt lat="42.308041000" lon="-2.533788000">
        <ele>682.20</ele>
        <time>2014-11-01T09:13:56Z</time>
      </trkpt>
      <trkpt lat="42.308032000" lon="-2.533792000">
        <ele>682.20</ele>
        <time>2014-11-01T09:13:57Z</time>
      </trkpt>
      <trkpt lat="42.308027000" lon="-2.533795000">
        <ele>682.40</ele>
        <time>2014-11-01T09:13:58Z</time>
      </trkpt>
      <trkpt lat="42.308018000" lon="-2.533789000">
        <ele>682.60</ele>
        <time>2014-11-01T09:13:59Z</time>
      </trkpt>
      <trkpt lat="42.308011000" lon="-2.533786000">
        <ele>682.70</ele>
        <time>2014-11-01T09:14:00Z</time>
      </trkpt>
      <trkpt lat="42.308008000" lon="-2.533781000">
        <ele>682.80</ele>
        <time>2014-11-01T09:14:01Z</time>
      </trkpt>
      <trkpt lat="42.308009000" lon="-2.533781000">
        <ele>683.00</ele>
        <time>2014-11-01T09:14:02Z</time>
      </trkpt>
      <trkpt lat="42.308008000" lon="-2.533780000">
        <ele>683.10</ele>
        <time>2014-11-01T09:14:03Z</time>
      </trkpt>
      <trkpt lat="42.308013000" lon="-2.533777000">
        <ele>683.20</ele>
        <time>2014-11-01T09:14:04Z</time>
      </trkpt>
      <trkpt lat="42.308007000" lon="-2.533770000">
        <ele>683.30</ele>
        <time>2014-11-01T09:14:05Z</time>
      </trkpt>
      <trkpt lat="42.308000000" lon="-2.533762000">
        <ele>683.40</ele>
        <time>2014-11-01T09:14:06Z</time>
      </trkpt>
      <trkpt lat="42.307991000" lon="-2.533753000">
        <ele>683.50</ele>
        <time>2014-11-01T09:14:07Z</time>
      </trkpt>
      <trkpt lat="42.307971000" lon="-2.533747000">
        <ele>683.60</ele>
        <time>2014-11-01T09:14:08Z</time>
      </trkpt>
      <trkpt lat="42.307953000" lon="-2.533747000">
        <ele>683.60</ele>
        <time>2014-11-01T09:14:09Z</time>
      </trkpt>
      <trkpt lat="42.307936000" lon="-2.533752000">
        <ele>683.60</ele>
        <time>2014-11-01T09:14:10Z</time>
      </trkpt>
      <trkpt lat="42.307918000" lon="-2.533754000">
        <ele>683.70</ele>
        <time>2014-11-01T09:14:11Z</time>
      </trkpt>
      <trkpt lat="42.307885000" lon="-2.533742000">
        <ele>683.60</ele>
        <time>2014-11-01T09:14:12Z</time>
      </trkpt>
      <trkpt lat="42.307853000" lon="-2.533728000">
        <ele>683.60</ele>
        <time>2014-11-01T09:14:13Z</time>
      </trkpt>
      <trkpt lat="42.307813000" lon="-2.533716000">
        <ele>683.60</ele>
        <time>2014-11-01T09:14:14Z</time>
      </trkpt>
      <trkpt lat="42.307775000" lon="-2.533702000">
        <ele>683.60</ele>
        <time>2014-11-01T09:14:15Z</time>
      </trkpt>
      <trkpt lat="42.307735000" lon="-2.533705000">
        <ele>683.50</ele>
        <time>2014-11-01T09:14:16Z</time>
      </trkpt>
      <trkpt lat="42.307691000" lon="-2.533700000">
        <ele>683.50</ele>
        <time>2014-11-01T09:14:17Z</time>
      </trkpt>
      <trkpt lat="42.307647000" lon="-2.533705000">
        <ele>683.40</ele>
        <time>2014-11-01T09:14:18Z</time>
      </trkpt>
      <trkpt lat="42.307600000" lon="-2.533722000">
        <ele>683.30</ele>
        <time>2014-11-01T09:14:19Z</time>
      </trkpt>
      <trkpt lat="42.307552000" lon="-2.533687000">
        <ele>682.80</ele>
        <time>2014-11-01T09:14:20Z</time>
      </trkpt>
      <trkpt lat="42.307495000" lon="-2.533647000">
        <ele>682.50</ele>
        <time>2014-11-01T09:14:21Z</time>
      </trkpt>
      <trkpt lat="42.307438000" lon="-2.533604000">
        <ele>682.20</ele>
        <time>2014-11-01T09:14:22Z</time>
      </trkpt>
      <trkpt lat="42.307383000" lon="-2.533572000">
        <ele>681.90</ele>
        <time>2014-11-01T09:14:23Z</time>
      </trkpt>
      <trkpt lat="42.307314000" lon="-2.533547000">
        <ele>680.70</ele>
        <time>2014-11-01T09:14:24Z</time>
      </trkpt>
      <trkpt lat="42.307240000" lon="-2.533530000">
        <ele>679.80</ele>
        <time>2014-11-01T09:14:25Z</time>
      </trkpt>
      <trkpt lat="42.307166000" lon="-2.533522000">
        <ele>678.80</ele>
        <time>2014-11-01T09:14:26Z</time>
      </trkpt>
      <trkpt lat="42.307083000" lon="-2.533524000">
        <ele>678.10</ele>
        <time>2014-11-01T09:14:27Z</time>
      </trkpt>
      <trkpt lat="42.306992000" lon="-2.533532000">
        <ele>677.40</ele>
        <time>2014-11-01T09:14:28Z</time>
      </trkpt>
      <trkpt lat="42.306901000" lon="-2.533533000">
        <ele>676.90</ele>
        <time>2014-11-01T09:14:29Z</time>
      </trkpt>
      <trkpt lat="42.306809000" lon="-2.533529000">
        <ele>675.90</ele>
        <time>2014-11-01T09:14:30Z</time>
      </trkpt>
      <trkpt lat="42.306718000" lon="-2.533533000">
        <ele>675.20</ele>
        <time>2014-11-01T09:14:31Z</time>
      </trkpt>
      <trkpt lat="42.306627000" lon="-2.533526000">
        <ele>674.30</ele>
        <time>2014-11-01T09:14:32Z</time>
      </trkpt>
      <trkpt lat="42.306535000" lon="-2.533515000">
        <ele>673.60</ele>
        <time>2014-11-01T09:14:33Z</time>
      </trkpt>
      <trkpt lat="42.306444000" lon="-2.533503000">
        <ele>672.80</ele>
        <time>2014-11-01T09:14:34Z</time>
      </trkpt>
      <trkpt lat="42.306354000" lon="-2.533491000">
        <ele>672.20</ele>
        <time>2014-11-01T09:14:35Z</time>
      </trkpt>
      <trkpt lat="42.306268000" lon="-2.533481000">
        <ele>671.80</ele>
        <time>2014-11-01T09:14:36Z</time>
      </trkpt>
      <trkpt lat="42.306097000" lon="-2.533459000">
        <ele>670.70</ele>
        <time>2014-11-01T09:14:38Z</time>
      </trkpt>
      <trkpt lat="42.306014000" lon="-2.533444000">
        <ele>670.20</ele>
        <time>2014-11-01T09:14:39Z</time>
      </trkpt>
      <trkpt lat="42.305929000" lon="-2.533414000">
        <ele>669.60</ele>
        <time>2014-11-01T09:14:40Z</time>
      </trkpt>
      <trkpt lat="42.305842000" lon="-2.533374000">
        <ele>669.20</ele>
        <time>2014-11-01T09:14:41Z</time>
      </trkpt>
      <trkpt lat="42.305752000" lon="-2.533331000">
        <ele>668.40</ele>
        <time>2014-11-01T09:14:42Z</time>
      </trkpt>
      <trkpt lat="42.305666000" lon="-2.533289000">
        <ele>667.80</ele>
        <time>2014-11-01T09:14:43Z</time>
      </trkpt>
      <trkpt lat="42.305579000" lon="-2.533251000">
        <ele>667.20</ele>
        <time>2014-11-01T09:14:44Z</time>
      </trkpt>
      <trkpt lat="42.305493000" lon="-2.533217000">
        <ele>666.80</ele>
        <time>2014-11-01T09:14:45Z</time>
      </trkpt>
      <trkpt lat="42.305406000" lon="-2.533182000">
        <ele>666.50</ele>
        <time>2014-11-01T09:14:46Z</time>
      </trkpt>
      <trkpt lat="42.305321000" lon="-2.533150000">
        <ele>666.30</ele>
        <time>2014-11-01T09:14:47Z</time>
      </trkpt>
      <trkpt lat="42.305236000" lon="-2.533121000">
        <ele>665.90</ele>
        <time>2014-11-01T09:14:48Z</time>
      </trkpt>
      <trkpt lat="42.305156000" lon="-2.533087000">
        <ele>665.70</ele>
        <time>2014-11-01T09:14:49Z</time>
      </trkpt>
      <trkpt lat="42.305080000" lon="-2.533051000">
        <ele>665.20</ele>
        <time>2014-11-01T09:14:50Z</time>
      </trkpt>
      <trkpt lat="42.305004000" lon="-2.533009000">
        <ele>664.80</ele>
        <time>2014-11-01T09:14:51Z</time>
      </trkpt>
      <trkpt lat="42.304932000" lon="-2.532963000">
        <ele>664.10</ele>
        <time>2014-11-01T09:14:52Z</time>
      </trkpt>
      <trkpt lat="42.304857000" lon="-2.532926000">
        <ele>663.50</ele>
        <time>2014-11-01T09:14:53Z</time>
      </trkpt>
      <trkpt lat="42.304778000" lon="-2.532893000">
        <ele>663.10</ele>
        <time>2014-11-01T09:14:54Z</time>
      </trkpt>
      <trkpt lat="42.304695000" lon="-2.532863000">
        <ele>662.80</ele>
        <time>2014-11-01T09:14:55Z</time>
      </trkpt>
      <trkpt lat="42.304609000" lon="-2.532837000">
        <ele>662.30</ele>
        <time>2014-11-01T09:14:56Z</time>
      </trkpt>
      <trkpt lat="42.304522000" lon="-2.532809000">
        <ele>661.90</ele>
        <time>2014-11-01T09:14:57Z</time>
      </trkpt>
      <trkpt lat="42.304435000" lon="-2.532781000">
        <ele>661.60</ele>
        <time>2014-11-01T09:14:58Z</time>
      </trkpt>
      <trkpt lat="42.304352000" lon="-2.532754000">
        <ele>661.40</ele>
        <time>2014-11-01T09:14:59Z</time>
      </trkpt>
      <trkpt lat="42.304273000" lon="-2.532727000">
        <ele>661.30</ele>
        <time>2014-11-01T09:15:00Z</time>
      </trkpt>
      <trkpt lat="42.304198000" lon="-2.532697000">
        <ele>661.30</ele>
        <time>2014-11-01T09:15:01Z</time>
      </trkpt>
      <trkpt lat="42.304131000" lon="-2.532676000">
        <ele>661.30</ele>
        <time>2014-11-01T09:15:02Z</time>
      </trkpt>
      <trkpt lat="42.304069000" lon="-2.532656000">
        <ele>661.30</ele>
        <time>2014-11-01T09:15:03Z</time>
      </trkpt>
      <trkpt lat="42.304017000" lon="-2.532640000">
        <ele>661.30</ele>
        <time>2014-11-01T09:15:04Z</time>
      </trkpt>
      <trkpt lat="42.303973000" lon="-2.532629000">
        <ele>661.30</ele>
        <time>2014-11-01T09:15:05Z</time>
      </trkpt>
      <trkpt lat="42.303942000" lon="-2.532622000">
        <ele>661.40</ele>
        <time>2014-11-01T09:15:06Z</time>
      </trkpt>
      <trkpt lat="42.303922000" lon="-2.532628000">
        <ele>661.50</ele>
        <time>2014-11-01T09:15:07Z</time>
      </trkpt>
      <trkpt lat="42.303907000" lon="-2.532631000">
        <ele>661.60</ele>
        <time>2014-11-01T09:15:08Z</time>
      </trkpt>
      <trkpt lat="42.303890000" lon="-2.532634000">
        <ele>661.70</ele>
        <time>2014-11-01T09:15:09Z</time>
      </trkpt>
      <trkpt lat="42.303873000" lon="-2.532636000">
        <ele>661.80</ele>
        <time>2014-11-01T09:15:10Z</time>
      </trkpt>
      <trkpt lat="42.303857000" lon="-2.532632000">
        <ele>661.90</ele>
        <time>2014-11-01T09:15:11Z</time>
      </trkpt>
      <trkpt lat="42.303840000" lon="-2.532629000">
        <ele>662.50</ele>
        <time>2014-11-01T09:15:12Z</time>
      </trkpt>
      <trkpt lat="42.303822000" lon="-2.532627000">
        <ele>662.90</ele>
        <time>2014-11-01T09:15:13Z</time>
      </trkpt>
      <trkpt lat="42.303803000" lon="-2.532622000">
        <ele>663.20</ele>
        <time>2014-11-01T09:15:14Z</time>
      </trkpt>
      <trkpt lat="42.303788000" lon="-2.532619000">
        <ele>663.50</ele>
        <time>2014-11-01T09:15:15Z</time>
      </trkpt>
      <trkpt lat="42.303772000" lon="-2.532617000">
        <ele>663.70</ele>
        <time>2014-11-01T09:15:16Z</time>
      </trkpt>
      <trkpt lat="42.303757000" lon="-2.532613000">
        <ele>663.90</ele>
        <time>2014-11-01T09:15:17Z</time>
      </trkpt>
      <trkpt lat="42.303742000" lon="-2.532612000">
        <ele>664.20</ele>
        <time>2014-11-01T09:15:18Z</time>
      </trkpt>
      <trkpt lat="42.303726000" lon="-2.532612000">
        <ele>664.50</ele>
        <time>2014-11-01T09:15:19Z</time>
      </trkpt>
      <trkpt lat="42.303710000" lon="-2.532612000">
        <ele>664.90</ele>
        <time>2014-11-01T09:15:20Z</time>
      </trkpt>
      <trkpt lat="42.303693000" lon="-2.532610000">
        <ele>665.20</ele>
        <time>2014-11-01T09:15:21Z</time>
      </trkpt>
      <trkpt lat="42.303676000" lon="-2.532609000">
        <ele>665.50</ele>
        <time>2014-11-01T09:15:22Z</time>
      </trkpt>
      <trkpt lat="42.303660000" lon="-2.532610000">
        <ele>665.70</ele>
        <time>2014-11-01T09:15:23Z</time>
      </trkpt>
      <trkpt lat="42.303644000" lon="-2.532607000">
        <ele>666.10</ele>
        <time>2014-11-01T09:15:24Z</time>
      </trkpt>
      <trkpt lat="42.303626000" lon="-2.532603000">
        <ele>666.30</ele>
        <time>2014-11-01T09:15:25Z</time>
      </trkpt>
      <trkpt lat="42.303608000" lon="-2.532609000">
        <ele>666.60</ele>
        <time>2014-11-01T09:15:26Z</time>
      </trkpt>
      <trkpt lat="42.303591000" lon="-2.532614000">
        <ele>666.80</ele>
        <time>2014-11-01T09:15:27Z</time>
      </trkpt>
      <trkpt lat="42.303574000" lon="-2.532613000">
        <ele>667.10</ele>
        <time>2014-11-01T09:15:28Z</time>
      </trkpt>
      <trkpt lat="42.303557000" lon="-2.532621000">
        <ele>667.40</ele>
        <time>2014-11-01T09:15:29Z</time>
      </trkpt>
      <trkpt lat="42.303539000" lon="-2.532627000">
        <ele>667.90</ele>
        <time>2014-11-01T09:15:30Z</time>
      </trkpt>
      <trkpt lat="42.303523000" lon="-2.532628000">
        <ele>668.20</ele>
        <time>2014-11-01T09:15:31Z</time>
      </trkpt>
      <trkpt lat="42.303506000" lon="-2.532631000">
        <ele>668.50</ele>
        <time>2014-11-01T09:15:32Z</time>
      </trkpt>
      <trkpt lat="42.303491000" lon="-2.532632000">
        <ele>668.80</ele>
        <time>2014-11-01T09:15:33Z</time>
      </trkpt>
      <trkpt lat="42.303478000" lon="-2.532634000">
        <ele>669.10</ele>
        <time>2014-11-01T09:15:34Z</time>
      </trkpt>
      <trkpt lat="42.303463000" lon="-2.532639000">
        <ele>669.30</ele>
        <time>2014-11-01T09:15:35Z</time>
      </trkpt>
      <trkpt lat="42.303446000" lon="-2.532640000">
        <ele>669.50</ele>
        <time>2014-11-01T09:15:36Z</time>
      </trkpt>
      <trkpt lat="42.303433000" lon="-2.532644000">
        <ele>669.70</ele>
        <time>2014-11-01T09:15:37Z</time>
      </trkpt>
      <trkpt lat="42.303406000" lon="-2.532647000">
        <ele>670.00</ele>
        <time>2014-11-01T09:15:39Z</time>
      </trkpt>
      <trkpt lat="42.303392000" lon="-2.532653000">
        <ele>670.30</ele>
        <time>2014-11-01T09:15:40Z</time>
      </trkpt>
      <trkpt lat="42.303380000" lon="-2.532658000">
        <ele>670.40</ele>
        <time>2014-11-01T09:15:41Z</time>
      </trkpt>
      <trkpt lat="42.303362000" lon="-2.532659000">
        <ele>670.70</ele>
        <time>2014-11-01T09:15:42Z</time>
      </trkpt>
      <trkpt lat="42.303345000" lon="-2.532658000">
        <ele>670.90</ele>
        <time>2014-11-01T09:15:43Z</time>
      </trkpt>
      <trkpt lat="42.303331000" lon="-2.532655000">
        <ele>671.30</ele>
        <time>2014-11-01T09:15:44Z</time>
      </trkpt>
      <trkpt lat="42.303317000" lon="-2.532660000">
        <ele>671.60</ele>
        <time>2014-11-01T09:15:45Z</time>
      </trkpt>
      <trkpt lat="42.303305000" lon="-2.532664000">
        <ele>671.90</ele>
        <time>2014-11-01T09:15:46Z</time>
      </trkpt>
      <trkpt lat="42.303292000" lon="-2.532667000">
        <ele>672.10</ele>
        <time>2014-11-01T09:15:47Z</time>
      </trkpt>
      <trkpt lat="42.303281000" lon="-2.532667000">
        <ele>672.20</ele>
        <time>2014-11-01T09:15:48Z</time>
      </trkpt>
      <trkpt lat="42.303268000" lon="-2.532669000">
        <ele>672.30</ele>
        <time>2014-11-01T09:15:49Z</time>
      </trkpt>
      <trkpt lat="42.303254000" lon="-2.532669000">
        <ele>672.50</ele>
        <time>2014-11-01T09:15:50Z</time>
      </trkpt>
      <trkpt lat="42.303239000" lon="-2.532669000">
        <ele>672.60</ele>
        <time>2014-11-01T09:15:51Z</time>
      </trkpt>
      <trkpt lat="42.303224000" lon="-2.532670000">
        <ele>672.90</ele>
        <time>2014-11-01T09:15:52Z</time>
      </trkpt>
      <trkpt lat="42.303207000" lon="-2.532672000">
        <ele>673.20</ele>
        <time>2014-11-01T09:15:53Z</time>
      </trkpt>
      <trkpt lat="42.303192000" lon="-2.532669000">
        <ele>673.40</ele>
        <time>2014-11-01T09:15:54Z</time>
      </trkpt>
      <trkpt lat="42.303178000" lon="-2.532670000">
        <ele>673.60</ele>
        <time>2014-11-01T09:15:55Z</time>
      </trkpt>
      <trkpt lat="42.303164000" lon="-2.532671000">
        <ele>673.80</ele>
        <time>2014-11-01T09:15:56Z</time>
      </trkpt>
      <trkpt lat="42.303150000" lon="-2.532677000">
        <ele>674.00</ele>
        <time>2014-11-01T09:15:57Z</time>
      </trkpt>
      <trkpt lat="42.303133000" lon="-2.532679000">
        <ele>674.20</ele>
        <time>2014-11-01T09:15:58Z</time>
      </trkpt>
      <trkpt lat="42.303117000" lon="-2.532679000">
        <ele>674.40</ele>
        <time>2014-11-01T09:15:59Z</time>
      </trkpt>
      <trkpt lat="42.303104000" lon="-2.532678000">
        <ele>674.50</ele>
        <time>2014-11-01T09:16:00Z</time>
      </trkpt>
      <trkpt lat="42.303086000" lon="-2.532678000">
        <ele>674.60</ele>
        <time>2014-11-01T09:16:01Z</time>
      </trkpt>
      <trkpt lat="42.303069000" lon="-2.532677000">
        <ele>674.80</ele>
        <time>2014-11-01T09:16:02Z</time>
      </trkpt>
      <trkpt lat="42.303052000" lon="-2.532673000">
        <ele>675.00</ele>
        <time>2014-11-01T09:16:03Z</time>
      </trkpt>
      <trkpt lat="42.303037000" lon="-2.532674000">
        <ele>675.10</ele>
        <time>2014-11-01T09:16:04Z</time>
      </trkpt>
      <trkpt lat="42.303019000" lon="-2.532673000">
        <ele>675.30</ele>
        <time>2014-11-01T09:16:05Z</time>
      </trkpt>
      <trkpt lat="42.303003000" lon="-2.532672000">
        <ele>675.60</ele>
        <time>2014-11-01T09:16:06Z</time>
      </trkpt>
      <trkpt lat="42.302989000" lon="-2.532669000">
        <ele>675.80</ele>
        <time>2014-11-01T09:16:07Z</time>
      </trkpt>
      <trkpt lat="42.302974000" lon="-2.532669000">
        <ele>676.00</ele>
        <time>2014-11-01T09:16:08Z</time>
      </trkpt>
      <trkpt lat="42.302957000" lon="-2.532664000">
        <ele>676.20</ele>
        <time>2014-11-01T09:16:09Z</time>
      </trkpt>
      <trkpt lat="42.302941000" lon="-2.532662000">
        <ele>676.40</ele>
        <time>2014-11-01T09:16:10Z</time>
      </trkpt>
      <trkpt lat="42.302925000" lon="-2.532661000">
        <ele>676.50</ele>
        <time>2014-11-01T09:16:11Z</time>
      </trkpt>
      <trkpt lat="42.302909000" lon="-2.532659000">
        <ele>676.80</ele>
        <time>2014-11-01T09:16:12Z</time>
      </trkpt>
      <trkpt lat="42.302895000" lon="-2.532656000">
        <ele>677.00</ele>
        <time>2014-11-01T09:16:13Z</time>
      </trkpt>
      <trkpt lat="42.302881000" lon="-2.532656000">
        <ele>677.20</ele>
        <time>2014-11-01T09:16:14Z</time>
      </trkpt>
      <trkpt lat="42.302865000" lon="-2.532653000">
        <ele>677.40</ele>
        <time>2014-11-01T09:16:15Z</time>
      </trkpt>
      <trkpt lat="42.302849000" lon="-2.532654000">
        <ele>677.80</ele>
        <time>2014-11-01T09:16:16Z</time>
      </trkpt>
      <trkpt lat="42.302831000" lon="-2.532652000">
        <ele>678.20</ele>
        <time>2014-11-01T09:16:17Z</time>
      </trkpt>
      <trkpt lat="42.302813000" lon="-2.532653000">
        <ele>678.40</ele>
        <time>2014-11-01T09:16:18Z</time>
      </trkpt>
      <trkpt lat="42.302798000" lon="-2.532654000">
        <ele>678.60</ele>
        <time>2014-11-01T09:16:19Z</time>
      </trkpt>
      <trkpt lat="42.302780000" lon="-2.532654000">
        <ele>678.80</ele>
        <time>2014-11-01T09:16:20Z</time>
      </trkpt>
      <trkpt lat="42.302765000" lon="-2.532658000">
        <ele>678.90</ele>
        <time>2014-11-01T09:16:21Z</time>
      </trkpt>
      <trkpt lat="42.302751000" lon="-2.532656000">
        <ele>678.90</ele>
        <time>2014-11-01T09:16:22Z</time>
      </trkpt>
      <trkpt lat="42.302736000" lon="-2.532656000">
        <ele>679.00</ele>
        <time>2014-11-01T09:16:23Z</time>
      </trkpt>
      <trkpt lat="42.302720000" lon="-2.532654000">
        <ele>679.00</ele>
        <time>2014-11-01T09:16:24Z</time>
      </trkpt>
      <trkpt lat="42.302702000" lon="-2.532655000">
        <ele>679.10</ele>
        <time>2014-11-01T09:16:25Z</time>
      </trkpt>
      <trkpt lat="42.302686000" lon="-2.532655000">
        <ele>679.40</ele>
        <time>2014-11-01T09:16:26Z</time>
      </trkpt>
      <trkpt lat="42.302670000" lon="-2.532654000">
        <ele>679.70</ele>
        <time>2014-11-01T09:16:27Z</time>
      </trkpt>
      <trkpt lat="42.302656000" lon="-2.532654000">
        <ele>679.80</ele>
        <time>2014-11-01T09:16:28Z</time>
      </trkpt>
      <trkpt lat="42.302640000" lon="-2.532654000">
        <ele>680.00</ele>
        <time>2014-11-01T09:16:29Z</time>
      </trkpt>
      <trkpt lat="42.302622000" lon="-2.532651000">
        <ele>680.10</ele>
        <time>2014-11-01T09:16:30Z</time>
      </trkpt>
      <trkpt lat="42.302608000" lon="-2.532652000">
        <ele>680.20</ele>
        <time>2014-11-01T09:16:31Z</time>
      </trkpt>
      <trkpt lat="42.302593000" lon="-2.532651000">
        <ele>680.30</ele>
        <time>2014-11-01T09:16:32Z</time>
      </trkpt>
      <trkpt lat="42.302577000" lon="-2.532652000">
        <ele>680.40</ele>
        <time>2014-11-01T09:16:33Z</time>
      </trkpt>
      <trkpt lat="42.302561000" lon="-2.532652000">
        <ele>680.60</ele>
        <time>2014-11-01T09:16:34Z</time>
      </trkpt>
      <trkpt lat="42.302545000" lon="-2.532654000">
        <ele>680.70</ele>
        <time>2014-11-01T09:16:35Z</time>
      </trkpt>
      <trkpt lat="42.302530000" lon="-2.532655000">
        <ele>681.00</ele>
        <time>2014-11-01T09:16:36Z</time>
      </trkpt>
      <trkpt lat="42.302515000" lon="-2.532655000">
        <ele>681.10</ele>
        <time>2014-11-01T09:16:37Z</time>
      </trkpt>
      <trkpt lat="42.302499000" lon="-2.532650000">
        <ele>681.30</ele>
        <time>2014-11-01T09:16:38Z</time>
      </trkpt>
      <trkpt lat="42.302469000" lon="-2.532649000">
        <ele>681.40</ele>
        <time>2014-11-01T09:16:40Z</time>
      </trkpt>
      <trkpt lat="42.302452000" lon="-2.532645000">
        <ele>681.50</ele>
        <time>2014-11-01T09:16:41Z</time>
      </trkpt>
      <trkpt lat="42.302435000" lon="-2.532640000">
        <ele>681.80</ele>
        <time>2014-11-01T09:16:42Z</time>
      </trkpt>
      <trkpt lat="42.302418000" lon="-2.532636000">
        <ele>682.00</ele>
        <time>2014-11-01T09:16:43Z</time>
      </trkpt>
      <trkpt lat="42.302401000" lon="-2.532632000">
        <ele>682.20</ele>
        <time>2014-11-01T09:16:44Z</time>
      </trkpt>
      <trkpt lat="42.302385000" lon="-2.532630000">
        <ele>682.30</ele>
        <time>2014-11-01T09:16:45Z</time>
      </trkpt>
      <trkpt lat="42.302371000" lon="-2.532627000">
        <ele>682.50</ele>
        <time>2014-11-01T09:16:46Z</time>
      </trkpt>
      <trkpt lat="42.302357000" lon="-2.532624000">
        <ele>682.60</ele>
        <time>2014-11-01T09:16:47Z</time>
      </trkpt>
      <trkpt lat="42.302343000" lon="-2.532621000">
        <ele>682.70</ele>
        <time>2014-11-01T09:16:48Z</time>
      </trkpt>
      <trkpt lat="42.302327000" lon="-2.532619000">
        <ele>682.80</ele>
        <time>2014-11-01T09:16:49Z</time>
      </trkpt>
      <trkpt lat="42.302311000" lon="-2.532615000">
        <ele>682.90</ele>
        <time>2014-11-01T09:16:50Z</time>
      </trkpt>
      <trkpt lat="42.302293000" lon="-2.532608000">
        <ele>683.10</ele>
        <time>2014-11-01T09:16:51Z</time>
      </trkpt>
      <trkpt lat="42.302277000" lon="-2.532607000">
        <ele>683.20</ele>
        <time>2014-11-01T09:16:52Z</time>
      </trkpt>
      <trkpt lat="42.302261000" lon="-2.532604000">
        <ele>683.40</ele>
        <time>2014-11-01T09:16:53Z</time>
      </trkpt>
      <trkpt lat="42.302248000" lon="-2.532597000">
        <ele>683.50</ele>
        <time>2014-11-01T09:16:54Z</time>
      </trkpt>
      <trkpt lat="42.302234000" lon="-2.532596000">
        <ele>683.50</ele>
        <time>2014-11-01T09:16:55Z</time>
      </trkpt>
      <trkpt lat="42.302219000" lon="-2.532592000">
        <ele>683.80</ele>
        <time>2014-11-01T09:16:56Z</time>
      </trkpt>
      <trkpt lat="42.302203000" lon="-2.532589000">
        <ele>684.00</ele>
        <time>2014-11-01T09:16:57Z</time>
      </trkpt>
      <trkpt lat="42.302186000" lon="-2.532584000">
        <ele>684.20</ele>
        <time>2014-11-01T09:16:58Z</time>
      </trkpt>
      <trkpt lat="42.302167000" lon="-2.532581000">
        <ele>684.30</ele>
        <time>2014-11-01T09:16:59Z</time>
      </trkpt>
      <trkpt lat="42.302153000" lon="-2.532574000">
        <ele>684.50</ele>
        <time>2014-11-01T09:17:00Z</time>
      </trkpt>
      <trkpt lat="42.302135000" lon="-2.532568000">
        <ele>684.50</ele>
        <time>2014-11-01T09:17:01Z</time>
      </trkpt>
      <trkpt lat="42.302119000" lon="-2.532564000">
        <ele>684.70</ele>
        <time>2014-11-01T09:17:02Z</time>
      </trkpt>
      <trkpt lat="42.302104000" lon="-2.532557000">
        <ele>684.70</ele>
        <time>2014-11-01T09:17:03Z</time>
      </trkpt>
      <trkpt lat="42.302088000" lon="-2.532550000">
        <ele>685.00</ele>
        <time>2014-11-01T09:17:04Z</time>
      </trkpt>
      <trkpt lat="42.302072000" lon="-2.532544000">
        <ele>685.30</ele>
        <time>2014-11-01T09:17:05Z</time>
      </trkpt>
      <trkpt lat="42.302057000" lon="-2.532535000">
        <ele>685.50</ele>
        <time>2014-11-01T09:17:06Z</time>
      </trkpt>
      <trkpt lat="42.302041000" lon="-2.532525000">
        <ele>685.70</ele>
        <time>2014-11-01T09:17:07Z</time>
      </trkpt>
      <trkpt lat="42.302026000" lon="-2.532519000">
        <ele>685.70</ele>
        <time>2014-11-01T09:17:08Z</time>
      </trkpt>
      <trkpt lat="42.302013000" lon="-2.532510000">
        <ele>685.80</ele>
        <time>2014-11-01T09:17:09Z</time>
      </trkpt>
      <trkpt lat="42.301997000" lon="-2.532508000">
        <ele>686.10</ele>
        <time>2014-11-01T09:17:10Z</time>
      </trkpt>
      <trkpt lat="42.301981000" lon="-2.532501000">
        <ele>686.30</ele>
        <time>2014-11-01T09:17:11Z</time>
      </trkpt>
      <trkpt lat="42.301965000" lon="-2.532493000">
        <ele>686.60</ele>
        <time>2014-11-01T09:17:12Z</time>
      </trkpt>
      <trkpt lat="42.301952000" lon="-2.532481000">
        <ele>686.70</ele>
        <time>2014-11-01T09:17:13Z</time>
      </trkpt>
      <trkpt lat="42.301938000" lon="-2.532474000">
        <ele>686.90</ele>
        <time>2014-11-01T09:17:14Z</time>
      </trkpt>
      <trkpt lat="42.301922000" lon="-2.532466000">
        <ele>687.00</ele>
        <time>2014-11-01T09:17:15Z</time>
      </trkpt>
      <trkpt lat="42.301910000" lon="-2.532457000">
        <ele>687.10</ele>
        <time>2014-11-01T09:17:16Z</time>
      </trkpt>
      <trkpt lat="42.301895000" lon="-2.532448000">
        <ele>687.20</ele>
        <time>2014-11-01T09:17:17Z</time>
      </trkpt>
      <trkpt lat="42.301882000" lon="-2.532440000">
        <ele>687.10</ele>
        <time>2014-11-01T09:17:18Z</time>
      </trkpt>
      <trkpt lat="42.301866000" lon="-2.532428000">
        <ele>687.00</ele>
        <time>2014-11-01T09:17:19Z</time>
      </trkpt>
      <trkpt lat="42.301854000" lon="-2.532417000">
        <ele>687.10</ele>
        <time>2014-11-01T09:17:20Z</time>
      </trkpt>
      <trkpt lat="42.301839000" lon="-2.532406000">
        <ele>687.20</ele>
        <time>2014-11-01T09:17:21Z</time>
      </trkpt>
      <trkpt lat="42.301827000" lon="-2.532394000">
        <ele>687.30</ele>
        <time>2014-11-01T09:17:22Z</time>
      </trkpt>
      <trkpt lat="42.301815000" lon="-2.532384000">
        <ele>687.40</ele>
        <time>2014-11-01T09:17:23Z</time>
      </trkpt>
      <trkpt lat="42.301800000" lon="-2.532375000">
        <ele>687.70</ele>
        <time>2014-11-01T09:17:24Z</time>
      </trkpt>
      <trkpt lat="42.301783000" lon="-2.532363000">
        <ele>688.00</ele>
        <time>2014-11-01T09:17:25Z</time>
      </trkpt>
      <trkpt lat="42.301766000" lon="-2.532352000">
        <ele>688.30</ele>
        <time>2014-11-01T09:17:26Z</time>
      </trkpt>
      <trkpt lat="42.301752000" lon="-2.532340000">
        <ele>688.50</ele>
        <time>2014-11-01T09:17:27Z</time>
      </trkpt>
      <trkpt lat="42.301738000" lon="-2.532328000">
        <ele>688.80</ele>
        <time>2014-11-01T09:17:28Z</time>
      </trkpt>
      <trkpt lat="42.301725000" lon="-2.532316000">
        <ele>689.10</ele>
        <time>2014-11-01T09:17:29Z</time>
      </trkpt>
      <trkpt lat="42.301706000" lon="-2.532306000">
        <ele>689.20</ele>
        <time>2014-11-01T09:17:30Z</time>
      </trkpt>
      <trkpt lat="42.301691000" lon="-2.532298000">
        <ele>689.40</ele>
        <time>2014-11-01T09:17:31Z</time>
      </trkpt>
      <trkpt lat="42.301676000" lon="-2.532286000">
        <ele>689.60</ele>
        <time>2014-11-01T09:17:32Z</time>
      </trkpt>
      <trkpt lat="42.301664000" lon="-2.532276000">
        <ele>689.80</ele>
        <time>2014-11-01T09:17:33Z</time>
      </trkpt>
      <trkpt lat="42.301647000" lon="-2.532267000">
        <ele>689.90</ele>
        <time>2014-11-01T09:17:34Z</time>
      </trkpt>
      <trkpt lat="42.301635000" lon="-2.532258000">
        <ele>690.10</ele>
        <time>2014-11-01T09:17:35Z</time>
      </trkpt>
      <trkpt lat="42.301624000" lon="-2.532248000">
        <ele>690.30</ele>
        <time>2014-11-01T09:17:36Z</time>
      </trkpt>
      <trkpt lat="42.301608000" lon="-2.532239000">
        <ele>690.50</ele>
        <time>2014-11-01T09:17:37Z</time>
      </trkpt>
      <trkpt lat="42.301595000" lon="-2.532228000">
        <ele>690.70</ele>
        <time>2014-11-01T09:17:38Z</time>
      </trkpt>
      <trkpt lat="42.301582000" lon="-2.532216000">
        <ele>690.90</ele>
        <time>2014-11-01T09:17:39Z</time>
      </trkpt>
      <trkpt lat="42.301550000" lon="-2.532194000">
        <ele>691.10</ele>
        <time>2014-11-01T09:17:41Z</time>
      </trkpt>
      <trkpt lat="42.301530000" lon="-2.532190000">
        <ele>691.40</ele>
        <time>2014-11-01T09:17:42Z</time>
      </trkpt>
      <trkpt lat="42.301513000" lon="-2.532190000">
        <ele>691.60</ele>
        <time>2014-11-01T09:17:43Z</time>
      </trkpt>
      <trkpt lat="42.301497000" lon="-2.532191000">
        <ele>692.10</ele>
        <time>2014-11-01T09:17:44Z</time>
      </trkpt>
      <trkpt lat="42.301482000" lon="-2.532193000">
        <ele>692.40</ele>
        <time>2014-11-01T09:17:45Z</time>
      </trkpt>
      <trkpt lat="42.301464000" lon="-2.532191000">
        <ele>692.70</ele>
        <time>2014-11-01T09:17:46Z</time>
      </trkpt>
      <trkpt lat="42.301448000" lon="-2.532188000">
        <ele>692.90</ele>
        <time>2014-11-01T09:17:47Z</time>
      </trkpt>
      <trkpt lat="42.301430000" lon="-2.532184000">
        <ele>693.00</ele>
        <time>2014-11-01T09:17:48Z</time>
      </trkpt>
      <trkpt lat="42.301412000" lon="-2.532178000">
        <ele>693.10</ele>
        <time>2014-11-01T09:17:49Z</time>
      </trkpt>
      <trkpt lat="42.301398000" lon="-2.532169000">
        <ele>693.20</ele>
        <time>2014-11-01T09:17:50Z</time>
      </trkpt>
      <trkpt lat="42.301381000" lon="-2.532166000">
        <ele>693.30</ele>
        <time>2014-11-01T09:17:51Z</time>
      </trkpt>
      <trkpt lat="42.301363000" lon="-2.532165000">
        <ele>693.40</ele>
        <time>2014-11-01T09:17:52Z</time>
      </trkpt>
      <trkpt lat="42.301347000" lon="-2.532162000">
        <ele>693.60</ele>
        <time>2014-11-01T09:17:53Z</time>
      </trkpt>
      <trkpt lat="42.301331000" lon="-2.532158000">
        <ele>693.70</ele>
        <time>2014-11-01T09:17:54Z</time>
      </trkpt>
      <trkpt lat="42.301315000" lon="-2.532151000">
        <ele>693.70</ele>
        <time>2014-11-01T09:17:55Z</time>
      </trkpt>
      <trkpt lat="42.301299000" lon="-2.532145000">
        <ele>694.00</ele>
        <time>2014-11-01T09:17:56Z</time>
      </trkpt>
      <trkpt lat="42.301282000" lon="-2.532135000">
        <ele>694.20</ele>
        <time>2014-11-01T09:17:57Z</time>
      </trkpt>
      <trkpt lat="42.301262000" lon="-2.532126000">
        <ele>694.50</ele>
        <time>2014-11-01T09:17:58Z</time>
      </trkpt>
      <trkpt lat="42.301250000" lon="-2.532109000">
        <ele>694.80</ele>
        <time>2014-11-01T09:17:59Z</time>
      </trkpt>
      <trkpt lat="42.301236000" lon="-2.532097000">
        <ele>695.00</ele>
        <time>2014-11-01T09:18:00Z</time>
      </trkpt>
      <trkpt lat="42.301221000" lon="-2.532093000">
        <ele>695.10</ele>
        <time>2014-11-01T09:18:01Z</time>
      </trkpt>
      <trkpt lat="42.301205000" lon="-2.532090000">
        <ele>695.20</ele>
        <time>2014-11-01T09:18:02Z</time>
      </trkpt>
      <trkpt lat="42.301187000" lon="-2.532086000">
        <ele>695.20</ele>
        <time>2014-11-01T09:18:03Z</time>
      </trkpt>
      <trkpt lat="42.301171000" lon="-2.532081000">
        <ele>695.20</ele>
        <time>2014-11-01T09:18:04Z</time>
      </trkpt>
      <trkpt lat="42.301156000" lon="-2.532073000">
        <ele>695.20</ele>
        <time>2014-11-01T09:18:05Z</time>
      </trkpt>
      <trkpt lat="42.301140000" lon="-2.532066000">
        <ele>695.20</ele>
        <time>2014-11-01T09:18:06Z</time>
      </trkpt>
      <trkpt lat="42.301123000" lon="-2.532061000">
        <ele>695.30</ele>
        <time>2014-11-01T09:18:07Z</time>
      </trkpt>
      <trkpt lat="42.301108000" lon="-2.532056000">
        <ele>695.40</ele>
        <time>2014-11-01T09:18:08Z</time>
      </trkpt>
      <trkpt lat="42.301095000" lon="-2.532050000">
        <ele>695.50</ele>
        <time>2014-11-01T09:18:09Z</time>
      </trkpt>
      <trkpt lat="42.301082000" lon="-2.532046000">
        <ele>695.70</ele>
        <time>2014-11-01T09:18:10Z</time>
      </trkpt>
      <trkpt lat="42.301064000" lon="-2.532037000">
        <ele>695.90</ele>
        <time>2014-11-01T09:18:11Z</time>
      </trkpt>
      <trkpt lat="42.301044000" lon="-2.532031000">
        <ele>696.00</ele>
        <time>2014-11-01T09:18:12Z</time>
      </trkpt>
      <trkpt lat="42.301027000" lon="-2.532027000">
        <ele>696.20</ele>
        <time>2014-11-01T09:18:13Z</time>
      </trkpt>
      <trkpt lat="42.301009000" lon="-2.532021000">
        <ele>696.20</ele>
        <time>2014-11-01T09:18:14Z</time>
      </trkpt>
      <trkpt lat="42.300997000" lon="-2.532011000">
        <ele>696.30</ele>
        <time>2014-11-01T09:18:15Z</time>
      </trkpt>
      <trkpt lat="42.300981000" lon="-2.532000000">
        <ele>696.40</ele>
        <time>2014-11-01T09:18:16Z</time>
      </trkpt>
      <trkpt lat="42.300962000" lon="-2.531990000">
        <ele>696.50</ele>
        <time>2014-11-01T09:18:17Z</time>
      </trkpt>
      <trkpt lat="42.300947000" lon="-2.531984000">
        <ele>696.50</ele>
        <time>2014-11-01T09:18:18Z</time>
      </trkpt>
      <trkpt lat="42.300932000" lon="-2.531984000">
        <ele>696.50</ele>
        <time>2014-11-01T09:18:19Z</time>
      </trkpt>
      <trkpt lat="42.300908000" lon="-2.531983000">
        <ele>696.70</ele>
        <time>2014-11-01T09:18:20Z</time>
      </trkpt>
      <trkpt lat="42.300894000" lon="-2.531978000">
        <ele>696.90</ele>
        <time>2014-11-01T09:18:21Z</time>
      </trkpt>
      <trkpt lat="42.300880000" lon="-2.531976000">
        <ele>697.10</ele>
        <time>2014-11-01T09:18:22Z</time>
      </trkpt>
      <trkpt lat="42.300865000" lon="-2.531973000">
        <ele>697.20</ele>
        <time>2014-11-01T09:18:23Z</time>
      </trkpt>
      <trkpt lat="42.300850000" lon="-2.531967000">
        <ele>697.30</ele>
        <time>2014-11-01T09:18:24Z</time>
      </trkpt>
      <trkpt lat="42.300829000" lon="-2.531964000">
        <ele>697.40</ele>
        <time>2014-11-01T09:18:25Z</time>
      </trkpt>
      <trkpt lat="42.300813000" lon="-2.531957000">
        <ele>697.50</ele>
        <time>2014-11-01T09:18:26Z</time>
      </trkpt>
      <trkpt lat="42.300798000" lon="-2.531953000">
        <ele>697.60</ele>
        <time>2014-11-01T09:18:27Z</time>
      </trkpt>
      <trkpt lat="42.300782000" lon="-2.531949000">
        <ele>697.70</ele>
        <time>2014-11-01T09:18:28Z</time>
      </trkpt>
      <trkpt lat="42.300766000" lon="-2.531943000">
        <ele>697.80</ele>
        <time>2014-11-01T09:18:29Z</time>
      </trkpt>
      <trkpt lat="42.300753000" lon="-2.531938000">
        <ele>697.90</ele>
        <time>2014-11-01T09:18:30Z</time>
      </trkpt>
      <trkpt lat="42.300740000" lon="-2.531923000">
        <ele>698.00</ele>
        <time>2014-11-01T09:18:31Z</time>
      </trkpt>
      <trkpt lat="42.300726000" lon="-2.531912000">
        <ele>698.20</ele>
        <time>2014-11-01T09:18:32Z</time>
      </trkpt>
      <trkpt lat="42.300712000" lon="-2.531903000">
        <ele>698.40</ele>
        <time>2014-11-01T09:18:33Z</time>
      </trkpt>
      <trkpt lat="42.300698000" lon="-2.531894000">
        <ele>698.50</ele>
        <time>2014-11-01T09:18:34Z</time>
      </trkpt>
      <trkpt lat="42.300685000" lon="-2.531883000">
        <ele>698.70</ele>
        <time>2014-11-01T09:18:35Z</time>
      </trkpt>
      <trkpt lat="42.300668000" lon="-2.531880000">
        <ele>698.80</ele>
        <time>2014-11-01T09:18:36Z</time>
      </trkpt>
      <trkpt lat="42.300653000" lon="-2.531882000">
        <ele>699.00</ele>
        <time>2014-11-01T09:18:37Z</time>
      </trkpt>
      <trkpt lat="42.300635000" lon="-2.531885000">
        <ele>699.10</ele>
        <time>2014-11-01T09:18:38Z</time>
      </trkpt>
      <trkpt lat="42.300615000" lon="-2.531885000">
        <ele>699.10</ele>
        <time>2014-11-01T09:18:39Z</time>
      </trkpt>
      <trkpt lat="42.300597000" lon="-2.531883000">
        <ele>699.30</ele>
        <time>2014-11-01T09:18:40Z</time>
      </trkpt>
      <trkpt lat="42.300565000" lon="-2.531867000">
        <ele>699.90</ele>
        <time>2014-11-01T09:18:42Z</time>
      </trkpt>
      <trkpt lat="42.300548000" lon="-2.531860000">
        <ele>700.20</ele>
        <time>2014-11-01T09:18:43Z</time>
      </trkpt>
      <trkpt lat="42.300531000" lon="-2.531851000">
        <ele>700.40</ele>
        <time>2014-11-01T09:18:44Z</time>
      </trkpt>
      <trkpt lat="42.300513000" lon="-2.531846000">
        <ele>700.60</ele>
        <time>2014-11-01T09:18:45Z</time>
      </trkpt>
      <trkpt lat="42.300499000" lon="-2.531844000">
        <ele>700.70</ele>
        <time>2014-11-01T09:18:46Z</time>
      </trkpt>
      <trkpt lat="42.300485000" lon="-2.531839000">
        <ele>700.80</ele>
        <time>2014-11-01T09:18:47Z</time>
      </trkpt>
      <trkpt lat="42.300466000" lon="-2.531835000">
        <ele>700.70</ele>
        <time>2014-11-01T09:18:48Z</time>
      </trkpt>
      <trkpt lat="42.300452000" lon="-2.531834000">
        <ele>700.60</ele>
        <time>2014-11-01T09:18:49Z</time>
      </trkpt>
      <trkpt lat="42.300437000" lon="-2.531827000">
        <ele>700.70</ele>
        <time>2014-11-01T09:18:50Z</time>
      </trkpt>
      <trkpt lat="42.300420000" lon="-2.531823000">
        <ele>700.80</ele>
        <time>2014-11-01T09:18:51Z</time>
      </trkpt>
      <trkpt lat="42.300404000" lon="-2.531819000">
        <ele>701.20</ele>
        <time>2014-11-01T09:18:52Z</time>
      </trkpt>
      <trkpt lat="42.300385000" lon="-2.531816000">
        <ele>701.40</ele>
        <time>2014-11-01T09:18:53Z</time>
      </trkpt>
      <trkpt lat="42.300369000" lon="-2.531811000">
        <ele>701.70</ele>
        <time>2014-11-01T09:18:54Z</time>
      </trkpt>
      <trkpt lat="42.300353000" lon="-2.531807000">
        <ele>701.90</ele>
        <time>2014-11-01T09:18:55Z</time>
      </trkpt>
      <trkpt lat="42.300337000" lon="-2.531802000">
        <ele>702.00</ele>
        <time>2014-11-01T09:18:56Z</time>
      </trkpt>
      <trkpt lat="42.300320000" lon="-2.531794000">
        <ele>702.10</ele>
        <time>2014-11-01T09:18:57Z</time>
      </trkpt>
      <trkpt lat="42.300306000" lon="-2.531791000">
        <ele>702.30</ele>
        <time>2014-11-01T09:18:58Z</time>
      </trkpt>
      <trkpt lat="42.300289000" lon="-2.531785000">
        <ele>702.50</ele>
        <time>2014-11-01T09:18:59Z</time>
      </trkpt>
      <trkpt lat="42.300272000" lon="-2.531780000">
        <ele>702.60</ele>
        <time>2014-11-01T09:19:00Z</time>
      </trkpt>
      <trkpt lat="42.300256000" lon="-2.531775000">
        <ele>702.70</ele>
        <time>2014-11-01T09:19:01Z</time>
      </trkpt>
      <trkpt lat="42.300237000" lon="-2.531767000">
        <ele>702.90</ele>
        <time>2014-11-01T09:19:02Z</time>
      </trkpt>
      <trkpt lat="42.300217000" lon="-2.531765000">
        <ele>703.00</ele>
        <time>2014-11-01T09:19:03Z</time>
      </trkpt>
      <trkpt lat="42.300203000" lon="-2.531761000">
        <ele>703.10</ele>
        <time>2014-11-01T09:19:04Z</time>
      </trkpt>
      <trkpt lat="42.300186000" lon="-2.531752000">
        <ele>703.20</ele>
        <time>2014-11-01T09:19:05Z</time>
      </trkpt>
      <trkpt lat="42.300166000" lon="-2.531743000">
        <ele>703.40</ele>
        <time>2014-11-01T09:19:06Z</time>
      </trkpt>
      <trkpt lat="42.300146000" lon="-2.531733000">
        <ele>703.50</ele>
        <time>2014-11-01T09:19:07Z</time>
      </trkpt>
      <trkpt lat="42.300127000" lon="-2.531726000">
        <ele>703.70</ele>
        <time>2014-11-01T09:19:08Z</time>
      </trkpt>
      <trkpt lat="42.300109000" lon="-2.531719000">
        <ele>703.90</ele>
        <time>2014-11-01T09:19:09Z</time>
      </trkpt>
      <trkpt lat="42.300089000" lon="-2.531715000">
        <ele>704.10</ele>
        <time>2014-11-01T09:19:10Z</time>
      </trkpt>
      <trkpt lat="42.300071000" lon="-2.531710000">
        <ele>704.20</ele>
        <time>2014-11-01T09:19:11Z</time>
      </trkpt>
      <trkpt lat="42.300054000" lon="-2.531702000">
        <ele>704.40</ele>
        <time>2014-11-01T09:19:12Z</time>
      </trkpt>
      <trkpt lat="42.300035000" lon="-2.531698000">
        <ele>704.50</ele>
        <time>2014-11-01T09:19:13Z</time>
      </trkpt>
      <trkpt lat="42.300017000" lon="-2.531695000">
        <ele>704.60</ele>
        <time>2014-11-01T09:19:14Z</time>
      </trkpt>
      <trkpt lat="42.299998000" lon="-2.531690000">
        <ele>704.60</ele>
        <time>2014-11-01T09:19:15Z</time>
      </trkpt>
      <trkpt lat="42.299977000" lon="-2.531688000">
        <ele>704.70</ele>
        <time>2014-11-01T09:19:16Z</time>
      </trkpt>
      <trkpt lat="42.299962000" lon="-2.531683000">
        <ele>704.80</ele>
        <time>2014-11-01T09:19:17Z</time>
      </trkpt>
      <trkpt lat="42.299943000" lon="-2.531672000">
        <ele>705.10</ele>
        <time>2014-11-01T09:19:18Z</time>
      </trkpt>
      <trkpt lat="42.299924000" lon="-2.531662000">
        <ele>705.30</ele>
        <time>2014-11-01T09:19:19Z</time>
      </trkpt>
      <trkpt lat="42.299907000" lon="-2.531653000">
        <ele>705.60</ele>
        <time>2014-11-01T09:19:20Z</time>
      </trkpt>
      <trkpt lat="42.299887000" lon="-2.531644000">
        <ele>705.80</ele>
        <time>2014-11-01T09:19:21Z</time>
      </trkpt>
      <trkpt lat="42.299868000" lon="-2.531635000">
        <ele>706.10</ele>
        <time>2014-11-01T09:19:22Z</time>
      </trkpt>
      <trkpt lat="42.299851000" lon="-2.531625000">
        <ele>706.30</ele>
        <time>2014-11-01T09:19:23Z</time>
      </trkpt>
      <trkpt lat="42.299832000" lon="-2.531615000">
        <ele>706.40</ele>
        <time>2014-11-01T09:19:24Z</time>
      </trkpt>
      <trkpt lat="42.299812000" lon="-2.531608000">
        <ele>706.60</ele>
        <time>2014-11-01T09:19:25Z</time>
      </trkpt>
      <trkpt lat="42.299794000" lon="-2.531604000">
        <ele>706.70</ele>
        <time>2014-11-01T09:19:26Z</time>
      </trkpt>
      <trkpt lat="42.299778000" lon="-2.531596000">
        <ele>706.80</ele>
        <time>2014-11-01T09:19:27Z</time>
      </trkpt>
      <trkpt lat="42.299762000" lon="-2.531588000">
        <ele>706.70</ele>
        <time>2014-11-01T09:19:28Z</time>
      </trkpt>
      <trkpt lat="42.299743000" lon="-2.531583000">
        <ele>706.70</ele>
        <time>2014-11-01T09:19:29Z</time>
      </trkpt>
      <trkpt lat="42.299724000" lon="-2.531578000">
        <ele>706.90</ele>
        <time>2014-11-01T09:19:30Z</time>
      </trkpt>
      <trkpt lat="42.299708000" lon="-2.531564000">
        <ele>707.00</ele>
        <time>2014-11-01T09:19:31Z</time>
      </trkpt>
      <trkpt lat="42.299691000" lon="-2.531552000">
        <ele>707.10</ele>
        <time>2014-11-01T09:19:32Z</time>
      </trkpt>
      <trkpt lat="42.299673000" lon="-2.531540000">
        <ele>707.20</ele>
        <time>2014-11-01T09:19:33Z</time>
      </trkpt>
      <trkpt lat="42.299656000" lon="-2.531529000">
        <ele>707.30</ele>
        <time>2014-11-01T09:19:34Z</time>
      </trkpt>
      <trkpt lat="42.299638000" lon="-2.531518000">
        <ele>707.40</ele>
        <time>2014-11-01T09:19:35Z</time>
      </trkpt>
      <trkpt lat="42.299623000" lon="-2.531506000">
        <ele>707.40</ele>
        <time>2014-11-01T09:19:36Z</time>
      </trkpt>
      <trkpt lat="42.299606000" lon="-2.531494000">
        <ele>707.50</ele>
        <time>2014-11-01T09:19:37Z</time>
      </trkpt>
      <trkpt lat="42.299588000" lon="-2.531483000">
        <ele>707.60</ele>
        <time>2014-11-01T09:19:38Z</time>
      </trkpt>
      <trkpt lat="42.299573000" lon="-2.531467000">
        <ele>707.70</ele>
        <time>2014-11-01T09:19:39Z</time>
      </trkpt>
      <trkpt lat="42.299559000" lon="-2.531453000">
        <ele>707.60</ele>
        <time>2014-11-01T09:19:40Z</time>
      </trkpt>
      <trkpt lat="42.299543000" lon="-2.531437000">
        <ele>707.50</ele>
        <time>2014-11-01T09:19:41Z</time>
      </trkpt>
      <trkpt lat="42.299519000" lon="-2.531403000">
        <ele>707.90</ele>
        <time>2014-11-01T09:19:43Z</time>
      </trkpt>
      <trkpt lat="42.299510000" lon="-2.531383000">
        <ele>708.00</ele>
        <time>2014-11-01T09:19:44Z</time>
      </trkpt>
      <trkpt lat="42.299497000" lon="-2.531367000">
        <ele>708.00</ele>
        <time>2014-11-01T09:19:45Z</time>
      </trkpt>
      <trkpt lat="42.299485000" lon="-2.531355000">
        <ele>708.20</ele>
        <time>2014-11-01T09:19:46Z</time>
      </trkpt>
      <trkpt lat="42.299476000" lon="-2.531348000">
        <ele>708.30</ele>
        <time>2014-11-01T09:19:47Z</time>
      </trkpt>
      <trkpt lat="42.299463000" lon="-2.531340000">
        <ele>708.30</ele>
        <time>2014-11-01T09:19:48Z</time>
      </trkpt>
      <trkpt lat="42.299453000" lon="-2.531330000">
        <ele>708.20</ele>
        <time>2014-11-01T09:19:49Z</time>
      </trkpt>
      <trkpt lat="42.299445000" lon="-2.531320000">
        <ele>708.20</ele>
        <time>2014-11-01T09:19:50Z</time>
      </trkpt>
      <trkpt lat="42.299436000" lon="-2.531315000">
        <ele>708.10</ele>
        <time>2014-11-01T09:19:51Z</time>
      </trkpt>
      <trkpt lat="42.299433000" lon="-2.531303000">
        <ele>708.00</ele>
        <time>2014-11-01T09:19:52Z</time>
      </trkpt>
      <trkpt lat="42.299425000" lon="-2.531295000">
        <ele>708.00</ele>
        <time>2014-11-01T09:19:53Z</time>
      </trkpt>
      <trkpt lat="42.299421000" lon="-2.531287000">
        <ele>708.00</ele>
        <time>2014-11-01T09:19:54Z</time>
      </trkpt>
      <trkpt lat="42.299415000" lon="-2.531280000">
        <ele>708.00</ele>
        <time>2014-11-01T09:19:55Z</time>
      </trkpt>
      <trkpt lat="42.299408000" lon="-2.531271000">
        <ele>708.10</ele>
        <time>2014-11-01T09:19:56Z</time>
      </trkpt>
      <trkpt lat="42.299404000" lon="-2.531265000">
        <ele>708.20</ele>
        <time>2014-11-01T09:19:57Z</time>
      </trkpt>
      <trkpt lat="42.299396000" lon="-2.531257000">
        <ele>708.40</ele>
        <time>2014-11-01T09:19:58Z</time>
      </trkpt>
      <trkpt lat="42.299390000" lon="-2.531250000">
        <ele>708.50</ele>
        <time>2014-11-01T09:19:59Z</time>
      </trkpt>
      <trkpt lat="42.299384000" lon="-2.531238000">
        <ele>708.60</ele>
        <time>2014-11-01T09:20:00Z</time>
      </trkpt>
      <trkpt lat="42.299378000" lon="-2.531229000">
        <ele>708.70</ele>
        <time>2014-11-01T09:20:01Z</time>
      </trkpt>
      <trkpt lat="42.299371000" lon="-2.531221000">
        <ele>708.70</ele>
        <time>2014-11-01T09:20:02Z</time>
      </trkpt>
      <trkpt lat="42.299365000" lon="-2.531212000">
        <ele>708.70</ele>
        <time>2014-11-01T09:20:03Z</time>
      </trkpt>
      <trkpt lat="42.299354000" lon="-2.531202000">
        <ele>708.70</ele>
        <time>2014-11-01T09:20:04Z</time>
      </trkpt>
      <trkpt lat="42.299346000" lon="-2.531195000">
        <ele>708.70</ele>
        <time>2014-11-01T09:20:05Z</time>
      </trkpt>
      <trkpt lat="42.299335000" lon="-2.531188000">
        <ele>708.70</ele>
        <time>2014-11-01T09:20:06Z</time>
      </trkpt>
      <trkpt lat="42.299327000" lon="-2.531180000">
        <ele>708.70</ele>
        <time>2014-11-01T09:20:07Z</time>
      </trkpt>
      <trkpt lat="42.299322000" lon="-2.531167000">
        <ele>708.70</ele>
        <time>2014-11-01T09:20:08Z</time>
      </trkpt>
      <trkpt lat="42.299321000" lon="-2.531153000">
        <ele>708.70</ele>
        <time>2014-11-01T09:20:09Z</time>
      </trkpt>
      <trkpt lat="42.299315000" lon="-2.531143000">
        <ele>708.70</ele>
        <time>2014-11-01T09:20:10Z</time>
      </trkpt>
      <trkpt lat="42.299305000" lon="-2.531138000">
        <ele>708.70</ele>
        <time>2014-11-01T09:20:11Z</time>
      </trkpt>
      <trkpt lat="42.299297000" lon="-2.531133000">
        <ele>708.70</ele>
        <time>2014-11-01T09:20:12Z</time>
      </trkpt>
      <trkpt lat="42.299287000" lon="-2.531123000">
        <ele>708.70</ele>
        <time>2014-11-01T09:20:13Z</time>
      </trkpt>
      <trkpt lat="42.299280000" lon="-2.531116000">
        <ele>708.90</ele>
        <time>2014-11-01T09:20:14Z</time>
      </trkpt>
      <trkpt lat="42.299274000" lon="-2.531107000">
        <ele>709.00</ele>
        <time>2014-11-01T09:20:15Z</time>
      </trkpt>
      <trkpt lat="42.299267000" lon="-2.531095000">
        <ele>709.10</ele>
        <time>2014-11-01T09:20:16Z</time>
      </trkpt>
      <trkpt lat="42.299261000" lon="-2.531086000">
        <ele>709.20</ele>
        <time>2014-11-01T09:20:17Z</time>
      </trkpt>
      <trkpt lat="42.299259000" lon="-2.531074000">
        <ele>709.30</ele>
        <time>2014-11-01T09:20:18Z</time>
      </trkpt>
      <trkpt lat="42.299254000" lon="-2.531060000">
        <ele>709.30</ele>
        <time>2014-11-01T09:20:19Z</time>
      </trkpt>
      <trkpt lat="42.299246000" lon="-2.531052000">
        <ele>709.40</ele>
        <time>2014-11-01T09:20:20Z</time>
      </trkpt>
      <trkpt lat="42.299244000" lon="-2.531042000">
        <ele>709.40</ele>
        <time>2014-11-01T09:20:21Z</time>
      </trkpt>
      <trkpt lat="42.299236000" lon="-2.531038000">
        <ele>709.40</ele>
        <time>2014-11-01T09:20:22Z</time>
      </trkpt>
      <trkpt lat="42.299230000" lon="-2.531026000">
        <ele>709.30</ele>
        <time>2014-11-01T09:20:23Z</time>
      </trkpt>
      <trkpt lat="42.299225000" lon="-2.531014000">
        <ele>709.30</ele>
        <time>2014-11-01T09:20:24Z</time>
      </trkpt>
      <trkpt lat="42.299218000" lon="-2.531005000">
        <ele>709.30</ele>
        <time>2014-11-01T09:20:25Z</time>
      </trkpt>
      <trkpt lat="42.299208000" lon="-2.531009000">
        <ele>709.30</ele>
        <time>2014-11-01T09:20:26Z</time>
      </trkpt>
      <trkpt lat="42.299201000" lon="-2.531006000">
        <ele>709.30</ele>
        <time>2014-11-01T09:20:27Z</time>
      </trkpt>
      <trkpt lat="42.299189000" lon="-2.531002000">
        <ele>709.50</ele>
        <time>2014-11-01T09:20:28Z</time>
      </trkpt>
      <trkpt lat="42.299181000" lon="-2.530996000">
        <ele>709.70</ele>
        <time>2014-11-01T09:20:29Z</time>
      </trkpt>
      <trkpt lat="42.299177000" lon="-2.530990000">
        <ele>709.80</ele>
        <time>2014-11-01T09:20:30Z</time>
      </trkpt>
      <trkpt lat="42.299169000" lon="-2.530983000">
        <ele>709.80</ele>
        <time>2014-11-01T09:20:31Z</time>
      </trkpt>
      <trkpt lat="42.299159000" lon="-2.530973000">
        <ele>709.90</ele>
        <time>2014-11-01T09:20:32Z</time>
      </trkpt>
      <trkpt lat="42.299150000" lon="-2.530967000">
        <ele>710.00</ele>
        <time>2014-11-01T09:20:33Z</time>
      </trkpt>
      <trkpt lat="42.299142000" lon="-2.530960000">
        <ele>710.20</ele>
        <time>2014-11-01T09:20:34Z</time>
      </trkpt>
      <trkpt lat="42.299130000" lon="-2.530949000">
        <ele>710.30</ele>
        <time>2014-11-01T09:20:35Z</time>
      </trkpt>
      <trkpt lat="42.299122000" lon="-2.530938000">
        <ele>710.30</ele>
        <time>2014-11-01T09:20:36Z</time>
      </trkpt>
      <trkpt lat="42.299117000" lon="-2.530931000">
        <ele>710.40</ele>
        <time>2014-11-01T09:20:37Z</time>
      </trkpt>
      <trkpt lat="42.299108000" lon="-2.530921000">
        <ele>710.40</ele>
        <time>2014-11-01T09:20:38Z</time>
      </trkpt>
      <trkpt lat="42.299099000" lon="-2.530916000">
        <ele>710.50</ele>
        <time>2014-11-01T09:20:39Z</time>
      </trkpt>
      <trkpt lat="42.299092000" lon="-2.530905000">
        <ele>710.50</ele>
        <time>2014-11-01T09:20:40Z</time>
      </trkpt>
      <trkpt lat="42.299084000" lon="-2.530893000">
        <ele>710.50</ele>
        <time>2014-11-01T09:20:41Z</time>
      </trkpt>
      <trkpt lat="42.299075000" lon="-2.530882000">
        <ele>710.50</ele>
        <time>2014-11-01T09:20:42Z</time>
      </trkpt>
      <trkpt lat="42.299054000" lon="-2.530866000">
        <ele>710.50</ele>
        <time>2014-11-01T09:20:44Z</time>
      </trkpt>
      <trkpt lat="42.299045000" lon="-2.530858000">
        <ele>710.50</ele>
        <time>2014-11-01T09:20:45Z</time>
      </trkpt>
      <trkpt lat="42.299037000" lon="-2.530852000">
        <ele>710.70</ele>
        <time>2014-11-01T09:20:46Z</time>
      </trkpt>
      <trkpt lat="42.299023000" lon="-2.530843000">
        <ele>710.80</ele>
        <time>2014-11-01T09:20:47Z</time>
      </trkpt>
      <trkpt lat="42.299015000" lon="-2.530838000">
        <ele>710.80</ele>
        <time>2014-11-01T09:20:48Z</time>
      </trkpt>
      <trkpt lat="42.299005000" lon="-2.530832000">
        <ele>710.90</ele>
        <time>2014-11-01T09:20:49Z</time>
      </trkpt>
      <trkpt lat="42.298992000" lon="-2.530829000">
        <ele>710.90</ele>
        <time>2014-11-01T09:20:50Z</time>
      </trkpt>
      <trkpt lat="42.298984000" lon="-2.530824000">
        <ele>711.00</ele>
        <time>2014-11-01T09:20:51Z</time>
      </trkpt>
      <trkpt lat="42.298973000" lon="-2.530826000">
        <ele>711.10</ele>
        <time>2014-11-01T09:20:52Z</time>
      </trkpt>
      <trkpt lat="42.298966000" lon="-2.530822000">
        <ele>711.20</ele>
        <time>2014-11-01T09:20:53Z</time>
      </trkpt>
      <trkpt lat="42.298955000" lon="-2.530816000">
        <ele>711.40</ele>
        <time>2014-11-01T09:20:54Z</time>
      </trkpt>
      <trkpt lat="42.298943000" lon="-2.530809000">
        <ele>711.50</ele>
        <time>2014-11-01T09:20:55Z</time>
      </trkpt>
      <trkpt lat="42.298934000" lon="-2.530800000">
        <ele>711.60</ele>
        <time>2014-11-01T09:20:56Z</time>
      </trkpt>
      <trkpt lat="42.298930000" lon="-2.530793000">
        <ele>711.60</ele>
        <time>2014-11-01T09:20:57Z</time>
      </trkpt>
      <trkpt lat="42.298919000" lon="-2.530786000">
        <ele>711.60</ele>
        <time>2014-11-01T09:20:58Z</time>
      </trkpt>
      <trkpt lat="42.298907000" lon="-2.530782000">
        <ele>711.60</ele>
        <time>2014-11-01T09:20:59Z</time>
      </trkpt>
      <trkpt lat="42.298896000" lon="-2.530777000">
        <ele>711.60</ele>
        <time>2014-11-01T09:21:00Z</time>
      </trkpt>
      <trkpt lat="42.298884000" lon="-2.530771000">
        <ele>711.60</ele>
        <time>2014-11-01T09:21:01Z</time>
      </trkpt>
      <trkpt lat="42.298869000" lon="-2.530766000">
        <ele>711.70</ele>
        <time>2014-11-01T09:21:02Z</time>
      </trkpt>
      <trkpt lat="42.298860000" lon="-2.530763000">
        <ele>711.80</ele>
        <time>2014-11-01T09:21:03Z</time>
      </trkpt>
      <trkpt lat="42.298849000" lon="-2.530764000">
        <ele>711.90</ele>
        <time>2014-11-01T09:21:04Z</time>
      </trkpt>
      <trkpt lat="42.298840000" lon="-2.530758000">
        <ele>711.90</ele>
        <time>2014-11-01T09:21:05Z</time>
      </trkpt>
      <trkpt lat="42.298833000" lon="-2.530753000">
        <ele>712.00</ele>
        <time>2014-11-01T09:21:06Z</time>
      </trkpt>
      <trkpt lat="42.298821000" lon="-2.530747000">
        <ele>712.00</ele>
        <time>2014-11-01T09:21:07Z</time>
      </trkpt>
      <trkpt lat="42.298813000" lon="-2.530741000">
        <ele>712.00</ele>
        <time>2014-11-01T09:21:08Z</time>
      </trkpt>
      <trkpt lat="42.298802000" lon="-2.530742000">
        <ele>712.10</ele>
        <time>2014-11-01T09:21:09Z</time>
      </trkpt>
      <trkpt lat="42.298791000" lon="-2.530740000">
        <ele>712.10</ele>
        <time>2014-11-01T09:21:10Z</time>
      </trkpt>
      <trkpt lat="42.298785000" lon="-2.530732000">
        <ele>712.10</ele>
        <time>2014-11-01T09:21:11Z</time>
      </trkpt>
      <trkpt lat="42.298775000" lon="-2.530728000">
        <ele>712.10</ele>
        <time>2014-11-01T09:21:12Z</time>
      </trkpt>
      <trkpt lat="42.298764000" lon="-2.530730000">
        <ele>712.10</ele>
        <time>2014-11-01T09:21:13Z</time>
      </trkpt>
      <trkpt lat="42.298754000" lon="-2.530726000">
        <ele>712.10</ele>
        <time>2014-11-01T09:21:14Z</time>
      </trkpt>
      <trkpt lat="42.298743000" lon="-2.530719000">
        <ele>712.10</ele>
        <time>2014-11-01T09:21:15Z</time>
      </trkpt>
      <trkpt lat="42.298733000" lon="-2.530709000">
        <ele>712.10</ele>
        <time>2014-11-01T09:21:16Z</time>
      </trkpt>
      <trkpt lat="42.298720000" lon="-2.530702000">
        <ele>712.10</ele>
        <time>2014-11-01T09:21:17Z</time>
      </trkpt>
      <trkpt lat="42.298704000" lon="-2.530703000">
        <ele>712.30</ele>
        <time>2014-11-01T09:21:18Z</time>
      </trkpt>
      <trkpt lat="42.298692000" lon="-2.530699000">
        <ele>712.40</ele>
        <time>2014-11-01T09:21:19Z</time>
      </trkpt>
      <trkpt lat="42.298676000" lon="-2.530691000">
        <ele>712.30</ele>
        <time>2014-11-01T09:21:20Z</time>
      </trkpt>
      <trkpt lat="42.298661000" lon="-2.530685000">
        <ele>712.30</ele>
        <time>2014-11-01T09:21:21Z</time>
      </trkpt>
      <trkpt lat="42.298647000" lon="-2.530678000">
        <ele>712.40</ele>
        <time>2014-11-01T09:21:22Z</time>
      </trkpt>
      <trkpt lat="42.298632000" lon="-2.530670000">
        <ele>712.40</ele>
        <time>2014-11-01T09:21:23Z</time>
      </trkpt>
      <trkpt lat="42.298618000" lon="-2.530662000">
        <ele>712.40</ele>
        <time>2014-11-01T09:21:24Z</time>
      </trkpt>
      <trkpt lat="42.298605000" lon="-2.530650000">
        <ele>712.30</ele>
        <time>2014-11-01T09:21:25Z</time>
      </trkpt>
      <trkpt lat="42.298590000" lon="-2.530641000">
        <ele>712.40</ele>
        <time>2014-11-01T09:21:26Z</time>
      </trkpt>
      <trkpt lat="42.298573000" lon="-2.530631000">
        <ele>712.50</ele>
        <time>2014-11-01T09:21:27Z</time>
      </trkpt>
      <trkpt lat="42.298559000" lon="-2.530627000">
        <ele>712.60</ele>
        <time>2014-11-01T09:21:28Z</time>
      </trkpt>
      <trkpt lat="42.298548000" lon="-2.530623000">
        <ele>712.70</ele>
        <time>2014-11-01T09:21:29Z</time>
      </trkpt>
      <trkpt lat="42.298534000" lon="-2.530621000">
        <ele>712.80</ele>
        <time>2014-11-01T09:21:30Z</time>
      </trkpt>
      <trkpt lat="42.298522000" lon="-2.530617000">
        <ele>712.90</ele>
        <time>2014-11-01T09:21:31Z</time>
      </trkpt>
      <trkpt lat="42.298504000" lon="-2.530611000">
        <ele>713.00</ele>
        <time>2014-11-01T09:21:32Z</time>
      </trkpt>
      <trkpt lat="42.298491000" lon="-2.530607000">
        <ele>713.00</ele>
        <time>2014-11-01T09:21:33Z</time>
      </trkpt>
      <trkpt lat="42.298481000" lon="-2.530599000">
        <ele>713.10</ele>
        <time>2014-11-01T09:21:34Z</time>
      </trkpt>
      <trkpt lat="42.298469000" lon="-2.530588000">
        <ele>713.10</ele>
        <time>2014-11-01T09:21:35Z</time>
      </trkpt>
      <trkpt lat="42.298457000" lon="-2.530581000">
        <ele>713.00</ele>
        <time>2014-11-01T09:21:36Z</time>
      </trkpt>
      <trkpt lat="42.298443000" lon="-2.530574000">
        <ele>712.90</ele>
        <time>2014-11-01T09:21:37Z</time>
      </trkpt>
      <trkpt lat="42.298427000" lon="-2.530566000">
        <ele>712.80</ele>
        <time>2014-11-01T09:21:38Z</time>
      </trkpt>
      <trkpt lat="42.298414000" lon="-2.530558000">
        <ele>712.80</ele>
        <time>2014-11-01T09:21:39Z</time>
      </trkpt>
      <trkpt lat="42.298399000" lon="-2.530551000">
        <ele>712.80</ele>
        <time>2014-11-01T09:21:40Z</time>
      </trkpt>
      <trkpt lat="42.298387000" lon="-2.530543000">
        <ele>712.70</ele>
        <time>2014-11-01T09:21:41Z</time>
      </trkpt>
      <trkpt lat="42.298376000" lon="-2.530548000">
        <ele>712.90</ele>
        <time>2014-11-01T09:21:42Z</time>
      </trkpt>
      <trkpt lat="42.298361000" lon="-2.530547000">
        <ele>713.00</ele>
        <time>2014-11-01T09:21:43Z</time>
      </trkpt>
      <trkpt lat="42.298341000" lon="-2.530528000">
        <ele>713.10</ele>
        <time>2014-11-01T09:21:45Z</time>
      </trkpt>
      <trkpt lat="42.298332000" lon="-2.530532000">
        <ele>713.10</ele>
        <time>2014-11-01T09:21:46Z</time>
      </trkpt>
      <trkpt lat="42.298324000" lon="-2.530541000">
        <ele>713.20</ele>
        <time>2014-11-01T09:21:47Z</time>
      </trkpt>
      <trkpt lat="42.298315000" lon="-2.530549000">
        <ele>713.10</ele>
        <time>2014-11-01T09:21:48Z</time>
      </trkpt>
      <trkpt lat="42.298305000" lon="-2.530549000">
        <ele>713.10</ele>
        <time>2014-11-01T09:21:49Z</time>
      </trkpt>
      <trkpt lat="42.298293000" lon="-2.530546000">
        <ele>713.10</ele>
        <time>2014-11-01T09:21:50Z</time>
      </trkpt>
      <trkpt lat="42.298284000" lon="-2.530540000">
        <ele>713.10</ele>
        <time>2014-11-01T09:21:51Z</time>
      </trkpt>
      <trkpt lat="42.298275000" lon="-2.530530000">
        <ele>713.00</ele>
        <time>2014-11-01T09:21:52Z</time>
      </trkpt>
      <trkpt lat="42.298266000" lon="-2.530521000">
        <ele>712.90</ele>
        <time>2014-11-01T09:21:53Z</time>
      </trkpt>
      <trkpt lat="42.298253000" lon="-2.530511000">
        <ele>712.90</ele>
        <time>2014-11-01T09:21:54Z</time>
      </trkpt>
      <trkpt lat="42.298245000" lon="-2.530499000">
        <ele>712.80</ele>
        <time>2014-11-01T09:21:55Z</time>
      </trkpt>
      <trkpt lat="42.298232000" lon="-2.530491000">
        <ele>712.80</ele>
        <time>2014-11-01T09:21:56Z</time>
      </trkpt>
      <trkpt lat="42.298222000" lon="-2.530489000">
        <ele>712.80</ele>
        <time>2014-11-01T09:21:57Z</time>
      </trkpt>
      <trkpt lat="42.298212000" lon="-2.530490000">
        <ele>712.90</ele>
        <time>2014-11-01T09:21:58Z</time>
      </trkpt>
      <trkpt lat="42.298201000" lon="-2.530487000">
        <ele>712.90</ele>
        <time>2014-11-01T09:21:59Z</time>
      </trkpt>
      <trkpt lat="42.298193000" lon="-2.530491000">
        <ele>713.00</ele>
        <time>2014-11-01T09:22:00Z</time>
      </trkpt>
      <trkpt lat="42.298183000" lon="-2.530495000">
        <ele>713.10</ele>
        <time>2014-11-01T09:22:01Z</time>
      </trkpt>
      <trkpt lat="42.298175000" lon="-2.530502000">
        <ele>713.10</ele>
        <time>2014-11-01T09:22:02Z</time>
      </trkpt>
      <trkpt lat="42.298167000" lon="-2.530505000">
        <ele>713.20</ele>
        <time>2014-11-01T09:22:03Z</time>
      </trkpt>
      <trkpt lat="42.298157000" lon="-2.530498000">
        <ele>713.30</ele>
        <time>2014-11-01T09:22:04Z</time>
      </trkpt>
      <trkpt lat="42.298151000" lon="-2.530489000">
        <ele>713.50</ele>
        <time>2014-11-01T09:22:05Z</time>
      </trkpt>
      <trkpt lat="42.298141000" lon="-2.530477000">
        <ele>713.50</ele>
        <time>2014-11-01T09:22:06Z</time>
      </trkpt>
      <trkpt lat="42.298130000" lon="-2.530464000">
        <ele>713.50</ele>
        <time>2014-11-01T09:22:07Z</time>
      </trkpt>
      <trkpt lat="42.298119000" lon="-2.530454000">
        <ele>713.60</ele>
        <time>2014-11-01T09:22:08Z</time>
      </trkpt>
      <trkpt lat="42.298110000" lon="-2.530453000">
        <ele>713.60</ele>
        <time>2014-11-01T09:22:09Z</time>
      </trkpt>
      <trkpt lat="42.298101000" lon="-2.530452000">
        <ele>713.60</ele>
        <time>2014-11-01T09:22:10Z</time>
      </trkpt>
      <trkpt lat="42.298094000" lon="-2.530446000">
        <ele>713.60</ele>
        <time>2014-11-01T09:22:11Z</time>
      </trkpt>
      <trkpt lat="42.298081000" lon="-2.530451000">
        <ele>713.60</ele>
        <time>2014-11-01T09:22:12Z</time>
      </trkpt>
      <trkpt lat="42.298071000" lon="-2.530459000">
        <ele>713.60</ele>
        <time>2014-11-01T09:22:13Z</time>
      </trkpt>
      <trkpt lat="42.298063000" lon="-2.530451000">
        <ele>713.60</ele>
        <time>2014-11-01T09:22:14Z</time>
      </trkpt>
      <trkpt lat="42.298052000" lon="-2.530440000">
        <ele>713.50</ele>
        <time>2014-11-01T09:22:15Z</time>
      </trkpt>
      <trkpt lat="42.298032000" lon="-2.530437000">
        <ele>713.50</ele>
        <time>2014-11-01T09:22:16Z</time>
      </trkpt>
      <trkpt lat="42.298010000" lon="-2.530433000">
        <ele>713.40</ele>
        <time>2014-11-01T09:22:17Z</time>
      </trkpt>
      <trkpt lat="42.297988000" lon="-2.530428000">
        <ele>713.60</ele>
        <time>2014-11-01T09:22:18Z</time>
      </trkpt>
      <trkpt lat="42.297966000" lon="-2.530421000">
        <ele>713.60</ele>
        <time>2014-11-01T09:22:19Z</time>
      </trkpt>
      <trkpt lat="42.297944000" lon="-2.530418000">
        <ele>713.70</ele>
        <time>2014-11-01T09:22:20Z</time>
      </trkpt>
      <trkpt lat="42.297916000" lon="-2.530410000">
        <ele>713.80</ele>
        <time>2014-11-01T09:22:21Z</time>
      </trkpt>
      <trkpt lat="42.297889000" lon="-2.530403000">
        <ele>713.80</ele>
        <time>2014-11-01T09:22:22Z</time>
      </trkpt>
      <trkpt lat="42.297862000" lon="-2.530391000">
        <ele>713.80</ele>
        <time>2014-11-01T09:22:23Z</time>
      </trkpt>
      <trkpt lat="42.297840000" lon="-2.530380000">
        <ele>713.90</ele>
        <time>2014-11-01T09:22:24Z</time>
      </trkpt>
      <trkpt lat="42.297821000" lon="-2.530377000">
        <ele>713.90</ele>
        <time>2014-11-01T09:22:25Z</time>
      </trkpt>
      <trkpt lat="42.297800000" lon="-2.530369000">
        <ele>714.00</ele>
        <time>2014-11-01T09:22:26Z</time>
      </trkpt>
      <trkpt lat="42.297783000" lon="-2.530350000">
        <ele>714.00</ele>
        <time>2014-11-01T09:22:27Z</time>
      </trkpt>
      <trkpt lat="42.297759000" lon="-2.530334000">
        <ele>714.30</ele>
        <time>2014-11-01T09:22:28Z</time>
      </trkpt>
      <trkpt lat="42.297733000" lon="-2.530322000">
        <ele>714.50</ele>
        <time>2014-11-01T09:22:29Z</time>
      </trkpt>
      <trkpt lat="42.297707000" lon="-2.530311000">
        <ele>714.60</ele>
        <time>2014-11-01T09:22:30Z</time>
      </trkpt>
      <trkpt lat="42.297683000" lon="-2.530297000">
        <ele>714.70</ele>
        <time>2014-11-01T09:22:31Z</time>
      </trkpt>
      <trkpt lat="42.297659000" lon="-2.530279000">
        <ele>714.80</ele>
        <time>2014-11-01T09:22:32Z</time>
      </trkpt>
      <trkpt lat="42.297635000" lon="-2.530264000">
        <ele>714.90</ele>
        <time>2014-11-01T09:22:33Z</time>
      </trkpt>
      <trkpt lat="42.297613000" lon="-2.530248000">
        <ele>715.20</ele>
        <time>2014-11-01T09:22:34Z</time>
      </trkpt>
      <trkpt lat="42.297590000" lon="-2.530234000">
        <ele>715.50</ele>
        <time>2014-11-01T09:22:35Z</time>
      </trkpt>
      <trkpt lat="42.297566000" lon="-2.530218000">
        <ele>715.90</ele>
        <time>2014-11-01T09:22:36Z</time>
      </trkpt>
      <trkpt lat="42.297541000" lon="-2.530205000">
        <ele>716.10</ele>
        <time>2014-11-01T09:22:37Z</time>
      </trkpt>
      <trkpt lat="42.297521000" lon="-2.530188000">
        <ele>716.30</ele>
        <time>2014-11-01T09:22:38Z</time>
      </trkpt>
      <trkpt lat="42.297500000" lon="-2.530171000">
        <ele>716.40</ele>
        <time>2014-11-01T09:22:39Z</time>
      </trkpt>
      <trkpt lat="42.297478000" lon="-2.530153000">
        <ele>716.50</ele>
        <time>2014-11-01T09:22:40Z</time>
      </trkpt>
      <trkpt lat="42.297457000" lon="-2.530135000">
        <ele>716.60</ele>
        <time>2014-11-01T09:22:41Z</time>
      </trkpt>
      <trkpt lat="42.297435000" lon="-2.530118000">
        <ele>716.70</ele>
        <time>2014-11-01T09:22:42Z</time>
      </trkpt>
      <trkpt lat="42.297414000" lon="-2.530095000">
        <ele>716.80</ele>
        <time>2014-11-01T09:22:43Z</time>
      </trkpt>
      <trkpt lat="42.297392000" lon="-2.530077000">
        <ele>716.90</ele>
        <time>2014-11-01T09:22:44Z</time>
      </trkpt>
      <trkpt lat="42.297346000" lon="-2.530041000">
        <ele>717.20</ele>
        <time>2014-11-01T09:22:46Z</time>
      </trkpt>
      <trkpt lat="42.297324000" lon="-2.530023000">
        <ele>717.40</ele>
        <time>2014-11-01T09:22:47Z</time>
      </trkpt>
      <trkpt lat="42.297302000" lon="-2.530006000">
        <ele>717.60</ele>
        <time>2014-11-01T09:22:48Z</time>
      </trkpt>
      <trkpt lat="42.297278000" lon="-2.529984000">
        <ele>717.70</ele>
        <time>2014-11-01T09:22:49Z</time>
      </trkpt>
      <trkpt lat="42.297254000" lon="-2.529964000">
        <ele>718.00</ele>
        <time>2014-11-01T09:22:50Z</time>
      </trkpt>
      <trkpt lat="42.297229000" lon="-2.529943000">
        <ele>718.20</ele>
        <time>2014-11-01T09:22:51Z</time>
      </trkpt>
      <trkpt lat="42.297203000" lon="-2.529922000">
        <ele>718.40</ele>
        <time>2014-11-01T09:22:52Z</time>
      </trkpt>
      <trkpt lat="42.297175000" lon="-2.529900000">
        <ele>718.60</ele>
        <time>2014-11-01T09:22:53Z</time>
      </trkpt>
      <trkpt lat="42.297149000" lon="-2.529879000">
        <ele>718.70</ele>
        <time>2014-11-01T09:22:54Z</time>
      </trkpt>
      <trkpt lat="42.297125000" lon="-2.529858000">
        <ele>718.80</ele>
        <time>2014-11-01T09:22:55Z</time>
      </trkpt>
      <trkpt lat="42.297106000" lon="-2.529840000">
        <ele>718.90</ele>
        <time>2014-11-01T09:22:56Z</time>
      </trkpt>
      <trkpt lat="42.297081000" lon="-2.529822000">
        <ele>718.90</ele>
        <time>2014-11-01T09:22:57Z</time>
      </trkpt>
      <trkpt lat="42.297058000" lon="-2.529804000">
        <ele>719.00</ele>
        <time>2014-11-01T09:22:58Z</time>
      </trkpt>
      <trkpt lat="42.297031000" lon="-2.529786000">
        <ele>719.00</ele>
        <time>2014-11-01T09:22:59Z</time>
      </trkpt>
      <trkpt lat="42.297003000" lon="-2.529768000">
        <ele>719.00</ele>
        <time>2014-11-01T09:23:00Z</time>
      </trkpt>
      <trkpt lat="42.296980000" lon="-2.529751000">
        <ele>719.10</ele>
        <time>2014-11-01T09:23:01Z</time>
      </trkpt>
      <trkpt lat="42.296957000" lon="-2.529732000">
        <ele>719.30</ele>
        <time>2014-11-01T09:23:02Z</time>
      </trkpt>
      <trkpt lat="42.296929000" lon="-2.529714000">
        <ele>719.40</ele>
        <time>2014-11-01T09:23:03Z</time>
      </trkpt>
      <trkpt lat="42.296903000" lon="-2.529692000">
        <ele>719.50</ele>
        <time>2014-11-01T09:23:04Z</time>
      </trkpt>
      <trkpt lat="42.296876000" lon="-2.529673000">
        <ele>719.60</ele>
        <time>2014-11-01T09:23:05Z</time>
      </trkpt>
      <trkpt lat="42.296850000" lon="-2.529652000">
        <ele>719.70</ele>
        <time>2014-11-01T09:23:06Z</time>
      </trkpt>
      <trkpt lat="42.296825000" lon="-2.529629000">
        <ele>719.70</ele>
        <time>2014-11-01T09:23:07Z</time>
      </trkpt>
      <trkpt lat="42.296800000" lon="-2.529606000">
        <ele>719.80</ele>
        <time>2014-11-01T09:23:08Z</time>
      </trkpt>
      <trkpt lat="42.296773000" lon="-2.529581000">
        <ele>719.80</ele>
        <time>2014-11-01T09:23:09Z</time>
      </trkpt>
      <trkpt lat="42.296748000" lon="-2.529555000">
        <ele>719.80</ele>
        <time>2014-11-01T09:23:10Z</time>
      </trkpt>
      <trkpt lat="42.296723000" lon="-2.529529000">
        <ele>719.90</ele>
        <time>2014-11-01T09:23:11Z</time>
      </trkpt>
      <trkpt lat="42.296696000" lon="-2.529502000">
        <ele>719.90</ele>
        <time>2014-11-01T09:23:12Z</time>
      </trkpt>
      <trkpt lat="42.296670000" lon="-2.529472000">
        <ele>719.90</ele>
        <time>2014-11-01T09:23:13Z</time>
      </trkpt>
      <trkpt lat="42.296644000" lon="-2.529443000">
        <ele>719.90</ele>
        <time>2014-11-01T09:23:14Z</time>
      </trkpt>
      <trkpt lat="42.296617000" lon="-2.529410000">
        <ele>719.90</ele>
        <time>2014-11-01T09:23:15Z</time>
      </trkpt>
      <trkpt lat="42.296590000" lon="-2.529379000">
        <ele>719.90</ele>
        <time>2014-11-01T09:23:16Z</time>
      </trkpt>
      <trkpt lat="42.296564000" lon="-2.529347000">
        <ele>719.90</ele>
        <time>2014-11-01T09:23:17Z</time>
      </trkpt>
      <trkpt lat="42.296538000" lon="-2.529313000">
        <ele>719.90</ele>
        <time>2014-11-01T09:23:18Z</time>
      </trkpt>
      <trkpt lat="42.296511000" lon="-2.529281000">
        <ele>719.90</ele>
        <time>2014-11-01T09:23:19Z</time>
      </trkpt>
      <trkpt lat="42.296484000" lon="-2.529250000">
        <ele>719.70</ele>
        <time>2014-11-01T09:23:20Z</time>
      </trkpt>
      <trkpt lat="42.296459000" lon="-2.529219000">
        <ele>719.50</ele>
        <time>2014-11-01T09:23:21Z</time>
      </trkpt>
      <trkpt lat="42.296432000" lon="-2.529188000">
        <ele>719.70</ele>
        <time>2014-11-01T09:23:22Z</time>
      </trkpt>
      <trkpt lat="42.296408000" lon="-2.529157000">
        <ele>719.80</ele>
        <time>2014-11-01T09:23:23Z</time>
      </trkpt>
      <trkpt lat="42.296381000" lon="-2.529128000">
        <ele>719.80</ele>
        <time>2014-11-01T09:23:24Z</time>
      </trkpt>
      <trkpt lat="42.296354000" lon="-2.529099000">
        <ele>719.70</ele>
        <time>2014-11-01T09:23:25Z</time>
      </trkpt>
      <trkpt lat="42.296327000" lon="-2.529070000">
        <ele>719.80</ele>
        <time>2014-11-01T09:23:26Z</time>
      </trkpt>
      <trkpt lat="42.296301000" lon="-2.529042000">
        <ele>719.90</ele>
        <time>2014-11-01T09:23:27Z</time>
      </trkpt>
      <trkpt lat="42.296276000" lon="-2.529014000">
        <ele>719.90</ele>
        <time>2014-11-01T09:23:28Z</time>
      </trkpt>
      <trkpt lat="42.296252000" lon="-2.528983000">
        <ele>719.80</ele>
        <time>2014-11-01T09:23:29Z</time>
      </trkpt>
      <trkpt lat="42.296230000" lon="-2.528954000">
        <ele>720.00</ele>
        <time>2014-11-01T09:23:30Z</time>
      </trkpt>
      <trkpt lat="42.296204000" lon="-2.528930000">
        <ele>720.20</ele>
        <time>2014-11-01T09:23:31Z</time>
      </trkpt>
      <trkpt lat="42.296175000" lon="-2.528902000">
        <ele>720.40</ele>
        <time>2014-11-01T09:23:32Z</time>
      </trkpt>
      <trkpt lat="42.296146000" lon="-2.528875000">
        <ele>720.50</ele>
        <time>2014-11-01T09:23:33Z</time>
      </trkpt>
      <trkpt lat="42.296117000" lon="-2.528847000">
        <ele>720.60</ele>
        <time>2014-11-01T09:23:34Z</time>
      </trkpt>
      <trkpt lat="42.296092000" lon="-2.528821000">
        <ele>720.70</ele>
        <time>2014-11-01T09:23:35Z</time>
      </trkpt>
      <trkpt lat="42.296068000" lon="-2.528794000">
        <ele>720.80</ele>
        <time>2014-11-01T09:23:36Z</time>
      </trkpt>
      <trkpt lat="42.296041000" lon="-2.528769000">
        <ele>720.80</ele>
        <time>2014-11-01T09:23:37Z</time>
      </trkpt>
      <trkpt lat="42.296015000" lon="-2.528740000">
        <ele>721.00</ele>
        <time>2014-11-01T09:23:38Z</time>
      </trkpt>
      <trkpt lat="42.295988000" lon="-2.528713000">
        <ele>721.10</ele>
        <time>2014-11-01T09:23:39Z</time>
      </trkpt>
      <trkpt lat="42.295961000" lon="-2.528684000">
        <ele>721.40</ele>
        <time>2014-11-01T09:23:40Z</time>
      </trkpt>
      <trkpt lat="42.295935000" lon="-2.528655000">
        <ele>721.60</ele>
        <time>2014-11-01T09:23:41Z</time>
      </trkpt>
      <trkpt lat="42.295907000" lon="-2.528631000">
        <ele>721.90</ele>
        <time>2014-11-01T09:23:42Z</time>
      </trkpt>
      <trkpt lat="42.295880000" lon="-2.528605000">
        <ele>722.10</ele>
        <time>2014-11-01T09:23:43Z</time>
      </trkpt>
      <trkpt lat="42.295853000" lon="-2.528580000">
        <ele>722.30</ele>
        <time>2014-11-01T09:23:44Z</time>
      </trkpt>
      <trkpt lat="42.295827000" lon="-2.528554000">
        <ele>722.40</ele>
        <time>2014-11-01T09:23:45Z</time>
      </trkpt>
      <trkpt lat="42.295771000" lon="-2.528506000">
        <ele>722.60</ele>
        <time>2014-11-01T09:23:47Z</time>
      </trkpt>
      <trkpt lat="42.295744000" lon="-2.528488000">
        <ele>722.70</ele>
        <time>2014-11-01T09:23:48Z</time>
      </trkpt>
      <trkpt lat="42.295715000" lon="-2.528472000">
        <ele>722.80</ele>
        <time>2014-11-01T09:23:49Z</time>
      </trkpt>
      <trkpt lat="42.295686000" lon="-2.528455000">
        <ele>722.80</ele>
        <time>2014-11-01T09:23:50Z</time>
      </trkpt>
      <trkpt lat="42.295657000" lon="-2.528434000">
        <ele>722.90</ele>
        <time>2014-11-01T09:23:51Z</time>
      </trkpt>
      <trkpt lat="42.295630000" lon="-2.528412000">
        <ele>722.90</ele>
        <time>2014-11-01T09:23:52Z</time>
      </trkpt>
      <trkpt lat="42.295603000" lon="-2.528390000">
        <ele>722.90</ele>
        <time>2014-11-01T09:23:53Z</time>
      </trkpt>
      <trkpt lat="42.295573000" lon="-2.528369000">
        <ele>723.20</ele>
        <time>2014-11-01T09:23:54Z</time>
      </trkpt>
      <trkpt lat="42.295543000" lon="-2.528349000">
        <ele>723.40</ele>
        <time>2014-11-01T09:23:55Z</time>
      </trkpt>
      <trkpt lat="42.295516000" lon="-2.528329000">
        <ele>723.50</ele>
        <time>2014-11-01T09:23:56Z</time>
      </trkpt>
      <trkpt lat="42.295485000" lon="-2.528314000">
        <ele>723.60</ele>
        <time>2014-11-01T09:23:57Z</time>
      </trkpt>
      <trkpt lat="42.295457000" lon="-2.528301000">
        <ele>723.70</ele>
        <time>2014-11-01T09:23:58Z</time>
      </trkpt>
      <trkpt lat="42.295427000" lon="-2.528291000">
        <ele>723.80</ele>
        <time>2014-11-01T09:23:59Z</time>
      </trkpt>
      <trkpt lat="42.295396000" lon="-2.528282000">
        <ele>723.80</ele>
        <time>2014-11-01T09:24:00Z</time>
      </trkpt>
      <trkpt lat="42.295363000" lon="-2.528279000">
        <ele>723.90</ele>
        <time>2014-11-01T09:24:01Z</time>
      </trkpt>
      <trkpt lat="42.295331000" lon="-2.528276000">
        <ele>724.20</ele>
        <time>2014-11-01T09:24:02Z</time>
      </trkpt>
      <trkpt lat="42.295302000" lon="-2.528272000">
        <ele>724.50</ele>
        <time>2014-11-01T09:24:03Z</time>
      </trkpt>
      <trkpt lat="42.295270000" lon="-2.528269000">
        <ele>724.80</ele>
        <time>2014-11-01T09:24:04Z</time>
      </trkpt>
      <trkpt lat="42.295241000" lon="-2.528271000">
        <ele>725.10</ele>
        <time>2014-11-01T09:24:05Z</time>
      </trkpt>
      <trkpt lat="42.295210000" lon="-2.528273000">
        <ele>725.30</ele>
        <time>2014-11-01T09:24:06Z</time>
      </trkpt>
      <trkpt lat="42.295179000" lon="-2.528274000">
        <ele>725.50</ele>
        <time>2014-11-01T09:24:07Z</time>
      </trkpt>
      <trkpt lat="42.295150000" lon="-2.528276000">
        <ele>725.60</ele>
        <time>2014-11-01T09:24:08Z</time>
      </trkpt>
      <trkpt lat="42.295119000" lon="-2.528278000">
        <ele>725.60</ele>
        <time>2014-11-01T09:24:09Z</time>
      </trkpt>
      <trkpt lat="42.295086000" lon="-2.528280000">
        <ele>725.70</ele>
        <time>2014-11-01T09:24:10Z</time>
      </trkpt>
      <trkpt lat="42.295052000" lon="-2.528283000">
        <ele>725.80</ele>
        <time>2014-11-01T09:24:11Z</time>
      </trkpt>
      <trkpt lat="42.295018000" lon="-2.528286000">
        <ele>725.90</ele>
        <time>2014-11-01T09:24:12Z</time>
      </trkpt>
      <trkpt lat="42.294988000" lon="-2.528284000">
        <ele>726.00</ele>
        <time>2014-11-01T09:24:13Z</time>
      </trkpt>
      <trkpt lat="42.294957000" lon="-2.528276000">
        <ele>726.10</ele>
        <time>2014-11-01T09:24:14Z</time>
      </trkpt>
      <trkpt lat="42.294923000" lon="-2.528271000">
        <ele>726.20</ele>
        <time>2014-11-01T09:24:15Z</time>
      </trkpt>
      <trkpt lat="42.294890000" lon="-2.528266000">
        <ele>726.40</ele>
        <time>2014-11-01T09:24:16Z</time>
      </trkpt>
      <trkpt lat="42.294856000" lon="-2.528262000">
        <ele>726.60</ele>
        <time>2014-11-01T09:24:17Z</time>
      </trkpt>
      <trkpt lat="42.294825000" lon="-2.528256000">
        <ele>726.70</ele>
        <time>2014-11-01T09:24:18Z</time>
      </trkpt>
      <trkpt lat="42.294792000" lon="-2.528251000">
        <ele>726.80</ele>
        <time>2014-11-01T09:24:19Z</time>
      </trkpt>
      <trkpt lat="42.294760000" lon="-2.528246000">
        <ele>726.90</ele>
        <time>2014-11-01T09:24:20Z</time>
      </trkpt>
      <trkpt lat="42.294728000" lon="-2.528239000">
        <ele>726.90</ele>
        <time>2014-11-01T09:24:21Z</time>
      </trkpt>
      <trkpt lat="42.294696000" lon="-2.528226000">
        <ele>726.90</ele>
        <time>2014-11-01T09:24:22Z</time>
      </trkpt>
      <trkpt lat="42.294664000" lon="-2.528216000">
        <ele>727.00</ele>
        <time>2014-11-01T09:24:23Z</time>
      </trkpt>
      <trkpt lat="42.294633000" lon="-2.528210000">
        <ele>727.20</ele>
        <time>2014-11-01T09:24:24Z</time>
      </trkpt>
      <trkpt lat="42.294601000" lon="-2.528205000">
        <ele>727.30</ele>
        <time>2014-11-01T09:24:25Z</time>
      </trkpt>
      <trkpt lat="42.294568000" lon="-2.528197000">
        <ele>727.40</ele>
        <time>2014-11-01T09:24:26Z</time>
      </trkpt>
      <trkpt lat="42.294534000" lon="-2.528188000">
        <ele>727.50</ele>
        <time>2014-11-01T09:24:27Z</time>
      </trkpt>
      <trkpt lat="42.294502000" lon="-2.528177000">
        <ele>727.60</ele>
        <time>2014-11-01T09:24:28Z</time>
      </trkpt>
      <trkpt lat="42.294470000" lon="-2.528171000">
        <ele>727.60</ele>
        <time>2014-11-01T09:24:29Z</time>
      </trkpt>
      <trkpt lat="42.294438000" lon="-2.528166000">
        <ele>727.70</ele>
        <time>2014-11-01T09:24:30Z</time>
      </trkpt>
      <trkpt lat="42.294406000" lon="-2.528161000">
        <ele>727.80</ele>
        <time>2014-11-01T09:24:31Z</time>
      </trkpt>
      <trkpt lat="42.294375000" lon="-2.528160000">
        <ele>727.80</ele>
        <time>2014-11-01T09:24:32Z</time>
      </trkpt>
      <trkpt lat="42.294344000" lon="-2.528165000">
        <ele>727.80</ele>
        <time>2014-11-01T09:24:33Z</time>
      </trkpt>
      <trkpt lat="42.294312000" lon="-2.528171000">
        <ele>727.80</ele>
        <time>2014-11-01T09:24:34Z</time>
      </trkpt>
      <trkpt lat="42.294283000" lon="-2.528178000">
        <ele>727.90</ele>
        <time>2014-11-01T09:24:35Z</time>
      </trkpt>
      <trkpt lat="42.294253000" lon="-2.528184000">
        <ele>728.10</ele>
        <time>2014-11-01T09:24:36Z</time>
      </trkpt>
      <trkpt lat="42.294224000" lon="-2.528191000">
        <ele>728.20</ele>
        <time>2014-11-01T09:24:37Z</time>
      </trkpt>
      <trkpt lat="42.294194000" lon="-2.528199000">
        <ele>728.30</ele>
        <time>2014-11-01T09:24:38Z</time>
      </trkpt>
      <trkpt lat="42.294165000" lon="-2.528203000">
        <ele>728.30</ele>
        <time>2014-11-01T09:24:39Z</time>
      </trkpt>
      <trkpt lat="42.294139000" lon="-2.528211000">
        <ele>728.50</ele>
        <time>2014-11-01T09:24:40Z</time>
      </trkpt>
      <trkpt lat="42.294112000" lon="-2.528216000">
        <ele>728.60</ele>
        <time>2014-11-01T09:24:41Z</time>
      </trkpt>
      <trkpt lat="42.294084000" lon="-2.528222000">
        <ele>728.60</ele>
        <time>2014-11-01T09:24:42Z</time>
      </trkpt>
      <trkpt lat="42.294056000" lon="-2.528231000">
        <ele>728.70</ele>
        <time>2014-11-01T09:24:43Z</time>
      </trkpt>
      <trkpt lat="42.294028000" lon="-2.528238000">
        <ele>728.90</ele>
        <time>2014-11-01T09:24:44Z</time>
      </trkpt>
      <trkpt lat="42.294003000" lon="-2.528244000">
        <ele>729.00</ele>
        <time>2014-11-01T09:24:45Z</time>
      </trkpt>
      <trkpt lat="42.293975000" lon="-2.528250000">
        <ele>729.30</ele>
        <time>2014-11-01T09:24:46Z</time>
      </trkpt>
      <trkpt lat="42.293919000" lon="-2.528265000">
        <ele>729.60</ele>
        <time>2014-11-01T09:24:48Z</time>
      </trkpt>
      <trkpt lat="42.293890000" lon="-2.528270000">
        <ele>729.70</ele>
        <time>2014-11-01T09:24:49Z</time>
      </trkpt>
      <trkpt lat="42.293863000" lon="-2.528277000">
        <ele>730.00</ele>
        <time>2014-11-01T09:24:50Z</time>
      </trkpt>
      <trkpt lat="42.293839000" lon="-2.528284000">
        <ele>730.10</ele>
        <time>2014-11-01T09:24:51Z</time>
      </trkpt>
      <trkpt lat="42.293814000" lon="-2.528290000">
        <ele>730.30</ele>
        <time>2014-11-01T09:24:52Z</time>
      </trkpt>
      <trkpt lat="42.293788000" lon="-2.528296000">
        <ele>730.40</ele>
        <time>2014-11-01T09:24:53Z</time>
      </trkpt>
      <trkpt lat="42.293761000" lon="-2.528300000">
        <ele>730.50</ele>
        <time>2014-11-01T09:24:54Z</time>
      </trkpt>
      <trkpt lat="42.293733000" lon="-2.528302000">
        <ele>730.60</ele>
        <time>2014-11-01T09:24:55Z</time>
      </trkpt>
      <trkpt lat="42.293705000" lon="-2.528306000">
        <ele>730.70</ele>
        <time>2014-11-01T09:24:56Z</time>
      </trkpt>
      <trkpt lat="42.293678000" lon="-2.528308000">
        <ele>730.70</ele>
        <time>2014-11-01T09:24:57Z</time>
      </trkpt>
      <trkpt lat="42.293651000" lon="-2.528312000">
        <ele>730.90</ele>
        <time>2014-11-01T09:24:58Z</time>
      </trkpt>
      <trkpt lat="42.293626000" lon="-2.528316000">
        <ele>731.00</ele>
        <time>2014-11-01T09:24:59Z</time>
      </trkpt>
      <trkpt lat="42.293600000" lon="-2.528316000">
        <ele>731.10</ele>
        <time>2014-11-01T09:25:00Z</time>
      </trkpt>
      <trkpt lat="42.293578000" lon="-2.528322000">
        <ele>731.30</ele>
        <time>2014-11-01T09:25:01Z</time>
      </trkpt>
      <trkpt lat="42.293555000" lon="-2.528323000">
        <ele>731.50</ele>
        <time>2014-11-01T09:25:02Z</time>
      </trkpt>
      <trkpt lat="42.293535000" lon="-2.528325000">
        <ele>731.60</ele>
        <time>2014-11-01T09:25:03Z</time>
      </trkpt>
      <trkpt lat="42.293512000" lon="-2.528327000">
        <ele>731.70</ele>
        <time>2014-11-01T09:25:04Z</time>
      </trkpt>
      <trkpt lat="42.293492000" lon="-2.528331000">
        <ele>731.80</ele>
        <time>2014-11-01T09:25:05Z</time>
      </trkpt>
      <trkpt lat="42.293472000" lon="-2.528330000">
        <ele>731.90</ele>
        <time>2014-11-01T09:25:06Z</time>
      </trkpt>
      <trkpt lat="42.293452000" lon="-2.528330000">
        <ele>731.90</ele>
        <time>2014-11-01T09:25:07Z</time>
      </trkpt>
      <trkpt lat="42.293437000" lon="-2.528334000">
        <ele>732.10</ele>
        <time>2014-11-01T09:25:08Z</time>
      </trkpt>
      <trkpt lat="42.293418000" lon="-2.528338000">
        <ele>732.20</ele>
        <time>2014-11-01T09:25:09Z</time>
      </trkpt>
      <trkpt lat="42.293399000" lon="-2.528340000">
        <ele>732.40</ele>
        <time>2014-11-01T09:25:10Z</time>
      </trkpt>
      <trkpt lat="42.293382000" lon="-2.528346000">
        <ele>732.50</ele>
        <time>2014-11-01T09:25:11Z</time>
      </trkpt>
      <trkpt lat="42.293364000" lon="-2.528353000">
        <ele>732.70</ele>
        <time>2014-11-01T09:25:12Z</time>
      </trkpt>
      <trkpt lat="42.293345000" lon="-2.528360000">
        <ele>732.80</ele>
        <time>2014-11-01T09:25:13Z</time>
      </trkpt>
      <trkpt lat="42.293323000" lon="-2.528361000">
        <ele>733.00</ele>
        <time>2014-11-01T09:25:14Z</time>
      </trkpt>
      <trkpt lat="42.293304000" lon="-2.528364000">
        <ele>733.10</ele>
        <time>2014-11-01T09:25:15Z</time>
      </trkpt>
      <trkpt lat="42.293286000" lon="-2.528364000">
        <ele>733.30</ele>
        <time>2014-11-01T09:25:16Z</time>
      </trkpt>
      <trkpt lat="42.293267000" lon="-2.528365000">
        <ele>733.50</ele>
        <time>2014-11-01T09:25:17Z</time>
      </trkpt>
      <trkpt lat="42.293252000" lon="-2.528367000">
        <ele>733.80</ele>
        <time>2014-11-01T09:25:18Z</time>
      </trkpt>
      <trkpt lat="42.293234000" lon="-2.528368000">
        <ele>734.00</ele>
        <time>2014-11-01T09:25:19Z</time>
      </trkpt>
      <trkpt lat="42.293216000" lon="-2.528368000">
        <ele>734.20</ele>
        <time>2014-11-01T09:25:20Z</time>
      </trkpt>
      <trkpt lat="42.293197000" lon="-2.528374000">
        <ele>734.30</ele>
        <time>2014-11-01T09:25:21Z</time>
      </trkpt>
      <trkpt lat="42.293180000" lon="-2.528378000">
        <ele>734.50</ele>
        <time>2014-11-01T09:25:22Z</time>
      </trkpt>
      <trkpt lat="42.293164000" lon="-2.528380000">
        <ele>734.60</ele>
        <time>2014-11-01T09:25:23Z</time>
      </trkpt>
      <trkpt lat="42.293148000" lon="-2.528382000">
        <ele>734.90</ele>
        <time>2014-11-01T09:25:24Z</time>
      </trkpt>
      <trkpt lat="42.293133000" lon="-2.528381000">
        <ele>735.10</ele>
        <time>2014-11-01T09:25:25Z</time>
      </trkpt>
      <trkpt lat="42.293116000" lon="-2.528376000">
        <ele>735.30</ele>
        <time>2014-11-01T09:25:26Z</time>
      </trkpt>
      <trkpt lat="42.293099000" lon="-2.528379000">
        <ele>735.60</ele>
        <time>2014-11-01T09:25:27Z</time>
      </trkpt>
      <trkpt lat="42.293083000" lon="-2.528382000">
        <ele>735.80</ele>
        <time>2014-11-01T09:25:28Z</time>
      </trkpt>
      <trkpt lat="42.293066000" lon="-2.528383000">
        <ele>736.00</ele>
        <time>2014-11-01T09:25:29Z</time>
      </trkpt>
      <trkpt lat="42.293050000" lon="-2.528382000">
        <ele>736.20</ele>
        <time>2014-11-01T09:25:30Z</time>
      </trkpt>
      <trkpt lat="42.293033000" lon="-2.528385000">
        <ele>736.40</ele>
        <time>2014-11-01T09:25:31Z</time>
      </trkpt>
      <trkpt lat="42.293017000" lon="-2.528386000">
        <ele>736.70</ele>
        <time>2014-11-01T09:25:32Z</time>
      </trkpt>
      <trkpt lat="42.293002000" lon="-2.528387000">
        <ele>736.90</ele>
        <time>2014-11-01T09:25:33Z</time>
      </trkpt>
      <trkpt lat="42.292987000" lon="-2.528385000">
        <ele>737.10</ele>
        <time>2014-11-01T09:25:34Z</time>
      </trkpt>
      <trkpt lat="42.292971000" lon="-2.528381000">
        <ele>737.30</ele>
        <time>2014-11-01T09:25:35Z</time>
      </trkpt>
      <trkpt lat="42.292956000" lon="-2.528380000">
        <ele>737.50</ele>
        <time>2014-11-01T09:25:36Z</time>
      </trkpt>
      <trkpt lat="42.292941000" lon="-2.528381000">
        <ele>737.60</ele>
        <time>2014-11-01T09:25:37Z</time>
      </trkpt>
      <trkpt lat="42.292926000" lon="-2.528382000">
        <ele>737.70</ele>
        <time>2014-11-01T09:25:38Z</time>
      </trkpt>
      <trkpt lat="42.292911000" lon="-2.528382000">
        <ele>737.90</ele>
        <time>2014-11-01T09:25:39Z</time>
      </trkpt>
      <trkpt lat="42.292897000" lon="-2.528377000">
        <ele>738.00</ele>
        <time>2014-11-01T09:25:40Z</time>
      </trkpt>
      <trkpt lat="42.292880000" lon="-2.528371000">
        <ele>738.10</ele>
        <time>2014-11-01T09:25:41Z</time>
      </trkpt>
      <trkpt lat="42.292863000" lon="-2.528364000">
        <ele>738.30</ele>
        <time>2014-11-01T09:25:42Z</time>
      </trkpt>
      <trkpt lat="42.292847000" lon="-2.528361000">
        <ele>738.50</ele>
        <time>2014-11-01T09:25:43Z</time>
      </trkpt>
      <trkpt lat="42.292830000" lon="-2.528361000">
        <ele>738.80</ele>
        <time>2014-11-01T09:25:44Z</time>
      </trkpt>
      <trkpt lat="42.292811000" lon="-2.528357000">
        <ele>739.00</ele>
        <time>2014-11-01T09:25:45Z</time>
      </trkpt>
      <trkpt lat="42.292800000" lon="-2.528354000">
        <ele>739.20</ele>
        <time>2014-11-01T09:25:46Z</time>
      </trkpt>
      <trkpt lat="42.292785000" lon="-2.528351000">
        <ele>739.30</ele>
        <time>2014-11-01T09:25:47Z</time>
      </trkpt>
      <trkpt lat="42.292751000" lon="-2.528342000">
        <ele>739.50</ele>
        <time>2014-11-01T09:25:49Z</time>
      </trkpt>
      <trkpt lat="42.292735000" lon="-2.528335000">
        <ele>739.70</ele>
        <time>2014-11-01T09:25:50Z</time>
      </trkpt>
      <trkpt lat="42.292720000" lon="-2.528333000">
        <ele>739.80</ele>
        <time>2014-11-01T09:25:51Z</time>
      </trkpt>
      <trkpt lat="42.292701000" lon="-2.528330000">
        <ele>740.00</ele>
        <time>2014-11-01T09:25:52Z</time>
      </trkpt>
      <trkpt lat="42.292682000" lon="-2.528324000">
        <ele>740.10</ele>
        <time>2014-11-01T09:25:53Z</time>
      </trkpt>
      <trkpt lat="42.292663000" lon="-2.528317000">
        <ele>740.30</ele>
        <time>2014-11-01T09:25:54Z</time>
      </trkpt>
      <trkpt lat="42.292645000" lon="-2.528311000">
        <ele>740.50</ele>
        <time>2014-11-01T09:25:55Z</time>
      </trkpt>
      <trkpt lat="42.292626000" lon="-2.528305000">
        <ele>740.60</ele>
        <time>2014-11-01T09:25:56Z</time>
      </trkpt>
      <trkpt lat="42.292606000" lon="-2.528302000">
        <ele>740.70</ele>
        <time>2014-11-01T09:25:57Z</time>
      </trkpt>
      <trkpt lat="42.292589000" lon="-2.528295000">
        <ele>740.70</ele>
        <time>2014-11-01T09:25:58Z</time>
      </trkpt>
      <trkpt lat="42.292569000" lon="-2.528288000">
        <ele>740.80</ele>
        <time>2014-11-01T09:25:59Z</time>
      </trkpt>
      <trkpt lat="42.292552000" lon="-2.528288000">
        <ele>741.00</ele>
        <time>2014-11-01T09:26:00Z</time>
      </trkpt>
      <trkpt lat="42.292533000" lon="-2.528286000">
        <ele>741.20</ele>
        <time>2014-11-01T09:26:01Z</time>
      </trkpt>
      <trkpt lat="42.292512000" lon="-2.528284000">
        <ele>741.50</ele>
        <time>2014-11-01T09:26:02Z</time>
      </trkpt>
      <trkpt lat="42.292492000" lon="-2.528280000">
        <ele>741.80</ele>
        <time>2014-11-01T09:26:03Z</time>
      </trkpt>
      <trkpt lat="42.292472000" lon="-2.528272000">
        <ele>742.00</ele>
        <time>2014-11-01T09:26:04Z</time>
      </trkpt>
      <trkpt lat="42.292452000" lon="-2.528267000">
        <ele>742.10</ele>
        <time>2014-11-01T09:26:05Z</time>
      </trkpt>
      <trkpt lat="42.292433000" lon="-2.528261000">
        <ele>742.40</ele>
        <time>2014-11-01T09:26:06Z</time>
      </trkpt>
      <trkpt lat="42.292412000" lon="-2.528257000">
        <ele>742.50</ele>
        <time>2014-11-01T09:26:07Z</time>
      </trkpt>
      <trkpt lat="42.292393000" lon="-2.528251000">
        <ele>742.60</ele>
        <time>2014-11-01T09:26:08Z</time>
      </trkpt>
      <trkpt lat="42.292375000" lon="-2.528248000">
        <ele>742.70</ele>
        <time>2014-11-01T09:26:09Z</time>
      </trkpt>
      <trkpt lat="42.292354000" lon="-2.528243000">
        <ele>742.90</ele>
        <time>2014-11-01T09:26:10Z</time>
      </trkpt>
      <trkpt lat="42.292337000" lon="-2.528242000">
        <ele>743.00</ele>
        <time>2014-11-01T09:26:11Z</time>
      </trkpt>
      <trkpt lat="42.292321000" lon="-2.528240000">
        <ele>743.00</ele>
        <time>2014-11-01T09:26:12Z</time>
      </trkpt>
      <trkpt lat="42.292303000" lon="-2.528239000">
        <ele>743.00</ele>
        <time>2014-11-01T09:26:13Z</time>
      </trkpt>
      <trkpt lat="42.292285000" lon="-2.528237000">
        <ele>743.00</ele>
        <time>2014-11-01T09:26:14Z</time>
      </trkpt>
      <trkpt lat="42.292266000" lon="-2.528232000">
        <ele>743.10</ele>
        <time>2014-11-01T09:26:15Z</time>
      </trkpt>
      <trkpt lat="42.292246000" lon="-2.528226000">
        <ele>743.20</ele>
        <time>2014-11-01T09:26:16Z</time>
      </trkpt>
      <trkpt lat="42.292231000" lon="-2.528218000">
        <ele>743.30</ele>
        <time>2014-11-01T09:26:17Z</time>
      </trkpt>
      <trkpt lat="42.292209000" lon="-2.528212000">
        <ele>743.70</ele>
        <time>2014-11-01T09:26:18Z</time>
      </trkpt>
      <trkpt lat="42.292190000" lon="-2.528205000">
        <ele>744.00</ele>
        <time>2014-11-01T09:26:19Z</time>
      </trkpt>
      <trkpt lat="42.292173000" lon="-2.528200000">
        <ele>744.20</ele>
        <time>2014-11-01T09:26:20Z</time>
      </trkpt>
      <trkpt lat="42.292156000" lon="-2.528198000">
        <ele>744.30</ele>
        <time>2014-11-01T09:26:21Z</time>
      </trkpt>
      <trkpt lat="42.292139000" lon="-2.528190000">
        <ele>744.50</ele>
        <time>2014-11-01T09:26:22Z</time>
      </trkpt>
      <trkpt lat="42.292120000" lon="-2.528184000">
        <ele>744.60</ele>
        <time>2014-11-01T09:26:23Z</time>
      </trkpt>
      <trkpt lat="42.292099000" lon="-2.528177000">
        <ele>744.70</ele>
        <time>2014-11-01T09:26:24Z</time>
      </trkpt>
      <trkpt lat="42.292080000" lon="-2.528172000">
        <ele>744.80</ele>
        <time>2014-11-01T09:26:25Z</time>
      </trkpt>
      <trkpt lat="42.292062000" lon="-2.528166000">
        <ele>745.00</ele>
        <time>2014-11-01T09:26:26Z</time>
      </trkpt>
      <trkpt lat="42.292043000" lon="-2.528158000">
        <ele>745.10</ele>
        <time>2014-11-01T09:26:27Z</time>
      </trkpt>
      <trkpt lat="42.292027000" lon="-2.528150000">
        <ele>745.20</ele>
        <time>2014-11-01T09:26:28Z</time>
      </trkpt>
      <trkpt lat="42.292011000" lon="-2.528145000">
        <ele>745.30</ele>
        <time>2014-11-01T09:26:29Z</time>
      </trkpt>
      <trkpt lat="42.291999000" lon="-2.528141000">
        <ele>745.40</ele>
        <time>2014-11-01T09:26:30Z</time>
      </trkpt>
      <trkpt lat="42.291984000" lon="-2.528133000">
        <ele>745.40</ele>
        <time>2014-11-01T09:26:31Z</time>
      </trkpt>
      <trkpt lat="42.291970000" lon="-2.528121000">
        <ele>745.40</ele>
        <time>2014-11-01T09:26:32Z</time>
      </trkpt>
      <trkpt lat="42.291955000" lon="-2.528111000">
        <ele>745.50</ele>
        <time>2014-11-01T09:26:33Z</time>
      </trkpt>
      <trkpt lat="42.291940000" lon="-2.528099000">
        <ele>745.80</ele>
        <time>2014-11-01T09:26:34Z</time>
      </trkpt>
      <trkpt lat="42.291920000" lon="-2.528088000">
        <ele>746.00</ele>
        <time>2014-11-01T09:26:35Z</time>
      </trkpt>
      <trkpt lat="42.291901000" lon="-2.528078000">
        <ele>746.30</ele>
        <time>2014-11-01T09:26:36Z</time>
      </trkpt>
      <trkpt lat="42.291883000" lon="-2.528071000">
        <ele>746.50</ele>
        <time>2014-11-01T09:26:37Z</time>
      </trkpt>
      <trkpt lat="42.291864000" lon="-2.528067000">
        <ele>746.70</ele>
        <time>2014-11-01T09:26:38Z</time>
      </trkpt>
      <trkpt lat="42.291846000" lon="-2.528063000">
        <ele>746.80</ele>
        <time>2014-11-01T09:26:39Z</time>
      </trkpt>
      <trkpt lat="42.291827000" lon="-2.528062000">
        <ele>747.00</ele>
        <time>2014-11-01T09:26:40Z</time>
      </trkpt>
      <trkpt lat="42.291810000" lon="-2.528054000">
        <ele>747.20</ele>
        <time>2014-11-01T09:26:41Z</time>
      </trkpt>
      <trkpt lat="42.291791000" lon="-2.528039000">
        <ele>747.30</ele>
        <time>2014-11-01T09:26:42Z</time>
      </trkpt>
      <trkpt lat="42.291778000" lon="-2.528024000">
        <ele>747.40</ele>
        <time>2014-11-01T09:26:43Z</time>
      </trkpt>
      <trkpt lat="42.291765000" lon="-2.528006000">
        <ele>747.50</ele>
        <time>2014-11-01T09:26:44Z</time>
      </trkpt>
      <trkpt lat="42.291750000" lon="-2.527988000">
        <ele>747.70</ele>
        <time>2014-11-01T09:26:45Z</time>
      </trkpt>
      <trkpt lat="42.291735000" lon="-2.527972000">
        <ele>747.90</ele>
        <time>2014-11-01T09:26:46Z</time>
      </trkpt>
      <trkpt lat="42.291721000" lon="-2.527956000">
        <ele>748.10</ele>
        <time>2014-11-01T09:26:47Z</time>
      </trkpt>
      <trkpt lat="42.291707000" lon="-2.527939000">
        <ele>748.20</ele>
        <time>2014-11-01T09:26:48Z</time>
      </trkpt>
      <trkpt lat="42.291684000" lon="-2.527893000">
        <ele>748.30</ele>
        <time>2014-11-01T09:26:50Z</time>
      </trkpt>
      <trkpt lat="42.291671000" lon="-2.527872000">
        <ele>748.40</ele>
        <time>2014-11-01T09:26:51Z</time>
      </trkpt>
      <trkpt lat="42.291661000" lon="-2.527856000">
        <ele>748.50</ele>
        <time>2014-11-01T09:26:52Z</time>
      </trkpt>
      <trkpt lat="42.291649000" lon="-2.527836000">
        <ele>748.60</ele>
        <time>2014-11-01T09:26:53Z</time>
      </trkpt>
      <trkpt lat="42.291639000" lon="-2.527813000">
        <ele>748.90</ele>
        <time>2014-11-01T09:26:54Z</time>
      </trkpt>
      <trkpt lat="42.291628000" lon="-2.527793000">
        <ele>749.20</ele>
        <time>2014-11-01T09:26:55Z</time>
      </trkpt>
      <trkpt lat="42.291616000" lon="-2.527769000">
        <ele>749.30</ele>
        <time>2014-11-01T09:26:56Z</time>
      </trkpt>
      <trkpt lat="42.291605000" lon="-2.527746000">
        <ele>749.50</ele>
        <time>2014-11-01T09:26:57Z</time>
      </trkpt>
      <trkpt lat="42.291594000" lon="-2.527729000">
        <ele>749.60</ele>
        <time>2014-11-01T09:26:58Z</time>
      </trkpt>
      <trkpt lat="42.291580000" lon="-2.527711000">
        <ele>749.80</ele>
        <time>2014-11-01T09:26:59Z</time>
      </trkpt>
      <trkpt lat="42.291569000" lon="-2.527692000">
        <ele>749.80</ele>
        <time>2014-11-01T09:27:00Z</time>
      </trkpt>
      <trkpt lat="42.291558000" lon="-2.527676000">
        <ele>749.80</ele>
        <time>2014-11-01T09:27:01Z</time>
      </trkpt>
      <trkpt lat="42.291546000" lon="-2.527660000">
        <ele>749.90</ele>
        <time>2014-11-01T09:27:02Z</time>
      </trkpt>
      <trkpt lat="42.291532000" lon="-2.527641000">
        <ele>750.00</ele>
        <time>2014-11-01T09:27:03Z</time>
      </trkpt>
      <trkpt lat="42.291522000" lon="-2.527620000">
        <ele>750.10</ele>
        <time>2014-11-01T09:27:04Z</time>
      </trkpt>
      <trkpt lat="42.291510000" lon="-2.527599000">
        <ele>750.20</ele>
        <time>2014-11-01T09:27:05Z</time>
      </trkpt>
      <trkpt lat="42.291495000" lon="-2.527581000">
        <ele>750.30</ele>
        <time>2014-11-01T09:27:06Z</time>
      </trkpt>
      <trkpt lat="42.291482000" lon="-2.527564000">
        <ele>750.40</ele>
        <time>2014-11-01T09:27:07Z</time>
      </trkpt>
      <trkpt lat="42.291471000" lon="-2.527546000">
        <ele>750.80</ele>
        <time>2014-11-01T09:27:08Z</time>
      </trkpt>
      <trkpt lat="42.291460000" lon="-2.527529000">
        <ele>751.10</ele>
        <time>2014-11-01T09:27:09Z</time>
      </trkpt>
      <trkpt lat="42.291448000" lon="-2.527510000">
        <ele>751.30</ele>
        <time>2014-11-01T09:27:10Z</time>
      </trkpt>
      <trkpt lat="42.291442000" lon="-2.527487000">
        <ele>751.50</ele>
        <time>2014-11-01T09:27:11Z</time>
      </trkpt>
      <trkpt lat="42.291434000" lon="-2.527465000">
        <ele>751.70</ele>
        <time>2014-11-01T09:27:12Z</time>
      </trkpt>
      <trkpt lat="42.291422000" lon="-2.527446000">
        <ele>751.80</ele>
        <time>2014-11-01T09:27:13Z</time>
      </trkpt>
      <trkpt lat="42.291412000" lon="-2.527429000">
        <ele>751.90</ele>
        <time>2014-11-01T09:27:14Z</time>
      </trkpt>
      <trkpt lat="42.291395000" lon="-2.527413000">
        <ele>752.00</ele>
        <time>2014-11-01T09:27:15Z</time>
      </trkpt>
      <trkpt lat="42.291379000" lon="-2.527391000">
        <ele>752.20</ele>
        <time>2014-11-01T09:27:16Z</time>
      </trkpt>
      <trkpt lat="42.291367000" lon="-2.527377000">
        <ele>752.30</ele>
        <time>2014-11-01T09:27:17Z</time>
      </trkpt>
      <trkpt lat="42.291352000" lon="-2.527359000">
        <ele>752.40</ele>
        <time>2014-11-01T09:27:18Z</time>
      </trkpt>
      <trkpt lat="42.291339000" lon="-2.527344000">
        <ele>752.50</ele>
        <time>2014-11-01T09:27:19Z</time>
      </trkpt>
      <trkpt lat="42.291321000" lon="-2.527328000">
        <ele>752.60</ele>
        <time>2014-11-01T09:27:20Z</time>
      </trkpt>
      <trkpt lat="42.291310000" lon="-2.527315000">
        <ele>752.70</ele>
        <time>2014-11-01T09:27:21Z</time>
      </trkpt>
      <trkpt lat="42.291292000" lon="-2.527300000">
        <ele>752.70</ele>
        <time>2014-11-01T09:27:22Z</time>
      </trkpt>
      <trkpt lat="42.291281000" lon="-2.527286000">
        <ele>752.80</ele>
        <time>2014-11-01T09:27:23Z</time>
      </trkpt>
      <trkpt lat="42.291264000" lon="-2.527275000">
        <ele>752.80</ele>
        <time>2014-11-01T09:27:24Z</time>
      </trkpt>
      <trkpt lat="42.291251000" lon="-2.527265000">
        <ele>752.80</ele>
        <time>2014-11-01T09:27:25Z</time>
      </trkpt>
      <trkpt lat="42.291232000" lon="-2.527250000">
        <ele>752.90</ele>
        <time>2014-11-01T09:27:26Z</time>
      </trkpt>
      <trkpt lat="42.291214000" lon="-2.527238000">
        <ele>753.00</ele>
        <time>2014-11-01T09:27:27Z</time>
      </trkpt>
      <trkpt lat="42.291199000" lon="-2.527223000">
        <ele>753.00</ele>
        <time>2014-11-01T09:27:28Z</time>
      </trkpt>
      <trkpt lat="42.291183000" lon="-2.527207000">
        <ele>753.10</ele>
        <time>2014-11-01T09:27:29Z</time>
      </trkpt>
      <trkpt lat="42.291162000" lon="-2.527198000">
        <ele>753.10</ele>
        <time>2014-11-01T09:27:30Z</time>
      </trkpt>
      <trkpt lat="42.291144000" lon="-2.527187000">
        <ele>753.10</ele>
        <time>2014-11-01T09:27:31Z</time>
      </trkpt>
      <trkpt lat="42.291128000" lon="-2.527171000">
        <ele>753.40</ele>
        <time>2014-11-01T09:27:32Z</time>
      </trkpt>
      <trkpt lat="42.291112000" lon="-2.527158000">
        <ele>753.60</ele>
        <time>2014-11-01T09:27:33Z</time>
      </trkpt>
      <trkpt lat="42.291098000" lon="-2.527146000">
        <ele>753.80</ele>
        <time>2014-11-01T09:27:34Z</time>
      </trkpt>
      <trkpt lat="42.291086000" lon="-2.527132000">
        <ele>753.90</ele>
        <time>2014-11-01T09:27:35Z</time>
      </trkpt>
      <trkpt lat="42.291072000" lon="-2.527116000">
        <ele>754.00</ele>
        <time>2014-11-01T09:27:36Z</time>
      </trkpt>
      <trkpt lat="42.291053000" lon="-2.527103000">
        <ele>754.10</ele>
        <time>2014-11-01T09:27:37Z</time>
      </trkpt>
      <trkpt lat="42.291036000" lon="-2.527091000">
        <ele>754.20</ele>
        <time>2014-11-01T09:27:38Z</time>
      </trkpt>
      <trkpt lat="42.291021000" lon="-2.527078000">
        <ele>754.20</ele>
        <time>2014-11-01T09:27:39Z</time>
      </trkpt>
      <trkpt lat="42.291002000" lon="-2.527067000">
        <ele>754.30</ele>
        <time>2014-11-01T09:27:40Z</time>
      </trkpt>
      <trkpt lat="42.290986000" lon="-2.527052000">
        <ele>754.40</ele>
        <time>2014-11-01T09:27:41Z</time>
      </trkpt>
      <trkpt lat="42.290968000" lon="-2.527038000">
        <ele>754.50</ele>
        <time>2014-11-01T09:27:42Z</time>
      </trkpt>
      <trkpt lat="42.290951000" lon="-2.527030000">
        <ele>754.60</ele>
        <time>2014-11-01T09:27:43Z</time>
      </trkpt>
      <trkpt lat="42.290930000" lon="-2.527021000">
        <ele>754.80</ele>
        <time>2014-11-01T09:27:44Z</time>
      </trkpt>
      <trkpt lat="42.290914000" lon="-2.527011000">
        <ele>754.90</ele>
        <time>2014-11-01T09:27:45Z</time>
      </trkpt>
      <trkpt lat="42.290898000" lon="-2.527001000">
        <ele>755.10</ele>
        <time>2014-11-01T09:27:46Z</time>
      </trkpt>
      <trkpt lat="42.290879000" lon="-2.526992000">
        <ele>755.20</ele>
        <time>2014-11-01T09:27:47Z</time>
      </trkpt>
      <trkpt lat="42.290860000" lon="-2.526982000">
        <ele>755.30</ele>
        <time>2014-11-01T09:27:48Z</time>
      </trkpt>
      <trkpt lat="42.290841000" lon="-2.526972000">
        <ele>755.30</ele>
        <time>2014-11-01T09:27:49Z</time>
      </trkpt>
      <trkpt lat="42.290800000" lon="-2.526946000">
        <ele>755.40</ele>
        <time>2014-11-01T09:27:51Z</time>
      </trkpt>
      <trkpt lat="42.290784000" lon="-2.526932000">
        <ele>755.60</ele>
        <time>2014-11-01T09:27:52Z</time>
      </trkpt>
      <trkpt lat="42.290763000" lon="-2.526920000">
        <ele>755.70</ele>
        <time>2014-11-01T09:27:53Z</time>
      </trkpt>
      <trkpt lat="42.290743000" lon="-2.526912000">
        <ele>755.70</ele>
        <time>2014-11-01T09:27:54Z</time>
      </trkpt>
      <trkpt lat="42.290726000" lon="-2.526906000">
        <ele>755.80</ele>
        <time>2014-11-01T09:27:55Z</time>
      </trkpt>
      <trkpt lat="42.290708000" lon="-2.526900000">
        <ele>755.80</ele>
        <time>2014-11-01T09:27:56Z</time>
      </trkpt>
      <trkpt lat="42.290687000" lon="-2.526896000">
        <ele>755.80</ele>
        <time>2014-11-01T09:27:57Z</time>
      </trkpt>
      <trkpt lat="42.290664000" lon="-2.526890000">
        <ele>755.80</ele>
        <time>2014-11-01T09:27:58Z</time>
      </trkpt>
      <trkpt lat="42.290642000" lon="-2.526882000">
        <ele>755.80</ele>
        <time>2014-11-01T09:27:59Z</time>
      </trkpt>
      <trkpt lat="42.290621000" lon="-2.526880000">
        <ele>756.00</ele>
        <time>2014-11-01T09:28:00Z</time>
      </trkpt>
      <trkpt lat="42.290601000" lon="-2.526875000">
        <ele>756.20</ele>
        <time>2014-11-01T09:28:01Z</time>
      </trkpt>
      <trkpt lat="42.290579000" lon="-2.526869000">
        <ele>756.40</ele>
        <time>2014-11-01T09:28:02Z</time>
      </trkpt>
      <trkpt lat="42.290557000" lon="-2.526864000">
        <ele>756.60</ele>
        <time>2014-11-01T09:28:03Z</time>
      </trkpt>
      <trkpt lat="42.290535000" lon="-2.526863000">
        <ele>756.70</ele>
        <time>2014-11-01T09:28:04Z</time>
      </trkpt>
      <trkpt lat="42.290511000" lon="-2.526859000">
        <ele>756.80</ele>
        <time>2014-11-01T09:28:05Z</time>
      </trkpt>
      <trkpt lat="42.290489000" lon="-2.526859000">
        <ele>756.90</ele>
        <time>2014-11-01T09:28:06Z</time>
      </trkpt>
      <trkpt lat="42.290466000" lon="-2.526860000">
        <ele>756.90</ele>
        <time>2014-11-01T09:28:07Z</time>
      </trkpt>
      <trkpt lat="42.290441000" lon="-2.526860000">
        <ele>756.90</ele>
        <time>2014-11-01T09:28:08Z</time>
      </trkpt>
      <trkpt lat="42.290417000" lon="-2.526859000">
        <ele>756.90</ele>
        <time>2014-11-01T09:28:09Z</time>
      </trkpt>
      <trkpt lat="42.290396000" lon="-2.526860000">
        <ele>757.00</ele>
        <time>2014-11-01T09:28:10Z</time>
      </trkpt>
      <trkpt lat="42.290374000" lon="-2.526857000">
        <ele>757.10</ele>
        <time>2014-11-01T09:28:11Z</time>
      </trkpt>
      <trkpt lat="42.290352000" lon="-2.526854000">
        <ele>757.20</ele>
        <time>2014-11-01T09:28:12Z</time>
      </trkpt>
      <trkpt lat="42.290328000" lon="-2.526853000">
        <ele>757.20</ele>
        <time>2014-11-01T09:28:13Z</time>
      </trkpt>
      <trkpt lat="42.290304000" lon="-2.526852000">
        <ele>757.30</ele>
        <time>2014-11-01T09:28:14Z</time>
      </trkpt>
      <trkpt lat="42.290280000" lon="-2.526851000">
        <ele>757.30</ele>
        <time>2014-11-01T09:28:15Z</time>
      </trkpt>
      <trkpt lat="42.290256000" lon="-2.526848000">
        <ele>757.40</ele>
        <time>2014-11-01T09:28:16Z</time>
      </trkpt>
      <trkpt lat="42.290235000" lon="-2.526847000">
        <ele>757.50</ele>
        <time>2014-11-01T09:28:17Z</time>
      </trkpt>
      <trkpt lat="42.290213000" lon="-2.526848000">
        <ele>757.60</ele>
        <time>2014-11-01T09:28:18Z</time>
      </trkpt>
      <trkpt lat="42.290190000" lon="-2.526847000">
        <ele>757.70</ele>
        <time>2014-11-01T09:28:19Z</time>
      </trkpt>
      <trkpt lat="42.290167000" lon="-2.526847000">
        <ele>757.80</ele>
        <time>2014-11-01T09:28:20Z</time>
      </trkpt>
      <trkpt lat="42.290145000" lon="-2.526842000">
        <ele>757.80</ele>
        <time>2014-11-01T09:28:21Z</time>
      </trkpt>
      <trkpt lat="42.290124000" lon="-2.526838000">
        <ele>757.80</ele>
        <time>2014-11-01T09:28:22Z</time>
      </trkpt>
      <trkpt lat="42.290103000" lon="-2.526834000">
        <ele>757.90</ele>
        <time>2014-11-01T09:28:23Z</time>
      </trkpt>
      <trkpt lat="42.290080000" lon="-2.526831000">
        <ele>757.90</ele>
        <time>2014-11-01T09:28:24Z</time>
      </trkpt>
      <trkpt lat="42.290059000" lon="-2.526830000">
        <ele>757.90</ele>
        <time>2014-11-01T09:28:25Z</time>
      </trkpt>
      <trkpt lat="42.290038000" lon="-2.526828000">
        <ele>757.90</ele>
        <time>2014-11-01T09:28:26Z</time>
      </trkpt>
      <trkpt lat="42.290018000" lon="-2.526828000">
        <ele>757.90</ele>
        <time>2014-11-01T09:28:27Z</time>
      </trkpt>
      <trkpt lat="42.289996000" lon="-2.526825000">
        <ele>758.20</ele>
        <time>2014-11-01T09:28:28Z</time>
      </trkpt>
      <trkpt lat="42.289975000" lon="-2.526824000">
        <ele>758.40</ele>
        <time>2014-11-01T09:28:29Z</time>
      </trkpt>
      <trkpt lat="42.289951000" lon="-2.526818000">
        <ele>758.60</ele>
        <time>2014-11-01T09:28:30Z</time>
      </trkpt>
      <trkpt lat="42.289933000" lon="-2.526814000">
        <ele>758.70</ele>
        <time>2014-11-01T09:28:31Z</time>
      </trkpt>
      <trkpt lat="42.289911000" lon="-2.526809000">
        <ele>758.80</ele>
        <time>2014-11-01T09:28:32Z</time>
      </trkpt>
      <trkpt lat="42.289889000" lon="-2.526804000">
        <ele>758.80</ele>
        <time>2014-11-01T09:28:33Z</time>
      </trkpt>
      <trkpt lat="42.289866000" lon="-2.526797000">
        <ele>758.90</ele>
        <time>2014-11-01T09:28:34Z</time>
      </trkpt>
      <trkpt lat="42.289845000" lon="-2.526790000">
        <ele>758.90</ele>
        <time>2014-11-01T09:28:35Z</time>
      </trkpt>
      <trkpt lat="42.289824000" lon="-2.526786000">
        <ele>758.90</ele>
        <time>2014-11-01T09:28:36Z</time>
      </trkpt>
      <trkpt lat="42.289804000" lon="-2.526778000">
        <ele>759.00</ele>
        <time>2014-11-01T09:28:37Z</time>
      </trkpt>
      <trkpt lat="42.289782000" lon="-2.526773000">
        <ele>759.00</ele>
        <time>2014-11-01T09:28:38Z</time>
      </trkpt>
      <trkpt lat="42.289762000" lon="-2.526769000">
        <ele>759.00</ele>
        <time>2014-11-01T09:28:39Z</time>
      </trkpt>
      <trkpt lat="42.289740000" lon="-2.526765000">
        <ele>759.10</ele>
        <time>2014-11-01T09:28:40Z</time>
      </trkpt>
      <trkpt lat="42.289721000" lon="-2.526758000">
        <ele>759.20</ele>
        <time>2014-11-01T09:28:41Z</time>
      </trkpt>
      <trkpt lat="42.289700000" lon="-2.526749000">
        <ele>759.40</ele>
        <time>2014-11-01T09:28:42Z</time>
      </trkpt>
      <trkpt lat="42.289676000" lon="-2.526742000">
        <ele>759.50</ele>
        <time>2014-11-01T09:28:43Z</time>
      </trkpt>
      <trkpt lat="42.289654000" lon="-2.526737000">
        <ele>759.60</ele>
        <time>2014-11-01T09:28:44Z</time>
      </trkpt>
      <trkpt lat="42.289632000" lon="-2.526730000">
        <ele>759.70</ele>
        <time>2014-11-01T09:28:45Z</time>
      </trkpt>
      <trkpt lat="42.289612000" lon="-2.526720000">
        <ele>759.80</ele>
        <time>2014-11-01T09:28:46Z</time>
      </trkpt>
      <trkpt lat="42.289595000" lon="-2.526708000">
        <ele>759.90</ele>
        <time>2014-11-01T09:28:47Z</time>
      </trkpt>
      <trkpt lat="42.289574000" lon="-2.526703000">
        <ele>759.90</ele>
        <time>2014-11-01T09:28:48Z</time>
      </trkpt>
      <trkpt lat="42.289555000" lon="-2.526695000">
        <ele>760.00</ele>
        <time>2014-11-01T09:28:49Z</time>
      </trkpt>
      <trkpt lat="42.289539000" lon="-2.526683000">
        <ele>760.10</ele>
        <time>2014-11-01T09:28:50Z</time>
      </trkpt>
      <trkpt lat="42.289499000" lon="-2.526664000">
        <ele>760.30</ele>
        <time>2014-11-01T09:28:52Z</time>
      </trkpt>
      <trkpt lat="42.289480000" lon="-2.526658000">
        <ele>760.30</ele>
        <time>2014-11-01T09:28:53Z</time>
      </trkpt>
      <trkpt lat="42.289458000" lon="-2.526651000">
        <ele>760.40</ele>
        <time>2014-11-01T09:28:54Z</time>
      </trkpt>
      <trkpt lat="42.289435000" lon="-2.526644000">
        <ele>760.50</ele>
        <time>2014-11-01T09:28:55Z</time>
      </trkpt>
      <trkpt lat="42.289413000" lon="-2.526635000">
        <ele>760.60</ele>
        <time>2014-11-01T09:28:56Z</time>
      </trkpt>
      <trkpt lat="42.289391000" lon="-2.526624000">
        <ele>760.80</ele>
        <time>2014-11-01T09:28:57Z</time>
      </trkpt>
      <trkpt lat="42.289368000" lon="-2.526611000">
        <ele>760.90</ele>
        <time>2014-11-01T09:28:58Z</time>
      </trkpt>
      <trkpt lat="42.289346000" lon="-2.526598000">
        <ele>760.90</ele>
        <time>2014-11-01T09:28:59Z</time>
      </trkpt>
      <trkpt lat="42.289323000" lon="-2.526587000">
        <ele>761.00</ele>
        <time>2014-11-01T09:29:00Z</time>
      </trkpt>
      <trkpt lat="42.289299000" lon="-2.526577000">
        <ele>761.00</ele>
        <time>2014-11-01T09:29:01Z</time>
      </trkpt>
      <trkpt lat="42.289276000" lon="-2.526564000">
        <ele>761.10</ele>
        <time>2014-11-01T09:29:02Z</time>
      </trkpt>
      <trkpt lat="42.289254000" lon="-2.526555000">
        <ele>761.20</ele>
        <time>2014-11-01T09:29:03Z</time>
      </trkpt>
      <trkpt lat="42.289231000" lon="-2.526544000">
        <ele>761.20</ele>
        <time>2014-11-01T09:29:04Z</time>
      </trkpt>
      <trkpt lat="42.289208000" lon="-2.526535000">
        <ele>761.30</ele>
        <time>2014-11-01T09:29:05Z</time>
      </trkpt>
      <trkpt lat="42.289183000" lon="-2.526528000">
        <ele>761.30</ele>
        <time>2014-11-01T09:29:06Z</time>
      </trkpt>
      <trkpt lat="42.289156000" lon="-2.526523000">
        <ele>761.30</ele>
        <time>2014-11-01T09:29:07Z</time>
      </trkpt>
      <trkpt lat="42.289131000" lon="-2.526516000">
        <ele>761.20</ele>
        <time>2014-11-01T09:29:08Z</time>
      </trkpt>
      <trkpt lat="42.289105000" lon="-2.526510000">
        <ele>761.10</ele>
        <time>2014-11-01T09:29:09Z</time>
      </trkpt>
      <trkpt lat="42.289078000" lon="-2.526508000">
        <ele>761.20</ele>
        <time>2014-11-01T09:29:10Z</time>
      </trkpt>
      <trkpt lat="42.289051000" lon="-2.526507000">
        <ele>761.30</ele>
        <time>2014-11-01T09:29:11Z</time>
      </trkpt>
      <trkpt lat="42.289024000" lon="-2.526507000">
        <ele>761.40</ele>
        <time>2014-11-01T09:29:12Z</time>
      </trkpt>
      <trkpt lat="42.288999000" lon="-2.526514000">
        <ele>761.60</ele>
        <time>2014-11-01T09:29:13Z</time>
      </trkpt>
      <trkpt lat="42.288971000" lon="-2.526519000">
        <ele>761.70</ele>
        <time>2014-11-01T09:29:14Z</time>
      </trkpt>
      <trkpt lat="42.288943000" lon="-2.526523000">
        <ele>761.70</ele>
        <time>2014-11-01T09:29:15Z</time>
      </trkpt>
      <trkpt lat="42.288917000" lon="-2.526533000">
        <ele>761.80</ele>
        <time>2014-11-01T09:29:16Z</time>
      </trkpt>
      <trkpt lat="42.288891000" lon="-2.526538000">
        <ele>761.80</ele>
        <time>2014-11-01T09:29:17Z</time>
      </trkpt>
      <trkpt lat="42.288864000" lon="-2.526547000">
        <ele>761.80</ele>
        <time>2014-11-01T09:29:18Z</time>
      </trkpt>
      <trkpt lat="42.288839000" lon="-2.526559000">
        <ele>761.90</ele>
        <time>2014-11-01T09:29:19Z</time>
      </trkpt>
      <trkpt lat="42.288809000" lon="-2.526572000">
        <ele>761.90</ele>
        <time>2014-11-01T09:29:20Z</time>
      </trkpt>
      <trkpt lat="42.288786000" lon="-2.526588000">
        <ele>762.00</ele>
        <time>2014-11-01T09:29:21Z</time>
      </trkpt>
      <trkpt lat="42.288766000" lon="-2.526605000">
        <ele>762.00</ele>
        <time>2014-11-01T09:29:22Z</time>
      </trkpt>
      <trkpt lat="42.288746000" lon="-2.526627000">
        <ele>762.00</ele>
        <time>2014-11-01T09:29:23Z</time>
      </trkpt>
      <trkpt lat="42.288730000" lon="-2.526649000">
        <ele>761.90</ele>
        <time>2014-11-01T09:29:24Z</time>
      </trkpt>
      <trkpt lat="42.288708000" lon="-2.526671000">
        <ele>761.80</ele>
        <time>2014-11-01T09:29:25Z</time>
      </trkpt>
      <trkpt lat="42.288689000" lon="-2.526694000">
        <ele>761.80</ele>
        <time>2014-11-01T09:29:26Z</time>
      </trkpt>
      <trkpt lat="42.288667000" lon="-2.526713000">
        <ele>761.70</ele>
        <time>2014-11-01T09:29:27Z</time>
      </trkpt>
      <trkpt lat="42.288645000" lon="-2.526729000">
        <ele>761.70</ele>
        <time>2014-11-01T09:29:28Z</time>
      </trkpt>
      <trkpt lat="42.288623000" lon="-2.526748000">
        <ele>761.70</ele>
        <time>2014-11-01T09:29:29Z</time>
      </trkpt>
      <trkpt lat="42.288600000" lon="-2.526763000">
        <ele>761.60</ele>
        <time>2014-11-01T09:29:30Z</time>
      </trkpt>
      <trkpt lat="42.288576000" lon="-2.526771000">
        <ele>761.60</ele>
        <time>2014-11-01T09:29:31Z</time>
      </trkpt>
      <trkpt lat="42.288552000" lon="-2.526786000">
        <ele>761.70</ele>
        <time>2014-11-01T09:29:32Z</time>
      </trkpt>
      <trkpt lat="42.288527000" lon="-2.526804000">
        <ele>761.70</ele>
        <time>2014-11-01T09:29:33Z</time>
      </trkpt>
      <trkpt lat="42.288505000" lon="-2.526825000">
        <ele>761.70</ele>
        <time>2014-11-01T09:29:34Z</time>
      </trkpt>
      <trkpt lat="42.288484000" lon="-2.526842000">
        <ele>761.70</ele>
        <time>2014-11-01T09:29:35Z</time>
      </trkpt>
      <trkpt lat="42.288459000" lon="-2.526860000">
        <ele>761.60</ele>
        <time>2014-11-01T09:29:36Z</time>
      </trkpt>
      <trkpt lat="42.288436000" lon="-2.526876000">
        <ele>761.60</ele>
        <time>2014-11-01T09:29:37Z</time>
      </trkpt>
      <trkpt lat="42.288414000" lon="-2.526894000">
        <ele>761.60</ele>
        <time>2014-11-01T09:29:38Z</time>
      </trkpt>
      <trkpt lat="42.288394000" lon="-2.526911000">
        <ele>761.60</ele>
        <time>2014-11-01T09:29:39Z</time>
      </trkpt>
      <trkpt lat="42.288372000" lon="-2.526928000">
        <ele>761.80</ele>
        <time>2014-11-01T09:29:40Z</time>
      </trkpt>
      <trkpt lat="42.288349000" lon="-2.526944000">
        <ele>761.90</ele>
        <time>2014-11-01T09:29:41Z</time>
      </trkpt>
      <trkpt lat="42.288328000" lon="-2.526963000">
        <ele>762.10</ele>
        <time>2014-11-01T09:29:42Z</time>
      </trkpt>
      <trkpt lat="42.288308000" lon="-2.526979000">
        <ele>762.10</ele>
        <time>2014-11-01T09:29:43Z</time>
      </trkpt>
      <trkpt lat="42.288288000" lon="-2.526994000">
        <ele>762.20</ele>
        <time>2014-11-01T09:29:44Z</time>
      </trkpt>
      <trkpt lat="42.288267000" lon="-2.527005000">
        <ele>762.20</ele>
        <time>2014-11-01T09:29:45Z</time>
      </trkpt>
      <trkpt lat="42.288247000" lon="-2.527021000">
        <ele>762.30</ele>
        <time>2014-11-01T09:29:46Z</time>
      </trkpt>
      <trkpt lat="42.288228000" lon="-2.527039000">
        <ele>762.40</ele>
        <time>2014-11-01T09:29:47Z</time>
      </trkpt>
      <trkpt lat="42.288208000" lon="-2.527054000">
        <ele>762.50</ele>
        <time>2014-11-01T09:29:48Z</time>
      </trkpt>
      <trkpt lat="42.288187000" lon="-2.527066000">
        <ele>762.60</ele>
        <time>2014-11-01T09:29:49Z</time>
      </trkpt>
      <trkpt lat="42.288168000" lon="-2.527081000">
        <ele>762.70</ele>
        <time>2014-11-01T09:29:50Z</time>
      </trkpt>
      <trkpt lat="42.288147000" lon="-2.527095000">
        <ele>762.80</ele>
        <time>2014-11-01T09:29:51Z</time>
      </trkpt>
      <trkpt lat="42.288102000" lon="-2.527127000">
        <ele>762.80</ele>
        <time>2014-11-01T09:29:53Z</time>
      </trkpt>
      <trkpt lat="42.288079000" lon="-2.527141000">
        <ele>763.00</ele>
        <time>2014-11-01T09:29:54Z</time>
      </trkpt>
      <trkpt lat="42.288058000" lon="-2.527160000">
        <ele>763.10</ele>
        <time>2014-11-01T09:29:55Z</time>
      </trkpt>
      <trkpt lat="42.288037000" lon="-2.527177000">
        <ele>763.20</ele>
        <time>2014-11-01T09:29:56Z</time>
      </trkpt>
      <trkpt lat="42.288016000" lon="-2.527198000">
        <ele>763.30</ele>
        <time>2014-11-01T09:29:57Z</time>
      </trkpt>
      <trkpt lat="42.287996000" lon="-2.527212000">
        <ele>763.40</ele>
        <time>2014-11-01T09:29:58Z</time>
      </trkpt>
      <trkpt lat="42.287978000" lon="-2.527222000">
        <ele>763.60</ele>
        <time>2014-11-01T09:29:59Z</time>
      </trkpt>
      <trkpt lat="42.287964000" lon="-2.527235000">
        <ele>763.70</ele>
        <time>2014-11-01T09:30:00Z</time>
      </trkpt>
      <trkpt lat="42.287945000" lon="-2.527250000">
        <ele>763.70</ele>
        <time>2014-11-01T09:30:01Z</time>
      </trkpt>
      <trkpt lat="42.287927000" lon="-2.527270000">
        <ele>763.90</ele>
        <time>2014-11-01T09:30:02Z</time>
      </trkpt>
      <trkpt lat="42.287903000" lon="-2.527284000">
        <ele>764.00</ele>
        <time>2014-11-01T09:30:03Z</time>
      </trkpt>
      <trkpt lat="42.287878000" lon="-2.527296000">
        <ele>764.00</ele>
        <time>2014-11-01T09:30:04Z</time>
      </trkpt>
      <trkpt lat="42.287855000" lon="-2.527313000">
        <ele>764.10</ele>
        <time>2014-11-01T09:30:05Z</time>
      </trkpt>
      <trkpt lat="42.287837000" lon="-2.527331000">
        <ele>764.10</ele>
        <time>2014-11-01T09:30:06Z</time>
      </trkpt>
      <trkpt lat="42.287820000" lon="-2.527352000">
        <ele>764.20</ele>
        <time>2014-11-01T09:30:07Z</time>
      </trkpt>
      <trkpt lat="42.287799000" lon="-2.527368000">
        <ele>764.20</ele>
        <time>2014-11-01T09:30:08Z</time>
      </trkpt>
      <trkpt lat="42.287785000" lon="-2.527388000">
        <ele>764.20</ele>
        <time>2014-11-01T09:30:09Z</time>
      </trkpt>
      <trkpt lat="42.287764000" lon="-2.527406000">
        <ele>764.30</ele>
        <time>2014-11-01T09:30:10Z</time>
      </trkpt>
      <trkpt lat="42.287740000" lon="-2.527420000">
        <ele>764.30</ele>
        <time>2014-11-01T09:30:11Z</time>
      </trkpt>
      <trkpt lat="42.287724000" lon="-2.527443000">
        <ele>764.80</ele>
        <time>2014-11-01T09:30:12Z</time>
      </trkpt>
      <trkpt lat="42.287706000" lon="-2.527467000">
        <ele>765.10</ele>
        <time>2014-11-01T09:30:13Z</time>
      </trkpt>
      <trkpt lat="42.287691000" lon="-2.527492000">
        <ele>765.30</ele>
        <time>2014-11-01T09:30:14Z</time>
      </trkpt>
      <trkpt lat="42.287680000" lon="-2.527525000">
        <ele>765.50</ele>
        <time>2014-11-01T09:30:15Z</time>
      </trkpt>
      <trkpt lat="42.287666000" lon="-2.527555000">
        <ele>765.80</ele>
        <time>2014-11-01T09:30:16Z</time>
      </trkpt>
      <trkpt lat="42.287653000" lon="-2.527590000">
        <ele>766.00</ele>
        <time>2014-11-01T09:30:17Z</time>
      </trkpt>
      <trkpt lat="42.287638000" lon="-2.527622000">
        <ele>766.10</ele>
        <time>2014-11-01T09:30:18Z</time>
      </trkpt>
      <trkpt lat="42.287626000" lon="-2.527660000">
        <ele>766.20</ele>
        <time>2014-11-01T09:30:19Z</time>
      </trkpt>
      <trkpt lat="42.287620000" lon="-2.527695000">
        <ele>766.20</ele>
        <time>2014-11-01T09:30:20Z</time>
      </trkpt>
      <trkpt lat="42.287611000" lon="-2.527728000">
        <ele>766.30</ele>
        <time>2014-11-01T09:30:21Z</time>
      </trkpt>
      <trkpt lat="42.287610000" lon="-2.527761000">
        <ele>766.30</ele>
        <time>2014-11-01T09:30:22Z</time>
      </trkpt>
      <trkpt lat="42.287607000" lon="-2.527791000">
        <ele>766.40</ele>
        <time>2014-11-01T09:30:23Z</time>
      </trkpt>
      <trkpt lat="42.287606000" lon="-2.527817000">
        <ele>766.70</ele>
        <time>2014-11-01T09:30:24Z</time>
      </trkpt>
      <trkpt lat="42.287606000" lon="-2.527842000">
        <ele>767.00</ele>
        <time>2014-11-01T09:30:25Z</time>
      </trkpt>
      <trkpt lat="42.287607000" lon="-2.527870000">
        <ele>767.30</ele>
        <time>2014-11-01T09:30:26Z</time>
      </trkpt>
      <trkpt lat="42.287608000" lon="-2.527901000">
        <ele>767.60</ele>
        <time>2014-11-01T09:30:27Z</time>
      </trkpt>
      <trkpt lat="42.287612000" lon="-2.527928000">
        <ele>767.80</ele>
        <time>2014-11-01T09:30:28Z</time>
      </trkpt>
      <trkpt lat="42.287615000" lon="-2.527956000">
        <ele>768.00</ele>
        <time>2014-11-01T09:30:29Z</time>
      </trkpt>
      <trkpt lat="42.287614000" lon="-2.527980000">
        <ele>768.20</ele>
        <time>2014-11-01T09:30:30Z</time>
      </trkpt>
      <trkpt lat="42.287612000" lon="-2.528008000">
        <ele>768.30</ele>
        <time>2014-11-01T09:30:31Z</time>
      </trkpt>
      <trkpt lat="42.287617000" lon="-2.528037000">
        <ele>768.40</ele>
        <time>2014-11-01T09:30:32Z</time>
      </trkpt>
      <trkpt lat="42.287616000" lon="-2.528066000">
        <ele>768.40</ele>
        <time>2014-11-01T09:30:33Z</time>
      </trkpt>
      <trkpt lat="42.287617000" lon="-2.528093000">
        <ele>768.50</ele>
        <time>2014-11-01T09:30:34Z</time>
      </trkpt>
      <trkpt lat="42.287613000" lon="-2.528122000">
        <ele>768.50</ele>
        <time>2014-11-01T09:30:35Z</time>
      </trkpt>
      <trkpt lat="42.287607000" lon="-2.528145000">
        <ele>768.80</ele>
        <time>2014-11-01T09:30:36Z</time>
      </trkpt>
      <trkpt lat="42.287603000" lon="-2.528173000">
        <ele>769.10</ele>
        <time>2014-11-01T09:30:37Z</time>
      </trkpt>
      <trkpt lat="42.287597000" lon="-2.528198000">
        <ele>769.50</ele>
        <time>2014-11-01T09:30:38Z</time>
      </trkpt>
      <trkpt lat="42.287596000" lon="-2.528222000">
        <ele>769.90</ele>
        <time>2014-11-01T09:30:39Z</time>
      </trkpt>
      <trkpt lat="42.287587000" lon="-2.528244000">
        <ele>770.10</ele>
        <time>2014-11-01T09:30:40Z</time>
      </trkpt>
      <trkpt lat="42.287579000" lon="-2.528268000">
        <ele>770.30</ele>
        <time>2014-11-01T09:30:41Z</time>
      </trkpt>
      <trkpt lat="42.287571000" lon="-2.528291000">
        <ele>770.60</ele>
        <time>2014-11-01T09:30:42Z</time>
      </trkpt>
      <trkpt lat="42.287561000" lon="-2.528308000">
        <ele>770.80</ele>
        <time>2014-11-01T09:30:43Z</time>
      </trkpt>
      <trkpt lat="42.287547000" lon="-2.528325000">
        <ele>771.00</ele>
        <time>2014-11-01T09:30:44Z</time>
      </trkpt>
      <trkpt lat="42.287536000" lon="-2.528343000">
        <ele>771.10</ele>
        <time>2014-11-01T09:30:45Z</time>
      </trkpt>
      <trkpt lat="42.287523000" lon="-2.528356000">
        <ele>771.20</ele>
        <time>2014-11-01T09:30:46Z</time>
      </trkpt>
      <trkpt lat="42.287509000" lon="-2.528373000">
        <ele>771.20</ele>
        <time>2014-11-01T09:30:47Z</time>
      </trkpt>
      <trkpt lat="42.287495000" lon="-2.528389000">
        <ele>771.60</ele>
        <time>2014-11-01T09:30:48Z</time>
      </trkpt>
      <trkpt lat="42.287479000" lon="-2.528397000">
        <ele>771.80</ele>
        <time>2014-11-01T09:30:49Z</time>
      </trkpt>
      <trkpt lat="42.287463000" lon="-2.528405000">
        <ele>772.00</ele>
        <time>2014-11-01T09:30:50Z</time>
      </trkpt>
      <trkpt lat="42.287447000" lon="-2.528410000">
        <ele>772.10</ele>
        <time>2014-11-01T09:30:51Z</time>
      </trkpt>
      <trkpt lat="42.287430000" lon="-2.528416000">
        <ele>772.30</ele>
        <time>2014-11-01T09:30:52Z</time>
      </trkpt>
      <trkpt lat="42.287394000" lon="-2.528425000">
        <ele>772.90</ele>
        <time>2014-11-01T09:30:54Z</time>
      </trkpt>
      <trkpt lat="42.287375000" lon="-2.528430000">
        <ele>773.20</ele>
        <time>2014-11-01T09:30:55Z</time>
      </trkpt>
      <trkpt lat="42.287358000" lon="-2.528432000">
        <ele>773.50</ele>
        <time>2014-11-01T09:30:56Z</time>
      </trkpt>
      <trkpt lat="42.287340000" lon="-2.528430000">
        <ele>773.80</ele>
        <time>2014-11-01T09:30:57Z</time>
      </trkpt>
      <trkpt lat="42.287318000" lon="-2.528424000">
        <ele>774.10</ele>
        <time>2014-11-01T09:30:58Z</time>
      </trkpt>
      <trkpt lat="42.287297000" lon="-2.528414000">
        <ele>774.40</ele>
        <time>2014-11-01T09:30:59Z</time>
      </trkpt>
      <trkpt lat="42.287278000" lon="-2.528408000">
        <ele>774.60</ele>
        <time>2014-11-01T09:31:00Z</time>
      </trkpt>
      <trkpt lat="42.287258000" lon="-2.528400000">
        <ele>774.80</ele>
        <time>2014-11-01T09:31:01Z</time>
      </trkpt>
      <trkpt lat="42.287242000" lon="-2.528396000">
        <ele>775.20</ele>
        <time>2014-11-01T09:31:02Z</time>
      </trkpt>
      <trkpt lat="42.287226000" lon="-2.528391000">
        <ele>775.60</ele>
        <time>2014-11-01T09:31:03Z</time>
      </trkpt>
      <trkpt lat="42.287207000" lon="-2.528390000">
        <ele>775.90</ele>
        <time>2014-11-01T09:31:04Z</time>
      </trkpt>
      <trkpt lat="42.287190000" lon="-2.528389000">
        <ele>776.10</ele>
        <time>2014-11-01T09:31:05Z</time>
      </trkpt>
      <trkpt lat="42.287169000" lon="-2.528378000">
        <ele>776.30</ele>
        <time>2014-11-01T09:31:06Z</time>
      </trkpt>
      <trkpt lat="42.287151000" lon="-2.528380000">
        <ele>776.40</ele>
        <time>2014-11-01T09:31:07Z</time>
      </trkpt>
      <trkpt lat="42.287139000" lon="-2.528390000">
        <ele>776.70</ele>
        <time>2014-11-01T09:31:08Z</time>
      </trkpt>
      <trkpt lat="42.287124000" lon="-2.528396000">
        <ele>776.90</ele>
        <time>2014-11-01T09:31:09Z</time>
      </trkpt>
      <trkpt lat="42.287110000" lon="-2.528402000">
        <ele>777.20</ele>
        <time>2014-11-01T09:31:10Z</time>
      </trkpt>
      <trkpt lat="42.287095000" lon="-2.528413000">
        <ele>777.40</ele>
        <time>2014-11-01T09:31:11Z</time>
      </trkpt>
      <trkpt lat="42.287079000" lon="-2.528416000">
        <ele>777.60</ele>
        <time>2014-11-01T09:31:12Z</time>
      </trkpt>
      <trkpt lat="42.287060000" lon="-2.528416000">
        <ele>777.70</ele>
        <time>2014-11-01T09:31:13Z</time>
      </trkpt>
      <trkpt lat="42.287042000" lon="-2.528414000">
        <ele>778.20</ele>
        <time>2014-11-01T09:31:14Z</time>
      </trkpt>
      <trkpt lat="42.287025000" lon="-2.528414000">
        <ele>778.60</ele>
        <time>2014-11-01T09:31:15Z</time>
      </trkpt>
      <trkpt lat="42.287014000" lon="-2.528416000">
        <ele>779.00</ele>
        <time>2014-11-01T09:31:16Z</time>
      </trkpt>
      <trkpt lat="42.286997000" lon="-2.528416000">
        <ele>779.20</ele>
        <time>2014-11-01T09:31:17Z</time>
      </trkpt>
      <trkpt lat="42.286982000" lon="-2.528417000">
        <ele>779.80</ele>
        <time>2014-11-01T09:31:18Z</time>
      </trkpt>
      <trkpt lat="42.286965000" lon="-2.528418000">
        <ele>780.20</ele>
        <time>2014-11-01T09:31:19Z</time>
      </trkpt>
      <trkpt lat="42.286946000" lon="-2.528420000">
        <ele>780.50</ele>
        <time>2014-11-01T09:31:20Z</time>
      </trkpt>
      <trkpt lat="42.286927000" lon="-2.528420000">
        <ele>780.70</ele>
        <time>2014-11-01T09:31:21Z</time>
      </trkpt>
      <trkpt lat="42.286912000" lon="-2.528413000">
        <ele>780.90</ele>
        <time>2014-11-01T09:31:22Z</time>
      </trkpt>
      <trkpt lat="42.286896000" lon="-2.528419000">
        <ele>781.00</ele>
        <time>2014-11-01T09:31:23Z</time>
      </trkpt>
      <trkpt lat="42.286882000" lon="-2.528423000">
        <ele>781.30</ele>
        <time>2014-11-01T09:31:24Z</time>
      </trkpt>
      <trkpt lat="42.286869000" lon="-2.528420000">
        <ele>781.50</ele>
        <time>2014-11-01T09:31:25Z</time>
      </trkpt>
      <trkpt lat="42.286851000" lon="-2.528420000">
        <ele>781.70</ele>
        <time>2014-11-01T09:31:26Z</time>
      </trkpt>
      <trkpt lat="42.286834000" lon="-2.528411000">
        <ele>781.90</ele>
        <time>2014-11-01T09:31:27Z</time>
      </trkpt>
      <trkpt lat="42.286823000" lon="-2.528400000">
        <ele>782.10</ele>
        <time>2014-11-01T09:31:28Z</time>
      </trkpt>
      <trkpt lat="42.286810000" lon="-2.528387000">
        <ele>782.20</ele>
        <time>2014-11-01T09:31:29Z</time>
      </trkpt>
      <trkpt lat="42.286798000" lon="-2.528376000">
        <ele>782.30</ele>
        <time>2014-11-01T09:31:30Z</time>
      </trkpt>
      <trkpt lat="42.286786000" lon="-2.528363000">
        <ele>782.40</ele>
        <time>2014-11-01T09:31:31Z</time>
      </trkpt>
      <trkpt lat="42.286777000" lon="-2.528347000">
        <ele>782.70</ele>
        <time>2014-11-01T09:31:32Z</time>
      </trkpt>
      <trkpt lat="42.286763000" lon="-2.528324000">
        <ele>782.90</ele>
        <time>2014-11-01T09:31:33Z</time>
      </trkpt>
      <trkpt lat="42.286750000" lon="-2.528301000">
        <ele>783.00</ele>
        <time>2014-11-01T09:31:34Z</time>
      </trkpt>
      <trkpt lat="42.286736000" lon="-2.528276000">
        <ele>783.20</ele>
        <time>2014-11-01T09:31:35Z</time>
      </trkpt>
      <trkpt lat="42.286723000" lon="-2.528241000">
        <ele>783.10</ele>
        <time>2014-11-01T09:31:36Z</time>
      </trkpt>
      <trkpt lat="42.286706000" lon="-2.528211000">
        <ele>783.00</ele>
        <time>2014-11-01T09:31:37Z</time>
      </trkpt>
      <trkpt lat="42.286686000" lon="-2.528180000">
        <ele>783.00</ele>
        <time>2014-11-01T09:31:38Z</time>
      </trkpt>
      <trkpt lat="42.286671000" lon="-2.528147000">
        <ele>783.00</ele>
        <time>2014-11-01T09:31:39Z</time>
      </trkpt>
      <trkpt lat="42.286655000" lon="-2.528115000">
        <ele>783.00</ele>
        <time>2014-11-01T09:31:40Z</time>
      </trkpt>
      <trkpt lat="42.286639000" lon="-2.528087000">
        <ele>782.90</ele>
        <time>2014-11-01T09:31:41Z</time>
      </trkpt>
      <trkpt lat="42.286624000" lon="-2.528065000">
        <ele>782.90</ele>
        <time>2014-11-01T09:31:42Z</time>
      </trkpt>
      <trkpt lat="42.286611000" lon="-2.528041000">
        <ele>782.80</ele>
        <time>2014-11-01T09:31:43Z</time>
      </trkpt>
      <trkpt lat="42.286600000" lon="-2.528019000">
        <ele>782.80</ele>
        <time>2014-11-01T09:31:44Z</time>
      </trkpt>
      <trkpt lat="42.286587000" lon="-2.527997000">
        <ele>782.80</ele>
        <time>2014-11-01T09:31:45Z</time>
      </trkpt>
      <trkpt lat="42.286573000" lon="-2.527974000">
        <ele>782.90</ele>
        <time>2014-11-01T09:31:46Z</time>
      </trkpt>
      <trkpt lat="42.286555000" lon="-2.527952000">
        <ele>782.90</ele>
        <time>2014-11-01T09:31:47Z</time>
      </trkpt>
      <trkpt lat="42.286537000" lon="-2.527925000">
        <ele>783.10</ele>
        <time>2014-11-01T09:31:48Z</time>
      </trkpt>
      <trkpt lat="42.286522000" lon="-2.527900000">
        <ele>783.30</ele>
        <time>2014-11-01T09:31:49Z</time>
      </trkpt>
      <trkpt lat="42.286505000" lon="-2.527878000">
        <ele>783.50</ele>
        <time>2014-11-01T09:31:50Z</time>
      </trkpt>
      <trkpt lat="42.286491000" lon="-2.527859000">
        <ele>783.60</ele>
        <time>2014-11-01T09:31:51Z</time>
      </trkpt>
      <trkpt lat="42.286476000" lon="-2.527842000">
        <ele>783.70</ele>
        <time>2014-11-01T09:31:52Z</time>
      </trkpt>
      <trkpt lat="42.286458000" lon="-2.527824000">
        <ele>783.80</ele>
        <time>2014-11-01T09:31:53Z</time>
      </trkpt>
      <trkpt lat="42.286432000" lon="-2.527794000">
        <ele>784.00</ele>
        <time>2014-11-01T09:31:55Z</time>
      </trkpt>
      <trkpt lat="42.286417000" lon="-2.527778000">
        <ele>784.20</ele>
        <time>2014-11-01T09:31:56Z</time>
      </trkpt>
      <trkpt lat="42.286399000" lon="-2.527764000">
        <ele>784.40</ele>
        <time>2014-11-01T09:31:57Z</time>
      </trkpt>
      <trkpt lat="42.286383000" lon="-2.527749000">
        <ele>784.60</ele>
        <time>2014-11-01T09:31:58Z</time>
      </trkpt>
      <trkpt lat="42.286365000" lon="-2.527733000">
        <ele>784.70</ele>
        <time>2014-11-01T09:31:59Z</time>
      </trkpt>
      <trkpt lat="42.286349000" lon="-2.527719000">
        <ele>784.60</ele>
        <time>2014-11-01T09:32:00Z</time>
      </trkpt>
      <trkpt lat="42.286334000" lon="-2.527702000">
        <ele>784.60</ele>
        <time>2014-11-01T09:32:01Z</time>
      </trkpt>
      <trkpt lat="42.286319000" lon="-2.527683000">
        <ele>784.60</ele>
        <time>2014-11-01T09:32:02Z</time>
      </trkpt>
      <trkpt lat="42.286303000" lon="-2.527664000">
        <ele>784.60</ele>
        <time>2014-11-01T09:32:03Z</time>
      </trkpt>
      <trkpt lat="42.286283000" lon="-2.527649000">
        <ele>784.70</ele>
        <time>2014-11-01T09:32:04Z</time>
      </trkpt>
      <trkpt lat="42.286265000" lon="-2.527634000">
        <ele>784.80</ele>
        <time>2014-11-01T09:32:05Z</time>
      </trkpt>
      <trkpt lat="42.286251000" lon="-2.527617000">
        <ele>785.00</ele>
        <time>2014-11-01T09:32:06Z</time>
      </trkpt>
      <trkpt lat="42.286233000" lon="-2.527603000">
        <ele>785.10</ele>
        <time>2014-11-01T09:32:07Z</time>
      </trkpt>
      <trkpt lat="42.286217000" lon="-2.527588000">
        <ele>785.20</ele>
        <time>2014-11-01T09:32:08Z</time>
      </trkpt>
      <trkpt lat="42.286204000" lon="-2.527575000">
        <ele>785.30</ele>
        <time>2014-11-01T09:32:09Z</time>
      </trkpt>
      <trkpt lat="42.286186000" lon="-2.527558000">
        <ele>785.30</ele>
        <time>2014-11-01T09:32:10Z</time>
      </trkpt>
      <trkpt lat="42.286167000" lon="-2.527544000">
        <ele>785.40</ele>
        <time>2014-11-01T09:32:11Z</time>
      </trkpt>
      <trkpt lat="42.286151000" lon="-2.527529000">
        <ele>785.40</ele>
        <time>2014-11-01T09:32:12Z</time>
      </trkpt>
      <trkpt lat="42.286133000" lon="-2.527513000">
        <ele>785.40</ele>
        <time>2014-11-01T09:32:13Z</time>
      </trkpt>
      <trkpt lat="42.286116000" lon="-2.527495000">
        <ele>785.60</ele>
        <time>2014-11-01T09:32:14Z</time>
      </trkpt>
      <trkpt lat="42.286098000" lon="-2.527477000">
        <ele>785.70</ele>
        <time>2014-11-01T09:32:15Z</time>
      </trkpt>
      <trkpt lat="42.286080000" lon="-2.527458000">
        <ele>785.80</ele>
        <time>2014-11-01T09:32:16Z</time>
      </trkpt>
      <trkpt lat="42.286063000" lon="-2.527444000">
        <ele>785.90</ele>
        <time>2014-11-01T09:32:17Z</time>
      </trkpt>
      <trkpt lat="42.286047000" lon="-2.527427000">
        <ele>786.10</ele>
        <time>2014-11-01T09:32:18Z</time>
      </trkpt>
      <trkpt lat="42.286031000" lon="-2.527406000">
        <ele>786.20</ele>
        <time>2014-11-01T09:32:19Z</time>
      </trkpt>
      <trkpt lat="42.286015000" lon="-2.527387000">
        <ele>786.30</ele>
        <time>2014-11-01T09:32:20Z</time>
      </trkpt>
      <trkpt lat="42.285996000" lon="-2.527370000">
        <ele>786.50</ele>
        <time>2014-11-01T09:32:21Z</time>
      </trkpt>
      <trkpt lat="42.285976000" lon="-2.527353000">
        <ele>786.60</ele>
        <time>2014-11-01T09:32:22Z</time>
      </trkpt>
      <trkpt lat="42.285957000" lon="-2.527339000">
        <ele>786.70</ele>
        <time>2014-11-01T09:32:23Z</time>
      </trkpt>
      <trkpt lat="42.285939000" lon="-2.527326000">
        <ele>786.90</ele>
        <time>2014-11-01T09:32:24Z</time>
      </trkpt>
      <trkpt lat="42.285918000" lon="-2.527308000">
        <ele>787.00</ele>
        <time>2014-11-01T09:32:25Z</time>
      </trkpt>
      <trkpt lat="42.285900000" lon="-2.527286000">
        <ele>787.00</ele>
        <time>2014-11-01T09:32:26Z</time>
      </trkpt>
      <trkpt lat="42.285877000" lon="-2.527266000">
        <ele>787.10</ele>
        <time>2014-11-01T09:32:27Z</time>
      </trkpt>
      <trkpt lat="42.285857000" lon="-2.527249000">
        <ele>787.10</ele>
        <time>2014-11-01T09:32:28Z</time>
      </trkpt>
      <trkpt lat="42.285840000" lon="-2.527234000">
        <ele>787.10</ele>
        <time>2014-11-01T09:32:29Z</time>
      </trkpt>
      <trkpt lat="42.285824000" lon="-2.527217000">
        <ele>787.10</ele>
        <time>2014-11-01T09:32:30Z</time>
      </trkpt>
      <trkpt lat="42.285803000" lon="-2.527199000">
        <ele>787.10</ele>
        <time>2014-11-01T09:32:31Z</time>
      </trkpt>
      <trkpt lat="42.285783000" lon="-2.527187000">
        <ele>787.00</ele>
        <time>2014-11-01T09:32:32Z</time>
      </trkpt>
      <trkpt lat="42.285763000" lon="-2.527174000">
        <ele>787.00</ele>
        <time>2014-11-01T09:32:33Z</time>
      </trkpt>
      <trkpt lat="42.285745000" lon="-2.527159000">
        <ele>787.00</ele>
        <time>2014-11-01T09:32:34Z</time>
      </trkpt>
      <trkpt lat="42.285724000" lon="-2.527142000">
        <ele>787.00</ele>
        <time>2014-11-01T09:32:35Z</time>
      </trkpt>
      <trkpt lat="42.285705000" lon="-2.527128000">
        <ele>787.00</ele>
        <time>2014-11-01T09:32:36Z</time>
      </trkpt>
      <trkpt lat="42.285683000" lon="-2.527111000">
        <ele>787.00</ele>
        <time>2014-11-01T09:32:37Z</time>
      </trkpt>
      <trkpt lat="42.285664000" lon="-2.527091000">
        <ele>787.30</ele>
        <time>2014-11-01T09:32:38Z</time>
      </trkpt>
      <trkpt lat="42.285644000" lon="-2.527077000">
        <ele>787.60</ele>
        <time>2014-11-01T09:32:39Z</time>
      </trkpt>
      <trkpt lat="42.285629000" lon="-2.527059000">
        <ele>787.80</ele>
        <time>2014-11-01T09:32:40Z</time>
      </trkpt>
      <trkpt lat="42.285613000" lon="-2.527048000">
        <ele>787.90</ele>
        <time>2014-11-01T09:32:41Z</time>
      </trkpt>
      <trkpt lat="42.285592000" lon="-2.527035000">
        <ele>788.00</ele>
        <time>2014-11-01T09:32:42Z</time>
      </trkpt>
      <trkpt lat="42.285572000" lon="-2.527024000">
        <ele>788.10</ele>
        <time>2014-11-01T09:32:43Z</time>
      </trkpt>
      <trkpt lat="42.285553000" lon="-2.527008000">
        <ele>788.10</ele>
        <time>2014-11-01T09:32:44Z</time>
      </trkpt>
      <trkpt lat="42.285532000" lon="-2.526999000">
        <ele>788.20</ele>
        <time>2014-11-01T09:32:45Z</time>
      </trkpt>
      <trkpt lat="42.285509000" lon="-2.526988000">
        <ele>788.40</ele>
        <time>2014-11-01T09:32:46Z</time>
      </trkpt>
      <trkpt lat="42.285489000" lon="-2.526976000">
        <ele>788.60</ele>
        <time>2014-11-01T09:32:47Z</time>
      </trkpt>
      <trkpt lat="42.285470000" lon="-2.526967000">
        <ele>788.70</ele>
        <time>2014-11-01T09:32:48Z</time>
      </trkpt>
      <trkpt lat="42.285450000" lon="-2.526957000">
        <ele>788.80</ele>
        <time>2014-11-01T09:32:49Z</time>
      </trkpt>
      <trkpt lat="42.285432000" lon="-2.526944000">
        <ele>789.00</ele>
        <time>2014-11-01T09:32:50Z</time>
      </trkpt>
      <trkpt lat="42.285416000" lon="-2.526935000">
        <ele>789.10</ele>
        <time>2014-11-01T09:32:51Z</time>
      </trkpt>
      <trkpt lat="42.285399000" lon="-2.526920000">
        <ele>789.10</ele>
        <time>2014-11-01T09:32:52Z</time>
      </trkpt>
      <trkpt lat="42.285380000" lon="-2.526907000">
        <ele>789.20</ele>
        <time>2014-11-01T09:32:53Z</time>
      </trkpt>
      <trkpt lat="42.285360000" lon="-2.526891000">
        <ele>789.30</ele>
        <time>2014-11-01T09:32:54Z</time>
      </trkpt>
      <trkpt lat="42.285320000" lon="-2.526872000">
        <ele>789.50</ele>
        <time>2014-11-01T09:32:56Z</time>
      </trkpt>
      <trkpt lat="42.285298000" lon="-2.526861000">
        <ele>789.50</ele>
        <time>2014-11-01T09:32:57Z</time>
      </trkpt>
      <trkpt lat="42.285279000" lon="-2.526853000">
        <ele>789.50</ele>
        <time>2014-11-01T09:32:58Z</time>
      </trkpt>
      <trkpt lat="42.285258000" lon="-2.526845000">
        <ele>789.40</ele>
        <time>2014-11-01T09:32:59Z</time>
      </trkpt>
      <trkpt lat="42.285239000" lon="-2.526830000">
        <ele>789.40</ele>
        <time>2014-11-01T09:33:00Z</time>
      </trkpt>
      <trkpt lat="42.285217000" lon="-2.526820000">
        <ele>789.40</ele>
        <time>2014-11-01T09:33:01Z</time>
      </trkpt>
      <trkpt lat="42.285196000" lon="-2.526810000">
        <ele>789.40</ele>
        <time>2014-11-01T09:33:02Z</time>
      </trkpt>
      <trkpt lat="42.285175000" lon="-2.526800000">
        <ele>789.50</ele>
        <time>2014-11-01T09:33:03Z</time>
      </trkpt>
      <trkpt lat="42.285151000" lon="-2.526790000">
        <ele>789.50</ele>
        <time>2014-11-01T09:33:04Z</time>
      </trkpt>
      <trkpt lat="42.285126000" lon="-2.526781000">
        <ele>789.60</ele>
        <time>2014-11-01T09:33:05Z</time>
      </trkpt>
      <trkpt lat="42.285102000" lon="-2.526773000">
        <ele>789.70</ele>
        <time>2014-11-01T09:33:06Z</time>
      </trkpt>
      <trkpt lat="42.285078000" lon="-2.526765000">
        <ele>789.80</ele>
        <time>2014-11-01T09:33:07Z</time>
      </trkpt>
      <trkpt lat="42.285055000" lon="-2.526756000">
        <ele>789.70</ele>
        <time>2014-11-01T09:33:08Z</time>
      </trkpt>
      <trkpt lat="42.285032000" lon="-2.526748000">
        <ele>789.70</ele>
        <time>2014-11-01T09:33:09Z</time>
      </trkpt>
      <trkpt lat="42.285010000" lon="-2.526739000">
        <ele>789.70</ele>
        <time>2014-11-01T09:33:10Z</time>
      </trkpt>
      <trkpt lat="42.284989000" lon="-2.526732000">
        <ele>789.70</ele>
        <time>2014-11-01T09:33:11Z</time>
      </trkpt>
      <trkpt lat="42.284966000" lon="-2.526727000">
        <ele>789.80</ele>
        <time>2014-11-01T09:33:12Z</time>
      </trkpt>
      <trkpt lat="42.284944000" lon="-2.526720000">
        <ele>789.80</ele>
        <time>2014-11-01T09:33:13Z</time>
      </trkpt>
      <trkpt lat="42.284923000" lon="-2.526712000">
        <ele>790.00</ele>
        <time>2014-11-01T09:33:14Z</time>
      </trkpt>
      <trkpt lat="42.284902000" lon="-2.526704000">
        <ele>790.20</ele>
        <time>2014-11-01T09:33:15Z</time>
      </trkpt>
      <trkpt lat="42.284880000" lon="-2.526699000">
        <ele>790.30</ele>
        <time>2014-11-01T09:33:16Z</time>
      </trkpt>
      <trkpt lat="42.284860000" lon="-2.526697000">
        <ele>790.40</ele>
        <time>2014-11-01T09:33:17Z</time>
      </trkpt>
      <trkpt lat="42.284838000" lon="-2.526692000">
        <ele>790.40</ele>
        <time>2014-11-01T09:33:18Z</time>
      </trkpt>
      <trkpt lat="42.284816000" lon="-2.526686000">
        <ele>790.50</ele>
        <time>2014-11-01T09:33:19Z</time>
      </trkpt>
      <trkpt lat="42.284795000" lon="-2.526683000">
        <ele>790.50</ele>
        <time>2014-11-01T09:33:20Z</time>
      </trkpt>
      <trkpt lat="42.284773000" lon="-2.526680000">
        <ele>790.50</ele>
        <time>2014-11-01T09:33:21Z</time>
      </trkpt>
      <trkpt lat="42.284751000" lon="-2.526674000">
        <ele>790.90</ele>
        <time>2014-11-01T09:33:22Z</time>
      </trkpt>
      <trkpt lat="42.284727000" lon="-2.526672000">
        <ele>791.10</ele>
        <time>2014-11-01T09:33:23Z</time>
      </trkpt>
      <trkpt lat="42.284704000" lon="-2.526666000">
        <ele>791.30</ele>
        <time>2014-11-01T09:33:24Z</time>
      </trkpt>
      <trkpt lat="42.284683000" lon="-2.526659000">
        <ele>791.40</ele>
        <time>2014-11-01T09:33:25Z</time>
      </trkpt>
      <trkpt lat="42.284663000" lon="-2.526652000">
        <ele>791.60</ele>
        <time>2014-11-01T09:33:26Z</time>
      </trkpt>
      <trkpt lat="42.284642000" lon="-2.526643000">
        <ele>791.60</ele>
        <time>2014-11-01T09:33:27Z</time>
      </trkpt>
      <trkpt lat="42.284623000" lon="-2.526634000">
        <ele>791.80</ele>
        <time>2014-11-01T09:33:28Z</time>
      </trkpt>
      <trkpt lat="42.284603000" lon="-2.526627000">
        <ele>791.90</ele>
        <time>2014-11-01T09:33:29Z</time>
      </trkpt>
      <trkpt lat="42.284583000" lon="-2.526620000">
        <ele>791.90</ele>
        <time>2014-11-01T09:33:30Z</time>
      </trkpt>
      <trkpt lat="42.284563000" lon="-2.526612000">
        <ele>792.00</ele>
        <time>2014-11-01T09:33:31Z</time>
      </trkpt>
      <trkpt lat="42.284542000" lon="-2.526603000">
        <ele>792.20</ele>
        <time>2014-11-01T09:33:32Z</time>
      </trkpt>
      <trkpt lat="42.284522000" lon="-2.526588000">
        <ele>792.40</ele>
        <time>2014-11-01T09:33:33Z</time>
      </trkpt>
      <trkpt lat="42.284503000" lon="-2.526581000">
        <ele>792.50</ele>
        <time>2014-11-01T09:33:34Z</time>
      </trkpt>
      <trkpt lat="42.284483000" lon="-2.526573000">
        <ele>792.60</ele>
        <time>2014-11-01T09:33:35Z</time>
      </trkpt>
      <trkpt lat="42.284464000" lon="-2.526563000">
        <ele>792.60</ele>
        <time>2014-11-01T09:33:36Z</time>
      </trkpt>
      <trkpt lat="42.284445000" lon="-2.526552000">
        <ele>792.70</ele>
        <time>2014-11-01T09:33:37Z</time>
      </trkpt>
      <trkpt lat="42.284425000" lon="-2.526537000">
        <ele>792.70</ele>
        <time>2014-11-01T09:33:38Z</time>
      </trkpt>
      <trkpt lat="42.284408000" lon="-2.526527000">
        <ele>792.80</ele>
        <time>2014-11-01T09:33:39Z</time>
      </trkpt>
      <trkpt lat="42.284388000" lon="-2.526517000">
        <ele>793.00</ele>
        <time>2014-11-01T09:33:40Z</time>
      </trkpt>
      <trkpt lat="42.284367000" lon="-2.526509000">
        <ele>793.20</ele>
        <time>2014-11-01T09:33:41Z</time>
      </trkpt>
      <trkpt lat="42.284346000" lon="-2.526500000">
        <ele>793.40</ele>
        <time>2014-11-01T09:33:42Z</time>
      </trkpt>
      <trkpt lat="42.284326000" lon="-2.526491000">
        <ele>793.50</ele>
        <time>2014-11-01T09:33:43Z</time>
      </trkpt>
      <trkpt lat="42.284303000" lon="-2.526481000">
        <ele>793.60</ele>
        <time>2014-11-01T09:33:44Z</time>
      </trkpt>
      <trkpt lat="42.284278000" lon="-2.526467000">
        <ele>793.60</ele>
        <time>2014-11-01T09:33:45Z</time>
      </trkpt>
      <trkpt lat="42.284252000" lon="-2.526458000">
        <ele>793.80</ele>
        <time>2014-11-01T09:33:46Z</time>
      </trkpt>
      <trkpt lat="42.284227000" lon="-2.526452000">
        <ele>793.80</ele>
        <time>2014-11-01T09:33:47Z</time>
      </trkpt>
      <trkpt lat="42.284203000" lon="-2.526447000">
        <ele>793.90</ele>
        <time>2014-11-01T09:33:48Z</time>
      </trkpt>
      <trkpt lat="42.284178000" lon="-2.526441000">
        <ele>794.00</ele>
        <time>2014-11-01T09:33:49Z</time>
      </trkpt>
      <trkpt lat="42.284154000" lon="-2.526445000">
        <ele>794.00</ele>
        <time>2014-11-01T09:33:50Z</time>
      </trkpt>
      <trkpt lat="42.284133000" lon="-2.526446000">
        <ele>794.00</ele>
        <time>2014-11-01T09:33:51Z</time>
      </trkpt>
      <trkpt lat="42.284111000" lon="-2.526447000">
        <ele>794.00</ele>
        <time>2014-11-01T09:33:52Z</time>
      </trkpt>
      <trkpt lat="42.284088000" lon="-2.526449000">
        <ele>793.90</ele>
        <time>2014-11-01T09:33:53Z</time>
      </trkpt>
      <trkpt lat="42.284066000" lon="-2.526450000">
        <ele>793.90</ele>
        <time>2014-11-01T09:33:54Z</time>
      </trkpt>
      <trkpt lat="42.284044000" lon="-2.526452000">
        <ele>793.90</ele>
        <time>2014-11-01T09:33:55Z</time>
      </trkpt>
      <trkpt lat="42.283998000" lon="-2.526461000">
        <ele>794.00</ele>
        <time>2014-11-01T09:33:57Z</time>
      </trkpt>
      <trkpt lat="42.283974000" lon="-2.526464000">
        <ele>794.00</ele>
        <time>2014-11-01T09:33:58Z</time>
      </trkpt>
      <trkpt lat="42.283948000" lon="-2.526475000">
        <ele>794.00</ele>
        <time>2014-11-01T09:33:59Z</time>
      </trkpt>
      <trkpt lat="42.283920000" lon="-2.526485000">
        <ele>794.00</ele>
        <time>2014-11-01T09:34:00Z</time>
      </trkpt>
      <trkpt lat="42.283893000" lon="-2.526496000">
        <ele>794.10</ele>
        <time>2014-11-01T09:34:01Z</time>
      </trkpt>
      <trkpt lat="42.283864000" lon="-2.526513000">
        <ele>794.00</ele>
        <time>2014-11-01T09:34:02Z</time>
      </trkpt>
      <trkpt lat="42.283832000" lon="-2.526531000">
        <ele>794.00</ele>
        <time>2014-11-01T09:34:03Z</time>
      </trkpt>
      <trkpt lat="42.283800000" lon="-2.526551000">
        <ele>793.90</ele>
        <time>2014-11-01T09:34:04Z</time>
      </trkpt>
      <trkpt lat="42.283762000" lon="-2.526565000">
        <ele>793.90</ele>
        <time>2014-11-01T09:34:05Z</time>
      </trkpt>
      <trkpt lat="42.283723000" lon="-2.526575000">
        <ele>793.70</ele>
        <time>2014-11-01T09:34:06Z</time>
      </trkpt>
      <trkpt lat="42.283684000" lon="-2.526579000">
        <ele>793.60</ele>
        <time>2014-11-01T09:34:07Z</time>
      </trkpt>
      <trkpt lat="42.283647000" lon="-2.526578000">
        <ele>793.60</ele>
        <time>2014-11-01T09:34:08Z</time>
      </trkpt>
      <trkpt lat="42.283614000" lon="-2.526575000">
        <ele>793.60</ele>
        <time>2014-11-01T09:34:09Z</time>
      </trkpt>
      <trkpt lat="42.283583000" lon="-2.526575000">
        <ele>793.40</ele>
        <time>2014-11-01T09:34:10Z</time>
      </trkpt>
      <trkpt lat="42.283554000" lon="-2.526574000">
        <ele>793.20</ele>
        <time>2014-11-01T09:34:11Z</time>
      </trkpt>
      <trkpt lat="42.283525000" lon="-2.526576000">
        <ele>793.30</ele>
        <time>2014-11-01T09:34:12Z</time>
      </trkpt>
      <trkpt lat="42.283495000" lon="-2.526576000">
        <ele>793.30</ele>
        <time>2014-11-01T09:34:13Z</time>
      </trkpt>
      <trkpt lat="42.283465000" lon="-2.526574000">
        <ele>793.40</ele>
        <time>2014-11-01T09:34:14Z</time>
      </trkpt>
      <trkpt lat="42.283437000" lon="-2.526569000">
        <ele>793.50</ele>
        <time>2014-11-01T09:34:15Z</time>
      </trkpt>
      <trkpt lat="42.283409000" lon="-2.526566000">
        <ele>793.60</ele>
        <time>2014-11-01T09:34:16Z</time>
      </trkpt>
      <trkpt lat="42.283382000" lon="-2.526558000">
        <ele>793.60</ele>
        <time>2014-11-01T09:34:17Z</time>
      </trkpt>
      <trkpt lat="42.283356000" lon="-2.526553000">
        <ele>793.50</ele>
        <time>2014-11-01T09:34:18Z</time>
      </trkpt>
      <trkpt lat="42.283330000" lon="-2.526542000">
        <ele>793.40</ele>
        <time>2014-11-01T09:34:19Z</time>
      </trkpt>
      <trkpt lat="42.283306000" lon="-2.526527000">
        <ele>793.40</ele>
        <time>2014-11-01T09:34:20Z</time>
      </trkpt>
      <trkpt lat="42.283282000" lon="-2.526520000">
        <ele>793.30</ele>
        <time>2014-11-01T09:34:21Z</time>
      </trkpt>
      <trkpt lat="42.283259000" lon="-2.526510000">
        <ele>793.30</ele>
        <time>2014-11-01T09:34:22Z</time>
      </trkpt>
      <trkpt lat="42.283237000" lon="-2.526505000">
        <ele>793.30</ele>
        <time>2014-11-01T09:34:23Z</time>
      </trkpt>
      <trkpt lat="42.283216000" lon="-2.526497000">
        <ele>793.40</ele>
        <time>2014-11-01T09:34:24Z</time>
      </trkpt>
      <trkpt lat="42.283196000" lon="-2.526493000">
        <ele>793.50</ele>
        <time>2014-11-01T09:34:25Z</time>
      </trkpt>
      <trkpt lat="42.283174000" lon="-2.526490000">
        <ele>793.70</ele>
        <time>2014-11-01T09:34:26Z</time>
      </trkpt>
      <trkpt lat="42.283153000" lon="-2.526485000">
        <ele>793.90</ele>
        <time>2014-11-01T09:34:27Z</time>
      </trkpt>
      <trkpt lat="42.283134000" lon="-2.526481000">
        <ele>794.20</ele>
        <time>2014-11-01T09:34:28Z</time>
      </trkpt>
      <trkpt lat="42.283116000" lon="-2.526483000">
        <ele>794.30</ele>
        <time>2014-11-01T09:34:29Z</time>
      </trkpt>
      <trkpt lat="42.283098000" lon="-2.526481000">
        <ele>794.50</ele>
        <time>2014-11-01T09:34:30Z</time>
      </trkpt>
      <trkpt lat="42.283079000" lon="-2.526478000">
        <ele>794.60</ele>
        <time>2014-11-01T09:34:31Z</time>
      </trkpt>
      <trkpt lat="42.283061000" lon="-2.526478000">
        <ele>795.00</ele>
        <time>2014-11-01T09:34:32Z</time>
      </trkpt>
      <trkpt lat="42.283044000" lon="-2.526479000">
        <ele>795.20</ele>
        <time>2014-11-01T09:34:33Z</time>
      </trkpt>
      <trkpt lat="42.283026000" lon="-2.526479000">
        <ele>795.40</ele>
        <time>2014-11-01T09:34:34Z</time>
      </trkpt>
      <trkpt lat="42.283009000" lon="-2.526476000">
        <ele>795.60</ele>
        <time>2014-11-01T09:34:35Z</time>
      </trkpt>
      <trkpt lat="42.282992000" lon="-2.526477000">
        <ele>795.70</ele>
        <time>2014-11-01T09:34:36Z</time>
      </trkpt>
      <trkpt lat="42.282975000" lon="-2.526474000">
        <ele>795.80</ele>
        <time>2014-11-01T09:34:37Z</time>
      </trkpt>
      <trkpt lat="42.282958000" lon="-2.526470000">
        <ele>796.00</ele>
        <time>2014-11-01T09:34:38Z</time>
      </trkpt>
      <trkpt lat="42.282941000" lon="-2.526466000">
        <ele>796.20</ele>
        <time>2014-11-01T09:34:39Z</time>
      </trkpt>
      <trkpt lat="42.282925000" lon="-2.526464000">
        <ele>796.50</ele>
        <time>2014-11-01T09:34:40Z</time>
      </trkpt>
      <trkpt lat="42.282910000" lon="-2.526464000">
        <ele>796.70</ele>
        <time>2014-11-01T09:34:41Z</time>
      </trkpt>
      <trkpt lat="42.282894000" lon="-2.526463000">
        <ele>797.00</ele>
        <time>2014-11-01T09:34:42Z</time>
      </trkpt>
      <trkpt lat="42.282877000" lon="-2.526460000">
        <ele>797.20</ele>
        <time>2014-11-01T09:34:43Z</time>
      </trkpt>
      <trkpt lat="42.282860000" lon="-2.526456000">
        <ele>797.40</ele>
        <time>2014-11-01T09:34:44Z</time>
      </trkpt>
      <trkpt lat="42.282842000" lon="-2.526458000">
        <ele>797.50</ele>
        <time>2014-11-01T09:34:45Z</time>
      </trkpt>
      <trkpt lat="42.282826000" lon="-2.526457000">
        <ele>798.00</ele>
        <time>2014-11-01T09:34:46Z</time>
      </trkpt>
      <trkpt lat="42.282807000" lon="-2.526454000">
        <ele>798.30</ele>
        <time>2014-11-01T09:34:47Z</time>
      </trkpt>
      <trkpt lat="42.282789000" lon="-2.526451000">
        <ele>798.70</ele>
        <time>2014-11-01T09:34:48Z</time>
      </trkpt>
      <trkpt lat="42.282771000" lon="-2.526447000">
        <ele>799.10</ele>
        <time>2014-11-01T09:34:49Z</time>
      </trkpt>
      <trkpt lat="42.282759000" lon="-2.526445000">
        <ele>799.30</ele>
        <time>2014-11-01T09:34:50Z</time>
      </trkpt>
      <trkpt lat="42.282745000" lon="-2.526444000">
        <ele>799.50</ele>
        <time>2014-11-01T09:34:51Z</time>
      </trkpt>
      <trkpt lat="42.282732000" lon="-2.526448000">
        <ele>799.80</ele>
        <time>2014-11-01T09:34:52Z</time>
      </trkpt>
      <trkpt lat="42.282714000" lon="-2.526451000">
        <ele>800.10</ele>
        <time>2014-11-01T09:34:53Z</time>
      </trkpt>
      <trkpt lat="42.282700000" lon="-2.526460000">
        <ele>800.60</ele>
        <time>2014-11-01T09:34:54Z</time>
      </trkpt>
      <trkpt lat="42.282686000" lon="-2.526462000">
        <ele>801.00</ele>
        <time>2014-11-01T09:34:55Z</time>
      </trkpt>
      <trkpt lat="42.282676000" lon="-2.526469000">
        <ele>801.30</ele>
        <time>2014-11-01T09:34:56Z</time>
      </trkpt>
      <trkpt lat="42.282647000" lon="-2.526484000">
        <ele>801.60</ele>
        <time>2014-11-01T09:34:58Z</time>
      </trkpt>
      <trkpt lat="42.282631000" lon="-2.526488000">
        <ele>801.70</ele>
        <time>2014-11-01T09:34:59Z</time>
      </trkpt>
      <trkpt lat="42.282617000" lon="-2.526499000">
        <ele>802.00</ele>
        <time>2014-11-01T09:35:00Z</time>
      </trkpt>
      <trkpt lat="42.282602000" lon="-2.526504000">
        <ele>802.30</ele>
        <time>2014-11-01T09:35:01Z</time>
      </trkpt>
      <trkpt lat="42.282588000" lon="-2.526511000">
        <ele>802.60</ele>
        <time>2014-11-01T09:35:02Z</time>
      </trkpt>
      <trkpt lat="42.282573000" lon="-2.526515000">
        <ele>802.80</ele>
        <time>2014-11-01T09:35:03Z</time>
      </trkpt>
      <trkpt lat="42.282558000" lon="-2.526514000">
        <ele>803.00</ele>
        <time>2014-11-01T09:35:04Z</time>
      </trkpt>
      <trkpt lat="42.282541000" lon="-2.526514000">
        <ele>803.20</ele>
        <time>2014-11-01T09:35:05Z</time>
      </trkpt>
      <trkpt lat="42.282525000" lon="-2.526517000">
        <ele>803.40</ele>
        <time>2014-11-01T09:35:06Z</time>
      </trkpt>
      <trkpt lat="42.282511000" lon="-2.526517000">
        <ele>803.50</ele>
        <time>2014-11-01T09:35:07Z</time>
      </trkpt>
      <trkpt lat="42.282495000" lon="-2.526516000">
        <ele>803.70</ele>
        <time>2014-11-01T09:35:08Z</time>
      </trkpt>
      <trkpt lat="42.282480000" lon="-2.526513000">
        <ele>803.80</ele>
        <time>2014-11-01T09:35:09Z</time>
      </trkpt>
      <trkpt lat="42.282464000" lon="-2.526509000">
        <ele>804.00</ele>
        <time>2014-11-01T09:35:10Z</time>
      </trkpt>
      <trkpt lat="42.282448000" lon="-2.526502000">
        <ele>804.10</ele>
        <time>2014-11-01T09:35:11Z</time>
      </trkpt>
      <trkpt lat="42.282431000" lon="-2.526497000">
        <ele>804.20</ele>
        <time>2014-11-01T09:35:12Z</time>
      </trkpt>
      <trkpt lat="42.282416000" lon="-2.526493000">
        <ele>804.20</ele>
        <time>2014-11-01T09:35:13Z</time>
      </trkpt>
      <trkpt lat="42.282398000" lon="-2.526486000">
        <ele>804.30</ele>
        <time>2014-11-01T09:35:14Z</time>
      </trkpt>
      <trkpt lat="42.282384000" lon="-2.526479000">
        <ele>804.40</ele>
        <time>2014-11-01T09:35:15Z</time>
      </trkpt>
      <trkpt lat="42.282368000" lon="-2.526473000">
        <ele>804.70</ele>
        <time>2014-11-01T09:35:16Z</time>
      </trkpt>
      <trkpt lat="42.282353000" lon="-2.526465000">
        <ele>804.90</ele>
        <time>2014-11-01T09:35:17Z</time>
      </trkpt>
      <trkpt lat="42.282338000" lon="-2.526453000">
        <ele>805.10</ele>
        <time>2014-11-01T09:35:18Z</time>
      </trkpt>
      <trkpt lat="42.282324000" lon="-2.526445000">
        <ele>805.20</ele>
        <time>2014-11-01T09:35:19Z</time>
      </trkpt>
      <trkpt lat="42.282310000" lon="-2.526439000">
        <ele>805.40</ele>
        <time>2014-11-01T09:35:20Z</time>
      </trkpt>
      <trkpt lat="42.282298000" lon="-2.526431000">
        <ele>805.60</ele>
        <time>2014-11-01T09:35:21Z</time>
      </trkpt>
      <trkpt lat="42.282285000" lon="-2.526421000">
        <ele>805.70</ele>
        <time>2014-11-01T09:35:22Z</time>
      </trkpt>
      <trkpt lat="42.282272000" lon="-2.526413000">
        <ele>805.80</ele>
        <time>2014-11-01T09:35:23Z</time>
      </trkpt>
      <trkpt lat="42.282259000" lon="-2.526405000">
        <ele>805.80</ele>
        <time>2014-11-01T09:35:24Z</time>
      </trkpt>
      <trkpt lat="42.282245000" lon="-2.526398000">
        <ele>805.90</ele>
        <time>2014-11-01T09:35:25Z</time>
      </trkpt>
      <trkpt lat="42.282230000" lon="-2.526391000">
        <ele>806.20</ele>
        <time>2014-11-01T09:35:26Z</time>
      </trkpt>
      <trkpt lat="42.282214000" lon="-2.526382000">
        <ele>806.40</ele>
        <time>2014-11-01T09:35:27Z</time>
      </trkpt>
      <trkpt lat="42.282200000" lon="-2.526369000">
        <ele>806.70</ele>
        <time>2014-11-01T09:35:28Z</time>
      </trkpt>
      <trkpt lat="42.282186000" lon="-2.526358000">
        <ele>806.90</ele>
        <time>2014-11-01T09:35:29Z</time>
      </trkpt>
      <trkpt lat="42.282174000" lon="-2.526347000">
        <ele>807.40</ele>
        <time>2014-11-01T09:35:30Z</time>
      </trkpt>
      <trkpt lat="42.282161000" lon="-2.526339000">
        <ele>807.90</ele>
        <time>2014-11-01T09:35:31Z</time>
      </trkpt>
      <trkpt lat="42.282151000" lon="-2.526328000">
        <ele>808.20</ele>
        <time>2014-11-01T09:35:32Z</time>
      </trkpt>
      <trkpt lat="42.282141000" lon="-2.526321000">
        <ele>808.40</ele>
        <time>2014-11-01T09:35:33Z</time>
      </trkpt>
      <trkpt lat="42.282130000" lon="-2.526317000">
        <ele>808.70</ele>
        <time>2014-11-01T09:35:34Z</time>
      </trkpt>
      <trkpt lat="42.282117000" lon="-2.526311000">
        <ele>808.90</ele>
        <time>2014-11-01T09:35:35Z</time>
      </trkpt>
      <trkpt lat="42.282104000" lon="-2.526304000">
        <ele>808.90</ele>
        <time>2014-11-01T09:35:36Z</time>
      </trkpt>
      <trkpt lat="42.282090000" lon="-2.526297000">
        <ele>809.00</ele>
        <time>2014-11-01T09:35:37Z</time>
      </trkpt>
      <trkpt lat="42.282076000" lon="-2.526290000">
        <ele>809.10</ele>
        <time>2014-11-01T09:35:38Z</time>
      </trkpt>
      <trkpt lat="42.282061000" lon="-2.526284000">
        <ele>809.20</ele>
        <time>2014-11-01T09:35:39Z</time>
      </trkpt>
      <trkpt lat="42.282047000" lon="-2.526278000">
        <ele>809.50</ele>
        <time>2014-11-01T09:35:40Z</time>
      </trkpt>
      <trkpt lat="42.282033000" lon="-2.526271000">
        <ele>809.70</ele>
        <time>2014-11-01T09:35:41Z</time>
      </trkpt>
      <trkpt lat="42.282016000" lon="-2.526263000">
        <ele>809.90</ele>
        <time>2014-11-01T09:35:42Z</time>
      </trkpt>
      <trkpt lat="42.282002000" lon="-2.526256000">
        <ele>810.10</ele>
        <time>2014-11-01T09:35:43Z</time>
      </trkpt>
      <trkpt lat="42.281989000" lon="-2.526247000">
        <ele>810.30</ele>
        <time>2014-11-01T09:35:44Z</time>
      </trkpt>
      <trkpt lat="42.281977000" lon="-2.526242000">
        <ele>810.50</ele>
        <time>2014-11-01T09:35:45Z</time>
      </trkpt>
      <trkpt lat="42.281965000" lon="-2.526235000">
        <ele>811.00</ele>
        <time>2014-11-01T09:35:46Z</time>
      </trkpt>
      <trkpt lat="42.281954000" lon="-2.526227000">
        <ele>811.40</ele>
        <time>2014-11-01T09:35:47Z</time>
      </trkpt>
      <trkpt lat="42.281941000" lon="-2.526220000">
        <ele>811.80</ele>
        <time>2014-11-01T09:35:48Z</time>
      </trkpt>
      <trkpt lat="42.281927000" lon="-2.526216000">
        <ele>812.10</ele>
        <time>2014-11-01T09:35:49Z</time>
      </trkpt>
      <trkpt lat="42.281911000" lon="-2.526216000">
        <ele>812.60</ele>
        <time>2014-11-01T09:35:50Z</time>
      </trkpt>
      <trkpt lat="42.281897000" lon="-2.526220000">
        <ele>813.00</ele>
        <time>2014-11-01T09:35:51Z</time>
      </trkpt>
      <trkpt lat="42.281884000" lon="-2.526218000">
        <ele>813.50</ele>
        <time>2014-11-01T09:35:52Z</time>
      </trkpt>
      <trkpt lat="42.281872000" lon="-2.526209000">
        <ele>813.80</ele>
        <time>2014-11-01T09:35:53Z</time>
      </trkpt>
      <trkpt lat="42.281862000" lon="-2.526197000">
        <ele>814.10</ele>
        <time>2014-11-01T09:35:54Z</time>
      </trkpt>
      <trkpt lat="42.281852000" lon="-2.526183000">
        <ele>814.30</ele>
        <time>2014-11-01T09:35:55Z</time>
      </trkpt>
      <trkpt lat="42.281842000" lon="-2.526167000">
        <ele>814.90</ele>
        <time>2014-11-01T09:35:56Z</time>
      </trkpt>
      <trkpt lat="42.281831000" lon="-2.526155000">
        <ele>815.30</ele>
        <time>2014-11-01T09:35:57Z</time>
      </trkpt>
      <trkpt lat="42.281808000" lon="-2.526130000">
        <ele>816.10</ele>
        <time>2014-11-01T09:35:59Z</time>
      </trkpt>
      <trkpt lat="42.281795000" lon="-2.526123000">
        <ele>816.40</ele>
        <time>2014-11-01T09:36:00Z</time>
      </trkpt>
      <trkpt lat="42.281783000" lon="-2.526112000">
        <ele>816.60</ele>
        <time>2014-11-01T09:36:01Z</time>
      </trkpt>
      <trkpt lat="42.281775000" lon="-2.526101000">
        <ele>816.70</ele>
        <time>2014-11-01T09:36:02Z</time>
      </trkpt>
      <trkpt lat="42.281767000" lon="-2.526087000">
        <ele>816.90</ele>
        <time>2014-11-01T09:36:03Z</time>
      </trkpt>
      <trkpt lat="42.281758000" lon="-2.526073000">
        <ele>817.20</ele>
        <time>2014-11-01T09:36:04Z</time>
      </trkpt>
      <trkpt lat="42.281748000" lon="-2.526058000">
        <ele>817.50</ele>
        <time>2014-11-01T09:36:05Z</time>
      </trkpt>
      <trkpt lat="42.281740000" lon="-2.526055000">
        <ele>818.00</ele>
        <time>2014-11-01T09:36:06Z</time>
      </trkpt>
      <trkpt lat="42.281730000" lon="-2.526039000">
        <ele>818.30</ele>
        <time>2014-11-01T09:36:07Z</time>
      </trkpt>
      <trkpt lat="42.281728000" lon="-2.526015000">
        <ele>818.80</ele>
        <time>2014-11-01T09:36:08Z</time>
      </trkpt>
      <trkpt lat="42.281726000" lon="-2.525997000">
        <ele>819.20</ele>
        <time>2014-11-01T09:36:09Z</time>
      </trkpt>
      <trkpt lat="42.281721000" lon="-2.525984000">
        <ele>819.50</ele>
        <time>2014-11-01T09:36:10Z</time>
      </trkpt>
      <trkpt lat="42.281714000" lon="-2.525967000">
        <ele>819.70</ele>
        <time>2014-11-01T09:36:11Z</time>
      </trkpt>
      <trkpt lat="42.281705000" lon="-2.525956000">
        <ele>819.90</ele>
        <time>2014-11-01T09:36:12Z</time>
      </trkpt>
      <trkpt lat="42.281697000" lon="-2.525947000">
        <ele>820.10</ele>
        <time>2014-11-01T09:36:13Z</time>
      </trkpt>
      <trkpt lat="42.281689000" lon="-2.525941000">
        <ele>820.20</ele>
        <time>2014-11-01T09:36:14Z</time>
      </trkpt>
      <trkpt lat="42.281683000" lon="-2.525930000">
        <ele>820.40</ele>
        <time>2014-11-01T09:36:15Z</time>
      </trkpt>
      <trkpt lat="42.281674000" lon="-2.525918000">
        <ele>820.60</ele>
        <time>2014-11-01T09:36:16Z</time>
      </trkpt>
      <trkpt lat="42.281664000" lon="-2.525907000">
        <ele>820.70</ele>
        <time>2014-11-01T09:36:17Z</time>
      </trkpt>
      <trkpt lat="42.281653000" lon="-2.525904000">
        <ele>821.10</ele>
        <time>2014-11-01T09:36:18Z</time>
      </trkpt>
      <trkpt lat="42.281644000" lon="-2.525890000">
        <ele>821.30</ele>
        <time>2014-11-01T09:36:19Z</time>
      </trkpt>
      <trkpt lat="42.281635000" lon="-2.525872000">
        <ele>821.70</ele>
        <time>2014-11-01T09:36:20Z</time>
      </trkpt>
      <trkpt lat="42.281628000" lon="-2.525859000">
        <ele>822.00</ele>
        <time>2014-11-01T09:36:21Z</time>
      </trkpt>
      <trkpt lat="42.281618000" lon="-2.525852000">
        <ele>822.40</ele>
        <time>2014-11-01T09:36:22Z</time>
      </trkpt>
      <trkpt lat="42.281611000" lon="-2.525844000">
        <ele>822.70</ele>
        <time>2014-11-01T09:36:23Z</time>
      </trkpt>
      <trkpt lat="42.281602000" lon="-2.525840000">
        <ele>823.00</ele>
        <time>2014-11-01T09:36:24Z</time>
      </trkpt>
      <trkpt lat="42.281593000" lon="-2.525834000">
        <ele>823.30</ele>
        <time>2014-11-01T09:36:25Z</time>
      </trkpt>
      <trkpt lat="42.281583000" lon="-2.525827000">
        <ele>823.50</ele>
        <time>2014-11-01T09:36:26Z</time>
      </trkpt>
      <trkpt lat="42.281571000" lon="-2.525817000">
        <ele>823.60</ele>
        <time>2014-11-01T09:36:27Z</time>
      </trkpt>
      <trkpt lat="42.281561000" lon="-2.525802000">
        <ele>823.70</ele>
        <time>2014-11-01T09:36:28Z</time>
      </trkpt>
      <trkpt lat="42.281551000" lon="-2.525785000">
        <ele>823.80</ele>
        <time>2014-11-01T09:36:29Z</time>
      </trkpt>
      <trkpt lat="42.281541000" lon="-2.525770000">
        <ele>824.10</ele>
        <time>2014-11-01T09:36:30Z</time>
      </trkpt>
      <trkpt lat="42.281534000" lon="-2.525758000">
        <ele>824.40</ele>
        <time>2014-11-01T09:36:31Z</time>
      </trkpt>
      <trkpt lat="42.281524000" lon="-2.525749000">
        <ele>824.90</ele>
        <time>2014-11-01T09:36:32Z</time>
      </trkpt>
      <trkpt lat="42.281514000" lon="-2.525741000">
        <ele>825.40</ele>
        <time>2014-11-01T09:36:33Z</time>
      </trkpt>
      <trkpt lat="42.281503000" lon="-2.525734000">
        <ele>825.70</ele>
        <time>2014-11-01T09:36:34Z</time>
      </trkpt>
      <trkpt lat="42.281495000" lon="-2.525730000">
        <ele>825.90</ele>
        <time>2014-11-01T09:36:35Z</time>
      </trkpt>
      <trkpt lat="42.281489000" lon="-2.525720000">
        <ele>826.30</ele>
        <time>2014-11-01T09:36:36Z</time>
      </trkpt>
      <trkpt lat="42.281483000" lon="-2.525703000">
        <ele>826.60</ele>
        <time>2014-11-01T09:36:37Z</time>
      </trkpt>
      <trkpt lat="42.281474000" lon="-2.525691000">
        <ele>826.80</ele>
        <time>2014-11-01T09:36:38Z</time>
      </trkpt>
      <trkpt lat="42.281468000" lon="-2.525681000">
        <ele>826.90</ele>
        <time>2014-11-01T09:36:39Z</time>
      </trkpt>
      <trkpt lat="42.281459000" lon="-2.525676000">
        <ele>827.10</ele>
        <time>2014-11-01T09:36:40Z</time>
      </trkpt>
      <trkpt lat="42.281452000" lon="-2.525664000">
        <ele>827.20</ele>
        <time>2014-11-01T09:36:41Z</time>
      </trkpt>
      <trkpt lat="42.281443000" lon="-2.525662000">
        <ele>827.40</ele>
        <time>2014-11-01T09:36:42Z</time>
      </trkpt>
      <trkpt lat="42.281433000" lon="-2.525666000">
        <ele>827.60</ele>
        <time>2014-11-01T09:36:43Z</time>
      </trkpt>
      <trkpt lat="42.281422000" lon="-2.525664000">
        <ele>827.70</ele>
        <time>2014-11-01T09:36:44Z</time>
      </trkpt>
      <trkpt lat="42.281412000" lon="-2.525662000">
        <ele>827.80</ele>
        <time>2014-11-01T09:36:45Z</time>
      </trkpt>
      <trkpt lat="42.281402000" lon="-2.525657000">
        <ele>827.90</ele>
        <time>2014-11-01T09:36:46Z</time>
      </trkpt>
      <trkpt lat="42.281392000" lon="-2.525653000">
        <ele>828.00</ele>
        <time>2014-11-01T09:36:47Z</time>
      </trkpt>
      <trkpt lat="42.281384000" lon="-2.525650000">
        <ele>828.00</ele>
        <time>2014-11-01T09:36:48Z</time>
      </trkpt>
      <trkpt lat="42.281379000" lon="-2.525646000">
        <ele>828.00</ele>
        <time>2014-11-01T09:36:49Z</time>
      </trkpt>
      <trkpt lat="42.281372000" lon="-2.525639000">
        <ele>828.10</ele>
        <time>2014-11-01T09:36:50Z</time>
      </trkpt>
      <trkpt lat="42.281364000" lon="-2.525629000">
        <ele>828.10</ele>
        <time>2014-11-01T09:36:51Z</time>
      </trkpt>
      <trkpt lat="42.281360000" lon="-2.525617000">
        <ele>828.20</ele>
        <time>2014-11-01T09:36:52Z</time>
      </trkpt>
      <trkpt lat="42.281358000" lon="-2.525605000">
        <ele>828.30</ele>
        <time>2014-11-01T09:36:53Z</time>
      </trkpt>
      <trkpt lat="42.281361000" lon="-2.525596000">
        <ele>828.40</ele>
        <time>2014-11-01T09:36:54Z</time>
      </trkpt>
      <trkpt lat="42.281362000" lon="-2.525583000">
        <ele>828.50</ele>
        <time>2014-11-01T09:36:55Z</time>
      </trkpt>
      <trkpt lat="42.281365000" lon="-2.525575000">
        <ele>828.50</ele>
        <time>2014-11-01T09:36:56Z</time>
      </trkpt>
      <trkpt lat="42.281367000" lon="-2.525568000">
        <ele>828.40</ele>
        <time>2014-11-01T09:36:57Z</time>
      </trkpt>
      <trkpt lat="42.281369000" lon="-2.525559000">
        <ele>828.40</ele>
        <time>2014-11-01T09:36:58Z</time>
      </trkpt>
      <trkpt lat="42.281368000" lon="-2.525540000">
        <ele>828.40</ele>
        <time>2014-11-01T09:37:00Z</time>
      </trkpt>
      <trkpt lat="42.281368000" lon="-2.525529000">
        <ele>828.40</ele>
        <time>2014-11-01T09:37:01Z</time>
      </trkpt>
      <trkpt lat="42.281364000" lon="-2.525519000">
        <ele>828.40</ele>
        <time>2014-11-01T09:37:02Z</time>
      </trkpt>
      <trkpt lat="42.281365000" lon="-2.525507000">
        <ele>828.40</ele>
        <time>2014-11-01T09:37:03Z</time>
      </trkpt>
      <trkpt lat="42.281368000" lon="-2.525495000">
        <ele>828.40</ele>
        <time>2014-11-01T09:37:04Z</time>
      </trkpt>
      <trkpt lat="42.281376000" lon="-2.525486000">
        <ele>828.40</ele>
        <time>2014-11-01T09:37:05Z</time>
      </trkpt>
      <trkpt lat="42.281386000" lon="-2.525483000">
        <ele>828.30</ele>
        <time>2014-11-01T09:37:06Z</time>
      </trkpt>
      <trkpt lat="42.281395000" lon="-2.525479000">
        <ele>828.30</ele>
        <time>2014-11-01T09:37:07Z</time>
      </trkpt>
      <trkpt lat="42.281407000" lon="-2.525483000">
        <ele>828.30</ele>
        <time>2014-11-01T09:37:08Z</time>
      </trkpt>
      <trkpt lat="42.281419000" lon="-2.525494000">
        <ele>828.20</ele>
        <time>2014-11-01T09:37:09Z</time>
      </trkpt>
      <trkpt lat="42.281427000" lon="-2.525509000">
        <ele>828.20</ele>
        <time>2014-11-01T09:37:10Z</time>
      </trkpt>
      <trkpt lat="42.281433000" lon="-2.525521000">
        <ele>828.20</ele>
        <time>2014-11-01T09:37:11Z</time>
      </trkpt>
      <trkpt lat="42.281441000" lon="-2.525532000">
        <ele>828.20</ele>
        <time>2014-11-01T09:37:12Z</time>
      </trkpt>
      <trkpt lat="42.281447000" lon="-2.525543000">
        <ele>828.30</ele>
        <time>2014-11-01T09:37:13Z</time>
      </trkpt>
      <trkpt lat="42.281449000" lon="-2.525554000">
        <ele>828.30</ele>
        <time>2014-11-01T09:37:14Z</time>
      </trkpt>
      <trkpt lat="42.281451000" lon="-2.525565000">
        <ele>828.30</ele>
        <time>2014-11-01T09:37:15Z</time>
      </trkpt>
      <trkpt lat="42.281455000" lon="-2.525576000">
        <ele>828.40</ele>
        <time>2014-11-01T09:37:16Z</time>
      </trkpt>
      <trkpt lat="42.281460000" lon="-2.525586000">
        <ele>828.50</ele>
        <time>2014-11-01T09:37:17Z</time>
      </trkpt>
      <trkpt lat="42.281463000" lon="-2.525596000">
        <ele>828.50</ele>
        <time>2014-11-01T09:37:18Z</time>
      </trkpt>
      <trkpt lat="42.281470000" lon="-2.525606000">
        <ele>828.60</ele>
        <time>2014-11-01T09:37:19Z</time>
      </trkpt>
      <trkpt lat="42.281475000" lon="-2.525616000">
        <ele>828.70</ele>
        <time>2014-11-01T09:37:20Z</time>
      </trkpt>
      <trkpt lat="42.281480000" lon="-2.525627000">
        <ele>828.70</ele>
        <time>2014-11-01T09:37:21Z</time>
      </trkpt>
      <trkpt lat="42.281483000" lon="-2.525648000">
        <ele>828.80</ele>
        <time>2014-11-01T09:37:22Z</time>
      </trkpt>
      <trkpt lat="42.281482000" lon="-2.525668000">
        <ele>828.80</ele>
        <time>2014-11-01T09:37:23Z</time>
      </trkpt>
      <trkpt lat="42.281478000" lon="-2.525681000">
        <ele>828.90</ele>
        <time>2014-11-01T09:37:24Z</time>
      </trkpt>
      <trkpt lat="42.281470000" lon="-2.525696000">
        <ele>828.90</ele>
        <time>2014-11-01T09:37:25Z</time>
      </trkpt>
      <trkpt lat="42.281458000" lon="-2.525702000">
        <ele>828.80</ele>
        <time>2014-11-01T09:37:26Z</time>
      </trkpt>
      <trkpt lat="42.281450000" lon="-2.525702000">
        <ele>828.70</ele>
        <time>2014-11-01T09:37:27Z</time>
      </trkpt>
      <trkpt lat="42.281442000" lon="-2.525694000">
        <ele>828.70</ele>
        <time>2014-11-01T09:37:28Z</time>
      </trkpt>
      <trkpt lat="42.281432000" lon="-2.525692000">
        <ele>828.70</ele>
        <time>2014-11-01T09:37:29Z</time>
      </trkpt>
      <trkpt lat="42.281421000" lon="-2.525686000">
        <ele>828.70</ele>
        <time>2014-11-01T09:37:30Z</time>
      </trkpt>
      <trkpt lat="42.281414000" lon="-2.525676000">
        <ele>828.60</ele>
        <time>2014-11-01T09:37:31Z</time>
      </trkpt>
      <trkpt lat="42.281405000" lon="-2.525673000">
        <ele>828.60</ele>
        <time>2014-11-01T09:37:32Z</time>
      </trkpt>
      <trkpt lat="42.281397000" lon="-2.525663000">
        <ele>828.50</ele>
        <time>2014-11-01T09:37:33Z</time>
      </trkpt>
      <trkpt lat="42.281388000" lon="-2.525653000">
        <ele>828.40</ele>
        <time>2014-11-01T09:37:34Z</time>
      </trkpt>
      <trkpt lat="42.281381000" lon="-2.525642000">
        <ele>828.40</ele>
        <time>2014-11-01T09:37:35Z</time>
      </trkpt>
      <trkpt lat="42.281375000" lon="-2.525628000">
        <ele>828.10</ele>
        <time>2014-11-01T09:37:36Z</time>
      </trkpt>
      <trkpt lat="42.281369000" lon="-2.525617000">
        <ele>827.90</ele>
        <time>2014-11-01T09:37:37Z</time>
      </trkpt>
      <trkpt lat="42.281365000" lon="-2.525603000">
        <ele>827.80</ele>
        <time>2014-11-01T09:37:38Z</time>
      </trkpt>
      <trkpt lat="42.281367000" lon="-2.525585000">
        <ele>827.70</ele>
        <time>2014-11-01T09:37:39Z</time>
      </trkpt>
      <trkpt lat="42.281371000" lon="-2.525576000">
        <ele>827.70</ele>
        <time>2014-11-01T09:37:40Z</time>
      </trkpt>
      <trkpt lat="42.281378000" lon="-2.525568000">
        <ele>827.60</ele>
        <time>2014-11-01T09:37:41Z</time>
      </trkpt>
      <trkpt lat="42.281385000" lon="-2.525561000">
        <ele>827.60</ele>
        <time>2014-11-01T09:37:42Z</time>
      </trkpt>
      <trkpt lat="42.281393000" lon="-2.525553000">
        <ele>827.60</ele>
        <time>2014-11-01T09:37:43Z</time>
      </trkpt>
      <trkpt lat="42.281401000" lon="-2.525549000">
        <ele>827.60</ele>
        <time>2014-11-01T09:37:44Z</time>
      </trkpt>
      <trkpt lat="42.281408000" lon="-2.525542000">
        <ele>827.70</ele>
        <time>2014-11-01T09:37:45Z</time>
      </trkpt>
      <trkpt lat="42.281413000" lon="-2.525537000">
        <ele>827.80</ele>
        <time>2014-11-01T09:37:46Z</time>
      </trkpt>
      <trkpt lat="42.281418000" lon="-2.525524000">
        <ele>827.80</ele>
        <time>2014-11-01T09:37:47Z</time>
      </trkpt>
      <trkpt lat="42.281428000" lon="-2.525525000">
        <ele>827.80</ele>
        <time>2014-11-01T09:37:48Z</time>
      </trkpt>
      <trkpt lat="42.281440000" lon="-2.525525000">
        <ele>827.80</ele>
        <time>2014-11-01T09:37:49Z</time>
      </trkpt>
      <trkpt lat="42.281450000" lon="-2.525523000">
        <ele>827.80</ele>
        <time>2014-11-01T09:37:50Z</time>
      </trkpt>
      <trkpt lat="42.281453000" lon="-2.525530000">
        <ele>827.80</ele>
        <time>2014-11-01T09:37:51Z</time>
      </trkpt>
      <trkpt lat="42.281457000" lon="-2.525540000">
        <ele>827.80</ele>
        <time>2014-11-01T09:37:52Z</time>
      </trkpt>
      <trkpt lat="42.281462000" lon="-2.525555000">
        <ele>827.80</ele>
        <time>2014-11-01T09:37:53Z</time>
      </trkpt>
      <trkpt lat="42.281466000" lon="-2.525566000">
        <ele>827.90</ele>
        <time>2014-11-01T09:37:54Z</time>
      </trkpt>
      <trkpt lat="42.281473000" lon="-2.525579000">
        <ele>827.90</ele>
        <time>2014-11-01T09:37:55Z</time>
      </trkpt>
      <trkpt lat="42.281475000" lon="-2.525591000">
        <ele>828.10</ele>
        <time>2014-11-01T09:37:56Z</time>
      </trkpt>
      <trkpt lat="42.281480000" lon="-2.525604000">
        <ele>828.20</ele>
        <time>2014-11-01T09:37:57Z</time>
      </trkpt>
      <trkpt lat="42.281483000" lon="-2.525619000">
        <ele>828.30</ele>
        <time>2014-11-01T09:37:58Z</time>
      </trkpt>
      <trkpt lat="42.281487000" lon="-2.525637000">
        <ele>828.40</ele>
        <time>2014-11-01T09:37:59Z</time>
      </trkpt>
      <trkpt lat="42.281496000" lon="-2.525670000">
        <ele>828.30</ele>
        <time>2014-11-01T09:38:01Z</time>
      </trkpt>
      <trkpt lat="42.281497000" lon="-2.525681000">
        <ele>828.30</ele>
        <time>2014-11-01T09:38:02Z</time>
      </trkpt>
      <trkpt lat="42.281499000" lon="-2.525676000">
        <ele>828.30</ele>
        <time>2014-11-01T09:38:03Z</time>
      </trkpt>
      <trkpt lat="42.281500000" lon="-2.525673000">
        <ele>828.30</ele>
        <time>2014-11-01T09:38:04Z</time>
      </trkpt>
      <trkpt lat="42.281496000" lon="-2.525675000">
        <ele>828.30</ele>
        <time>2014-11-01T09:38:05Z</time>
      </trkpt>
      <trkpt lat="42.281494000" lon="-2.525674000">
        <ele>828.20</ele>
        <time>2014-11-01T09:38:06Z</time>
      </trkpt>
      <trkpt lat="42.281491000" lon="-2.525673000">
        <ele>828.20</ele>
        <time>2014-11-01T09:38:07Z</time>
      </trkpt>
      <trkpt lat="42.281493000" lon="-2.525670000">
        <ele>828.00</ele>
        <time>2014-11-01T09:38:08Z</time>
      </trkpt>
      <trkpt lat="42.281494000" lon="-2.525670000">
        <ele>828.00</ele>
        <time>2014-11-01T09:38:09Z</time>
      </trkpt>
      <trkpt lat="42.281493000" lon="-2.525673000">
        <ele>827.90</ele>
        <time>2014-11-01T09:38:10Z</time>
      </trkpt>
      <trkpt lat="42.281493000" lon="-2.525674000">
        <ele>827.80</ele>
        <time>2014-11-01T09:38:11Z</time>
      </trkpt>
      <trkpt lat="42.281492000" lon="-2.525676000">
        <ele>827.80</ele>
        <time>2014-11-01T09:38:12Z</time>
      </trkpt>
      <trkpt lat="42.281493000" lon="-2.525679000">
        <ele>827.70</ele>
        <time>2014-11-01T09:38:13Z</time>
      </trkpt>
      <trkpt lat="42.281496000" lon="-2.525680000">
        <ele>827.80</ele>
        <time>2014-11-01T09:38:14Z</time>
      </trkpt>
      <trkpt lat="42.281499000" lon="-2.525679000">
        <ele>827.80</ele>
        <time>2014-11-01T09:38:15Z</time>
      </trkpt>
      <trkpt lat="42.281500000" lon="-2.525676000">
        <ele>827.80</ele>
        <time>2014-11-01T09:38:16Z</time>
      </trkpt>
      <trkpt lat="42.281501000" lon="-2.525674000">
        <ele>827.80</ele>
        <time>2014-11-01T09:38:17Z</time>
      </trkpt>
      <trkpt lat="42.281501000" lon="-2.525674000">
        <ele>827.80</ele>
        <time>2014-11-01T09:38:18Z</time>
      </trkpt>
      <trkpt lat="42.281503000" lon="-2.525674000">
        <ele>827.80</ele>
        <time>2014-11-01T09:38:19Z</time>
      </trkpt>
      <trkpt lat="42.281504000" lon="-2.525674000">
        <ele>827.80</ele>
        <time>2014-11-01T09:38:20Z</time>
      </trkpt>
      <trkpt lat="42.281504000" lon="-2.525675000">
        <ele>827.90</ele>
        <time>2014-11-01T09:38:21Z</time>
      </trkpt>
      <trkpt lat="42.281503000" lon="-2.525676000">
        <ele>827.90</ele>
        <time>2014-11-01T09:38:22Z</time>
      </trkpt>
      <trkpt lat="42.281501000" lon="-2.525676000">
        <ele>827.90</ele>
        <time>2014-11-01T09:38:23Z</time>
      </trkpt>
      <trkpt lat="42.281496000" lon="-2.525676000">
        <ele>827.90</ele>
        <time>2014-11-01T09:38:24Z</time>
      </trkpt>
      <trkpt lat="42.281492000" lon="-2.525675000">
        <ele>827.90</ele>
        <time>2014-11-01T09:38:25Z</time>
      </trkpt>
      <trkpt lat="42.281489000" lon="-2.525676000">
        <ele>827.80</ele>
        <time>2014-11-01T09:38:26Z</time>
      </trkpt>
      <trkpt lat="42.281488000" lon="-2.525674000">
        <ele>827.80</ele>
        <time>2014-11-01T09:38:27Z</time>
      </trkpt>
      <trkpt lat="42.281490000" lon="-2.525674000">
        <ele>827.70</ele>
        <time>2014-11-01T09:38:28Z</time>
      </trkpt>
      <trkpt lat="42.281497000" lon="-2.525676000">
        <ele>827.70</ele>
        <time>2014-11-01T09:38:29Z</time>
      </trkpt>
      <trkpt lat="42.281499000" lon="-2.525675000">
        <ele>827.60</ele>
        <time>2014-11-01T09:38:30Z</time>
      </trkpt>
      <trkpt lat="42.281500000" lon="-2.525677000">
        <ele>827.60</ele>
        <time>2014-11-01T09:38:31Z</time>
      </trkpt>
      <trkpt lat="42.281502000" lon="-2.525678000">
        <ele>827.60</ele>
        <time>2014-11-01T09:38:32Z</time>
      </trkpt>
      <trkpt lat="42.281508000" lon="-2.525683000">
        <ele>827.60</ele>
        <time>2014-11-01T09:38:33Z</time>
      </trkpt>
      <trkpt lat="42.281510000" lon="-2.525688000">
        <ele>827.60</ele>
        <time>2014-11-01T09:38:34Z</time>
      </trkpt>
      <trkpt lat="42.281513000" lon="-2.525693000">
        <ele>827.50</ele>
        <time>2014-11-01T09:38:35Z</time>
      </trkpt>
      <trkpt lat="42.281517000" lon="-2.525698000">
        <ele>827.40</ele>
        <time>2014-11-01T09:38:36Z</time>
      </trkpt>
      <trkpt lat="42.281520000" lon="-2.525701000">
        <ele>827.40</ele>
        <time>2014-11-01T09:38:37Z</time>
      </trkpt>
      <trkpt lat="42.281526000" lon="-2.525705000">
        <ele>827.30</ele>
        <time>2014-11-01T09:38:38Z</time>
      </trkpt>
      <trkpt lat="42.281533000" lon="-2.525702000">
        <ele>827.30</ele>
        <time>2014-11-01T09:38:39Z</time>
      </trkpt>
      <trkpt lat="42.281541000" lon="-2.525702000">
        <ele>827.50</ele>
        <time>2014-11-01T09:38:40Z</time>
      </trkpt>
      <trkpt lat="42.281537000" lon="-2.525702000">
        <ele>827.70</ele>
        <time>2014-11-01T09:38:41Z</time>
      </trkpt>
      <trkpt lat="42.281528000" lon="-2.525705000">
        <ele>827.80</ele>
        <time>2014-11-01T09:38:42Z</time>
      </trkpt>
      <trkpt lat="42.281522000" lon="-2.525709000">
        <ele>827.90</ele>
        <time>2014-11-01T09:38:43Z</time>
      </trkpt>
      <trkpt lat="42.281521000" lon="-2.525710000">
        <ele>827.90</ele>
        <time>2014-11-01T09:38:44Z</time>
      </trkpt>
      <trkpt lat="42.281523000" lon="-2.525708000">
        <ele>827.80</ele>
        <time>2014-11-01T09:38:45Z</time>
      </trkpt>
      <trkpt lat="42.281522000" lon="-2.525710000">
        <ele>827.80</ele>
        <time>2014-11-01T09:38:46Z</time>
      </trkpt>
      <trkpt lat="42.281518000" lon="-2.525703000">
        <ele>827.80</ele>
        <time>2014-11-01T09:38:47Z</time>
      </trkpt>
      <trkpt lat="42.281516000" lon="-2.525702000">
        <ele>827.70</ele>
        <time>2014-11-01T09:38:48Z</time>
      </trkpt>
      <trkpt lat="42.281518000" lon="-2.525711000">
        <ele>827.60</ele>
        <time>2014-11-01T09:38:49Z</time>
      </trkpt>
      <trkpt lat="42.281516000" lon="-2.525724000">
        <ele>827.60</ele>
        <time>2014-11-01T09:38:50Z</time>
      </trkpt>
      <trkpt lat="42.281515000" lon="-2.525735000">
        <ele>827.60</ele>
        <time>2014-11-01T09:38:51Z</time>
      </trkpt>
      <trkpt lat="42.281511000" lon="-2.525747000">
        <ele>827.70</ele>
        <time>2014-11-01T09:38:52Z</time>
      </trkpt>
      <trkpt lat="42.281510000" lon="-2.525757000">
        <ele>827.70</ele>
        <time>2014-11-01T09:38:53Z</time>
      </trkpt>
      <trkpt lat="42.281506000" lon="-2.525751000">
        <ele>827.70</ele>
        <time>2014-11-01T09:38:54Z</time>
      </trkpt>
      <trkpt lat="42.281503000" lon="-2.525746000">
        <ele>827.70</ele>
        <time>2014-11-01T09:38:55Z</time>
      </trkpt>
      <trkpt lat="42.281510000" lon="-2.525746000">
        <ele>827.70</ele>
        <time>2014-11-01T09:38:56Z</time>
      </trkpt>
      <trkpt lat="42.281501000" lon="-2.525749000">
        <ele>827.60</ele>
        <time>2014-11-01T09:38:57Z</time>
      </trkpt>
      <trkpt lat="42.281506000" lon="-2.525753000">
        <ele>827.60</ele>
        <time>2014-11-01T09:38:58Z</time>
      </trkpt>
      <trkpt lat="42.281514000" lon="-2.525756000">
        <ele>827.50</ele>
        <time>2014-11-01T09:38:59Z</time>
      </trkpt>
      <trkpt lat="42.281517000" lon="-2.525759000">
        <ele>827.60</ele>
        <time>2014-11-01T09:39:00Z</time>
      </trkpt>
      <trkpt lat="42.281518000" lon="-2.525768000">
        <ele>827.40</ele>
        <time>2014-11-01T09:39:02Z</time>
      </trkpt>
      <trkpt lat="42.281518000" lon="-2.525767000">
        <ele>827.30</ele>
        <time>2014-11-01T09:39:03Z</time>
      </trkpt>
      <trkpt lat="42.281518000" lon="-2.525764000">
        <ele>827.30</ele>
        <time>2014-11-01T09:39:04Z</time>
      </trkpt>
      <trkpt lat="42.281518000" lon="-2.525758000">
        <ele>827.30</ele>
        <time>2014-11-01T09:39:05Z</time>
      </trkpt>
      <trkpt lat="42.281519000" lon="-2.525760000">
        <ele>827.30</ele>
        <time>2014-11-01T09:39:06Z</time>
      </trkpt>
      <trkpt lat="42.281524000" lon="-2.525763000">
        <ele>827.30</ele>
        <time>2014-11-01T09:39:07Z</time>
      </trkpt>
      <trkpt lat="42.281530000" lon="-2.525771000">
        <ele>827.30</ele>
        <time>2014-11-01T09:39:08Z</time>
      </trkpt>
      <trkpt lat="42.281533000" lon="-2.525789000">
        <ele>827.30</ele>
        <time>2014-11-01T09:39:09Z</time>
      </trkpt>
      <trkpt lat="42.281533000" lon="-2.525801000">
        <ele>827.30</ele>
        <time>2014-11-01T09:39:10Z</time>
      </trkpt>
      <trkpt lat="42.281532000" lon="-2.525810000">
        <ele>827.20</ele>
        <time>2014-11-01T09:39:11Z</time>
      </trkpt>
      <trkpt lat="42.281523000" lon="-2.525811000">
        <ele>827.20</ele>
        <time>2014-11-01T09:39:12Z</time>
      </trkpt>
      <trkpt lat="42.281520000" lon="-2.525816000">
        <ele>827.20</ele>
        <time>2014-11-01T09:39:13Z</time>
      </trkpt>
      <trkpt lat="42.281514000" lon="-2.525814000">
        <ele>827.10</ele>
        <time>2014-11-01T09:39:14Z</time>
      </trkpt>
      <trkpt lat="42.281510000" lon="-2.525817000">
        <ele>827.10</ele>
        <time>2014-11-01T09:39:15Z</time>
      </trkpt>
      <trkpt lat="42.281511000" lon="-2.525822000">
        <ele>827.10</ele>
        <time>2014-11-01T09:39:16Z</time>
      </trkpt>
      <trkpt lat="42.281507000" lon="-2.525816000">
        <ele>827.10</ele>
        <time>2014-11-01T09:39:17Z</time>
      </trkpt>
      <trkpt lat="42.281500000" lon="-2.525806000">
        <ele>827.00</ele>
        <time>2014-11-01T09:39:18Z</time>
      </trkpt>
      <trkpt lat="42.281496000" lon="-2.525800000">
        <ele>827.00</ele>
        <time>2014-11-01T09:39:19Z</time>
      </trkpt>
      <trkpt lat="42.281496000" lon="-2.525805000">
        <ele>826.90</ele>
        <time>2014-11-01T09:39:20Z</time>
      </trkpt>
      <trkpt lat="42.281498000" lon="-2.525817000">
        <ele>826.90</ele>
        <time>2014-11-01T09:39:21Z</time>
      </trkpt>
      <trkpt lat="42.281498000" lon="-2.525820000">
        <ele>827.00</ele>
        <time>2014-11-01T09:39:22Z</time>
      </trkpt>
      <trkpt lat="42.281496000" lon="-2.525822000">
        <ele>827.00</ele>
        <time>2014-11-01T09:39:23Z</time>
      </trkpt>
      <trkpt lat="42.281494000" lon="-2.525821000">
        <ele>827.20</ele>
        <time>2014-11-01T09:39:24Z</time>
      </trkpt>
      <trkpt lat="42.281496000" lon="-2.525825000">
        <ele>827.20</ele>
        <time>2014-11-01T09:39:25Z</time>
      </trkpt>
      <trkpt lat="42.281499000" lon="-2.525826000">
        <ele>827.30</ele>
        <time>2014-11-01T09:39:26Z</time>
      </trkpt>
      <trkpt lat="42.281505000" lon="-2.525821000">
        <ele>827.40</ele>
        <time>2014-11-01T09:39:27Z</time>
      </trkpt>
      <trkpt lat="42.281517000" lon="-2.525824000">
        <ele>827.20</ele>
        <time>2014-11-01T09:39:28Z</time>
      </trkpt>
      <trkpt lat="42.281522000" lon="-2.525833000">
        <ele>827.10</ele>
        <time>2014-11-01T09:39:29Z</time>
      </trkpt>
      <trkpt lat="42.281521000" lon="-2.525839000">
        <ele>827.00</ele>
        <time>2014-11-01T09:39:30Z</time>
      </trkpt>
      <trkpt lat="42.281528000" lon="-2.525850000">
        <ele>826.90</ele>
        <time>2014-11-01T09:39:31Z</time>
      </trkpt>
      <trkpt lat="42.281534000" lon="-2.525856000">
        <ele>826.90</ele>
        <time>2014-11-01T09:39:32Z</time>
      </trkpt>
      <trkpt lat="42.281534000" lon="-2.525853000">
        <ele>826.90</ele>
        <time>2014-11-01T09:39:33Z</time>
      </trkpt>
      <trkpt lat="42.281533000" lon="-2.525846000">
        <ele>827.00</ele>
        <time>2014-11-01T09:39:34Z</time>
      </trkpt>
      <trkpt lat="42.281535000" lon="-2.525847000">
        <ele>827.00</ele>
        <time>2014-11-01T09:39:35Z</time>
      </trkpt>
      <trkpt lat="42.281537000" lon="-2.525853000">
        <ele>827.00</ele>
        <time>2014-11-01T09:39:36Z</time>
      </trkpt>
      <trkpt lat="42.281536000" lon="-2.525854000">
        <ele>827.00</ele>
        <time>2014-11-01T09:39:37Z</time>
      </trkpt>
      <trkpt lat="42.281532000" lon="-2.525851000">
        <ele>827.00</ele>
        <time>2014-11-01T09:39:38Z</time>
      </trkpt>
      <trkpt lat="42.281525000" lon="-2.525848000">
        <ele>827.00</ele>
        <time>2014-11-01T09:39:39Z</time>
      </trkpt>
      <trkpt lat="42.281519000" lon="-2.525848000">
        <ele>827.00</ele>
        <time>2014-11-01T09:39:40Z</time>
      </trkpt>
      <trkpt lat="42.281518000" lon="-2.525854000">
        <ele>827.00</ele>
        <time>2014-11-01T09:39:41Z</time>
      </trkpt>
      <trkpt lat="42.281521000" lon="-2.525860000">
        <ele>827.00</ele>
        <time>2014-11-01T09:39:42Z</time>
      </trkpt>
      <trkpt lat="42.281517000" lon="-2.525861000">
        <ele>827.10</ele>
        <time>2014-11-01T09:39:43Z</time>
      </trkpt>
      <trkpt lat="42.281515000" lon="-2.525861000">
        <ele>827.10</ele>
        <time>2014-11-01T09:39:44Z</time>
      </trkpt>
      <trkpt lat="42.281510000" lon="-2.525863000">
        <ele>827.20</ele>
        <time>2014-11-01T09:39:45Z</time>
      </trkpt>
      <trkpt lat="42.281509000" lon="-2.525860000">
        <ele>827.10</ele>
        <time>2014-11-01T09:39:46Z</time>
      </trkpt>
      <trkpt lat="42.281508000" lon="-2.525851000">
        <ele>827.10</ele>
        <time>2014-11-01T09:39:47Z</time>
      </trkpt>
      <trkpt lat="42.281506000" lon="-2.525843000">
        <ele>827.10</ele>
        <time>2014-11-01T09:39:48Z</time>
      </trkpt>
      <trkpt lat="42.281502000" lon="-2.525834000">
        <ele>827.00</ele>
        <time>2014-11-01T09:39:49Z</time>
      </trkpt>
      <trkpt lat="42.281495000" lon="-2.525836000">
        <ele>827.00</ele>
        <time>2014-11-01T09:39:50Z</time>
      </trkpt>
      <trkpt lat="42.281491000" lon="-2.525838000">
        <ele>827.00</ele>
        <time>2014-11-01T09:39:51Z</time>
      </trkpt>
      <trkpt lat="42.281488000" lon="-2.525832000">
        <ele>827.00</ele>
        <time>2014-11-01T09:39:52Z</time>
      </trkpt>
      <trkpt lat="42.281486000" lon="-2.525829000">
        <ele>827.10</ele>
        <time>2014-11-01T09:39:53Z</time>
      </trkpt>
      <trkpt lat="42.281480000" lon="-2.525821000">
        <ele>827.10</ele>
        <time>2014-11-01T09:39:54Z</time>
      </trkpt>
      <trkpt lat="42.281477000" lon="-2.525824000">
        <ele>827.10</ele>
        <time>2014-11-01T09:39:55Z</time>
      </trkpt>
      <trkpt lat="42.281476000" lon="-2.525832000">
        <ele>827.10</ele>
        <time>2014-11-01T09:39:56Z</time>
      </trkpt>
      <trkpt lat="42.281476000" lon="-2.525840000">
        <ele>827.10</ele>
        <time>2014-11-01T09:39:57Z</time>
      </trkpt>
      <trkpt lat="42.281476000" lon="-2.525844000">
        <ele>827.10</ele>
        <time>2014-11-01T09:39:58Z</time>
      </trkpt>
      <trkpt lat="42.281477000" lon="-2.525849000">
        <ele>827.00</ele>
        <time>2014-11-01T09:39:59Z</time>
      </trkpt>
      <trkpt lat="42.281479000" lon="-2.525857000">
        <ele>826.90</ele>
        <time>2014-11-01T09:40:00Z</time>
      </trkpt>
      <trkpt lat="42.281484000" lon="-2.525862000">
        <ele>826.80</ele>
        <time>2014-11-01T09:40:01Z</time>
      </trkpt>
      <trkpt lat="42.281494000" lon="-2.525861000">
        <ele>826.80</ele>
        <time>2014-11-01T09:40:03Z</time>
      </trkpt>
      <trkpt lat="42.281497000" lon="-2.525858000">
        <ele>826.80</ele>
        <time>2014-11-01T09:40:04Z</time>
      </trkpt>
      <trkpt lat="42.281499000" lon="-2.525856000">
        <ele>826.80</ele>
        <time>2014-11-01T09:40:05Z</time>
      </trkpt>
      <trkpt lat="42.281500000" lon="-2.525859000">
        <ele>826.70</ele>
        <time>2014-11-01T09:40:06Z</time>
      </trkpt>
      <trkpt lat="42.281500000" lon="-2.525863000">
        <ele>826.70</ele>
        <time>2014-11-01T09:40:07Z</time>
      </trkpt>
      <trkpt lat="42.281501000" lon="-2.525864000">
        <ele>826.80</ele>
        <time>2014-11-01T09:40:08Z</time>
      </trkpt>
      <trkpt lat="42.281501000" lon="-2.525858000">
        <ele>826.80</ele>
        <time>2014-11-01T09:40:09Z</time>
      </trkpt>
      <trkpt lat="42.281502000" lon="-2.525853000">
        <ele>826.80</ele>
        <time>2014-11-01T09:40:10Z</time>
      </trkpt>
      <trkpt lat="42.281504000" lon="-2.525849000">
        <ele>826.80</ele>
        <time>2014-11-01T09:40:11Z</time>
      </trkpt>
      <trkpt lat="42.281506000" lon="-2.525844000">
        <ele>826.80</ele>
        <time>2014-11-01T09:40:12Z</time>
      </trkpt>
      <trkpt lat="42.281507000" lon="-2.525840000">
        <ele>826.90</ele>
        <time>2014-11-01T09:40:13Z</time>
      </trkpt>
      <trkpt lat="42.281505000" lon="-2.525841000">
        <ele>826.80</ele>
        <time>2014-11-01T09:40:14Z</time>
      </trkpt>
      <trkpt lat="42.281505000" lon="-2.525842000">
        <ele>826.80</ele>
        <time>2014-11-01T09:40:15Z</time>
      </trkpt>
      <trkpt lat="42.281505000" lon="-2.525844000">
        <ele>826.80</ele>
        <time>2014-11-01T09:40:16Z</time>
      </trkpt>
      <trkpt lat="42.281509000" lon="-2.525849000">
        <ele>826.90</ele>
        <time>2014-11-01T09:40:17Z</time>
      </trkpt>
      <trkpt lat="42.281514000" lon="-2.525861000">
        <ele>826.90</ele>
        <time>2014-11-01T09:40:18Z</time>
      </trkpt>
      <trkpt lat="42.281516000" lon="-2.525863000">
        <ele>826.80</ele>
        <time>2014-11-01T09:40:19Z</time>
      </trkpt>
      <trkpt lat="42.281516000" lon="-2.525864000">
        <ele>826.80</ele>
        <time>2014-11-01T09:40:20Z</time>
      </trkpt>
      <trkpt lat="42.281518000" lon="-2.525870000">
        <ele>826.80</ele>
        <time>2014-11-01T09:40:21Z</time>
      </trkpt>
      <trkpt lat="42.281520000" lon="-2.525877000">
        <ele>826.80</ele>
        <time>2014-11-01T09:40:22Z</time>
      </trkpt>
      <trkpt lat="42.281522000" lon="-2.525873000">
        <ele>826.80</ele>
        <time>2014-11-01T09:40:23Z</time>
      </trkpt>
      <trkpt lat="42.281528000" lon="-2.525873000">
        <ele>826.90</ele>
        <time>2014-11-01T09:40:24Z</time>
      </trkpt>
      <trkpt lat="42.281529000" lon="-2.525878000">
        <ele>826.90</ele>
        <time>2014-11-01T09:40:25Z</time>
      </trkpt>
      <trkpt lat="42.281530000" lon="-2.525884000">
        <ele>827.00</ele>
        <time>2014-11-01T09:40:26Z</time>
      </trkpt>
      <trkpt lat="42.281533000" lon="-2.525880000">
        <ele>827.00</ele>
        <time>2014-11-01T09:40:27Z</time>
      </trkpt>
      <trkpt lat="42.281537000" lon="-2.525871000">
        <ele>827.00</ele>
        <time>2014-11-01T09:40:28Z</time>
      </trkpt>
      <trkpt lat="42.281542000" lon="-2.525869000">
        <ele>827.00</ele>
        <time>2014-11-01T09:40:29Z</time>
      </trkpt>
      <trkpt lat="42.281553000" lon="-2.525873000">
        <ele>827.00</ele>
        <time>2014-11-01T09:40:30Z</time>
      </trkpt>
      <trkpt lat="42.281558000" lon="-2.525870000">
        <ele>827.00</ele>
        <time>2014-11-01T09:40:31Z</time>
      </trkpt>
      <trkpt lat="42.281561000" lon="-2.525862000">
        <ele>827.10</ele>
        <time>2014-11-01T09:40:32Z</time>
      </trkpt>
      <trkpt lat="42.281562000" lon="-2.525853000">
        <ele>827.10</ele>
        <time>2014-11-01T09:40:33Z</time>
      </trkpt>
      <trkpt lat="42.281566000" lon="-2.525849000">
        <ele>827.20</ele>
        <time>2014-11-01T09:40:34Z</time>
      </trkpt>
      <trkpt lat="42.281570000" lon="-2.525847000">
        <ele>827.20</ele>
        <time>2014-11-01T09:40:35Z</time>
      </trkpt>
      <trkpt lat="42.281576000" lon="-2.525851000">
        <ele>827.20</ele>
        <time>2014-11-01T09:40:36Z</time>
      </trkpt>
      <trkpt lat="42.281581000" lon="-2.525853000">
        <ele>827.20</ele>
        <time>2014-11-01T09:40:37Z</time>
      </trkpt>
      <trkpt lat="42.281587000" lon="-2.525856000">
        <ele>827.10</ele>
        <time>2014-11-01T09:40:38Z</time>
      </trkpt>
      <trkpt lat="42.281593000" lon="-2.525860000">
        <ele>827.10</ele>
        <time>2014-11-01T09:40:39Z</time>
      </trkpt>
      <trkpt lat="42.281597000" lon="-2.525865000">
        <ele>826.90</ele>
        <time>2014-11-01T09:40:40Z</time>
      </trkpt>
      <trkpt lat="42.281598000" lon="-2.525870000">
        <ele>826.80</ele>
        <time>2014-11-01T09:40:41Z</time>
      </trkpt>
      <trkpt lat="42.281599000" lon="-2.525877000">
        <ele>826.70</ele>
        <time>2014-11-01T09:40:42Z</time>
      </trkpt>
      <trkpt lat="42.281600000" lon="-2.525887000">
        <ele>826.70</ele>
        <time>2014-11-01T09:40:43Z</time>
      </trkpt>
      <trkpt lat="42.281603000" lon="-2.525898000">
        <ele>826.70</ele>
        <time>2014-11-01T09:40:44Z</time>
      </trkpt>
      <trkpt lat="42.281605000" lon="-2.525907000">
        <ele>826.70</ele>
        <time>2014-11-01T09:40:45Z</time>
      </trkpt>
      <trkpt lat="42.281605000" lon="-2.525914000">
        <ele>826.70</ele>
        <time>2014-11-01T09:40:46Z</time>
      </trkpt>
      <trkpt lat="42.281604000" lon="-2.525913000">
        <ele>826.70</ele>
        <time>2014-11-01T09:40:47Z</time>
      </trkpt>
      <trkpt lat="42.281603000" lon="-2.525912000">
        <ele>826.80</ele>
        <time>2014-11-01T09:40:48Z</time>
      </trkpt>
      <trkpt lat="42.281600000" lon="-2.525908000">
        <ele>826.80</ele>
        <time>2014-11-01T09:40:49Z</time>
      </trkpt>
      <trkpt lat="42.281596000" lon="-2.525903000">
        <ele>826.90</ele>
        <time>2014-11-01T09:40:50Z</time>
      </trkpt>
      <trkpt lat="42.281590000" lon="-2.525897000">
        <ele>826.90</ele>
        <time>2014-11-01T09:40:51Z</time>
      </trkpt>
      <trkpt lat="42.281586000" lon="-2.525896000">
        <ele>826.90</ele>
        <time>2014-11-01T09:40:52Z</time>
      </trkpt>
      <trkpt lat="42.281582000" lon="-2.525905000">
        <ele>826.90</ele>
        <time>2014-11-01T09:40:53Z</time>
      </trkpt>
      <trkpt lat="42.281574000" lon="-2.525914000">
        <ele>826.80</ele>
        <time>2014-11-01T09:40:54Z</time>
      </trkpt>
      <trkpt lat="42.281566000" lon="-2.525920000">
        <ele>826.70</ele>
        <time>2014-11-01T09:40:55Z</time>
      </trkpt>
      <trkpt lat="42.281560000" lon="-2.525927000">
        <ele>826.90</ele>
        <time>2014-11-01T09:40:56Z</time>
      </trkpt>
      <trkpt lat="42.281553000" lon="-2.525935000">
        <ele>827.10</ele>
        <time>2014-11-01T09:40:57Z</time>
      </trkpt>
      <trkpt lat="42.281550000" lon="-2.525945000">
        <ele>827.20</ele>
        <time>2014-11-01T09:40:58Z</time>
      </trkpt>
      <trkpt lat="42.281548000" lon="-2.525956000">
        <ele>827.30</ele>
        <time>2014-11-01T09:40:59Z</time>
      </trkpt>
      <trkpt lat="42.281548000" lon="-2.525962000">
        <ele>827.30</ele>
        <time>2014-11-01T09:41:00Z</time>
      </trkpt>
      <trkpt lat="42.281548000" lon="-2.525967000">
        <ele>827.40</ele>
        <time>2014-11-01T09:41:01Z</time>
      </trkpt>
      <trkpt lat="42.281549000" lon="-2.525973000">
        <ele>827.80</ele>
        <time>2014-11-01T09:41:02Z</time>
      </trkpt>
      <trkpt lat="42.281547000" lon="-2.525990000">
        <ele>828.10</ele>
        <time>2014-11-01T09:41:04Z</time>
      </trkpt>
      <trkpt lat="42.281543000" lon="-2.525996000">
        <ele>828.10</ele>
        <time>2014-11-01T09:41:05Z</time>
      </trkpt>
      <trkpt lat="42.281540000" lon="-2.526001000">
        <ele>828.10</ele>
        <time>2014-11-01T09:41:06Z</time>
      </trkpt>
      <trkpt lat="42.281537000" lon="-2.526014000">
        <ele>828.10</ele>
        <time>2014-11-01T09:41:07Z</time>
      </trkpt>
      <trkpt lat="42.281536000" lon="-2.526023000">
        <ele>828.10</ele>
        <time>2014-11-01T09:41:08Z</time>
      </trkpt>
      <trkpt lat="42.281535000" lon="-2.526030000">
        <ele>828.10</ele>
        <time>2014-11-01T09:41:09Z</time>
      </trkpt>
      <trkpt lat="42.281535000" lon="-2.526044000">
        <ele>828.50</ele>
        <time>2014-11-01T09:41:10Z</time>
      </trkpt>
      <trkpt lat="42.281540000" lon="-2.526051000">
        <ele>828.90</ele>
        <time>2014-11-01T09:41:11Z</time>
      </trkpt>
      <trkpt lat="42.281540000" lon="-2.526056000">
        <ele>829.30</ele>
        <time>2014-11-01T09:41:12Z</time>
      </trkpt>
      <trkpt lat="42.281538000" lon="-2.526068000">
        <ele>829.70</ele>
        <time>2014-11-01T09:41:13Z</time>
      </trkpt>
      <trkpt lat="42.281538000" lon="-2.526077000">
        <ele>829.90</ele>
        <time>2014-11-01T09:41:14Z</time>
      </trkpt>
      <trkpt lat="42.281541000" lon="-2.526089000">
        <ele>830.10</ele>
        <time>2014-11-01T09:41:15Z</time>
      </trkpt>
      <trkpt lat="42.281541000" lon="-2.526097000">
        <ele>830.40</ele>
        <time>2014-11-01T09:41:16Z</time>
      </trkpt>
      <trkpt lat="42.281541000" lon="-2.526105000">
        <ele>830.60</ele>
        <time>2014-11-01T09:41:17Z</time>
      </trkpt>
      <trkpt lat="42.281543000" lon="-2.526114000">
        <ele>832.10</ele>
        <time>2014-11-01T09:41:18Z</time>
      </trkpt>
      <trkpt lat="42.281544000" lon="-2.526126000">
        <ele>833.20</ele>
        <time>2014-11-01T09:41:19Z</time>
      </trkpt>
      <trkpt lat="42.281540000" lon="-2.526138000">
        <ele>834.00</ele>
        <time>2014-11-01T09:41:20Z</time>
      </trkpt>
      <trkpt lat="42.281540000" lon="-2.526149000">
        <ele>834.70</ele>
        <time>2014-11-01T09:41:21Z</time>
      </trkpt>
      <trkpt lat="42.281539000" lon="-2.526160000">
        <ele>833.70</ele>
        <time>2014-11-01T09:41:22Z</time>
      </trkpt>
      <trkpt lat="42.281539000" lon="-2.526172000">
        <ele>832.90</ele>
        <time>2014-11-01T09:41:23Z</time>
      </trkpt>
      <trkpt lat="42.281540000" lon="-2.526182000">
        <ele>832.30</ele>
        <time>2014-11-01T09:41:24Z</time>
      </trkpt>
      <trkpt lat="42.281541000" lon="-2.526192000">
        <ele>831.80</ele>
        <time>2014-11-01T09:41:25Z</time>
      </trkpt>
      <trkpt lat="42.281541000" lon="-2.526203000">
        <ele>831.50</ele>
        <time>2014-11-01T09:41:26Z</time>
      </trkpt>
      <trkpt lat="42.281543000" lon="-2.526213000">
        <ele>831.20</ele>
        <time>2014-11-01T09:41:27Z</time>
      </trkpt>
      <trkpt lat="42.281546000" lon="-2.526226000">
        <ele>831.00</ele>
        <time>2014-11-01T09:41:28Z</time>
      </trkpt>
      <trkpt lat="42.281545000" lon="-2.526234000">
        <ele>830.80</ele>
        <time>2014-11-01T09:41:29Z</time>
      </trkpt>
      <trkpt lat="42.281547000" lon="-2.526243000">
        <ele>831.80</ele>
        <time>2014-11-01T09:41:30Z</time>
      </trkpt>
      <trkpt lat="42.281547000" lon="-2.526256000">
        <ele>832.60</ele>
        <time>2014-11-01T09:41:31Z</time>
      </trkpt>
      <trkpt lat="42.281547000" lon="-2.526264000">
        <ele>833.30</ele>
        <time>2014-11-01T09:41:32Z</time>
      </trkpt>
      <trkpt lat="42.281548000" lon="-2.526274000">
        <ele>833.90</ele>
        <time>2014-11-01T09:41:33Z</time>
      </trkpt>
      <trkpt lat="42.281552000" lon="-2.526283000">
        <ele>834.30</ele>
        <time>2014-11-01T09:41:34Z</time>
      </trkpt>
      <trkpt lat="42.281553000" lon="-2.526292000">
        <ele>834.60</ele>
        <time>2014-11-01T09:41:35Z</time>
      </trkpt>
      <trkpt lat="42.281553000" lon="-2.526305000">
        <ele>834.80</ele>
        <time>2014-11-01T09:41:36Z</time>
      </trkpt>
      <trkpt lat="42.281548000" lon="-2.526317000">
        <ele>835.00</ele>
        <time>2014-11-01T09:41:37Z</time>
      </trkpt>
      <trkpt lat="42.281544000" lon="-2.526330000">
        <ele>834.50</ele>
        <time>2014-11-01T09:41:38Z</time>
      </trkpt>
      <trkpt lat="42.281544000" lon="-2.526343000">
        <ele>834.10</ele>
        <time>2014-11-01T09:41:39Z</time>
      </trkpt>
      <trkpt lat="42.281546000" lon="-2.526356000">
        <ele>833.80</ele>
        <time>2014-11-01T09:41:40Z</time>
      </trkpt>
      <trkpt lat="42.281547000" lon="-2.526368000">
        <ele>833.60</ele>
        <time>2014-11-01T09:41:41Z</time>
      </trkpt>
      <trkpt lat="42.281549000" lon="-2.526382000">
        <ele>833.80</ele>
        <time>2014-11-01T09:41:42Z</time>
      </trkpt>
      <trkpt lat="42.281554000" lon="-2.526395000">
        <ele>834.00</ele>
        <time>2014-11-01T09:41:43Z</time>
      </trkpt>
      <trkpt lat="42.281557000" lon="-2.526405000">
        <ele>834.50</ele>
        <time>2014-11-01T09:41:44Z</time>
      </trkpt>
      <trkpt lat="42.281561000" lon="-2.526417000">
        <ele>834.80</ele>
        <time>2014-11-01T09:41:45Z</time>
      </trkpt>
      <trkpt lat="42.281565000" lon="-2.526433000">
        <ele>835.20</ele>
        <time>2014-11-01T09:41:46Z</time>
      </trkpt>
      <trkpt lat="42.281566000" lon="-2.526447000">
        <ele>835.40</ele>
        <time>2014-11-01T09:41:47Z</time>
      </trkpt>
      <trkpt lat="42.281568000" lon="-2.526460000">
        <ele>836.00</ele>
        <time>2014-11-01T09:41:48Z</time>
      </trkpt>
      <trkpt lat="42.281568000" lon="-2.526468000">
        <ele>836.40</ele>
        <time>2014-11-01T09:41:49Z</time>
      </trkpt>
      <trkpt lat="42.281567000" lon="-2.526481000">
        <ele>836.70</ele>
        <time>2014-11-01T09:41:50Z</time>
      </trkpt>
      <trkpt lat="42.281566000" lon="-2.526489000">
        <ele>837.00</ele>
        <time>2014-11-01T09:41:51Z</time>
      </trkpt>
      <trkpt lat="42.281565000" lon="-2.526499000">
        <ele>837.20</ele>
        <time>2014-11-01T09:41:52Z</time>
      </trkpt>
      <trkpt lat="42.281564000" lon="-2.526506000">
        <ele>837.30</ele>
        <time>2014-11-01T09:41:53Z</time>
      </trkpt>
      <trkpt lat="42.281563000" lon="-2.526509000">
        <ele>837.70</ele>
        <time>2014-11-01T09:41:54Z</time>
      </trkpt>
      <trkpt lat="42.281566000" lon="-2.526522000">
        <ele>837.90</ele>
        <time>2014-11-01T09:41:55Z</time>
      </trkpt>
      <trkpt lat="42.281569000" lon="-2.526532000">
        <ele>838.20</ele>
        <time>2014-11-01T09:41:56Z</time>
      </trkpt>
      <trkpt lat="42.281571000" lon="-2.526542000">
        <ele>838.30</ele>
        <time>2014-11-01T09:41:57Z</time>
      </trkpt>
      <trkpt lat="42.281572000" lon="-2.526552000">
        <ele>838.50</ele>
        <time>2014-11-01T09:41:58Z</time>
      </trkpt>
      <trkpt lat="42.281573000" lon="-2.526563000">
        <ele>838.60</ele>
        <time>2014-11-01T09:41:59Z</time>
      </trkpt>
      <trkpt lat="42.281574000" lon="-2.526574000">
        <ele>838.80</ele>
        <time>2014-11-01T09:42:00Z</time>
      </trkpt>
      <trkpt lat="42.281575000" lon="-2.526584000">
        <ele>839.00</ele>
        <time>2014-11-01T09:42:01Z</time>
      </trkpt>
      <trkpt lat="42.281579000" lon="-2.526590000">
        <ele>839.30</ele>
        <time>2014-11-01T09:42:02Z</time>
      </trkpt>
      <trkpt lat="42.281582000" lon="-2.526597000">
        <ele>839.40</ele>
        <time>2014-11-01T09:42:03Z</time>
      </trkpt>
      <trkpt lat="42.281592000" lon="-2.526615000">
        <ele>839.90</ele>
        <time>2014-11-01T09:42:05Z</time>
      </trkpt>
      <trkpt lat="42.281595000" lon="-2.526630000">
        <ele>840.20</ele>
        <time>2014-11-01T09:42:06Z</time>
      </trkpt>
      <trkpt lat="42.281598000" lon="-2.526642000">
        <ele>840.50</ele>
        <time>2014-11-01T09:42:07Z</time>
      </trkpt>
      <trkpt lat="42.281603000" lon="-2.526650000">
        <ele>840.70</ele>
        <time>2014-11-01T09:42:08Z</time>
      </trkpt>
      <trkpt lat="42.281607000" lon="-2.526655000">
        <ele>840.80</ele>
        <time>2014-11-01T09:42:09Z</time>
      </trkpt>
      <trkpt lat="42.281611000" lon="-2.526668000">
        <ele>840.90</ele>
        <time>2014-11-01T09:42:10Z</time>
      </trkpt>
      <trkpt lat="42.281613000" lon="-2.526677000">
        <ele>841.00</ele>
        <time>2014-11-01T09:42:11Z</time>
      </trkpt>
      <trkpt lat="42.281612000" lon="-2.526687000">
        <ele>841.10</ele>
        <time>2014-11-01T09:42:12Z</time>
      </trkpt>
      <trkpt lat="42.281611000" lon="-2.526698000">
        <ele>841.10</ele>
        <time>2014-11-01T09:42:13Z</time>
      </trkpt>
      <trkpt lat="42.281613000" lon="-2.526704000">
        <ele>841.20</ele>
        <time>2014-11-01T09:42:14Z</time>
      </trkpt>
      <trkpt lat="42.281614000" lon="-2.526717000">
        <ele>841.30</ele>
        <time>2014-11-01T09:42:15Z</time>
      </trkpt>
      <trkpt lat="42.281617000" lon="-2.526727000">
        <ele>841.50</ele>
        <time>2014-11-01T09:42:16Z</time>
      </trkpt>
      <trkpt lat="42.281619000" lon="-2.526734000">
        <ele>841.60</ele>
        <time>2014-11-01T09:42:17Z</time>
      </trkpt>
      <trkpt lat="42.281626000" lon="-2.526741000">
        <ele>841.70</ele>
        <time>2014-11-01T09:42:18Z</time>
      </trkpt>
      <trkpt lat="42.281630000" lon="-2.526747000">
        <ele>841.80</ele>
        <time>2014-11-01T09:42:19Z</time>
      </trkpt>
      <trkpt lat="42.281635000" lon="-2.526756000">
        <ele>842.00</ele>
        <time>2014-11-01T09:42:20Z</time>
      </trkpt>
      <trkpt lat="42.281635000" lon="-2.526765000">
        <ele>842.10</ele>
        <time>2014-11-01T09:42:21Z</time>
      </trkpt>
      <trkpt lat="42.281632000" lon="-2.526775000">
        <ele>842.40</ele>
        <time>2014-11-01T09:42:22Z</time>
      </trkpt>
      <trkpt lat="42.281629000" lon="-2.526774000">
        <ele>842.60</ele>
        <time>2014-11-01T09:42:23Z</time>
      </trkpt>
      <trkpt lat="42.281629000" lon="-2.526773000">
        <ele>842.90</ele>
        <time>2014-11-01T09:42:24Z</time>
      </trkpt>
      <trkpt lat="42.281628000" lon="-2.526773000">
        <ele>843.10</ele>
        <time>2014-11-01T09:42:25Z</time>
      </trkpt>
      <trkpt lat="42.281628000" lon="-2.526774000">
        <ele>843.40</ele>
        <time>2014-11-01T09:42:26Z</time>
      </trkpt>
      <trkpt lat="42.281626000" lon="-2.526774000">
        <ele>843.60</ele>
        <time>2014-11-01T09:42:27Z</time>
      </trkpt>
      <trkpt lat="42.281625000" lon="-2.526775000">
        <ele>843.90</ele>
        <time>2014-11-01T09:42:28Z</time>
      </trkpt>
      <trkpt lat="42.281621000" lon="-2.526780000">
        <ele>844.10</ele>
        <time>2014-11-01T09:42:29Z</time>
      </trkpt>
      <trkpt lat="42.281616000" lon="-2.526782000">
        <ele>844.20</ele>
        <time>2014-11-01T09:42:30Z</time>
      </trkpt>
      <trkpt lat="42.281610000" lon="-2.526782000">
        <ele>844.30</ele>
        <time>2014-11-01T09:42:31Z</time>
      </trkpt>
      <trkpt lat="42.281605000" lon="-2.526780000">
        <ele>844.40</ele>
        <time>2014-11-01T09:42:32Z</time>
      </trkpt>
      <trkpt lat="42.281601000" lon="-2.526775000">
        <ele>844.50</ele>
        <time>2014-11-01T09:42:33Z</time>
      </trkpt>
      <trkpt lat="42.281597000" lon="-2.526776000">
        <ele>844.50</ele>
        <time>2014-11-01T09:42:34Z</time>
      </trkpt>
      <trkpt lat="42.281595000" lon="-2.526773000">
        <ele>844.60</ele>
        <time>2014-11-01T09:42:35Z</time>
      </trkpt>
      <trkpt lat="42.281593000" lon="-2.526774000">
        <ele>844.60</ele>
        <time>2014-11-01T09:42:36Z</time>
      </trkpt>
      <trkpt lat="42.281588000" lon="-2.526769000">
        <ele>844.60</ele>
        <time>2014-11-01T09:42:37Z</time>
      </trkpt>
      <trkpt lat="42.281582000" lon="-2.526759000">
        <ele>844.70</ele>
        <time>2014-11-01T09:42:38Z</time>
      </trkpt>
      <trkpt lat="42.281578000" lon="-2.526751000">
        <ele>844.70</ele>
        <time>2014-11-01T09:42:39Z</time>
      </trkpt>
      <trkpt lat="42.281572000" lon="-2.526742000">
        <ele>844.80</ele>
        <time>2014-11-01T09:42:40Z</time>
      </trkpt>
      <trkpt lat="42.281566000" lon="-2.526735000">
        <ele>844.80</ele>
        <time>2014-11-01T09:42:41Z</time>
      </trkpt>
      <trkpt lat="42.281559000" lon="-2.526727000">
        <ele>844.90</ele>
        <time>2014-11-01T09:42:42Z</time>
      </trkpt>
      <trkpt lat="42.281553000" lon="-2.526720000">
        <ele>844.90</ele>
        <time>2014-11-01T09:42:43Z</time>
      </trkpt>
      <trkpt lat="42.281546000" lon="-2.526710000">
        <ele>844.90</ele>
        <time>2014-11-01T09:42:44Z</time>
      </trkpt>
      <trkpt lat="42.281541000" lon="-2.526703000">
        <ele>844.90</ele>
        <time>2014-11-01T09:42:45Z</time>
      </trkpt>
      <trkpt lat="42.281532000" lon="-2.526699000">
        <ele>845.00</ele>
        <time>2014-11-01T09:42:46Z</time>
      </trkpt>
      <trkpt lat="42.281527000" lon="-2.526687000">
        <ele>845.00</ele>
        <time>2014-11-01T09:42:47Z</time>
      </trkpt>
      <trkpt lat="42.281518000" lon="-2.526681000">
        <ele>845.20</ele>
        <time>2014-11-01T09:42:48Z</time>
      </trkpt>
      <trkpt lat="42.281510000" lon="-2.526677000">
        <ele>845.30</ele>
        <time>2014-11-01T09:42:49Z</time>
      </trkpt>
      <trkpt lat="42.281505000" lon="-2.526677000">
        <ele>845.60</ele>
        <time>2014-11-01T09:42:50Z</time>
      </trkpt>
      <trkpt lat="42.281498000" lon="-2.526672000">
        <ele>845.80</ele>
        <time>2014-11-01T09:42:51Z</time>
      </trkpt>
      <trkpt lat="42.281491000" lon="-2.526664000">
        <ele>845.90</ele>
        <time>2014-11-01T09:42:52Z</time>
      </trkpt>
      <trkpt lat="42.281482000" lon="-2.526656000">
        <ele>846.00</ele>
        <time>2014-11-01T09:42:53Z</time>
      </trkpt>
      <trkpt lat="42.281474000" lon="-2.526654000">
        <ele>846.30</ele>
        <time>2014-11-01T09:42:54Z</time>
      </trkpt>
      <trkpt lat="42.281465000" lon="-2.526648000">
        <ele>846.40</ele>
        <time>2014-11-01T09:42:55Z</time>
      </trkpt>
      <trkpt lat="42.281458000" lon="-2.526641000">
        <ele>846.60</ele>
        <time>2014-11-01T09:42:56Z</time>
      </trkpt>
      <trkpt lat="42.281450000" lon="-2.526633000">
        <ele>846.80</ele>
        <time>2014-11-01T09:42:57Z</time>
      </trkpt>
      <trkpt lat="42.281442000" lon="-2.526627000">
        <ele>847.00</ele>
        <time>2014-11-01T09:42:58Z</time>
      </trkpt>
      <trkpt lat="42.281434000" lon="-2.526616000">
        <ele>847.20</ele>
        <time>2014-11-01T09:42:59Z</time>
      </trkpt>
      <trkpt lat="42.281427000" lon="-2.526606000">
        <ele>847.50</ele>
        <time>2014-11-01T09:43:00Z</time>
      </trkpt>
      <trkpt lat="42.281420000" lon="-2.526604000">
        <ele>847.70</ele>
        <time>2014-11-01T09:43:01Z</time>
      </trkpt>
      <trkpt lat="42.281415000" lon="-2.526603000">
        <ele>847.90</ele>
        <time>2014-11-01T09:43:02Z</time>
      </trkpt>
      <trkpt lat="42.281411000" lon="-2.526601000">
        <ele>848.00</ele>
        <time>2014-11-01T09:43:03Z</time>
      </trkpt>
      <trkpt lat="42.281407000" lon="-2.526596000">
        <ele>848.10</ele>
        <time>2014-11-01T09:43:04Z</time>
      </trkpt>
      <trkpt lat="42.281392000" lon="-2.526578000">
        <ele>848.40</ele>
        <time>2014-11-01T09:43:06Z</time>
      </trkpt>
      <trkpt lat="42.281387000" lon="-2.526573000">
        <ele>848.50</ele>
        <time>2014-11-01T09:43:07Z</time>
      </trkpt>
      <trkpt lat="42.281383000" lon="-2.526567000">
        <ele>848.60</ele>
        <time>2014-11-01T09:43:08Z</time>
      </trkpt>
      <trkpt lat="42.281379000" lon="-2.526565000">
        <ele>848.70</ele>
        <time>2014-11-01T09:43:09Z</time>
      </trkpt>
      <trkpt lat="42.281376000" lon="-2.526566000">
        <ele>848.70</ele>
        <time>2014-11-01T09:43:10Z</time>
      </trkpt>
      <trkpt lat="42.281373000" lon="-2.526559000">
        <ele>848.80</ele>
        <time>2014-11-01T09:43:11Z</time>
      </trkpt>
      <trkpt lat="42.281368000" lon="-2.526551000">
        <ele>848.90</ele>
        <time>2014-11-01T09:43:12Z</time>
      </trkpt>
      <trkpt lat="42.281362000" lon="-2.526546000">
        <ele>848.90</ele>
        <time>2014-11-01T09:43:13Z</time>
      </trkpt>
      <trkpt lat="42.281357000" lon="-2.526541000">
        <ele>849.00</ele>
        <time>2014-11-01T09:43:14Z</time>
      </trkpt>
      <trkpt lat="42.281357000" lon="-2.526540000">
        <ele>849.00</ele>
        <time>2014-11-01T09:43:15Z</time>
      </trkpt>
      <trkpt lat="42.281354000" lon="-2.526536000">
        <ele>849.10</ele>
        <time>2014-11-01T09:43:16Z</time>
      </trkpt>
      <trkpt lat="42.281354000" lon="-2.526530000">
        <ele>849.20</ele>
        <time>2014-11-01T09:43:17Z</time>
      </trkpt>
      <trkpt lat="42.281353000" lon="-2.526525000">
        <ele>849.40</ele>
        <time>2014-11-01T09:43:18Z</time>
      </trkpt>
      <trkpt lat="42.281352000" lon="-2.526525000">
        <ele>849.60</ele>
        <time>2014-11-01T09:43:19Z</time>
      </trkpt>
      <trkpt lat="42.281351000" lon="-2.526526000">
        <ele>849.80</ele>
        <time>2014-11-01T09:43:20Z</time>
      </trkpt>
      <trkpt lat="42.281351000" lon="-2.526527000">
        <ele>849.90</ele>
        <time>2014-11-01T09:43:21Z</time>
      </trkpt>
      <trkpt lat="42.281348000" lon="-2.526526000">
        <ele>850.00</ele>
        <time>2014-11-01T09:43:22Z</time>
      </trkpt>
      <trkpt lat="42.281348000" lon="-2.526528000">
        <ele>850.00</ele>
        <time>2014-11-01T09:43:23Z</time>
      </trkpt>
      <trkpt lat="42.281343000" lon="-2.526522000">
        <ele>850.10</ele>
        <time>2014-11-01T09:43:24Z</time>
      </trkpt>
      <trkpt lat="42.281339000" lon="-2.526522000">
        <ele>850.20</ele>
        <time>2014-11-01T09:43:25Z</time>
      </trkpt>
      <trkpt lat="42.281337000" lon="-2.526516000">
        <ele>850.30</ele>
        <time>2014-11-01T09:43:26Z</time>
      </trkpt>
      <trkpt lat="42.281338000" lon="-2.526507000">
        <ele>850.30</ele>
        <time>2014-11-01T09:43:27Z</time>
      </trkpt>
      <trkpt lat="42.281336000" lon="-2.526499000">
        <ele>850.40</ele>
        <time>2014-11-01T09:43:28Z</time>
      </trkpt>
      <trkpt lat="42.281332000" lon="-2.526491000">
        <ele>850.40</ele>
        <time>2014-11-01T09:43:29Z</time>
      </trkpt>
      <trkpt lat="42.281328000" lon="-2.526490000">
        <ele>850.40</ele>
        <time>2014-11-01T09:43:30Z</time>
      </trkpt>
      <trkpt lat="42.281322000" lon="-2.526486000">
        <ele>850.40</ele>
        <time>2014-11-01T09:43:31Z</time>
      </trkpt>
      <trkpt lat="42.281314000" lon="-2.526484000">
        <ele>850.40</ele>
        <time>2014-11-01T09:43:32Z</time>
      </trkpt>
      <trkpt lat="42.281310000" lon="-2.526476000">
        <ele>850.50</ele>
        <time>2014-11-01T09:43:33Z</time>
      </trkpt>
      <trkpt lat="42.281307000" lon="-2.526463000">
        <ele>850.50</ele>
        <time>2014-11-01T09:43:34Z</time>
      </trkpt>
      <trkpt lat="42.281302000" lon="-2.526454000">
        <ele>850.50</ele>
        <time>2014-11-01T09:43:35Z</time>
      </trkpt>
      <trkpt lat="42.281298000" lon="-2.526445000">
        <ele>850.50</ele>
        <time>2014-11-01T09:43:36Z</time>
      </trkpt>
      <trkpt lat="42.281291000" lon="-2.526430000">
        <ele>850.60</ele>
        <time>2014-11-01T09:43:37Z</time>
      </trkpt>
      <trkpt lat="42.281286000" lon="-2.526424000">
        <ele>850.70</ele>
        <time>2014-11-01T09:43:38Z</time>
      </trkpt>
      <trkpt lat="42.281280000" lon="-2.526418000">
        <ele>850.80</ele>
        <time>2014-11-01T09:43:39Z</time>
      </trkpt>
      <trkpt lat="42.281273000" lon="-2.526411000">
        <ele>850.90</ele>
        <time>2014-11-01T09:43:40Z</time>
      </trkpt>
      <trkpt lat="42.281266000" lon="-2.526400000">
        <ele>851.00</ele>
        <time>2014-11-01T09:43:41Z</time>
      </trkpt>
      <trkpt lat="42.281259000" lon="-2.526390000">
        <ele>851.10</ele>
        <time>2014-11-01T09:43:42Z</time>
      </trkpt>
      <trkpt lat="42.281254000" lon="-2.526380000">
        <ele>851.20</ele>
        <time>2014-11-01T09:43:43Z</time>
      </trkpt>
      <trkpt lat="42.281245000" lon="-2.526370000">
        <ele>851.40</ele>
        <time>2014-11-01T09:43:44Z</time>
      </trkpt>
      <trkpt lat="42.281236000" lon="-2.526354000">
        <ele>851.60</ele>
        <time>2014-11-01T09:43:45Z</time>
      </trkpt>
      <trkpt lat="42.281228000" lon="-2.526351000">
        <ele>851.70</ele>
        <time>2014-11-01T09:43:46Z</time>
      </trkpt>
      <trkpt lat="42.281220000" lon="-2.526333000">
        <ele>851.70</ele>
        <time>2014-11-01T09:43:47Z</time>
      </trkpt>
      <trkpt lat="42.281215000" lon="-2.526323000">
        <ele>851.90</ele>
        <time>2014-11-01T09:43:48Z</time>
      </trkpt>
      <trkpt lat="42.281211000" lon="-2.526315000">
        <ele>852.10</ele>
        <time>2014-11-01T09:43:49Z</time>
      </trkpt>
      <trkpt lat="42.281213000" lon="-2.526306000">
        <ele>852.20</ele>
        <time>2014-11-01T09:43:50Z</time>
      </trkpt>
      <trkpt lat="42.281213000" lon="-2.526313000">
        <ele>852.30</ele>
        <time>2014-11-01T09:43:51Z</time>
      </trkpt>
      <trkpt lat="42.281216000" lon="-2.526316000">
        <ele>852.50</ele>
        <time>2014-11-01T09:43:52Z</time>
      </trkpt>
      <trkpt lat="42.281213000" lon="-2.526311000">
        <ele>852.60</ele>
        <time>2014-11-01T09:43:53Z</time>
      </trkpt>
      <trkpt lat="42.281209000" lon="-2.526306000">
        <ele>852.70</ele>
        <time>2014-11-01T09:43:54Z</time>
      </trkpt>
      <trkpt lat="42.281201000" lon="-2.526291000">
        <ele>852.80</ele>
        <time>2014-11-01T09:43:55Z</time>
      </trkpt>
      <trkpt lat="42.281192000" lon="-2.526288000">
        <ele>852.80</ele>
        <time>2014-11-01T09:43:56Z</time>
      </trkpt>
      <trkpt lat="42.281184000" lon="-2.526277000">
        <ele>852.80</ele>
        <time>2014-11-01T09:43:57Z</time>
      </trkpt>
      <trkpt lat="42.281172000" lon="-2.526260000">
        <ele>852.80</ele>
        <time>2014-11-01T09:43:58Z</time>
      </trkpt>
      <trkpt lat="42.281159000" lon="-2.526247000">
        <ele>852.90</ele>
        <time>2014-11-01T09:43:59Z</time>
      </trkpt>
      <trkpt lat="42.281145000" lon="-2.526238000">
        <ele>853.00</ele>
        <time>2014-11-01T09:44:00Z</time>
      </trkpt>
      <trkpt lat="42.281131000" lon="-2.526226000">
        <ele>853.10</ele>
        <time>2014-11-01T09:44:01Z</time>
      </trkpt>
      <trkpt lat="42.281121000" lon="-2.526207000">
        <ele>853.20</ele>
        <time>2014-11-01T09:44:02Z</time>
      </trkpt>
      <trkpt lat="42.281111000" lon="-2.526189000">
        <ele>853.20</ele>
        <time>2014-11-01T09:44:03Z</time>
      </trkpt>
      <trkpt lat="42.281099000" lon="-2.526180000">
        <ele>853.40</ele>
        <time>2014-11-01T09:44:04Z</time>
      </trkpt>
      <trkpt lat="42.281089000" lon="-2.526166000">
        <ele>853.60</ele>
        <time>2014-11-01T09:44:05Z</time>
      </trkpt>
      <trkpt lat="42.281063000" lon="-2.526143000">
        <ele>854.00</ele>
        <time>2014-11-01T09:44:07Z</time>
      </trkpt>
      <trkpt lat="42.281052000" lon="-2.526131000">
        <ele>854.20</ele>
        <time>2014-11-01T09:44:08Z</time>
      </trkpt>
      <trkpt lat="42.281039000" lon="-2.526121000">
        <ele>854.30</ele>
        <time>2014-11-01T09:44:09Z</time>
      </trkpt>
      <trkpt lat="42.281028000" lon="-2.526111000">
        <ele>854.70</ele>
        <time>2014-11-01T09:44:10Z</time>
      </trkpt>
      <trkpt lat="42.281017000" lon="-2.526095000">
        <ele>854.90</ele>
        <time>2014-11-01T09:44:11Z</time>
      </trkpt>
      <trkpt lat="42.281003000" lon="-2.526087000">
        <ele>855.10</ele>
        <time>2014-11-01T09:44:12Z</time>
      </trkpt>
      <trkpt lat="42.280992000" lon="-2.526076000">
        <ele>855.20</ele>
        <time>2014-11-01T09:44:13Z</time>
      </trkpt>
      <trkpt lat="42.280980000" lon="-2.526061000">
        <ele>855.40</ele>
        <time>2014-11-01T09:44:14Z</time>
      </trkpt>
      <trkpt lat="42.280967000" lon="-2.526043000">
        <ele>855.40</ele>
        <time>2014-11-01T09:44:15Z</time>
      </trkpt>
      <trkpt lat="42.280952000" lon="-2.526026000">
        <ele>855.40</ele>
        <time>2014-11-01T09:44:16Z</time>
      </trkpt>
      <trkpt lat="42.280936000" lon="-2.526008000">
        <ele>855.30</ele>
        <time>2014-11-01T09:44:17Z</time>
      </trkpt>
      <trkpt lat="42.280921000" lon="-2.525983000">
        <ele>855.30</ele>
        <time>2014-11-01T09:44:18Z</time>
      </trkpt>
      <trkpt lat="42.280906000" lon="-2.525959000">
        <ele>855.20</ele>
        <time>2014-11-01T09:44:19Z</time>
      </trkpt>
      <trkpt lat="42.280897000" lon="-2.525937000">
        <ele>855.20</ele>
        <time>2014-11-01T09:44:20Z</time>
      </trkpt>
      <trkpt lat="42.280889000" lon="-2.525913000">
        <ele>855.20</ele>
        <time>2014-11-01T09:44:21Z</time>
      </trkpt>
      <trkpt lat="42.280881000" lon="-2.525893000">
        <ele>855.10</ele>
        <time>2014-11-01T09:44:22Z</time>
      </trkpt>
      <trkpt lat="42.280875000" lon="-2.525870000">
        <ele>855.10</ele>
        <time>2014-11-01T09:44:23Z</time>
      </trkpt>
      <trkpt lat="42.280865000" lon="-2.525848000">
        <ele>854.90</ele>
        <time>2014-11-01T09:44:24Z</time>
      </trkpt>
      <trkpt lat="42.280852000" lon="-2.525821000">
        <ele>854.80</ele>
        <time>2014-11-01T09:44:25Z</time>
      </trkpt>
      <trkpt lat="42.280835000" lon="-2.525801000">
        <ele>854.60</ele>
        <time>2014-11-01T09:44:26Z</time>
      </trkpt>
      <trkpt lat="42.280821000" lon="-2.525794000">
        <ele>854.40</ele>
        <time>2014-11-01T09:44:27Z</time>
      </trkpt>
      <trkpt lat="42.280811000" lon="-2.525787000">
        <ele>854.30</ele>
        <time>2014-11-01T09:44:28Z</time>
      </trkpt>
      <trkpt lat="42.280802000" lon="-2.525775000">
        <ele>854.20</ele>
        <time>2014-11-01T09:44:29Z</time>
      </trkpt>
      <trkpt lat="42.280781000" lon="-2.525757000">
        <ele>854.10</ele>
        <time>2014-11-01T09:44:30Z</time>
      </trkpt>
      <trkpt lat="42.280759000" lon="-2.525736000">
        <ele>854.00</ele>
        <time>2014-11-01T09:44:31Z</time>
      </trkpt>
      <trkpt lat="42.280743000" lon="-2.525718000">
        <ele>854.00</ele>
        <time>2014-11-01T09:44:32Z</time>
      </trkpt>
      <trkpt lat="42.280729000" lon="-2.525708000">
        <ele>854.00</ele>
        <time>2014-11-01T09:44:33Z</time>
      </trkpt>
      <trkpt lat="42.280719000" lon="-2.525698000">
        <ele>853.90</ele>
        <time>2014-11-01T09:44:34Z</time>
      </trkpt>
      <trkpt lat="42.280708000" lon="-2.525704000">
        <ele>853.80</ele>
        <time>2014-11-01T09:44:35Z</time>
      </trkpt>
      <trkpt lat="42.280697000" lon="-2.525723000">
        <ele>853.40</ele>
        <time>2014-11-01T09:44:36Z</time>
      </trkpt>
      <trkpt lat="42.280688000" lon="-2.525738000">
        <ele>853.10</ele>
        <time>2014-11-01T09:44:37Z</time>
      </trkpt>
      <trkpt lat="42.280676000" lon="-2.525754000">
        <ele>852.80</ele>
        <time>2014-11-01T09:44:38Z</time>
      </trkpt>
      <trkpt lat="42.280666000" lon="-2.525769000">
        <ele>852.50</ele>
        <time>2014-11-01T09:44:39Z</time>
      </trkpt>
      <trkpt lat="42.280654000" lon="-2.525788000">
        <ele>852.40</ele>
        <time>2014-11-01T09:44:40Z</time>
      </trkpt>
      <trkpt lat="42.280649000" lon="-2.525815000">
        <ele>852.40</ele>
        <time>2014-11-01T09:44:41Z</time>
      </trkpt>
      <trkpt lat="42.280641000" lon="-2.525834000">
        <ele>852.40</ele>
        <time>2014-11-01T09:44:42Z</time>
      </trkpt>
      <trkpt lat="42.280632000" lon="-2.525849000">
        <ele>852.40</ele>
        <time>2014-11-01T09:44:43Z</time>
      </trkpt>
      <trkpt lat="42.280620000" lon="-2.525863000">
        <ele>852.50</ele>
        <time>2014-11-01T09:44:44Z</time>
      </trkpt>
      <trkpt lat="42.280606000" lon="-2.525879000">
        <ele>852.50</ele>
        <time>2014-11-01T09:44:45Z</time>
      </trkpt>
      <trkpt lat="42.280593000" lon="-2.525893000">
        <ele>852.60</ele>
        <time>2014-11-01T09:44:46Z</time>
      </trkpt>
      <trkpt lat="42.280580000" lon="-2.525904000">
        <ele>852.60</ele>
        <time>2014-11-01T09:44:47Z</time>
      </trkpt>
      <trkpt lat="42.280568000" lon="-2.525916000">
        <ele>852.60</ele>
        <time>2014-11-01T09:44:48Z</time>
      </trkpt>
      <trkpt lat="42.280553000" lon="-2.525925000">
        <ele>852.70</ele>
        <time>2014-11-01T09:44:49Z</time>
      </trkpt>
      <trkpt lat="42.280542000" lon="-2.525936000">
        <ele>852.70</ele>
        <time>2014-11-01T09:44:50Z</time>
      </trkpt>
      <trkpt lat="42.280533000" lon="-2.525950000">
        <ele>852.80</ele>
        <time>2014-11-01T09:44:51Z</time>
      </trkpt>
      <trkpt lat="42.280523000" lon="-2.525960000">
        <ele>853.00</ele>
        <time>2014-11-01T09:44:52Z</time>
      </trkpt>
      <trkpt lat="42.280514000" lon="-2.525970000">
        <ele>853.20</ele>
        <time>2014-11-01T09:44:53Z</time>
      </trkpt>
      <trkpt lat="42.280508000" lon="-2.525983000">
        <ele>853.40</ele>
        <time>2014-11-01T09:44:54Z</time>
      </trkpt>
      <trkpt lat="42.280504000" lon="-2.525993000">
        <ele>853.50</ele>
        <time>2014-11-01T09:44:55Z</time>
      </trkpt>
      <trkpt lat="42.280501000" lon="-2.526003000">
        <ele>853.70</ele>
        <time>2014-11-01T09:44:56Z</time>
      </trkpt>
      <trkpt lat="42.280509000" lon="-2.526016000">
        <ele>853.80</ele>
        <time>2014-11-01T09:44:57Z</time>
      </trkpt>
      <trkpt lat="42.280510000" lon="-2.526032000">
        <ele>854.10</ele>
        <time>2014-11-01T09:44:58Z</time>
      </trkpt>
      <trkpt lat="42.280505000" lon="-2.526048000">
        <ele>854.30</ele>
        <time>2014-11-01T09:44:59Z</time>
      </trkpt>
      <trkpt lat="42.280500000" lon="-2.526061000">
        <ele>854.50</ele>
        <time>2014-11-01T09:45:00Z</time>
      </trkpt>
      <trkpt lat="42.280493000" lon="-2.526070000">
        <ele>854.60</ele>
        <time>2014-11-01T09:45:01Z</time>
      </trkpt>
      <trkpt lat="42.280479000" lon="-2.526074000">
        <ele>854.90</ele>
        <time>2014-11-01T09:45:02Z</time>
      </trkpt>
      <trkpt lat="42.280461000" lon="-2.526079000">
        <ele>855.00</ele>
        <time>2014-11-01T09:45:03Z</time>
      </trkpt>
      <trkpt lat="42.280451000" lon="-2.526090000">
        <ele>855.20</ele>
        <time>2014-11-01T09:45:04Z</time>
      </trkpt>
      <trkpt lat="42.280444000" lon="-2.526102000">
        <ele>855.30</ele>
        <time>2014-11-01T09:45:05Z</time>
      </trkpt>
      <trkpt lat="42.280437000" lon="-2.526112000">
        <ele>855.30</ele>
        <time>2014-11-01T09:45:06Z</time>
      </trkpt>
      <trkpt lat="42.280411000" lon="-2.526132000">
        <ele>855.40</ele>
        <time>2014-11-01T09:45:08Z</time>
      </trkpt>
      <trkpt lat="42.280400000" lon="-2.526141000">
        <ele>855.50</ele>
        <time>2014-11-01T09:45:09Z</time>
      </trkpt>
      <trkpt lat="42.280386000" lon="-2.526149000">
        <ele>855.60</ele>
        <time>2014-11-01T09:45:10Z</time>
      </trkpt>
      <trkpt lat="42.280372000" lon="-2.526158000">
        <ele>855.60</ele>
        <time>2014-11-01T09:45:11Z</time>
      </trkpt>
      <trkpt lat="42.280356000" lon="-2.526168000">
        <ele>855.70</ele>
        <time>2014-11-01T09:45:12Z</time>
      </trkpt>
      <trkpt lat="42.280343000" lon="-2.526180000">
        <ele>855.70</ele>
        <time>2014-11-01T09:45:13Z</time>
      </trkpt>
      <trkpt lat="42.280332000" lon="-2.526191000">
        <ele>856.20</ele>
        <time>2014-11-01T09:45:14Z</time>
      </trkpt>
      <trkpt lat="42.280321000" lon="-2.526200000">
        <ele>856.50</ele>
        <time>2014-11-01T09:45:15Z</time>
      </trkpt>
      <trkpt lat="42.280313000" lon="-2.526207000">
        <ele>856.80</ele>
        <time>2014-11-01T09:45:16Z</time>
      </trkpt>
      <trkpt lat="42.280301000" lon="-2.526212000">
        <ele>857.00</ele>
        <time>2014-11-01T09:45:17Z</time>
      </trkpt>
      <trkpt lat="42.280288000" lon="-2.526218000">
        <ele>857.20</ele>
        <time>2014-11-01T09:45:18Z</time>
      </trkpt>
      <trkpt lat="42.280276000" lon="-2.526224000">
        <ele>857.40</ele>
        <time>2014-11-01T09:45:19Z</time>
      </trkpt>
      <trkpt lat="42.280264000" lon="-2.526233000">
        <ele>857.50</ele>
        <time>2014-11-01T09:45:20Z</time>
      </trkpt>
      <trkpt lat="42.280254000" lon="-2.526239000">
        <ele>857.60</ele>
        <time>2014-11-01T09:45:21Z</time>
      </trkpt>
      <trkpt lat="42.280242000" lon="-2.526245000">
        <ele>857.70</ele>
        <time>2014-11-01T09:45:22Z</time>
      </trkpt>
      <trkpt lat="42.280231000" lon="-2.526252000">
        <ele>857.70</ele>
        <time>2014-11-01T09:45:23Z</time>
      </trkpt>
      <trkpt lat="42.280221000" lon="-2.526264000">
        <ele>857.90</ele>
        <time>2014-11-01T09:45:24Z</time>
      </trkpt>
      <trkpt lat="42.280209000" lon="-2.526272000">
        <ele>857.90</ele>
        <time>2014-11-01T09:45:25Z</time>
      </trkpt>
      <trkpt lat="42.280194000" lon="-2.526279000">
        <ele>858.00</ele>
        <time>2014-11-01T09:45:26Z</time>
      </trkpt>
      <trkpt lat="42.280179000" lon="-2.526280000">
        <ele>858.00</ele>
        <time>2014-11-01T09:45:27Z</time>
      </trkpt>
      <trkpt lat="42.280164000" lon="-2.526284000">
        <ele>858.20</ele>
        <time>2014-11-01T09:45:28Z</time>
      </trkpt>
      <trkpt lat="42.280154000" lon="-2.526284000">
        <ele>858.30</ele>
        <time>2014-11-01T09:45:29Z</time>
      </trkpt>
      <trkpt lat="42.280139000" lon="-2.526283000">
        <ele>858.40</ele>
        <time>2014-11-01T09:45:30Z</time>
      </trkpt>
      <trkpt lat="42.280126000" lon="-2.526286000">
        <ele>858.50</ele>
        <time>2014-11-01T09:45:31Z</time>
      </trkpt>
      <trkpt lat="42.280113000" lon="-2.526293000">
        <ele>858.60</ele>
        <time>2014-11-01T09:45:32Z</time>
      </trkpt>
      <trkpt lat="42.280101000" lon="-2.526295000">
        <ele>858.70</ele>
        <time>2014-11-01T09:45:33Z</time>
      </trkpt>
      <trkpt lat="42.280090000" lon="-2.526304000">
        <ele>858.80</ele>
        <time>2014-11-01T09:45:34Z</time>
      </trkpt>
      <trkpt lat="42.280084000" lon="-2.526315000">
        <ele>858.80</ele>
        <time>2014-11-01T09:45:35Z</time>
      </trkpt>
      <trkpt lat="42.280073000" lon="-2.526321000">
        <ele>859.00</ele>
        <time>2014-11-01T09:45:36Z</time>
      </trkpt>
      <trkpt lat="42.280068000" lon="-2.526325000">
        <ele>859.10</ele>
        <time>2014-11-01T09:45:37Z</time>
      </trkpt>
      <trkpt lat="42.280059000" lon="-2.526327000">
        <ele>859.20</ele>
        <time>2014-11-01T09:45:38Z</time>
      </trkpt>
      <trkpt lat="42.280052000" lon="-2.526319000">
        <ele>859.30</ele>
        <time>2014-11-01T09:45:39Z</time>
      </trkpt>
      <trkpt lat="42.280047000" lon="-2.526317000">
        <ele>859.40</ele>
        <time>2014-11-01T09:45:40Z</time>
      </trkpt>
      <trkpt lat="42.280048000" lon="-2.526319000">
        <ele>859.50</ele>
        <time>2014-11-01T09:45:41Z</time>
      </trkpt>
      <trkpt lat="42.280051000" lon="-2.526327000">
        <ele>859.60</ele>
        <time>2014-11-01T09:45:42Z</time>
      </trkpt>
      <trkpt lat="42.280045000" lon="-2.526331000">
        <ele>859.70</ele>
        <time>2014-11-01T09:45:43Z</time>
      </trkpt>
      <trkpt lat="42.280041000" lon="-2.526332000">
        <ele>859.70</ele>
        <time>2014-11-01T09:45:44Z</time>
      </trkpt>
      <trkpt lat="42.280040000" lon="-2.526339000">
        <ele>859.80</ele>
        <time>2014-11-01T09:45:45Z</time>
      </trkpt>
      <trkpt lat="42.280036000" lon="-2.526345000">
        <ele>859.80</ele>
        <time>2014-11-01T09:45:46Z</time>
      </trkpt>
      <trkpt lat="42.280033000" lon="-2.526354000">
        <ele>859.80</ele>
        <time>2014-11-01T09:45:47Z</time>
      </trkpt>
      <trkpt lat="42.280030000" lon="-2.526361000">
        <ele>860.00</ele>
        <time>2014-11-01T09:45:48Z</time>
      </trkpt>
      <trkpt lat="42.280024000" lon="-2.526366000">
        <ele>860.20</ele>
        <time>2014-11-01T09:45:49Z</time>
      </trkpt>
      <trkpt lat="42.280025000" lon="-2.526365000">
        <ele>860.30</ele>
        <time>2014-11-01T09:45:50Z</time>
      </trkpt>
      <trkpt lat="42.280026000" lon="-2.526366000">
        <ele>860.30</ele>
        <time>2014-11-01T09:45:51Z</time>
      </trkpt>
      <trkpt lat="42.280026000" lon="-2.526364000">
        <ele>860.40</ele>
        <time>2014-11-01T09:45:52Z</time>
      </trkpt>
      <trkpt lat="42.280023000" lon="-2.526366000">
        <ele>860.50</ele>
        <time>2014-11-01T09:45:53Z</time>
      </trkpt>
      <trkpt lat="42.280022000" lon="-2.526361000">
        <ele>860.50</ele>
        <time>2014-11-01T09:45:54Z</time>
      </trkpt>
      <trkpt lat="42.280019000" lon="-2.526363000">
        <ele>860.50</ele>
        <time>2014-11-01T09:45:55Z</time>
      </trkpt>
      <trkpt lat="42.280014000" lon="-2.526366000">
        <ele>860.50</ele>
        <time>2014-11-01T09:45:56Z</time>
      </trkpt>
      <trkpt lat="42.280009000" lon="-2.526369000">
        <ele>860.50</ele>
        <time>2014-11-01T09:45:57Z</time>
      </trkpt>
      <trkpt lat="42.280006000" lon="-2.526368000">
        <ele>860.50</ele>
        <time>2014-11-01T09:45:58Z</time>
      </trkpt>
      <trkpt lat="42.280007000" lon="-2.526362000">
        <ele>860.50</ele>
        <time>2014-11-01T09:45:59Z</time>
      </trkpt>
      <trkpt lat="42.280011000" lon="-2.526358000">
        <ele>860.50</ele>
        <time>2014-11-01T09:46:00Z</time>
      </trkpt>
      <trkpt lat="42.280014000" lon="-2.526357000">
        <ele>860.50</ele>
        <time>2014-11-01T09:46:01Z</time>
      </trkpt>
      <trkpt lat="42.280014000" lon="-2.526359000">
        <ele>860.50</ele>
        <time>2014-11-01T09:46:02Z</time>
      </trkpt>
      <trkpt lat="42.280012000" lon="-2.526363000">
        <ele>860.50</ele>
        <time>2014-11-01T09:46:03Z</time>
      </trkpt>
      <trkpt lat="42.280010000" lon="-2.526368000">
        <ele>860.50</ele>
        <time>2014-11-01T09:46:04Z</time>
      </trkpt>
      <trkpt lat="42.280011000" lon="-2.526370000">
        <ele>860.50</ele>
        <time>2014-11-01T09:46:05Z</time>
      </trkpt>
      <trkpt lat="42.280014000" lon="-2.526369000">
        <ele>860.50</ele>
        <time>2014-11-01T09:46:06Z</time>
      </trkpt>
      <trkpt lat="42.280019000" lon="-2.526368000">
        <ele>860.60</ele>
        <time>2014-11-01T09:46:07Z</time>
      </trkpt>
      <trkpt lat="42.280021000" lon="-2.526366000">
        <ele>860.60</ele>
        <time>2014-11-01T09:46:09Z</time>
      </trkpt>
      <trkpt lat="42.280019000" lon="-2.526366000">
        <ele>860.60</ele>
        <time>2014-11-01T09:46:10Z</time>
      </trkpt>
      <trkpt lat="42.280014000" lon="-2.526366000">
        <ele>860.60</ele>
        <time>2014-11-01T09:46:11Z</time>
      </trkpt>
      <trkpt lat="42.280007000" lon="-2.526363000">
        <ele>860.70</ele>
        <time>2014-11-01T09:46:12Z</time>
      </trkpt>
      <trkpt lat="42.280005000" lon="-2.526362000">
        <ele>860.70</ele>
        <time>2014-11-01T09:46:13Z</time>
      </trkpt>
      <trkpt lat="42.280004000" lon="-2.526360000">
        <ele>860.70</ele>
        <time>2014-11-01T09:46:14Z</time>
      </trkpt>
      <trkpt lat="42.280005000" lon="-2.526358000">
        <ele>860.70</ele>
        <time>2014-11-01T09:46:15Z</time>
      </trkpt>
      <trkpt lat="42.280006000" lon="-2.526358000">
        <ele>860.70</ele>
        <time>2014-11-01T09:46:16Z</time>
      </trkpt>
      <trkpt lat="42.280006000" lon="-2.526360000">
        <ele>860.70</ele>
        <time>2014-11-01T09:46:17Z</time>
      </trkpt>
      <trkpt lat="42.280006000" lon="-2.526361000">
        <ele>860.50</ele>
        <time>2014-11-01T09:46:18Z</time>
      </trkpt>
      <trkpt lat="42.280005000" lon="-2.526364000">
        <ele>860.40</ele>
        <time>2014-11-01T09:46:19Z</time>
      </trkpt>
      <trkpt lat="42.280001000" lon="-2.526366000">
        <ele>860.30</ele>
        <time>2014-11-01T09:46:20Z</time>
      </trkpt>
      <trkpt lat="42.279999000" lon="-2.526368000">
        <ele>860.20</ele>
        <time>2014-11-01T09:46:21Z</time>
      </trkpt>
      <trkpt lat="42.280000000" lon="-2.526370000">
        <ele>860.10</ele>
        <time>2014-11-01T09:46:22Z</time>
      </trkpt>
      <trkpt lat="42.280002000" lon="-2.526371000">
        <ele>860.00</ele>
        <time>2014-11-01T09:46:23Z</time>
      </trkpt>
      <trkpt lat="42.280006000" lon="-2.526374000">
        <ele>859.90</ele>
        <time>2014-11-01T09:46:24Z</time>
      </trkpt>
      <trkpt lat="42.280008000" lon="-2.526375000">
        <ele>859.90</ele>
        <time>2014-11-01T09:46:25Z</time>
      </trkpt>
      <trkpt lat="42.280010000" lon="-2.526376000">
        <ele>859.90</ele>
        <time>2014-11-01T09:46:26Z</time>
      </trkpt>
      <trkpt lat="42.280012000" lon="-2.526377000">
        <ele>859.80</ele>
        <time>2014-11-01T09:46:27Z</time>
      </trkpt>
      <trkpt lat="42.280012000" lon="-2.526379000">
        <ele>859.90</ele>
        <time>2014-11-01T09:46:28Z</time>
      </trkpt>
      <trkpt lat="42.280015000" lon="-2.526382000">
        <ele>859.90</ele>
        <time>2014-11-01T09:46:29Z</time>
      </trkpt>
      <trkpt lat="42.280018000" lon="-2.526386000">
        <ele>860.00</ele>
        <time>2014-11-01T09:46:30Z</time>
      </trkpt>
      <trkpt lat="42.280021000" lon="-2.526388000">
        <ele>860.00</ele>
        <time>2014-11-01T09:46:31Z</time>
      </trkpt>
      <trkpt lat="42.280023000" lon="-2.526388000">
        <ele>859.90</ele>
        <time>2014-11-01T09:46:32Z</time>
      </trkpt>
      <trkpt lat="42.280023000" lon="-2.526386000">
        <ele>859.80</ele>
        <time>2014-11-01T09:46:33Z</time>
      </trkpt>
      <trkpt lat="42.280023000" lon="-2.526384000">
        <ele>859.70</ele>
        <time>2014-11-01T09:46:34Z</time>
      </trkpt>
      <trkpt lat="42.280024000" lon="-2.526381000">
        <ele>859.70</ele>
        <time>2014-11-01T09:46:35Z</time>
      </trkpt>
      <trkpt lat="42.280023000" lon="-2.526379000">
        <ele>859.60</ele>
        <time>2014-11-01T09:46:36Z</time>
      </trkpt>
      <trkpt lat="42.280024000" lon="-2.526377000">
        <ele>859.60</ele>
        <time>2014-11-01T09:46:37Z</time>
      </trkpt>
      <trkpt lat="42.280029000" lon="-2.526370000">
        <ele>859.60</ele>
        <time>2014-11-01T09:46:38Z</time>
      </trkpt>
      <trkpt lat="42.280036000" lon="-2.526360000">
        <ele>859.60</ele>
        <time>2014-11-01T09:46:39Z</time>
      </trkpt>
      <trkpt lat="42.280039000" lon="-2.526356000">
        <ele>859.70</ele>
        <time>2014-11-01T09:46:40Z</time>
      </trkpt>
      <trkpt lat="42.280040000" lon="-2.526353000">
        <ele>859.70</ele>
        <time>2014-11-01T09:46:41Z</time>
      </trkpt>
      <trkpt lat="42.280040000" lon="-2.526353000">
        <ele>859.70</ele>
        <time>2014-11-01T09:46:42Z</time>
      </trkpt>
      <trkpt lat="42.280037000" lon="-2.526351000">
        <ele>859.70</ele>
        <time>2014-11-01T09:46:43Z</time>
      </trkpt>
      <trkpt lat="42.280035000" lon="-2.526348000">
        <ele>859.70</ele>
        <time>2014-11-01T09:46:44Z</time>
      </trkpt>
      <trkpt lat="42.280035000" lon="-2.526345000">
        <ele>859.80</ele>
        <time>2014-11-01T09:46:45Z</time>
      </trkpt>
      <trkpt lat="42.280036000" lon="-2.526343000">
        <ele>859.90</ele>
        <time>2014-11-01T09:46:46Z</time>
      </trkpt>
      <trkpt lat="42.280035000" lon="-2.526341000">
        <ele>860.00</ele>
        <time>2014-11-01T09:46:47Z</time>
      </trkpt>
      <trkpt lat="42.280034000" lon="-2.526341000">
        <ele>860.00</ele>
        <time>2014-11-01T09:46:48Z</time>
      </trkpt>
      <trkpt lat="42.280031000" lon="-2.526340000">
        <ele>860.00</ele>
        <time>2014-11-01T09:46:49Z</time>
      </trkpt>
      <trkpt lat="42.280027000" lon="-2.526338000">
        <ele>860.10</ele>
        <time>2014-11-01T09:46:50Z</time>
      </trkpt>
      <trkpt lat="42.280023000" lon="-2.526336000">
        <ele>860.10</ele>
        <time>2014-11-01T09:46:51Z</time>
      </trkpt>
      <trkpt lat="42.280021000" lon="-2.526334000">
        <ele>860.00</ele>
        <time>2014-11-01T09:46:52Z</time>
      </trkpt>
      <trkpt lat="42.280022000" lon="-2.526331000">
        <ele>860.00</ele>
        <time>2014-11-01T09:46:53Z</time>
      </trkpt>
      <trkpt lat="42.280027000" lon="-2.526327000">
        <ele>859.80</ele>
        <time>2014-11-01T09:46:54Z</time>
      </trkpt>
      <trkpt lat="42.280033000" lon="-2.526324000">
        <ele>859.70</ele>
        <time>2014-11-01T09:46:55Z</time>
      </trkpt>
      <trkpt lat="42.280037000" lon="-2.526322000">
        <ele>859.60</ele>
        <time>2014-11-01T09:46:56Z</time>
      </trkpt>
      <trkpt lat="42.280039000" lon="-2.526322000">
        <ele>859.50</ele>
        <time>2014-11-01T09:46:57Z</time>
      </trkpt>
      <trkpt lat="42.280040000" lon="-2.526323000">
        <ele>859.60</ele>
        <time>2014-11-01T09:46:58Z</time>
      </trkpt>
      <trkpt lat="42.280042000" lon="-2.526323000">
        <ele>859.70</ele>
        <time>2014-11-01T09:46:59Z</time>
      </trkpt>
      <trkpt lat="42.280044000" lon="-2.526322000">
        <ele>859.70</ele>
        <time>2014-11-01T09:47:00Z</time>
      </trkpt>
      <trkpt lat="42.280046000" lon="-2.526321000">
        <ele>859.80</ele>
        <time>2014-11-01T09:47:01Z</time>
      </trkpt>
      <trkpt lat="42.280045000" lon="-2.526321000">
        <ele>859.80</ele>
        <time>2014-11-01T09:47:02Z</time>
      </trkpt>
      <trkpt lat="42.280044000" lon="-2.526322000">
        <ele>859.90</ele>
        <time>2014-11-01T09:47:03Z</time>
      </trkpt>
      <trkpt lat="42.280042000" lon="-2.526325000">
        <ele>859.90</ele>
        <time>2014-11-01T09:47:04Z</time>
      </trkpt>
      <trkpt lat="42.280041000" lon="-2.526328000">
        <ele>859.80</ele>
        <time>2014-11-01T09:47:05Z</time>
      </trkpt>
      <trkpt lat="42.280040000" lon="-2.526330000">
        <ele>859.90</ele>
        <time>2014-11-01T09:47:06Z</time>
      </trkpt>
      <trkpt lat="42.280039000" lon="-2.526333000">
        <ele>859.90</ele>
        <time>2014-11-01T09:47:07Z</time>
      </trkpt>
      <trkpt lat="42.280035000" lon="-2.526335000">
        <ele>860.00</ele>
        <time>2014-11-01T09:47:08Z</time>
      </trkpt>
      <trkpt lat="42.280022000" lon="-2.526340000">
        <ele>860.10</ele>
        <time>2014-11-01T09:47:10Z</time>
      </trkpt>
      <trkpt lat="42.280017000" lon="-2.526342000">
        <ele>860.20</ele>
        <time>2014-11-01T09:47:11Z</time>
      </trkpt>
      <trkpt lat="42.280016000" lon="-2.526344000">
        <ele>860.30</ele>
        <time>2014-11-01T09:47:12Z</time>
      </trkpt>
      <trkpt lat="42.280017000" lon="-2.526345000">
        <ele>860.30</ele>
        <time>2014-11-01T09:47:13Z</time>
      </trkpt>
      <trkpt lat="42.280021000" lon="-2.526346000">
        <ele>860.20</ele>
        <time>2014-11-01T09:47:14Z</time>
      </trkpt>
      <trkpt lat="42.280024000" lon="-2.526345000">
        <ele>860.10</ele>
        <time>2014-11-01T09:47:15Z</time>
      </trkpt>
      <trkpt lat="42.280024000" lon="-2.526345000">
        <ele>860.00</ele>
        <time>2014-11-01T09:47:16Z</time>
      </trkpt>
      <trkpt lat="42.280022000" lon="-2.526344000">
        <ele>859.90</ele>
        <time>2014-11-01T09:47:17Z</time>
      </trkpt>
      <trkpt lat="42.280018000" lon="-2.526343000">
        <ele>859.80</ele>
        <time>2014-11-01T09:47:18Z</time>
      </trkpt>
      <trkpt lat="42.280015000" lon="-2.526343000">
        <ele>859.80</ele>
        <time>2014-11-01T09:47:19Z</time>
      </trkpt>
      <trkpt lat="42.280015000" lon="-2.526343000">
        <ele>859.80</ele>
        <time>2014-11-01T09:47:20Z</time>
      </trkpt>
      <trkpt lat="42.280017000" lon="-2.526343000">
        <ele>859.90</ele>
        <time>2014-11-01T09:47:21Z</time>
      </trkpt>
      <trkpt lat="42.280021000" lon="-2.526346000">
        <ele>860.00</ele>
        <time>2014-11-01T09:47:22Z</time>
      </trkpt>
      <trkpt lat="42.280026000" lon="-2.526348000">
        <ele>860.10</ele>
        <time>2014-11-01T09:47:23Z</time>
      </trkpt>
      <trkpt lat="42.280028000" lon="-2.526351000">
        <ele>860.10</ele>
        <time>2014-11-01T09:47:24Z</time>
      </trkpt>
      <trkpt lat="42.280029000" lon="-2.526354000">
        <ele>860.10</ele>
        <time>2014-11-01T09:47:25Z</time>
      </trkpt>
      <trkpt lat="42.280028000" lon="-2.526355000">
        <ele>860.00</ele>
        <time>2014-11-01T09:47:26Z</time>
      </trkpt>
      <trkpt lat="42.280024000" lon="-2.526352000">
        <ele>859.90</ele>
        <time>2014-11-01T09:47:27Z</time>
      </trkpt>
      <trkpt lat="42.280021000" lon="-2.526347000">
        <ele>859.90</ele>
        <time>2014-11-01T09:47:28Z</time>
      </trkpt>
      <trkpt lat="42.280017000" lon="-2.526342000">
        <ele>859.80</ele>
        <time>2014-11-01T09:47:29Z</time>
      </trkpt>
      <trkpt lat="42.280014000" lon="-2.526338000">
        <ele>859.80</ele>
        <time>2014-11-01T09:47:30Z</time>
      </trkpt>
      <trkpt lat="42.280015000" lon="-2.526335000">
        <ele>859.80</ele>
        <time>2014-11-01T09:47:31Z</time>
      </trkpt>
      <trkpt lat="42.280015000" lon="-2.526335000">
        <ele>859.80</ele>
        <time>2014-11-01T09:47:32Z</time>
      </trkpt>
      <trkpt lat="42.280015000" lon="-2.526336000">
        <ele>859.80</ele>
        <time>2014-11-01T09:47:33Z</time>
      </trkpt>
      <trkpt lat="42.280016000" lon="-2.526336000">
        <ele>859.90</ele>
        <time>2014-11-01T09:47:34Z</time>
      </trkpt>
      <trkpt lat="42.280017000" lon="-2.526336000">
        <ele>860.00</ele>
        <time>2014-11-01T09:47:35Z</time>
      </trkpt>
      <trkpt lat="42.280018000" lon="-2.526336000">
        <ele>860.00</ele>
        <time>2014-11-01T09:47:36Z</time>
      </trkpt>
      <trkpt lat="42.280019000" lon="-2.526335000">
        <ele>860.00</ele>
        <time>2014-11-01T09:47:37Z</time>
      </trkpt>
      <trkpt lat="42.280021000" lon="-2.526333000">
        <ele>859.90</ele>
        <time>2014-11-01T09:47:38Z</time>
      </trkpt>
      <trkpt lat="42.280019000" lon="-2.526332000">
        <ele>859.90</ele>
        <time>2014-11-01T09:47:39Z</time>
      </trkpt>
      <trkpt lat="42.280019000" lon="-2.526329000">
        <ele>859.90</ele>
        <time>2014-11-01T09:47:40Z</time>
      </trkpt>
      <trkpt lat="42.280022000" lon="-2.526326000">
        <ele>859.90</ele>
        <time>2014-11-01T09:47:41Z</time>
      </trkpt>
      <trkpt lat="42.280025000" lon="-2.526322000">
        <ele>859.90</ele>
        <time>2014-11-01T09:47:42Z</time>
      </trkpt>
      <trkpt lat="42.280029000" lon="-2.526315000">
        <ele>859.90</ele>
        <time>2014-11-01T09:47:43Z</time>
      </trkpt>
      <trkpt lat="42.280028000" lon="-2.526313000">
        <ele>859.90</ele>
        <time>2014-11-01T09:47:44Z</time>
      </trkpt>
      <trkpt lat="42.280026000" lon="-2.526311000">
        <ele>859.90</ele>
        <time>2014-11-01T09:47:45Z</time>
      </trkpt>
      <trkpt lat="42.280024000" lon="-2.526312000">
        <ele>859.90</ele>
        <time>2014-11-01T09:47:46Z</time>
      </trkpt>
      <trkpt lat="42.280020000" lon="-2.526314000">
        <ele>859.90</ele>
        <time>2014-11-01T09:47:47Z</time>
      </trkpt>
      <trkpt lat="42.280018000" lon="-2.526317000">
        <ele>859.90</ele>
        <time>2014-11-01T09:47:48Z</time>
      </trkpt>
      <trkpt lat="42.280018000" lon="-2.526317000">
        <ele>859.90</ele>
        <time>2014-11-01T09:47:49Z</time>
      </trkpt>
      <trkpt lat="42.280023000" lon="-2.526316000">
        <ele>859.90</ele>
        <time>2014-11-01T09:47:50Z</time>
      </trkpt>
      <trkpt lat="42.280030000" lon="-2.526316000">
        <ele>859.90</ele>
        <time>2014-11-01T09:47:51Z</time>
      </trkpt>
      <trkpt lat="42.280035000" lon="-2.526315000">
        <ele>860.10</ele>
        <time>2014-11-01T09:47:52Z</time>
      </trkpt>
      <trkpt lat="42.280037000" lon="-2.526314000">
        <ele>860.20</ele>
        <time>2014-11-01T09:47:53Z</time>
      </trkpt>
      <trkpt lat="42.280035000" lon="-2.526314000">
        <ele>860.30</ele>
        <time>2014-11-01T09:47:54Z</time>
      </trkpt>
      <trkpt lat="42.280032000" lon="-2.526316000">
        <ele>860.40</ele>
        <time>2014-11-01T09:47:55Z</time>
      </trkpt>
      <trkpt lat="42.280027000" lon="-2.526317000">
        <ele>860.50</ele>
        <time>2014-11-01T09:47:56Z</time>
      </trkpt>
      <trkpt lat="42.280024000" lon="-2.526316000">
        <ele>860.60</ele>
        <time>2014-11-01T09:47:57Z</time>
      </trkpt>
      <trkpt lat="42.280022000" lon="-2.526314000">
        <ele>860.40</ele>
        <time>2014-11-01T09:47:58Z</time>
      </trkpt>
      <trkpt lat="42.280022000" lon="-2.526311000">
        <ele>860.20</ele>
        <time>2014-11-01T09:47:59Z</time>
      </trkpt>
      <trkpt lat="42.280023000" lon="-2.526307000">
        <ele>860.10</ele>
        <time>2014-11-01T09:48:00Z</time>
      </trkpt>
      <trkpt lat="42.280022000" lon="-2.526303000">
        <ele>860.00</ele>
        <time>2014-11-01T09:48:01Z</time>
      </trkpt>
      <trkpt lat="42.280019000" lon="-2.526298000">
        <ele>860.00</ele>
        <time>2014-11-01T09:48:02Z</time>
      </trkpt>
      <trkpt lat="42.280014000" lon="-2.526293000">
        <ele>859.90</ele>
        <time>2014-11-01T09:48:03Z</time>
      </trkpt>
      <trkpt lat="42.280009000" lon="-2.526290000">
        <ele>860.00</ele>
        <time>2014-11-01T09:48:04Z</time>
      </trkpt>
      <trkpt lat="42.280006000" lon="-2.526288000">
        <ele>860.00</ele>
        <time>2014-11-01T09:48:05Z</time>
      </trkpt>
      <trkpt lat="42.280007000" lon="-2.526288000">
        <ele>860.00</ele>
        <time>2014-11-01T09:48:06Z</time>
      </trkpt>
      <trkpt lat="42.280010000" lon="-2.526291000">
        <ele>860.00</ele>
        <time>2014-11-01T09:48:07Z</time>
      </trkpt>
      <trkpt lat="42.280012000" lon="-2.526293000">
        <ele>860.00</ele>
        <time>2014-11-01T09:48:08Z</time>
      </trkpt>
      <trkpt lat="42.280014000" lon="-2.526294000">
        <ele>860.00</ele>
        <time>2014-11-01T09:48:09Z</time>
      </trkpt>
      <trkpt lat="42.280015000" lon="-2.526292000">
        <ele>859.80</ele>
        <time>2014-11-01T09:48:11Z</time>
      </trkpt>
      <trkpt lat="42.280016000" lon="-2.526290000">
        <ele>859.70</ele>
        <time>2014-11-01T09:48:12Z</time>
      </trkpt>
      <trkpt lat="42.280018000" lon="-2.526288000">
        <ele>859.70</ele>
        <time>2014-11-01T09:48:13Z</time>
      </trkpt>
      <trkpt lat="42.280021000" lon="-2.526288000">
        <ele>859.80</ele>
        <time>2014-11-01T09:48:14Z</time>
      </trkpt>
      <trkpt lat="42.280022000" lon="-2.526290000">
        <ele>859.80</ele>
        <time>2014-11-01T09:48:15Z</time>
      </trkpt>
      <trkpt lat="42.280022000" lon="-2.526292000">
        <ele>859.90</ele>
        <time>2014-11-01T09:48:16Z</time>
      </trkpt>
      <trkpt lat="42.280022000" lon="-2.526293000">
        <ele>859.90</ele>
        <time>2014-11-01T09:48:17Z</time>
      </trkpt>
      <trkpt lat="42.280021000" lon="-2.526297000">
        <ele>859.90</ele>
        <time>2014-11-01T09:48:18Z</time>
      </trkpt>
      <trkpt lat="42.280021000" lon="-2.526301000">
        <ele>859.90</ele>
        <time>2014-11-01T09:48:19Z</time>
      </trkpt>
      <trkpt lat="42.280021000" lon="-2.526306000">
        <ele>859.80</ele>
        <time>2014-11-01T09:48:20Z</time>
      </trkpt>
      <trkpt lat="42.280024000" lon="-2.526312000">
        <ele>859.80</ele>
        <time>2014-11-01T09:48:21Z</time>
      </trkpt>
      <trkpt lat="42.280026000" lon="-2.526317000">
        <ele>859.80</ele>
        <time>2014-11-01T09:48:22Z</time>
      </trkpt>
      <trkpt lat="42.280027000" lon="-2.526320000">
        <ele>859.80</ele>
        <time>2014-11-01T09:48:23Z</time>
      </trkpt>
      <trkpt lat="42.280026000" lon="-2.526321000">
        <ele>859.80</ele>
        <time>2014-11-01T09:48:24Z</time>
      </trkpt>
      <trkpt lat="42.280025000" lon="-2.526320000">
        <ele>859.80</ele>
        <time>2014-11-01T09:48:25Z</time>
      </trkpt>
      <trkpt lat="42.280023000" lon="-2.526316000">
        <ele>859.80</ele>
        <time>2014-11-01T09:48:26Z</time>
      </trkpt>
      <trkpt lat="42.280020000" lon="-2.526309000">
        <ele>859.90</ele>
        <time>2014-11-01T09:48:27Z</time>
      </trkpt>
      <trkpt lat="42.280019000" lon="-2.526303000">
        <ele>860.00</ele>
        <time>2014-11-01T09:48:28Z</time>
      </trkpt>
      <trkpt lat="42.280018000" lon="-2.526297000">
        <ele>860.10</ele>
        <time>2014-11-01T09:48:29Z</time>
      </trkpt>
      <trkpt lat="42.280023000" lon="-2.526295000">
        <ele>860.20</ele>
        <time>2014-11-01T09:48:30Z</time>
      </trkpt>
      <trkpt lat="42.280030000" lon="-2.526296000">
        <ele>860.30</ele>
        <time>2014-11-01T09:48:31Z</time>
      </trkpt>
      <trkpt lat="42.280039000" lon="-2.526300000">
        <ele>860.20</ele>
        <time>2014-11-01T09:48:32Z</time>
      </trkpt>
      <trkpt lat="42.280048000" lon="-2.526303000">
        <ele>860.20</ele>
        <time>2014-11-01T09:48:33Z</time>
      </trkpt>
      <trkpt lat="42.280054000" lon="-2.526309000">
        <ele>860.10</ele>
        <time>2014-11-01T09:48:34Z</time>
      </trkpt>
      <trkpt lat="42.280057000" lon="-2.526315000">
        <ele>860.10</ele>
        <time>2014-11-01T09:48:35Z</time>
      </trkpt>
      <trkpt lat="42.280057000" lon="-2.526320000">
        <ele>860.00</ele>
        <time>2014-11-01T09:48:36Z</time>
      </trkpt>
      <trkpt lat="42.280057000" lon="-2.526324000">
        <ele>860.00</ele>
        <time>2014-11-01T09:48:37Z</time>
      </trkpt>
      <trkpt lat="42.280058000" lon="-2.526324000">
        <ele>860.00</ele>
        <time>2014-11-01T09:48:38Z</time>
      </trkpt>
      <trkpt lat="42.280060000" lon="-2.526319000">
        <ele>860.00</ele>
        <time>2014-11-01T09:48:39Z</time>
      </trkpt>
      <trkpt lat="42.280062000" lon="-2.526313000">
        <ele>859.90</ele>
        <time>2014-11-01T09:48:40Z</time>
      </trkpt>
      <trkpt lat="42.280066000" lon="-2.526310000">
        <ele>859.90</ele>
        <time>2014-11-01T09:48:41Z</time>
      </trkpt>
      <trkpt lat="42.280069000" lon="-2.526312000">
        <ele>859.80</ele>
        <time>2014-11-01T09:48:42Z</time>
      </trkpt>
      <trkpt lat="42.280071000" lon="-2.526316000">
        <ele>859.80</ele>
        <time>2014-11-01T09:48:43Z</time>
      </trkpt>
      <trkpt lat="42.280071000" lon="-2.526320000">
        <ele>859.80</ele>
        <time>2014-11-01T09:48:44Z</time>
      </trkpt>
      <trkpt lat="42.280069000" lon="-2.526322000">
        <ele>859.70</ele>
        <time>2014-11-01T09:48:45Z</time>
      </trkpt>
      <trkpt lat="42.280067000" lon="-2.526320000">
        <ele>859.70</ele>
        <time>2014-11-01T09:48:46Z</time>
      </trkpt>
      <trkpt lat="42.280067000" lon="-2.526317000">
        <ele>859.70</ele>
        <time>2014-11-01T09:48:47Z</time>
      </trkpt>
      <trkpt lat="42.280068000" lon="-2.526314000">
        <ele>859.70</ele>
        <time>2014-11-01T09:48:48Z</time>
      </trkpt>
      <trkpt lat="42.280068000" lon="-2.526311000">
        <ele>859.70</ele>
        <time>2014-11-01T09:48:49Z</time>
      </trkpt>
      <trkpt lat="42.280066000" lon="-2.526310000">
        <ele>859.70</ele>
        <time>2014-11-01T09:48:50Z</time>
      </trkpt>
      <trkpt lat="42.280062000" lon="-2.526313000">
        <ele>859.70</ele>
        <time>2014-11-01T09:48:51Z</time>
      </trkpt>
      <trkpt lat="42.280057000" lon="-2.526317000">
        <ele>859.60</ele>
        <time>2014-11-01T09:48:52Z</time>
      </trkpt>
      <trkpt lat="42.280052000" lon="-2.526320000">
        <ele>859.60</ele>
        <time>2014-11-01T09:48:53Z</time>
      </trkpt>
      <trkpt lat="42.280049000" lon="-2.526321000">
        <ele>859.60</ele>
        <time>2014-11-01T09:48:54Z</time>
      </trkpt>
      <trkpt lat="42.280050000" lon="-2.526321000">
        <ele>859.60</ele>
        <time>2014-11-01T09:48:55Z</time>
      </trkpt>
      <trkpt lat="42.280053000" lon="-2.526322000">
        <ele>859.60</ele>
        <time>2014-11-01T09:48:56Z</time>
      </trkpt>
      <trkpt lat="42.280055000" lon="-2.526321000">
        <ele>859.60</ele>
        <time>2014-11-01T09:48:57Z</time>
      </trkpt>
      <trkpt lat="42.280054000" lon="-2.526322000">
        <ele>859.70</ele>
        <time>2014-11-01T09:48:58Z</time>
      </trkpt>
      <trkpt lat="42.280052000" lon="-2.526325000">
        <ele>859.80</ele>
        <time>2014-11-01T09:48:59Z</time>
      </trkpt>
      <trkpt lat="42.280050000" lon="-2.526328000">
        <ele>859.90</ele>
        <time>2014-11-01T09:49:00Z</time>
      </trkpt>
      <trkpt lat="42.280051000" lon="-2.526332000">
        <ele>860.00</ele>
        <time>2014-11-01T09:49:01Z</time>
      </trkpt>
      <trkpt lat="42.280056000" lon="-2.526333000">
        <ele>860.10</ele>
        <time>2014-11-01T09:49:02Z</time>
      </trkpt>
      <trkpt lat="42.280063000" lon="-2.526331000">
        <ele>860.30</ele>
        <time>2014-11-01T09:49:03Z</time>
      </trkpt>
      <trkpt lat="42.280069000" lon="-2.526327000">
        <ele>860.20</ele>
        <time>2014-11-01T09:49:04Z</time>
      </trkpt>
      <trkpt lat="42.280074000" lon="-2.526324000">
        <ele>860.10</ele>
        <time>2014-11-01T09:49:05Z</time>
      </trkpt>
      <trkpt lat="42.280075000" lon="-2.526322000">
        <ele>860.10</ele>
        <time>2014-11-01T09:49:06Z</time>
      </trkpt>
      <trkpt lat="42.280073000" lon="-2.526321000">
        <ele>860.10</ele>
        <time>2014-11-01T09:49:07Z</time>
      </trkpt>
      <trkpt lat="42.280067000" lon="-2.526322000">
        <ele>860.10</ele>
        <time>2014-11-01T09:49:08Z</time>
      </trkpt>
      <trkpt lat="42.280062000" lon="-2.526320000">
        <ele>860.10</ele>
        <time>2014-11-01T09:49:09Z</time>
      </trkpt>
      <trkpt lat="42.280059000" lon="-2.526318000">
        <ele>860.10</ele>
        <time>2014-11-01T09:49:10Z</time>
      </trkpt>
      <trkpt lat="42.280058000" lon="-2.526306000">
        <ele>860.10</ele>
        <time>2014-11-01T09:49:12Z</time>
      </trkpt>
      <trkpt lat="42.280058000" lon="-2.526299000">
        <ele>860.10</ele>
        <time>2014-11-01T09:49:13Z</time>
      </trkpt>
      <trkpt lat="42.280055000" lon="-2.526294000">
        <ele>860.10</ele>
        <time>2014-11-01T09:49:14Z</time>
      </trkpt>
      <trkpt lat="42.280050000" lon="-2.526291000">
        <ele>860.00</ele>
        <time>2014-11-01T09:49:15Z</time>
      </trkpt>
      <trkpt lat="42.280044000" lon="-2.526290000">
        <ele>859.90</ele>
        <time>2014-11-01T09:49:16Z</time>
      </trkpt>
      <trkpt lat="42.280037000" lon="-2.526292000">
        <ele>859.80</ele>
        <time>2014-11-01T09:49:17Z</time>
      </trkpt>
      <trkpt lat="42.280032000" lon="-2.526294000">
        <ele>859.80</ele>
        <time>2014-11-01T09:49:18Z</time>
      </trkpt>
      <trkpt lat="42.280028000" lon="-2.526297000">
        <ele>859.70</ele>
        <time>2014-11-01T09:49:19Z</time>
      </trkpt>
      <trkpt lat="42.280026000" lon="-2.526298000">
        <ele>859.70</ele>
        <time>2014-11-01T09:49:20Z</time>
      </trkpt>
      <trkpt lat="42.280025000" lon="-2.526297000">
        <ele>859.70</ele>
        <time>2014-11-01T09:49:21Z</time>
      </trkpt>
      <trkpt lat="42.280024000" lon="-2.526296000">
        <ele>859.70</ele>
        <time>2014-11-01T09:49:22Z</time>
      </trkpt>
      <trkpt lat="42.280021000" lon="-2.526294000">
        <ele>859.60</ele>
        <time>2014-11-01T09:49:23Z</time>
      </trkpt>
      <trkpt lat="42.280019000" lon="-2.526293000">
        <ele>859.70</ele>
        <time>2014-11-01T09:49:24Z</time>
      </trkpt>
      <trkpt lat="42.280016000" lon="-2.526293000">
        <ele>859.70</ele>
        <time>2014-11-01T09:49:25Z</time>
      </trkpt>
      <trkpt lat="42.280015000" lon="-2.526295000">
        <ele>859.70</ele>
        <time>2014-11-01T09:49:26Z</time>
      </trkpt>
      <trkpt lat="42.280018000" lon="-2.526298000">
        <ele>859.70</ele>
        <time>2014-11-01T09:49:27Z</time>
      </trkpt>
      <trkpt lat="42.280024000" lon="-2.526302000">
        <ele>859.60</ele>
        <time>2014-11-01T09:49:28Z</time>
      </trkpt>
      <trkpt lat="42.280030000" lon="-2.526308000">
        <ele>859.50</ele>
        <time>2014-11-01T09:49:29Z</time>
      </trkpt>
      <trkpt lat="42.280035000" lon="-2.526312000">
        <ele>859.50</ele>
        <time>2014-11-01T09:49:30Z</time>
      </trkpt>
      <trkpt lat="42.280037000" lon="-2.526316000">
        <ele>859.40</ele>
        <time>2014-11-01T09:49:31Z</time>
      </trkpt>
      <trkpt lat="42.280035000" lon="-2.526319000">
        <ele>859.40</ele>
        <time>2014-11-01T09:49:32Z</time>
      </trkpt>
      <trkpt lat="42.280032000" lon="-2.526322000">
        <ele>859.40</ele>
        <time>2014-11-01T09:49:33Z</time>
      </trkpt>
      <trkpt lat="42.280029000" lon="-2.526325000">
        <ele>859.50</ele>
        <time>2014-11-01T09:49:34Z</time>
      </trkpt>
      <trkpt lat="42.280029000" lon="-2.526328000">
        <ele>859.60</ele>
        <time>2014-11-01T09:49:35Z</time>
      </trkpt>
      <trkpt lat="42.280033000" lon="-2.526332000">
        <ele>859.70</ele>
        <time>2014-11-01T09:49:36Z</time>
      </trkpt>
      <trkpt lat="42.280034000" lon="-2.526338000">
        <ele>859.70</ele>
        <time>2014-11-01T09:49:37Z</time>
      </trkpt>
      <trkpt lat="42.280035000" lon="-2.526343000">
        <ele>859.80</ele>
        <time>2014-11-01T09:49:38Z</time>
      </trkpt>
      <trkpt lat="42.280036000" lon="-2.526347000">
        <ele>859.90</ele>
        <time>2014-11-01T09:49:39Z</time>
      </trkpt>
      <trkpt lat="42.280039000" lon="-2.526349000">
        <ele>860.00</ele>
        <time>2014-11-01T09:49:40Z</time>
      </trkpt>
      <trkpt lat="42.280036000" lon="-2.526351000">
        <ele>860.00</ele>
        <time>2014-11-01T09:49:41Z</time>
      </trkpt>
      <trkpt lat="42.280031000" lon="-2.526351000">
        <ele>860.00</ele>
        <time>2014-11-01T09:49:42Z</time>
      </trkpt>
      <trkpt lat="42.280027000" lon="-2.526348000">
        <ele>859.90</ele>
        <time>2014-11-01T09:49:43Z</time>
      </trkpt>
      <trkpt lat="42.280021000" lon="-2.526346000">
        <ele>859.80</ele>
        <time>2014-11-01T09:49:44Z</time>
      </trkpt>
      <trkpt lat="42.280015000" lon="-2.526345000">
        <ele>859.80</ele>
        <time>2014-11-01T09:49:45Z</time>
      </trkpt>
      <trkpt lat="42.280013000" lon="-2.526346000">
        <ele>859.80</ele>
        <time>2014-11-01T09:49:46Z</time>
      </trkpt>
      <trkpt lat="42.280013000" lon="-2.526348000">
        <ele>859.80</ele>
        <time>2014-11-01T09:49:47Z</time>
      </trkpt>
      <trkpt lat="42.280014000" lon="-2.526349000">
        <ele>860.00</ele>
        <time>2014-11-01T09:49:48Z</time>
      </trkpt>
      <trkpt lat="42.280015000" lon="-2.526353000">
        <ele>860.20</ele>
        <time>2014-11-01T09:49:49Z</time>
      </trkpt>
      <trkpt lat="42.280018000" lon="-2.526357000">
        <ele>860.30</ele>
        <time>2014-11-01T09:49:50Z</time>
      </trkpt>
      <trkpt lat="42.280023000" lon="-2.526360000">
        <ele>860.30</ele>
        <time>2014-11-01T09:49:51Z</time>
      </trkpt>
      <trkpt lat="42.280032000" lon="-2.526362000">
        <ele>860.20</ele>
        <time>2014-11-01T09:49:52Z</time>
      </trkpt>
      <trkpt lat="42.280041000" lon="-2.526365000">
        <ele>860.10</ele>
        <time>2014-11-01T09:49:53Z</time>
      </trkpt>
      <trkpt lat="42.280048000" lon="-2.526368000">
        <ele>860.00</ele>
        <time>2014-11-01T09:49:54Z</time>
      </trkpt>
      <trkpt lat="42.280054000" lon="-2.526371000">
        <ele>860.00</ele>
        <time>2014-11-01T09:49:55Z</time>
      </trkpt>
      <trkpt lat="42.280058000" lon="-2.526372000">
        <ele>859.90</ele>
        <time>2014-11-01T09:49:56Z</time>
      </trkpt>
      <trkpt lat="42.280060000" lon="-2.526372000">
        <ele>859.90</ele>
        <time>2014-11-01T09:49:57Z</time>
      </trkpt>
      <trkpt lat="42.280061000" lon="-2.526370000">
        <ele>859.90</ele>
        <time>2014-11-01T09:49:58Z</time>
      </trkpt>
      <trkpt lat="42.280063000" lon="-2.526368000">
        <ele>859.80</ele>
        <time>2014-11-01T09:49:59Z</time>
      </trkpt>
      <trkpt lat="42.280063000" lon="-2.526363000">
        <ele>860.10</ele>
        <time>2014-11-01T09:50:00Z</time>
      </trkpt>
      <trkpt lat="42.280061000" lon="-2.526359000">
        <ele>860.20</ele>
        <time>2014-11-01T09:50:01Z</time>
      </trkpt>
      <trkpt lat="42.280058000" lon="-2.526357000">
        <ele>860.00</ele>
        <time>2014-11-01T09:50:02Z</time>
      </trkpt>
      <trkpt lat="42.280056000" lon="-2.526356000">
        <ele>859.90</ele>
        <time>2014-11-01T09:50:03Z</time>
      </trkpt>
      <trkpt lat="42.280057000" lon="-2.526356000">
        <ele>859.80</ele>
        <time>2014-11-01T09:50:04Z</time>
      </trkpt>
      <trkpt lat="42.280060000" lon="-2.526356000">
        <ele>859.70</ele>
        <time>2014-11-01T09:50:05Z</time>
      </trkpt>
      <trkpt lat="42.280063000" lon="-2.526355000">
        <ele>859.60</ele>
        <time>2014-11-01T09:50:06Z</time>
      </trkpt>
      <trkpt lat="42.280067000" lon="-2.526353000">
        <ele>859.50</ele>
        <time>2014-11-01T09:50:07Z</time>
      </trkpt>
      <trkpt lat="42.280066000" lon="-2.526351000">
        <ele>859.60</ele>
        <time>2014-11-01T09:50:08Z</time>
      </trkpt>
      <trkpt lat="42.280063000" lon="-2.526349000">
        <ele>859.60</ele>
        <time>2014-11-01T09:50:09Z</time>
      </trkpt>
      <trkpt lat="42.280058000" lon="-2.526348000">
        <ele>859.70</ele>
        <time>2014-11-01T09:50:10Z</time>
      </trkpt>
      <trkpt lat="42.280052000" lon="-2.526349000">
        <ele>859.70</ele>
        <time>2014-11-01T09:50:11Z</time>
      </trkpt>
      <trkpt lat="42.280049000" lon="-2.526351000">
        <ele>859.70</ele>
        <time>2014-11-01T09:50:13Z</time>
      </trkpt>
      <trkpt lat="42.280051000" lon="-2.526352000">
        <ele>859.80</ele>
        <time>2014-11-01T09:50:14Z</time>
      </trkpt>
      <trkpt lat="42.280057000" lon="-2.526348000">
        <ele>859.80</ele>
        <time>2014-11-01T09:50:15Z</time>
      </trkpt>
      <trkpt lat="42.280061000" lon="-2.526346000">
        <ele>859.80</ele>
        <time>2014-11-01T09:50:16Z</time>
      </trkpt>
      <trkpt lat="42.280061000" lon="-2.526345000">
        <ele>859.80</ele>
        <time>2014-11-01T09:50:17Z</time>
      </trkpt>
      <trkpt lat="42.280059000" lon="-2.526347000">
        <ele>859.80</ele>
        <time>2014-11-01T09:50:18Z</time>
      </trkpt>
      <trkpt lat="42.280054000" lon="-2.526351000">
        <ele>859.80</ele>
        <time>2014-11-01T09:50:19Z</time>
      </trkpt>
      <trkpt lat="42.280049000" lon="-2.526353000">
        <ele>859.90</ele>
        <time>2014-11-01T09:50:20Z</time>
      </trkpt>
      <trkpt lat="42.280047000" lon="-2.526352000">
        <ele>859.90</ele>
        <time>2014-11-01T09:50:21Z</time>
      </trkpt>
      <trkpt lat="42.280050000" lon="-2.526354000">
        <ele>859.90</ele>
        <time>2014-11-01T09:50:22Z</time>
      </trkpt>
      <trkpt lat="42.280056000" lon="-2.526356000">
        <ele>859.90</ele>
        <time>2014-11-01T09:50:23Z</time>
      </trkpt>
      <trkpt lat="42.280061000" lon="-2.526360000">
        <ele>859.80</ele>
        <time>2014-11-01T09:50:24Z</time>
      </trkpt>
      <trkpt lat="42.280063000" lon="-2.526364000">
        <ele>859.80</ele>
        <time>2014-11-01T09:50:25Z</time>
      </trkpt>
      <trkpt lat="42.280060000" lon="-2.526367000">
        <ele>859.80</ele>
        <time>2014-11-01T09:50:26Z</time>
      </trkpt>
      <trkpt lat="42.280057000" lon="-2.526366000">
        <ele>859.80</ele>
        <time>2014-11-01T09:50:27Z</time>
      </trkpt>
      <trkpt lat="42.280049000" lon="-2.526366000">
        <ele>859.80</ele>
        <time>2014-11-01T09:50:28Z</time>
      </trkpt>
      <trkpt lat="42.280043000" lon="-2.526363000">
        <ele>859.80</ele>
        <time>2014-11-01T09:50:29Z</time>
      </trkpt>
      <trkpt lat="42.280041000" lon="-2.526359000">
        <ele>859.70</ele>
        <time>2014-11-01T09:50:30Z</time>
      </trkpt>
      <trkpt lat="42.280043000" lon="-2.526355000">
        <ele>859.60</ele>
        <time>2014-11-01T09:50:31Z</time>
      </trkpt>
      <trkpt lat="42.280047000" lon="-2.526352000">
        <ele>859.50</ele>
        <time>2014-11-01T09:50:32Z</time>
      </trkpt>
      <trkpt lat="42.280050000" lon="-2.526350000">
        <ele>859.50</ele>
        <time>2014-11-01T09:50:33Z</time>
      </trkpt>
      <trkpt lat="42.280051000" lon="-2.526350000">
        <ele>859.40</ele>
        <time>2014-11-01T09:50:34Z</time>
      </trkpt>
      <trkpt lat="42.280052000" lon="-2.526350000">
        <ele>859.40</ele>
        <time>2014-11-01T09:50:35Z</time>
      </trkpt>
      <trkpt lat="42.280051000" lon="-2.526349000">
        <ele>859.40</ele>
        <time>2014-11-01T09:50:36Z</time>
      </trkpt>
      <trkpt lat="42.280050000" lon="-2.526346000">
        <ele>859.40</ele>
        <time>2014-11-01T09:50:37Z</time>
      </trkpt>
      <trkpt lat="42.280049000" lon="-2.526342000">
        <ele>859.50</ele>
        <time>2014-11-01T09:50:38Z</time>
      </trkpt>
      <trkpt lat="42.280049000" lon="-2.526336000">
        <ele>859.50</ele>
        <time>2014-11-01T09:50:39Z</time>
      </trkpt>
      <trkpt lat="42.280049000" lon="-2.526331000">
        <ele>859.50</ele>
        <time>2014-11-01T09:50:40Z</time>
      </trkpt>
      <trkpt lat="42.280048000" lon="-2.526329000">
        <ele>859.50</ele>
        <time>2014-11-01T09:50:41Z</time>
      </trkpt>
      <trkpt lat="42.280047000" lon="-2.526328000">
        <ele>859.50</ele>
        <time>2014-11-01T09:50:42Z</time>
      </trkpt>
      <trkpt lat="42.280049000" lon="-2.526326000">
        <ele>859.50</ele>
        <time>2014-11-01T09:50:43Z</time>
      </trkpt>
      <trkpt lat="42.280052000" lon="-2.526323000">
        <ele>859.50</ele>
        <time>2014-11-01T09:50:44Z</time>
      </trkpt>
      <trkpt lat="42.280053000" lon="-2.526321000">
        <ele>859.50</ele>
        <time>2014-11-01T09:50:45Z</time>
      </trkpt>
      <trkpt lat="42.280052000" lon="-2.526320000">
        <ele>859.50</ele>
        <time>2014-11-01T09:50:46Z</time>
      </trkpt>
      <trkpt lat="42.280053000" lon="-2.526320000">
        <ele>859.50</ele>
        <time>2014-11-01T09:50:47Z</time>
      </trkpt>
      <trkpt lat="42.280044000" lon="-2.526325000">
        <ele>859.50</ele>
        <time>2014-11-01T09:50:48Z</time>
      </trkpt>
      <trkpt lat="42.280036000" lon="-2.526328000">
        <ele>859.50</ele>
        <time>2014-11-01T09:50:49Z</time>
      </trkpt>
      <trkpt lat="42.280029000" lon="-2.526328000">
        <ele>859.50</ele>
        <time>2014-11-01T09:50:50Z</time>
      </trkpt>
      <trkpt lat="42.280025000" lon="-2.526328000">
        <ele>859.50</ele>
        <time>2014-11-01T09:50:51Z</time>
      </trkpt>
      <trkpt lat="42.280024000" lon="-2.526327000">
        <ele>859.50</ele>
        <time>2014-11-01T09:50:52Z</time>
      </trkpt>
      <trkpt lat="42.280022000" lon="-2.526326000">
        <ele>859.50</ele>
        <time>2014-11-01T09:50:53Z</time>
      </trkpt>
      <trkpt lat="42.280019000" lon="-2.526327000">
        <ele>859.50</ele>
        <time>2014-11-01T09:50:54Z</time>
      </trkpt>
      <trkpt lat="42.280015000" lon="-2.526329000">
        <ele>859.50</ele>
        <time>2014-11-01T09:50:55Z</time>
      </trkpt>
      <trkpt lat="42.280011000" lon="-2.526332000">
        <ele>859.50</ele>
        <time>2014-11-01T09:50:56Z</time>
      </trkpt>
      <trkpt lat="42.280007000" lon="-2.526333000">
        <ele>859.40</ele>
        <time>2014-11-01T09:50:57Z</time>
      </trkpt>
      <trkpt lat="42.280005000" lon="-2.526333000">
        <ele>859.50</ele>
        <time>2014-11-01T09:50:58Z</time>
      </trkpt>
      <trkpt lat="42.280006000" lon="-2.526332000">
        <ele>859.50</ele>
        <time>2014-11-01T09:50:59Z</time>
      </trkpt>
      <trkpt lat="42.280009000" lon="-2.526329000">
        <ele>859.60</ele>
        <time>2014-11-01T09:51:00Z</time>
      </trkpt>
      <trkpt lat="42.280015000" lon="-2.526326000">
        <ele>859.60</ele>
        <time>2014-11-01T09:51:01Z</time>
      </trkpt>
      <trkpt lat="42.280020000" lon="-2.526325000">
        <ele>859.70</ele>
        <time>2014-11-01T09:51:02Z</time>
      </trkpt>
      <trkpt lat="42.280025000" lon="-2.526324000">
        <ele>859.70</ele>
        <time>2014-11-01T09:51:03Z</time>
      </trkpt>
      <trkpt lat="42.280028000" lon="-2.526325000">
        <ele>859.70</ele>
        <time>2014-11-01T09:51:04Z</time>
      </trkpt>
      <trkpt lat="42.280028000" lon="-2.526328000">
        <ele>859.70</ele>
        <time>2014-11-01T09:51:05Z</time>
      </trkpt>
      <trkpt lat="42.280029000" lon="-2.526333000">
        <ele>859.60</ele>
        <time>2014-11-01T09:51:06Z</time>
      </trkpt>
      <trkpt lat="42.280031000" lon="-2.526338000">
        <ele>859.50</ele>
        <time>2014-11-01T09:51:07Z</time>
      </trkpt>
      <trkpt lat="42.280033000" lon="-2.526342000">
        <ele>859.50</ele>
        <time>2014-11-01T09:51:08Z</time>
      </trkpt>
      <trkpt lat="42.280036000" lon="-2.526346000">
        <ele>859.40</ele>
        <time>2014-11-01T09:51:09Z</time>
      </trkpt>
      <trkpt lat="42.280037000" lon="-2.526348000">
        <ele>859.50</ele>
        <time>2014-11-01T09:51:10Z</time>
      </trkpt>
      <trkpt lat="42.280039000" lon="-2.526348000">
        <ele>859.50</ele>
        <time>2014-11-01T09:51:11Z</time>
      </trkpt>
      <trkpt lat="42.280040000" lon="-2.526347000">
        <ele>859.50</ele>
        <time>2014-11-01T09:51:12Z</time>
      </trkpt>
      <trkpt lat="42.280036000" lon="-2.526346000">
        <ele>859.40</ele>
        <time>2014-11-01T09:51:14Z</time>
      </trkpt>
      <trkpt lat="42.280030000" lon="-2.526348000">
        <ele>859.30</ele>
        <time>2014-11-01T09:51:15Z</time>
      </trkpt>
      <trkpt lat="42.280024000" lon="-2.526350000">
        <ele>859.30</ele>
        <time>2014-11-01T09:51:16Z</time>
      </trkpt>
      <trkpt lat="42.280021000" lon="-2.526354000">
        <ele>859.20</ele>
        <time>2014-11-01T09:51:17Z</time>
      </trkpt>
      <trkpt lat="42.280021000" lon="-2.526357000">
        <ele>859.20</ele>
        <time>2014-11-01T09:51:18Z</time>
      </trkpt>
      <trkpt lat="42.280023000" lon="-2.526359000">
        <ele>859.20</ele>
        <time>2014-11-01T09:51:19Z</time>
      </trkpt>
      <trkpt lat="42.280026000" lon="-2.526360000">
        <ele>859.30</ele>
        <time>2014-11-01T09:51:20Z</time>
      </trkpt>
      <trkpt lat="42.280027000" lon="-2.526359000">
        <ele>859.40</ele>
        <time>2014-11-01T09:51:21Z</time>
      </trkpt>
      <trkpt lat="42.280024000" lon="-2.526359000">
        <ele>859.40</ele>
        <time>2014-11-01T09:51:22Z</time>
      </trkpt>
      <trkpt lat="42.280020000" lon="-2.526359000">
        <ele>859.50</ele>
        <time>2014-11-01T09:51:23Z</time>
      </trkpt>
      <trkpt lat="42.280016000" lon="-2.526361000">
        <ele>859.50</ele>
        <time>2014-11-01T09:51:24Z</time>
      </trkpt>
      <trkpt lat="42.280013000" lon="-2.526364000">
        <ele>859.50</ele>
        <time>2014-11-01T09:51:25Z</time>
      </trkpt>
      <trkpt lat="42.280011000" lon="-2.526368000">
        <ele>859.50</ele>
        <time>2014-11-01T09:51:26Z</time>
      </trkpt>
      <trkpt lat="42.280010000" lon="-2.526371000">
        <ele>859.60</ele>
        <time>2014-11-01T09:51:27Z</time>
      </trkpt>
      <trkpt lat="42.280010000" lon="-2.526373000">
        <ele>859.60</ele>
        <time>2014-11-01T09:51:28Z</time>
      </trkpt>
      <trkpt lat="42.280009000" lon="-2.526374000">
        <ele>859.60</ele>
        <time>2014-11-01T09:51:29Z</time>
      </trkpt>
      <trkpt lat="42.280009000" lon="-2.526374000">
        <ele>859.60</ele>
        <time>2014-11-01T09:51:30Z</time>
      </trkpt>
      <trkpt lat="42.280009000" lon="-2.526373000">
        <ele>859.60</ele>
        <time>2014-11-01T09:51:31Z</time>
      </trkpt>
      <trkpt lat="42.280008000" lon="-2.526369000">
        <ele>859.70</ele>
        <time>2014-11-01T09:51:32Z</time>
      </trkpt>
      <trkpt lat="42.280008000" lon="-2.526363000">
        <ele>859.70</ele>
        <time>2014-11-01T09:51:33Z</time>
      </trkpt>
      <trkpt lat="42.280005000" lon="-2.526348000">
        <ele>859.70</ele>
        <time>2014-11-01T09:51:34Z</time>
      </trkpt>
      <trkpt lat="42.280006000" lon="-2.526340000">
        <ele>859.70</ele>
        <time>2014-11-01T09:51:35Z</time>
      </trkpt>
      <trkpt lat="42.280008000" lon="-2.526336000">
        <ele>859.70</ele>
        <time>2014-11-01T09:51:36Z</time>
      </trkpt>
      <trkpt lat="42.280006000" lon="-2.526339000">
        <ele>859.80</ele>
        <time>2014-11-01T09:51:37Z</time>
      </trkpt>
      <trkpt lat="42.280005000" lon="-2.526342000">
        <ele>859.80</ele>
        <time>2014-11-01T09:51:38Z</time>
      </trkpt>
      <trkpt lat="42.280009000" lon="-2.526344000">
        <ele>859.80</ele>
        <time>2014-11-01T09:51:39Z</time>
      </trkpt>
      <trkpt lat="42.280030000" lon="-2.526321000">
        <ele>859.90</ele>
        <time>2014-11-01T09:51:40Z</time>
      </trkpt>
      <trkpt lat="42.280042000" lon="-2.526319000">
        <ele>860.00</ele>
        <time>2014-11-01T09:51:41Z</time>
      </trkpt>
      <trkpt lat="42.280053000" lon="-2.526305000">
        <ele>860.00</ele>
        <time>2014-11-01T09:51:42Z</time>
      </trkpt>
      <trkpt lat="42.280052000" lon="-2.526301000">
        <ele>860.00</ele>
        <time>2014-11-01T09:51:43Z</time>
      </trkpt>
      <trkpt lat="42.280054000" lon="-2.526275000">
        <ele>860.20</ele>
        <time>2014-11-01T09:51:44Z</time>
      </trkpt>
      <trkpt lat="42.280052000" lon="-2.526263000">
        <ele>860.30</ele>
        <time>2014-11-01T09:51:45Z</time>
      </trkpt>
      <trkpt lat="42.280048000" lon="-2.526274000">
        <ele>860.10</ele>
        <time>2014-11-01T09:51:46Z</time>
      </trkpt>
      <trkpt lat="42.280058000" lon="-2.526271000">
        <ele>860.00</ele>
        <time>2014-11-01T09:51:47Z</time>
      </trkpt>
      <trkpt lat="42.280065000" lon="-2.526263000">
        <ele>860.20</ele>
        <time>2014-11-01T09:51:48Z</time>
      </trkpt>
      <trkpt lat="42.280079000" lon="-2.526262000">
        <ele>860.30</ele>
        <time>2014-11-01T09:51:49Z</time>
      </trkpt>
      <trkpt lat="42.280092000" lon="-2.526262000">
        <ele>860.40</ele>
        <time>2014-11-01T09:51:50Z</time>
      </trkpt>
      <trkpt lat="42.280099000" lon="-2.526265000">
        <ele>860.50</ele>
        <time>2014-11-01T09:51:51Z</time>
      </trkpt>
      <trkpt lat="42.280101000" lon="-2.526270000">
        <ele>860.50</ele>
        <time>2014-11-01T09:51:52Z</time>
      </trkpt>
      <trkpt lat="42.280100000" lon="-2.526272000">
        <ele>860.60</ele>
        <time>2014-11-01T09:51:53Z</time>
      </trkpt>
      <trkpt lat="42.280096000" lon="-2.526275000">
        <ele>860.30</ele>
        <time>2014-11-01T09:51:54Z</time>
      </trkpt>
      <trkpt lat="42.280089000" lon="-2.526278000">
        <ele>860.10</ele>
        <time>2014-11-01T09:51:55Z</time>
      </trkpt>
      <trkpt lat="42.280086000" lon="-2.526280000">
        <ele>860.00</ele>
        <time>2014-11-01T09:51:56Z</time>
      </trkpt>
      <trkpt lat="42.280086000" lon="-2.526282000">
        <ele>859.80</ele>
        <time>2014-11-01T09:51:57Z</time>
      </trkpt>
      <trkpt lat="42.280087000" lon="-2.526285000">
        <ele>859.80</ele>
        <time>2014-11-01T09:51:58Z</time>
      </trkpt>
      <trkpt lat="42.280089000" lon="-2.526289000">
        <ele>859.70</ele>
        <time>2014-11-01T09:51:59Z</time>
      </trkpt>
      <trkpt lat="42.280088000" lon="-2.526291000">
        <ele>859.80</ele>
        <time>2014-11-01T09:52:00Z</time>
      </trkpt>
      <trkpt lat="42.280086000" lon="-2.526292000">
        <ele>859.80</ele>
        <time>2014-11-01T09:52:01Z</time>
      </trkpt>
      <trkpt lat="42.280080000" lon="-2.526291000">
        <ele>859.90</ele>
        <time>2014-11-01T09:52:02Z</time>
      </trkpt>
      <trkpt lat="42.280072000" lon="-2.526291000">
        <ele>859.90</ele>
        <time>2014-11-01T09:52:03Z</time>
      </trkpt>
      <trkpt lat="42.280063000" lon="-2.526291000">
        <ele>860.00</ele>
        <time>2014-11-01T09:52:04Z</time>
      </trkpt>
      <trkpt lat="42.280056000" lon="-2.526291000">
        <ele>860.00</ele>
        <time>2014-11-01T09:52:05Z</time>
      </trkpt>
      <trkpt lat="42.280052000" lon="-2.526293000">
        <ele>859.90</ele>
        <time>2014-11-01T09:52:06Z</time>
      </trkpt>
      <trkpt lat="42.280053000" lon="-2.526291000">
        <ele>859.80</ele>
        <time>2014-11-01T09:52:07Z</time>
      </trkpt>
      <trkpt lat="42.280058000" lon="-2.526290000">
        <ele>859.70</ele>
        <time>2014-11-01T09:52:08Z</time>
      </trkpt>
      <trkpt lat="42.280059000" lon="-2.526296000">
        <ele>859.70</ele>
        <time>2014-11-01T09:52:09Z</time>
      </trkpt>
      <trkpt lat="42.280063000" lon="-2.526299000">
        <ele>859.60</ele>
        <time>2014-11-01T09:52:10Z</time>
      </trkpt>
      <trkpt lat="42.280064000" lon="-2.526302000">
        <ele>859.60</ele>
        <time>2014-11-01T09:52:11Z</time>
      </trkpt>
      <trkpt lat="42.280063000" lon="-2.526306000">
        <ele>859.60</ele>
        <time>2014-11-01T09:52:12Z</time>
      </trkpt>
      <trkpt lat="42.280060000" lon="-2.526308000">
        <ele>859.60</ele>
        <time>2014-11-01T09:52:13Z</time>
      </trkpt>
      <trkpt lat="42.280060000" lon="-2.526308000">
        <ele>859.50</ele>
        <time>2014-11-01T09:52:15Z</time>
      </trkpt>
      <trkpt lat="42.280059000" lon="-2.526309000">
        <ele>859.70</ele>
        <time>2014-11-01T09:52:16Z</time>
      </trkpt>
      <trkpt lat="42.280063000" lon="-2.526311000">
        <ele>859.80</ele>
        <time>2014-11-01T09:52:17Z</time>
      </trkpt>
      <trkpt lat="42.280071000" lon="-2.526309000">
        <ele>859.90</ele>
        <time>2014-11-01T09:52:18Z</time>
      </trkpt>
      <trkpt lat="42.280078000" lon="-2.526308000">
        <ele>859.90</ele>
        <time>2014-11-01T09:52:19Z</time>
      </trkpt>
      <trkpt lat="42.280081000" lon="-2.526306000">
        <ele>860.00</ele>
        <time>2014-11-01T09:52:20Z</time>
      </trkpt>
      <trkpt lat="42.280083000" lon="-2.526302000">
        <ele>860.00</ele>
        <time>2014-11-01T09:52:21Z</time>
      </trkpt>
      <trkpt lat="42.280078000" lon="-2.526302000">
        <ele>860.00</ele>
        <time>2014-11-01T09:52:22Z</time>
      </trkpt>
      <trkpt lat="42.280075000" lon="-2.526303000">
        <ele>860.00</ele>
        <time>2014-11-01T09:52:23Z</time>
      </trkpt>
      <trkpt lat="42.280081000" lon="-2.526305000">
        <ele>859.90</ele>
        <time>2014-11-01T09:52:24Z</time>
      </trkpt>
      <trkpt lat="42.280085000" lon="-2.526306000">
        <ele>859.80</ele>
        <time>2014-11-01T09:52:25Z</time>
      </trkpt>
      <trkpt lat="42.280089000" lon="-2.526309000">
        <ele>859.90</ele>
        <time>2014-11-01T09:52:26Z</time>
      </trkpt>
      <trkpt lat="42.280092000" lon="-2.526309000">
        <ele>859.90</ele>
        <time>2014-11-01T09:52:27Z</time>
      </trkpt>
      <trkpt lat="42.280096000" lon="-2.526307000">
        <ele>860.00</ele>
        <time>2014-11-01T09:52:28Z</time>
      </trkpt>
      <trkpt lat="42.280086000" lon="-2.526303000">
        <ele>860.00</ele>
        <time>2014-11-01T09:52:29Z</time>
      </trkpt>
      <trkpt lat="42.280084000" lon="-2.526298000">
        <ele>860.00</ele>
        <time>2014-11-01T09:52:30Z</time>
      </trkpt>
      <trkpt lat="42.280079000" lon="-2.526300000">
        <ele>860.00</ele>
        <time>2014-11-01T09:52:31Z</time>
      </trkpt>
      <trkpt lat="42.280073000" lon="-2.526306000">
        <ele>860.00</ele>
        <time>2014-11-01T09:52:32Z</time>
      </trkpt>
      <trkpt lat="42.280071000" lon="-2.526310000">
        <ele>860.00</ele>
        <time>2014-11-01T09:52:33Z</time>
      </trkpt>
      <trkpt lat="42.280072000" lon="-2.526314000">
        <ele>860.00</ele>
        <time>2014-11-01T09:52:34Z</time>
      </trkpt>
      <trkpt lat="42.280076000" lon="-2.526319000">
        <ele>860.00</ele>
        <time>2014-11-01T09:52:35Z</time>
      </trkpt>
      <trkpt lat="42.280083000" lon="-2.526324000">
        <ele>860.00</ele>
        <time>2014-11-01T09:52:36Z</time>
      </trkpt>
      <trkpt lat="42.280092000" lon="-2.526324000">
        <ele>859.90</ele>
        <time>2014-11-01T09:52:37Z</time>
      </trkpt>
      <trkpt lat="42.280097000" lon="-2.526322000">
        <ele>859.80</ele>
        <time>2014-11-01T09:52:38Z</time>
      </trkpt>
      <trkpt lat="42.280098000" lon="-2.526319000">
        <ele>859.80</ele>
        <time>2014-11-01T09:52:39Z</time>
      </trkpt>
      <trkpt lat="42.280096000" lon="-2.526314000">
        <ele>859.70</ele>
        <time>2014-11-01T09:52:40Z</time>
      </trkpt>
      <trkpt lat="42.280093000" lon="-2.526310000">
        <ele>859.70</ele>
        <time>2014-11-01T09:52:41Z</time>
      </trkpt>
      <trkpt lat="42.280091000" lon="-2.526309000">
        <ele>859.70</ele>
        <time>2014-11-01T09:52:42Z</time>
      </trkpt>
      <trkpt lat="42.280091000" lon="-2.526310000">
        <ele>859.70</ele>
        <time>2014-11-01T09:52:43Z</time>
      </trkpt>
      <trkpt lat="42.280094000" lon="-2.526313000">
        <ele>859.80</ele>
        <time>2014-11-01T09:52:44Z</time>
      </trkpt>
      <trkpt lat="42.280098000" lon="-2.526315000">
        <ele>859.80</ele>
        <time>2014-11-01T09:52:45Z</time>
      </trkpt>
      <trkpt lat="42.280103000" lon="-2.526316000">
        <ele>859.80</ele>
        <time>2014-11-01T09:52:46Z</time>
      </trkpt>
      <trkpt lat="42.280104000" lon="-2.526316000">
        <ele>859.80</ele>
        <time>2014-11-01T09:52:47Z</time>
      </trkpt>
      <trkpt lat="42.280103000" lon="-2.526315000">
        <ele>859.80</ele>
        <time>2014-11-01T09:52:48Z</time>
      </trkpt>
      <trkpt lat="42.280099000" lon="-2.526312000">
        <ele>859.80</ele>
        <time>2014-11-01T09:52:49Z</time>
      </trkpt>
      <trkpt lat="42.280095000" lon="-2.526308000">
        <ele>859.80</ele>
        <time>2014-11-01T09:52:50Z</time>
      </trkpt>
      <trkpt lat="42.280093000" lon="-2.526304000">
        <ele>859.80</ele>
        <time>2014-11-01T09:52:51Z</time>
      </trkpt>
      <trkpt lat="42.280093000" lon="-2.526302000">
        <ele>859.70</ele>
        <time>2014-11-01T09:52:52Z</time>
      </trkpt>
      <trkpt lat="42.280093000" lon="-2.526302000">
        <ele>859.70</ele>
        <time>2014-11-01T09:52:53Z</time>
      </trkpt>
      <trkpt lat="42.280095000" lon="-2.526304000">
        <ele>859.60</ele>
        <time>2014-11-01T09:52:54Z</time>
      </trkpt>
      <trkpt lat="42.280096000" lon="-2.526307000">
        <ele>859.60</ele>
        <time>2014-11-01T09:52:55Z</time>
      </trkpt>
      <trkpt lat="42.280093000" lon="-2.526315000">
        <ele>859.60</ele>
        <time>2014-11-01T09:52:56Z</time>
      </trkpt>
      <trkpt lat="42.280088000" lon="-2.526321000">
        <ele>859.60</ele>
        <time>2014-11-01T09:52:57Z</time>
      </trkpt>
      <trkpt lat="42.280083000" lon="-2.526326000">
        <ele>859.60</ele>
        <time>2014-11-01T09:52:58Z</time>
      </trkpt>
      <trkpt lat="42.280082000" lon="-2.526326000">
        <ele>859.70</ele>
        <time>2014-11-01T09:52:59Z</time>
      </trkpt>
      <trkpt lat="42.280083000" lon="-2.526323000">
        <ele>859.80</ele>
        <time>2014-11-01T09:53:00Z</time>
      </trkpt>
      <trkpt lat="42.280084000" lon="-2.526321000">
        <ele>859.80</ele>
        <time>2014-11-01T09:53:01Z</time>
      </trkpt>
      <trkpt lat="42.280086000" lon="-2.526319000">
        <ele>859.90</ele>
        <time>2014-11-01T09:53:02Z</time>
      </trkpt>
      <trkpt lat="42.280088000" lon="-2.526318000">
        <ele>859.90</ele>
        <time>2014-11-01T09:53:03Z</time>
      </trkpt>
      <trkpt lat="42.280089000" lon="-2.526318000">
        <ele>859.90</ele>
        <time>2014-11-01T09:53:04Z</time>
      </trkpt>
      <trkpt lat="42.280090000" lon="-2.526320000">
        <ele>859.90</ele>
        <time>2014-11-01T09:53:05Z</time>
      </trkpt>
      <trkpt lat="42.280094000" lon="-2.526322000">
        <ele>859.90</ele>
        <time>2014-11-01T09:53:06Z</time>
      </trkpt>
      <trkpt lat="42.280101000" lon="-2.526323000">
        <ele>859.90</ele>
        <time>2014-11-01T09:53:07Z</time>
      </trkpt>
      <trkpt lat="42.280108000" lon="-2.526325000">
        <ele>859.80</ele>
        <time>2014-11-01T09:53:08Z</time>
      </trkpt>
      <trkpt lat="42.280113000" lon="-2.526328000">
        <ele>859.80</ele>
        <time>2014-11-01T09:53:09Z</time>
      </trkpt>
      <trkpt lat="42.280113000" lon="-2.526334000">
        <ele>859.80</ele>
        <time>2014-11-01T09:53:10Z</time>
      </trkpt>
      <trkpt lat="42.280106000" lon="-2.526342000">
        <ele>859.80</ele>
        <time>2014-11-01T09:53:11Z</time>
      </trkpt>
      <trkpt lat="42.280096000" lon="-2.526351000">
        <ele>859.70</ele>
        <time>2014-11-01T09:53:12Z</time>
      </trkpt>
      <trkpt lat="42.280087000" lon="-2.526360000">
        <ele>859.60</ele>
        <time>2014-11-01T09:53:13Z</time>
      </trkpt>
      <trkpt lat="42.280083000" lon="-2.526367000">
        <ele>859.50</ele>
        <time>2014-11-01T09:53:14Z</time>
      </trkpt>
      <trkpt lat="42.280093000" lon="-2.526377000">
        <ele>859.40</ele>
        <time>2014-11-01T09:53:16Z</time>
      </trkpt>
      <trkpt lat="42.280096000" lon="-2.526382000">
        <ele>859.50</ele>
        <time>2014-11-01T09:53:17Z</time>
      </trkpt>
      <trkpt lat="42.280094000" lon="-2.526388000">
        <ele>859.70</ele>
        <time>2014-11-01T09:53:18Z</time>
      </trkpt>
      <trkpt lat="42.280087000" lon="-2.526392000">
        <ele>860.00</ele>
        <time>2014-11-01T09:53:19Z</time>
      </trkpt>
      <trkpt lat="42.280074000" lon="-2.526393000">
        <ele>860.10</ele>
        <time>2014-11-01T09:53:20Z</time>
      </trkpt>
      <trkpt lat="42.280058000" lon="-2.526393000">
        <ele>860.20</ele>
        <time>2014-11-01T09:53:21Z</time>
      </trkpt>
      <trkpt lat="42.280045000" lon="-2.526390000">
        <ele>860.10</ele>
        <time>2014-11-01T09:53:22Z</time>
      </trkpt>
      <trkpt lat="42.280036000" lon="-2.526386000">
        <ele>860.00</ele>
        <time>2014-11-01T09:53:23Z</time>
      </trkpt>
      <trkpt lat="42.280032000" lon="-2.526383000">
        <ele>859.90</ele>
        <time>2014-11-01T09:53:24Z</time>
      </trkpt>
      <trkpt lat="42.280031000" lon="-2.526382000">
        <ele>859.80</ele>
        <time>2014-11-01T09:53:25Z</time>
      </trkpt>
      <trkpt lat="42.280033000" lon="-2.526383000">
        <ele>859.70</ele>
        <time>2014-11-01T09:53:26Z</time>
      </trkpt>
      <trkpt lat="42.280036000" lon="-2.526387000">
        <ele>859.70</ele>
        <time>2014-11-01T09:53:27Z</time>
      </trkpt>
      <trkpt lat="42.280039000" lon="-2.526391000">
        <ele>859.60</ele>
        <time>2014-11-01T09:53:28Z</time>
      </trkpt>
      <trkpt lat="42.280040000" lon="-2.526394000">
        <ele>859.60</ele>
        <time>2014-11-01T09:53:29Z</time>
      </trkpt>
      <trkpt lat="42.280039000" lon="-2.526395000">
        <ele>859.60</ele>
        <time>2014-11-01T09:53:30Z</time>
      </trkpt>
      <trkpt lat="42.280036000" lon="-2.526394000">
        <ele>859.60</ele>
        <time>2014-11-01T09:53:31Z</time>
      </trkpt>
      <trkpt lat="42.280031000" lon="-2.526389000">
        <ele>859.60</ele>
        <time>2014-11-01T09:53:32Z</time>
      </trkpt>
      <trkpt lat="42.280030000" lon="-2.526384000">
        <ele>859.50</ele>
        <time>2014-11-01T09:53:33Z</time>
      </trkpt>
      <trkpt lat="42.280034000" lon="-2.526378000">
        <ele>859.50</ele>
        <time>2014-11-01T09:53:34Z</time>
      </trkpt>
      <trkpt lat="42.280040000" lon="-2.526373000">
        <ele>859.50</ele>
        <time>2014-11-01T09:53:35Z</time>
      </trkpt>
      <trkpt lat="42.280046000" lon="-2.526367000">
        <ele>859.50</ele>
        <time>2014-11-01T09:53:36Z</time>
      </trkpt>
      <trkpt lat="42.280049000" lon="-2.526359000">
        <ele>859.50</ele>
        <time>2014-11-01T09:53:37Z</time>
      </trkpt>
      <trkpt lat="42.280047000" lon="-2.526350000">
        <ele>859.50</ele>
        <time>2014-11-01T09:53:38Z</time>
      </trkpt>
      <trkpt lat="42.280043000" lon="-2.526343000">
        <ele>859.50</ele>
        <time>2014-11-01T09:53:39Z</time>
      </trkpt>
      <trkpt lat="42.280039000" lon="-2.526337000">
        <ele>859.50</ele>
        <time>2014-11-01T09:53:40Z</time>
      </trkpt>
      <trkpt lat="42.280037000" lon="-2.526333000">
        <ele>859.50</ele>
        <time>2014-11-01T09:53:41Z</time>
      </trkpt>
      <trkpt lat="42.280038000" lon="-2.526329000">
        <ele>859.50</ele>
        <time>2014-11-01T09:53:42Z</time>
      </trkpt>
      <trkpt lat="42.280041000" lon="-2.526324000">
        <ele>859.50</ele>
        <time>2014-11-01T09:53:43Z</time>
      </trkpt>
      <trkpt lat="42.280044000" lon="-2.526318000">
        <ele>859.60</ele>
        <time>2014-11-01T09:53:44Z</time>
      </trkpt>
      <trkpt lat="42.280046000" lon="-2.526313000">
        <ele>859.60</ele>
        <time>2014-11-01T09:53:45Z</time>
      </trkpt>
      <trkpt lat="42.280045000" lon="-2.526309000">
        <ele>859.70</ele>
        <time>2014-11-01T09:53:46Z</time>
      </trkpt>
      <trkpt lat="42.280042000" lon="-2.526305000">
        <ele>859.70</ele>
        <time>2014-11-01T09:53:47Z</time>
      </trkpt>
      <trkpt lat="42.280040000" lon="-2.526304000">
        <ele>859.70</ele>
        <time>2014-11-01T09:53:48Z</time>
      </trkpt>
      <trkpt lat="42.280039000" lon="-2.526304000">
        <ele>859.70</ele>
        <time>2014-11-01T09:53:49Z</time>
      </trkpt>
      <trkpt lat="42.280041000" lon="-2.526306000">
        <ele>859.70</ele>
        <time>2014-11-01T09:53:50Z</time>
      </trkpt>
      <trkpt lat="42.280045000" lon="-2.526309000">
        <ele>859.80</ele>
        <time>2014-11-01T09:53:51Z</time>
      </trkpt>
      <trkpt lat="42.280048000" lon="-2.526311000">
        <ele>859.70</ele>
        <time>2014-11-01T09:53:52Z</time>
      </trkpt>
      <trkpt lat="42.280052000" lon="-2.526313000">
        <ele>859.60</ele>
        <time>2014-11-01T09:53:53Z</time>
      </trkpt>
      <trkpt lat="42.280054000" lon="-2.526315000">
        <ele>859.50</ele>
        <time>2014-11-01T09:53:54Z</time>
      </trkpt>
      <trkpt lat="42.280056000" lon="-2.526316000">
        <ele>859.50</ele>
        <time>2014-11-01T09:53:55Z</time>
      </trkpt>
      <trkpt lat="42.280058000" lon="-2.526316000">
        <ele>859.40</ele>
        <time>2014-11-01T09:53:56Z</time>
      </trkpt>
      <trkpt lat="42.280059000" lon="-2.526317000">
        <ele>859.40</ele>
        <time>2014-11-01T09:53:57Z</time>
      </trkpt>
      <trkpt lat="42.280059000" lon="-2.526321000">
        <ele>859.40</ele>
        <time>2014-11-01T09:53:58Z</time>
      </trkpt>
      <trkpt lat="42.280058000" lon="-2.526327000">
        <ele>859.50</ele>
        <time>2014-11-01T09:53:59Z</time>
      </trkpt>
      <trkpt lat="42.280058000" lon="-2.526335000">
        <ele>859.50</ele>
        <time>2014-11-01T09:54:00Z</time>
      </trkpt>
      <trkpt lat="42.280057000" lon="-2.526342000">
        <ele>859.50</ele>
        <time>2014-11-01T09:54:01Z</time>
      </trkpt>
      <trkpt lat="42.280056000" lon="-2.526349000">
        <ele>859.50</ele>
        <time>2014-11-01T09:54:02Z</time>
      </trkpt>
      <trkpt lat="42.280054000" lon="-2.526354000">
        <ele>859.60</ele>
        <time>2014-11-01T09:54:03Z</time>
      </trkpt>
      <trkpt lat="42.280054000" lon="-2.526355000">
        <ele>859.60</ele>
        <time>2014-11-01T09:54:04Z</time>
      </trkpt>
      <trkpt lat="42.280054000" lon="-2.526355000">
        <ele>859.70</ele>
        <time>2014-11-01T09:54:05Z</time>
      </trkpt>
      <trkpt lat="42.280053000" lon="-2.526355000">
        <ele>859.70</ele>
        <time>2014-11-01T09:54:06Z</time>
      </trkpt>
      <trkpt lat="42.280051000" lon="-2.526357000">
        <ele>859.70</ele>
        <time>2014-11-01T09:54:07Z</time>
      </trkpt>
      <trkpt lat="42.280050000" lon="-2.526361000">
        <ele>859.70</ele>
        <time>2014-11-01T09:54:08Z</time>
      </trkpt>
      <trkpt lat="42.280049000" lon="-2.526368000">
        <ele>859.70</ele>
        <time>2014-11-01T09:54:09Z</time>
      </trkpt>
      <trkpt lat="42.280049000" lon="-2.526377000">
        <ele>859.70</ele>
        <time>2014-11-01T09:54:10Z</time>
      </trkpt>
      <trkpt lat="42.280049000" lon="-2.526386000">
        <ele>859.60</ele>
        <time>2014-11-01T09:54:11Z</time>
      </trkpt>
      <trkpt lat="42.280052000" lon="-2.526391000">
        <ele>859.50</ele>
        <time>2014-11-01T09:54:12Z</time>
      </trkpt>
      <trkpt lat="42.280055000" lon="-2.526393000">
        <ele>859.50</ele>
        <time>2014-11-01T09:54:13Z</time>
      </trkpt>
      <trkpt lat="42.280060000" lon="-2.526391000">
        <ele>859.40</ele>
        <time>2014-11-01T09:54:14Z</time>
      </trkpt>
      <trkpt lat="42.280069000" lon="-2.526382000">
        <ele>859.40</ele>
        <time>2014-11-01T09:54:15Z</time>
      </trkpt>
      <trkpt lat="42.280072000" lon="-2.526365000">
        <ele>859.40</ele>
        <time>2014-11-01T09:54:17Z</time>
      </trkpt>
      <trkpt lat="42.280067000" lon="-2.526357000">
        <ele>859.50</ele>
        <time>2014-11-01T09:54:18Z</time>
      </trkpt>
      <trkpt lat="42.280058000" lon="-2.526353000">
        <ele>859.50</ele>
        <time>2014-11-01T09:54:19Z</time>
      </trkpt>
      <trkpt lat="42.280053000" lon="-2.526349000">
        <ele>859.50</ele>
        <time>2014-11-01T09:54:20Z</time>
      </trkpt>
      <trkpt lat="42.280052000" lon="-2.526341000">
        <ele>859.50</ele>
        <time>2014-11-01T09:54:21Z</time>
      </trkpt>
      <trkpt lat="42.280053000" lon="-2.526330000">
        <ele>859.50</ele>
        <time>2014-11-01T09:54:22Z</time>
      </trkpt>
      <trkpt lat="42.280055000" lon="-2.526329000">
        <ele>859.50</ele>
        <time>2014-11-01T09:54:23Z</time>
      </trkpt>
      <trkpt lat="42.280057000" lon="-2.526326000">
        <ele>859.60</ele>
        <time>2014-11-01T09:54:24Z</time>
      </trkpt>
      <trkpt lat="42.280056000" lon="-2.526324000">
        <ele>859.60</ele>
        <time>2014-11-01T09:54:25Z</time>
      </trkpt>
      <trkpt lat="42.280053000" lon="-2.526323000">
        <ele>859.70</ele>
        <time>2014-11-01T09:54:26Z</time>
      </trkpt>
      <trkpt lat="42.280050000" lon="-2.526313000">
        <ele>859.70</ele>
        <time>2014-11-01T09:54:27Z</time>
      </trkpt>
      <trkpt lat="42.280048000" lon="-2.526311000">
        <ele>859.70</ele>
        <time>2014-11-01T09:54:28Z</time>
      </trkpt>
      <trkpt lat="42.280046000" lon="-2.526310000">
        <ele>859.70</ele>
        <time>2014-11-01T09:54:29Z</time>
      </trkpt>
      <trkpt lat="42.280046000" lon="-2.526312000">
        <ele>859.70</ele>
        <time>2014-11-01T09:54:30Z</time>
      </trkpt>
      <trkpt lat="42.280048000" lon="-2.526314000">
        <ele>859.60</ele>
        <time>2014-11-01T09:54:31Z</time>
      </trkpt>
      <trkpt lat="42.280049000" lon="-2.526317000">
        <ele>859.60</ele>
        <time>2014-11-01T09:54:32Z</time>
      </trkpt>
      <trkpt lat="42.280051000" lon="-2.526320000">
        <ele>859.60</ele>
        <time>2014-11-01T09:54:33Z</time>
      </trkpt>
      <trkpt lat="42.280053000" lon="-2.526321000">
        <ele>859.60</ele>
        <time>2014-11-01T09:54:34Z</time>
      </trkpt>
      <trkpt lat="42.280055000" lon="-2.526323000">
        <ele>859.60</ele>
        <time>2014-11-01T09:54:35Z</time>
      </trkpt>
      <trkpt lat="42.280058000" lon="-2.526324000">
        <ele>859.50</ele>
        <time>2014-11-01T09:54:36Z</time>
      </trkpt>
      <trkpt lat="42.280061000" lon="-2.526324000">
        <ele>859.50</ele>
        <time>2014-11-01T09:54:37Z</time>
      </trkpt>
      <trkpt lat="42.280067000" lon="-2.526324000">
        <ele>859.60</ele>
        <time>2014-11-01T09:54:38Z</time>
      </trkpt>
      <trkpt lat="42.280069000" lon="-2.526325000">
        <ele>859.60</ele>
        <time>2014-11-01T09:54:39Z</time>
      </trkpt>
      <trkpt lat="42.280072000" lon="-2.526333000">
        <ele>859.70</ele>
        <time>2014-11-01T09:54:40Z</time>
      </trkpt>
      <trkpt lat="42.280075000" lon="-2.526343000">
        <ele>859.70</ele>
        <time>2014-11-01T09:54:41Z</time>
      </trkpt>
      <trkpt lat="42.280076000" lon="-2.526352000">
        <ele>859.70</ele>
        <time>2014-11-01T09:54:42Z</time>
      </trkpt>
      <trkpt lat="42.280075000" lon="-2.526357000">
        <ele>859.70</ele>
        <time>2014-11-01T09:54:43Z</time>
      </trkpt>
      <trkpt lat="42.280074000" lon="-2.526362000">
        <ele>859.60</ele>
        <time>2014-11-01T09:54:44Z</time>
      </trkpt>
      <trkpt lat="42.280073000" lon="-2.526364000">
        <ele>859.60</ele>
        <time>2014-11-01T09:54:45Z</time>
      </trkpt>
      <trkpt lat="42.280077000" lon="-2.526364000">
        <ele>859.50</ele>
        <time>2014-11-01T09:54:46Z</time>
      </trkpt>
      <trkpt lat="42.280083000" lon="-2.526365000">
        <ele>859.50</ele>
        <time>2014-11-01T09:54:47Z</time>
      </trkpt>
      <trkpt lat="42.280088000" lon="-2.526363000">
        <ele>859.50</ele>
        <time>2014-11-01T09:54:48Z</time>
      </trkpt>
      <trkpt lat="42.280093000" lon="-2.526360000">
        <ele>859.50</ele>
        <time>2014-11-01T09:54:49Z</time>
      </trkpt>
      <trkpt lat="42.280094000" lon="-2.526358000">
        <ele>859.60</ele>
        <time>2014-11-01T09:54:50Z</time>
      </trkpt>
      <trkpt lat="42.280091000" lon="-2.526358000">
        <ele>859.70</ele>
        <time>2014-11-01T09:54:51Z</time>
      </trkpt>
      <trkpt lat="42.280084000" lon="-2.526359000">
        <ele>859.70</ele>
        <time>2014-11-01T09:54:52Z</time>
      </trkpt>
      <trkpt lat="42.280081000" lon="-2.526359000">
        <ele>859.60</ele>
        <time>2014-11-01T09:54:53Z</time>
      </trkpt>
      <trkpt lat="42.280078000" lon="-2.526362000">
        <ele>859.60</ele>
        <time>2014-11-01T09:54:54Z</time>
      </trkpt>
      <trkpt lat="42.280083000" lon="-2.526366000">
        <ele>859.50</ele>
        <time>2014-11-01T09:54:55Z</time>
      </trkpt>
      <trkpt lat="42.280095000" lon="-2.526368000">
        <ele>859.50</ele>
        <time>2014-11-01T09:54:56Z</time>
      </trkpt>
      <trkpt lat="42.280110000" lon="-2.526367000">
        <ele>859.40</ele>
        <time>2014-11-01T09:54:57Z</time>
      </trkpt>
      <trkpt lat="42.280117000" lon="-2.526361000">
        <ele>859.50</ele>
        <time>2014-11-01T09:54:58Z</time>
      </trkpt>
      <trkpt lat="42.280117000" lon="-2.526353000">
        <ele>859.50</ele>
        <time>2014-11-01T09:54:59Z</time>
      </trkpt>
      <trkpt lat="42.280117000" lon="-2.526353000">
        <ele>859.60</ele>
        <time>2014-11-01T09:55:00Z</time>
      </trkpt>
      <trkpt lat="42.280117000" lon="-2.526352000">
        <ele>859.70</ele>
        <time>2014-11-01T09:55:01Z</time>
      </trkpt>
      <trkpt lat="42.280120000" lon="-2.526349000">
        <ele>859.70</ele>
        <time>2014-11-01T09:55:02Z</time>
      </trkpt>
      <trkpt lat="42.280127000" lon="-2.526349000">
        <ele>859.60</ele>
        <time>2014-11-01T09:55:03Z</time>
      </trkpt>
      <trkpt lat="42.280131000" lon="-2.526344000">
        <ele>859.70</ele>
        <time>2014-11-01T09:55:04Z</time>
      </trkpt>
      <trkpt lat="42.280144000" lon="-2.526340000">
        <ele>859.70</ele>
        <time>2014-11-01T09:55:05Z</time>
      </trkpt>
      <trkpt lat="42.280157000" lon="-2.526331000">
        <ele>859.60</ele>
        <time>2014-11-01T09:55:06Z</time>
      </trkpt>
      <trkpt lat="42.280162000" lon="-2.526326000">
        <ele>859.50</ele>
        <time>2014-11-01T09:55:07Z</time>
      </trkpt>
      <trkpt lat="42.280158000" lon="-2.526318000">
        <ele>859.60</ele>
        <time>2014-11-01T09:55:08Z</time>
      </trkpt>
      <trkpt lat="42.280147000" lon="-2.526314000">
        <ele>859.60</ele>
        <time>2014-11-01T09:55:09Z</time>
      </trkpt>
      <trkpt lat="42.280132000" lon="-2.526317000">
        <ele>859.50</ele>
        <time>2014-11-01T09:55:10Z</time>
      </trkpt>
      <trkpt lat="42.280124000" lon="-2.526314000">
        <ele>859.50</ele>
        <time>2014-11-01T09:55:11Z</time>
      </trkpt>
      <trkpt lat="42.280124000" lon="-2.526314000">
        <ele>859.50</ele>
        <time>2014-11-01T09:55:12Z</time>
      </trkpt>
      <trkpt lat="42.280133000" lon="-2.526315000">
        <ele>859.50</ele>
        <time>2014-11-01T09:55:13Z</time>
      </trkpt>
      <trkpt lat="42.280142000" lon="-2.526316000">
        <ele>859.50</ele>
        <time>2014-11-01T09:55:14Z</time>
      </trkpt>
      <trkpt lat="42.280147000" lon="-2.526315000">
        <ele>859.50</ele>
        <time>2014-11-01T09:55:15Z</time>
      </trkpt>
      <trkpt lat="42.280149000" lon="-2.526318000">
        <ele>859.50</ele>
        <time>2014-11-01T09:55:16Z</time>
      </trkpt>
      <trkpt lat="42.280141000" lon="-2.526315000">
        <ele>859.50</ele>
        <time>2014-11-01T09:55:18Z</time>
      </trkpt>
      <trkpt lat="42.280135000" lon="-2.526308000">
        <ele>859.50</ele>
        <time>2014-11-01T09:55:19Z</time>
      </trkpt>
      <trkpt lat="42.280132000" lon="-2.526302000">
        <ele>859.50</ele>
        <time>2014-11-01T09:55:20Z</time>
      </trkpt>
      <trkpt lat="42.280133000" lon="-2.526298000">
        <ele>859.50</ele>
        <time>2014-11-01T09:55:21Z</time>
      </trkpt>
      <trkpt lat="42.280136000" lon="-2.526296000">
        <ele>859.50</ele>
        <time>2014-11-01T09:55:22Z</time>
      </trkpt>
      <trkpt lat="42.280140000" lon="-2.526297000">
        <ele>859.50</ele>
        <time>2014-11-01T09:55:23Z</time>
      </trkpt>
      <trkpt lat="42.280141000" lon="-2.526299000">
        <ele>859.50</ele>
        <time>2014-11-01T09:55:24Z</time>
      </trkpt>
      <trkpt lat="42.280137000" lon="-2.526300000">
        <ele>859.50</ele>
        <time>2014-11-01T09:55:25Z</time>
      </trkpt>
      <trkpt lat="42.280131000" lon="-2.526303000">
        <ele>859.40</ele>
        <time>2014-11-01T09:55:26Z</time>
      </trkpt>
      <trkpt lat="42.280124000" lon="-2.526306000">
        <ele>859.40</ele>
        <time>2014-11-01T09:55:27Z</time>
      </trkpt>
      <trkpt lat="42.280118000" lon="-2.526306000">
        <ele>859.40</ele>
        <time>2014-11-01T09:55:28Z</time>
      </trkpt>
      <trkpt lat="42.280117000" lon="-2.526308000">
        <ele>859.30</ele>
        <time>2014-11-01T09:55:29Z</time>
      </trkpt>
      <trkpt lat="42.280121000" lon="-2.526311000">
        <ele>859.30</ele>
        <time>2014-11-01T09:55:30Z</time>
      </trkpt>
      <trkpt lat="42.280127000" lon="-2.526310000">
        <ele>859.30</ele>
        <time>2014-11-01T09:55:31Z</time>
      </trkpt>
      <trkpt lat="42.280131000" lon="-2.526310000">
        <ele>859.20</ele>
        <time>2014-11-01T09:55:32Z</time>
      </trkpt>
      <trkpt lat="42.280134000" lon="-2.526313000">
        <ele>859.20</ele>
        <time>2014-11-01T09:55:33Z</time>
      </trkpt>
      <trkpt lat="42.280136000" lon="-2.526315000">
        <ele>859.30</ele>
        <time>2014-11-01T09:55:34Z</time>
      </trkpt>
      <trkpt lat="42.280137000" lon="-2.526315000">
        <ele>859.40</ele>
        <time>2014-11-01T09:55:35Z</time>
      </trkpt>
      <trkpt lat="42.280139000" lon="-2.526313000">
        <ele>859.50</ele>
        <time>2014-11-01T09:55:36Z</time>
      </trkpt>
      <trkpt lat="42.280140000" lon="-2.526314000">
        <ele>859.60</ele>
        <time>2014-11-01T09:55:37Z</time>
      </trkpt>
      <trkpt lat="42.280143000" lon="-2.526314000">
        <ele>859.60</ele>
        <time>2014-11-01T09:55:38Z</time>
      </trkpt>
      <trkpt lat="42.280148000" lon="-2.526318000">
        <ele>859.70</ele>
        <time>2014-11-01T09:55:39Z</time>
      </trkpt>
      <trkpt lat="42.280152000" lon="-2.526324000">
        <ele>859.70</ele>
        <time>2014-11-01T09:55:40Z</time>
      </trkpt>
      <trkpt lat="42.280151000" lon="-2.526329000">
        <ele>859.70</ele>
        <time>2014-11-01T09:55:41Z</time>
      </trkpt>
      <trkpt lat="42.280147000" lon="-2.526331000">
        <ele>859.70</ele>
        <time>2014-11-01T09:55:42Z</time>
      </trkpt>
      <trkpt lat="42.280145000" lon="-2.526336000">
        <ele>859.70</ele>
        <time>2014-11-01T09:55:43Z</time>
      </trkpt>
      <trkpt lat="42.280142000" lon="-2.526337000">
        <ele>859.80</ele>
        <time>2014-11-01T09:55:44Z</time>
      </trkpt>
      <trkpt lat="42.280139000" lon="-2.526337000">
        <ele>859.80</ele>
        <time>2014-11-01T09:55:45Z</time>
      </trkpt>
      <trkpt lat="42.280140000" lon="-2.526337000">
        <ele>859.80</ele>
        <time>2014-11-01T09:55:46Z</time>
      </trkpt>
      <trkpt lat="42.280143000" lon="-2.526338000">
        <ele>859.80</ele>
        <time>2014-11-01T09:55:47Z</time>
      </trkpt>
      <trkpt lat="42.280148000" lon="-2.526340000">
        <ele>859.80</ele>
        <time>2014-11-01T09:55:48Z</time>
      </trkpt>
      <trkpt lat="42.280149000" lon="-2.526341000">
        <ele>859.80</ele>
        <time>2014-11-01T09:55:49Z</time>
      </trkpt>
      <trkpt lat="42.280150000" lon="-2.526343000">
        <ele>859.80</ele>
        <time>2014-11-01T09:55:50Z</time>
      </trkpt>
      <trkpt lat="42.280152000" lon="-2.526347000">
        <ele>859.80</ele>
        <time>2014-11-01T09:55:51Z</time>
      </trkpt>
      <trkpt lat="42.280156000" lon="-2.526352000">
        <ele>859.80</ele>
        <time>2014-11-01T09:55:52Z</time>
      </trkpt>
      <trkpt lat="42.280159000" lon="-2.526355000">
        <ele>859.80</ele>
        <time>2014-11-01T09:55:53Z</time>
      </trkpt>
      <trkpt lat="42.280159000" lon="-2.526353000">
        <ele>859.70</ele>
        <time>2014-11-01T09:55:54Z</time>
      </trkpt>
      <trkpt lat="42.280161000" lon="-2.526352000">
        <ele>859.70</ele>
        <time>2014-11-01T09:55:55Z</time>
      </trkpt>
      <trkpt lat="42.280164000" lon="-2.526348000">
        <ele>859.60</ele>
        <time>2014-11-01T09:55:56Z</time>
      </trkpt>
      <trkpt lat="42.280162000" lon="-2.526345000">
        <ele>859.50</ele>
        <time>2014-11-01T09:55:57Z</time>
      </trkpt>
      <trkpt lat="42.280161000" lon="-2.526344000">
        <ele>859.40</ele>
        <time>2014-11-01T09:55:58Z</time>
      </trkpt>
      <trkpt lat="42.280162000" lon="-2.526347000">
        <ele>859.40</ele>
        <time>2014-11-01T09:55:59Z</time>
      </trkpt>
      <trkpt lat="42.280163000" lon="-2.526352000">
        <ele>859.30</ele>
        <time>2014-11-01T09:56:00Z</time>
      </trkpt>
      <trkpt lat="42.280166000" lon="-2.526357000">
        <ele>859.30</ele>
        <time>2014-11-01T09:56:01Z</time>
      </trkpt>
      <trkpt lat="42.280168000" lon="-2.526361000">
        <ele>859.40</ele>
        <time>2014-11-01T09:56:02Z</time>
      </trkpt>
      <trkpt lat="42.280170000" lon="-2.526369000">
        <ele>859.40</ele>
        <time>2014-11-01T09:56:03Z</time>
      </trkpt>
      <trkpt lat="42.280171000" lon="-2.526376000">
        <ele>859.40</ele>
        <time>2014-11-01T09:56:04Z</time>
      </trkpt>
      <trkpt lat="42.280171000" lon="-2.526379000">
        <ele>859.50</ele>
        <time>2014-11-01T09:56:05Z</time>
      </trkpt>
      <trkpt lat="42.280168000" lon="-2.526380000">
        <ele>859.50</ele>
        <time>2014-11-01T09:56:06Z</time>
      </trkpt>
      <trkpt lat="42.280166000" lon="-2.526379000">
        <ele>859.50</ele>
        <time>2014-11-01T09:56:07Z</time>
      </trkpt>
      <trkpt lat="42.280165000" lon="-2.526370000">
        <ele>859.40</ele>
        <time>2014-11-01T09:56:08Z</time>
      </trkpt>
      <trkpt lat="42.280166000" lon="-2.526358000">
        <ele>859.40</ele>
        <time>2014-11-01T09:56:09Z</time>
      </trkpt>
      <trkpt lat="42.280166000" lon="-2.526347000">
        <ele>859.30</ele>
        <time>2014-11-01T09:56:10Z</time>
      </trkpt>
      <trkpt lat="42.280166000" lon="-2.526336000">
        <ele>859.30</ele>
        <time>2014-11-01T09:56:11Z</time>
      </trkpt>
      <trkpt lat="42.280164000" lon="-2.526329000">
        <ele>859.20</ele>
        <time>2014-11-01T09:56:12Z</time>
      </trkpt>
      <trkpt lat="42.280160000" lon="-2.526324000">
        <ele>859.20</ele>
        <time>2014-11-01T09:56:13Z</time>
      </trkpt>
      <trkpt lat="42.280154000" lon="-2.526322000">
        <ele>859.10</ele>
        <time>2014-11-01T09:56:14Z</time>
      </trkpt>
      <trkpt lat="42.280145000" lon="-2.526327000">
        <ele>859.10</ele>
        <time>2014-11-01T09:56:15Z</time>
      </trkpt>
      <trkpt lat="42.280138000" lon="-2.526331000">
        <ele>859.10</ele>
        <time>2014-11-01T09:56:16Z</time>
      </trkpt>
      <trkpt lat="42.280134000" lon="-2.526334000">
        <ele>859.00</ele>
        <time>2014-11-01T09:56:17Z</time>
      </trkpt>
      <trkpt lat="42.280136000" lon="-2.526340000">
        <ele>859.00</ele>
        <time>2014-11-01T09:56:19Z</time>
      </trkpt>
      <trkpt lat="42.280135000" lon="-2.526341000">
        <ele>859.10</ele>
        <time>2014-11-01T09:56:20Z</time>
      </trkpt>
      <trkpt lat="42.280132000" lon="-2.526342000">
        <ele>859.10</ele>
        <time>2014-11-01T09:56:21Z</time>
      </trkpt>
      <trkpt lat="42.280126000" lon="-2.526341000">
        <ele>859.50</ele>
        <time>2014-11-01T09:56:22Z</time>
      </trkpt>
      <trkpt lat="42.280121000" lon="-2.526339000">
        <ele>859.80</ele>
        <time>2014-11-01T09:56:23Z</time>
      </trkpt>
      <trkpt lat="42.280116000" lon="-2.526334000">
        <ele>860.00</ele>
        <time>2014-11-01T09:56:24Z</time>
      </trkpt>
      <trkpt lat="42.280112000" lon="-2.526324000">
        <ele>860.10</ele>
        <time>2014-11-01T09:56:25Z</time>
      </trkpt>
      <trkpt lat="42.280114000" lon="-2.526319000">
        <ele>860.00</ele>
        <time>2014-11-01T09:56:26Z</time>
      </trkpt>
      <trkpt lat="42.280115000" lon="-2.526311000">
        <ele>860.00</ele>
        <time>2014-11-01T09:56:27Z</time>
      </trkpt>
      <trkpt lat="42.280114000" lon="-2.526307000">
        <ele>859.90</ele>
        <time>2014-11-01T09:56:28Z</time>
      </trkpt>
      <trkpt lat="42.280106000" lon="-2.526307000">
        <ele>859.80</ele>
        <time>2014-11-01T09:56:29Z</time>
      </trkpt>
      <trkpt lat="42.280092000" lon="-2.526306000">
        <ele>859.80</ele>
        <time>2014-11-01T09:56:30Z</time>
      </trkpt>
      <trkpt lat="42.280075000" lon="-2.526305000">
        <ele>859.80</ele>
        <time>2014-11-01T09:56:31Z</time>
      </trkpt>
      <trkpt lat="42.280055000" lon="-2.526297000">
        <ele>859.70</ele>
        <time>2014-11-01T09:56:32Z</time>
      </trkpt>
      <trkpt lat="42.280051000" lon="-2.526294000">
        <ele>859.70</ele>
        <time>2014-11-01T09:56:33Z</time>
      </trkpt>
      <trkpt lat="42.280050000" lon="-2.526290000">
        <ele>859.70</ele>
        <time>2014-11-01T09:56:34Z</time>
      </trkpt>
      <trkpt lat="42.280052000" lon="-2.526288000">
        <ele>859.70</ele>
        <time>2014-11-01T09:56:35Z</time>
      </trkpt>
      <trkpt lat="42.280064000" lon="-2.526286000">
        <ele>859.70</ele>
        <time>2014-11-01T09:56:36Z</time>
      </trkpt>
      <trkpt lat="42.280071000" lon="-2.526291000">
        <ele>859.60</ele>
        <time>2014-11-01T09:56:37Z</time>
      </trkpt>
      <trkpt lat="42.280073000" lon="-2.526293000">
        <ele>859.60</ele>
        <time>2014-11-01T09:56:38Z</time>
      </trkpt>
      <trkpt lat="42.280070000" lon="-2.526294000">
        <ele>859.60</ele>
        <time>2014-11-01T09:56:39Z</time>
      </trkpt>
      <trkpt lat="42.280068000" lon="-2.526294000">
        <ele>859.50</ele>
        <time>2014-11-01T09:56:40Z</time>
      </trkpt>
      <trkpt lat="42.280067000" lon="-2.526293000">
        <ele>859.40</ele>
        <time>2014-11-01T09:56:41Z</time>
      </trkpt>
      <trkpt lat="42.280068000" lon="-2.526292000">
        <ele>859.30</ele>
        <time>2014-11-01T09:56:42Z</time>
      </trkpt>
      <trkpt lat="42.280070000" lon="-2.526290000">
        <ele>859.30</ele>
        <time>2014-11-01T09:56:43Z</time>
      </trkpt>
      <trkpt lat="42.280071000" lon="-2.526289000">
        <ele>859.40</ele>
        <time>2014-11-01T09:56:44Z</time>
      </trkpt>
      <trkpt lat="42.280069000" lon="-2.526292000">
        <ele>859.50</ele>
        <time>2014-11-01T09:56:45Z</time>
      </trkpt>
      <trkpt lat="42.280065000" lon="-2.526296000">
        <ele>859.50</ele>
        <time>2014-11-01T09:56:46Z</time>
      </trkpt>
      <trkpt lat="42.280060000" lon="-2.526299000">
        <ele>859.60</ele>
        <time>2014-11-01T09:56:47Z</time>
      </trkpt>
      <trkpt lat="42.280058000" lon="-2.526298000">
        <ele>859.60</ele>
        <time>2014-11-01T09:56:48Z</time>
      </trkpt>
      <trkpt lat="42.280056000" lon="-2.526295000">
        <ele>859.50</ele>
        <time>2014-11-01T09:56:49Z</time>
      </trkpt>
      <trkpt lat="42.280051000" lon="-2.526285000">
        <ele>859.00</ele>
        <time>2014-11-01T09:56:51Z</time>
      </trkpt>
      <trkpt lat="42.280038000" lon="-2.526282000">
        <ele>859.40</ele>
        <time>2014-11-01T09:56:54Z</time>
      </trkpt>
      <trkpt lat="42.280031000" lon="-2.526304000">
        <ele>859.00</ele>
        <time>2014-11-01T09:56:56Z</time>
      </trkpt>
      <trkpt lat="42.280026000" lon="-2.526311000">
        <ele>859.60</ele>
        <time>2014-11-01T09:56:59Z</time>
      </trkpt>
      <trkpt lat="42.280018000" lon="-2.526312000">
        <ele>859.50</ele>
        <time>2014-11-01T09:57:00Z</time>
      </trkpt>
      <trkpt lat="42.280009000" lon="-2.526318000">
        <ele>859.30</ele>
        <time>2014-11-01T09:57:01Z</time>
      </trkpt>
      <trkpt lat="42.280001000" lon="-2.526328000">
        <ele>859.30</ele>
        <time>2014-11-01T09:57:02Z</time>
      </trkpt>
      <trkpt lat="42.279996000" lon="-2.526340000">
        <ele>859.20</ele>
        <time>2014-11-01T09:57:03Z</time>
      </trkpt>
      <trkpt lat="42.279992000" lon="-2.526350000">
        <ele>859.20</ele>
        <time>2014-11-01T09:57:04Z</time>
      </trkpt>
      <trkpt lat="42.279991000" lon="-2.526359000">
        <ele>859.20</ele>
        <time>2014-11-01T09:57:05Z</time>
      </trkpt>
      <trkpt lat="42.279993000" lon="-2.526362000">
        <ele>859.20</ele>
        <time>2014-11-01T09:57:06Z</time>
      </trkpt>
      <trkpt lat="42.279995000" lon="-2.526363000">
        <ele>859.20</ele>
        <time>2014-11-01T09:57:07Z</time>
      </trkpt>
      <trkpt lat="42.279996000" lon="-2.526360000">
        <ele>859.20</ele>
        <time>2014-11-01T09:57:08Z</time>
      </trkpt>
      <trkpt lat="42.279993000" lon="-2.526353000">
        <ele>859.20</ele>
        <time>2014-11-01T09:57:09Z</time>
      </trkpt>
      <trkpt lat="42.279987000" lon="-2.526342000">
        <ele>859.20</ele>
        <time>2014-11-01T09:57:10Z</time>
      </trkpt>
      <trkpt lat="42.279978000" lon="-2.526331000">
        <ele>859.20</ele>
        <time>2014-11-01T09:57:11Z</time>
      </trkpt>
      <trkpt lat="42.279971000" lon="-2.526322000">
        <ele>859.30</ele>
        <time>2014-11-01T09:57:12Z</time>
      </trkpt>
      <trkpt lat="42.279974000" lon="-2.526325000">
        <ele>859.00</ele>
        <time>2014-11-01T09:57:14Z</time>
      </trkpt>
      <trkpt lat="42.279992000" lon="-2.526315000">
        <ele>859.40</ele>
        <time>2014-11-01T09:57:17Z</time>
      </trkpt>
      <trkpt lat="42.279996000" lon="-2.526311000">
        <ele>859.30</ele>
        <time>2014-11-01T09:57:18Z</time>
      </trkpt>
      <trkpt lat="42.279997000" lon="-2.526306000">
        <ele>859.20</ele>
        <time>2014-11-01T09:57:20Z</time>
      </trkpt>
      <trkpt lat="42.279994000" lon="-2.526303000">
        <ele>859.20</ele>
        <time>2014-11-01T09:57:21Z</time>
      </trkpt>
      <trkpt lat="42.279993000" lon="-2.526301000">
        <ele>859.30</ele>
        <time>2014-11-01T09:57:22Z</time>
      </trkpt>
      <trkpt lat="42.279994000" lon="-2.526301000">
        <ele>859.30</ele>
        <time>2014-11-01T09:57:23Z</time>
      </trkpt>
      <trkpt lat="42.279998000" lon="-2.526302000">
        <ele>859.30</ele>
        <time>2014-11-01T09:57:24Z</time>
      </trkpt>
      <trkpt lat="42.280001000" lon="-2.526302000">
        <ele>859.40</ele>
        <time>2014-11-01T09:57:25Z</time>
      </trkpt>
      <trkpt lat="42.280003000" lon="-2.526300000">
        <ele>859.40</ele>
        <time>2014-11-01T09:57:26Z</time>
      </trkpt>
      <trkpt lat="42.280001000" lon="-2.526300000">
        <ele>859.50</ele>
        <time>2014-11-01T09:57:27Z</time>
      </trkpt>
      <trkpt lat="42.279997000" lon="-2.526301000">
        <ele>859.50</ele>
        <time>2014-11-01T09:57:28Z</time>
      </trkpt>
      <trkpt lat="42.279993000" lon="-2.526303000">
        <ele>859.50</ele>
        <time>2014-11-01T09:57:29Z</time>
      </trkpt>
      <trkpt lat="42.279989000" lon="-2.526305000">
        <ele>859.50</ele>
        <time>2014-11-01T09:57:30Z</time>
      </trkpt>
      <trkpt lat="42.279984000" lon="-2.526307000">
        <ele>859.60</ele>
        <time>2014-11-01T09:57:31Z</time>
      </trkpt>
      <trkpt lat="42.279984000" lon="-2.526306000">
        <ele>859.50</ele>
        <time>2014-11-01T09:57:32Z</time>
      </trkpt>
      <trkpt lat="42.279986000" lon="-2.526303000">
        <ele>859.50</ele>
        <time>2014-11-01T09:57:33Z</time>
      </trkpt>
      <trkpt lat="42.279991000" lon="-2.526301000">
        <ele>859.50</ele>
        <time>2014-11-01T09:57:34Z</time>
      </trkpt>
      <trkpt lat="42.279995000" lon="-2.526301000">
        <ele>859.50</ele>
        <time>2014-11-01T09:57:35Z</time>
      </trkpt>
      <trkpt lat="42.279996000" lon="-2.526302000">
        <ele>859.50</ele>
        <time>2014-11-01T09:57:36Z</time>
      </trkpt>
      <trkpt lat="42.279997000" lon="-2.526305000">
        <ele>859.50</ele>
        <time>2014-11-01T09:57:37Z</time>
      </trkpt>
      <trkpt lat="42.279998000" lon="-2.526307000">
        <ele>859.40</ele>
        <time>2014-11-01T09:57:38Z</time>
      </trkpt>
      <trkpt lat="42.279997000" lon="-2.526308000">
        <ele>859.30</ele>
        <time>2014-11-01T09:57:39Z</time>
      </trkpt>
      <trkpt lat="42.279997000" lon="-2.526310000">
        <ele>859.40</ele>
        <time>2014-11-01T09:57:40Z</time>
      </trkpt>
      <trkpt lat="42.279997000" lon="-2.526311000">
        <ele>859.50</ele>
        <time>2014-11-01T09:57:41Z</time>
      </trkpt>
      <trkpt lat="42.279996000" lon="-2.526314000">
        <ele>859.40</ele>
        <time>2014-11-01T09:57:42Z</time>
      </trkpt>
      <trkpt lat="42.279996000" lon="-2.526316000">
        <ele>859.30</ele>
        <time>2014-11-01T09:57:43Z</time>
      </trkpt>
      <trkpt lat="42.279994000" lon="-2.526318000">
        <ele>859.40</ele>
        <time>2014-11-01T09:57:44Z</time>
      </trkpt>
      <trkpt lat="42.279992000" lon="-2.526320000">
        <ele>859.50</ele>
        <time>2014-11-01T09:57:45Z</time>
      </trkpt>
      <trkpt lat="42.279991000" lon="-2.526319000">
        <ele>859.40</ele>
        <time>2014-11-01T09:57:46Z</time>
      </trkpt>
      <trkpt lat="42.279991000" lon="-2.526318000">
        <ele>859.30</ele>
        <time>2014-11-01T09:57:47Z</time>
      </trkpt>
      <trkpt lat="42.279987000" lon="-2.526311000">
        <ele>859.20</ele>
        <time>2014-11-01T09:57:48Z</time>
      </trkpt>
      <trkpt lat="42.279984000" lon="-2.526308000">
        <ele>859.10</ele>
        <time>2014-11-01T09:57:49Z</time>
      </trkpt>
      <trkpt lat="42.279982000" lon="-2.526312000">
        <ele>859.00</ele>
        <time>2014-11-01T09:57:50Z</time>
      </trkpt>
      <trkpt lat="42.279982000" lon="-2.526320000">
        <ele>859.00</ele>
        <time>2014-11-01T09:57:51Z</time>
      </trkpt>
      <trkpt lat="42.279984000" lon="-2.526330000">
        <ele>859.00</ele>
        <time>2014-11-01T09:57:52Z</time>
      </trkpt>
      <trkpt lat="42.279986000" lon="-2.526335000">
        <ele>859.00</ele>
        <time>2014-11-01T09:57:53Z</time>
      </trkpt>
      <trkpt lat="42.279987000" lon="-2.526339000">
        <ele>859.00</ele>
        <time>2014-11-01T09:57:54Z</time>
      </trkpt>
      <trkpt lat="42.279988000" lon="-2.526337000">
        <ele>859.10</ele>
        <time>2014-11-01T09:57:55Z</time>
      </trkpt>
      <trkpt lat="42.279988000" lon="-2.526333000">
        <ele>859.10</ele>
        <time>2014-11-01T09:57:56Z</time>
      </trkpt>
      <trkpt lat="42.279986000" lon="-2.526331000">
        <ele>859.20</ele>
        <time>2014-11-01T09:57:57Z</time>
      </trkpt>
      <trkpt lat="42.279984000" lon="-2.526330000">
        <ele>859.20</ele>
        <time>2014-11-01T09:57:58Z</time>
      </trkpt>
      <trkpt lat="42.279981000" lon="-2.526332000">
        <ele>859.20</ele>
        <time>2014-11-01T09:57:59Z</time>
      </trkpt>
      <trkpt lat="42.279980000" lon="-2.526346000">
        <ele>859.20</ele>
        <time>2014-11-01T09:58:00Z</time>
      </trkpt>
      <trkpt lat="42.279983000" lon="-2.526361000">
        <ele>859.20</ele>
        <time>2014-11-01T09:58:01Z</time>
      </trkpt>
      <trkpt lat="42.279991000" lon="-2.526368000">
        <ele>859.20</ele>
        <time>2014-11-01T09:58:02Z</time>
      </trkpt>
      <trkpt lat="42.279999000" lon="-2.526369000">
        <ele>859.20</ele>
        <time>2014-11-01T09:58:03Z</time>
      </trkpt>
      <trkpt lat="42.280004000" lon="-2.526366000">
        <ele>859.30</ele>
        <time>2014-11-01T09:58:04Z</time>
      </trkpt>
      <trkpt lat="42.280005000" lon="-2.526360000">
        <ele>859.40</ele>
        <time>2014-11-01T09:58:05Z</time>
      </trkpt>
      <trkpt lat="42.280000000" lon="-2.526355000">
        <ele>859.40</ele>
        <time>2014-11-01T09:58:06Z</time>
      </trkpt>
      <trkpt lat="42.279994000" lon="-2.526347000">
        <ele>859.40</ele>
        <time>2014-11-01T09:58:07Z</time>
      </trkpt>
      <trkpt lat="42.279992000" lon="-2.526341000">
        <ele>859.40</ele>
        <time>2014-11-01T09:58:08Z</time>
      </trkpt>
      <trkpt lat="42.279996000" lon="-2.526339000">
        <ele>859.30</ele>
        <time>2014-11-01T09:58:09Z</time>
      </trkpt>
      <trkpt lat="42.280001000" lon="-2.526339000">
        <ele>859.30</ele>
        <time>2014-11-01T09:58:10Z</time>
      </trkpt>
      <trkpt lat="42.280009000" lon="-2.526338000">
        <ele>859.30</ele>
        <time>2014-11-01T09:58:11Z</time>
      </trkpt>
      <trkpt lat="42.280014000" lon="-2.526337000">
        <ele>859.30</ele>
        <time>2014-11-01T09:58:12Z</time>
      </trkpt>
      <trkpt lat="42.280022000" lon="-2.526334000">
        <ele>859.20</ele>
        <time>2014-11-01T09:58:13Z</time>
      </trkpt>
      <trkpt lat="42.280019000" lon="-2.526329000">
        <ele>859.30</ele>
        <time>2014-11-01T09:58:14Z</time>
      </trkpt>
      <trkpt lat="42.280015000" lon="-2.526324000">
        <ele>859.30</ele>
        <time>2014-11-01T09:58:15Z</time>
      </trkpt>
      <trkpt lat="42.280011000" lon="-2.526322000">
        <ele>859.30</ele>
        <time>2014-11-01T09:58:16Z</time>
      </trkpt>
      <trkpt lat="42.280013000" lon="-2.526324000">
        <ele>859.40</ele>
        <time>2014-11-01T09:58:17Z</time>
      </trkpt>
      <trkpt lat="42.280022000" lon="-2.526331000">
        <ele>859.40</ele>
        <time>2014-11-01T09:58:18Z</time>
      </trkpt>
      <trkpt lat="42.280031000" lon="-2.526334000">
        <ele>859.40</ele>
        <time>2014-11-01T09:58:19Z</time>
      </trkpt>
      <trkpt lat="42.280046000" lon="-2.526339000">
        <ele>859.50</ele>
        <time>2014-11-01T09:58:21Z</time>
      </trkpt>
      <trkpt lat="42.280049000" lon="-2.526343000">
        <ele>859.60</ele>
        <time>2014-11-01T09:58:22Z</time>
      </trkpt>
      <trkpt lat="42.280048000" lon="-2.526341000">
        <ele>859.60</ele>
        <time>2014-11-01T09:58:23Z</time>
      </trkpt>
      <trkpt lat="42.280044000" lon="-2.526338000">
        <ele>859.50</ele>
        <time>2014-11-01T09:58:24Z</time>
      </trkpt>
      <trkpt lat="42.280039000" lon="-2.526334000">
        <ele>859.40</ele>
        <time>2014-11-01T09:58:25Z</time>
      </trkpt>
      <trkpt lat="42.280034000" lon="-2.526331000">
        <ele>859.30</ele>
        <time>2014-11-01T09:58:26Z</time>
      </trkpt>
      <trkpt lat="42.280032000" lon="-2.526329000">
        <ele>859.30</ele>
        <time>2014-11-01T09:58:27Z</time>
      </trkpt>
      <trkpt lat="42.280032000" lon="-2.526331000">
        <ele>859.30</ele>
        <time>2014-11-01T09:58:28Z</time>
      </trkpt>
      <trkpt lat="42.280034000" lon="-2.526333000">
        <ele>859.20</ele>
        <time>2014-11-01T09:58:29Z</time>
      </trkpt>
      <trkpt lat="42.280038000" lon="-2.526337000">
        <ele>859.20</ele>
        <time>2014-11-01T09:58:30Z</time>
      </trkpt>
      <trkpt lat="42.280040000" lon="-2.526341000">
        <ele>859.20</ele>
        <time>2014-11-01T09:58:31Z</time>
      </trkpt>
      <trkpt lat="42.280043000" lon="-2.526344000">
        <ele>859.00</ele>
        <time>2014-11-01T09:58:32Z</time>
      </trkpt>
      <trkpt lat="42.280044000" lon="-2.526348000">
        <ele>858.90</ele>
        <time>2014-11-01T09:58:33Z</time>
      </trkpt>
      <trkpt lat="42.280045000" lon="-2.526350000">
        <ele>858.90</ele>
        <time>2014-11-01T09:58:34Z</time>
      </trkpt>
      <trkpt lat="42.280046000" lon="-2.526353000">
        <ele>859.00</ele>
        <time>2014-11-01T09:58:35Z</time>
      </trkpt>
      <trkpt lat="42.280046000" lon="-2.526355000">
        <ele>859.00</ele>
        <time>2014-11-01T09:58:36Z</time>
      </trkpt>
      <trkpt lat="42.280045000" lon="-2.526356000">
        <ele>859.00</ele>
        <time>2014-11-01T09:58:37Z</time>
      </trkpt>
      <trkpt lat="42.280046000" lon="-2.526358000">
        <ele>859.00</ele>
        <time>2014-11-01T09:58:38Z</time>
      </trkpt>
      <trkpt lat="42.280046000" lon="-2.526362000">
        <ele>859.00</ele>
        <time>2014-11-01T09:58:39Z</time>
      </trkpt>
      <trkpt lat="42.280047000" lon="-2.526365000">
        <ele>859.00</ele>
        <time>2014-11-01T09:58:40Z</time>
      </trkpt>
      <trkpt lat="42.280046000" lon="-2.526368000">
        <ele>859.00</ele>
        <time>2014-11-01T09:58:41Z</time>
      </trkpt>
      <trkpt lat="42.280045000" lon="-2.526372000">
        <ele>859.10</ele>
        <time>2014-11-01T09:58:42Z</time>
      </trkpt>
      <trkpt lat="42.280044000" lon="-2.526375000">
        <ele>859.10</ele>
        <time>2014-11-01T09:58:43Z</time>
      </trkpt>
      <trkpt lat="42.280042000" lon="-2.526377000">
        <ele>859.10</ele>
        <time>2014-11-01T09:58:44Z</time>
      </trkpt>
      <trkpt lat="42.280037000" lon="-2.526378000">
        <ele>859.20</ele>
        <time>2014-11-01T09:58:45Z</time>
      </trkpt>
      <trkpt lat="42.280032000" lon="-2.526377000">
        <ele>859.20</ele>
        <time>2014-11-01T09:58:46Z</time>
      </trkpt>
      <trkpt lat="42.280028000" lon="-2.526372000">
        <ele>859.20</ele>
        <time>2014-11-01T09:58:47Z</time>
      </trkpt>
      <trkpt lat="42.280027000" lon="-2.526367000">
        <ele>859.50</ele>
        <time>2014-11-01T09:58:48Z</time>
      </trkpt>
      <trkpt lat="42.280028000" lon="-2.526362000">
        <ele>859.60</ele>
        <time>2014-11-01T09:58:49Z</time>
      </trkpt>
      <trkpt lat="42.280027000" lon="-2.526359000">
        <ele>859.80</ele>
        <time>2014-11-01T09:58:50Z</time>
      </trkpt>
      <trkpt lat="42.280027000" lon="-2.526349000">
        <ele>859.90</ele>
        <time>2014-11-01T09:58:51Z</time>
      </trkpt>
      <trkpt lat="42.280023000" lon="-2.526342000">
        <ele>859.90</ele>
        <time>2014-11-01T09:58:52Z</time>
      </trkpt>
      <trkpt lat="42.280016000" lon="-2.526337000">
        <ele>859.90</ele>
        <time>2014-11-01T09:58:53Z</time>
      </trkpt>
      <trkpt lat="42.280012000" lon="-2.526336000">
        <ele>859.90</ele>
        <time>2014-11-01T09:58:54Z</time>
      </trkpt>
      <trkpt lat="42.280010000" lon="-2.526339000">
        <ele>859.90</ele>
        <time>2014-11-01T09:58:55Z</time>
      </trkpt>
      <trkpt lat="42.280011000" lon="-2.526344000">
        <ele>859.90</ele>
        <time>2014-11-01T09:58:56Z</time>
      </trkpt>
      <trkpt lat="42.280012000" lon="-2.526349000">
        <ele>859.90</ele>
        <time>2014-11-01T09:58:57Z</time>
      </trkpt>
      <trkpt lat="42.280013000" lon="-2.526354000">
        <ele>859.90</ele>
        <time>2014-11-01T09:58:58Z</time>
      </trkpt>
      <trkpt lat="42.280015000" lon="-2.526357000">
        <ele>860.00</ele>
        <time>2014-11-01T09:58:59Z</time>
      </trkpt>
      <trkpt lat="42.280015000" lon="-2.526359000">
        <ele>859.90</ele>
        <time>2014-11-01T09:59:00Z</time>
      </trkpt>
      <trkpt lat="42.280015000" lon="-2.526360000">
        <ele>859.90</ele>
        <time>2014-11-01T09:59:01Z</time>
      </trkpt>
      <trkpt lat="42.280015000" lon="-2.526359000">
        <ele>859.90</ele>
        <time>2014-11-01T09:59:02Z</time>
      </trkpt>
      <trkpt lat="42.280016000" lon="-2.526357000">
        <ele>859.80</ele>
        <time>2014-11-01T09:59:03Z</time>
      </trkpt>
      <trkpt lat="42.280016000" lon="-2.526351000">
        <ele>859.80</ele>
        <time>2014-11-01T09:59:04Z</time>
      </trkpt>
      <trkpt lat="42.280015000" lon="-2.526348000">
        <ele>859.80</ele>
        <time>2014-11-01T09:59:05Z</time>
      </trkpt>
      <trkpt lat="42.280015000" lon="-2.526351000">
        <ele>859.80</ele>
        <time>2014-11-01T09:59:06Z</time>
      </trkpt>
      <trkpt lat="42.280014000" lon="-2.526357000">
        <ele>859.80</ele>
        <time>2014-11-01T09:59:07Z</time>
      </trkpt>
      <trkpt lat="42.280012000" lon="-2.526361000">
        <ele>859.90</ele>
        <time>2014-11-01T09:59:08Z</time>
      </trkpt>
      <trkpt lat="42.280014000" lon="-2.526368000">
        <ele>859.90</ele>
        <time>2014-11-01T09:59:09Z</time>
      </trkpt>
      <trkpt lat="42.280018000" lon="-2.526372000">
        <ele>859.90</ele>
        <time>2014-11-01T09:59:10Z</time>
      </trkpt>
      <trkpt lat="42.280024000" lon="-2.526374000">
        <ele>860.00</ele>
        <time>2014-11-01T09:59:11Z</time>
      </trkpt>
      <trkpt lat="42.280030000" lon="-2.526374000">
        <ele>859.90</ele>
        <time>2014-11-01T09:59:12Z</time>
      </trkpt>
      <trkpt lat="42.280033000" lon="-2.526374000">
        <ele>859.90</ele>
        <time>2014-11-01T09:59:13Z</time>
      </trkpt>
      <trkpt lat="42.280034000" lon="-2.526374000">
        <ele>859.80</ele>
        <time>2014-11-01T09:59:14Z</time>
      </trkpt>
      <trkpt lat="42.280030000" lon="-2.526375000">
        <ele>859.70</ele>
        <time>2014-11-01T09:59:15Z</time>
      </trkpt>
      <trkpt lat="42.280023000" lon="-2.526376000">
        <ele>859.50</ele>
        <time>2014-11-01T09:59:16Z</time>
      </trkpt>
      <trkpt lat="42.280017000" lon="-2.526378000">
        <ele>859.40</ele>
        <time>2014-11-01T09:59:17Z</time>
      </trkpt>
      <trkpt lat="42.280015000" lon="-2.526381000">
        <ele>859.30</ele>
        <time>2014-11-01T09:59:18Z</time>
      </trkpt>
      <trkpt lat="42.280018000" lon="-2.526384000">
        <ele>859.20</ele>
        <time>2014-11-01T09:59:19Z</time>
      </trkpt>
      <trkpt lat="42.280024000" lon="-2.526386000">
        <ele>859.10</ele>
        <time>2014-11-01T09:59:20Z</time>
      </trkpt>
      <trkpt lat="42.280030000" lon="-2.526386000">
        <ele>859.00</ele>
        <time>2014-11-01T09:59:22Z</time>
      </trkpt>
      <trkpt lat="42.280028000" lon="-2.526384000">
        <ele>859.00</ele>
        <time>2014-11-01T09:59:23Z</time>
      </trkpt>
      <trkpt lat="42.280024000" lon="-2.526384000">
        <ele>858.90</ele>
        <time>2014-11-01T09:59:24Z</time>
      </trkpt>
      <trkpt lat="42.280020000" lon="-2.526384000">
        <ele>858.80</ele>
        <time>2014-11-01T09:59:25Z</time>
      </trkpt>
      <trkpt lat="42.280017000" lon="-2.526384000">
        <ele>859.00</ele>
        <time>2014-11-01T09:59:26Z</time>
      </trkpt>
      <trkpt lat="42.280015000" lon="-2.526386000">
        <ele>859.10</ele>
        <time>2014-11-01T09:59:27Z</time>
      </trkpt>
      <trkpt lat="42.280019000" lon="-2.526384000">
        <ele>859.10</ele>
        <time>2014-11-01T09:59:28Z</time>
      </trkpt>
      <trkpt lat="42.280025000" lon="-2.526381000">
        <ele>859.10</ele>
        <time>2014-11-01T09:59:29Z</time>
      </trkpt>
      <trkpt lat="42.280031000" lon="-2.526377000">
        <ele>859.20</ele>
        <time>2014-11-01T09:59:30Z</time>
      </trkpt>
      <trkpt lat="42.280031000" lon="-2.526377000">
        <ele>859.40</ele>
        <time>2014-11-01T09:59:31Z</time>
      </trkpt>
      <trkpt lat="42.280029000" lon="-2.526378000">
        <ele>859.30</ele>
        <time>2014-11-01T09:59:32Z</time>
      </trkpt>
      <trkpt lat="42.280026000" lon="-2.526379000">
        <ele>859.30</ele>
        <time>2014-11-01T09:59:33Z</time>
      </trkpt>
      <trkpt lat="42.280023000" lon="-2.526380000">
        <ele>859.30</ele>
        <time>2014-11-01T09:59:34Z</time>
      </trkpt>
      <trkpt lat="42.280021000" lon="-2.526381000">
        <ele>859.30</ele>
        <time>2014-11-01T09:59:35Z</time>
      </trkpt>
      <trkpt lat="42.280022000" lon="-2.526380000">
        <ele>859.30</ele>
        <time>2014-11-01T09:59:36Z</time>
      </trkpt>
      <trkpt lat="42.280024000" lon="-2.526377000">
        <ele>859.30</ele>
        <time>2014-11-01T09:59:37Z</time>
      </trkpt>
      <trkpt lat="42.280026000" lon="-2.526376000">
        <ele>859.20</ele>
        <time>2014-11-01T09:59:38Z</time>
      </trkpt>
      <trkpt lat="42.280027000" lon="-2.526375000">
        <ele>859.10</ele>
        <time>2014-11-01T09:59:39Z</time>
      </trkpt>
      <trkpt lat="42.280024000" lon="-2.526375000">
        <ele>859.20</ele>
        <time>2014-11-01T09:59:40Z</time>
      </trkpt>
      <trkpt lat="42.280020000" lon="-2.526376000">
        <ele>859.20</ele>
        <time>2014-11-01T09:59:41Z</time>
      </trkpt>
      <trkpt lat="42.280017000" lon="-2.526379000">
        <ele>859.10</ele>
        <time>2014-11-01T09:59:42Z</time>
      </trkpt>
      <trkpt lat="42.280017000" lon="-2.526382000">
        <ele>859.10</ele>
        <time>2014-11-01T09:59:43Z</time>
      </trkpt>
      <trkpt lat="42.280020000" lon="-2.526385000">
        <ele>859.10</ele>
        <time>2014-11-01T09:59:44Z</time>
      </trkpt>
      <trkpt lat="42.280023000" lon="-2.526387000">
        <ele>859.00</ele>
        <time>2014-11-01T09:59:45Z</time>
      </trkpt>
      <trkpt lat="42.280025000" lon="-2.526388000">
        <ele>859.00</ele>
        <time>2014-11-01T09:59:46Z</time>
      </trkpt>
      <trkpt lat="42.280024000" lon="-2.526390000">
        <ele>859.00</ele>
        <time>2014-11-01T09:59:47Z</time>
      </trkpt>
      <trkpt lat="42.280021000" lon="-2.526392000">
        <ele>859.10</ele>
        <time>2014-11-01T09:59:48Z</time>
      </trkpt>
      <trkpt lat="42.280017000" lon="-2.526395000">
        <ele>859.10</ele>
        <time>2014-11-01T09:59:49Z</time>
      </trkpt>
      <trkpt lat="42.280014000" lon="-2.526397000">
        <ele>859.10</ele>
        <time>2014-11-01T09:59:50Z</time>
      </trkpt>
      <trkpt lat="42.280014000" lon="-2.526397000">
        <ele>859.20</ele>
        <time>2014-11-01T09:59:51Z</time>
      </trkpt>
      <trkpt lat="42.280020000" lon="-2.526389000">
        <ele>859.20</ele>
        <time>2014-11-01T09:59:52Z</time>
      </trkpt>
      <trkpt lat="42.280025000" lon="-2.526385000">
        <ele>859.20</ele>
        <time>2014-11-01T09:59:53Z</time>
      </trkpt>
      <trkpt lat="42.280022000" lon="-2.526384000">
        <ele>859.20</ele>
        <time>2014-11-01T09:59:54Z</time>
      </trkpt>
      <trkpt lat="42.280015000" lon="-2.526387000">
        <ele>859.20</ele>
        <time>2014-11-01T09:59:55Z</time>
      </trkpt>
      <trkpt lat="42.280006000" lon="-2.526394000">
        <ele>859.30</ele>
        <time>2014-11-01T09:59:56Z</time>
      </trkpt>
      <trkpt lat="42.280002000" lon="-2.526399000">
        <ele>859.30</ele>
        <time>2014-11-01T09:59:57Z</time>
      </trkpt>
      <trkpt lat="42.280000000" lon="-2.526401000">
        <ele>859.40</ele>
        <time>2014-11-01T09:59:58Z</time>
      </trkpt>
      <trkpt lat="42.280009000" lon="-2.526401000">
        <ele>859.40</ele>
        <time>2014-11-01T09:59:59Z</time>
      </trkpt>
      <trkpt lat="42.280021000" lon="-2.526396000">
        <ele>859.40</ele>
        <time>2014-11-01T10:00:00Z</time>
      </trkpt>
      <trkpt lat="42.280027000" lon="-2.526390000">
        <ele>859.40</ele>
        <time>2014-11-01T10:00:01Z</time>
      </trkpt>
      <trkpt lat="42.280025000" lon="-2.526387000">
        <ele>859.30</ele>
        <time>2014-11-01T10:00:02Z</time>
      </trkpt>
      <trkpt lat="42.280017000" lon="-2.526386000">
        <ele>859.20</ele>
        <time>2014-11-01T10:00:03Z</time>
      </trkpt>
      <trkpt lat="42.280005000" lon="-2.526386000">
        <ele>859.20</ele>
        <time>2014-11-01T10:00:04Z</time>
      </trkpt>
      <trkpt lat="42.279993000" lon="-2.526388000">
        <ele>859.10</ele>
        <time>2014-11-01T10:00:05Z</time>
      </trkpt>
      <trkpt lat="42.279986000" lon="-2.526390000">
        <ele>859.10</ele>
        <time>2014-11-01T10:00:06Z</time>
      </trkpt>
      <trkpt lat="42.279984000" lon="-2.526383000">
        <ele>859.10</ele>
        <time>2014-11-01T10:00:07Z</time>
      </trkpt>
      <trkpt lat="42.279989000" lon="-2.526373000">
        <ele>859.00</ele>
        <time>2014-11-01T10:00:08Z</time>
      </trkpt>
      <trkpt lat="42.279998000" lon="-2.526367000">
        <ele>859.00</ele>
        <time>2014-11-01T10:00:09Z</time>
      </trkpt>
      <trkpt lat="42.280008000" lon="-2.526366000">
        <ele>859.10</ele>
        <time>2014-11-01T10:00:10Z</time>
      </trkpt>
      <trkpt lat="42.280009000" lon="-2.526369000">
        <ele>859.10</ele>
        <time>2014-11-01T10:00:11Z</time>
      </trkpt>
      <trkpt lat="42.280004000" lon="-2.526375000">
        <ele>859.20</ele>
        <time>2014-11-01T10:00:12Z</time>
      </trkpt>
      <trkpt lat="42.279995000" lon="-2.526379000">
        <ele>859.20</ele>
        <time>2014-11-01T10:00:13Z</time>
      </trkpt>
      <trkpt lat="42.279990000" lon="-2.526381000">
        <ele>859.30</ele>
        <time>2014-11-01T10:00:14Z</time>
      </trkpt>
      <trkpt lat="42.279991000" lon="-2.526373000">
        <ele>859.30</ele>
        <time>2014-11-01T10:00:15Z</time>
      </trkpt>
      <trkpt lat="42.279997000" lon="-2.526358000">
        <ele>859.20</ele>
        <time>2014-11-01T10:00:16Z</time>
      </trkpt>
      <trkpt lat="42.280010000" lon="-2.526338000">
        <ele>859.10</ele>
        <time>2014-11-01T10:00:17Z</time>
      </trkpt>
      <trkpt lat="42.280014000" lon="-2.526320000">
        <ele>859.00</ele>
        <time>2014-11-01T10:00:18Z</time>
      </trkpt>
      <trkpt lat="42.280012000" lon="-2.526314000">
        <ele>858.90</ele>
        <time>2014-11-01T10:00:19Z</time>
      </trkpt>
      <trkpt lat="42.280004000" lon="-2.526322000">
        <ele>858.90</ele>
        <time>2014-11-01T10:00:20Z</time>
      </trkpt>
      <trkpt lat="42.279998000" lon="-2.526332000">
        <ele>858.90</ele>
        <time>2014-11-01T10:00:21Z</time>
      </trkpt>
      <trkpt lat="42.279991000" lon="-2.526341000">
        <ele>859.30</ele>
        <time>2014-11-01T10:00:23Z</time>
      </trkpt>
      <trkpt lat="42.280003000" lon="-2.526336000">
        <ele>859.30</ele>
        <time>2014-11-01T10:00:24Z</time>
      </trkpt>
      <trkpt lat="42.280009000" lon="-2.526331000">
        <ele>859.30</ele>
        <time>2014-11-01T10:00:25Z</time>
      </trkpt>
      <trkpt lat="42.280019000" lon="-2.526323000">
        <ele>859.40</ele>
        <time>2014-11-01T10:00:26Z</time>
      </trkpt>
      <trkpt lat="42.280022000" lon="-2.526315000">
        <ele>859.40</ele>
        <time>2014-11-01T10:00:27Z</time>
      </trkpt>
      <trkpt lat="42.280018000" lon="-2.526311000">
        <ele>859.40</ele>
        <time>2014-11-01T10:00:28Z</time>
      </trkpt>
      <trkpt lat="42.279998000" lon="-2.526306000">
        <ele>859.40</ele>
        <time>2014-11-01T10:00:29Z</time>
      </trkpt>
      <trkpt lat="42.279980000" lon="-2.526299000">
        <ele>859.40</ele>
        <time>2014-11-01T10:00:30Z</time>
      </trkpt>
      <trkpt lat="42.279971000" lon="-2.526288000">
        <ele>859.40</ele>
        <time>2014-11-01T10:00:31Z</time>
      </trkpt>
      <trkpt lat="42.279974000" lon="-2.526279000">
        <ele>859.40</ele>
        <time>2014-11-01T10:00:32Z</time>
      </trkpt>
      <trkpt lat="42.279992000" lon="-2.526272000">
        <ele>859.40</ele>
        <time>2014-11-01T10:00:33Z</time>
      </trkpt>
      <trkpt lat="42.280010000" lon="-2.526275000">
        <ele>859.40</ele>
        <time>2014-11-01T10:00:34Z</time>
      </trkpt>
      <trkpt lat="42.280020000" lon="-2.526283000">
        <ele>859.40</ele>
        <time>2014-11-01T10:00:35Z</time>
      </trkpt>
      <trkpt lat="42.280020000" lon="-2.526294000">
        <ele>859.50</ele>
        <time>2014-11-01T10:00:36Z</time>
      </trkpt>
      <trkpt lat="42.280013000" lon="-2.526305000">
        <ele>859.50</ele>
        <time>2014-11-01T10:00:37Z</time>
      </trkpt>
      <trkpt lat="42.280006000" lon="-2.526317000">
        <ele>859.60</ele>
        <time>2014-11-01T10:00:38Z</time>
      </trkpt>
      <trkpt lat="42.280006000" lon="-2.526322000">
        <ele>859.60</ele>
        <time>2014-11-01T10:00:39Z</time>
      </trkpt>
      <trkpt lat="42.280015000" lon="-2.526321000">
        <ele>859.60</ele>
        <time>2014-11-01T10:00:40Z</time>
      </trkpt>
      <trkpt lat="42.280030000" lon="-2.526315000">
        <ele>859.60</ele>
        <time>2014-11-01T10:00:41Z</time>
      </trkpt>
      <trkpt lat="42.280039000" lon="-2.526311000">
        <ele>859.60</ele>
        <time>2014-11-01T10:00:42Z</time>
      </trkpt>
      <trkpt lat="42.280042000" lon="-2.526302000">
        <ele>859.50</ele>
        <time>2014-11-01T10:00:43Z</time>
      </trkpt>
      <trkpt lat="42.280034000" lon="-2.526309000">
        <ele>859.50</ele>
        <time>2014-11-01T10:00:44Z</time>
      </trkpt>
      <trkpt lat="42.280022000" lon="-2.526323000">
        <ele>859.50</ele>
        <time>2014-11-01T10:00:45Z</time>
      </trkpt>
      <trkpt lat="42.280009000" lon="-2.526341000">
        <ele>859.40</ele>
        <time>2014-11-01T10:00:46Z</time>
      </trkpt>
      <trkpt lat="42.280005000" lon="-2.526352000">
        <ele>859.30</ele>
        <time>2014-11-01T10:00:47Z</time>
      </trkpt>
      <trkpt lat="42.280008000" lon="-2.526352000">
        <ele>859.30</ele>
        <time>2014-11-01T10:00:48Z</time>
      </trkpt>
      <trkpt lat="42.280021000" lon="-2.526345000">
        <ele>859.30</ele>
        <time>2014-11-01T10:00:49Z</time>
      </trkpt>
      <trkpt lat="42.280032000" lon="-2.526334000">
        <ele>859.20</ele>
        <time>2014-11-01T10:00:50Z</time>
      </trkpt>
      <trkpt lat="42.280033000" lon="-2.526330000">
        <ele>859.20</ele>
        <time>2014-11-01T10:00:51Z</time>
      </trkpt>
      <trkpt lat="42.280028000" lon="-2.526325000">
        <ele>859.30</ele>
        <time>2014-11-01T10:00:52Z</time>
      </trkpt>
      <trkpt lat="42.280021000" lon="-2.526323000">
        <ele>859.30</ele>
        <time>2014-11-01T10:00:53Z</time>
      </trkpt>
      <trkpt lat="42.280014000" lon="-2.526324000">
        <ele>859.30</ele>
        <time>2014-11-01T10:00:54Z</time>
      </trkpt>
      <trkpt lat="42.280008000" lon="-2.526330000">
        <ele>859.40</ele>
        <time>2014-11-01T10:00:55Z</time>
      </trkpt>
      <trkpt lat="42.280006000" lon="-2.526337000">
        <ele>859.40</ele>
        <time>2014-11-01T10:00:56Z</time>
      </trkpt>
      <trkpt lat="42.280010000" lon="-2.526341000">
        <ele>859.40</ele>
        <time>2014-11-01T10:00:57Z</time>
      </trkpt>
      <trkpt lat="42.280014000" lon="-2.526344000">
        <ele>859.40</ele>
        <time>2014-11-01T10:00:58Z</time>
      </trkpt>
      <trkpt lat="42.280018000" lon="-2.526345000">
        <ele>859.40</ele>
        <time>2014-11-01T10:00:59Z</time>
      </trkpt>
      <trkpt lat="42.280019000" lon="-2.526346000">
        <ele>859.50</ele>
        <time>2014-11-01T10:01:00Z</time>
      </trkpt>
      <trkpt lat="42.280019000" lon="-2.526347000">
        <ele>859.60</ele>
        <time>2014-11-01T10:01:01Z</time>
      </trkpt>
      <trkpt lat="42.280018000" lon="-2.526348000">
        <ele>859.70</ele>
        <time>2014-11-01T10:01:02Z</time>
      </trkpt>
      <trkpt lat="42.280019000" lon="-2.526348000">
        <ele>859.70</ele>
        <time>2014-11-01T10:01:03Z</time>
      </trkpt>
      <trkpt lat="42.280020000" lon="-2.526349000">
        <ele>859.70</ele>
        <time>2014-11-01T10:01:04Z</time>
      </trkpt>
      <trkpt lat="42.280024000" lon="-2.526351000">
        <ele>859.70</ele>
        <time>2014-11-01T10:01:05Z</time>
      </trkpt>
      <trkpt lat="42.280028000" lon="-2.526353000">
        <ele>859.70</ele>
        <time>2014-11-01T10:01:06Z</time>
      </trkpt>
      <trkpt lat="42.280031000" lon="-2.526356000">
        <ele>859.70</ele>
        <time>2014-11-01T10:01:07Z</time>
      </trkpt>
      <trkpt lat="42.280032000" lon="-2.526366000">
        <ele>859.60</ele>
        <time>2014-11-01T10:01:08Z</time>
      </trkpt>
      <trkpt lat="42.280027000" lon="-2.526374000">
        <ele>859.60</ele>
        <time>2014-11-01T10:01:09Z</time>
      </trkpt>
      <trkpt lat="42.280022000" lon="-2.526378000">
        <ele>859.50</ele>
        <time>2014-11-01T10:01:10Z</time>
      </trkpt>
      <trkpt lat="42.280021000" lon="-2.526380000">
        <ele>859.50</ele>
        <time>2014-11-01T10:01:11Z</time>
      </trkpt>
      <trkpt lat="42.280023000" lon="-2.526374000">
        <ele>859.40</ele>
        <time>2014-11-01T10:01:12Z</time>
      </trkpt>
      <trkpt lat="42.280025000" lon="-2.526367000">
        <ele>859.40</ele>
        <time>2014-11-01T10:01:13Z</time>
      </trkpt>
      <trkpt lat="42.280027000" lon="-2.526361000">
        <ele>859.30</ele>
        <time>2014-11-01T10:01:14Z</time>
      </trkpt>
      <trkpt lat="42.280022000" lon="-2.526364000">
        <ele>859.30</ele>
        <time>2014-11-01T10:01:15Z</time>
      </trkpt>
      <trkpt lat="42.280017000" lon="-2.526365000">
        <ele>859.30</ele>
        <time>2014-11-01T10:01:16Z</time>
      </trkpt>
      <trkpt lat="42.280007000" lon="-2.526363000">
        <ele>859.30</ele>
        <time>2014-11-01T10:01:17Z</time>
      </trkpt>
      <trkpt lat="42.279999000" lon="-2.526354000">
        <ele>859.40</ele>
        <time>2014-11-01T10:01:18Z</time>
      </trkpt>
      <trkpt lat="42.279993000" lon="-2.526340000">
        <ele>859.40</ele>
        <time>2014-11-01T10:01:19Z</time>
      </trkpt>
      <trkpt lat="42.279992000" lon="-2.526332000">
        <ele>859.40</ele>
        <time>2014-11-01T10:01:20Z</time>
      </trkpt>
      <trkpt lat="42.279996000" lon="-2.526321000">
        <ele>859.40</ele>
        <time>2014-11-01T10:01:21Z</time>
      </trkpt>
      <trkpt lat="42.279999000" lon="-2.526314000">
        <ele>859.50</ele>
        <time>2014-11-01T10:01:22Z</time>
      </trkpt>
      <trkpt lat="42.279992000" lon="-2.526316000">
        <ele>859.70</ele>
        <time>2014-11-01T10:01:24Z</time>
      </trkpt>
      <trkpt lat="42.279989000" lon="-2.526310000">
        <ele>859.80</ele>
        <time>2014-11-01T10:01:25Z</time>
      </trkpt>
      <trkpt lat="42.279989000" lon="-2.526312000">
        <ele>859.80</ele>
        <time>2014-11-01T10:01:26Z</time>
      </trkpt>
      <trkpt lat="42.279990000" lon="-2.526311000">
        <ele>859.90</ele>
        <time>2014-11-01T10:01:27Z</time>
      </trkpt>
      <trkpt lat="42.279998000" lon="-2.526307000">
        <ele>859.80</ele>
        <time>2014-11-01T10:01:28Z</time>
      </trkpt>
      <trkpt lat="42.280010000" lon="-2.526307000">
        <ele>859.70</ele>
        <time>2014-11-01T10:01:29Z</time>
      </trkpt>
      <trkpt lat="42.280020000" lon="-2.526315000">
        <ele>859.40</ele>
        <time>2014-11-01T10:01:30Z</time>
      </trkpt>
      <trkpt lat="42.280019000" lon="-2.526317000">
        <ele>859.30</ele>
        <time>2014-11-01T10:01:31Z</time>
      </trkpt>
      <trkpt lat="42.280018000" lon="-2.526326000">
        <ele>859.10</ele>
        <time>2014-11-01T10:01:32Z</time>
      </trkpt>
      <trkpt lat="42.280015000" lon="-2.526333000">
        <ele>859.00</ele>
        <time>2014-11-01T10:01:33Z</time>
      </trkpt>
      <trkpt lat="42.280014000" lon="-2.526343000">
        <ele>859.10</ele>
        <time>2014-11-01T10:01:34Z</time>
      </trkpt>
      <trkpt lat="42.280015000" lon="-2.526350000">
        <ele>859.20</ele>
        <time>2014-11-01T10:01:35Z</time>
      </trkpt>
      <trkpt lat="42.280019000" lon="-2.526355000">
        <ele>859.30</ele>
        <time>2014-11-01T10:01:36Z</time>
      </trkpt>
      <trkpt lat="42.280023000" lon="-2.526355000">
        <ele>859.30</ele>
        <time>2014-11-01T10:01:37Z</time>
      </trkpt>
      <trkpt lat="42.280024000" lon="-2.526360000">
        <ele>859.30</ele>
        <time>2014-11-01T10:01:38Z</time>
      </trkpt>
      <trkpt lat="42.280022000" lon="-2.526359000">
        <ele>859.40</ele>
        <time>2014-11-01T10:01:39Z</time>
      </trkpt>
      <trkpt lat="42.280020000" lon="-2.526362000">
        <ele>859.40</ele>
        <time>2014-11-01T10:01:40Z</time>
      </trkpt>
      <trkpt lat="42.280020000" lon="-2.526369000">
        <ele>859.50</ele>
        <time>2014-11-01T10:01:41Z</time>
      </trkpt>
      <trkpt lat="42.280017000" lon="-2.526379000">
        <ele>859.60</ele>
        <time>2014-11-01T10:01:42Z</time>
      </trkpt>
      <trkpt lat="42.280018000" lon="-2.526387000">
        <ele>859.70</ele>
        <time>2014-11-01T10:01:43Z</time>
      </trkpt>
      <trkpt lat="42.280020000" lon="-2.526397000">
        <ele>859.70</ele>
        <time>2014-11-01T10:01:44Z</time>
      </trkpt>
      <trkpt lat="42.280020000" lon="-2.526407000">
        <ele>859.70</ele>
        <time>2014-11-01T10:01:45Z</time>
      </trkpt>
      <trkpt lat="42.280020000" lon="-2.526406000">
        <ele>859.70</ele>
        <time>2014-11-01T10:01:46Z</time>
      </trkpt>
      <trkpt lat="42.280018000" lon="-2.526406000">
        <ele>859.70</ele>
        <time>2014-11-01T10:01:47Z</time>
      </trkpt>
      <trkpt lat="42.280012000" lon="-2.526402000">
        <ele>859.70</ele>
        <time>2014-11-01T10:01:48Z</time>
      </trkpt>
      <trkpt lat="42.280007000" lon="-2.526400000">
        <ele>859.70</ele>
        <time>2014-11-01T10:01:49Z</time>
      </trkpt>
      <trkpt lat="42.280003000" lon="-2.526400000">
        <ele>859.70</ele>
        <time>2014-11-01T10:01:50Z</time>
      </trkpt>
      <trkpt lat="42.280008000" lon="-2.526399000">
        <ele>859.70</ele>
        <time>2014-11-01T10:01:51Z</time>
      </trkpt>
      <trkpt lat="42.280007000" lon="-2.526413000">
        <ele>859.80</ele>
        <time>2014-11-01T10:01:52Z</time>
      </trkpt>
      <trkpt lat="42.280001000" lon="-2.526436000">
        <ele>859.80</ele>
        <time>2014-11-01T10:01:53Z</time>
      </trkpt>
      <trkpt lat="42.280006000" lon="-2.526455000">
        <ele>859.80</ele>
        <time>2014-11-01T10:01:54Z</time>
      </trkpt>
      <trkpt lat="42.280006000" lon="-2.526470000">
        <ele>859.70</ele>
        <time>2014-11-01T10:01:55Z</time>
      </trkpt>
      <trkpt lat="42.279998000" lon="-2.526485000">
        <ele>859.70</ele>
        <time>2014-11-01T10:01:56Z</time>
      </trkpt>
      <trkpt lat="42.279988000" lon="-2.526492000">
        <ele>859.70</ele>
        <time>2014-11-01T10:01:57Z</time>
      </trkpt>
      <trkpt lat="42.279976000" lon="-2.526485000">
        <ele>859.60</ele>
        <time>2014-11-01T10:01:58Z</time>
      </trkpt>
      <trkpt lat="42.279968000" lon="-2.526475000">
        <ele>859.50</ele>
        <time>2014-11-01T10:01:59Z</time>
      </trkpt>
      <trkpt lat="42.279964000" lon="-2.526461000">
        <ele>859.50</ele>
        <time>2014-11-01T10:02:00Z</time>
      </trkpt>
      <trkpt lat="42.279964000" lon="-2.526450000">
        <ele>859.40</ele>
        <time>2014-11-01T10:02:01Z</time>
      </trkpt>
      <trkpt lat="42.279966000" lon="-2.526442000">
        <ele>859.40</ele>
        <time>2014-11-01T10:02:02Z</time>
      </trkpt>
      <trkpt lat="42.279966000" lon="-2.526441000">
        <ele>859.40</ele>
        <time>2014-11-01T10:02:03Z</time>
      </trkpt>
      <trkpt lat="42.279957000" lon="-2.526446000">
        <ele>859.40</ele>
        <time>2014-11-01T10:02:04Z</time>
      </trkpt>
      <trkpt lat="42.279950000" lon="-2.526447000">
        <ele>859.40</ele>
        <time>2014-11-01T10:02:05Z</time>
      </trkpt>
      <trkpt lat="42.279942000" lon="-2.526446000">
        <ele>859.40</ele>
        <time>2014-11-01T10:02:06Z</time>
      </trkpt>
      <trkpt lat="42.279935000" lon="-2.526443000">
        <ele>859.40</ele>
        <time>2014-11-01T10:02:07Z</time>
      </trkpt>
      <trkpt lat="42.279928000" lon="-2.526438000">
        <ele>859.40</ele>
        <time>2014-11-01T10:02:08Z</time>
      </trkpt>
      <trkpt lat="42.279923000" lon="-2.526433000">
        <ele>859.30</ele>
        <time>2014-11-01T10:02:09Z</time>
      </trkpt>
      <trkpt lat="42.279921000" lon="-2.526429000">
        <ele>859.30</ele>
        <time>2014-11-01T10:02:10Z</time>
      </trkpt>
      <trkpt lat="42.279920000" lon="-2.526427000">
        <ele>859.20</ele>
        <time>2014-11-01T10:02:11Z</time>
      </trkpt>
      <trkpt lat="42.279919000" lon="-2.526423000">
        <ele>859.20</ele>
        <time>2014-11-01T10:02:12Z</time>
      </trkpt>
      <trkpt lat="42.279916000" lon="-2.526420000">
        <ele>859.20</ele>
        <time>2014-11-01T10:02:13Z</time>
      </trkpt>
      <trkpt lat="42.279910000" lon="-2.526421000">
        <ele>859.10</ele>
        <time>2014-11-01T10:02:14Z</time>
      </trkpt>
      <trkpt lat="42.279906000" lon="-2.526423000">
        <ele>859.10</ele>
        <time>2014-11-01T10:02:15Z</time>
      </trkpt>
      <trkpt lat="42.279902000" lon="-2.526424000">
        <ele>859.20</ele>
        <time>2014-11-01T10:02:16Z</time>
      </trkpt>
      <trkpt lat="42.279901000" lon="-2.526422000">
        <ele>859.20</ele>
        <time>2014-11-01T10:02:17Z</time>
      </trkpt>
      <trkpt lat="42.279904000" lon="-2.526425000">
        <ele>859.20</ele>
        <time>2014-11-01T10:02:18Z</time>
      </trkpt>
      <trkpt lat="42.279909000" lon="-2.526423000">
        <ele>859.10</ele>
        <time>2014-11-01T10:02:19Z</time>
      </trkpt>
      <trkpt lat="42.279913000" lon="-2.526419000">
        <ele>859.20</ele>
        <time>2014-11-01T10:02:20Z</time>
      </trkpt>
      <trkpt lat="42.279918000" lon="-2.526409000">
        <ele>859.20</ele>
        <time>2014-11-01T10:02:21Z</time>
      </trkpt>
      <trkpt lat="42.279921000" lon="-2.526402000">
        <ele>859.20</ele>
        <time>2014-11-01T10:02:22Z</time>
      </trkpt>
      <trkpt lat="42.279923000" lon="-2.526398000">
        <ele>859.20</ele>
        <time>2014-11-01T10:02:23Z</time>
      </trkpt>
      <trkpt lat="42.279927000" lon="-2.526403000">
        <ele>859.00</ele>
        <time>2014-11-01T10:02:25Z</time>
      </trkpt>
      <trkpt lat="42.279932000" lon="-2.526408000">
        <ele>859.00</ele>
        <time>2014-11-01T10:02:26Z</time>
      </trkpt>
      <trkpt lat="42.279935000" lon="-2.526412000">
        <ele>859.00</ele>
        <time>2014-11-01T10:02:27Z</time>
      </trkpt>
      <trkpt lat="42.279937000" lon="-2.526413000">
        <ele>859.00</ele>
        <time>2014-11-01T10:02:28Z</time>
      </trkpt>
      <trkpt lat="42.279937000" lon="-2.526408000">
        <ele>859.00</ele>
        <time>2014-11-01T10:02:29Z</time>
      </trkpt>
      <trkpt lat="42.279937000" lon="-2.526401000">
        <ele>859.10</ele>
        <time>2014-11-01T10:02:30Z</time>
      </trkpt>
      <trkpt lat="42.279934000" lon="-2.526391000">
        <ele>859.20</ele>
        <time>2014-11-01T10:02:31Z</time>
      </trkpt>
      <trkpt lat="42.279935000" lon="-2.526387000">
        <ele>859.20</ele>
        <time>2014-11-01T10:02:32Z</time>
      </trkpt>
      <trkpt lat="42.279938000" lon="-2.526384000">
        <ele>859.20</ele>
        <time>2014-11-01T10:02:33Z</time>
      </trkpt>
      <trkpt lat="42.279940000" lon="-2.526383000">
        <ele>859.30</ele>
        <time>2014-11-01T10:02:34Z</time>
      </trkpt>
      <trkpt lat="42.279943000" lon="-2.526381000">
        <ele>859.30</ele>
        <time>2014-11-01T10:02:35Z</time>
      </trkpt>
      <trkpt lat="42.279946000" lon="-2.526383000">
        <ele>859.30</ele>
        <time>2014-11-01T10:02:36Z</time>
      </trkpt>
      <trkpt lat="42.279947000" lon="-2.526384000">
        <ele>859.30</ele>
        <time>2014-11-01T10:02:37Z</time>
      </trkpt>
      <trkpt lat="42.279948000" lon="-2.526383000">
        <ele>859.30</ele>
        <time>2014-11-01T10:02:38Z</time>
      </trkpt>
      <trkpt lat="42.279951000" lon="-2.526384000">
        <ele>859.30</ele>
        <time>2014-11-01T10:02:39Z</time>
      </trkpt>
      <trkpt lat="42.279956000" lon="-2.526382000">
        <ele>859.30</ele>
        <time>2014-11-01T10:02:40Z</time>
      </trkpt>
      <trkpt lat="42.279961000" lon="-2.526381000">
        <ele>859.30</ele>
        <time>2014-11-01T10:02:41Z</time>
      </trkpt>
      <trkpt lat="42.279966000" lon="-2.526379000">
        <ele>859.50</ele>
        <time>2014-11-01T10:02:42Z</time>
      </trkpt>
      <trkpt lat="42.279970000" lon="-2.526378000">
        <ele>859.60</ele>
        <time>2014-11-01T10:02:43Z</time>
      </trkpt>
      <trkpt lat="42.279972000" lon="-2.526380000">
        <ele>859.60</ele>
        <time>2014-11-01T10:02:44Z</time>
      </trkpt>
      <trkpt lat="42.279972000" lon="-2.526384000">
        <ele>859.70</ele>
        <time>2014-11-01T10:02:45Z</time>
      </trkpt>
      <trkpt lat="42.279971000" lon="-2.526388000">
        <ele>859.70</ele>
        <time>2014-11-01T10:02:46Z</time>
      </trkpt>
      <trkpt lat="42.279968000" lon="-2.526391000">
        <ele>859.80</ele>
        <time>2014-11-01T10:02:47Z</time>
      </trkpt>
      <trkpt lat="42.279966000" lon="-2.526393000">
        <ele>859.70</ele>
        <time>2014-11-01T10:02:48Z</time>
      </trkpt>
      <trkpt lat="42.279963000" lon="-2.526394000">
        <ele>859.70</ele>
        <time>2014-11-01T10:02:49Z</time>
      </trkpt>
      <trkpt lat="42.279962000" lon="-2.526392000">
        <ele>859.70</ele>
        <time>2014-11-01T10:02:50Z</time>
      </trkpt>
      <trkpt lat="42.279961000" lon="-2.526387000">
        <ele>859.70</ele>
        <time>2014-11-01T10:02:51Z</time>
      </trkpt>
      <trkpt lat="42.279962000" lon="-2.526380000">
        <ele>859.60</ele>
        <time>2014-11-01T10:02:52Z</time>
      </trkpt>
      <trkpt lat="42.279964000" lon="-2.526371000">
        <ele>859.60</ele>
        <time>2014-11-01T10:02:53Z</time>
      </trkpt>
      <trkpt lat="42.279965000" lon="-2.526366000">
        <ele>859.60</ele>
        <time>2014-11-01T10:02:54Z</time>
      </trkpt>
      <trkpt lat="42.279966000" lon="-2.526363000">
        <ele>859.60</ele>
        <time>2014-11-01T10:02:55Z</time>
      </trkpt>
      <trkpt lat="42.279967000" lon="-2.526361000">
        <ele>859.60</ele>
        <time>2014-11-01T10:02:56Z</time>
      </trkpt>
      <trkpt lat="42.279969000" lon="-2.526359000">
        <ele>859.60</ele>
        <time>2014-11-01T10:02:57Z</time>
      </trkpt>
      <trkpt lat="42.279962000" lon="-2.526352000">
        <ele>859.60</ele>
        <time>2014-11-01T10:02:58Z</time>
      </trkpt>
      <trkpt lat="42.279957000" lon="-2.526344000">
        <ele>859.60</ele>
        <time>2014-11-01T10:02:59Z</time>
      </trkpt>
      <trkpt lat="42.279960000" lon="-2.526322000">
        <ele>859.60</ele>
        <time>2014-11-01T10:03:00Z</time>
      </trkpt>
      <trkpt lat="42.279964000" lon="-2.526303000">
        <ele>859.60</ele>
        <time>2014-11-01T10:03:01Z</time>
      </trkpt>
      <trkpt lat="42.279971000" lon="-2.526291000">
        <ele>859.60</ele>
        <time>2014-11-01T10:03:02Z</time>
      </trkpt>
      <trkpt lat="42.279970000" lon="-2.526296000">
        <ele>859.60</ele>
        <time>2014-11-01T10:03:03Z</time>
      </trkpt>
      <trkpt lat="42.279966000" lon="-2.526309000">
        <ele>859.60</ele>
        <time>2014-11-01T10:03:04Z</time>
      </trkpt>
      <trkpt lat="42.279966000" lon="-2.526316000">
        <ele>859.50</ele>
        <time>2014-11-01T10:03:05Z</time>
      </trkpt>
      <trkpt lat="42.279968000" lon="-2.526322000">
        <ele>859.60</ele>
        <time>2014-11-01T10:03:06Z</time>
      </trkpt>
      <trkpt lat="42.279949000" lon="-2.526336000">
        <ele>859.60</ele>
        <time>2014-11-01T10:03:07Z</time>
      </trkpt>
      <trkpt lat="42.279950000" lon="-2.526345000">
        <ele>859.80</ele>
        <time>2014-11-01T10:03:08Z</time>
      </trkpt>
      <trkpt lat="42.279959000" lon="-2.526355000">
        <ele>859.80</ele>
        <time>2014-11-01T10:03:09Z</time>
      </trkpt>
      <trkpt lat="42.279963000" lon="-2.526361000">
        <ele>859.80</ele>
        <time>2014-11-01T10:03:10Z</time>
      </trkpt>
      <trkpt lat="42.279969000" lon="-2.526369000">
        <ele>859.80</ele>
        <time>2014-11-01T10:03:11Z</time>
      </trkpt>
      <trkpt lat="42.279973000" lon="-2.526364000">
        <ele>859.80</ele>
        <time>2014-11-01T10:03:12Z</time>
      </trkpt>
      <trkpt lat="42.279978000" lon="-2.526359000">
        <ele>859.80</ele>
        <time>2014-11-01T10:03:13Z</time>
      </trkpt>
      <trkpt lat="42.279981000" lon="-2.526356000">
        <ele>859.80</ele>
        <time>2014-11-01T10:03:14Z</time>
      </trkpt>
      <trkpt lat="42.279980000" lon="-2.526347000">
        <ele>859.80</ele>
        <time>2014-11-01T10:03:15Z</time>
      </trkpt>
      <trkpt lat="42.279984000" lon="-2.526347000">
        <ele>860.00</ele>
        <time>2014-11-01T10:03:16Z</time>
      </trkpt>
      <trkpt lat="42.279979000" lon="-2.526349000">
        <ele>860.20</ele>
        <time>2014-11-01T10:03:17Z</time>
      </trkpt>
      <trkpt lat="42.279976000" lon="-2.526351000">
        <ele>860.40</ele>
        <time>2014-11-01T10:03:18Z</time>
      </trkpt>
      <trkpt lat="42.279970000" lon="-2.526354000">
        <ele>860.50</ele>
        <time>2014-11-01T10:03:19Z</time>
      </trkpt>
      <trkpt lat="42.279972000" lon="-2.526357000">
        <ele>860.50</ele>
        <time>2014-11-01T10:03:20Z</time>
      </trkpt>
      <trkpt lat="42.279974000" lon="-2.526357000">
        <ele>860.50</ele>
        <time>2014-11-01T10:03:21Z</time>
      </trkpt>
      <trkpt lat="42.279976000" lon="-2.526359000">
        <ele>860.40</ele>
        <time>2014-11-01T10:03:22Z</time>
      </trkpt>
      <trkpt lat="42.279991000" lon="-2.526368000">
        <ele>860.30</ele>
        <time>2014-11-01T10:03:23Z</time>
      </trkpt>
      <trkpt lat="42.280006000" lon="-2.526380000">
        <ele>860.20</ele>
        <time>2014-11-01T10:03:24Z</time>
      </trkpt>
      <trkpt lat="42.280021000" lon="-2.526390000">
        <ele>860.10</ele>
        <time>2014-11-01T10:03:26Z</time>
      </trkpt>
      <trkpt lat="42.280026000" lon="-2.526394000">
        <ele>860.00</ele>
        <time>2014-11-01T10:03:27Z</time>
      </trkpt>
      <trkpt lat="42.280032000" lon="-2.526385000">
        <ele>860.00</ele>
        <time>2014-11-01T10:03:28Z</time>
      </trkpt>
      <trkpt lat="42.280034000" lon="-2.526373000">
        <ele>859.90</ele>
        <time>2014-11-01T10:03:29Z</time>
      </trkpt>
      <trkpt lat="42.280032000" lon="-2.526355000">
        <ele>859.90</ele>
        <time>2014-11-01T10:03:30Z</time>
      </trkpt>
      <trkpt lat="42.280043000" lon="-2.526346000">
        <ele>859.90</ele>
        <time>2014-11-01T10:03:31Z</time>
      </trkpt>
      <trkpt lat="42.280061000" lon="-2.526341000">
        <ele>859.80</ele>
        <time>2014-11-01T10:03:32Z</time>
      </trkpt>
      <trkpt lat="42.280083000" lon="-2.526335000">
        <ele>859.80</ele>
        <time>2014-11-01T10:03:33Z</time>
      </trkpt>
      <trkpt lat="42.280101000" lon="-2.526324000">
        <ele>859.70</ele>
        <time>2014-11-01T10:03:34Z</time>
      </trkpt>
      <trkpt lat="42.280118000" lon="-2.526315000">
        <ele>859.70</ele>
        <time>2014-11-01T10:03:35Z</time>
      </trkpt>
      <trkpt lat="42.280133000" lon="-2.526304000">
        <ele>859.60</ele>
        <time>2014-11-01T10:03:36Z</time>
      </trkpt>
      <trkpt lat="42.280153000" lon="-2.526299000">
        <ele>859.60</ele>
        <time>2014-11-01T10:03:37Z</time>
      </trkpt>
      <trkpt lat="42.280171000" lon="-2.526296000">
        <ele>859.60</ele>
        <time>2014-11-01T10:03:38Z</time>
      </trkpt>
      <trkpt lat="42.280189000" lon="-2.526284000">
        <ele>859.60</ele>
        <time>2014-11-01T10:03:39Z</time>
      </trkpt>
      <trkpt lat="42.280212000" lon="-2.526269000">
        <ele>859.40</ele>
        <time>2014-11-01T10:03:40Z</time>
      </trkpt>
      <trkpt lat="42.280234000" lon="-2.526247000">
        <ele>859.30</ele>
        <time>2014-11-01T10:03:41Z</time>
      </trkpt>
      <trkpt lat="42.280259000" lon="-2.526224000">
        <ele>859.20</ele>
        <time>2014-11-01T10:03:42Z</time>
      </trkpt>
      <trkpt lat="42.280282000" lon="-2.526201000">
        <ele>859.20</ele>
        <time>2014-11-01T10:03:43Z</time>
      </trkpt>
      <trkpt lat="42.280308000" lon="-2.526174000">
        <ele>859.10</ele>
        <time>2014-11-01T10:03:44Z</time>
      </trkpt>
      <trkpt lat="42.280340000" lon="-2.526145000">
        <ele>859.10</ele>
        <time>2014-11-01T10:03:45Z</time>
      </trkpt>
      <trkpt lat="42.280375000" lon="-2.526118000">
        <ele>858.90</ele>
        <time>2014-11-01T10:03:46Z</time>
      </trkpt>
      <trkpt lat="42.280393000" lon="-2.526084000">
        <ele>858.80</ele>
        <time>2014-11-01T10:03:47Z</time>
      </trkpt>
      <trkpt lat="42.280411000" lon="-2.526065000">
        <ele>858.50</ele>
        <time>2014-11-01T10:03:48Z</time>
      </trkpt>
      <trkpt lat="42.280434000" lon="-2.526057000">
        <ele>858.20</ele>
        <time>2014-11-01T10:03:49Z</time>
      </trkpt>
      <trkpt lat="42.280449000" lon="-2.526035000">
        <ele>858.00</ele>
        <time>2014-11-01T10:03:50Z</time>
      </trkpt>
      <trkpt lat="42.280473000" lon="-2.526013000">
        <ele>857.90</ele>
        <time>2014-11-01T10:03:51Z</time>
      </trkpt>
      <trkpt lat="42.280498000" lon="-2.525991000">
        <ele>857.20</ele>
        <time>2014-11-01T10:03:52Z</time>
      </trkpt>
      <trkpt lat="42.280524000" lon="-2.525970000">
        <ele>856.80</ele>
        <time>2014-11-01T10:03:53Z</time>
      </trkpt>
      <trkpt lat="42.280543000" lon="-2.525946000">
        <ele>856.30</ele>
        <time>2014-11-01T10:03:54Z</time>
      </trkpt>
      <trkpt lat="42.280564000" lon="-2.525926000">
        <ele>855.90</ele>
        <time>2014-11-01T10:03:55Z</time>
      </trkpt>
      <trkpt lat="42.280578000" lon="-2.525901000">
        <ele>855.50</ele>
        <time>2014-11-01T10:03:56Z</time>
      </trkpt>
      <trkpt lat="42.280592000" lon="-2.525880000">
        <ele>855.30</ele>
        <time>2014-11-01T10:03:57Z</time>
      </trkpt>
      <trkpt lat="42.280605000" lon="-2.525864000">
        <ele>855.00</ele>
        <time>2014-11-01T10:03:58Z</time>
      </trkpt>
      <trkpt lat="42.280619000" lon="-2.525845000">
        <ele>854.80</ele>
        <time>2014-11-01T10:03:59Z</time>
      </trkpt>
      <trkpt lat="42.280628000" lon="-2.525824000">
        <ele>854.30</ele>
        <time>2014-11-01T10:04:00Z</time>
      </trkpt>
      <trkpt lat="42.280636000" lon="-2.525801000">
        <ele>854.00</ele>
        <time>2014-11-01T10:04:01Z</time>
      </trkpt>
      <trkpt lat="42.280646000" lon="-2.525778000">
        <ele>853.60</ele>
        <time>2014-11-01T10:04:02Z</time>
      </trkpt>
      <trkpt lat="42.280655000" lon="-2.525761000">
        <ele>853.40</ele>
        <time>2014-11-01T10:04:03Z</time>
      </trkpt>
      <trkpt lat="42.280666000" lon="-2.525752000">
        <ele>853.20</ele>
        <time>2014-11-01T10:04:04Z</time>
      </trkpt>
      <trkpt lat="42.280674000" lon="-2.525744000">
        <ele>853.10</ele>
        <time>2014-11-01T10:04:05Z</time>
      </trkpt>
      <trkpt lat="42.280685000" lon="-2.525736000">
        <ele>852.90</ele>
        <time>2014-11-01T10:04:06Z</time>
      </trkpt>
      <trkpt lat="42.280696000" lon="-2.525722000">
        <ele>852.70</ele>
        <time>2014-11-01T10:04:07Z</time>
      </trkpt>
      <trkpt lat="42.280708000" lon="-2.525712000">
        <ele>852.70</ele>
        <time>2014-11-01T10:04:08Z</time>
      </trkpt>
      <trkpt lat="42.280715000" lon="-2.525701000">
        <ele>852.70</ele>
        <time>2014-11-01T10:04:09Z</time>
      </trkpt>
      <trkpt lat="42.280727000" lon="-2.525692000">
        <ele>852.40</ele>
        <time>2014-11-01T10:04:10Z</time>
      </trkpt>
      <trkpt lat="42.280742000" lon="-2.525697000">
        <ele>852.20</ele>
        <time>2014-11-01T10:04:11Z</time>
      </trkpt>
      <trkpt lat="42.280764000" lon="-2.525706000">
        <ele>852.00</ele>
        <time>2014-11-01T10:04:12Z</time>
      </trkpt>
      <trkpt lat="42.280787000" lon="-2.525725000">
        <ele>851.80</ele>
        <time>2014-11-01T10:04:13Z</time>
      </trkpt>
      <trkpt lat="42.280796000" lon="-2.525746000">
        <ele>851.60</ele>
        <time>2014-11-01T10:04:14Z</time>
      </trkpt>
      <trkpt lat="42.280808000" lon="-2.525757000">
        <ele>851.50</ele>
        <time>2014-11-01T10:04:15Z</time>
      </trkpt>
      <trkpt lat="42.280807000" lon="-2.525761000">
        <ele>851.30</ele>
        <time>2014-11-01T10:04:16Z</time>
      </trkpt>
      <trkpt lat="42.280812000" lon="-2.525762000">
        <ele>851.30</ele>
        <time>2014-11-01T10:04:17Z</time>
      </trkpt>
      <trkpt lat="42.280824000" lon="-2.525763000">
        <ele>851.50</ele>
        <time>2014-11-01T10:04:18Z</time>
      </trkpt>
      <trkpt lat="42.280836000" lon="-2.525774000">
        <ele>851.70</ele>
        <time>2014-11-01T10:04:19Z</time>
      </trkpt>
      <trkpt lat="42.280844000" lon="-2.525785000">
        <ele>852.00</ele>
        <time>2014-11-01T10:04:20Z</time>
      </trkpt>
      <trkpt lat="42.280851000" lon="-2.525790000">
        <ele>852.20</ele>
        <time>2014-11-01T10:04:21Z</time>
      </trkpt>
      <trkpt lat="42.280863000" lon="-2.525803000">
        <ele>852.50</ele>
        <time>2014-11-01T10:04:22Z</time>
      </trkpt>
      <trkpt lat="42.280875000" lon="-2.525816000">
        <ele>852.70</ele>
        <time>2014-11-01T10:04:23Z</time>
      </trkpt>
      <trkpt lat="42.280888000" lon="-2.525827000">
        <ele>852.70</ele>
        <time>2014-11-01T10:04:24Z</time>
      </trkpt>
      <trkpt lat="42.280894000" lon="-2.525838000">
        <ele>852.70</ele>
        <time>2014-11-01T10:04:25Z</time>
      </trkpt>
      <trkpt lat="42.280918000" lon="-2.525866000">
        <ele>852.90</ele>
        <time>2014-11-01T10:04:27Z</time>
      </trkpt>
      <trkpt lat="42.280928000" lon="-2.525883000">
        <ele>852.90</ele>
        <time>2014-11-01T10:04:28Z</time>
      </trkpt>
      <trkpt lat="42.280934000" lon="-2.525896000">
        <ele>853.00</ele>
        <time>2014-11-01T10:04:29Z</time>
      </trkpt>
      <trkpt lat="42.280940000" lon="-2.525910000">
        <ele>853.00</ele>
        <time>2014-11-01T10:04:30Z</time>
      </trkpt>
      <trkpt lat="42.280946000" lon="-2.525928000">
        <ele>853.00</ele>
        <time>2014-11-01T10:04:31Z</time>
      </trkpt>
      <trkpt lat="42.280953000" lon="-2.525945000">
        <ele>853.00</ele>
        <time>2014-11-01T10:04:32Z</time>
      </trkpt>
      <trkpt lat="42.280958000" lon="-2.525960000">
        <ele>853.00</ele>
        <time>2014-11-01T10:04:33Z</time>
      </trkpt>
      <trkpt lat="42.280965000" lon="-2.525978000">
        <ele>853.10</ele>
        <time>2014-11-01T10:04:34Z</time>
      </trkpt>
      <trkpt lat="42.280968000" lon="-2.525995000">
        <ele>853.20</ele>
        <time>2014-11-01T10:04:35Z</time>
      </trkpt>
      <trkpt lat="42.280979000" lon="-2.526010000">
        <ele>853.50</ele>
        <time>2014-11-01T10:04:36Z</time>
      </trkpt>
      <trkpt lat="42.280994000" lon="-2.526025000">
        <ele>853.80</ele>
        <time>2014-11-01T10:04:37Z</time>
      </trkpt>
      <trkpt lat="42.281005000" lon="-2.526039000">
        <ele>854.00</ele>
        <time>2014-11-01T10:04:38Z</time>
      </trkpt>
      <trkpt lat="42.281013000" lon="-2.526050000">
        <ele>854.20</ele>
        <time>2014-11-01T10:04:39Z</time>
      </trkpt>
      <trkpt lat="42.281012000" lon="-2.526057000">
        <ele>854.50</ele>
        <time>2014-11-01T10:04:40Z</time>
      </trkpt>
      <trkpt lat="42.281013000" lon="-2.526062000">
        <ele>854.80</ele>
        <time>2014-11-01T10:04:41Z</time>
      </trkpt>
      <trkpt lat="42.281014000" lon="-2.526073000">
        <ele>854.90</ele>
        <time>2014-11-01T10:04:42Z</time>
      </trkpt>
      <trkpt lat="42.281012000" lon="-2.526072000">
        <ele>855.10</ele>
        <time>2014-11-01T10:04:43Z</time>
      </trkpt>
      <trkpt lat="42.281015000" lon="-2.526077000">
        <ele>855.20</ele>
        <time>2014-11-01T10:04:44Z</time>
      </trkpt>
      <trkpt lat="42.281016000" lon="-2.526080000">
        <ele>855.30</ele>
        <time>2014-11-01T10:04:45Z</time>
      </trkpt>
      <trkpt lat="42.281017000" lon="-2.526082000">
        <ele>855.40</ele>
        <time>2014-11-01T10:04:46Z</time>
      </trkpt>
      <trkpt lat="42.281016000" lon="-2.526087000">
        <ele>855.50</ele>
        <time>2014-11-01T10:04:47Z</time>
      </trkpt>
      <trkpt lat="42.281019000" lon="-2.526088000">
        <ele>855.50</ele>
        <time>2014-11-01T10:04:48Z</time>
      </trkpt>
      <trkpt lat="42.281022000" lon="-2.526089000">
        <ele>855.60</ele>
        <time>2014-11-01T10:04:49Z</time>
      </trkpt>
      <trkpt lat="42.281032000" lon="-2.526094000">
        <ele>855.60</ele>
        <time>2014-11-01T10:04:50Z</time>
      </trkpt>
      <trkpt lat="42.281045000" lon="-2.526099000">
        <ele>855.70</ele>
        <time>2014-11-01T10:04:51Z</time>
      </trkpt>
      <trkpt lat="42.281057000" lon="-2.526110000">
        <ele>855.70</ele>
        <time>2014-11-01T10:04:52Z</time>
      </trkpt>
      <trkpt lat="42.281073000" lon="-2.526124000">
        <ele>855.70</ele>
        <time>2014-11-01T10:04:53Z</time>
      </trkpt>
      <trkpt lat="42.281092000" lon="-2.526148000">
        <ele>855.70</ele>
        <time>2014-11-01T10:04:54Z</time>
      </trkpt>
      <trkpt lat="42.281117000" lon="-2.526172000">
        <ele>855.70</ele>
        <time>2014-11-01T10:04:55Z</time>
      </trkpt>
      <trkpt lat="42.281140000" lon="-2.526193000">
        <ele>855.70</ele>
        <time>2014-11-01T10:04:56Z</time>
      </trkpt>
      <trkpt lat="42.281157000" lon="-2.526206000">
        <ele>855.70</ele>
        <time>2014-11-01T10:04:57Z</time>
      </trkpt>
      <trkpt lat="42.281176000" lon="-2.526224000">
        <ele>855.70</ele>
        <time>2014-11-01T10:04:58Z</time>
      </trkpt>
      <trkpt lat="42.281193000" lon="-2.526250000">
        <ele>855.70</ele>
        <time>2014-11-01T10:04:59Z</time>
      </trkpt>
      <trkpt lat="42.281211000" lon="-2.526266000">
        <ele>855.50</ele>
        <time>2014-11-01T10:05:00Z</time>
      </trkpt>
      <trkpt lat="42.281234000" lon="-2.526292000">
        <ele>855.40</ele>
        <time>2014-11-01T10:05:01Z</time>
      </trkpt>
      <trkpt lat="42.281261000" lon="-2.526327000">
        <ele>855.10</ele>
        <time>2014-11-01T10:05:02Z</time>
      </trkpt>
      <trkpt lat="42.281283000" lon="-2.526368000">
        <ele>854.80</ele>
        <time>2014-11-01T10:05:03Z</time>
      </trkpt>
      <trkpt lat="42.281308000" lon="-2.526397000">
        <ele>854.60</ele>
        <time>2014-11-01T10:05:04Z</time>
      </trkpt>
      <trkpt lat="42.281334000" lon="-2.526436000">
        <ele>854.40</ele>
        <time>2014-11-01T10:05:05Z</time>
      </trkpt>
      <trkpt lat="42.281358000" lon="-2.526467000">
        <ele>854.30</ele>
        <time>2014-11-01T10:05:06Z</time>
      </trkpt>
      <trkpt lat="42.281376000" lon="-2.526504000">
        <ele>854.10</ele>
        <time>2014-11-01T10:05:07Z</time>
      </trkpt>
      <trkpt lat="42.281397000" lon="-2.526545000">
        <ele>853.70</ele>
        <time>2014-11-01T10:05:08Z</time>
      </trkpt>
      <trkpt lat="42.281421000" lon="-2.526579000">
        <ele>853.40</ele>
        <time>2014-11-01T10:05:09Z</time>
      </trkpt>
      <trkpt lat="42.281449000" lon="-2.526607000">
        <ele>853.20</ele>
        <time>2014-11-01T10:05:10Z</time>
      </trkpt>
      <trkpt lat="42.281482000" lon="-2.526639000">
        <ele>853.00</ele>
        <time>2014-11-01T10:05:11Z</time>
      </trkpt>
      <trkpt lat="42.281507000" lon="-2.526658000">
        <ele>852.60</ele>
        <time>2014-11-01T10:05:12Z</time>
      </trkpt>
      <trkpt lat="42.281527000" lon="-2.526678000">
        <ele>852.30</ele>
        <time>2014-11-01T10:05:13Z</time>
      </trkpt>
      <trkpt lat="42.281551000" lon="-2.526694000">
        <ele>851.80</ele>
        <time>2014-11-01T10:05:14Z</time>
      </trkpt>
      <trkpt lat="42.281569000" lon="-2.526707000">
        <ele>851.50</ele>
        <time>2014-11-01T10:05:15Z</time>
      </trkpt>
      <trkpt lat="42.281583000" lon="-2.526721000">
        <ele>851.20</ele>
        <time>2014-11-01T10:05:16Z</time>
      </trkpt>
      <trkpt lat="42.281596000" lon="-2.526735000">
        <ele>850.90</ele>
        <time>2014-11-01T10:05:17Z</time>
      </trkpt>
      <trkpt lat="42.281609000" lon="-2.526754000">
        <ele>850.30</ele>
        <time>2014-11-01T10:05:18Z</time>
      </trkpt>
      <trkpt lat="42.281624000" lon="-2.526773000">
        <ele>849.80</ele>
        <time>2014-11-01T10:05:19Z</time>
      </trkpt>
      <trkpt lat="42.281638000" lon="-2.526790000">
        <ele>848.80</ele>
        <time>2014-11-01T10:05:20Z</time>
      </trkpt>
      <trkpt lat="42.281651000" lon="-2.526805000">
        <ele>848.00</ele>
        <time>2014-11-01T10:05:21Z</time>
      </trkpt>
      <trkpt lat="42.281663000" lon="-2.526814000">
        <ele>847.40</ele>
        <time>2014-11-01T10:05:22Z</time>
      </trkpt>
      <trkpt lat="42.281669000" lon="-2.526819000">
        <ele>846.90</ele>
        <time>2014-11-01T10:05:23Z</time>
      </trkpt>
      <trkpt lat="42.281667000" lon="-2.526812000">
        <ele>846.60</ele>
        <time>2014-11-01T10:05:24Z</time>
      </trkpt>
      <trkpt lat="42.281676000" lon="-2.526811000">
        <ele>846.30</ele>
        <time>2014-11-01T10:05:25Z</time>
      </trkpt>
      <trkpt lat="42.281683000" lon="-2.526807000">
        <ele>846.00</ele>
        <time>2014-11-01T10:05:26Z</time>
      </trkpt>
      <trkpt lat="42.281682000" lon="-2.526797000">
        <ele>845.70</ele>
        <time>2014-11-01T10:05:28Z</time>
      </trkpt>
      <trkpt lat="42.281667000" lon="-2.526779000">
        <ele>845.60</ele>
        <time>2014-11-01T10:05:29Z</time>
      </trkpt>
      <trkpt lat="42.281657000" lon="-2.526776000">
        <ele>845.30</ele>
        <time>2014-11-01T10:05:30Z</time>
      </trkpt>
      <trkpt lat="42.281657000" lon="-2.526773000">
        <ele>845.20</ele>
        <time>2014-11-01T10:05:31Z</time>
      </trkpt>
      <trkpt lat="42.281652000" lon="-2.526772000">
        <ele>844.80</ele>
        <time>2014-11-01T10:05:32Z</time>
      </trkpt>
      <trkpt lat="42.281643000" lon="-2.526761000">
        <ele>844.60</ele>
        <time>2014-11-01T10:05:33Z</time>
      </trkpt>
      <trkpt lat="42.281641000" lon="-2.526745000">
        <ele>844.30</ele>
        <time>2014-11-01T10:05:34Z</time>
      </trkpt>
      <trkpt lat="42.281635000" lon="-2.526724000">
        <ele>844.20</ele>
        <time>2014-11-01T10:05:35Z</time>
      </trkpt>
      <trkpt lat="42.281628000" lon="-2.526707000">
        <ele>844.00</ele>
        <time>2014-11-01T10:05:36Z</time>
      </trkpt>
      <trkpt lat="42.281624000" lon="-2.526692000">
        <ele>843.90</ele>
        <time>2014-11-01T10:05:37Z</time>
      </trkpt>
      <trkpt lat="42.281617000" lon="-2.526670000">
        <ele>843.70</ele>
        <time>2014-11-01T10:05:38Z</time>
      </trkpt>
      <trkpt lat="42.281607000" lon="-2.526644000">
        <ele>843.50</ele>
        <time>2014-11-01T10:05:39Z</time>
      </trkpt>
      <trkpt lat="42.281594000" lon="-2.526614000">
        <ele>843.40</ele>
        <time>2014-11-01T10:05:40Z</time>
      </trkpt>
      <trkpt lat="42.281580000" lon="-2.526585000">
        <ele>843.30</ele>
        <time>2014-11-01T10:05:41Z</time>
      </trkpt>
      <trkpt lat="42.281568000" lon="-2.526559000">
        <ele>842.70</ele>
        <time>2014-11-01T10:05:42Z</time>
      </trkpt>
      <trkpt lat="42.281565000" lon="-2.526535000">
        <ele>842.30</ele>
        <time>2014-11-01T10:05:43Z</time>
      </trkpt>
      <trkpt lat="42.281560000" lon="-2.526514000">
        <ele>841.90</ele>
        <time>2014-11-01T10:05:44Z</time>
      </trkpt>
      <trkpt lat="42.281561000" lon="-2.526496000">
        <ele>841.60</ele>
        <time>2014-11-01T10:05:45Z</time>
      </trkpt>
      <trkpt lat="42.281562000" lon="-2.526467000">
        <ele>841.10</ele>
        <time>2014-11-01T10:05:46Z</time>
      </trkpt>
      <trkpt lat="42.281562000" lon="-2.526433000">
        <ele>840.80</ele>
        <time>2014-11-01T10:05:47Z</time>
      </trkpt>
      <trkpt lat="42.281551000" lon="-2.526393000">
        <ele>840.40</ele>
        <time>2014-11-01T10:05:48Z</time>
      </trkpt>
      <trkpt lat="42.281542000" lon="-2.526354000">
        <ele>840.10</ele>
        <time>2014-11-01T10:05:49Z</time>
      </trkpt>
      <trkpt lat="42.281541000" lon="-2.526318000">
        <ele>839.90</ele>
        <time>2014-11-01T10:05:50Z</time>
      </trkpt>
      <trkpt lat="42.281540000" lon="-2.526287000">
        <ele>839.70</ele>
        <time>2014-11-01T10:05:51Z</time>
      </trkpt>
      <trkpt lat="42.281540000" lon="-2.526257000">
        <ele>839.20</ele>
        <time>2014-11-01T10:05:52Z</time>
      </trkpt>
      <trkpt lat="42.281538000" lon="-2.526226000">
        <ele>838.80</ele>
        <time>2014-11-01T10:05:53Z</time>
      </trkpt>
      <trkpt lat="42.281534000" lon="-2.526196000">
        <ele>838.40</ele>
        <time>2014-11-01T10:05:54Z</time>
      </trkpt>
      <trkpt lat="42.281528000" lon="-2.526165000">
        <ele>838.10</ele>
        <time>2014-11-01T10:05:55Z</time>
      </trkpt>
      <trkpt lat="42.281525000" lon="-2.526144000">
        <ele>837.50</ele>
        <time>2014-11-01T10:05:56Z</time>
      </trkpt>
      <trkpt lat="42.281525000" lon="-2.526122000">
        <ele>837.00</ele>
        <time>2014-11-01T10:05:57Z</time>
      </trkpt>
      <trkpt lat="42.281528000" lon="-2.526105000">
        <ele>836.30</ele>
        <time>2014-11-01T10:05:58Z</time>
      </trkpt>
      <trkpt lat="42.281528000" lon="-2.526090000">
        <ele>835.70</ele>
        <time>2014-11-01T10:05:59Z</time>
      </trkpt>
      <trkpt lat="42.281526000" lon="-2.526075000">
        <ele>835.10</ele>
        <time>2014-11-01T10:06:00Z</time>
      </trkpt>
      <trkpt lat="42.281523000" lon="-2.526061000">
        <ele>834.60</ele>
        <time>2014-11-01T10:06:01Z</time>
      </trkpt>
      <trkpt lat="42.281515000" lon="-2.526035000">
        <ele>834.10</ele>
        <time>2014-11-01T10:06:02Z</time>
      </trkpt>
      <trkpt lat="42.281508000" lon="-2.525997000">
        <ele>833.80</ele>
        <time>2014-11-01T10:06:03Z</time>
      </trkpt>
      <trkpt lat="42.281497000" lon="-2.525951000">
        <ele>833.50</ele>
        <time>2014-11-01T10:06:04Z</time>
      </trkpt>
      <trkpt lat="42.281497000" lon="-2.525906000">
        <ele>833.20</ele>
        <time>2014-11-01T10:06:05Z</time>
      </trkpt>
      <trkpt lat="42.281496000" lon="-2.525870000">
        <ele>832.80</ele>
        <time>2014-11-01T10:06:06Z</time>
      </trkpt>
      <trkpt lat="42.281494000" lon="-2.525835000">
        <ele>832.40</ele>
        <time>2014-11-01T10:06:07Z</time>
      </trkpt>
      <trkpt lat="42.281491000" lon="-2.525802000">
        <ele>831.50</ele>
        <time>2014-11-01T10:06:08Z</time>
      </trkpt>
      <trkpt lat="42.281493000" lon="-2.525770000">
        <ele>830.80</ele>
        <time>2014-11-01T10:06:09Z</time>
      </trkpt>
      <trkpt lat="42.281496000" lon="-2.525751000">
        <ele>830.10</ele>
        <time>2014-11-01T10:06:10Z</time>
      </trkpt>
      <trkpt lat="42.281504000" lon="-2.525752000">
        <ele>829.60</ele>
        <time>2014-11-01T10:06:11Z</time>
      </trkpt>
      <trkpt lat="42.281505000" lon="-2.525755000">
        <ele>829.00</ele>
        <time>2014-11-01T10:06:12Z</time>
      </trkpt>
      <trkpt lat="42.281503000" lon="-2.525756000">
        <ele>828.60</ele>
        <time>2014-11-01T10:06:13Z</time>
      </trkpt>
      <trkpt lat="42.281497000" lon="-2.525750000">
        <ele>828.20</ele>
        <time>2014-11-01T10:06:14Z</time>
      </trkpt>
      <trkpt lat="42.281498000" lon="-2.525740000">
        <ele>827.90</ele>
        <time>2014-11-01T10:06:15Z</time>
      </trkpt>
      <trkpt lat="42.281498000" lon="-2.525725000">
        <ele>827.60</ele>
        <time>2014-11-01T10:06:16Z</time>
      </trkpt>
      <trkpt lat="42.281508000" lon="-2.525715000">
        <ele>827.30</ele>
        <time>2014-11-01T10:06:17Z</time>
      </trkpt>
      <trkpt lat="42.281514000" lon="-2.525709000">
        <ele>827.10</ele>
        <time>2014-11-01T10:06:18Z</time>
      </trkpt>
      <trkpt lat="42.281517000" lon="-2.525697000">
        <ele>826.90</ele>
        <time>2014-11-01T10:06:19Z</time>
      </trkpt>
      <trkpt lat="42.281516000" lon="-2.525695000">
        <ele>826.80</ele>
        <time>2014-11-01T10:06:20Z</time>
      </trkpt>
      <trkpt lat="42.281515000" lon="-2.525698000">
        <ele>826.70</ele>
        <time>2014-11-01T10:06:21Z</time>
      </trkpt>
      <trkpt lat="42.281521000" lon="-2.525702000">
        <ele>826.60</ele>
        <time>2014-11-01T10:06:22Z</time>
      </trkpt>
      <trkpt lat="42.281532000" lon="-2.525712000">
        <ele>826.50</ele>
        <time>2014-11-01T10:06:23Z</time>
      </trkpt>
      <trkpt lat="42.281530000" lon="-2.525712000">
        <ele>826.50</ele>
        <time>2014-11-01T10:06:24Z</time>
      </trkpt>
      <trkpt lat="42.281531000" lon="-2.525708000">
        <ele>826.60</ele>
        <time>2014-11-01T10:06:25Z</time>
      </trkpt>
      <trkpt lat="42.281529000" lon="-2.525699000">
        <ele>826.70</ele>
        <time>2014-11-01T10:06:26Z</time>
      </trkpt>
      <trkpt lat="42.281523000" lon="-2.525695000">
        <ele>826.80</ele>
        <time>2014-11-01T10:06:27Z</time>
      </trkpt>
      <trkpt lat="42.281522000" lon="-2.525702000">
        <ele>827.10</ele>
        <time>2014-11-01T10:06:29Z</time>
      </trkpt>
      <trkpt lat="42.281523000" lon="-2.525707000">
        <ele>827.10</ele>
        <time>2014-11-01T10:06:30Z</time>
      </trkpt>
      <trkpt lat="42.281525000" lon="-2.525714000">
        <ele>827.10</ele>
        <time>2014-11-01T10:06:31Z</time>
      </trkpt>
      <trkpt lat="42.281533000" lon="-2.525719000">
        <ele>827.10</ele>
        <time>2014-11-01T10:06:32Z</time>
      </trkpt>
      <trkpt lat="42.281541000" lon="-2.525724000">
        <ele>827.00</ele>
        <time>2014-11-01T10:06:33Z</time>
      </trkpt>
      <trkpt lat="42.281548000" lon="-2.525723000">
        <ele>827.00</ele>
        <time>2014-11-01T10:06:34Z</time>
      </trkpt>
      <trkpt lat="42.281557000" lon="-2.525722000">
        <ele>827.00</ele>
        <time>2014-11-01T10:06:35Z</time>
      </trkpt>
      <trkpt lat="42.281564000" lon="-2.525721000">
        <ele>826.90</ele>
        <time>2014-11-01T10:06:36Z</time>
      </trkpt>
      <trkpt lat="42.281569000" lon="-2.525723000">
        <ele>826.90</ele>
        <time>2014-11-01T10:06:37Z</time>
      </trkpt>
      <trkpt lat="42.281572000" lon="-2.525723000">
        <ele>826.90</ele>
        <time>2014-11-01T10:06:38Z</time>
      </trkpt>
      <trkpt lat="42.281576000" lon="-2.525724000">
        <ele>826.90</ele>
        <time>2014-11-01T10:06:39Z</time>
      </trkpt>
      <trkpt lat="42.281582000" lon="-2.525728000">
        <ele>826.90</ele>
        <time>2014-11-01T10:06:40Z</time>
      </trkpt>
      <trkpt lat="42.281589000" lon="-2.525735000">
        <ele>826.90</ele>
        <time>2014-11-01T10:06:41Z</time>
      </trkpt>
      <trkpt lat="42.281593000" lon="-2.525739000">
        <ele>826.80</ele>
        <time>2014-11-01T10:06:42Z</time>
      </trkpt>
      <trkpt lat="42.281595000" lon="-2.525731000">
        <ele>826.80</ele>
        <time>2014-11-01T10:06:43Z</time>
      </trkpt>
      <trkpt lat="42.281594000" lon="-2.525718000">
        <ele>826.70</ele>
        <time>2014-11-01T10:06:44Z</time>
      </trkpt>
      <trkpt lat="42.281591000" lon="-2.525708000">
        <ele>826.70</ele>
        <time>2014-11-01T10:06:45Z</time>
      </trkpt>
      <trkpt lat="42.281589000" lon="-2.525703000">
        <ele>826.80</ele>
        <time>2014-11-01T10:06:46Z</time>
      </trkpt>
      <trkpt lat="42.281583000" lon="-2.525702000">
        <ele>826.90</ele>
        <time>2014-11-01T10:06:47Z</time>
      </trkpt>
      <trkpt lat="42.281580000" lon="-2.525704000">
        <ele>827.00</ele>
        <time>2014-11-01T10:06:48Z</time>
      </trkpt>
      <trkpt lat="42.281578000" lon="-2.525711000">
        <ele>827.00</ele>
        <time>2014-11-01T10:06:49Z</time>
      </trkpt>
      <trkpt lat="42.281575000" lon="-2.525717000">
        <ele>827.00</ele>
        <time>2014-11-01T10:06:50Z</time>
      </trkpt>
      <trkpt lat="42.281571000" lon="-2.525727000">
        <ele>827.00</ele>
        <time>2014-11-01T10:06:51Z</time>
      </trkpt>
      <trkpt lat="42.281562000" lon="-2.525728000">
        <ele>826.90</ele>
        <time>2014-11-01T10:06:52Z</time>
      </trkpt>
      <trkpt lat="42.281551000" lon="-2.525731000">
        <ele>826.90</ele>
        <time>2014-11-01T10:06:53Z</time>
      </trkpt>
      <trkpt lat="42.281548000" lon="-2.525733000">
        <ele>826.90</ele>
        <time>2014-11-01T10:06:54Z</time>
      </trkpt>
      <trkpt lat="42.281549000" lon="-2.525732000">
        <ele>826.90</ele>
        <time>2014-11-01T10:06:55Z</time>
      </trkpt>
      <trkpt lat="42.281552000" lon="-2.525731000">
        <ele>827.00</ele>
        <time>2014-11-01T10:06:56Z</time>
      </trkpt>
      <trkpt lat="42.281557000" lon="-2.525726000">
        <ele>827.10</ele>
        <time>2014-11-01T10:06:57Z</time>
      </trkpt>
      <trkpt lat="42.281559000" lon="-2.525727000">
        <ele>827.20</ele>
        <time>2014-11-01T10:06:58Z</time>
      </trkpt>
      <trkpt lat="42.281561000" lon="-2.525727000">
        <ele>827.20</ele>
        <time>2014-11-01T10:06:59Z</time>
      </trkpt>
      <trkpt lat="42.281564000" lon="-2.525728000">
        <ele>827.20</ele>
        <time>2014-11-01T10:07:00Z</time>
      </trkpt>
      <trkpt lat="42.281566000" lon="-2.525728000">
        <ele>827.30</ele>
        <time>2014-11-01T10:07:01Z</time>
      </trkpt>
      <trkpt lat="42.281566000" lon="-2.525730000">
        <ele>827.20</ele>
        <time>2014-11-01T10:07:02Z</time>
      </trkpt>
      <trkpt lat="42.281565000" lon="-2.525733000">
        <ele>827.20</ele>
        <time>2014-11-01T10:07:03Z</time>
      </trkpt>
      <trkpt lat="42.281554000" lon="-2.525731000">
        <ele>827.10</ele>
        <time>2014-11-01T10:07:04Z</time>
      </trkpt>
      <trkpt lat="42.281548000" lon="-2.525728000">
        <ele>827.00</ele>
        <time>2014-11-01T10:07:05Z</time>
      </trkpt>
      <trkpt lat="42.281540000" lon="-2.525718000">
        <ele>827.00</ele>
        <time>2014-11-01T10:07:06Z</time>
      </trkpt>
      <trkpt lat="42.281534000" lon="-2.525715000">
        <ele>826.90</ele>
        <time>2014-11-01T10:07:07Z</time>
      </trkpt>
      <trkpt lat="42.281528000" lon="-2.525718000">
        <ele>826.90</ele>
        <time>2014-11-01T10:07:08Z</time>
      </trkpt>
      <trkpt lat="42.281521000" lon="-2.525722000">
        <ele>826.90</ele>
        <time>2014-11-01T10:07:09Z</time>
      </trkpt>
      <trkpt lat="42.281514000" lon="-2.525724000">
        <ele>826.80</ele>
        <time>2014-11-01T10:07:10Z</time>
      </trkpt>
      <trkpt lat="42.281509000" lon="-2.525724000">
        <ele>826.80</ele>
        <time>2014-11-01T10:07:11Z</time>
      </trkpt>
      <trkpt lat="42.281503000" lon="-2.525725000">
        <ele>826.90</ele>
        <time>2014-11-01T10:07:12Z</time>
      </trkpt>
      <trkpt lat="42.281498000" lon="-2.525729000">
        <ele>826.90</ele>
        <time>2014-11-01T10:07:13Z</time>
      </trkpt>
      <trkpt lat="42.281496000" lon="-2.525735000">
        <ele>827.00</ele>
        <time>2014-11-01T10:07:14Z</time>
      </trkpt>
      <trkpt lat="42.281495000" lon="-2.525739000">
        <ele>827.00</ele>
        <time>2014-11-01T10:07:15Z</time>
      </trkpt>
      <trkpt lat="42.281493000" lon="-2.525742000">
        <ele>826.90</ele>
        <time>2014-11-01T10:07:16Z</time>
      </trkpt>
      <trkpt lat="42.281490000" lon="-2.525742000">
        <ele>826.80</ele>
        <time>2014-11-01T10:07:17Z</time>
      </trkpt>
      <trkpt lat="42.281490000" lon="-2.525746000">
        <ele>826.70</ele>
        <time>2014-11-01T10:07:18Z</time>
      </trkpt>
      <trkpt lat="42.281492000" lon="-2.525749000">
        <ele>826.70</ele>
        <time>2014-11-01T10:07:19Z</time>
      </trkpt>
      <trkpt lat="42.281495000" lon="-2.525750000">
        <ele>826.70</ele>
        <time>2014-11-01T10:07:20Z</time>
      </trkpt>
      <trkpt lat="42.281500000" lon="-2.525750000">
        <ele>826.70</ele>
        <time>2014-11-01T10:07:21Z</time>
      </trkpt>
      <trkpt lat="42.281503000" lon="-2.525746000">
        <ele>826.80</ele>
        <time>2014-11-01T10:07:22Z</time>
      </trkpt>
      <trkpt lat="42.281502000" lon="-2.525748000">
        <ele>826.90</ele>
        <time>2014-11-01T10:07:23Z</time>
      </trkpt>
      <trkpt lat="42.281500000" lon="-2.525749000">
        <ele>826.90</ele>
        <time>2014-11-01T10:07:24Z</time>
      </trkpt>
      <trkpt lat="42.281498000" lon="-2.525751000">
        <ele>827.00</ele>
        <time>2014-11-01T10:07:25Z</time>
      </trkpt>
      <trkpt lat="42.281495000" lon="-2.525749000">
        <ele>827.00</ele>
        <time>2014-11-01T10:07:26Z</time>
      </trkpt>
      <trkpt lat="42.281493000" lon="-2.525750000">
        <ele>827.00</ele>
        <time>2014-11-01T10:07:27Z</time>
      </trkpt>
      <trkpt lat="42.281489000" lon="-2.525753000">
        <ele>826.90</ele>
        <time>2014-11-01T10:07:28Z</time>
      </trkpt>
      <trkpt lat="42.281485000" lon="-2.525743000">
        <ele>826.70</ele>
        <time>2014-11-01T10:07:30Z</time>
      </trkpt>
      <trkpt lat="42.281488000" lon="-2.525729000">
        <ele>826.60</ele>
        <time>2014-11-01T10:07:31Z</time>
      </trkpt>
      <trkpt lat="42.281491000" lon="-2.525723000">
        <ele>826.50</ele>
        <time>2014-11-01T10:07:32Z</time>
      </trkpt>
      <trkpt lat="42.281494000" lon="-2.525714000">
        <ele>826.40</ele>
        <time>2014-11-01T10:07:33Z</time>
      </trkpt>
      <trkpt lat="42.281494000" lon="-2.525707000">
        <ele>826.30</ele>
        <time>2014-11-01T10:07:34Z</time>
      </trkpt>
      <trkpt lat="42.281498000" lon="-2.525701000">
        <ele>826.20</ele>
        <time>2014-11-01T10:07:35Z</time>
      </trkpt>
      <trkpt lat="42.281503000" lon="-2.525699000">
        <ele>826.20</ele>
        <time>2014-11-01T10:07:36Z</time>
      </trkpt>
      <trkpt lat="42.281509000" lon="-2.525698000">
        <ele>826.10</ele>
        <time>2014-11-01T10:07:37Z</time>
      </trkpt>
      <trkpt lat="42.281514000" lon="-2.525697000">
        <ele>826.10</ele>
        <time>2014-11-01T10:07:38Z</time>
      </trkpt>
      <trkpt lat="42.281514000" lon="-2.525702000">
        <ele>826.10</ele>
        <time>2014-11-01T10:07:39Z</time>
      </trkpt>
      <trkpt lat="42.281514000" lon="-2.525704000">
        <ele>826.10</ele>
        <time>2014-11-01T10:07:40Z</time>
      </trkpt>
      <trkpt lat="42.281515000" lon="-2.525705000">
        <ele>826.20</ele>
        <time>2014-11-01T10:07:41Z</time>
      </trkpt>
      <trkpt lat="42.281520000" lon="-2.525707000">
        <ele>826.30</ele>
        <time>2014-11-01T10:07:42Z</time>
      </trkpt>
      <trkpt lat="42.281524000" lon="-2.525713000">
        <ele>826.40</ele>
        <time>2014-11-01T10:07:43Z</time>
      </trkpt>
      <trkpt lat="42.281527000" lon="-2.525721000">
        <ele>826.40</ele>
        <time>2014-11-01T10:07:44Z</time>
      </trkpt>
      <trkpt lat="42.281528000" lon="-2.525728000">
        <ele>826.40</ele>
        <time>2014-11-01T10:07:45Z</time>
      </trkpt>
      <trkpt lat="42.281529000" lon="-2.525732000">
        <ele>826.40</ele>
        <time>2014-11-01T10:07:46Z</time>
      </trkpt>
      <trkpt lat="42.281531000" lon="-2.525734000">
        <ele>826.40</ele>
        <time>2014-11-01T10:07:47Z</time>
      </trkpt>
      <trkpt lat="42.281533000" lon="-2.525734000">
        <ele>826.50</ele>
        <time>2014-11-01T10:07:48Z</time>
      </trkpt>
      <trkpt lat="42.281535000" lon="-2.525734000">
        <ele>826.50</ele>
        <time>2014-11-01T10:07:49Z</time>
      </trkpt>
      <trkpt lat="42.281537000" lon="-2.525730000">
        <ele>826.60</ele>
        <time>2014-11-01T10:07:50Z</time>
      </trkpt>
      <trkpt lat="42.281541000" lon="-2.525725000">
        <ele>826.60</ele>
        <time>2014-11-01T10:07:51Z</time>
      </trkpt>
      <trkpt lat="42.281546000" lon="-2.525720000">
        <ele>826.70</ele>
        <time>2014-11-01T10:07:52Z</time>
      </trkpt>
      <trkpt lat="42.281548000" lon="-2.525718000">
        <ele>826.70</ele>
        <time>2014-11-01T10:07:53Z</time>
      </trkpt>
      <trkpt lat="42.281550000" lon="-2.525714000">
        <ele>826.70</ele>
        <time>2014-11-01T10:07:54Z</time>
      </trkpt>
      <trkpt lat="42.281552000" lon="-2.525704000">
        <ele>826.70</ele>
        <time>2014-11-01T10:07:55Z</time>
      </trkpt>
      <trkpt lat="42.281557000" lon="-2.525697000">
        <ele>826.80</ele>
        <time>2014-11-01T10:07:56Z</time>
      </trkpt>
      <trkpt lat="42.281565000" lon="-2.525698000">
        <ele>826.80</ele>
        <time>2014-11-01T10:07:57Z</time>
      </trkpt>
      <trkpt lat="42.281576000" lon="-2.525702000">
        <ele>826.70</ele>
        <time>2014-11-01T10:07:58Z</time>
      </trkpt>
      <trkpt lat="42.281591000" lon="-2.525710000">
        <ele>826.70</ele>
        <time>2014-11-01T10:07:59Z</time>
      </trkpt>
      <trkpt lat="42.281606000" lon="-2.525720000">
        <ele>826.70</ele>
        <time>2014-11-01T10:08:00Z</time>
      </trkpt>
      <trkpt lat="42.281619000" lon="-2.525728000">
        <ele>826.70</ele>
        <time>2014-11-01T10:08:01Z</time>
      </trkpt>
      <trkpt lat="42.281632000" lon="-2.525734000">
        <ele>826.70</ele>
        <time>2014-11-01T10:08:02Z</time>
      </trkpt>
      <trkpt lat="42.281644000" lon="-2.525737000">
        <ele>826.80</ele>
        <time>2014-11-01T10:08:03Z</time>
      </trkpt>
      <trkpt lat="42.281649000" lon="-2.525740000">
        <ele>826.80</ele>
        <time>2014-11-01T10:08:04Z</time>
      </trkpt>
      <trkpt lat="42.281647000" lon="-2.525744000">
        <ele>826.90</ele>
        <time>2014-11-01T10:08:05Z</time>
      </trkpt>
      <trkpt lat="42.281646000" lon="-2.525751000">
        <ele>826.90</ele>
        <time>2014-11-01T10:08:06Z</time>
      </trkpt>
      <trkpt lat="42.281645000" lon="-2.525746000">
        <ele>826.90</ele>
        <time>2014-11-01T10:08:07Z</time>
      </trkpt>
      <trkpt lat="42.281650000" lon="-2.525737000">
        <ele>826.90</ele>
        <time>2014-11-01T10:08:08Z</time>
      </trkpt>
      <trkpt lat="42.281652000" lon="-2.525738000">
        <ele>826.90</ele>
        <time>2014-11-01T10:08:09Z</time>
      </trkpt>
      <trkpt lat="42.281656000" lon="-2.525740000">
        <ele>826.90</ele>
        <time>2014-11-01T10:08:10Z</time>
      </trkpt>
      <trkpt lat="42.281657000" lon="-2.525740000">
        <ele>826.80</ele>
        <time>2014-11-01T10:08:11Z</time>
      </trkpt>
      <trkpt lat="42.281659000" lon="-2.525731000">
        <ele>826.80</ele>
        <time>2014-11-01T10:08:12Z</time>
      </trkpt>
      <trkpt lat="42.281662000" lon="-2.525723000">
        <ele>826.70</ele>
        <time>2014-11-01T10:08:13Z</time>
      </trkpt>
      <trkpt lat="42.281665000" lon="-2.525708000">
        <ele>826.60</ele>
        <time>2014-11-01T10:08:14Z</time>
      </trkpt>
      <trkpt lat="42.281663000" lon="-2.525697000">
        <ele>826.60</ele>
        <time>2014-11-01T10:08:15Z</time>
      </trkpt>
      <trkpt lat="42.281658000" lon="-2.525681000">
        <ele>826.60</ele>
        <time>2014-11-01T10:08:16Z</time>
      </trkpt>
      <trkpt lat="42.281652000" lon="-2.525663000">
        <ele>826.50</ele>
        <time>2014-11-01T10:08:17Z</time>
      </trkpt>
      <trkpt lat="42.281648000" lon="-2.525650000">
        <ele>826.50</ele>
        <time>2014-11-01T10:08:18Z</time>
      </trkpt>
      <trkpt lat="42.281644000" lon="-2.525640000">
        <ele>826.50</ele>
        <time>2014-11-01T10:08:19Z</time>
      </trkpt>
      <trkpt lat="42.281635000" lon="-2.525633000">
        <ele>826.50</ele>
        <time>2014-11-01T10:08:20Z</time>
      </trkpt>
      <trkpt lat="42.281618000" lon="-2.525620000">
        <ele>826.60</ele>
        <time>2014-11-01T10:08:21Z</time>
      </trkpt>
      <trkpt lat="42.281605000" lon="-2.525616000">
        <ele>826.60</ele>
        <time>2014-11-01T10:08:22Z</time>
      </trkpt>
      <trkpt lat="42.281591000" lon="-2.525609000">
        <ele>826.60</ele>
        <time>2014-11-01T10:08:23Z</time>
      </trkpt>
      <trkpt lat="42.281581000" lon="-2.525609000">
        <ele>826.70</ele>
        <time>2014-11-01T10:08:24Z</time>
      </trkpt>
      <trkpt lat="42.281572000" lon="-2.525615000">
        <ele>826.70</ele>
        <time>2014-11-01T10:08:25Z</time>
      </trkpt>
      <trkpt lat="42.281565000" lon="-2.525623000">
        <ele>826.60</ele>
        <time>2014-11-01T10:08:26Z</time>
      </trkpt>
      <trkpt lat="42.281559000" lon="-2.525632000">
        <ele>826.60</ele>
        <time>2014-11-01T10:08:27Z</time>
      </trkpt>
      <trkpt lat="42.281549000" lon="-2.525630000">
        <ele>826.70</ele>
        <time>2014-11-01T10:08:28Z</time>
      </trkpt>
      <trkpt lat="42.281547000" lon="-2.525621000">
        <ele>826.60</ele>
        <time>2014-11-01T10:08:29Z</time>
      </trkpt>
      <trkpt lat="42.281541000" lon="-2.525619000">
        <ele>826.60</ele>
        <time>2014-11-01T10:08:31Z</time>
      </trkpt>
      <trkpt lat="42.281543000" lon="-2.525622000">
        <ele>826.60</ele>
        <time>2014-11-01T10:08:32Z</time>
      </trkpt>
      <trkpt lat="42.281539000" lon="-2.525615000">
        <ele>826.70</ele>
        <time>2014-11-01T10:08:33Z</time>
      </trkpt>
      <trkpt lat="42.281540000" lon="-2.525611000">
        <ele>826.80</ele>
        <time>2014-11-01T10:08:34Z</time>
      </trkpt>
      <trkpt lat="42.281545000" lon="-2.525612000">
        <ele>826.90</ele>
        <time>2014-11-01T10:08:35Z</time>
      </trkpt>
      <trkpt lat="42.281552000" lon="-2.525621000">
        <ele>827.00</ele>
        <time>2014-11-01T10:08:36Z</time>
      </trkpt>
      <trkpt lat="42.281551000" lon="-2.525623000">
        <ele>827.00</ele>
        <time>2014-11-01T10:08:37Z</time>
      </trkpt>
      <trkpt lat="42.281553000" lon="-2.525617000">
        <ele>827.00</ele>
        <time>2014-11-01T10:08:38Z</time>
      </trkpt>
      <trkpt lat="42.281558000" lon="-2.525611000">
        <ele>826.80</ele>
        <time>2014-11-01T10:08:39Z</time>
      </trkpt>
      <trkpt lat="42.281563000" lon="-2.525612000">
        <ele>826.70</ele>
        <time>2014-11-01T10:08:40Z</time>
      </trkpt>
      <trkpt lat="42.281569000" lon="-2.525614000">
        <ele>826.60</ele>
        <time>2014-11-01T10:08:41Z</time>
      </trkpt>
      <trkpt lat="42.281570000" lon="-2.525623000">
        <ele>826.50</ele>
        <time>2014-11-01T10:08:42Z</time>
      </trkpt>
      <trkpt lat="42.281571000" lon="-2.525626000">
        <ele>826.40</ele>
        <time>2014-11-01T10:08:43Z</time>
      </trkpt>
      <trkpt lat="42.281576000" lon="-2.525631000">
        <ele>826.40</ele>
        <time>2014-11-01T10:08:44Z</time>
      </trkpt>
      <trkpt lat="42.281582000" lon="-2.525642000">
        <ele>826.30</ele>
        <time>2014-11-01T10:08:45Z</time>
      </trkpt>
      <trkpt lat="42.281587000" lon="-2.525656000">
        <ele>826.30</ele>
        <time>2014-11-01T10:08:46Z</time>
      </trkpt>
      <trkpt lat="42.281587000" lon="-2.525663000">
        <ele>826.40</ele>
        <time>2014-11-01T10:08:47Z</time>
      </trkpt>
      <trkpt lat="42.281587000" lon="-2.525673000">
        <ele>826.50</ele>
        <time>2014-11-01T10:08:48Z</time>
      </trkpt>
      <trkpt lat="42.281588000" lon="-2.525684000">
        <ele>826.70</ele>
        <time>2014-11-01T10:08:49Z</time>
      </trkpt>
      <trkpt lat="42.281584000" lon="-2.525681000">
        <ele>826.80</ele>
        <time>2014-11-01T10:08:50Z</time>
      </trkpt>
      <trkpt lat="42.281571000" lon="-2.525671000">
        <ele>826.80</ele>
        <time>2014-11-01T10:08:51Z</time>
      </trkpt>
      <trkpt lat="42.281555000" lon="-2.525661000">
        <ele>826.90</ele>
        <time>2014-11-01T10:08:52Z</time>
      </trkpt>
      <trkpt lat="42.281549000" lon="-2.525664000">
        <ele>826.90</ele>
        <time>2014-11-01T10:08:53Z</time>
      </trkpt>
      <trkpt lat="42.281550000" lon="-2.525673000">
        <ele>826.90</ele>
        <time>2014-11-01T10:08:54Z</time>
      </trkpt>
      <trkpt lat="42.281549000" lon="-2.525675000">
        <ele>826.80</ele>
        <time>2014-11-01T10:08:55Z</time>
      </trkpt>
      <trkpt lat="42.281538000" lon="-2.525675000">
        <ele>826.70</ele>
        <time>2014-11-01T10:08:56Z</time>
      </trkpt>
      <trkpt lat="42.281536000" lon="-2.525678000">
        <ele>826.60</ele>
        <time>2014-11-01T10:08:57Z</time>
      </trkpt>
      <trkpt lat="42.281533000" lon="-2.525685000">
        <ele>826.50</ele>
        <time>2014-11-01T10:08:58Z</time>
      </trkpt>
      <trkpt lat="42.281535000" lon="-2.525694000">
        <ele>826.40</ele>
        <time>2014-11-01T10:08:59Z</time>
      </trkpt>
      <trkpt lat="42.281537000" lon="-2.525712000">
        <ele>826.30</ele>
        <time>2014-11-01T10:09:00Z</time>
      </trkpt>
      <trkpt lat="42.281526000" lon="-2.525731000">
        <ele>826.40</ele>
        <time>2014-11-01T10:09:01Z</time>
      </trkpt>
      <trkpt lat="42.281517000" lon="-2.525746000">
        <ele>826.50</ele>
        <time>2014-11-01T10:09:02Z</time>
      </trkpt>
      <trkpt lat="42.281509000" lon="-2.525758000">
        <ele>826.60</ele>
        <time>2014-11-01T10:09:03Z</time>
      </trkpt>
      <trkpt lat="42.281508000" lon="-2.525768000">
        <ele>826.60</ele>
        <time>2014-11-01T10:09:04Z</time>
      </trkpt>
      <trkpt lat="42.281512000" lon="-2.525777000">
        <ele>826.60</ele>
        <time>2014-11-01T10:09:05Z</time>
      </trkpt>
      <trkpt lat="42.281519000" lon="-2.525781000">
        <ele>826.60</ele>
        <time>2014-11-01T10:09:06Z</time>
      </trkpt>
      <trkpt lat="42.281524000" lon="-2.525779000">
        <ele>826.60</ele>
        <time>2014-11-01T10:09:07Z</time>
      </trkpt>
      <trkpt lat="42.281525000" lon="-2.525779000">
        <ele>826.60</ele>
        <time>2014-11-01T10:09:08Z</time>
      </trkpt>
      <trkpt lat="42.281527000" lon="-2.525786000">
        <ele>826.70</ele>
        <time>2014-11-01T10:09:09Z</time>
      </trkpt>
      <trkpt lat="42.281529000" lon="-2.525798000">
        <ele>826.90</ele>
        <time>2014-11-01T10:09:10Z</time>
      </trkpt>
      <trkpt lat="42.281537000" lon="-2.525809000">
        <ele>826.80</ele>
        <time>2014-11-01T10:09:11Z</time>
      </trkpt>
      <trkpt lat="42.281547000" lon="-2.525809000">
        <ele>826.80</ele>
        <time>2014-11-01T10:09:12Z</time>
      </trkpt>
      <trkpt lat="42.281555000" lon="-2.525805000">
        <ele>826.80</ele>
        <time>2014-11-01T10:09:13Z</time>
      </trkpt>
      <trkpt lat="42.281551000" lon="-2.525797000">
        <ele>826.90</ele>
        <time>2014-11-01T10:09:14Z</time>
      </trkpt>
      <trkpt lat="42.281539000" lon="-2.525785000">
        <ele>826.80</ele>
        <time>2014-11-01T10:09:15Z</time>
      </trkpt>
      <trkpt lat="42.281531000" lon="-2.525772000">
        <ele>826.80</ele>
        <time>2014-11-01T10:09:16Z</time>
      </trkpt>
      <trkpt lat="42.281524000" lon="-2.525759000">
        <ele>826.70</ele>
        <time>2014-11-01T10:09:17Z</time>
      </trkpt>
      <trkpt lat="42.281512000" lon="-2.525752000">
        <ele>826.60</ele>
        <time>2014-11-01T10:09:18Z</time>
      </trkpt>
      <trkpt lat="42.281494000" lon="-2.525740000">
        <ele>826.60</ele>
        <time>2014-11-01T10:09:19Z</time>
      </trkpt>
      <trkpt lat="42.281478000" lon="-2.525725000">
        <ele>826.60</ele>
        <time>2014-11-01T10:09:20Z</time>
      </trkpt>
      <trkpt lat="42.281469000" lon="-2.525712000">
        <ele>826.50</ele>
        <time>2014-11-01T10:09:21Z</time>
      </trkpt>
      <trkpt lat="42.281465000" lon="-2.525701000">
        <ele>826.50</ele>
        <time>2014-11-01T10:09:22Z</time>
      </trkpt>
      <trkpt lat="42.281462000" lon="-2.525689000">
        <ele>826.50</ele>
        <time>2014-11-01T10:09:23Z</time>
      </trkpt>
      <trkpt lat="42.281462000" lon="-2.525678000">
        <ele>826.50</ele>
        <time>2014-11-01T10:09:24Z</time>
      </trkpt>
      <trkpt lat="42.281465000" lon="-2.525678000">
        <ele>826.40</ele>
        <time>2014-11-01T10:09:25Z</time>
      </trkpt>
      <trkpt lat="42.281463000" lon="-2.525678000">
        <ele>826.30</ele>
        <time>2014-11-01T10:09:26Z</time>
      </trkpt>
      <trkpt lat="42.281460000" lon="-2.525678000">
        <ele>826.30</ele>
        <time>2014-11-01T10:09:27Z</time>
      </trkpt>
      <trkpt lat="42.281455000" lon="-2.525678000">
        <ele>826.30</ele>
        <time>2014-11-01T10:09:28Z</time>
      </trkpt>
      <trkpt lat="42.281454000" lon="-2.525681000">
        <ele>826.40</ele>
        <time>2014-11-01T10:09:29Z</time>
      </trkpt>
      <trkpt lat="42.281458000" lon="-2.525688000">
        <ele>826.50</ele>
        <time>2014-11-01T10:09:30Z</time>
      </trkpt>
      <trkpt lat="42.281468000" lon="-2.525712000">
        <ele>826.60</ele>
        <time>2014-11-01T10:09:32Z</time>
      </trkpt>
      <trkpt lat="42.281478000" lon="-2.525719000">
        <ele>826.50</ele>
        <time>2014-11-01T10:09:33Z</time>
      </trkpt>
      <trkpt lat="42.281491000" lon="-2.525719000">
        <ele>826.50</ele>
        <time>2014-11-01T10:09:34Z</time>
      </trkpt>
      <trkpt lat="42.281511000" lon="-2.525736000">
        <ele>826.50</ele>
        <time>2014-11-01T10:09:35Z</time>
      </trkpt>
      <trkpt lat="42.281524000" lon="-2.525742000">
        <ele>826.50</ele>
        <time>2014-11-01T10:09:36Z</time>
      </trkpt>
      <trkpt lat="42.281530000" lon="-2.525743000">
        <ele>826.50</ele>
        <time>2014-11-01T10:09:37Z</time>
      </trkpt>
      <trkpt lat="42.281537000" lon="-2.525738000">
        <ele>826.50</ele>
        <time>2014-11-01T10:09:38Z</time>
      </trkpt>
      <trkpt lat="42.281539000" lon="-2.525740000">
        <ele>826.50</ele>
        <time>2014-11-01T10:09:39Z</time>
      </trkpt>
      <trkpt lat="42.281539000" lon="-2.525747000">
        <ele>826.60</ele>
        <time>2014-11-01T10:09:40Z</time>
      </trkpt>
      <trkpt lat="42.281542000" lon="-2.525743000">
        <ele>826.60</ele>
        <time>2014-11-01T10:09:41Z</time>
      </trkpt>
      <trkpt lat="42.281543000" lon="-2.525739000">
        <ele>826.60</ele>
        <time>2014-11-01T10:09:42Z</time>
      </trkpt>
      <trkpt lat="42.281545000" lon="-2.525736000">
        <ele>826.60</ele>
        <time>2014-11-01T10:09:43Z</time>
      </trkpt>
      <trkpt lat="42.281545000" lon="-2.525730000">
        <ele>826.70</ele>
        <time>2014-11-01T10:09:44Z</time>
      </trkpt>
      <trkpt lat="42.281544000" lon="-2.525729000">
        <ele>826.70</ele>
        <time>2014-11-01T10:09:45Z</time>
      </trkpt>
      <trkpt lat="42.281543000" lon="-2.525731000">
        <ele>826.70</ele>
        <time>2014-11-01T10:09:46Z</time>
      </trkpt>
      <trkpt lat="42.281547000" lon="-2.525737000">
        <ele>826.70</ele>
        <time>2014-11-01T10:09:47Z</time>
      </trkpt>
      <trkpt lat="42.281553000" lon="-2.525747000">
        <ele>826.70</ele>
        <time>2014-11-01T10:09:48Z</time>
      </trkpt>
      <trkpt lat="42.281553000" lon="-2.525747000">
        <ele>826.70</ele>
        <time>2014-11-01T10:09:49Z</time>
      </trkpt>
      <trkpt lat="42.281554000" lon="-2.525744000">
        <ele>826.70</ele>
        <time>2014-11-01T10:09:50Z</time>
      </trkpt>
      <trkpt lat="42.281558000" lon="-2.525745000">
        <ele>826.60</ele>
        <time>2014-11-01T10:09:51Z</time>
      </trkpt>
      <trkpt lat="42.281557000" lon="-2.525749000">
        <ele>826.60</ele>
        <time>2014-11-01T10:09:52Z</time>
      </trkpt>
      <trkpt lat="42.281555000" lon="-2.525751000">
        <ele>826.50</ele>
        <time>2014-11-01T10:09:53Z</time>
      </trkpt>
      <trkpt lat="42.281548000" lon="-2.525754000">
        <ele>826.50</ele>
        <time>2014-11-01T10:09:54Z</time>
      </trkpt>
      <trkpt lat="42.281538000" lon="-2.525748000">
        <ele>826.50</ele>
        <time>2014-11-01T10:09:55Z</time>
      </trkpt>
      <trkpt lat="42.281531000" lon="-2.525743000">
        <ele>826.50</ele>
        <time>2014-11-01T10:09:56Z</time>
      </trkpt>
      <trkpt lat="42.281530000" lon="-2.525742000">
        <ele>826.40</ele>
        <time>2014-11-01T10:09:57Z</time>
      </trkpt>
      <trkpt lat="42.281526000" lon="-2.525740000">
        <ele>826.30</ele>
        <time>2014-11-01T10:09:58Z</time>
      </trkpt>
      <trkpt lat="42.281520000" lon="-2.525736000">
        <ele>826.20</ele>
        <time>2014-11-01T10:09:59Z</time>
      </trkpt>
      <trkpt lat="42.281519000" lon="-2.525734000">
        <ele>826.20</ele>
        <time>2014-11-01T10:10:00Z</time>
      </trkpt>
      <trkpt lat="42.281518000" lon="-2.525733000">
        <ele>826.10</ele>
        <time>2014-11-01T10:10:01Z</time>
      </trkpt>
      <trkpt lat="42.281519000" lon="-2.525735000">
        <ele>826.00</ele>
        <time>2014-11-01T10:10:02Z</time>
      </trkpt>
      <trkpt lat="42.281521000" lon="-2.525732000">
        <ele>826.10</ele>
        <time>2014-11-01T10:10:03Z</time>
      </trkpt>
      <trkpt lat="42.281523000" lon="-2.525731000">
        <ele>826.10</ele>
        <time>2014-11-01T10:10:04Z</time>
      </trkpt>
      <trkpt lat="42.281525000" lon="-2.525724000">
        <ele>826.10</ele>
        <time>2014-11-01T10:10:05Z</time>
      </trkpt>
      <trkpt lat="42.281531000" lon="-2.525725000">
        <ele>826.10</ele>
        <time>2014-11-01T10:10:06Z</time>
      </trkpt>
      <trkpt lat="42.281531000" lon="-2.525719000">
        <ele>826.20</ele>
        <time>2014-11-01T10:10:07Z</time>
      </trkpt>
      <trkpt lat="42.281535000" lon="-2.525729000">
        <ele>826.30</ele>
        <time>2014-11-01T10:10:08Z</time>
      </trkpt>
      <trkpt lat="42.281529000" lon="-2.525735000">
        <ele>826.30</ele>
        <time>2014-11-01T10:10:09Z</time>
      </trkpt>
      <trkpt lat="42.281527000" lon="-2.525739000">
        <ele>826.30</ele>
        <time>2014-11-01T10:10:10Z</time>
      </trkpt>
      <trkpt lat="42.281525000" lon="-2.525737000">
        <ele>826.50</ele>
        <time>2014-11-01T10:10:11Z</time>
      </trkpt>
      <trkpt lat="42.281527000" lon="-2.525746000">
        <ele>826.60</ele>
        <time>2014-11-01T10:10:12Z</time>
      </trkpt>
      <trkpt lat="42.281529000" lon="-2.525746000">
        <ele>826.60</ele>
        <time>2014-11-01T10:10:13Z</time>
      </trkpt>
      <trkpt lat="42.281531000" lon="-2.525746000">
        <ele>826.50</ele>
        <time>2014-11-01T10:10:14Z</time>
      </trkpt>
      <trkpt lat="42.281534000" lon="-2.525740000">
        <ele>826.50</ele>
        <time>2014-11-01T10:10:15Z</time>
      </trkpt>
      <trkpt lat="42.281542000" lon="-2.525735000">
        <ele>826.40</ele>
        <time>2014-11-01T10:10:16Z</time>
      </trkpt>
      <trkpt lat="42.281547000" lon="-2.525737000">
        <ele>826.40</ele>
        <time>2014-11-01T10:10:17Z</time>
      </trkpt>
      <trkpt lat="42.281552000" lon="-2.525738000">
        <ele>826.30</ele>
        <time>2014-11-01T10:10:18Z</time>
      </trkpt>
      <trkpt lat="42.281557000" lon="-2.525746000">
        <ele>826.30</ele>
        <time>2014-11-01T10:10:19Z</time>
      </trkpt>
      <trkpt lat="42.281558000" lon="-2.525762000">
        <ele>826.30</ele>
        <time>2014-11-01T10:10:20Z</time>
      </trkpt>
      <trkpt lat="42.281557000" lon="-2.525766000">
        <ele>826.30</ele>
        <time>2014-11-01T10:10:21Z</time>
      </trkpt>
      <trkpt lat="42.281559000" lon="-2.525768000">
        <ele>826.30</ele>
        <time>2014-11-01T10:10:22Z</time>
      </trkpt>
      <trkpt lat="42.281557000" lon="-2.525770000">
        <ele>826.30</ele>
        <time>2014-11-01T10:10:23Z</time>
      </trkpt>
      <trkpt lat="42.281558000" lon="-2.525770000">
        <ele>826.30</ele>
        <time>2014-11-01T10:10:24Z</time>
      </trkpt>
      <trkpt lat="42.281559000" lon="-2.525767000">
        <ele>826.30</ele>
        <time>2014-11-01T10:10:25Z</time>
      </trkpt>
      <trkpt lat="42.281561000" lon="-2.525768000">
        <ele>826.30</ele>
        <time>2014-11-01T10:10:26Z</time>
      </trkpt>
      <trkpt lat="42.281563000" lon="-2.525763000">
        <ele>826.30</ele>
        <time>2014-11-01T10:10:27Z</time>
      </trkpt>
      <trkpt lat="42.281563000" lon="-2.525760000">
        <ele>826.30</ele>
        <time>2014-11-01T10:10:28Z</time>
      </trkpt>
      <trkpt lat="42.281569000" lon="-2.525767000">
        <ele>826.10</ele>
        <time>2014-11-01T10:10:29Z</time>
      </trkpt>
      <trkpt lat="42.281584000" lon="-2.525789000">
        <ele>826.00</ele>
        <time>2014-11-01T10:10:30Z</time>
      </trkpt>
      <trkpt lat="42.281606000" lon="-2.525815000">
        <ele>826.00</ele>
        <time>2014-11-01T10:10:31Z</time>
      </trkpt>
      <trkpt lat="42.281677000" lon="-2.525900000">
        <ele>825.90</ele>
        <time>2014-11-01T10:10:33Z</time>
      </trkpt>
      <trkpt lat="42.281728000" lon="-2.525955000">
        <ele>825.80</ele>
        <time>2014-11-01T10:10:34Z</time>
      </trkpt>
      <trkpt lat="42.281775000" lon="-2.526010000">
        <ele>825.70</ele>
        <time>2014-11-01T10:10:35Z</time>
      </trkpt>
      <trkpt lat="42.281820000" lon="-2.526064000">
        <ele>825.70</ele>
        <time>2014-11-01T10:10:36Z</time>
      </trkpt>
      <trkpt lat="42.281866000" lon="-2.526114000">
        <ele>825.10</ele>
        <time>2014-11-01T10:10:37Z</time>
      </trkpt>
      <trkpt lat="42.281907000" lon="-2.526157000">
        <ele>824.60</ele>
        <time>2014-11-01T10:10:38Z</time>
      </trkpt>
      <trkpt lat="42.281942000" lon="-2.526194000">
        <ele>824.00</ele>
        <time>2014-11-01T10:10:39Z</time>
      </trkpt>
      <trkpt lat="42.281986000" lon="-2.526236000">
        <ele>823.60</ele>
        <time>2014-11-01T10:10:40Z</time>
      </trkpt>
      <trkpt lat="42.282022000" lon="-2.526278000">
        <ele>822.50</ele>
        <time>2014-11-01T10:10:41Z</time>
      </trkpt>
      <trkpt lat="42.282065000" lon="-2.526310000">
        <ele>821.60</ele>
        <time>2014-11-01T10:10:42Z</time>
      </trkpt>
      <trkpt lat="42.282111000" lon="-2.526337000">
        <ele>820.60</ele>
        <time>2014-11-01T10:10:43Z</time>
      </trkpt>
      <trkpt lat="42.282161000" lon="-2.526358000">
        <ele>819.80</ele>
        <time>2014-11-01T10:10:44Z</time>
      </trkpt>
      <trkpt lat="42.282211000" lon="-2.526391000">
        <ele>818.70</ele>
        <time>2014-11-01T10:10:45Z</time>
      </trkpt>
      <trkpt lat="42.282275000" lon="-2.526431000">
        <ele>817.90</ele>
        <time>2014-11-01T10:10:46Z</time>
      </trkpt>
      <trkpt lat="42.282339000" lon="-2.526472000">
        <ele>816.80</ele>
        <time>2014-11-01T10:10:47Z</time>
      </trkpt>
      <trkpt lat="42.282418000" lon="-2.526514000">
        <ele>816.00</ele>
        <time>2014-11-01T10:10:48Z</time>
      </trkpt>
      <trkpt lat="42.282491000" lon="-2.526544000">
        <ele>814.30</ele>
        <time>2014-11-01T10:10:49Z</time>
      </trkpt>
      <trkpt lat="42.282556000" lon="-2.526555000">
        <ele>812.90</ele>
        <time>2014-11-01T10:10:50Z</time>
      </trkpt>
      <trkpt lat="42.282620000" lon="-2.526555000">
        <ele>811.80</ele>
        <time>2014-11-01T10:10:51Z</time>
      </trkpt>
      <trkpt lat="42.282685000" lon="-2.526549000">
        <ele>810.90</ele>
        <time>2014-11-01T10:10:52Z</time>
      </trkpt>
      <trkpt lat="42.282744000" lon="-2.526540000">
        <ele>810.30</ele>
        <time>2014-11-01T10:10:53Z</time>
      </trkpt>
      <trkpt lat="42.282799000" lon="-2.526532000">
        <ele>809.80</ele>
        <time>2014-11-01T10:10:54Z</time>
      </trkpt>
      <trkpt lat="42.282857000" lon="-2.526527000">
        <ele>808.80</ele>
        <time>2014-11-01T10:10:55Z</time>
      </trkpt>
      <trkpt lat="42.282920000" lon="-2.526518000">
        <ele>808.00</ele>
        <time>2014-11-01T10:10:56Z</time>
      </trkpt>
      <trkpt lat="42.282989000" lon="-2.526515000">
        <ele>807.10</ele>
        <time>2014-11-01T10:10:57Z</time>
      </trkpt>
      <trkpt lat="42.283061000" lon="-2.526517000">
        <ele>806.40</ele>
        <time>2014-11-01T10:10:58Z</time>
      </trkpt>
      <trkpt lat="42.283135000" lon="-2.526520000">
        <ele>805.60</ele>
        <time>2014-11-01T10:10:59Z</time>
      </trkpt>
      <trkpt lat="42.283207000" lon="-2.526532000">
        <ele>805.00</ele>
        <time>2014-11-01T10:11:00Z</time>
      </trkpt>
      <trkpt lat="42.283281000" lon="-2.526548000">
        <ele>803.60</ele>
        <time>2014-11-01T10:11:01Z</time>
      </trkpt>
      <trkpt lat="42.283359000" lon="-2.526564000">
        <ele>802.50</ele>
        <time>2014-11-01T10:11:02Z</time>
      </trkpt>
      <trkpt lat="42.283446000" lon="-2.526587000">
        <ele>801.70</ele>
        <time>2014-11-01T10:11:03Z</time>
      </trkpt>
      <trkpt lat="42.283528000" lon="-2.526600000">
        <ele>801.10</ele>
        <time>2014-11-01T10:11:04Z</time>
      </trkpt>
      <trkpt lat="42.283613000" lon="-2.526607000">
        <ele>799.80</ele>
        <time>2014-11-01T10:11:05Z</time>
      </trkpt>
      <trkpt lat="42.283694000" lon="-2.526609000">
        <ele>798.90</ele>
        <time>2014-11-01T10:11:06Z</time>
      </trkpt>
      <trkpt lat="42.283774000" lon="-2.526598000">
        <ele>798.10</ele>
        <time>2014-11-01T10:11:07Z</time>
      </trkpt>
      <trkpt lat="42.283846000" lon="-2.526573000">
        <ele>797.40</ele>
        <time>2014-11-01T10:11:08Z</time>
      </trkpt>
      <trkpt lat="42.283905000" lon="-2.526534000">
        <ele>797.00</ele>
        <time>2014-11-01T10:11:09Z</time>
      </trkpt>
      <trkpt lat="42.283959000" lon="-2.526504000">
        <ele>796.60</ele>
        <time>2014-11-01T10:11:10Z</time>
      </trkpt>
      <trkpt lat="42.284011000" lon="-2.526481000">
        <ele>796.40</ele>
        <time>2014-11-01T10:11:11Z</time>
      </trkpt>
      <trkpt lat="42.284064000" lon="-2.526470000">
        <ele>796.20</ele>
        <time>2014-11-01T10:11:12Z</time>
      </trkpt>
      <trkpt lat="42.284116000" lon="-2.526463000">
        <ele>795.80</ele>
        <time>2014-11-01T10:11:13Z</time>
      </trkpt>
      <trkpt lat="42.284168000" lon="-2.526464000">
        <ele>795.50</ele>
        <time>2014-11-01T10:11:14Z</time>
      </trkpt>
      <trkpt lat="42.284219000" lon="-2.526473000">
        <ele>795.10</ele>
        <time>2014-11-01T10:11:15Z</time>
      </trkpt>
      <trkpt lat="42.284267000" lon="-2.526484000">
        <ele>794.80</ele>
        <time>2014-11-01T10:11:16Z</time>
      </trkpt>
      <trkpt lat="42.284315000" lon="-2.526502000">
        <ele>794.60</ele>
        <time>2014-11-01T10:11:17Z</time>
      </trkpt>
      <trkpt lat="42.284356000" lon="-2.526522000">
        <ele>794.50</ele>
        <time>2014-11-01T10:11:18Z</time>
      </trkpt>
      <trkpt lat="42.284398000" lon="-2.526534000">
        <ele>794.40</ele>
        <time>2014-11-01T10:11:19Z</time>
      </trkpt>
      <trkpt lat="42.284441000" lon="-2.526552000">
        <ele>794.30</ele>
        <time>2014-11-01T10:11:20Z</time>
      </trkpt>
      <trkpt lat="42.284485000" lon="-2.526571000">
        <ele>793.80</ele>
        <time>2014-11-01T10:11:21Z</time>
      </trkpt>
      <trkpt lat="42.284532000" lon="-2.526596000">
        <ele>793.50</ele>
        <time>2014-11-01T10:11:22Z</time>
      </trkpt>
      <trkpt lat="42.284581000" lon="-2.526616000">
        <ele>793.30</ele>
        <time>2014-11-01T10:11:23Z</time>
      </trkpt>
      <trkpt lat="42.284635000" lon="-2.526636000">
        <ele>793.10</ele>
        <time>2014-11-01T10:11:24Z</time>
      </trkpt>
      <trkpt lat="42.284692000" lon="-2.526657000">
        <ele>793.00</ele>
        <time>2014-11-01T10:11:25Z</time>
      </trkpt>
      <trkpt lat="42.284749000" lon="-2.526671000">
        <ele>792.90</ele>
        <time>2014-11-01T10:11:26Z</time>
      </trkpt>
      <trkpt lat="42.284809000" lon="-2.526683000">
        <ele>792.70</ele>
        <time>2014-11-01T10:11:27Z</time>
      </trkpt>
      <trkpt lat="42.284867000" lon="-2.526694000">
        <ele>792.50</ele>
        <time>2014-11-01T10:11:28Z</time>
      </trkpt>
      <trkpt lat="42.284924000" lon="-2.526708000">
        <ele>792.40</ele>
        <time>2014-11-01T10:11:29Z</time>
      </trkpt>
      <trkpt lat="42.284985000" lon="-2.526731000">
        <ele>792.30</ele>
        <time>2014-11-01T10:11:30Z</time>
      </trkpt>
      <trkpt lat="42.285046000" lon="-2.526749000">
        <ele>792.20</ele>
        <time>2014-11-01T10:11:31Z</time>
      </trkpt>
      <trkpt lat="42.285107000" lon="-2.526778000">
        <ele>792.10</ele>
        <time>2014-11-01T10:11:32Z</time>
      </trkpt>
      <trkpt lat="42.285235000" lon="-2.526828000">
        <ele>791.70</ele>
        <time>2014-11-01T10:11:34Z</time>
      </trkpt>
      <trkpt lat="42.285302000" lon="-2.526856000">
        <ele>791.60</ele>
        <time>2014-11-01T10:11:35Z</time>
      </trkpt>
      <trkpt lat="42.285365000" lon="-2.526894000">
        <ele>791.50</ele>
        <time>2014-11-01T10:11:36Z</time>
      </trkpt>
      <trkpt lat="42.285428000" lon="-2.526934000">
        <ele>791.30</ele>
        <time>2014-11-01T10:11:37Z</time>
      </trkpt>
      <trkpt lat="42.285492000" lon="-2.526972000">
        <ele>791.10</ele>
        <time>2014-11-01T10:11:38Z</time>
      </trkpt>
      <trkpt lat="42.285555000" lon="-2.527012000">
        <ele>790.80</ele>
        <time>2014-11-01T10:11:39Z</time>
      </trkpt>
      <trkpt lat="42.285618000" lon="-2.527047000">
        <ele>790.70</ele>
        <time>2014-11-01T10:11:40Z</time>
      </trkpt>
      <trkpt lat="42.285677000" lon="-2.527089000">
        <ele>790.50</ele>
        <time>2014-11-01T10:11:41Z</time>
      </trkpt>
      <trkpt lat="42.285739000" lon="-2.527137000">
        <ele>790.50</ele>
        <time>2014-11-01T10:11:42Z</time>
      </trkpt>
      <trkpt lat="42.285800000" lon="-2.527185000">
        <ele>789.90</ele>
        <time>2014-11-01T10:11:43Z</time>
      </trkpt>
      <trkpt lat="42.285862000" lon="-2.527236000">
        <ele>789.50</ele>
        <time>2014-11-01T10:11:44Z</time>
      </trkpt>
      <trkpt lat="42.285922000" lon="-2.527283000">
        <ele>789.20</ele>
        <time>2014-11-01T10:11:45Z</time>
      </trkpt>
      <trkpt lat="42.285976000" lon="-2.527332000">
        <ele>788.90</ele>
        <time>2014-11-01T10:11:46Z</time>
      </trkpt>
      <trkpt lat="42.286024000" lon="-2.527375000">
        <ele>788.60</ele>
        <time>2014-11-01T10:11:47Z</time>
      </trkpt>
      <trkpt lat="42.286064000" lon="-2.527413000">
        <ele>788.40</ele>
        <time>2014-11-01T10:11:48Z</time>
      </trkpt>
      <trkpt lat="42.286099000" lon="-2.527450000">
        <ele>788.10</ele>
        <time>2014-11-01T10:11:49Z</time>
      </trkpt>
      <trkpt lat="42.286128000" lon="-2.527491000">
        <ele>787.90</ele>
        <time>2014-11-01T10:11:50Z</time>
      </trkpt>
      <trkpt lat="42.286157000" lon="-2.527523000">
        <ele>787.70</ele>
        <time>2014-11-01T10:11:51Z</time>
      </trkpt>
      <trkpt lat="42.286189000" lon="-2.527551000">
        <ele>787.50</ele>
        <time>2014-11-01T10:11:52Z</time>
      </trkpt>
      <trkpt lat="42.286219000" lon="-2.527581000">
        <ele>787.10</ele>
        <time>2014-11-01T10:11:53Z</time>
      </trkpt>
      <trkpt lat="42.286251000" lon="-2.527614000">
        <ele>786.80</ele>
        <time>2014-11-01T10:11:54Z</time>
      </trkpt>
      <trkpt lat="42.286286000" lon="-2.527649000">
        <ele>786.40</ele>
        <time>2014-11-01T10:11:55Z</time>
      </trkpt>
      <trkpt lat="42.286317000" lon="-2.527687000">
        <ele>786.20</ele>
        <time>2014-11-01T10:11:56Z</time>
      </trkpt>
      <trkpt lat="42.286353000" lon="-2.527719000">
        <ele>785.90</ele>
        <time>2014-11-01T10:11:57Z</time>
      </trkpt>
      <trkpt lat="42.286392000" lon="-2.527752000">
        <ele>785.70</ele>
        <time>2014-11-01T10:11:58Z</time>
      </trkpt>
      <trkpt lat="42.286432000" lon="-2.527791000">
        <ele>785.50</ele>
        <time>2014-11-01T10:11:59Z</time>
      </trkpt>
      <trkpt lat="42.286471000" lon="-2.527833000">
        <ele>785.40</ele>
        <time>2014-11-01T10:12:00Z</time>
      </trkpt>
      <trkpt lat="42.286510000" lon="-2.527881000">
        <ele>785.20</ele>
        <time>2014-11-01T10:12:01Z</time>
      </trkpt>
      <trkpt lat="42.286548000" lon="-2.527927000">
        <ele>785.00</ele>
        <time>2014-11-01T10:12:02Z</time>
      </trkpt>
      <trkpt lat="42.286587000" lon="-2.527983000">
        <ele>784.90</ele>
        <time>2014-11-01T10:12:03Z</time>
      </trkpt>
      <trkpt lat="42.286624000" lon="-2.528050000">
        <ele>784.80</ele>
        <time>2014-11-01T10:12:04Z</time>
      </trkpt>
      <trkpt lat="42.286660000" lon="-2.528115000">
        <ele>784.60</ele>
        <time>2014-11-01T10:12:05Z</time>
      </trkpt>
      <trkpt lat="42.286697000" lon="-2.528180000">
        <ele>784.40</ele>
        <time>2014-11-01T10:12:06Z</time>
      </trkpt>
      <trkpt lat="42.286737000" lon="-2.528247000">
        <ele>784.30</ele>
        <time>2014-11-01T10:12:07Z</time>
      </trkpt>
      <trkpt lat="42.286773000" lon="-2.528305000">
        <ele>784.20</ele>
        <time>2014-11-01T10:12:08Z</time>
      </trkpt>
      <trkpt lat="42.286809000" lon="-2.528353000">
        <ele>784.30</ele>
        <time>2014-11-01T10:12:09Z</time>
      </trkpt>
      <trkpt lat="42.286852000" lon="-2.528392000">
        <ele>784.30</ele>
        <time>2014-11-01T10:12:10Z</time>
      </trkpt>
      <trkpt lat="42.286895000" lon="-2.528414000">
        <ele>784.30</ele>
        <time>2014-11-01T10:12:11Z</time>
      </trkpt>
      <trkpt lat="42.286944000" lon="-2.528426000">
        <ele>784.30</ele>
        <time>2014-11-01T10:12:12Z</time>
      </trkpt>
      <trkpt lat="42.286998000" lon="-2.528419000">
        <ele>784.10</ele>
        <time>2014-11-01T10:12:13Z</time>
      </trkpt>
      <trkpt lat="42.287059000" lon="-2.528406000">
        <ele>783.90</ele>
        <time>2014-11-01T10:12:14Z</time>
      </trkpt>
      <trkpt lat="42.287139000" lon="-2.528404000">
        <ele>783.70</ele>
        <time>2014-11-01T10:12:15Z</time>
      </trkpt>
      <trkpt lat="42.287216000" lon="-2.528414000">
        <ele>783.60</ele>
        <time>2014-11-01T10:12:16Z</time>
      </trkpt>
      <trkpt lat="42.287290000" lon="-2.528428000">
        <ele>782.80</ele>
        <time>2014-11-01T10:12:17Z</time>
      </trkpt>
      <trkpt lat="42.287359000" lon="-2.528431000">
        <ele>782.20</ele>
        <time>2014-11-01T10:12:18Z</time>
      </trkpt>
      <trkpt lat="42.287425000" lon="-2.528413000">
        <ele>781.60</ele>
        <time>2014-11-01T10:12:19Z</time>
      </trkpt>
      <trkpt lat="42.287491000" lon="-2.528380000">
        <ele>781.20</ele>
        <time>2014-11-01T10:12:20Z</time>
      </trkpt>
      <trkpt lat="42.287543000" lon="-2.528324000">
        <ele>780.10</ele>
        <time>2014-11-01T10:12:21Z</time>
      </trkpt>
      <trkpt lat="42.287581000" lon="-2.528249000">
        <ele>779.30</ele>
        <time>2014-11-01T10:12:22Z</time>
      </trkpt>
      <trkpt lat="42.287601000" lon="-2.528150000">
        <ele>778.40</ele>
        <time>2014-11-01T10:12:23Z</time>
      </trkpt>
      <trkpt lat="42.287606000" lon="-2.528041000">
        <ele>777.60</ele>
        <time>2014-11-01T10:12:24Z</time>
      </trkpt>
      <trkpt lat="42.287604000" lon="-2.527941000">
        <ele>776.30</ele>
        <time>2014-11-01T10:12:25Z</time>
      </trkpt>
      <trkpt lat="42.287599000" lon="-2.527852000">
        <ele>775.20</ele>
        <time>2014-11-01T10:12:26Z</time>
      </trkpt>
      <trkpt lat="42.287599000" lon="-2.527778000">
        <ele>774.30</ele>
        <time>2014-11-01T10:12:27Z</time>
      </trkpt>
      <trkpt lat="42.287604000" lon="-2.527703000">
        <ele>773.70</ele>
        <time>2014-11-01T10:12:28Z</time>
      </trkpt>
      <trkpt lat="42.287616000" lon="-2.527645000">
        <ele>773.20</ele>
        <time>2014-11-01T10:12:29Z</time>
      </trkpt>
      <trkpt lat="42.287633000" lon="-2.527590000">
        <ele>772.80</ele>
        <time>2014-11-01T10:12:30Z</time>
      </trkpt>
      <trkpt lat="42.287645000" lon="-2.527547000">
        <ele>771.70</ele>
        <time>2014-11-01T10:12:31Z</time>
      </trkpt>
      <trkpt lat="42.287664000" lon="-2.527511000">
        <ele>771.00</ele>
        <time>2014-11-01T10:12:32Z</time>
      </trkpt>
      <trkpt lat="42.287688000" lon="-2.527470000">
        <ele>770.20</ele>
        <time>2014-11-01T10:12:33Z</time>
      </trkpt>
      <trkpt lat="42.287756000" lon="-2.527397000">
        <ele>769.20</ele>
        <time>2014-11-01T10:12:35Z</time>
      </trkpt>
      <trkpt lat="42.287796000" lon="-2.527360000">
        <ele>768.90</ele>
        <time>2014-11-01T10:12:36Z</time>
      </trkpt>
      <trkpt lat="42.287837000" lon="-2.527318000">
        <ele>768.40</ele>
        <time>2014-11-01T10:12:37Z</time>
      </trkpt>
      <trkpt lat="42.287878000" lon="-2.527281000">
        <ele>768.00</ele>
        <time>2014-11-01T10:12:38Z</time>
      </trkpt>
      <trkpt lat="42.287924000" lon="-2.527243000">
        <ele>767.30</ele>
        <time>2014-11-01T10:12:39Z</time>
      </trkpt>
      <trkpt lat="42.287971000" lon="-2.527200000">
        <ele>766.90</ele>
        <time>2014-11-01T10:12:40Z</time>
      </trkpt>
      <trkpt lat="42.288019000" lon="-2.527157000">
        <ele>766.50</ele>
        <time>2014-11-01T10:12:41Z</time>
      </trkpt>
      <trkpt lat="42.288069000" lon="-2.527118000">
        <ele>766.30</ele>
        <time>2014-11-01T10:12:42Z</time>
      </trkpt>
      <trkpt lat="42.288119000" lon="-2.527084000">
        <ele>766.00</ele>
        <time>2014-11-01T10:12:43Z</time>
      </trkpt>
      <trkpt lat="42.288168000" lon="-2.527053000">
        <ele>765.80</ele>
        <time>2014-11-01T10:12:44Z</time>
      </trkpt>
      <trkpt lat="42.288213000" lon="-2.527021000">
        <ele>765.60</ele>
        <time>2014-11-01T10:12:45Z</time>
      </trkpt>
      <trkpt lat="42.288261000" lon="-2.526990000">
        <ele>765.50</ele>
        <time>2014-11-01T10:12:46Z</time>
      </trkpt>
      <trkpt lat="42.288306000" lon="-2.526953000">
        <ele>765.00</ele>
        <time>2014-11-01T10:12:47Z</time>
      </trkpt>
      <trkpt lat="42.288352000" lon="-2.526915000">
        <ele>764.60</ele>
        <time>2014-11-01T10:12:48Z</time>
      </trkpt>
      <trkpt lat="42.288399000" lon="-2.526877000">
        <ele>764.20</ele>
        <time>2014-11-01T10:12:49Z</time>
      </trkpt>
      <trkpt lat="42.288448000" lon="-2.526838000">
        <ele>764.00</ele>
        <time>2014-11-01T10:12:50Z</time>
      </trkpt>
      <trkpt lat="42.288498000" lon="-2.526801000">
        <ele>763.70</ele>
        <time>2014-11-01T10:12:51Z</time>
      </trkpt>
      <trkpt lat="42.288546000" lon="-2.526763000">
        <ele>763.50</ele>
        <time>2014-11-01T10:12:52Z</time>
      </trkpt>
      <trkpt lat="42.288595000" lon="-2.526725000">
        <ele>763.30</ele>
        <time>2014-11-01T10:12:53Z</time>
      </trkpt>
      <trkpt lat="42.288644000" lon="-2.526693000">
        <ele>763.10</ele>
        <time>2014-11-01T10:12:54Z</time>
      </trkpt>
      <trkpt lat="42.288693000" lon="-2.526657000">
        <ele>763.00</ele>
        <time>2014-11-01T10:12:55Z</time>
      </trkpt>
      <trkpt lat="42.288739000" lon="-2.526617000">
        <ele>762.90</ele>
        <time>2014-11-01T10:12:56Z</time>
      </trkpt>
      <trkpt lat="42.288788000" lon="-2.526583000">
        <ele>762.80</ele>
        <time>2014-11-01T10:12:57Z</time>
      </trkpt>
      <trkpt lat="42.288841000" lon="-2.526553000">
        <ele>762.70</ele>
        <time>2014-11-01T10:12:58Z</time>
      </trkpt>
      <trkpt lat="42.288892000" lon="-2.526532000">
        <ele>762.60</ele>
        <time>2014-11-01T10:12:59Z</time>
      </trkpt>
      <trkpt lat="42.288944000" lon="-2.526516000">
        <ele>762.40</ele>
        <time>2014-11-01T10:13:00Z</time>
      </trkpt>
      <trkpt lat="42.288998000" lon="-2.526497000">
        <ele>762.30</ele>
        <time>2014-11-01T10:13:01Z</time>
      </trkpt>
      <trkpt lat="42.289049000" lon="-2.526489000">
        <ele>762.10</ele>
        <time>2014-11-01T10:13:02Z</time>
      </trkpt>
      <trkpt lat="42.289099000" lon="-2.526488000">
        <ele>762.00</ele>
        <time>2014-11-01T10:13:03Z</time>
      </trkpt>
      <trkpt lat="42.289152000" lon="-2.526491000">
        <ele>762.00</ele>
        <time>2014-11-01T10:13:04Z</time>
      </trkpt>
      <trkpt lat="42.289201000" lon="-2.526500000">
        <ele>761.90</ele>
        <time>2014-11-01T10:13:05Z</time>
      </trkpt>
      <trkpt lat="42.289249000" lon="-2.526515000">
        <ele>761.80</ele>
        <time>2014-11-01T10:13:06Z</time>
      </trkpt>
      <trkpt lat="42.289297000" lon="-2.526533000">
        <ele>761.50</ele>
        <time>2014-11-01T10:13:07Z</time>
      </trkpt>
      <trkpt lat="42.289350000" lon="-2.526555000">
        <ele>761.20</ele>
        <time>2014-11-01T10:13:08Z</time>
      </trkpt>
      <trkpt lat="42.289404000" lon="-2.526579000">
        <ele>761.00</ele>
        <time>2014-11-01T10:13:09Z</time>
      </trkpt>
      <trkpt lat="42.289453000" lon="-2.526605000">
        <ele>760.90</ele>
        <time>2014-11-01T10:13:10Z</time>
      </trkpt>
      <trkpt lat="42.289504000" lon="-2.526629000">
        <ele>760.90</ele>
        <time>2014-11-01T10:13:11Z</time>
      </trkpt>
      <trkpt lat="42.289555000" lon="-2.526655000">
        <ele>760.90</ele>
        <time>2014-11-01T10:13:12Z</time>
      </trkpt>
      <trkpt lat="42.289603000" lon="-2.526678000">
        <ele>761.00</ele>
        <time>2014-11-01T10:13:13Z</time>
      </trkpt>
      <trkpt lat="42.289652000" lon="-2.526698000">
        <ele>761.10</ele>
        <time>2014-11-01T10:13:14Z</time>
      </trkpt>
      <trkpt lat="42.289701000" lon="-2.526718000">
        <ele>761.10</ele>
        <time>2014-11-01T10:13:15Z</time>
      </trkpt>
      <trkpt lat="42.289752000" lon="-2.526736000">
        <ele>761.10</ele>
        <time>2014-11-01T10:13:16Z</time>
      </trkpt>
      <trkpt lat="42.289805000" lon="-2.526753000">
        <ele>761.20</ele>
        <time>2014-11-01T10:13:17Z</time>
      </trkpt>
      <trkpt lat="42.289860000" lon="-2.526768000">
        <ele>761.20</ele>
        <time>2014-11-01T10:13:18Z</time>
      </trkpt>
      <trkpt lat="42.289917000" lon="-2.526781000">
        <ele>761.00</ele>
        <time>2014-11-01T10:13:19Z</time>
      </trkpt>
      <trkpt lat="42.289978000" lon="-2.526790000">
        <ele>760.90</ele>
        <time>2014-11-01T10:13:20Z</time>
      </trkpt>
      <trkpt lat="42.290043000" lon="-2.526800000">
        <ele>760.60</ele>
        <time>2014-11-01T10:13:21Z</time>
      </trkpt>
      <trkpt lat="42.290112000" lon="-2.526809000">
        <ele>760.40</ele>
        <time>2014-11-01T10:13:22Z</time>
      </trkpt>
      <trkpt lat="42.290183000" lon="-2.526816000">
        <ele>760.20</ele>
        <time>2014-11-01T10:13:23Z</time>
      </trkpt>
      <trkpt lat="42.290253000" lon="-2.526818000">
        <ele>760.10</ele>
        <time>2014-11-01T10:13:24Z</time>
      </trkpt>
      <trkpt lat="42.290326000" lon="-2.526821000">
        <ele>759.70</ele>
        <time>2014-11-01T10:13:25Z</time>
      </trkpt>
      <trkpt lat="42.290397000" lon="-2.526821000">
        <ele>759.40</ele>
        <time>2014-11-01T10:13:26Z</time>
      </trkpt>
      <trkpt lat="42.290469000" lon="-2.526824000">
        <ele>759.10</ele>
        <time>2014-11-01T10:13:27Z</time>
      </trkpt>
      <trkpt lat="42.290534000" lon="-2.526832000">
        <ele>758.90</ele>
        <time>2014-11-01T10:13:28Z</time>
      </trkpt>
      <trkpt lat="42.290596000" lon="-2.526844000">
        <ele>758.80</ele>
        <time>2014-11-01T10:13:29Z</time>
      </trkpt>
      <trkpt lat="42.290658000" lon="-2.526858000">
        <ele>758.70</ele>
        <time>2014-11-01T10:13:30Z</time>
      </trkpt>
      <trkpt lat="42.290716000" lon="-2.526881000">
        <ele>758.60</ele>
        <time>2014-11-01T10:13:31Z</time>
      </trkpt>
      <trkpt lat="42.290771000" lon="-2.526906000">
        <ele>758.50</ele>
        <time>2014-11-01T10:13:32Z</time>
      </trkpt>
      <trkpt lat="42.290829000" lon="-2.526932000">
        <ele>758.50</ele>
        <time>2014-11-01T10:13:33Z</time>
      </trkpt>
      <trkpt lat="42.290877000" lon="-2.526964000">
        <ele>758.40</ele>
        <time>2014-11-01T10:13:34Z</time>
      </trkpt>
      <trkpt lat="42.290970000" lon="-2.527027000">
        <ele>757.40</ele>
        <time>2014-11-01T10:13:36Z</time>
      </trkpt>
      <trkpt lat="42.291015000" lon="-2.527061000">
        <ele>757.10</ele>
        <time>2014-11-01T10:13:37Z</time>
      </trkpt>
      <trkpt lat="42.291059000" lon="-2.527094000">
        <ele>756.90</ele>
        <time>2014-11-01T10:13:38Z</time>
      </trkpt>
      <trkpt lat="42.291104000" lon="-2.527127000">
        <ele>756.60</ele>
        <time>2014-11-01T10:13:39Z</time>
      </trkpt>
      <trkpt lat="42.291148000" lon="-2.527162000">
        <ele>756.30</ele>
        <time>2014-11-01T10:13:40Z</time>
      </trkpt>
      <trkpt lat="42.291192000" lon="-2.527198000">
        <ele>756.00</ele>
        <time>2014-11-01T10:13:41Z</time>
      </trkpt>
      <trkpt lat="42.291236000" lon="-2.527231000">
        <ele>755.80</ele>
        <time>2014-11-01T10:13:42Z</time>
      </trkpt>
      <trkpt lat="42.291276000" lon="-2.527269000">
        <ele>755.60</ele>
        <time>2014-11-01T10:13:43Z</time>
      </trkpt>
      <trkpt lat="42.291314000" lon="-2.527309000">
        <ele>755.50</ele>
        <time>2014-11-01T10:13:44Z</time>
      </trkpt>
      <trkpt lat="42.291350000" lon="-2.527350000">
        <ele>755.30</ele>
        <time>2014-11-01T10:13:45Z</time>
      </trkpt>
      <trkpt lat="42.291389000" lon="-2.527391000">
        <ele>755.20</ele>
        <time>2014-11-01T10:13:46Z</time>
      </trkpt>
      <trkpt lat="42.291426000" lon="-2.527437000">
        <ele>754.80</ele>
        <time>2014-11-01T10:13:47Z</time>
      </trkpt>
      <trkpt lat="42.291459000" lon="-2.527484000">
        <ele>754.50</ele>
        <time>2014-11-01T10:13:48Z</time>
      </trkpt>
      <trkpt lat="42.291488000" lon="-2.527533000">
        <ele>754.20</ele>
        <time>2014-11-01T10:13:49Z</time>
      </trkpt>
      <trkpt lat="42.291519000" lon="-2.527580000">
        <ele>754.10</ele>
        <time>2014-11-01T10:13:50Z</time>
      </trkpt>
      <trkpt lat="42.291554000" lon="-2.527628000">
        <ele>753.90</ele>
        <time>2014-11-01T10:13:51Z</time>
      </trkpt>
      <trkpt lat="42.291586000" lon="-2.527681000">
        <ele>753.70</ele>
        <time>2014-11-01T10:13:52Z</time>
      </trkpt>
      <trkpt lat="42.291620000" lon="-2.527735000">
        <ele>753.60</ele>
        <time>2014-11-01T10:13:53Z</time>
      </trkpt>
      <trkpt lat="42.291652000" lon="-2.527791000">
        <ele>753.50</ele>
        <time>2014-11-01T10:13:54Z</time>
      </trkpt>
      <trkpt lat="42.291683000" lon="-2.527844000">
        <ele>753.10</ele>
        <time>2014-11-01T10:13:55Z</time>
      </trkpt>
      <trkpt lat="42.291710000" lon="-2.527891000">
        <ele>752.90</ele>
        <time>2014-11-01T10:13:56Z</time>
      </trkpt>
      <trkpt lat="42.291735000" lon="-2.527932000">
        <ele>752.30</ele>
        <time>2014-11-01T10:13:57Z</time>
      </trkpt>
      <trkpt lat="42.291758000" lon="-2.527967000">
        <ele>751.90</ele>
        <time>2014-11-01T10:13:58Z</time>
      </trkpt>
      <trkpt lat="42.291777000" lon="-2.527997000">
        <ele>751.20</ele>
        <time>2014-11-01T10:13:59Z</time>
      </trkpt>
      <trkpt lat="42.291794000" lon="-2.528025000">
        <ele>750.60</ele>
        <time>2014-11-01T10:14:00Z</time>
      </trkpt>
      <trkpt lat="42.291812000" lon="-2.528058000">
        <ele>750.30</ele>
        <time>2014-11-01T10:14:01Z</time>
      </trkpt>
      <trkpt lat="42.291835000" lon="-2.528096000">
        <ele>750.00</ele>
        <time>2014-11-01T10:14:02Z</time>
      </trkpt>
      <trkpt lat="42.291858000" lon="-2.528136000">
        <ele>749.70</ele>
        <time>2014-11-01T10:14:03Z</time>
      </trkpt>
      <trkpt lat="42.291878000" lon="-2.528173000">
        <ele>749.50</ele>
        <time>2014-11-01T10:14:04Z</time>
      </trkpt>
      <trkpt lat="42.291900000" lon="-2.528212000">
        <ele>749.10</ele>
        <time>2014-11-01T10:14:05Z</time>
      </trkpt>
      <trkpt lat="42.291921000" lon="-2.528255000">
        <ele>748.80</ele>
        <time>2014-11-01T10:14:06Z</time>
      </trkpt>
      <trkpt lat="42.291943000" lon="-2.528303000">
        <ele>748.50</ele>
        <time>2014-11-01T10:14:07Z</time>
      </trkpt>
      <trkpt lat="42.291959000" lon="-2.528346000">
        <ele>748.20</ele>
        <time>2014-11-01T10:14:08Z</time>
      </trkpt>
      <trkpt lat="42.291979000" lon="-2.528388000">
        <ele>748.00</ele>
        <time>2014-11-01T10:14:09Z</time>
      </trkpt>
      <trkpt lat="42.291998000" lon="-2.528429000">
        <ele>747.80</ele>
        <time>2014-11-01T10:14:10Z</time>
      </trkpt>
      <trkpt lat="42.292021000" lon="-2.528471000">
        <ele>747.60</ele>
        <time>2014-11-01T10:14:11Z</time>
      </trkpt>
      <trkpt lat="42.292049000" lon="-2.528508000">
        <ele>747.40</ele>
        <time>2014-11-01T10:14:12Z</time>
      </trkpt>
      <trkpt lat="42.292077000" lon="-2.528551000">
        <ele>747.20</ele>
        <time>2014-11-01T10:14:13Z</time>
      </trkpt>
      <trkpt lat="42.292107000" lon="-2.528595000">
        <ele>747.00</ele>
        <time>2014-11-01T10:14:14Z</time>
      </trkpt>
      <trkpt lat="42.292135000" lon="-2.528647000">
        <ele>746.60</ele>
        <time>2014-11-01T10:14:15Z</time>
      </trkpt>
      <trkpt lat="42.292167000" lon="-2.528701000">
        <ele>746.30</ele>
        <time>2014-11-01T10:14:16Z</time>
      </trkpt>
      <trkpt lat="42.292197000" lon="-2.528759000">
        <ele>746.10</ele>
        <time>2014-11-01T10:14:17Z</time>
      </trkpt>
      <trkpt lat="42.292227000" lon="-2.528822000">
        <ele>745.90</ele>
        <time>2014-11-01T10:14:18Z</time>
      </trkpt>
      <trkpt lat="42.292260000" lon="-2.528876000">
        <ele>745.80</ele>
        <time>2014-11-01T10:14:19Z</time>
      </trkpt>
      <trkpt lat="42.292294000" lon="-2.528928000">
        <ele>745.60</ele>
        <time>2014-11-01T10:14:20Z</time>
      </trkpt>
      <trkpt lat="42.292329000" lon="-2.528979000">
        <ele>745.30</ele>
        <time>2014-11-01T10:14:21Z</time>
      </trkpt>
      <trkpt lat="42.292365000" lon="-2.529024000">
        <ele>745.10</ele>
        <time>2014-11-01T10:14:22Z</time>
      </trkpt>
      <trkpt lat="42.292403000" lon="-2.529067000">
        <ele>744.90</ele>
        <time>2014-11-01T10:14:23Z</time>
      </trkpt>
      <trkpt lat="42.292441000" lon="-2.529106000">
        <ele>744.80</ele>
        <time>2014-11-01T10:14:24Z</time>
      </trkpt>
      <trkpt lat="42.292478000" lon="-2.529148000">
        <ele>744.70</ele>
        <time>2014-11-01T10:14:25Z</time>
      </trkpt>
      <trkpt lat="42.292516000" lon="-2.529184000">
        <ele>744.60</ele>
        <time>2014-11-01T10:14:26Z</time>
      </trkpt>
      <trkpt lat="42.292556000" lon="-2.529215000">
        <ele>744.60</ele>
        <time>2014-11-01T10:14:27Z</time>
      </trkpt>
      <trkpt lat="42.292594000" lon="-2.529246000">
        <ele>744.60</ele>
        <time>2014-11-01T10:14:28Z</time>
      </trkpt>
      <trkpt lat="42.292631000" lon="-2.529274000">
        <ele>744.60</ele>
        <time>2014-11-01T10:14:29Z</time>
      </trkpt>
      <trkpt lat="42.292668000" lon="-2.529292000">
        <ele>744.60</ele>
        <time>2014-11-01T10:14:30Z</time>
      </trkpt>
      <trkpt lat="42.292703000" lon="-2.529300000">
        <ele>744.70</ele>
        <time>2014-11-01T10:14:31Z</time>
      </trkpt>
      <trkpt lat="42.292736000" lon="-2.529307000">
        <ele>744.80</ele>
        <time>2014-11-01T10:14:32Z</time>
      </trkpt>
      <trkpt lat="42.292769000" lon="-2.529312000">
        <ele>744.90</ele>
        <time>2014-11-01T10:14:33Z</time>
      </trkpt>
      <trkpt lat="42.292801000" lon="-2.529314000">
        <ele>745.00</ele>
        <time>2014-11-01T10:14:34Z</time>
      </trkpt>
      <trkpt lat="42.292834000" lon="-2.529321000">
        <ele>745.10</ele>
        <time>2014-11-01T10:14:35Z</time>
      </trkpt>
      <trkpt lat="42.292900000" lon="-2.529340000">
        <ele>745.00</ele>
        <time>2014-11-01T10:14:37Z</time>
      </trkpt>
      <trkpt lat="42.292934000" lon="-2.529346000">
        <ele>744.80</ele>
        <time>2014-11-01T10:14:38Z</time>
      </trkpt>
      <trkpt lat="42.292966000" lon="-2.529352000">
        <ele>744.80</ele>
        <time>2014-11-01T10:14:39Z</time>
      </trkpt>
      <trkpt lat="42.292999000" lon="-2.529355000">
        <ele>744.70</ele>
        <time>2014-11-01T10:14:40Z</time>
      </trkpt>
      <trkpt lat="42.293034000" lon="-2.529360000">
        <ele>744.70</ele>
        <time>2014-11-01T10:14:41Z</time>
      </trkpt>
      <trkpt lat="42.293069000" lon="-2.529360000">
        <ele>744.70</ele>
        <time>2014-11-01T10:14:42Z</time>
      </trkpt>
      <trkpt lat="42.293106000" lon="-2.529358000">
        <ele>744.80</ele>
        <time>2014-11-01T10:14:43Z</time>
      </trkpt>
      <trkpt lat="42.293144000" lon="-2.529355000">
        <ele>744.80</ele>
        <time>2014-11-01T10:14:44Z</time>
      </trkpt>
      <trkpt lat="42.293183000" lon="-2.529352000">
        <ele>744.90</ele>
        <time>2014-11-01T10:14:45Z</time>
      </trkpt>
      <trkpt lat="42.293221000" lon="-2.529348000">
        <ele>744.90</ele>
        <time>2014-11-01T10:14:46Z</time>
      </trkpt>
      <trkpt lat="42.293257000" lon="-2.529344000">
        <ele>744.90</ele>
        <time>2014-11-01T10:14:47Z</time>
      </trkpt>
      <trkpt lat="42.293294000" lon="-2.529342000">
        <ele>744.80</ele>
        <time>2014-11-01T10:14:48Z</time>
      </trkpt>
      <trkpt lat="42.293330000" lon="-2.529338000">
        <ele>744.80</ele>
        <time>2014-11-01T10:14:49Z</time>
      </trkpt>
      <trkpt lat="42.293367000" lon="-2.529336000">
        <ele>744.80</ele>
        <time>2014-11-01T10:14:50Z</time>
      </trkpt>
      <trkpt lat="42.293401000" lon="-2.529330000">
        <ele>744.70</ele>
        <time>2014-11-01T10:14:51Z</time>
      </trkpt>
      <trkpt lat="42.293436000" lon="-2.529329000">
        <ele>744.70</ele>
        <time>2014-11-01T10:14:52Z</time>
      </trkpt>
      <trkpt lat="42.293471000" lon="-2.529330000">
        <ele>744.90</ele>
        <time>2014-11-01T10:14:53Z</time>
      </trkpt>
      <trkpt lat="42.293504000" lon="-2.529329000">
        <ele>745.00</ele>
        <time>2014-11-01T10:14:54Z</time>
      </trkpt>
      <trkpt lat="42.293539000" lon="-2.529326000">
        <ele>745.10</ele>
        <time>2014-11-01T10:14:55Z</time>
      </trkpt>
      <trkpt lat="42.293574000" lon="-2.529321000">
        <ele>745.20</ele>
        <time>2014-11-01T10:14:56Z</time>
      </trkpt>
      <trkpt lat="42.293610000" lon="-2.529316000">
        <ele>745.30</ele>
        <time>2014-11-01T10:14:57Z</time>
      </trkpt>
      <trkpt lat="42.293646000" lon="-2.529315000">
        <ele>745.40</ele>
        <time>2014-11-01T10:14:58Z</time>
      </trkpt>
      <trkpt lat="42.293683000" lon="-2.529316000">
        <ele>745.50</ele>
        <time>2014-11-01T10:14:59Z</time>
      </trkpt>
      <trkpt lat="42.293717000" lon="-2.529313000">
        <ele>745.60</ele>
        <time>2014-11-01T10:15:00Z</time>
      </trkpt>
      <trkpt lat="42.293754000" lon="-2.529313000">
        <ele>745.70</ele>
        <time>2014-11-01T10:15:01Z</time>
      </trkpt>
      <trkpt lat="42.293789000" lon="-2.529313000">
        <ele>745.70</ele>
        <time>2014-11-01T10:15:02Z</time>
      </trkpt>
      <trkpt lat="42.293823000" lon="-2.529309000">
        <ele>745.80</ele>
        <time>2014-11-01T10:15:03Z</time>
      </trkpt>
      <trkpt lat="42.293858000" lon="-2.529307000">
        <ele>745.80</ele>
        <time>2014-11-01T10:15:04Z</time>
      </trkpt>
      <trkpt lat="42.293894000" lon="-2.529306000">
        <ele>745.80</ele>
        <time>2014-11-01T10:15:05Z</time>
      </trkpt>
      <trkpt lat="42.293930000" lon="-2.529306000">
        <ele>745.70</ele>
        <time>2014-11-01T10:15:06Z</time>
      </trkpt>
      <trkpt lat="42.293963000" lon="-2.529304000">
        <ele>745.70</ele>
        <time>2014-11-01T10:15:07Z</time>
      </trkpt>
      <trkpt lat="42.293997000" lon="-2.529308000">
        <ele>745.70</ele>
        <time>2014-11-01T10:15:08Z</time>
      </trkpt>
      <trkpt lat="42.294030000" lon="-2.529311000">
        <ele>745.90</ele>
        <time>2014-11-01T10:15:09Z</time>
      </trkpt>
      <trkpt lat="42.294064000" lon="-2.529310000">
        <ele>746.00</ele>
        <time>2014-11-01T10:15:10Z</time>
      </trkpt>
      <trkpt lat="42.294097000" lon="-2.529316000">
        <ele>746.10</ele>
        <time>2014-11-01T10:15:11Z</time>
      </trkpt>
      <trkpt lat="42.294130000" lon="-2.529321000">
        <ele>746.10</ele>
        <time>2014-11-01T10:15:12Z</time>
      </trkpt>
      <trkpt lat="42.294163000" lon="-2.529328000">
        <ele>746.30</ele>
        <time>2014-11-01T10:15:13Z</time>
      </trkpt>
      <trkpt lat="42.294195000" lon="-2.529343000">
        <ele>746.50</ele>
        <time>2014-11-01T10:15:14Z</time>
      </trkpt>
      <trkpt lat="42.294225000" lon="-2.529362000">
        <ele>746.60</ele>
        <time>2014-11-01T10:15:15Z</time>
      </trkpt>
      <trkpt lat="42.294257000" lon="-2.529387000">
        <ele>746.60</ele>
        <time>2014-11-01T10:15:16Z</time>
      </trkpt>
      <trkpt lat="42.294286000" lon="-2.529415000">
        <ele>746.80</ele>
        <time>2014-11-01T10:15:17Z</time>
      </trkpt>
      <trkpt lat="42.294316000" lon="-2.529449000">
        <ele>746.90</ele>
        <time>2014-11-01T10:15:18Z</time>
      </trkpt>
      <trkpt lat="42.294348000" lon="-2.529481000">
        <ele>747.00</ele>
        <time>2014-11-01T10:15:19Z</time>
      </trkpt>
      <trkpt lat="42.294380000" lon="-2.529518000">
        <ele>747.10</ele>
        <time>2014-11-01T10:15:20Z</time>
      </trkpt>
      <trkpt lat="42.294410000" lon="-2.529559000">
        <ele>747.20</ele>
        <time>2014-11-01T10:15:21Z</time>
      </trkpt>
      <trkpt lat="42.294441000" lon="-2.529599000">
        <ele>747.20</ele>
        <time>2014-11-01T10:15:22Z</time>
      </trkpt>
      <trkpt lat="42.294474000" lon="-2.529638000">
        <ele>747.30</ele>
        <time>2014-11-01T10:15:23Z</time>
      </trkpt>
      <trkpt lat="42.294505000" lon="-2.529676000">
        <ele>747.30</ele>
        <time>2014-11-01T10:15:24Z</time>
      </trkpt>
      <trkpt lat="42.294534000" lon="-2.529712000">
        <ele>747.30</ele>
        <time>2014-11-01T10:15:25Z</time>
      </trkpt>
      <trkpt lat="42.294560000" lon="-2.529744000">
        <ele>747.40</ele>
        <time>2014-11-01T10:15:26Z</time>
      </trkpt>
      <trkpt lat="42.294592000" lon="-2.529770000">
        <ele>747.40</ele>
        <time>2014-11-01T10:15:27Z</time>
      </trkpt>
      <trkpt lat="42.294626000" lon="-2.529799000">
        <ele>747.40</ele>
        <time>2014-11-01T10:15:28Z</time>
      </trkpt>
      <trkpt lat="42.294664000" lon="-2.529832000">
        <ele>747.40</ele>
        <time>2014-11-01T10:15:29Z</time>
      </trkpt>
      <trkpt lat="42.294699000" lon="-2.529864000">
        <ele>747.40</ele>
        <time>2014-11-01T10:15:30Z</time>
      </trkpt>
      <trkpt lat="42.294735000" lon="-2.529892000">
        <ele>747.30</ele>
        <time>2014-11-01T10:15:31Z</time>
      </trkpt>
      <trkpt lat="42.294772000" lon="-2.529922000">
        <ele>747.20</ele>
        <time>2014-11-01T10:15:32Z</time>
      </trkpt>
      <trkpt lat="42.294810000" lon="-2.529951000">
        <ele>747.10</ele>
        <time>2014-11-01T10:15:33Z</time>
      </trkpt>
      <trkpt lat="42.294847000" lon="-2.529981000">
        <ele>747.00</ele>
        <time>2014-11-01T10:15:34Z</time>
      </trkpt>
      <trkpt lat="42.294883000" lon="-2.530007000">
        <ele>747.00</ele>
        <time>2014-11-01T10:15:35Z</time>
      </trkpt>
      <trkpt lat="42.294917000" lon="-2.530032000">
        <ele>747.00</ele>
        <time>2014-11-01T10:15:36Z</time>
      </trkpt>
      <trkpt lat="42.294985000" lon="-2.530094000">
        <ele>746.90</ele>
        <time>2014-11-01T10:15:38Z</time>
      </trkpt>
      <trkpt lat="42.295020000" lon="-2.530124000">
        <ele>747.20</ele>
        <time>2014-11-01T10:15:39Z</time>
      </trkpt>
      <trkpt lat="42.295055000" lon="-2.530153000">
        <ele>747.40</ele>
        <time>2014-11-01T10:15:40Z</time>
      </trkpt>
      <trkpt lat="42.295089000" lon="-2.530180000">
        <ele>747.50</ele>
        <time>2014-11-01T10:15:41Z</time>
      </trkpt>
      <trkpt lat="42.295125000" lon="-2.530209000">
        <ele>747.60</ele>
        <time>2014-11-01T10:15:42Z</time>
      </trkpt>
      <trkpt lat="42.295159000" lon="-2.530241000">
        <ele>747.60</ele>
        <time>2014-11-01T10:15:43Z</time>
      </trkpt>
      <trkpt lat="42.295185000" lon="-2.530264000">
        <ele>747.60</ele>
        <time>2014-11-01T10:15:44Z</time>
      </trkpt>
      <trkpt lat="42.295217000" lon="-2.530290000">
        <ele>747.50</ele>
        <time>2014-11-01T10:15:45Z</time>
      </trkpt>
      <trkpt lat="42.295249000" lon="-2.530317000">
        <ele>747.40</ele>
        <time>2014-11-01T10:15:46Z</time>
      </trkpt>
      <trkpt lat="42.295292000" lon="-2.530348000">
        <ele>747.50</ele>
        <time>2014-11-01T10:15:47Z</time>
      </trkpt>
      <trkpt lat="42.295333000" lon="-2.530380000">
        <ele>747.50</ele>
        <time>2014-11-01T10:15:48Z</time>
      </trkpt>
      <trkpt lat="42.295367000" lon="-2.530406000">
        <ele>747.40</ele>
        <time>2014-11-01T10:15:49Z</time>
      </trkpt>
      <trkpt lat="42.295404000" lon="-2.530432000">
        <ele>747.40</ele>
        <time>2014-11-01T10:15:50Z</time>
      </trkpt>
      <trkpt lat="42.295436000" lon="-2.530454000">
        <ele>747.50</ele>
        <time>2014-11-01T10:15:51Z</time>
      </trkpt>
      <trkpt lat="42.295464000" lon="-2.530472000">
        <ele>747.60</ele>
        <time>2014-11-01T10:15:52Z</time>
      </trkpt>
      <trkpt lat="42.295498000" lon="-2.530499000">
        <ele>747.80</ele>
        <time>2014-11-01T10:15:53Z</time>
      </trkpt>
      <trkpt lat="42.295532000" lon="-2.530525000">
        <ele>747.90</ele>
        <time>2014-11-01T10:15:54Z</time>
      </trkpt>
      <trkpt lat="42.295568000" lon="-2.530552000">
        <ele>748.00</ele>
        <time>2014-11-01T10:15:55Z</time>
      </trkpt>
      <trkpt lat="42.295601000" lon="-2.530580000">
        <ele>748.00</ele>
        <time>2014-11-01T10:15:56Z</time>
      </trkpt>
      <trkpt lat="42.295634000" lon="-2.530609000">
        <ele>748.00</ele>
        <time>2014-11-01T10:15:57Z</time>
      </trkpt>
      <trkpt lat="42.295666000" lon="-2.530636000">
        <ele>748.00</ele>
        <time>2014-11-01T10:15:58Z</time>
      </trkpt>
      <trkpt lat="42.295699000" lon="-2.530666000">
        <ele>748.00</ele>
        <time>2014-11-01T10:15:59Z</time>
      </trkpt>
      <trkpt lat="42.295731000" lon="-2.530699000">
        <ele>748.00</ele>
        <time>2014-11-01T10:16:00Z</time>
      </trkpt>
      <trkpt lat="42.295762000" lon="-2.530729000">
        <ele>748.10</ele>
        <time>2014-11-01T10:16:01Z</time>
      </trkpt>
      <trkpt lat="42.295793000" lon="-2.530764000">
        <ele>748.10</ele>
        <time>2014-11-01T10:16:02Z</time>
      </trkpt>
      <trkpt lat="42.295824000" lon="-2.530799000">
        <ele>748.20</ele>
        <time>2014-11-01T10:16:03Z</time>
      </trkpt>
      <trkpt lat="42.295854000" lon="-2.530835000">
        <ele>748.20</ele>
        <time>2014-11-01T10:16:04Z</time>
      </trkpt>
      <trkpt lat="42.295883000" lon="-2.530872000">
        <ele>748.20</ele>
        <time>2014-11-01T10:16:05Z</time>
      </trkpt>
      <trkpt lat="42.295913000" lon="-2.530905000">
        <ele>748.20</ele>
        <time>2014-11-01T10:16:06Z</time>
      </trkpt>
      <trkpt lat="42.295943000" lon="-2.530941000">
        <ele>748.10</ele>
        <time>2014-11-01T10:16:07Z</time>
      </trkpt>
      <trkpt lat="42.295973000" lon="-2.530977000">
        <ele>748.00</ele>
        <time>2014-11-01T10:16:08Z</time>
      </trkpt>
      <trkpt lat="42.296002000" lon="-2.531011000">
        <ele>748.00</ele>
        <time>2014-11-01T10:16:09Z</time>
      </trkpt>
      <trkpt lat="42.296032000" lon="-2.531044000">
        <ele>748.00</ele>
        <time>2014-11-01T10:16:10Z</time>
      </trkpt>
      <trkpt lat="42.296064000" lon="-2.531077000">
        <ele>747.90</ele>
        <time>2014-11-01T10:16:11Z</time>
      </trkpt>
      <trkpt lat="42.296094000" lon="-2.531114000">
        <ele>747.90</ele>
        <time>2014-11-01T10:16:12Z</time>
      </trkpt>
      <trkpt lat="42.296126000" lon="-2.531154000">
        <ele>747.90</ele>
        <time>2014-11-01T10:16:13Z</time>
      </trkpt>
      <trkpt lat="42.296157000" lon="-2.531193000">
        <ele>747.90</ele>
        <time>2014-11-01T10:16:14Z</time>
      </trkpt>
      <trkpt lat="42.296186000" lon="-2.531231000">
        <ele>747.90</ele>
        <time>2014-11-01T10:16:15Z</time>
      </trkpt>
      <trkpt lat="42.296216000" lon="-2.531272000">
        <ele>747.90</ele>
        <time>2014-11-01T10:16:16Z</time>
      </trkpt>
      <trkpt lat="42.296250000" lon="-2.531312000">
        <ele>748.00</ele>
        <time>2014-11-01T10:16:17Z</time>
      </trkpt>
      <trkpt lat="42.296281000" lon="-2.531350000">
        <ele>748.10</ele>
        <time>2014-11-01T10:16:18Z</time>
      </trkpt>
      <trkpt lat="42.296311000" lon="-2.531390000">
        <ele>748.20</ele>
        <time>2014-11-01T10:16:19Z</time>
      </trkpt>
      <trkpt lat="42.296339000" lon="-2.531427000">
        <ele>748.20</ele>
        <time>2014-11-01T10:16:20Z</time>
      </trkpt>
      <trkpt lat="42.296370000" lon="-2.531463000">
        <ele>748.30</ele>
        <time>2014-11-01T10:16:21Z</time>
      </trkpt>
      <trkpt lat="42.296403000" lon="-2.531494000">
        <ele>748.40</ele>
        <time>2014-11-01T10:16:22Z</time>
      </trkpt>
      <trkpt lat="42.296434000" lon="-2.531526000">
        <ele>748.40</ele>
        <time>2014-11-01T10:16:23Z</time>
      </trkpt>
      <trkpt lat="42.296467000" lon="-2.531559000">
        <ele>748.40</ele>
        <time>2014-11-01T10:16:24Z</time>
      </trkpt>
      <trkpt lat="42.296501000" lon="-2.531589000">
        <ele>748.40</ele>
        <time>2014-11-01T10:16:25Z</time>
      </trkpt>
      <trkpt lat="42.296532000" lon="-2.531620000">
        <ele>748.40</ele>
        <time>2014-11-01T10:16:26Z</time>
      </trkpt>
      <trkpt lat="42.296563000" lon="-2.531646000">
        <ele>748.40</ele>
        <time>2014-11-01T10:16:27Z</time>
      </trkpt>
      <trkpt lat="42.296591000" lon="-2.531672000">
        <ele>748.40</ele>
        <time>2014-11-01T10:16:28Z</time>
      </trkpt>
      <trkpt lat="42.296621000" lon="-2.531692000">
        <ele>748.40</ele>
        <time>2014-11-01T10:16:29Z</time>
      </trkpt>
      <trkpt lat="42.296653000" lon="-2.531707000">
        <ele>748.40</ele>
        <time>2014-11-01T10:16:30Z</time>
      </trkpt>
      <trkpt lat="42.296679000" lon="-2.531734000">
        <ele>748.40</ele>
        <time>2014-11-01T10:16:31Z</time>
      </trkpt>
      <trkpt lat="42.296705000" lon="-2.531763000">
        <ele>748.50</ele>
        <time>2014-11-01T10:16:32Z</time>
      </trkpt>
      <trkpt lat="42.296730000" lon="-2.531792000">
        <ele>748.60</ele>
        <time>2014-11-01T10:16:33Z</time>
      </trkpt>
      <trkpt lat="42.296753000" lon="-2.531823000">
        <ele>748.70</ele>
        <time>2014-11-01T10:16:34Z</time>
      </trkpt>
      <trkpt lat="42.296778000" lon="-2.531853000">
        <ele>748.80</ele>
        <time>2014-11-01T10:16:35Z</time>
      </trkpt>
      <trkpt lat="42.296799000" lon="-2.531885000">
        <ele>748.90</ele>
        <time>2014-11-01T10:16:36Z</time>
      </trkpt>
      <trkpt lat="42.296818000" lon="-2.531914000">
        <ele>749.00</ele>
        <time>2014-11-01T10:16:37Z</time>
      </trkpt>
      <trkpt lat="42.296868000" lon="-2.531956000">
        <ele>748.90</ele>
        <time>2014-11-01T10:16:39Z</time>
      </trkpt>
      <trkpt lat="42.296892000" lon="-2.531972000">
        <ele>748.90</ele>
        <time>2014-11-01T10:16:40Z</time>
      </trkpt>
      <trkpt lat="42.296919000" lon="-2.531989000">
        <ele>748.80</ele>
        <time>2014-11-01T10:16:41Z</time>
      </trkpt>
      <trkpt lat="42.296947000" lon="-2.532010000">
        <ele>748.80</ele>
        <time>2014-11-01T10:16:42Z</time>
      </trkpt>
      <trkpt lat="42.296970000" lon="-2.532038000">
        <ele>748.90</ele>
        <time>2014-11-01T10:16:43Z</time>
      </trkpt>
      <trkpt lat="42.296994000" lon="-2.532055000">
        <ele>748.90</ele>
        <time>2014-11-01T10:16:44Z</time>
      </trkpt>
      <trkpt lat="42.297019000" lon="-2.532077000">
        <ele>749.00</ele>
        <time>2014-11-01T10:16:45Z</time>
      </trkpt>
      <trkpt lat="42.297042000" lon="-2.532092000">
        <ele>749.00</ele>
        <time>2014-11-01T10:16:46Z</time>
      </trkpt>
      <trkpt lat="42.297065000" lon="-2.532111000">
        <ele>749.20</ele>
        <time>2014-11-01T10:16:47Z</time>
      </trkpt>
      <trkpt lat="42.297092000" lon="-2.532125000">
        <ele>749.30</ele>
        <time>2014-11-01T10:16:48Z</time>
      </trkpt>
      <trkpt lat="42.297122000" lon="-2.532131000">
        <ele>749.40</ele>
        <time>2014-11-01T10:16:49Z</time>
      </trkpt>
      <trkpt lat="42.297151000" lon="-2.532138000">
        <ele>749.40</ele>
        <time>2014-11-01T10:16:50Z</time>
      </trkpt>
      <trkpt lat="42.297178000" lon="-2.532147000">
        <ele>749.70</ele>
        <time>2014-11-01T10:16:51Z</time>
      </trkpt>
      <trkpt lat="42.297207000" lon="-2.532151000">
        <ele>749.90</ele>
        <time>2014-11-01T10:16:52Z</time>
      </trkpt>
      <trkpt lat="42.297233000" lon="-2.532153000">
        <ele>750.00</ele>
        <time>2014-11-01T10:16:53Z</time>
      </trkpt>
      <trkpt lat="42.297258000" lon="-2.532155000">
        <ele>750.10</ele>
        <time>2014-11-01T10:16:54Z</time>
      </trkpt>
      <trkpt lat="42.297282000" lon="-2.532157000">
        <ele>750.20</ele>
        <time>2014-11-01T10:16:55Z</time>
      </trkpt>
      <trkpt lat="42.297308000" lon="-2.532157000">
        <ele>750.30</ele>
        <time>2014-11-01T10:16:56Z</time>
      </trkpt>
      <trkpt lat="42.297336000" lon="-2.532157000">
        <ele>750.20</ele>
        <time>2014-11-01T10:16:57Z</time>
      </trkpt>
      <trkpt lat="42.297366000" lon="-2.532162000">
        <ele>750.20</ele>
        <time>2014-11-01T10:16:58Z</time>
      </trkpt>
      <trkpt lat="42.297397000" lon="-2.532169000">
        <ele>750.10</ele>
        <time>2014-11-01T10:16:59Z</time>
      </trkpt>
      <trkpt lat="42.297429000" lon="-2.532172000">
        <ele>750.00</ele>
        <time>2014-11-01T10:17:00Z</time>
      </trkpt>
      <trkpt lat="42.297465000" lon="-2.532178000">
        <ele>749.90</ele>
        <time>2014-11-01T10:17:01Z</time>
      </trkpt>
      <trkpt lat="42.297501000" lon="-2.532185000">
        <ele>749.80</ele>
        <time>2014-11-01T10:17:02Z</time>
      </trkpt>
      <trkpt lat="42.297537000" lon="-2.532194000">
        <ele>749.80</ele>
        <time>2014-11-01T10:17:03Z</time>
      </trkpt>
      <trkpt lat="42.297574000" lon="-2.532205000">
        <ele>749.80</ele>
        <time>2014-11-01T10:17:04Z</time>
      </trkpt>
      <trkpt lat="42.297614000" lon="-2.532218000">
        <ele>749.90</ele>
        <time>2014-11-01T10:17:05Z</time>
      </trkpt>
      <trkpt lat="42.297654000" lon="-2.532232000">
        <ele>750.00</ele>
        <time>2014-11-01T10:17:06Z</time>
      </trkpt>
      <trkpt lat="42.297695000" lon="-2.532244000">
        <ele>750.10</ele>
        <time>2014-11-01T10:17:07Z</time>
      </trkpt>
      <trkpt lat="42.297737000" lon="-2.532260000">
        <ele>750.20</ele>
        <time>2014-11-01T10:17:08Z</time>
      </trkpt>
      <trkpt lat="42.297776000" lon="-2.532272000">
        <ele>750.20</ele>
        <time>2014-11-01T10:17:09Z</time>
      </trkpt>
      <trkpt lat="42.297818000" lon="-2.532287000">
        <ele>750.20</ele>
        <time>2014-11-01T10:17:10Z</time>
      </trkpt>
      <trkpt lat="42.297857000" lon="-2.532298000">
        <ele>750.30</ele>
        <time>2014-11-01T10:17:11Z</time>
      </trkpt>
      <trkpt lat="42.297898000" lon="-2.532308000">
        <ele>750.30</ele>
        <time>2014-11-01T10:17:12Z</time>
      </trkpt>
      <trkpt lat="42.297940000" lon="-2.532316000">
        <ele>750.30</ele>
        <time>2014-11-01T10:17:13Z</time>
      </trkpt>
      <trkpt lat="42.297984000" lon="-2.532325000">
        <ele>750.30</ele>
        <time>2014-11-01T10:17:14Z</time>
      </trkpt>
      <trkpt lat="42.298027000" lon="-2.532338000">
        <ele>750.40</ele>
        <time>2014-11-01T10:17:15Z</time>
      </trkpt>
      <trkpt lat="42.298069000" lon="-2.532357000">
        <ele>750.40</ele>
        <time>2014-11-01T10:17:16Z</time>
      </trkpt>
      <trkpt lat="42.298109000" lon="-2.532376000">
        <ele>750.50</ele>
        <time>2014-11-01T10:17:17Z</time>
      </trkpt>
      <trkpt lat="42.298149000" lon="-2.532400000">
        <ele>750.50</ele>
        <time>2014-11-01T10:17:18Z</time>
      </trkpt>
      <trkpt lat="42.298187000" lon="-2.532426000">
        <ele>750.40</ele>
        <time>2014-11-01T10:17:19Z</time>
      </trkpt>
      <trkpt lat="42.298223000" lon="-2.532455000">
        <ele>750.30</ele>
        <time>2014-11-01T10:17:20Z</time>
      </trkpt>
      <trkpt lat="42.298258000" lon="-2.532488000">
        <ele>750.20</ele>
        <time>2014-11-01T10:17:21Z</time>
      </trkpt>
      <trkpt lat="42.298295000" lon="-2.532523000">
        <ele>750.20</ele>
        <time>2014-11-01T10:17:22Z</time>
      </trkpt>
      <trkpt lat="42.298327000" lon="-2.532558000">
        <ele>750.20</ele>
        <time>2014-11-01T10:17:23Z</time>
      </trkpt>
      <trkpt lat="42.298360000" lon="-2.532592000">
        <ele>750.10</ele>
        <time>2014-11-01T10:17:24Z</time>
      </trkpt>
      <trkpt lat="42.298393000" lon="-2.532630000">
        <ele>750.10</ele>
        <time>2014-11-01T10:17:25Z</time>
      </trkpt>
      <trkpt lat="42.298424000" lon="-2.532666000">
        <ele>750.10</ele>
        <time>2014-11-01T10:17:26Z</time>
      </trkpt>
      <trkpt lat="42.298456000" lon="-2.532706000">
        <ele>750.10</ele>
        <time>2014-11-01T10:17:27Z</time>
      </trkpt>
      <trkpt lat="42.298490000" lon="-2.532749000">
        <ele>750.10</ele>
        <time>2014-11-01T10:17:28Z</time>
      </trkpt>
      <trkpt lat="42.298520000" lon="-2.532792000">
        <ele>750.10</ele>
        <time>2014-11-01T10:17:29Z</time>
      </trkpt>
      <trkpt lat="42.298547000" lon="-2.532835000">
        <ele>750.10</ele>
        <time>2014-11-01T10:17:30Z</time>
      </trkpt>
      <trkpt lat="42.298575000" lon="-2.532880000">
        <ele>750.30</ele>
        <time>2014-11-01T10:17:31Z</time>
      </trkpt>
      <trkpt lat="42.298602000" lon="-2.532928000">
        <ele>750.40</ele>
        <time>2014-11-01T10:17:32Z</time>
      </trkpt>
      <trkpt lat="42.298631000" lon="-2.532975000">
        <ele>750.50</ele>
        <time>2014-11-01T10:17:33Z</time>
      </trkpt>
      <trkpt lat="42.298659000" lon="-2.533020000">
        <ele>750.60</ele>
        <time>2014-11-01T10:17:34Z</time>
      </trkpt>
      <trkpt lat="42.298686000" lon="-2.533066000">
        <ele>750.70</ele>
        <time>2014-11-01T10:17:35Z</time>
      </trkpt>
      <trkpt lat="42.298713000" lon="-2.533114000">
        <ele>750.70</ele>
        <time>2014-11-01T10:17:36Z</time>
      </trkpt>
      <trkpt lat="42.298742000" lon="-2.533161000">
        <ele>751.00</ele>
        <time>2014-11-01T10:17:37Z</time>
      </trkpt>
      <trkpt lat="42.298767000" lon="-2.533210000">
        <ele>751.20</ele>
        <time>2014-11-01T10:17:38Z</time>
      </trkpt>
      <trkpt lat="42.298823000" lon="-2.533301000">
        <ele>751.50</ele>
        <time>2014-11-01T10:17:40Z</time>
      </trkpt>
      <trkpt lat="42.298848000" lon="-2.533352000">
        <ele>751.30</ele>
        <time>2014-11-01T10:17:41Z</time>
      </trkpt>
      <trkpt lat="42.298874000" lon="-2.533404000">
        <ele>751.10</ele>
        <time>2014-11-01T10:17:42Z</time>
      </trkpt>
      <trkpt lat="42.298901000" lon="-2.533455000">
        <ele>751.00</ele>
        <time>2014-11-01T10:17:43Z</time>
      </trkpt>
      <trkpt lat="42.298931000" lon="-2.533504000">
        <ele>750.90</ele>
        <time>2014-11-01T10:17:44Z</time>
      </trkpt>
      <trkpt lat="42.298966000" lon="-2.533551000">
        <ele>750.90</ele>
        <time>2014-11-01T10:17:45Z</time>
      </trkpt>
      <trkpt lat="42.299003000" lon="-2.533595000">
        <ele>750.90</ele>
        <time>2014-11-01T10:17:46Z</time>
      </trkpt>
      <trkpt lat="42.299043000" lon="-2.533634000">
        <ele>751.20</ele>
        <time>2014-11-01T10:17:47Z</time>
      </trkpt>
      <trkpt lat="42.299087000" lon="-2.533664000">
        <ele>751.50</ele>
        <time>2014-11-01T10:17:48Z</time>
      </trkpt>
      <trkpt lat="42.299130000" lon="-2.533687000">
        <ele>751.60</ele>
        <time>2014-11-01T10:17:49Z</time>
      </trkpt>
      <trkpt lat="42.299178000" lon="-2.533707000">
        <ele>751.80</ele>
        <time>2014-11-01T10:17:50Z</time>
      </trkpt>
      <trkpt lat="42.299228000" lon="-2.533721000">
        <ele>751.90</ele>
        <time>2014-11-01T10:17:51Z</time>
      </trkpt>
      <trkpt lat="42.299276000" lon="-2.533725000">
        <ele>752.00</ele>
        <time>2014-11-01T10:17:52Z</time>
      </trkpt>
      <trkpt lat="42.299326000" lon="-2.533722000">
        <ele>751.80</ele>
        <time>2014-11-01T10:17:53Z</time>
      </trkpt>
      <trkpt lat="42.299375000" lon="-2.533713000">
        <ele>751.70</ele>
        <time>2014-11-01T10:17:54Z</time>
      </trkpt>
      <trkpt lat="42.299426000" lon="-2.533700000">
        <ele>751.80</ele>
        <time>2014-11-01T10:17:55Z</time>
      </trkpt>
      <trkpt lat="42.299477000" lon="-2.533687000">
        <ele>751.80</ele>
        <time>2014-11-01T10:17:56Z</time>
      </trkpt>
      <trkpt lat="42.299528000" lon="-2.533674000">
        <ele>751.70</ele>
        <time>2014-11-01T10:17:57Z</time>
      </trkpt>
      <trkpt lat="42.299580000" lon="-2.533665000">
        <ele>751.60</ele>
        <time>2014-11-01T10:17:58Z</time>
      </trkpt>
      <trkpt lat="42.299632000" lon="-2.533658000">
        <ele>751.60</ele>
        <time>2014-11-01T10:17:59Z</time>
      </trkpt>
      <trkpt lat="42.299682000" lon="-2.533661000">
        <ele>751.50</ele>
        <time>2014-11-01T10:18:00Z</time>
      </trkpt>
      <trkpt lat="42.299731000" lon="-2.533673000">
        <ele>751.50</ele>
        <time>2014-11-01T10:18:01Z</time>
      </trkpt>
      <trkpt lat="42.299781000" lon="-2.533696000">
        <ele>751.50</ele>
        <time>2014-11-01T10:18:02Z</time>
      </trkpt>
      <trkpt lat="42.299833000" lon="-2.533717000">
        <ele>751.40</ele>
        <time>2014-11-01T10:18:03Z</time>
      </trkpt>
      <trkpt lat="42.299887000" lon="-2.533740000">
        <ele>751.40</ele>
        <time>2014-11-01T10:18:04Z</time>
      </trkpt>
      <trkpt lat="42.299939000" lon="-2.533768000">
        <ele>751.40</ele>
        <time>2014-11-01T10:18:05Z</time>
      </trkpt>
      <trkpt lat="42.299989000" lon="-2.533800000">
        <ele>751.30</ele>
        <time>2014-11-01T10:18:06Z</time>
      </trkpt>
      <trkpt lat="42.300040000" lon="-2.533833000">
        <ele>751.30</ele>
        <time>2014-11-01T10:18:07Z</time>
      </trkpt>
      <trkpt lat="42.300092000" lon="-2.533866000">
        <ele>751.20</ele>
        <time>2014-11-01T10:18:08Z</time>
      </trkpt>
      <trkpt lat="42.300144000" lon="-2.533900000">
        <ele>751.10</ele>
        <time>2014-11-01T10:18:09Z</time>
      </trkpt>
      <trkpt lat="42.300195000" lon="-2.533936000">
        <ele>751.10</ele>
        <time>2014-11-01T10:18:10Z</time>
      </trkpt>
      <trkpt lat="42.300245000" lon="-2.533978000">
        <ele>751.00</ele>
        <time>2014-11-01T10:18:11Z</time>
      </trkpt>
      <trkpt lat="42.300292000" lon="-2.534028000">
        <ele>751.00</ele>
        <time>2014-11-01T10:18:12Z</time>
      </trkpt>
      <trkpt lat="42.300337000" lon="-2.534083000">
        <ele>750.70</ele>
        <time>2014-11-01T10:18:13Z</time>
      </trkpt>
      <trkpt lat="42.300384000" lon="-2.534142000">
        <ele>750.50</ele>
        <time>2014-11-01T10:18:14Z</time>
      </trkpt>
      <trkpt lat="42.300425000" lon="-2.534206000">
        <ele>750.20</ele>
        <time>2014-11-01T10:18:15Z</time>
      </trkpt>
      <trkpt lat="42.300466000" lon="-2.534272000">
        <ele>750.10</ele>
        <time>2014-11-01T10:18:16Z</time>
      </trkpt>
      <trkpt lat="42.300505000" lon="-2.534338000">
        <ele>749.90</ele>
        <time>2014-11-01T10:18:17Z</time>
      </trkpt>
      <trkpt lat="42.300546000" lon="-2.534404000">
        <ele>749.80</ele>
        <time>2014-11-01T10:18:18Z</time>
      </trkpt>
      <trkpt lat="42.300590000" lon="-2.534465000">
        <ele>749.60</ele>
        <time>2014-11-01T10:18:19Z</time>
      </trkpt>
      <trkpt lat="42.300631000" lon="-2.534517000">
        <ele>749.50</ele>
        <time>2014-11-01T10:18:20Z</time>
      </trkpt>
      <trkpt lat="42.300677000" lon="-2.534572000">
        <ele>749.30</ele>
        <time>2014-11-01T10:18:21Z</time>
      </trkpt>
      <trkpt lat="42.300731000" lon="-2.534622000">
        <ele>749.20</ele>
        <time>2014-11-01T10:18:22Z</time>
      </trkpt>
      <trkpt lat="42.300786000" lon="-2.534667000">
        <ele>749.10</ele>
        <time>2014-11-01T10:18:23Z</time>
      </trkpt>
      <trkpt lat="42.300850000" lon="-2.534699000">
        <ele>749.10</ele>
        <time>2014-11-01T10:18:24Z</time>
      </trkpt>
      <trkpt lat="42.300923000" lon="-2.534719000">
        <ele>748.70</ele>
        <time>2014-11-01T10:18:25Z</time>
      </trkpt>
      <trkpt lat="42.300997000" lon="-2.534733000">
        <ele>748.50</ele>
        <time>2014-11-01T10:18:26Z</time>
      </trkpt>
      <trkpt lat="42.301071000" lon="-2.534740000">
        <ele>748.10</ele>
        <time>2014-11-01T10:18:27Z</time>
      </trkpt>
      <trkpt lat="42.301143000" lon="-2.534741000">
        <ele>747.90</ele>
        <time>2014-11-01T10:18:28Z</time>
      </trkpt>
      <trkpt lat="42.301217000" lon="-2.534738000">
        <ele>747.50</ele>
        <time>2014-11-01T10:18:29Z</time>
      </trkpt>
      <trkpt lat="42.301287000" lon="-2.534735000">
        <ele>747.20</ele>
        <time>2014-11-01T10:18:30Z</time>
      </trkpt>
      <trkpt lat="42.301354000" lon="-2.534729000">
        <ele>746.90</ele>
        <time>2014-11-01T10:18:31Z</time>
      </trkpt>
      <trkpt lat="42.301420000" lon="-2.534728000">
        <ele>746.70</ele>
        <time>2014-11-01T10:18:32Z</time>
      </trkpt>
      <trkpt lat="42.301485000" lon="-2.534728000">
        <ele>746.60</ele>
        <time>2014-11-01T10:18:33Z</time>
      </trkpt>
      <trkpt lat="42.301547000" lon="-2.534733000">
        <ele>746.40</ele>
        <time>2014-11-01T10:18:34Z</time>
      </trkpt>
      <trkpt lat="42.301606000" lon="-2.534745000">
        <ele>746.50</ele>
        <time>2014-11-01T10:18:35Z</time>
      </trkpt>
      <trkpt lat="42.301664000" lon="-2.534763000">
        <ele>746.50</ele>
        <time>2014-11-01T10:18:36Z</time>
      </trkpt>
      <trkpt lat="42.301720000" lon="-2.534781000">
        <ele>746.50</ele>
        <time>2014-11-01T10:18:37Z</time>
      </trkpt>
      <trkpt lat="42.301773000" lon="-2.534800000">
        <ele>746.50</ele>
        <time>2014-11-01T10:18:38Z</time>
      </trkpt>
      <trkpt lat="42.301826000" lon="-2.534820000">
        <ele>746.30</ele>
        <time>2014-11-01T10:18:39Z</time>
      </trkpt>
      <trkpt lat="42.301933000" lon="-2.534863000">
        <ele>745.90</ele>
        <time>2014-11-01T10:18:41Z</time>
      </trkpt>
      <trkpt lat="42.301987000" lon="-2.534880000">
        <ele>745.80</ele>
        <time>2014-11-01T10:18:42Z</time>
      </trkpt>
      <trkpt lat="42.302042000" lon="-2.534898000">
        <ele>745.80</ele>
        <time>2014-11-01T10:18:43Z</time>
      </trkpt>
      <trkpt lat="42.302098000" lon="-2.534916000">
        <ele>745.70</ele>
        <time>2014-11-01T10:18:44Z</time>
      </trkpt>
      <trkpt lat="42.302154000" lon="-2.534934000">
        <ele>745.80</ele>
        <time>2014-11-01T10:18:45Z</time>
      </trkpt>
      <trkpt lat="42.302211000" lon="-2.534945000">
        <ele>745.90</ele>
        <time>2014-11-01T10:18:46Z</time>
      </trkpt>
      <trkpt lat="42.302264000" lon="-2.534954000">
        <ele>745.90</ele>
        <time>2014-11-01T10:18:47Z</time>
      </trkpt>
      <trkpt lat="42.302319000" lon="-2.534961000">
        <ele>746.00</ele>
        <time>2014-11-01T10:18:48Z</time>
      </trkpt>
      <trkpt lat="42.302373000" lon="-2.534970000">
        <ele>746.00</ele>
        <time>2014-11-01T10:18:49Z</time>
      </trkpt>
      <trkpt lat="42.302426000" lon="-2.534983000">
        <ele>746.00</ele>
        <time>2014-11-01T10:18:50Z</time>
      </trkpt>
      <trkpt lat="42.302478000" lon="-2.535000000">
        <ele>746.10</ele>
        <time>2014-11-01T10:18:51Z</time>
      </trkpt>
      <trkpt lat="42.302531000" lon="-2.535019000">
        <ele>746.20</ele>
        <time>2014-11-01T10:18:52Z</time>
      </trkpt>
      <trkpt lat="42.302585000" lon="-2.535040000">
        <ele>746.10</ele>
        <time>2014-11-01T10:18:53Z</time>
      </trkpt>
      <trkpt lat="42.302639000" lon="-2.535063000">
        <ele>746.00</ele>
        <time>2014-11-01T10:18:54Z</time>
      </trkpt>
      <trkpt lat="42.302691000" lon="-2.535084000">
        <ele>746.20</ele>
        <time>2014-11-01T10:18:55Z</time>
      </trkpt>
      <trkpt lat="42.302744000" lon="-2.535102000">
        <ele>746.40</ele>
        <time>2014-11-01T10:18:56Z</time>
      </trkpt>
      <trkpt lat="42.302799000" lon="-2.535120000">
        <ele>746.20</ele>
        <time>2014-11-01T10:18:57Z</time>
      </trkpt>
      <trkpt lat="42.302853000" lon="-2.535135000">
        <ele>746.10</ele>
        <time>2014-11-01T10:18:58Z</time>
      </trkpt>
      <trkpt lat="42.302908000" lon="-2.535145000">
        <ele>746.00</ele>
        <time>2014-11-01T10:18:59Z</time>
      </trkpt>
      <trkpt lat="42.302965000" lon="-2.535150000">
        <ele>746.00</ele>
        <time>2014-11-01T10:19:00Z</time>
      </trkpt>
      <trkpt lat="42.303022000" lon="-2.535155000">
        <ele>745.90</ele>
        <time>2014-11-01T10:19:01Z</time>
      </trkpt>
      <trkpt lat="42.303079000" lon="-2.535155000">
        <ele>745.90</ele>
        <time>2014-11-01T10:19:02Z</time>
      </trkpt>
      <trkpt lat="42.303137000" lon="-2.535151000">
        <ele>746.10</ele>
        <time>2014-11-01T10:19:03Z</time>
      </trkpt>
      <trkpt lat="42.303196000" lon="-2.535148000">
        <ele>746.30</ele>
        <time>2014-11-01T10:19:04Z</time>
      </trkpt>
      <trkpt lat="42.303255000" lon="-2.535142000">
        <ele>746.40</ele>
        <time>2014-11-01T10:19:05Z</time>
      </trkpt>
      <trkpt lat="42.303315000" lon="-2.535142000">
        <ele>746.50</ele>
        <time>2014-11-01T10:19:06Z</time>
      </trkpt>
      <trkpt lat="42.303375000" lon="-2.535145000">
        <ele>746.50</ele>
        <time>2014-11-01T10:19:07Z</time>
      </trkpt>
      <trkpt lat="42.303433000" lon="-2.535154000">
        <ele>746.50</ele>
        <time>2014-11-01T10:19:08Z</time>
      </trkpt>
      <trkpt lat="42.303492000" lon="-2.535169000">
        <ele>746.50</ele>
        <time>2014-11-01T10:19:09Z</time>
      </trkpt>
      <trkpt lat="42.303547000" lon="-2.535189000">
        <ele>746.50</ele>
        <time>2014-11-01T10:19:10Z</time>
      </trkpt>
      <trkpt lat="42.303602000" lon="-2.535213000">
        <ele>746.40</ele>
        <time>2014-11-01T10:19:11Z</time>
      </trkpt>
      <trkpt lat="42.303654000" lon="-2.535242000">
        <ele>746.40</ele>
        <time>2014-11-01T10:19:12Z</time>
      </trkpt>
      <trkpt lat="42.303706000" lon="-2.535276000">
        <ele>746.20</ele>
        <time>2014-11-01T10:19:13Z</time>
      </trkpt>
      <trkpt lat="42.303760000" lon="-2.535313000">
        <ele>746.00</ele>
        <time>2014-11-01T10:19:14Z</time>
      </trkpt>
      <trkpt lat="42.303810000" lon="-2.535354000">
        <ele>745.90</ele>
        <time>2014-11-01T10:19:15Z</time>
      </trkpt>
      <trkpt lat="42.303857000" lon="-2.535391000">
        <ele>745.80</ele>
        <time>2014-11-01T10:19:16Z</time>
      </trkpt>
      <trkpt lat="42.303901000" lon="-2.535435000">
        <ele>745.70</ele>
        <time>2014-11-01T10:19:17Z</time>
      </trkpt>
      <trkpt lat="42.303939000" lon="-2.535483000">
        <ele>745.60</ele>
        <time>2014-11-01T10:19:18Z</time>
      </trkpt>
      <trkpt lat="42.303971000" lon="-2.535535000">
        <ele>745.60</ele>
        <time>2014-11-01T10:19:19Z</time>
      </trkpt>
      <trkpt lat="42.303998000" lon="-2.535587000">
        <ele>745.60</ele>
        <time>2014-11-01T10:19:20Z</time>
      </trkpt>
      <trkpt lat="42.304025000" lon="-2.535640000">
        <ele>745.50</ele>
        <time>2014-11-01T10:19:21Z</time>
      </trkpt>
      <trkpt lat="42.304051000" lon="-2.535691000">
        <ele>745.40</ele>
        <time>2014-11-01T10:19:22Z</time>
      </trkpt>
      <trkpt lat="42.304077000" lon="-2.535736000">
        <ele>745.30</ele>
        <time>2014-11-01T10:19:23Z</time>
      </trkpt>
      <trkpt lat="42.304099000" lon="-2.535778000">
        <ele>745.30</ele>
        <time>2014-11-01T10:19:24Z</time>
      </trkpt>
      <trkpt lat="42.304122000" lon="-2.535821000">
        <ele>745.30</ele>
        <time>2014-11-01T10:19:25Z</time>
      </trkpt>
      <trkpt lat="42.304142000" lon="-2.535861000">
        <ele>745.30</ele>
        <time>2014-11-01T10:19:26Z</time>
      </trkpt>
      <trkpt lat="42.304163000" lon="-2.535902000">
        <ele>745.20</ele>
        <time>2014-11-01T10:19:27Z</time>
      </trkpt>
      <trkpt lat="42.304183000" lon="-2.535938000">
        <ele>745.20</ele>
        <time>2014-11-01T10:19:28Z</time>
      </trkpt>
      <trkpt lat="42.304199000" lon="-2.535979000">
        <ele>745.30</ele>
        <time>2014-11-01T10:19:29Z</time>
      </trkpt>
      <trkpt lat="42.304216000" lon="-2.536018000">
        <ele>745.30</ele>
        <time>2014-11-01T10:19:30Z</time>
      </trkpt>
      <trkpt lat="42.304227000" lon="-2.536057000">
        <ele>745.40</ele>
        <time>2014-11-01T10:19:31Z</time>
      </trkpt>
      <trkpt lat="42.304239000" lon="-2.536097000">
        <ele>745.40</ele>
        <time>2014-11-01T10:19:32Z</time>
      </trkpt>
      <trkpt lat="42.304252000" lon="-2.536134000">
        <ele>745.40</ele>
        <time>2014-11-01T10:19:33Z</time>
      </trkpt>
      <trkpt lat="42.304265000" lon="-2.536166000">
        <ele>745.40</ele>
        <time>2014-11-01T10:19:34Z</time>
      </trkpt>
      <trkpt lat="42.304279000" lon="-2.536194000">
        <ele>745.50</ele>
        <time>2014-11-01T10:19:35Z</time>
      </trkpt>
      <trkpt lat="42.304288000" lon="-2.536216000">
        <ele>745.60</ele>
        <time>2014-11-01T10:19:36Z</time>
      </trkpt>
      <trkpt lat="42.304295000" lon="-2.536234000">
        <ele>745.50</ele>
        <time>2014-11-01T10:19:37Z</time>
      </trkpt>
      <trkpt lat="42.304304000" lon="-2.536246000">
        <ele>745.50</ele>
        <time>2014-11-01T10:19:38Z</time>
      </trkpt>
      <trkpt lat="42.304313000" lon="-2.536256000">
        <ele>745.50</ele>
        <time>2014-11-01T10:19:39Z</time>
      </trkpt>
      <trkpt lat="42.304321000" lon="-2.536266000">
        <ele>745.50</ele>
        <time>2014-11-01T10:19:40Z</time>
      </trkpt>
      <trkpt lat="42.304345000" lon="-2.536274000">
        <ele>745.50</ele>
        <time>2014-11-01T10:19:42Z</time>
      </trkpt>
      <trkpt lat="42.304356000" lon="-2.536278000">
        <ele>745.50</ele>
        <time>2014-11-01T10:19:43Z</time>
      </trkpt>
      <trkpt lat="42.304368000" lon="-2.536279000">
        <ele>745.50</ele>
        <time>2014-11-01T10:19:44Z</time>
      </trkpt>
      <trkpt lat="42.304380000" lon="-2.536278000">
        <ele>745.40</ele>
        <time>2014-11-01T10:19:45Z</time>
      </trkpt>
      <trkpt lat="42.304393000" lon="-2.536273000">
        <ele>745.30</ele>
        <time>2014-11-01T10:19:46Z</time>
      </trkpt>
      <trkpt lat="42.304410000" lon="-2.536265000">
        <ele>745.30</ele>
        <time>2014-11-01T10:19:47Z</time>
      </trkpt>
      <trkpt lat="42.304426000" lon="-2.536247000">
        <ele>745.20</ele>
        <time>2014-11-01T10:19:48Z</time>
      </trkpt>
      <trkpt lat="42.304443000" lon="-2.536228000">
        <ele>745.00</ele>
        <time>2014-11-01T10:19:49Z</time>
      </trkpt>
      <trkpt lat="42.304462000" lon="-2.536213000">
        <ele>744.80</ele>
        <time>2014-11-01T10:19:50Z</time>
      </trkpt>
      <trkpt lat="42.304481000" lon="-2.536194000">
        <ele>744.70</ele>
        <time>2014-11-01T10:19:51Z</time>
      </trkpt>
      <trkpt lat="42.304505000" lon="-2.536177000">
        <ele>744.60</ele>
        <time>2014-11-01T10:19:52Z</time>
      </trkpt>
      <trkpt lat="42.304528000" lon="-2.536157000">
        <ele>744.40</ele>
        <time>2014-11-01T10:19:53Z</time>
      </trkpt>
      <trkpt lat="42.304560000" lon="-2.536128000">
        <ele>744.20</ele>
        <time>2014-11-01T10:19:54Z</time>
      </trkpt>
      <trkpt lat="42.304597000" lon="-2.536093000">
        <ele>743.80</ele>
        <time>2014-11-01T10:19:55Z</time>
      </trkpt>
      <trkpt lat="42.304641000" lon="-2.536047000">
        <ele>743.50</ele>
        <time>2014-11-01T10:19:56Z</time>
      </trkpt>
      <trkpt lat="42.304691000" lon="-2.536002000">
        <ele>743.30</ele>
        <time>2014-11-01T10:19:57Z</time>
      </trkpt>
      <trkpt lat="42.304732000" lon="-2.535962000">
        <ele>743.20</ele>
        <time>2014-11-01T10:19:58Z</time>
      </trkpt>
      <trkpt lat="42.304771000" lon="-2.535924000">
        <ele>742.90</ele>
        <time>2014-11-01T10:19:59Z</time>
      </trkpt>
      <trkpt lat="42.304813000" lon="-2.535895000">
        <ele>742.70</ele>
        <time>2014-11-01T10:20:00Z</time>
      </trkpt>
      <trkpt lat="42.304849000" lon="-2.535867000">
        <ele>741.90</ele>
        <time>2014-11-01T10:20:01Z</time>
      </trkpt>
      <trkpt lat="42.304879000" lon="-2.535826000">
        <ele>741.30</ele>
        <time>2014-11-01T10:20:02Z</time>
      </trkpt>
      <trkpt lat="42.304909000" lon="-2.535780000">
        <ele>740.80</ele>
        <time>2014-11-01T10:20:03Z</time>
      </trkpt>
      <trkpt lat="42.304937000" lon="-2.535732000">
        <ele>740.40</ele>
        <time>2014-11-01T10:20:04Z</time>
      </trkpt>
      <trkpt lat="42.304961000" lon="-2.535674000">
        <ele>739.80</ele>
        <time>2014-11-01T10:20:05Z</time>
      </trkpt>
      <trkpt lat="42.304976000" lon="-2.535618000">
        <ele>739.40</ele>
        <time>2014-11-01T10:20:06Z</time>
      </trkpt>
      <trkpt lat="42.305003000" lon="-2.535570000">
        <ele>739.00</ele>
        <time>2014-11-01T10:20:07Z</time>
      </trkpt>
      <trkpt lat="42.305038000" lon="-2.535525000">
        <ele>738.80</ele>
        <time>2014-11-01T10:20:08Z</time>
      </trkpt>
      <trkpt lat="42.305072000" lon="-2.535485000">
        <ele>738.20</ele>
        <time>2014-11-01T10:20:09Z</time>
      </trkpt>
      <trkpt lat="42.305102000" lon="-2.535452000">
        <ele>737.80</ele>
        <time>2014-11-01T10:20:10Z</time>
      </trkpt>
      <trkpt lat="42.305128000" lon="-2.535422000">
        <ele>736.50</ele>
        <time>2014-11-01T10:20:11Z</time>
      </trkpt>
      <trkpt lat="42.305155000" lon="-2.535391000">
        <ele>735.60</ele>
        <time>2014-11-01T10:20:12Z</time>
      </trkpt>
      <trkpt lat="42.305190000" lon="-2.535363000">
        <ele>734.90</ele>
        <time>2014-11-01T10:20:13Z</time>
      </trkpt>
      <trkpt lat="42.305227000" lon="-2.535337000">
        <ele>734.40</ele>
        <time>2014-11-01T10:20:14Z</time>
      </trkpt>
      <trkpt lat="42.305269000" lon="-2.535311000">
        <ele>734.00</ele>
        <time>2014-11-01T10:20:15Z</time>
      </trkpt>
      <trkpt lat="42.305304000" lon="-2.535284000">
        <ele>733.70</ele>
        <time>2014-11-01T10:20:16Z</time>
      </trkpt>
      <trkpt lat="42.305342000" lon="-2.535266000">
        <ele>732.70</ele>
        <time>2014-11-01T10:20:17Z</time>
      </trkpt>
      <trkpt lat="42.305390000" lon="-2.535251000">
        <ele>732.00</ele>
        <time>2014-11-01T10:20:18Z</time>
      </trkpt>
      <trkpt lat="42.305434000" lon="-2.535234000">
        <ele>731.40</ele>
        <time>2014-11-01T10:20:19Z</time>
      </trkpt>
      <trkpt lat="42.305475000" lon="-2.535203000">
        <ele>731.00</ele>
        <time>2014-11-01T10:20:20Z</time>
      </trkpt>
      <trkpt lat="42.305522000" lon="-2.535181000">
        <ele>730.40</ele>
        <time>2014-11-01T10:20:21Z</time>
      </trkpt>
      <trkpt lat="42.305568000" lon="-2.535169000">
        <ele>729.90</ele>
        <time>2014-11-01T10:20:22Z</time>
      </trkpt>
      <trkpt lat="42.305612000" lon="-2.535156000">
        <ele>729.10</ele>
        <time>2014-11-01T10:20:23Z</time>
      </trkpt>
      <trkpt lat="42.305649000" lon="-2.535150000">
        <ele>728.50</ele>
        <time>2014-11-01T10:20:24Z</time>
      </trkpt>
      <trkpt lat="42.305686000" lon="-2.535145000">
        <ele>727.40</ele>
        <time>2014-11-01T10:20:25Z</time>
      </trkpt>
      <trkpt lat="42.305721000" lon="-2.535141000">
        <ele>726.60</ele>
        <time>2014-11-01T10:20:26Z</time>
      </trkpt>
      <trkpt lat="42.305757000" lon="-2.535145000">
        <ele>725.50</ele>
        <time>2014-11-01T10:20:27Z</time>
      </trkpt>
      <trkpt lat="42.305791000" lon="-2.535151000">
        <ele>724.60</ele>
        <time>2014-11-01T10:20:28Z</time>
      </trkpt>
      <trkpt lat="42.305829000" lon="-2.535164000">
        <ele>723.90</ele>
        <time>2014-11-01T10:20:29Z</time>
      </trkpt>
      <trkpt lat="42.305865000" lon="-2.535166000">
        <ele>723.40</ele>
        <time>2014-11-01T10:20:30Z</time>
      </trkpt>
      <trkpt lat="42.305905000" lon="-2.535169000">
        <ele>722.80</ele>
        <time>2014-11-01T10:20:31Z</time>
      </trkpt>
      <trkpt lat="42.305950000" lon="-2.535164000">
        <ele>722.30</ele>
        <time>2014-11-01T10:20:32Z</time>
      </trkpt>
      <trkpt lat="42.305996000" lon="-2.535156000">
        <ele>721.40</ele>
        <time>2014-11-01T10:20:33Z</time>
      </trkpt>
      <trkpt lat="42.306039000" lon="-2.535145000">
        <ele>720.80</ele>
        <time>2014-11-01T10:20:34Z</time>
      </trkpt>
      <trkpt lat="42.306075000" lon="-2.535127000">
        <ele>720.30</ele>
        <time>2014-11-01T10:20:35Z</time>
      </trkpt>
      <trkpt lat="42.306109000" lon="-2.535106000">
        <ele>720.00</ele>
        <time>2014-11-01T10:20:36Z</time>
      </trkpt>
      <trkpt lat="42.306143000" lon="-2.535082000">
        <ele>719.60</ele>
        <time>2014-11-01T10:20:37Z</time>
      </trkpt>
      <trkpt lat="42.306181000" lon="-2.535063000">
        <ele>719.30</ele>
        <time>2014-11-01T10:20:38Z</time>
      </trkpt>
      <trkpt lat="42.306227000" lon="-2.535051000">
        <ele>718.70</ele>
        <time>2014-11-01T10:20:39Z</time>
      </trkpt>
      <trkpt lat="42.306271000" lon="-2.535033000">
        <ele>718.20</ele>
        <time>2014-11-01T10:20:40Z</time>
      </trkpt>
      <trkpt lat="42.306316000" lon="-2.535014000">
        <ele>717.20</ele>
        <time>2014-11-01T10:20:41Z</time>
      </trkpt>
      <trkpt lat="42.306405000" lon="-2.534997000">
        <ele>715.90</ele>
        <time>2014-11-01T10:20:43Z</time>
      </trkpt>
      <trkpt lat="42.306448000" lon="-2.534990000">
        <ele>715.40</ele>
        <time>2014-11-01T10:20:44Z</time>
      </trkpt>
      <trkpt lat="42.306490000" lon="-2.534986000">
        <ele>715.10</ele>
        <time>2014-11-01T10:20:45Z</time>
      </trkpt>
      <trkpt lat="42.306526000" lon="-2.534984000">
        <ele>714.90</ele>
        <time>2014-11-01T10:20:46Z</time>
      </trkpt>
      <trkpt lat="42.306553000" lon="-2.534985000">
        <ele>714.30</ele>
        <time>2014-11-01T10:20:47Z</time>
      </trkpt>
      <trkpt lat="42.306580000" lon="-2.534984000">
        <ele>713.90</ele>
        <time>2014-11-01T10:20:48Z</time>
      </trkpt>
      <trkpt lat="42.306604000" lon="-2.534986000">
        <ele>713.20</ele>
        <time>2014-11-01T10:20:49Z</time>
      </trkpt>
      <trkpt lat="42.306625000" lon="-2.534985000">
        <ele>712.60</ele>
        <time>2014-11-01T10:20:50Z</time>
      </trkpt>
      <trkpt lat="42.306649000" lon="-2.534989000">
        <ele>712.10</ele>
        <time>2014-11-01T10:20:51Z</time>
      </trkpt>
      <trkpt lat="42.306671000" lon="-2.534988000">
        <ele>711.60</ele>
        <time>2014-11-01T10:20:52Z</time>
      </trkpt>
      <trkpt lat="42.306687000" lon="-2.534980000">
        <ele>711.20</ele>
        <time>2014-11-01T10:20:53Z</time>
      </trkpt>
      <trkpt lat="42.306707000" lon="-2.534974000">
        <ele>710.90</ele>
        <time>2014-11-01T10:20:54Z</time>
      </trkpt>
      <trkpt lat="42.306723000" lon="-2.534965000">
        <ele>710.60</ele>
        <time>2014-11-01T10:20:55Z</time>
      </trkpt>
      <trkpt lat="42.306737000" lon="-2.534955000">
        <ele>710.40</ele>
        <time>2014-11-01T10:20:56Z</time>
      </trkpt>
      <trkpt lat="42.306752000" lon="-2.534944000">
        <ele>710.20</ele>
        <time>2014-11-01T10:20:57Z</time>
      </trkpt>
      <trkpt lat="42.306767000" lon="-2.534936000">
        <ele>710.10</ele>
        <time>2014-11-01T10:20:58Z</time>
      </trkpt>
      <trkpt lat="42.306782000" lon="-2.534928000">
        <ele>709.90</ele>
        <time>2014-11-01T10:20:59Z</time>
      </trkpt>
      <trkpt lat="42.306797000" lon="-2.534916000">
        <ele>709.80</ele>
        <time>2014-11-01T10:21:00Z</time>
      </trkpt>
      <trkpt lat="42.306812000" lon="-2.534905000">
        <ele>709.60</ele>
        <time>2014-11-01T10:21:01Z</time>
      </trkpt>
      <trkpt lat="42.306822000" lon="-2.534892000">
        <ele>709.40</ele>
        <time>2014-11-01T10:21:02Z</time>
      </trkpt>
      <trkpt lat="42.306841000" lon="-2.534887000">
        <ele>709.00</ele>
        <time>2014-11-01T10:21:03Z</time>
      </trkpt>
      <trkpt lat="42.306864000" lon="-2.534883000">
        <ele>708.80</ele>
        <time>2014-11-01T10:21:04Z</time>
      </trkpt>
      <trkpt lat="42.306891000" lon="-2.534878000">
        <ele>708.50</ele>
        <time>2014-11-01T10:21:05Z</time>
      </trkpt>
      <trkpt lat="42.306916000" lon="-2.534869000">
        <ele>708.40</ele>
        <time>2014-11-01T10:21:06Z</time>
      </trkpt>
      <trkpt lat="42.306938000" lon="-2.534856000">
        <ele>708.20</ele>
        <time>2014-11-01T10:21:07Z</time>
      </trkpt>
      <trkpt lat="42.306956000" lon="-2.534841000">
        <ele>708.10</ele>
        <time>2014-11-01T10:21:08Z</time>
      </trkpt>
      <trkpt lat="42.306973000" lon="-2.534826000">
        <ele>707.80</ele>
        <time>2014-11-01T10:21:09Z</time>
      </trkpt>
      <trkpt lat="42.306989000" lon="-2.534816000">
        <ele>707.70</ele>
        <time>2014-11-01T10:21:10Z</time>
      </trkpt>
      <trkpt lat="42.307004000" lon="-2.534809000">
        <ele>707.30</ele>
        <time>2014-11-01T10:21:11Z</time>
      </trkpt>
      <trkpt lat="42.307017000" lon="-2.534802000">
        <ele>707.10</ele>
        <time>2014-11-01T10:21:12Z</time>
      </trkpt>
      <trkpt lat="42.307030000" lon="-2.534802000">
        <ele>706.80</ele>
        <time>2014-11-01T10:21:13Z</time>
      </trkpt>
      <trkpt lat="42.307045000" lon="-2.534794000">
        <ele>706.50</ele>
        <time>2014-11-01T10:21:14Z</time>
      </trkpt>
      <trkpt lat="42.307059000" lon="-2.534784000">
        <ele>706.20</ele>
        <time>2014-11-01T10:21:15Z</time>
      </trkpt>
      <trkpt lat="42.307075000" lon="-2.534774000">
        <ele>706.00</ele>
        <time>2014-11-01T10:21:16Z</time>
      </trkpt>
      <trkpt lat="42.307094000" lon="-2.534755000">
        <ele>705.80</ele>
        <time>2014-11-01T10:21:17Z</time>
      </trkpt>
      <trkpt lat="42.307118000" lon="-2.534727000">
        <ele>705.60</ele>
        <time>2014-11-01T10:21:18Z</time>
      </trkpt>
      <trkpt lat="42.307152000" lon="-2.534705000">
        <ele>705.30</ele>
        <time>2014-11-01T10:21:19Z</time>
      </trkpt>
      <trkpt lat="42.307185000" lon="-2.534677000">
        <ele>705.10</ele>
        <time>2014-11-01T10:21:20Z</time>
      </trkpt>
      <trkpt lat="42.307220000" lon="-2.534657000">
        <ele>704.80</ele>
        <time>2014-11-01T10:21:21Z</time>
      </trkpt>
      <trkpt lat="42.307254000" lon="-2.534638000">
        <ele>704.60</ele>
        <time>2014-11-01T10:21:22Z</time>
      </trkpt>
      <trkpt lat="42.307289000" lon="-2.534621000">
        <ele>704.40</ele>
        <time>2014-11-01T10:21:23Z</time>
      </trkpt>
      <trkpt lat="42.307322000" lon="-2.534606000">
        <ele>704.30</ele>
        <time>2014-11-01T10:21:24Z</time>
      </trkpt>
      <trkpt lat="42.307350000" lon="-2.534586000">
        <ele>703.60</ele>
        <time>2014-11-01T10:21:25Z</time>
      </trkpt>
      <trkpt lat="42.307376000" lon="-2.534566000">
        <ele>703.10</ele>
        <time>2014-11-01T10:21:26Z</time>
      </trkpt>
      <trkpt lat="42.307387000" lon="-2.534535000">
        <ele>702.30</ele>
        <time>2014-11-01T10:21:27Z</time>
      </trkpt>
      <trkpt lat="42.307401000" lon="-2.534504000">
        <ele>701.70</ele>
        <time>2014-11-01T10:21:28Z</time>
      </trkpt>
      <trkpt lat="42.307411000" lon="-2.534475000">
        <ele>701.10</ele>
        <time>2014-11-01T10:21:29Z</time>
      </trkpt>
      <trkpt lat="42.307427000" lon="-2.534448000">
        <ele>700.60</ele>
        <time>2014-11-01T10:21:30Z</time>
      </trkpt>
      <trkpt lat="42.307449000" lon="-2.534438000">
        <ele>700.00</ele>
        <time>2014-11-01T10:21:31Z</time>
      </trkpt>
      <trkpt lat="42.307467000" lon="-2.534431000">
        <ele>699.60</ele>
        <time>2014-11-01T10:21:32Z</time>
      </trkpt>
      <trkpt lat="42.307485000" lon="-2.534393000">
        <ele>699.10</ele>
        <time>2014-11-01T10:21:33Z</time>
      </trkpt>
      <trkpt lat="42.307515000" lon="-2.534348000">
        <ele>698.80</ele>
        <time>2014-11-01T10:21:34Z</time>
      </trkpt>
      <trkpt lat="42.307543000" lon="-2.534328000">
        <ele>698.10</ele>
        <time>2014-11-01T10:21:35Z</time>
      </trkpt>
      <trkpt lat="42.307563000" lon="-2.534297000">
        <ele>697.70</ele>
        <time>2014-11-01T10:21:36Z</time>
      </trkpt>
      <trkpt lat="42.307573000" lon="-2.534279000">
        <ele>697.20</ele>
        <time>2014-11-01T10:21:37Z</time>
      </trkpt>
      <trkpt lat="42.307585000" lon="-2.534264000">
        <ele>696.80</ele>
        <time>2014-11-01T10:21:38Z</time>
      </trkpt>
      <trkpt lat="42.307597000" lon="-2.534248000">
        <ele>696.40</ele>
        <time>2014-11-01T10:21:39Z</time>
      </trkpt>
      <trkpt lat="42.307617000" lon="-2.534231000">
        <ele>696.10</ele>
        <time>2014-11-01T10:21:40Z</time>
      </trkpt>
      <trkpt lat="42.307648000" lon="-2.534214000">
        <ele>695.60</ele>
        <time>2014-11-01T10:21:41Z</time>
      </trkpt>
      <trkpt lat="42.307673000" lon="-2.534216000">
        <ele>695.20</ele>
        <time>2014-11-01T10:21:42Z</time>
      </trkpt>
      <trkpt lat="42.307714000" lon="-2.534217000">
        <ele>694.50</ele>
        <time>2014-11-01T10:21:44Z</time>
      </trkpt>
      <trkpt lat="42.307738000" lon="-2.534229000">
        <ele>694.00</ele>
        <time>2014-11-01T10:21:45Z</time>
      </trkpt>
      <trkpt lat="42.307771000" lon="-2.534257000">
        <ele>693.70</ele>
        <time>2014-11-01T10:21:46Z</time>
      </trkpt>
      <trkpt lat="42.307770000" lon="-2.534260000">
        <ele>693.30</ele>
        <time>2014-11-01T10:21:47Z</time>
      </trkpt>
      <trkpt lat="42.307789000" lon="-2.534251000">
        <ele>693.00</ele>
        <time>2014-11-01T10:21:48Z</time>
      </trkpt>
      <trkpt lat="42.307817000" lon="-2.534250000">
        <ele>692.60</ele>
        <time>2014-11-01T10:21:49Z</time>
      </trkpt>
      <trkpt lat="42.307848000" lon="-2.534244000">
        <ele>692.40</ele>
        <time>2014-11-01T10:21:50Z</time>
      </trkpt>
      <trkpt lat="42.307885000" lon="-2.534238000">
        <ele>691.70</ele>
        <time>2014-11-01T10:21:51Z</time>
      </trkpt>
      <trkpt lat="42.307918000" lon="-2.534253000">
        <ele>691.20</ele>
        <time>2014-11-01T10:21:52Z</time>
      </trkpt>
      <trkpt lat="42.307929000" lon="-2.534254000">
        <ele>690.50</ele>
        <time>2014-11-01T10:21:53Z</time>
      </trkpt>
      <trkpt lat="42.307931000" lon="-2.534240000">
        <ele>689.90</ele>
        <time>2014-11-01T10:21:54Z</time>
      </trkpt>
      <trkpt lat="42.307937000" lon="-2.534225000">
        <ele>689.40</ele>
        <time>2014-11-01T10:21:55Z</time>
      </trkpt>
      <trkpt lat="42.307942000" lon="-2.534204000">
        <ele>689.00</ele>
        <time>2014-11-01T10:21:56Z</time>
      </trkpt>
      <trkpt lat="42.307952000" lon="-2.534173000">
        <ele>688.70</ele>
        <time>2014-11-01T10:21:57Z</time>
      </trkpt>
      <trkpt lat="42.307962000" lon="-2.534134000">
        <ele>688.40</ele>
        <time>2014-11-01T10:21:58Z</time>
      </trkpt>
      <trkpt lat="42.307975000" lon="-2.534097000">
        <ele>688.00</ele>
        <time>2014-11-01T10:21:59Z</time>
      </trkpt>
      <trkpt lat="42.307989000" lon="-2.534059000">
        <ele>687.70</ele>
        <time>2014-11-01T10:22:00Z</time>
      </trkpt>
      <trkpt lat="42.308001000" lon="-2.534024000">
        <ele>687.40</ele>
        <time>2014-11-01T10:22:01Z</time>
      </trkpt>
      <trkpt lat="42.308013000" lon="-2.533985000">
        <ele>687.20</ele>
        <time>2014-11-01T10:22:02Z</time>
      </trkpt>
      <trkpt lat="42.308022000" lon="-2.533943000">
        <ele>687.10</ele>
        <time>2014-11-01T10:22:03Z</time>
      </trkpt>
      <trkpt lat="42.308044000" lon="-2.533909000">
        <ele>686.90</ele>
        <time>2014-11-01T10:22:04Z</time>
      </trkpt>
      <trkpt lat="42.308071000" lon="-2.533884000">
        <ele>686.80</ele>
        <time>2014-11-01T10:22:05Z</time>
      </trkpt>
      <trkpt lat="42.308098000" lon="-2.533863000">
        <ele>686.80</ele>
        <time>2014-11-01T10:22:06Z</time>
      </trkpt>
      <trkpt lat="42.308116000" lon="-2.533843000">
        <ele>686.60</ele>
        <time>2014-11-01T10:22:07Z</time>
      </trkpt>
      <trkpt lat="42.308131000" lon="-2.533822000">
        <ele>686.50</ele>
        <time>2014-11-01T10:22:08Z</time>
      </trkpt>
      <trkpt lat="42.308142000" lon="-2.533804000">
        <ele>686.30</ele>
        <time>2014-11-01T10:22:09Z</time>
      </trkpt>
      <trkpt lat="42.308153000" lon="-2.533794000">
        <ele>686.20</ele>
        <time>2014-11-01T10:22:10Z</time>
      </trkpt>
      <trkpt lat="42.308160000" lon="-2.533796000">
        <ele>686.10</ele>
        <time>2014-11-01T10:22:11Z</time>
      </trkpt>
      <trkpt lat="42.308161000" lon="-2.533795000">
        <ele>686.00</ele>
        <time>2014-11-01T10:22:12Z</time>
      </trkpt>
      <trkpt lat="42.308159000" lon="-2.533794000">
        <ele>685.70</ele>
        <time>2014-11-01T10:22:13Z</time>
      </trkpt>
      <trkpt lat="42.308153000" lon="-2.533795000">
        <ele>685.50</ele>
        <time>2014-11-01T10:22:14Z</time>
      </trkpt>
      <trkpt lat="42.308149000" lon="-2.533795000">
        <ele>685.40</ele>
        <time>2014-11-01T10:22:15Z</time>
      </trkpt>
      <trkpt lat="42.308150000" lon="-2.533794000">
        <ele>685.40</ele>
        <time>2014-11-01T10:22:16Z</time>
      </trkpt>
      <trkpt lat="42.308147000" lon="-2.533797000">
        <ele>685.10</ele>
        <time>2014-11-01T10:22:17Z</time>
      </trkpt>
      <trkpt lat="42.308146000" lon="-2.533799000">
        <ele>684.90</ele>
        <time>2014-11-01T10:22:18Z</time>
      </trkpt>
      <trkpt lat="42.308149000" lon="-2.533800000">
        <ele>684.80</ele>
        <time>2014-11-01T10:22:19Z</time>
      </trkpt>
      <trkpt lat="42.308155000" lon="-2.533798000">
        <ele>684.70</ele>
        <time>2014-11-01T10:22:20Z</time>
      </trkpt>
      <trkpt lat="42.308160000" lon="-2.533798000">
        <ele>684.60</ele>
        <time>2014-11-01T10:22:21Z</time>
      </trkpt>
      <trkpt lat="42.308167000" lon="-2.533798000">
        <ele>684.40</ele>
        <time>2014-11-01T10:22:22Z</time>
      </trkpt>
      <trkpt lat="42.308172000" lon="-2.533797000">
        <ele>684.30</ele>
        <time>2014-11-01T10:22:23Z</time>
      </trkpt>
      <trkpt lat="42.308177000" lon="-2.533796000">
        <ele>684.20</ele>
        <time>2014-11-01T10:22:24Z</time>
      </trkpt>
      <trkpt lat="42.308186000" lon="-2.533798000">
        <ele>684.20</ele>
        <time>2014-11-01T10:22:25Z</time>
      </trkpt>
      <trkpt lat="42.308186000" lon="-2.533801000">
        <ele>684.10</ele>
        <time>2014-11-01T10:22:26Z</time>
      </trkpt>
      <trkpt lat="42.308184000" lon="-2.533803000">
        <ele>684.00</ele>
        <time>2014-11-01T10:22:27Z</time>
      </trkpt>
      <trkpt lat="42.308180000" lon="-2.533806000">
        <ele>684.00</ele>
        <time>2014-11-01T10:22:28Z</time>
      </trkpt>
      <trkpt lat="42.308178000" lon="-2.533808000">
        <ele>684.10</ele>
        <time>2014-11-01T10:22:29Z</time>
      </trkpt>
      <trkpt lat="42.308177000" lon="-2.533808000">
        <ele>684.20</ele>
        <time>2014-11-01T10:22:30Z</time>
      </trkpt>
      <trkpt lat="42.308177000" lon="-2.533809000">
        <ele>684.20</ele>
        <time>2014-11-01T10:22:31Z</time>
      </trkpt>
      <trkpt lat="42.308176000" lon="-2.533808000">
        <ele>684.20</ele>
        <time>2014-11-01T10:22:32Z</time>
      </trkpt>
      <trkpt lat="42.308174000" lon="-2.533806000">
        <ele>684.30</ele>
        <time>2014-11-01T10:22:33Z</time>
      </trkpt>
      <trkpt lat="42.308171000" lon="-2.533804000">
        <ele>684.30</ele>
        <time>2014-11-01T10:22:34Z</time>
      </trkpt>
      <trkpt lat="42.308169000" lon="-2.533804000">
        <ele>684.30</ele>
        <time>2014-11-01T10:22:35Z</time>
      </trkpt>
      <trkpt lat="42.308167000" lon="-2.533804000">
        <ele>684.30</ele>
        <time>2014-11-01T10:22:36Z</time>
      </trkpt>
      <trkpt lat="42.308168000" lon="-2.533807000">
        <ele>684.20</ele>
        <time>2014-11-01T10:22:37Z</time>
      </trkpt>
      <trkpt lat="42.308167000" lon="-2.533812000">
        <ele>684.20</ele>
        <time>2014-11-01T10:22:38Z</time>
      </trkpt>
      <trkpt lat="42.308168000" lon="-2.533813000">
        <ele>684.20</ele>
        <time>2014-11-01T10:22:39Z</time>
      </trkpt>
      <trkpt lat="42.308168000" lon="-2.533817000">
        <ele>684.10</ele>
        <time>2014-11-01T10:22:40Z</time>
      </trkpt>
      <trkpt lat="42.308166000" lon="-2.533822000">
        <ele>684.10</ele>
        <time>2014-11-01T10:22:41Z</time>
      </trkpt>
      <trkpt lat="42.308168000" lon="-2.533822000">
        <ele>684.10</ele>
        <time>2014-11-01T10:22:42Z</time>
      </trkpt>
      <trkpt lat="42.308169000" lon="-2.533825000">
        <ele>684.00</ele>
        <time>2014-11-01T10:22:43Z</time>
      </trkpt>
      <trkpt lat="42.308173000" lon="-2.533831000">
        <ele>684.00</ele>
        <time>2014-11-01T10:22:45Z</time>
      </trkpt>
      <trkpt lat="42.308173000" lon="-2.533833000">
        <ele>684.00</ele>
        <time>2014-11-01T10:22:46Z</time>
      </trkpt>
      <trkpt lat="42.308174000" lon="-2.533833000">
        <ele>684.10</ele>
        <time>2014-11-01T10:22:47Z</time>
      </trkpt>
      <trkpt lat="42.308175000" lon="-2.533833000">
        <ele>684.10</ele>
        <time>2014-11-01T10:22:48Z</time>
      </trkpt>
      <trkpt lat="42.308175000" lon="-2.533835000">
        <ele>684.10</ele>
        <time>2014-11-01T10:22:49Z</time>
      </trkpt>
      <trkpt lat="42.308175000" lon="-2.533838000">
        <ele>684.10</ele>
        <time>2014-11-01T10:22:50Z</time>
      </trkpt>
      <trkpt lat="42.308175000" lon="-2.533840000">
        <ele>684.20</ele>
        <time>2014-11-01T10:22:51Z</time>
      </trkpt>
      <trkpt lat="42.308174000" lon="-2.533842000">
        <ele>684.20</ele>
        <time>2014-11-01T10:22:52Z</time>
      </trkpt>
      <trkpt lat="42.308174000" lon="-2.533842000">
        <ele>684.10</ele>
        <time>2014-11-01T10:22:53Z</time>
      </trkpt>
      <trkpt lat="42.308178000" lon="-2.533842000">
        <ele>684.00</ele>
        <time>2014-11-01T10:22:54Z</time>
      </trkpt>
      <trkpt lat="42.308179000" lon="-2.533838000">
        <ele>683.90</ele>
        <time>2014-11-01T10:22:55Z</time>
      </trkpt>
      <trkpt lat="42.308180000" lon="-2.533834000">
        <ele>683.90</ele>
        <time>2014-11-01T10:22:56Z</time>
      </trkpt>
      <trkpt lat="42.308179000" lon="-2.533835000">
        <ele>684.00</ele>
        <time>2014-11-01T10:22:57Z</time>
      </trkpt>
      <trkpt lat="42.308178000" lon="-2.533836000">
        <ele>684.00</ele>
        <time>2014-11-01T10:22:58Z</time>
      </trkpt>
      <trkpt lat="42.308176000" lon="-2.533837000">
        <ele>684.10</ele>
        <time>2014-11-01T10:22:59Z</time>
      </trkpt>
      <trkpt lat="42.308174000" lon="-2.533837000">
        <ele>684.10</ele>
        <time>2014-11-01T10:23:00Z</time>
      </trkpt>
      <trkpt lat="42.308171000" lon="-2.533832000">
        <ele>684.10</ele>
        <time>2014-11-01T10:23:01Z</time>
      </trkpt>
      <trkpt lat="42.308166000" lon="-2.533829000">
        <ele>684.10</ele>
        <time>2014-11-01T10:23:02Z</time>
      </trkpt>
      <trkpt lat="42.308159000" lon="-2.533826000">
        <ele>684.10</ele>
        <time>2014-11-01T10:23:03Z</time>
      </trkpt>
      <trkpt lat="42.308152000" lon="-2.533824000">
        <ele>684.00</ele>
        <time>2014-11-01T10:23:04Z</time>
      </trkpt>
      <trkpt lat="42.308145000" lon="-2.533823000">
        <ele>684.10</ele>
        <time>2014-11-01T10:23:05Z</time>
      </trkpt>
      <trkpt lat="42.308142000" lon="-2.533822000">
        <ele>684.10</ele>
        <time>2014-11-01T10:23:06Z</time>
      </trkpt>
      <trkpt lat="42.308141000" lon="-2.533821000">
        <ele>684.10</ele>
        <time>2014-11-01T10:23:07Z</time>
      </trkpt>
      <trkpt lat="42.308141000" lon="-2.533821000">
        <ele>684.00</ele>
        <time>2014-11-01T10:23:08Z</time>
      </trkpt>
      <trkpt lat="42.308140000" lon="-2.533821000">
        <ele>684.10</ele>
        <time>2014-11-01T10:23:09Z</time>
      </trkpt>
      <trkpt lat="42.308139000" lon="-2.533821000">
        <ele>684.10</ele>
        <time>2014-11-01T10:23:10Z</time>
      </trkpt>
      <trkpt lat="42.308139000" lon="-2.533822000">
        <ele>684.10</ele>
        <time>2014-11-01T10:23:11Z</time>
      </trkpt>
      <trkpt lat="42.308138000" lon="-2.533824000">
        <ele>684.10</ele>
        <time>2014-11-01T10:23:12Z</time>
      </trkpt>
      <trkpt lat="42.308137000" lon="-2.533824000">
        <ele>684.20</ele>
        <time>2014-11-01T10:23:13Z</time>
      </trkpt>
      <trkpt lat="42.308137000" lon="-2.533824000">
        <ele>684.20</ele>
        <time>2014-11-01T10:23:14Z</time>
      </trkpt>
      <trkpt lat="42.308140000" lon="-2.533824000">
        <ele>684.20</ele>
        <time>2014-11-01T10:23:15Z</time>
      </trkpt>
      <trkpt lat="42.308141000" lon="-2.533824000">
        <ele>684.20</ele>
        <time>2014-11-01T10:23:16Z</time>
      </trkpt>
      <trkpt lat="42.308141000" lon="-2.533822000">
        <ele>684.20</ele>
        <time>2014-11-01T10:23:17Z</time>
      </trkpt>
      <trkpt lat="42.308133000" lon="-2.533819000">
        <ele>684.20</ele>
        <time>2014-11-01T10:23:18Z</time>
      </trkpt>
      <trkpt lat="42.308130000" lon="-2.533813000">
        <ele>684.20</ele>
        <time>2014-11-01T10:23:19Z</time>
      </trkpt>
      <trkpt lat="42.308131000" lon="-2.533805000">
        <ele>684.20</ele>
        <time>2014-11-01T10:23:20Z</time>
      </trkpt>
      <trkpt lat="42.308132000" lon="-2.533796000">
        <ele>684.10</ele>
        <time>2014-11-01T10:23:21Z</time>
      </trkpt>
      <trkpt lat="42.308129000" lon="-2.533789000">
        <ele>684.10</ele>
        <time>2014-11-01T10:23:22Z</time>
      </trkpt>
      <trkpt lat="42.308128000" lon="-2.533783000">
        <ele>684.10</ele>
        <time>2014-11-01T10:23:23Z</time>
      </trkpt>
      <trkpt lat="42.308121000" lon="-2.533777000">
        <ele>684.10</ele>
        <time>2014-11-01T10:23:24Z</time>
      </trkpt>
      <trkpt lat="42.308121000" lon="-2.533768000">
        <ele>684.10</ele>
        <time>2014-11-01T10:23:25Z</time>
      </trkpt>
      <trkpt lat="42.308121000" lon="-2.533763000">
        <ele>684.10</ele>
        <time>2014-11-01T10:23:26Z</time>
      </trkpt>
      <trkpt lat="42.308121000" lon="-2.533755000">
        <ele>684.10</ele>
        <time>2014-11-01T10:23:27Z</time>
      </trkpt>
      <trkpt lat="42.308121000" lon="-2.533750000">
        <ele>684.20</ele>
        <time>2014-11-01T10:23:28Z</time>
      </trkpt>
      <trkpt lat="42.308122000" lon="-2.533745000">
        <ele>684.20</ele>
        <time>2014-11-01T10:23:29Z</time>
      </trkpt>
      <trkpt lat="42.308117000" lon="-2.533733000">
        <ele>684.20</ele>
        <time>2014-11-01T10:23:30Z</time>
      </trkpt>
      <trkpt lat="42.308109000" lon="-2.533715000">
        <ele>684.30</ele>
        <time>2014-11-01T10:23:31Z</time>
      </trkpt>
      <trkpt lat="42.308086000" lon="-2.533705000">
        <ele>684.40</ele>
        <time>2014-11-01T10:23:32Z</time>
      </trkpt>
      <trkpt lat="42.308075000" lon="-2.533670000">
        <ele>684.40</ele>
        <time>2014-11-01T10:23:33Z</time>
      </trkpt>
      <trkpt lat="42.308072000" lon="-2.533619000">
        <ele>684.40</ele>
        <time>2014-11-01T10:23:34Z</time>
      </trkpt>
      <trkpt lat="42.308072000" lon="-2.533569000">
        <ele>684.30</ele>
        <time>2014-11-01T10:23:35Z</time>
      </trkpt>
      <trkpt lat="42.308078000" lon="-2.533512000">
        <ele>684.30</ele>
        <time>2014-11-01T10:23:36Z</time>
      </trkpt>
      <trkpt lat="42.308085000" lon="-2.533455000">
        <ele>683.90</ele>
        <time>2014-11-01T10:23:37Z</time>
      </trkpt>
      <trkpt lat="42.308091000" lon="-2.533400000">
        <ele>683.70</ele>
        <time>2014-11-01T10:23:38Z</time>
      </trkpt>
      <trkpt lat="42.308097000" lon="-2.533346000">
        <ele>683.00</ele>
        <time>2014-11-01T10:23:39Z</time>
      </trkpt>
      <trkpt lat="42.308103000" lon="-2.533296000">
        <ele>682.60</ele>
        <time>2014-11-01T10:23:40Z</time>
      </trkpt>
      <trkpt lat="42.308104000" lon="-2.533248000">
        <ele>682.10</ele>
        <time>2014-11-01T10:23:41Z</time>
      </trkpt>
      <trkpt lat="42.308104000" lon="-2.533202000">
        <ele>681.70</ele>
        <time>2014-11-01T10:23:42Z</time>
      </trkpt>
      <trkpt lat="42.308093000" lon="-2.533158000">
        <ele>680.80</ele>
        <time>2014-11-01T10:23:43Z</time>
      </trkpt>
      <trkpt lat="42.308086000" lon="-2.533112000">
        <ele>680.10</ele>
        <time>2014-11-01T10:23:44Z</time>
      </trkpt>
      <trkpt lat="42.308125000" lon="-2.533000000">
        <ele>678.60</ele>
        <time>2014-11-01T10:23:46Z</time>
      </trkpt>
      <trkpt lat="42.308142000" lon="-2.532948000">
        <ele>678.00</ele>
        <time>2014-11-01T10:23:47Z</time>
      </trkpt>
      <trkpt lat="42.308151000" lon="-2.532898000">
        <ele>677.50</ele>
        <time>2014-11-01T10:23:48Z</time>
      </trkpt>
      <trkpt lat="42.308143000" lon="-2.532829000">
        <ele>676.80</ele>
        <time>2014-11-01T10:23:49Z</time>
      </trkpt>
      <trkpt lat="42.308127000" lon="-2.532766000">
        <ele>676.40</ele>
        <time>2014-11-01T10:23:50Z</time>
      </trkpt>
      <trkpt lat="42.308120000" lon="-2.532704000">
        <ele>675.20</ele>
        <time>2014-11-01T10:23:51Z</time>
      </trkpt>
      <trkpt lat="42.308111000" lon="-2.532640000">
        <ele>674.30</ele>
        <time>2014-11-01T10:23:52Z</time>
      </trkpt>
      <trkpt lat="42.308107000" lon="-2.532576000">
        <ele>673.40</ele>
        <time>2014-11-01T10:23:53Z</time>
      </trkpt>
      <trkpt lat="42.308099000" lon="-2.532509000">
        <ele>672.70</ele>
        <time>2014-11-01T10:23:54Z</time>
      </trkpt>
      <trkpt lat="42.308093000" lon="-2.532439000">
        <ele>671.70</ele>
        <time>2014-11-01T10:23:55Z</time>
      </trkpt>
      <trkpt lat="42.308089000" lon="-2.532364000">
        <ele>671.00</ele>
        <time>2014-11-01T10:23:56Z</time>
      </trkpt>
      <trkpt lat="42.308082000" lon="-2.532286000">
        <ele>670.20</ele>
        <time>2014-11-01T10:23:57Z</time>
      </trkpt>
      <trkpt lat="42.308075000" lon="-2.532204000">
        <ele>669.60</ele>
        <time>2014-11-01T10:23:58Z</time>
      </trkpt>
      <trkpt lat="42.308072000" lon="-2.532124000">
        <ele>668.70</ele>
        <time>2014-11-01T10:23:59Z</time>
      </trkpt>
      <trkpt lat="42.308068000" lon="-2.532045000">
        <ele>668.00</ele>
        <time>2014-11-01T10:24:00Z</time>
      </trkpt>
      <trkpt lat="42.308065000" lon="-2.531962000">
        <ele>666.90</ele>
        <time>2014-11-01T10:24:01Z</time>
      </trkpt>
      <trkpt lat="42.308059000" lon="-2.531885000">
        <ele>666.10</ele>
        <time>2014-11-01T10:24:02Z</time>
      </trkpt>
      <trkpt lat="42.308059000" lon="-2.531795000">
        <ele>664.80</ele>
        <time>2014-11-01T10:24:03Z</time>
      </trkpt>
      <trkpt lat="42.308061000" lon="-2.531692000">
        <ele>663.70</ele>
        <time>2014-11-01T10:24:04Z</time>
      </trkpt>
      <trkpt lat="42.308063000" lon="-2.531581000">
        <ele>662.80</ele>
        <time>2014-11-01T10:24:05Z</time>
      </trkpt>
      <trkpt lat="42.308065000" lon="-2.531462000">
        <ele>662.10</ele>
        <time>2014-11-01T10:24:06Z</time>
      </trkpt>
      <trkpt lat="42.308072000" lon="-2.531336000">
        <ele>661.50</ele>
        <time>2014-11-01T10:24:07Z</time>
      </trkpt>
      <trkpt lat="42.308076000" lon="-2.531206000">
        <ele>661.10</ele>
        <time>2014-11-01T10:24:08Z</time>
      </trkpt>
      <trkpt lat="42.308077000" lon="-2.531078000">
        <ele>659.40</ele>
        <time>2014-11-01T10:24:09Z</time>
      </trkpt>
      <trkpt lat="42.308074000" lon="-2.530957000">
        <ele>658.20</ele>
        <time>2014-11-01T10:24:10Z</time>
      </trkpt>
      <trkpt lat="42.308065000" lon="-2.530842000">
        <ele>656.70</ele>
        <time>2014-11-01T10:24:11Z</time>
      </trkpt>
      <trkpt lat="42.308053000" lon="-2.530732000">
        <ele>655.60</ele>
        <time>2014-11-01T10:24:12Z</time>
      </trkpt>
      <trkpt lat="42.308037000" lon="-2.530624000">
        <ele>654.30</ele>
        <time>2014-11-01T10:24:13Z</time>
      </trkpt>
      <trkpt lat="42.308022000" lon="-2.530521000">
        <ele>653.40</ele>
        <time>2014-11-01T10:24:14Z</time>
      </trkpt>
      <trkpt lat="42.308004000" lon="-2.530422000">
        <ele>652.50</ele>
        <time>2014-11-01T10:24:15Z</time>
      </trkpt>
      <trkpt lat="42.307982000" lon="-2.530332000">
        <ele>651.70</ele>
        <time>2014-11-01T10:24:16Z</time>
      </trkpt>
      <trkpt lat="42.307960000" lon="-2.530255000">
        <ele>650.20</ele>
        <time>2014-11-01T10:24:17Z</time>
      </trkpt>
      <trkpt lat="42.307938000" lon="-2.530182000">
        <ele>649.00</ele>
        <time>2014-11-01T10:24:18Z</time>
      </trkpt>
      <trkpt lat="42.307923000" lon="-2.530115000">
        <ele>647.80</ele>
        <time>2014-11-01T10:24:19Z</time>
      </trkpt>
      <trkpt lat="42.307917000" lon="-2.530053000">
        <ele>647.00</ele>
        <time>2014-11-01T10:24:20Z</time>
      </trkpt>
      <trkpt lat="42.307924000" lon="-2.529990000">
        <ele>646.10</ele>
        <time>2014-11-01T10:24:21Z</time>
      </trkpt>
      <trkpt lat="42.307937000" lon="-2.529923000">
        <ele>645.40</ele>
        <time>2014-11-01T10:24:22Z</time>
      </trkpt>
      <trkpt lat="42.307960000" lon="-2.529860000">
        <ele>644.70</ele>
        <time>2014-11-01T10:24:23Z</time>
      </trkpt>
      <trkpt lat="42.307994000" lon="-2.529817000">
        <ele>644.20</ele>
        <time>2014-11-01T10:24:24Z</time>
      </trkpt>
      <trkpt lat="42.308027000" lon="-2.529774000">
        <ele>643.50</ele>
        <time>2014-11-01T10:24:25Z</time>
      </trkpt>
      <trkpt lat="42.308060000" lon="-2.529732000">
        <ele>643.10</ele>
        <time>2014-11-01T10:24:26Z</time>
      </trkpt>
      <trkpt lat="42.308088000" lon="-2.529696000">
        <ele>642.40</ele>
        <time>2014-11-01T10:24:27Z</time>
      </trkpt>
      <trkpt lat="42.308122000" lon="-2.529668000">
        <ele>641.90</ele>
        <time>2014-11-01T10:24:28Z</time>
      </trkpt>
      <trkpt lat="42.308148000" lon="-2.529643000">
        <ele>641.40</ele>
        <time>2014-11-01T10:24:29Z</time>
      </trkpt>
      <trkpt lat="42.308175000" lon="-2.529633000">
        <ele>641.10</ele>
        <time>2014-11-01T10:24:30Z</time>
      </trkpt>
      <trkpt lat="42.308204000" lon="-2.529630000">
        <ele>640.80</ele>
        <time>2014-11-01T10:24:31Z</time>
      </trkpt>
      <trkpt lat="42.308235000" lon="-2.529628000">
        <ele>640.50</ele>
        <time>2014-11-01T10:24:32Z</time>
      </trkpt>
      <trkpt lat="42.308262000" lon="-2.529624000">
        <ele>640.40</ele>
        <time>2014-11-01T10:24:33Z</time>
      </trkpt>
      <trkpt lat="42.308287000" lon="-2.529630000">
        <ele>640.20</ele>
        <time>2014-11-01T10:24:34Z</time>
      </trkpt>
      <trkpt lat="42.308318000" lon="-2.529632000">
        <ele>640.10</ele>
        <time>2014-11-01T10:24:35Z</time>
      </trkpt>
      <trkpt lat="42.308347000" lon="-2.529636000">
        <ele>639.90</ele>
        <time>2014-11-01T10:24:36Z</time>
      </trkpt>
      <trkpt lat="42.308374000" lon="-2.529637000">
        <ele>639.70</ele>
        <time>2014-11-01T10:24:37Z</time>
      </trkpt>
      <trkpt lat="42.308404000" lon="-2.529633000">
        <ele>639.60</ele>
        <time>2014-11-01T10:24:38Z</time>
      </trkpt>
      <trkpt lat="42.308433000" lon="-2.529629000">
        <ele>639.40</ele>
        <time>2014-11-01T10:24:39Z</time>
      </trkpt>
      <trkpt lat="42.308455000" lon="-2.529621000">
        <ele>639.20</ele>
        <time>2014-11-01T10:24:40Z</time>
      </trkpt>
      <trkpt lat="42.308488000" lon="-2.529611000">
        <ele>639.10</ele>
        <time>2014-11-01T10:24:41Z</time>
      </trkpt>
      <trkpt lat="42.308521000" lon="-2.529599000">
        <ele>639.00</ele>
        <time>2014-11-01T10:24:42Z</time>
      </trkpt>
      <trkpt lat="42.308554000" lon="-2.529581000">
        <ele>639.00</ele>
        <time>2014-11-01T10:24:43Z</time>
      </trkpt>
      <trkpt lat="42.308588000" lon="-2.529560000">
        <ele>639.00</ele>
        <time>2014-11-01T10:24:44Z</time>
      </trkpt>
      <trkpt lat="42.308622000" lon="-2.529534000">
        <ele>639.20</ele>
        <time>2014-11-01T10:24:45Z</time>
      </trkpt>
      <trkpt lat="42.308697000" lon="-2.529470000">
        <ele>639.50</ele>
        <time>2014-11-01T10:24:47Z</time>
      </trkpt>
      <trkpt lat="42.308734000" lon="-2.529431000">
        <ele>639.60</ele>
        <time>2014-11-01T10:24:48Z</time>
      </trkpt>
      <trkpt lat="42.308769000" lon="-2.529383000">
        <ele>639.70</ele>
        <time>2014-11-01T10:24:49Z</time>
      </trkpt>
      <trkpt lat="42.308801000" lon="-2.529336000">
        <ele>639.80</ele>
        <time>2014-11-01T10:24:50Z</time>
      </trkpt>
      <trkpt lat="42.308838000" lon="-2.529292000">
        <ele>639.50</ele>
        <time>2014-11-01T10:24:51Z</time>
      </trkpt>
      <trkpt lat="42.308874000" lon="-2.529239000">
        <ele>639.40</ele>
        <time>2014-11-01T10:24:52Z</time>
      </trkpt>
      <trkpt lat="42.308912000" lon="-2.529189000">
        <ele>639.20</ele>
        <time>2014-11-01T10:24:53Z</time>
      </trkpt>
      <trkpt lat="42.308955000" lon="-2.529144000">
        <ele>639.20</ele>
        <time>2014-11-01T10:24:54Z</time>
      </trkpt>
      <trkpt lat="42.309001000" lon="-2.529108000">
        <ele>639.10</ele>
        <time>2014-11-01T10:24:55Z</time>
      </trkpt>
      <trkpt lat="42.309047000" lon="-2.529075000">
        <ele>639.00</ele>
        <time>2014-11-01T10:24:56Z</time>
      </trkpt>
      <trkpt lat="42.309094000" lon="-2.529040000">
        <ele>639.00</ele>
        <time>2014-11-01T10:24:57Z</time>
      </trkpt>
      <trkpt lat="42.309143000" lon="-2.529007000">
        <ele>639.00</ele>
        <time>2014-11-01T10:24:58Z</time>
      </trkpt>
      <trkpt lat="42.309193000" lon="-2.528966000">
        <ele>638.90</ele>
        <time>2014-11-01T10:24:59Z</time>
      </trkpt>
      <trkpt lat="42.309246000" lon="-2.528929000">
        <ele>638.90</ele>
        <time>2014-11-01T10:25:00Z</time>
      </trkpt>
      <trkpt lat="42.309303000" lon="-2.528890000">
        <ele>638.60</ele>
        <time>2014-11-01T10:25:01Z</time>
      </trkpt>
      <trkpt lat="42.309360000" lon="-2.528848000">
        <ele>638.30</ele>
        <time>2014-11-01T10:25:02Z</time>
      </trkpt>
      <trkpt lat="42.309417000" lon="-2.528804000">
        <ele>637.50</ele>
        <time>2014-11-01T10:25:03Z</time>
      </trkpt>
      <trkpt lat="42.309476000" lon="-2.528756000">
        <ele>637.00</ele>
        <time>2014-11-01T10:25:04Z</time>
      </trkpt>
      <trkpt lat="42.309537000" lon="-2.528703000">
        <ele>635.90</ele>
        <time>2014-11-01T10:25:05Z</time>
      </trkpt>
      <trkpt lat="42.309599000" lon="-2.528651000">
        <ele>635.10</ele>
        <time>2014-11-01T10:25:06Z</time>
      </trkpt>
      <trkpt lat="42.309661000" lon="-2.528595000">
        <ele>634.20</ele>
        <time>2014-11-01T10:25:07Z</time>
      </trkpt>
      <trkpt lat="42.309721000" lon="-2.528531000">
        <ele>633.60</ele>
        <time>2014-11-01T10:25:08Z</time>
      </trkpt>
      <trkpt lat="42.309785000" lon="-2.528470000">
        <ele>633.40</ele>
        <time>2014-11-01T10:25:09Z</time>
      </trkpt>
      <trkpt lat="42.309848000" lon="-2.528402000">
        <ele>633.20</ele>
        <time>2014-11-01T10:25:10Z</time>
      </trkpt>
      <trkpt lat="42.309911000" lon="-2.528331000">
        <ele>632.80</ele>
        <time>2014-11-01T10:25:11Z</time>
      </trkpt>
      <trkpt lat="42.309971000" lon="-2.528252000">
        <ele>632.50</ele>
        <time>2014-11-01T10:25:12Z</time>
      </trkpt>
      <trkpt lat="42.310029000" lon="-2.528183000">
        <ele>631.60</ele>
        <time>2014-11-01T10:25:13Z</time>
      </trkpt>
      <trkpt lat="42.310087000" lon="-2.528125000">
        <ele>630.80</ele>
        <time>2014-11-01T10:25:14Z</time>
      </trkpt>
      <trkpt lat="42.310127000" lon="-2.528075000">
        <ele>630.10</ele>
        <time>2014-11-01T10:25:15Z</time>
      </trkpt>
      <trkpt lat="42.310161000" lon="-2.528024000">
        <ele>629.50</ele>
        <time>2014-11-01T10:25:16Z</time>
      </trkpt>
      <trkpt lat="42.310195000" lon="-2.527992000">
        <ele>629.10</ele>
        <time>2014-11-01T10:25:17Z</time>
      </trkpt>
      <trkpt lat="42.310232000" lon="-2.527979000">
        <ele>628.80</ele>
        <time>2014-11-01T10:25:18Z</time>
      </trkpt>
      <trkpt lat="42.310271000" lon="-2.527979000">
        <ele>628.20</ele>
        <time>2014-11-01T10:25:19Z</time>
      </trkpt>
      <trkpt lat="42.310323000" lon="-2.527958000">
        <ele>627.70</ele>
        <time>2014-11-01T10:25:20Z</time>
      </trkpt>
      <trkpt lat="42.310372000" lon="-2.527914000">
        <ele>626.90</ele>
        <time>2014-11-01T10:25:21Z</time>
      </trkpt>
      <trkpt lat="42.310424000" lon="-2.527884000">
        <ele>626.30</ele>
        <time>2014-11-01T10:25:22Z</time>
      </trkpt>
      <trkpt lat="42.310478000" lon="-2.527870000">
        <ele>625.80</ele>
        <time>2014-11-01T10:25:23Z</time>
      </trkpt>
      <trkpt lat="42.310528000" lon="-2.527869000">
        <ele>625.50</ele>
        <time>2014-11-01T10:25:24Z</time>
      </trkpt>
      <trkpt lat="42.310583000" lon="-2.527867000">
        <ele>625.00</ele>
        <time>2014-11-01T10:25:25Z</time>
      </trkpt>
      <trkpt lat="42.310637000" lon="-2.527839000">
        <ele>624.60</ele>
        <time>2014-11-01T10:25:26Z</time>
      </trkpt>
      <trkpt lat="42.310687000" lon="-2.527794000">
        <ele>624.00</ele>
        <time>2014-11-01T10:25:27Z</time>
      </trkpt>
      <trkpt lat="42.310743000" lon="-2.527754000">
        <ele>623.50</ele>
        <time>2014-11-01T10:25:28Z</time>
      </trkpt>
      <trkpt lat="42.310809000" lon="-2.527732000">
        <ele>622.70</ele>
        <time>2014-11-01T10:25:29Z</time>
      </trkpt>
      <trkpt lat="42.310869000" lon="-2.527725000">
        <ele>622.00</ele>
        <time>2014-11-01T10:25:30Z</time>
      </trkpt>
      <trkpt lat="42.310927000" lon="-2.527708000">
        <ele>621.50</ele>
        <time>2014-11-01T10:25:31Z</time>
      </trkpt>
      <trkpt lat="42.310984000" lon="-2.527684000">
        <ele>621.20</ele>
        <time>2014-11-01T10:25:32Z</time>
      </trkpt>
      <trkpt lat="42.311034000" lon="-2.527659000">
        <ele>620.90</ele>
        <time>2014-11-01T10:25:33Z</time>
      </trkpt>
      <trkpt lat="42.311081000" lon="-2.527625000">
        <ele>620.70</ele>
        <time>2014-11-01T10:25:34Z</time>
      </trkpt>
      <trkpt lat="42.311128000" lon="-2.527589000">
        <ele>620.30</ele>
        <time>2014-11-01T10:25:35Z</time>
      </trkpt>
      <trkpt lat="42.311175000" lon="-2.527544000">
        <ele>620.10</ele>
        <time>2014-11-01T10:25:36Z</time>
      </trkpt>
      <trkpt lat="42.311222000" lon="-2.527501000">
        <ele>619.60</ele>
        <time>2014-11-01T10:25:37Z</time>
      </trkpt>
      <trkpt lat="42.311265000" lon="-2.527466000">
        <ele>619.30</ele>
        <time>2014-11-01T10:25:38Z</time>
      </trkpt>
      <trkpt lat="42.311316000" lon="-2.527446000">
        <ele>618.60</ele>
        <time>2014-11-01T10:25:39Z</time>
      </trkpt>
      <trkpt lat="42.311370000" lon="-2.527442000">
        <ele>618.10</ele>
        <time>2014-11-01T10:25:40Z</time>
      </trkpt>
      <trkpt lat="42.311430000" lon="-2.527449000">
        <ele>617.60</ele>
        <time>2014-11-01T10:25:41Z</time>
      </trkpt>
      <trkpt lat="42.311487000" lon="-2.527447000">
        <ele>617.20</ele>
        <time>2014-11-01T10:25:42Z</time>
      </trkpt>
      <trkpt lat="42.311542000" lon="-2.527439000">
        <ele>616.80</ele>
        <time>2014-11-01T10:25:43Z</time>
      </trkpt>
      <trkpt lat="42.311594000" lon="-2.527425000">
        <ele>616.50</ele>
        <time>2014-11-01T10:25:44Z</time>
      </trkpt>
      <trkpt lat="42.311645000" lon="-2.527403000">
        <ele>615.50</ele>
        <time>2014-11-01T10:25:45Z</time>
      </trkpt>
      <trkpt lat="42.311694000" lon="-2.527364000">
        <ele>614.80</ele>
        <time>2014-11-01T10:25:46Z</time>
      </trkpt>
      <trkpt lat="42.311804000" lon="-2.527301000">
        <ele>613.80</ele>
        <time>2014-11-01T10:25:48Z</time>
      </trkpt>
      <trkpt lat="42.311864000" lon="-2.527287000">
        <ele>613.20</ele>
        <time>2014-11-01T10:25:49Z</time>
      </trkpt>
      <trkpt lat="42.311925000" lon="-2.527272000">
        <ele>612.70</ele>
        <time>2014-11-01T10:25:50Z</time>
      </trkpt>
      <trkpt lat="42.311999000" lon="-2.527263000">
        <ele>612.20</ele>
        <time>2014-11-01T10:25:51Z</time>
      </trkpt>
      <trkpt lat="42.312065000" lon="-2.527255000">
        <ele>611.80</ele>
        <time>2014-11-01T10:25:52Z</time>
      </trkpt>
      <trkpt lat="42.312133000" lon="-2.527247000">
        <ele>611.20</ele>
        <time>2014-11-01T10:25:53Z</time>
      </trkpt>
      <trkpt lat="42.312202000" lon="-2.527235000">
        <ele>610.70</ele>
        <time>2014-11-01T10:25:54Z</time>
      </trkpt>
      <trkpt lat="42.312278000" lon="-2.527231000">
        <ele>610.20</ele>
        <time>2014-11-01T10:25:55Z</time>
      </trkpt>
      <trkpt lat="42.312356000" lon="-2.527226000">
        <ele>609.80</ele>
        <time>2014-11-01T10:25:56Z</time>
      </trkpt>
      <trkpt lat="42.312437000" lon="-2.527215000">
        <ele>609.50</ele>
        <time>2014-11-01T10:25:57Z</time>
      </trkpt>
      <trkpt lat="42.312511000" lon="-2.527203000">
        <ele>609.30</ele>
        <time>2014-11-01T10:25:58Z</time>
      </trkpt>
      <trkpt lat="42.312578000" lon="-2.527199000">
        <ele>608.00</ele>
        <time>2014-11-01T10:25:59Z</time>
      </trkpt>
      <trkpt lat="42.312639000" lon="-2.527199000">
        <ele>607.10</ele>
        <time>2014-11-01T10:26:00Z</time>
      </trkpt>
      <trkpt lat="42.312706000" lon="-2.527203000">
        <ele>606.40</ele>
        <time>2014-11-01T10:26:01Z</time>
      </trkpt>
      <trkpt lat="42.312771000" lon="-2.527202000">
        <ele>605.80</ele>
        <time>2014-11-01T10:26:02Z</time>
      </trkpt>
      <trkpt lat="42.312835000" lon="-2.527192000">
        <ele>604.90</ele>
        <time>2014-11-01T10:26:03Z</time>
      </trkpt>
      <trkpt lat="42.312898000" lon="-2.527178000">
        <ele>604.30</ele>
        <time>2014-11-01T10:26:04Z</time>
      </trkpt>
      <trkpt lat="42.312954000" lon="-2.527175000">
        <ele>603.50</ele>
        <time>2014-11-01T10:26:05Z</time>
      </trkpt>
      <trkpt lat="42.313005000" lon="-2.527161000">
        <ele>602.90</ele>
        <time>2014-11-01T10:26:06Z</time>
      </trkpt>
      <trkpt lat="42.313060000" lon="-2.527133000">
        <ele>602.30</ele>
        <time>2014-11-01T10:26:07Z</time>
      </trkpt>
      <trkpt lat="42.313120000" lon="-2.527115000">
        <ele>601.90</ele>
        <time>2014-11-01T10:26:08Z</time>
      </trkpt>
      <trkpt lat="42.313175000" lon="-2.527089000">
        <ele>601.50</ele>
        <time>2014-11-01T10:26:09Z</time>
      </trkpt>
      <trkpt lat="42.313237000" lon="-2.527066000">
        <ele>601.10</ele>
        <time>2014-11-01T10:26:10Z</time>
      </trkpt>
      <trkpt lat="42.313302000" lon="-2.527051000">
        <ele>599.80</ele>
        <time>2014-11-01T10:26:11Z</time>
      </trkpt>
      <trkpt lat="42.313369000" lon="-2.527042000">
        <ele>598.90</ele>
        <time>2014-11-01T10:26:12Z</time>
      </trkpt>
      <trkpt lat="42.313432000" lon="-2.527040000">
        <ele>598.10</ele>
        <time>2014-11-01T10:26:13Z</time>
      </trkpt>
      <trkpt lat="42.313498000" lon="-2.527034000">
        <ele>597.60</ele>
        <time>2014-11-01T10:26:14Z</time>
      </trkpt>
      <trkpt lat="42.313555000" lon="-2.527043000">
        <ele>597.20</ele>
        <time>2014-11-01T10:26:15Z</time>
      </trkpt>
      <trkpt lat="42.313606000" lon="-2.527050000">
        <ele>596.90</ele>
        <time>2014-11-01T10:26:16Z</time>
      </trkpt>
      <trkpt lat="42.313652000" lon="-2.527054000">
        <ele>596.40</ele>
        <time>2014-11-01T10:26:17Z</time>
      </trkpt>
      <trkpt lat="42.313695000" lon="-2.527052000">
        <ele>596.00</ele>
        <time>2014-11-01T10:26:18Z</time>
      </trkpt>
      <trkpt lat="42.313731000" lon="-2.527051000">
        <ele>595.50</ele>
        <time>2014-11-01T10:26:19Z</time>
      </trkpt>
      <trkpt lat="42.313763000" lon="-2.527045000">
        <ele>595.20</ele>
        <time>2014-11-01T10:26:20Z</time>
      </trkpt>
      <trkpt lat="42.313789000" lon="-2.527036000">
        <ele>594.80</ele>
        <time>2014-11-01T10:26:21Z</time>
      </trkpt>
      <trkpt lat="42.313810000" lon="-2.527033000">
        <ele>594.60</ele>
        <time>2014-11-01T10:26:22Z</time>
      </trkpt>
      <trkpt lat="42.313829000" lon="-2.527031000">
        <ele>594.30</ele>
        <time>2014-11-01T10:26:23Z</time>
      </trkpt>
      <trkpt lat="42.313850000" lon="-2.527041000">
        <ele>594.00</ele>
        <time>2014-11-01T10:26:24Z</time>
      </trkpt>
      <trkpt lat="42.313868000" lon="-2.527062000">
        <ele>593.70</ele>
        <time>2014-11-01T10:26:25Z</time>
      </trkpt>
      <trkpt lat="42.313885000" lon="-2.527086000">
        <ele>593.40</ele>
        <time>2014-11-01T10:26:26Z</time>
      </trkpt>
      <trkpt lat="42.313896000" lon="-2.527112000">
        <ele>593.10</ele>
        <time>2014-11-01T10:26:27Z</time>
      </trkpt>
      <trkpt lat="42.313895000" lon="-2.527129000">
        <ele>592.90</ele>
        <time>2014-11-01T10:26:28Z</time>
      </trkpt>
      <trkpt lat="42.313899000" lon="-2.527129000">
        <ele>592.70</ele>
        <time>2014-11-01T10:26:29Z</time>
      </trkpt>
      <trkpt lat="42.313897000" lon="-2.527131000">
        <ele>592.00</ele>
        <time>2014-11-01T10:26:31Z</time>
      </trkpt>
      <trkpt lat="42.313899000" lon="-2.527135000">
        <ele>590.00</ele>
        <time>2014-11-01T10:26:35Z</time>
      </trkpt>
      <trkpt lat="42.313905000" lon="-2.527131000">
        <ele>590.00</ele>
        <time>2014-11-01T10:26:39Z</time>
      </trkpt>
      <trkpt lat="42.313913000" lon="-2.527129000">
        <ele>590.00</ele>
        <time>2014-11-01T10:26:43Z</time>
      </trkpt>
      <trkpt lat="42.313916000" lon="-2.527126000">
        <ele>590.00</ele>
        <time>2014-11-01T10:26:47Z</time>
      </trkpt>
      <trkpt lat="42.313920000" lon="-2.527128000">
        <ele>590.00</ele>
        <time>2014-11-01T10:26:55Z</time>
      </trkpt>
      <trkpt lat="42.313921000" lon="-2.527125000">
        <ele>590.00</ele>
        <time>2014-11-01T10:26:59Z</time>
      </trkpt>
      <trkpt lat="42.313921000" lon="-2.527125000">
        <ele>590.00</ele>
        <time>2014-11-01T10:27:03Z</time>
      </trkpt>
      <trkpt lat="42.313919000" lon="-2.527127000">
        <ele>590.00</ele>
        <time>2014-11-01T10:27:07Z</time>
      </trkpt>
      <trkpt lat="42.313916000" lon="-2.527130000">
        <ele>591.00</ele>
        <time>2014-11-01T10:27:11Z</time>
      </trkpt>
      <trkpt lat="42.313912000" lon="-2.527135000">
        <ele>590.00</ele>
        <time>2014-11-01T10:27:15Z</time>
      </trkpt>
      <trkpt lat="42.313911000" lon="-2.527139000">
        <ele>590.70</ele>
        <time>2014-11-01T10:27:18Z</time>
      </trkpt>
      <trkpt lat="42.313914000" lon="-2.527168000">
        <ele>590.70</ele>
        <time>2014-11-01T10:27:19Z</time>
      </trkpt>
      <trkpt lat="42.313920000" lon="-2.527202000">
        <ele>590.70</ele>
        <time>2014-11-01T10:27:20Z</time>
      </trkpt>
      <trkpt lat="42.313927000" lon="-2.527236000">
        <ele>590.60</ele>
        <time>2014-11-01T10:27:21Z</time>
      </trkpt>
      <trkpt lat="42.313937000" lon="-2.527278000">
        <ele>590.60</ele>
        <time>2014-11-01T10:27:22Z</time>
      </trkpt>
      <trkpt lat="42.313951000" lon="-2.527322000">
        <ele>590.50</ele>
        <time>2014-11-01T10:27:23Z</time>
      </trkpt>
      <trkpt lat="42.313966000" lon="-2.527366000">
        <ele>590.40</ele>
        <time>2014-11-01T10:27:24Z</time>
      </trkpt>
      <trkpt lat="42.313988000" lon="-2.527409000">
        <ele>590.10</ele>
        <time>2014-11-01T10:27:25Z</time>
      </trkpt>
      <trkpt lat="42.314018000" lon="-2.527453000">
        <ele>589.90</ele>
        <time>2014-11-01T10:27:26Z</time>
      </trkpt>
      <trkpt lat="42.314056000" lon="-2.527496000">
        <ele>589.70</ele>
        <time>2014-11-01T10:27:27Z</time>
      </trkpt>
      <trkpt lat="42.314098000" lon="-2.527523000">
        <ele>589.60</ele>
        <time>2014-11-01T10:27:28Z</time>
      </trkpt>
      <trkpt lat="42.314144000" lon="-2.527523000">
        <ele>589.40</ele>
        <time>2014-11-01T10:27:29Z</time>
      </trkpt>
      <trkpt lat="42.314193000" lon="-2.527515000">
        <ele>589.20</ele>
        <time>2014-11-01T10:27:30Z</time>
      </trkpt>
      <trkpt lat="42.314239000" lon="-2.527508000">
        <ele>589.10</ele>
        <time>2014-11-01T10:27:31Z</time>
      </trkpt>
      <trkpt lat="42.314286000" lon="-2.527497000">
        <ele>589.00</ele>
        <time>2014-11-01T10:27:32Z</time>
      </trkpt>
      <trkpt lat="42.314333000" lon="-2.527485000">
        <ele>588.60</ele>
        <time>2014-11-01T10:27:33Z</time>
      </trkpt>
      <trkpt lat="42.314384000" lon="-2.527475000">
        <ele>588.30</ele>
        <time>2014-11-01T10:27:34Z</time>
      </trkpt>
      <trkpt lat="42.314446000" lon="-2.527464000">
        <ele>588.40</ele>
        <time>2014-11-01T10:27:35Z</time>
      </trkpt>
      <trkpt lat="42.314479000" lon="-2.527437000">
        <ele>588.50</ele>
        <time>2014-11-01T10:27:36Z</time>
      </trkpt>
      <trkpt lat="42.314505000" lon="-2.527414000">
        <ele>588.60</ele>
        <time>2014-11-01T10:27:37Z</time>
      </trkpt>
      <trkpt lat="42.314522000" lon="-2.527385000">
        <ele>588.70</ele>
        <time>2014-11-01T10:27:38Z</time>
      </trkpt>
      <trkpt lat="42.314543000" lon="-2.527348000">
        <ele>588.90</ele>
        <time>2014-11-01T10:27:39Z</time>
      </trkpt>
      <trkpt lat="42.314563000" lon="-2.527314000">
        <ele>589.00</ele>
        <time>2014-11-01T10:27:40Z</time>
      </trkpt>
      <trkpt lat="42.314583000" lon="-2.527275000">
        <ele>589.20</ele>
        <time>2014-11-01T10:27:41Z</time>
      </trkpt>
      <trkpt lat="42.314604000" lon="-2.527237000">
        <ele>589.20</ele>
        <time>2014-11-01T10:27:42Z</time>
      </trkpt>
      <trkpt lat="42.314635000" lon="-2.527201000">
        <ele>589.40</ele>
        <time>2014-11-01T10:27:43Z</time>
      </trkpt>
      <trkpt lat="42.314677000" lon="-2.527153000">
        <ele>589.60</ele>
        <time>2014-11-01T10:27:44Z</time>
      </trkpt>
      <trkpt lat="42.314719000" lon="-2.527104000">
        <ele>589.70</ele>
        <time>2014-11-01T10:27:45Z</time>
      </trkpt>
      <trkpt lat="42.314764000" lon="-2.527051000">
        <ele>589.80</ele>
        <time>2014-11-01T10:27:46Z</time>
      </trkpt>
      <trkpt lat="42.314813000" lon="-2.526995000">
        <ele>589.80</ele>
        <time>2014-11-01T10:27:47Z</time>
      </trkpt>
      <trkpt lat="42.314863000" lon="-2.526936000">
        <ele>589.80</ele>
        <time>2014-11-01T10:27:48Z</time>
      </trkpt>
      <trkpt lat="42.314916000" lon="-2.526875000">
        <ele>589.80</ele>
        <time>2014-11-01T10:27:49Z</time>
      </trkpt>
      <trkpt lat="42.314963000" lon="-2.526811000">
        <ele>589.80</ele>
        <time>2014-11-01T10:27:50Z</time>
      </trkpt>
      <trkpt lat="42.315013000" lon="-2.526753000">
        <ele>590.00</ele>
        <time>2014-11-01T10:27:51Z</time>
      </trkpt>
      <trkpt lat="42.315114000" lon="-2.526633000">
        <ele>590.40</ele>
        <time>2014-11-01T10:27:53Z</time>
      </trkpt>
      <trkpt lat="42.315163000" lon="-2.526576000">
        <ele>590.50</ele>
        <time>2014-11-01T10:27:54Z</time>
      </trkpt>
      <trkpt lat="42.315211000" lon="-2.526522000">
        <ele>590.70</ele>
        <time>2014-11-01T10:27:55Z</time>
      </trkpt>
      <trkpt lat="42.315260000" lon="-2.526472000">
        <ele>590.80</ele>
        <time>2014-11-01T10:27:56Z</time>
      </trkpt>
      <trkpt lat="42.315310000" lon="-2.526418000">
        <ele>590.80</ele>
        <time>2014-11-01T10:27:57Z</time>
      </trkpt>
      <trkpt lat="42.315360000" lon="-2.526369000">
        <ele>590.80</ele>
        <time>2014-11-01T10:27:58Z</time>
      </trkpt>
      <trkpt lat="42.315407000" lon="-2.526325000">
        <ele>590.80</ele>
        <time>2014-11-01T10:27:59Z</time>
      </trkpt>
      <trkpt lat="42.315445000" lon="-2.526276000">
        <ele>590.80</ele>
        <time>2014-11-01T10:28:00Z</time>
      </trkpt>
      <trkpt lat="42.315488000" lon="-2.526230000">
        <ele>590.70</ele>
        <time>2014-11-01T10:28:01Z</time>
      </trkpt>
      <trkpt lat="42.315537000" lon="-2.526191000">
        <ele>590.70</ele>
        <time>2014-11-01T10:28:02Z</time>
      </trkpt>
      <trkpt lat="42.315575000" lon="-2.526147000">
        <ele>590.50</ele>
        <time>2014-11-01T10:28:03Z</time>
      </trkpt>
      <trkpt lat="42.315607000" lon="-2.526103000">
        <ele>590.40</ele>
        <time>2014-11-01T10:28:04Z</time>
      </trkpt>
      <trkpt lat="42.315635000" lon="-2.526062000">
        <ele>590.40</ele>
        <time>2014-11-01T10:28:05Z</time>
      </trkpt>
      <trkpt lat="42.315669000" lon="-2.526023000">
        <ele>590.40</ele>
        <time>2014-11-01T10:28:06Z</time>
      </trkpt>
      <trkpt lat="42.315765000" lon="-2.525944000">
        <ele>590.00</ele>
        <time>2014-11-01T10:28:08Z</time>
      </trkpt>
      <trkpt lat="42.315876000" lon="-2.525881000">
        <ele>590.00</ele>
        <time>2014-11-01T10:28:11Z</time>
      </trkpt>
      <trkpt lat="42.315922000" lon="-2.525867000">
        <ele>589.90</ele>
        <time>2014-11-01T10:28:12Z</time>
      </trkpt>
      <trkpt lat="42.315957000" lon="-2.525854000">
        <ele>589.80</ele>
        <time>2014-11-01T10:28:13Z</time>
      </trkpt>
      <trkpt lat="42.315999000" lon="-2.525837000">
        <ele>589.80</ele>
        <time>2014-11-01T10:28:14Z</time>
      </trkpt>
      <trkpt lat="42.316040000" lon="-2.525820000">
        <ele>589.70</ele>
        <time>2014-11-01T10:28:15Z</time>
      </trkpt>
      <trkpt lat="42.316082000" lon="-2.525801000">
        <ele>589.70</ele>
        <time>2014-11-01T10:28:16Z</time>
      </trkpt>
      <trkpt lat="42.316125000" lon="-2.525786000">
        <ele>589.70</ele>
        <time>2014-11-01T10:28:17Z</time>
      </trkpt>
      <trkpt lat="42.316166000" lon="-2.525768000">
        <ele>589.60</ele>
        <time>2014-11-01T10:28:18Z</time>
      </trkpt>
      <trkpt lat="42.316202000" lon="-2.525748000">
        <ele>589.60</ele>
        <time>2014-11-01T10:28:19Z</time>
      </trkpt>
      <trkpt lat="42.316228000" lon="-2.525726000">
        <ele>589.60</ele>
        <time>2014-11-01T10:28:20Z</time>
      </trkpt>
      <trkpt lat="42.316258000" lon="-2.525706000">
        <ele>589.60</ele>
        <time>2014-11-01T10:28:21Z</time>
      </trkpt>
      <trkpt lat="42.316288000" lon="-2.525685000">
        <ele>589.70</ele>
        <time>2014-11-01T10:28:22Z</time>
      </trkpt>
      <trkpt lat="42.316321000" lon="-2.525659000">
        <ele>589.70</ele>
        <time>2014-11-01T10:28:23Z</time>
      </trkpt>
      <trkpt lat="42.316356000" lon="-2.525629000">
        <ele>589.70</ele>
        <time>2014-11-01T10:28:24Z</time>
      </trkpt>
      <trkpt lat="42.316388000" lon="-2.525591000">
        <ele>589.60</ele>
        <time>2014-11-01T10:28:25Z</time>
      </trkpt>
      <trkpt lat="42.316422000" lon="-2.525547000">
        <ele>589.60</ele>
        <time>2014-11-01T10:28:26Z</time>
      </trkpt>
      <trkpt lat="42.316455000" lon="-2.525506000">
        <ele>589.60</ele>
        <time>2014-11-01T10:28:27Z</time>
      </trkpt>
      <trkpt lat="42.316485000" lon="-2.525464000">
        <ele>589.50</ele>
        <time>2014-11-01T10:28:28Z</time>
      </trkpt>
      <trkpt lat="42.316517000" lon="-2.525421000">
        <ele>589.50</ele>
        <time>2014-11-01T10:28:29Z</time>
      </trkpt>
      <trkpt lat="42.316549000" lon="-2.525379000">
        <ele>589.40</ele>
        <time>2014-11-01T10:28:30Z</time>
      </trkpt>
      <trkpt lat="42.316577000" lon="-2.525334000">
        <ele>589.30</ele>
        <time>2014-11-01T10:28:31Z</time>
      </trkpt>
      <trkpt lat="42.316604000" lon="-2.525287000">
        <ele>589.20</ele>
        <time>2014-11-01T10:28:32Z</time>
      </trkpt>
      <trkpt lat="42.316633000" lon="-2.525240000">
        <ele>589.20</ele>
        <time>2014-11-01T10:28:33Z</time>
      </trkpt>
      <trkpt lat="42.316667000" lon="-2.525197000">
        <ele>589.10</ele>
        <time>2014-11-01T10:28:34Z</time>
      </trkpt>
      <trkpt lat="42.316696000" lon="-2.525154000">
        <ele>589.10</ele>
        <time>2014-11-01T10:28:35Z</time>
      </trkpt>
      <trkpt lat="42.316732000" lon="-2.525112000">
        <ele>588.90</ele>
        <time>2014-11-01T10:28:36Z</time>
      </trkpt>
      <trkpt lat="42.316771000" lon="-2.525071000">
        <ele>588.70</ele>
        <time>2014-11-01T10:28:37Z</time>
      </trkpt>
      <trkpt lat="42.316813000" lon="-2.525032000">
        <ele>588.60</ele>
        <time>2014-11-01T10:28:38Z</time>
      </trkpt>
      <trkpt lat="42.316850000" lon="-2.524992000">
        <ele>588.50</ele>
        <time>2014-11-01T10:28:39Z</time>
      </trkpt>
      <trkpt lat="42.316890000" lon="-2.524953000">
        <ele>588.60</ele>
        <time>2014-11-01T10:28:40Z</time>
      </trkpt>
      <trkpt lat="42.316924000" lon="-2.524911000">
        <ele>588.60</ele>
        <time>2014-11-01T10:28:41Z</time>
      </trkpt>
      <trkpt lat="42.316970000" lon="-2.524884000">
        <ele>588.70</ele>
        <time>2014-11-01T10:28:42Z</time>
      </trkpt>
      <trkpt lat="42.317011000" lon="-2.524848000">
        <ele>588.70</ele>
        <time>2014-11-01T10:28:43Z</time>
      </trkpt>
      <trkpt lat="42.317054000" lon="-2.524813000">
        <ele>588.60</ele>
        <time>2014-11-01T10:28:44Z</time>
      </trkpt>
      <trkpt lat="42.317093000" lon="-2.524776000">
        <ele>588.50</ele>
        <time>2014-11-01T10:28:45Z</time>
      </trkpt>
      <trkpt lat="42.317138000" lon="-2.524744000">
        <ele>588.40</ele>
        <time>2014-11-01T10:28:46Z</time>
      </trkpt>
      <trkpt lat="42.317184000" lon="-2.524728000">
        <ele>588.30</ele>
        <time>2014-11-01T10:28:47Z</time>
      </trkpt>
      <trkpt lat="42.317233000" lon="-2.524711000">
        <ele>588.20</ele>
        <time>2014-11-01T10:28:48Z</time>
      </trkpt>
      <trkpt lat="42.317276000" lon="-2.524688000">
        <ele>588.10</ele>
        <time>2014-11-01T10:28:49Z</time>
      </trkpt>
      <trkpt lat="42.317320000" lon="-2.524672000">
        <ele>587.80</ele>
        <time>2014-11-01T10:28:50Z</time>
      </trkpt>
      <trkpt lat="42.317365000" lon="-2.524661000">
        <ele>587.60</ele>
        <time>2014-11-01T10:28:51Z</time>
      </trkpt>
      <trkpt lat="42.317410000" lon="-2.524649000">
        <ele>587.50</ele>
        <time>2014-11-01T10:28:52Z</time>
      </trkpt>
      <trkpt lat="42.317493000" lon="-2.524622000">
        <ele>587.30</ele>
        <time>2014-11-01T10:28:54Z</time>
      </trkpt>
      <trkpt lat="42.317536000" lon="-2.524602000">
        <ele>587.20</ele>
        <time>2014-11-01T10:28:55Z</time>
      </trkpt>
      <trkpt lat="42.317580000" lon="-2.524584000">
        <ele>587.20</ele>
        <time>2014-11-01T10:28:56Z</time>
      </trkpt>
      <trkpt lat="42.317632000" lon="-2.524569000">
        <ele>587.30</ele>
        <time>2014-11-01T10:28:57Z</time>
      </trkpt>
      <trkpt lat="42.317683000" lon="-2.524556000">
        <ele>587.30</ele>
        <time>2014-11-01T10:28:58Z</time>
      </trkpt>
      <trkpt lat="42.317735000" lon="-2.524537000">
        <ele>587.30</ele>
        <time>2014-11-01T10:28:59Z</time>
      </trkpt>
      <trkpt lat="42.317788000" lon="-2.524514000">
        <ele>587.30</ele>
        <time>2014-11-01T10:29:00Z</time>
      </trkpt>
      <trkpt lat="42.317839000" lon="-2.524494000">
        <ele>587.30</ele>
        <time>2014-11-01T10:29:01Z</time>
      </trkpt>
      <trkpt lat="42.317884000" lon="-2.524471000">
        <ele>587.10</ele>
        <time>2014-11-01T10:29:02Z</time>
      </trkpt>
      <trkpt lat="42.317921000" lon="-2.524440000">
        <ele>587.00</ele>
        <time>2014-11-01T10:29:03Z</time>
      </trkpt>
      <trkpt lat="42.317955000" lon="-2.524396000">
        <ele>586.70</ele>
        <time>2014-11-01T10:29:04Z</time>
      </trkpt>
      <trkpt lat="42.317988000" lon="-2.524349000">
        <ele>586.50</ele>
        <time>2014-11-01T10:29:05Z</time>
      </trkpt>
      <trkpt lat="42.318020000" lon="-2.524293000">
        <ele>586.40</ele>
        <time>2014-11-01T10:29:06Z</time>
      </trkpt>
      <trkpt lat="42.318052000" lon="-2.524230000">
        <ele>586.30</ele>
        <time>2014-11-01T10:29:07Z</time>
      </trkpt>
      <trkpt lat="42.318084000" lon="-2.524162000">
        <ele>586.20</ele>
        <time>2014-11-01T10:29:08Z</time>
      </trkpt>
      <trkpt lat="42.318107000" lon="-2.524082000">
        <ele>586.20</ele>
        <time>2014-11-01T10:29:09Z</time>
      </trkpt>
      <trkpt lat="42.318122000" lon="-2.524003000">
        <ele>586.10</ele>
        <time>2014-11-01T10:29:10Z</time>
      </trkpt>
      <trkpt lat="42.318134000" lon="-2.523922000">
        <ele>586.10</ele>
        <time>2014-11-01T10:29:11Z</time>
      </trkpt>
      <trkpt lat="42.318144000" lon="-2.523843000">
        <ele>585.90</ele>
        <time>2014-11-01T10:29:12Z</time>
      </trkpt>
      <trkpt lat="42.318154000" lon="-2.523770000">
        <ele>585.70</ele>
        <time>2014-11-01T10:29:13Z</time>
      </trkpt>
      <trkpt lat="42.318166000" lon="-2.523702000">
        <ele>585.60</ele>
        <time>2014-11-01T10:29:14Z</time>
      </trkpt>
      <trkpt lat="42.318175000" lon="-2.523639000">
        <ele>585.50</ele>
        <time>2014-11-01T10:29:15Z</time>
      </trkpt>
      <trkpt lat="42.318188000" lon="-2.523580000">
        <ele>585.40</ele>
        <time>2014-11-01T10:29:16Z</time>
      </trkpt>
      <trkpt lat="42.318200000" lon="-2.523521000">
        <ele>585.40</ele>
        <time>2014-11-01T10:29:17Z</time>
      </trkpt>
      <trkpt lat="42.318211000" lon="-2.523465000">
        <ele>585.30</ele>
        <time>2014-11-01T10:29:18Z</time>
      </trkpt>
      <trkpt lat="42.318221000" lon="-2.523409000">
        <ele>585.30</ele>
        <time>2014-11-01T10:29:19Z</time>
      </trkpt>
      <trkpt lat="42.318231000" lon="-2.523357000">
        <ele>585.10</ele>
        <time>2014-11-01T10:29:20Z</time>
      </trkpt>
      <trkpt lat="42.318233000" lon="-2.523302000">
        <ele>585.00</ele>
        <time>2014-11-01T10:29:21Z</time>
      </trkpt>
      <trkpt lat="42.318237000" lon="-2.523249000">
        <ele>584.90</ele>
        <time>2014-11-01T10:29:22Z</time>
      </trkpt>
      <trkpt lat="42.318242000" lon="-2.523195000">
        <ele>584.80</ele>
        <time>2014-11-01T10:29:23Z</time>
      </trkpt>
      <trkpt lat="42.318250000" lon="-2.523139000">
        <ele>584.70</ele>
        <time>2014-11-01T10:29:24Z</time>
      </trkpt>
      <trkpt lat="42.318258000" lon="-2.523080000">
        <ele>584.60</ele>
        <time>2014-11-01T10:29:25Z</time>
      </trkpt>
      <trkpt lat="42.318269000" lon="-2.523016000">
        <ele>584.60</ele>
        <time>2014-11-01T10:29:26Z</time>
      </trkpt>
      <trkpt lat="42.318280000" lon="-2.522946000">
        <ele>584.50</ele>
        <time>2014-11-01T10:29:27Z</time>
      </trkpt>
      <trkpt lat="42.318285000" lon="-2.522877000">
        <ele>584.50</ele>
        <time>2014-11-01T10:29:28Z</time>
      </trkpt>
      <trkpt lat="42.318290000" lon="-2.522808000">
        <ele>584.40</ele>
        <time>2014-11-01T10:29:29Z</time>
      </trkpt>
      <trkpt lat="42.318298000" lon="-2.522734000">
        <ele>584.30</ele>
        <time>2014-11-01T10:29:30Z</time>
      </trkpt>
      <trkpt lat="42.318306000" lon="-2.522662000">
        <ele>584.20</ele>
        <time>2014-11-01T10:29:31Z</time>
      </trkpt>
      <trkpt lat="42.318315000" lon="-2.522589000">
        <ele>583.70</ele>
        <time>2014-11-01T10:29:32Z</time>
      </trkpt>
      <trkpt lat="42.318323000" lon="-2.522517000">
        <ele>583.40</ele>
        <time>2014-11-01T10:29:33Z</time>
      </trkpt>
      <trkpt lat="42.318331000" lon="-2.522446000">
        <ele>583.00</ele>
        <time>2014-11-01T10:29:34Z</time>
      </trkpt>
      <trkpt lat="42.318339000" lon="-2.522374000">
        <ele>582.70</ele>
        <time>2014-11-01T10:29:35Z</time>
      </trkpt>
      <trkpt lat="42.318346000" lon="-2.522304000">
        <ele>582.50</ele>
        <time>2014-11-01T10:29:36Z</time>
      </trkpt>
      <trkpt lat="42.318354000" lon="-2.522235000">
        <ele>582.40</ele>
        <time>2014-11-01T10:29:37Z</time>
      </trkpt>
      <trkpt lat="42.318360000" lon="-2.522164000">
        <ele>582.20</ele>
        <time>2014-11-01T10:29:38Z</time>
      </trkpt>
      <trkpt lat="42.318369000" lon="-2.522095000">
        <ele>582.00</ele>
        <time>2014-11-01T10:29:39Z</time>
      </trkpt>
      <trkpt lat="42.318378000" lon="-2.522028000">
        <ele>582.10</ele>
        <time>2014-11-01T10:29:40Z</time>
      </trkpt>
      <trkpt lat="42.318385000" lon="-2.521961000">
        <ele>582.10</ele>
        <time>2014-11-01T10:29:41Z</time>
      </trkpt>
      <trkpt lat="42.318394000" lon="-2.521891000">
        <ele>581.90</ele>
        <time>2014-11-01T10:29:42Z</time>
      </trkpt>
      <trkpt lat="42.318405000" lon="-2.521825000">
        <ele>581.80</ele>
        <time>2014-11-01T10:29:43Z</time>
      </trkpt>
      <trkpt lat="42.318413000" lon="-2.521759000">
        <ele>582.10</ele>
        <time>2014-11-01T10:29:44Z</time>
      </trkpt>
      <trkpt lat="42.318422000" lon="-2.521691000">
        <ele>582.30</ele>
        <time>2014-11-01T10:29:45Z</time>
      </trkpt>
      <trkpt lat="42.318431000" lon="-2.521622000">
        <ele>582.00</ele>
        <time>2014-11-01T10:29:46Z</time>
      </trkpt>
      <trkpt lat="42.318438000" lon="-2.521559000">
        <ele>581.80</ele>
        <time>2014-11-01T10:29:47Z</time>
      </trkpt>
      <trkpt lat="42.318444000" lon="-2.521492000">
        <ele>581.80</ele>
        <time>2014-11-01T10:29:48Z</time>
      </trkpt>
      <trkpt lat="42.318454000" lon="-2.521426000">
        <ele>581.70</ele>
        <time>2014-11-01T10:29:49Z</time>
      </trkpt>
      <trkpt lat="42.318464000" lon="-2.521364000">
        <ele>581.70</ele>
        <time>2014-11-01T10:29:50Z</time>
      </trkpt>
      <trkpt lat="42.318473000" lon="-2.521300000">
        <ele>581.60</ele>
        <time>2014-11-01T10:29:51Z</time>
      </trkpt>
      <trkpt lat="42.318479000" lon="-2.521233000">
        <ele>581.60</ele>
        <time>2014-11-01T10:29:52Z</time>
      </trkpt>
      <trkpt lat="42.318484000" lon="-2.521169000">
        <ele>581.60</ele>
        <time>2014-11-01T10:29:53Z</time>
      </trkpt>
      <trkpt lat="42.318492000" lon="-2.521044000">
        <ele>581.20</ele>
        <time>2014-11-01T10:29:55Z</time>
      </trkpt>
      <trkpt lat="42.318500000" lon="-2.520982000">
        <ele>581.10</ele>
        <time>2014-11-01T10:29:56Z</time>
      </trkpt>
      <trkpt lat="42.318512000" lon="-2.520916000">
        <ele>581.00</ele>
        <time>2014-11-01T10:29:57Z</time>
      </trkpt>
      <trkpt lat="42.318523000" lon="-2.520849000">
        <ele>580.80</ele>
        <time>2014-11-01T10:29:58Z</time>
      </trkpt>
      <trkpt lat="42.318533000" lon="-2.520784000">
        <ele>580.60</ele>
        <time>2014-11-01T10:29:59Z</time>
      </trkpt>
      <trkpt lat="42.318543000" lon="-2.520716000">
        <ele>580.60</ele>
        <time>2014-11-01T10:30:00Z</time>
      </trkpt>
      <trkpt lat="42.318553000" lon="-2.520650000">
        <ele>580.60</ele>
        <time>2014-11-01T10:30:01Z</time>
      </trkpt>
      <trkpt lat="42.318562000" lon="-2.520583000">
        <ele>581.00</ele>
        <time>2014-11-01T10:30:02Z</time>
      </trkpt>
      <trkpt lat="42.318566000" lon="-2.520517000">
        <ele>581.20</ele>
        <time>2014-11-01T10:30:03Z</time>
      </trkpt>
      <trkpt lat="42.318569000" lon="-2.520448000">
        <ele>581.40</ele>
        <time>2014-11-01T10:30:04Z</time>
      </trkpt>
      <trkpt lat="42.318575000" lon="-2.520380000">
        <ele>581.60</ele>
        <time>2014-11-01T10:30:05Z</time>
      </trkpt>
      <trkpt lat="42.318580000" lon="-2.520313000">
        <ele>581.30</ele>
        <time>2014-11-01T10:30:06Z</time>
      </trkpt>
      <trkpt lat="42.318586000" lon="-2.520244000">
        <ele>581.10</ele>
        <time>2014-11-01T10:30:07Z</time>
      </trkpt>
      <trkpt lat="42.318596000" lon="-2.520177000">
        <ele>580.70</ele>
        <time>2014-11-01T10:30:08Z</time>
      </trkpt>
      <trkpt lat="42.318602000" lon="-2.520109000">
        <ele>580.40</ele>
        <time>2014-11-01T10:30:09Z</time>
      </trkpt>
      <trkpt lat="42.318610000" lon="-2.520041000">
        <ele>580.40</ele>
        <time>2014-11-01T10:30:10Z</time>
      </trkpt>
      <trkpt lat="42.318619000" lon="-2.519977000">
        <ele>580.30</ele>
        <time>2014-11-01T10:30:11Z</time>
      </trkpt>
      <trkpt lat="42.318629000" lon="-2.519911000">
        <ele>580.30</ele>
        <time>2014-11-01T10:30:12Z</time>
      </trkpt>
      <trkpt lat="42.318634000" lon="-2.519842000">
        <ele>580.20</ele>
        <time>2014-11-01T10:30:13Z</time>
      </trkpt>
      <trkpt lat="42.318644000" lon="-2.519777000">
        <ele>580.20</ele>
        <time>2014-11-01T10:30:14Z</time>
      </trkpt>
      <trkpt lat="42.318653000" lon="-2.519711000">
        <ele>580.20</ele>
        <time>2014-11-01T10:30:15Z</time>
      </trkpt>
      <trkpt lat="42.318663000" lon="-2.519644000">
        <ele>579.90</ele>
        <time>2014-11-01T10:30:16Z</time>
      </trkpt>
      <trkpt lat="42.318667000" lon="-2.519576000">
        <ele>579.70</ele>
        <time>2014-11-01T10:30:17Z</time>
      </trkpt>
      <trkpt lat="42.318675000" lon="-2.519510000">
        <ele>579.60</ele>
        <time>2014-11-01T10:30:18Z</time>
      </trkpt>
      <trkpt lat="42.318680000" lon="-2.519444000">
        <ele>579.50</ele>
        <time>2014-11-01T10:30:19Z</time>
      </trkpt>
      <trkpt lat="42.318687000" lon="-2.519378000">
        <ele>579.60</ele>
        <time>2014-11-01T10:30:20Z</time>
      </trkpt>
      <trkpt lat="42.318692000" lon="-2.519315000">
        <ele>579.60</ele>
        <time>2014-11-01T10:30:21Z</time>
      </trkpt>
      <trkpt lat="42.318701000" lon="-2.519250000">
        <ele>579.70</ele>
        <time>2014-11-01T10:30:22Z</time>
      </trkpt>
      <trkpt lat="42.318707000" lon="-2.519187000">
        <ele>579.80</ele>
        <time>2014-11-01T10:30:23Z</time>
      </trkpt>
      <trkpt lat="42.318713000" lon="-2.519124000">
        <ele>579.80</ele>
        <time>2014-11-01T10:30:24Z</time>
      </trkpt>
      <trkpt lat="42.318721000" lon="-2.519063000">
        <ele>579.80</ele>
        <time>2014-11-01T10:30:25Z</time>
      </trkpt>
      <trkpt lat="42.318728000" lon="-2.519002000">
        <ele>579.70</ele>
        <time>2014-11-01T10:30:26Z</time>
      </trkpt>
      <trkpt lat="42.318739000" lon="-2.518943000">
        <ele>579.60</ele>
        <time>2014-11-01T10:30:27Z</time>
      </trkpt>
      <trkpt lat="42.318749000" lon="-2.518881000">
        <ele>579.70</ele>
        <time>2014-11-01T10:30:28Z</time>
      </trkpt>
      <trkpt lat="42.318759000" lon="-2.518817000">
        <ele>579.70</ele>
        <time>2014-11-01T10:30:29Z</time>
      </trkpt>
      <trkpt lat="42.318766000" lon="-2.518754000">
        <ele>579.80</ele>
        <time>2014-11-01T10:30:30Z</time>
      </trkpt>
      <trkpt lat="42.318777000" lon="-2.518690000">
        <ele>579.80</ele>
        <time>2014-11-01T10:30:31Z</time>
      </trkpt>
      <trkpt lat="42.318783000" lon="-2.518623000">
        <ele>579.80</ele>
        <time>2014-11-01T10:30:32Z</time>
      </trkpt>
      <trkpt lat="42.318790000" lon="-2.518562000">
        <ele>579.80</ele>
        <time>2014-11-01T10:30:33Z</time>
      </trkpt>
      <trkpt lat="42.318798000" lon="-2.518501000">
        <ele>580.00</ele>
        <time>2014-11-01T10:30:34Z</time>
      </trkpt>
      <trkpt lat="42.318806000" lon="-2.518440000">
        <ele>580.10</ele>
        <time>2014-11-01T10:30:35Z</time>
      </trkpt>
      <trkpt lat="42.318814000" lon="-2.518380000">
        <ele>580.00</ele>
        <time>2014-11-01T10:30:36Z</time>
      </trkpt>
      <trkpt lat="42.318825000" lon="-2.518318000">
        <ele>579.90</ele>
        <time>2014-11-01T10:30:37Z</time>
      </trkpt>
      <trkpt lat="42.318836000" lon="-2.518261000">
        <ele>580.00</ele>
        <time>2014-11-01T10:30:38Z</time>
      </trkpt>
      <trkpt lat="42.318847000" lon="-2.518199000">
        <ele>580.00</ele>
        <time>2014-11-01T10:30:39Z</time>
      </trkpt>
      <trkpt lat="42.318861000" lon="-2.518139000">
        <ele>579.80</ele>
        <time>2014-11-01T10:30:40Z</time>
      </trkpt>
      <trkpt lat="42.318876000" lon="-2.518084000">
        <ele>579.70</ele>
        <time>2014-11-01T10:30:41Z</time>
      </trkpt>
      <trkpt lat="42.318890000" lon="-2.518028000">
        <ele>579.80</ele>
        <time>2014-11-01T10:30:42Z</time>
      </trkpt>
      <trkpt lat="42.318909000" lon="-2.517973000">
        <ele>579.90</ele>
        <time>2014-11-01T10:30:43Z</time>
      </trkpt>
      <trkpt lat="42.318925000" lon="-2.517916000">
        <ele>580.10</ele>
        <time>2014-11-01T10:30:44Z</time>
      </trkpt>
      <trkpt lat="42.318943000" lon="-2.517864000">
        <ele>580.30</ele>
        <time>2014-11-01T10:30:45Z</time>
      </trkpt>
      <trkpt lat="42.318961000" lon="-2.517812000">
        <ele>580.70</ele>
        <time>2014-11-01T10:30:46Z</time>
      </trkpt>
      <trkpt lat="42.318979000" lon="-2.517757000">
        <ele>581.00</ele>
        <time>2014-11-01T10:30:47Z</time>
      </trkpt>
      <trkpt lat="42.318998000" lon="-2.517701000">
        <ele>581.30</ele>
        <time>2014-11-01T10:30:48Z</time>
      </trkpt>
      <trkpt lat="42.319019000" lon="-2.517639000">
        <ele>581.60</ele>
        <time>2014-11-01T10:30:49Z</time>
      </trkpt>
      <trkpt lat="42.319039000" lon="-2.517573000">
        <ele>581.70</ele>
        <time>2014-11-01T10:30:50Z</time>
      </trkpt>
      <trkpt lat="42.319062000" lon="-2.517506000">
        <ele>581.70</ele>
        <time>2014-11-01T10:30:51Z</time>
      </trkpt>
      <trkpt lat="42.319083000" lon="-2.517434000">
        <ele>581.80</ele>
        <time>2014-11-01T10:30:52Z</time>
      </trkpt>
      <trkpt lat="42.319104000" lon="-2.517361000">
        <ele>581.80</ele>
        <time>2014-11-01T10:30:53Z</time>
      </trkpt>
      <trkpt lat="42.319126000" lon="-2.517285000">
        <ele>581.80</ele>
        <time>2014-11-01T10:30:54Z</time>
      </trkpt>
      <trkpt lat="42.319170000" lon="-2.517131000">
        <ele>581.40</ele>
        <time>2014-11-01T10:30:56Z</time>
      </trkpt>
      <trkpt lat="42.319189000" lon="-2.517053000">
        <ele>581.20</ele>
        <time>2014-11-01T10:30:57Z</time>
      </trkpt>
      <trkpt lat="42.319209000" lon="-2.516977000">
        <ele>581.00</ele>
        <time>2014-11-01T10:30:58Z</time>
      </trkpt>
      <trkpt lat="42.319229000" lon="-2.516903000">
        <ele>580.90</ele>
        <time>2014-11-01T10:30:59Z</time>
      </trkpt>
      <trkpt lat="42.319249000" lon="-2.516828000">
        <ele>580.80</ele>
        <time>2014-11-01T10:31:00Z</time>
      </trkpt>
      <trkpt lat="42.319272000" lon="-2.516752000">
        <ele>580.70</ele>
        <time>2014-11-01T10:31:01Z</time>
      </trkpt>
      <trkpt lat="42.319296000" lon="-2.516678000">
        <ele>580.40</ele>
        <time>2014-11-01T10:31:02Z</time>
      </trkpt>
      <trkpt lat="42.319318000" lon="-2.516601000">
        <ele>580.20</ele>
        <time>2014-11-01T10:31:03Z</time>
      </trkpt>
      <trkpt lat="42.319339000" lon="-2.516523000">
        <ele>579.50</ele>
        <time>2014-11-01T10:31:04Z</time>
      </trkpt>
      <trkpt lat="42.319359000" lon="-2.516443000">
        <ele>579.10</ele>
        <time>2014-11-01T10:31:05Z</time>
      </trkpt>
      <trkpt lat="42.319383000" lon="-2.516366000">
        <ele>578.70</ele>
        <time>2014-11-01T10:31:06Z</time>
      </trkpt>
      <trkpt lat="42.319405000" lon="-2.516289000">
        <ele>578.40</ele>
        <time>2014-11-01T10:31:07Z</time>
      </trkpt>
      <trkpt lat="42.319424000" lon="-2.516214000">
        <ele>578.40</ele>
        <time>2014-11-01T10:31:08Z</time>
      </trkpt>
      <trkpt lat="42.319448000" lon="-2.516142000">
        <ele>578.30</ele>
        <time>2014-11-01T10:31:09Z</time>
      </trkpt>
      <trkpt lat="42.319472000" lon="-2.516073000">
        <ele>578.30</ele>
        <time>2014-11-01T10:31:10Z</time>
      </trkpt>
      <trkpt lat="42.319490000" lon="-2.516002000">
        <ele>578.20</ele>
        <time>2014-11-01T10:31:11Z</time>
      </trkpt>
      <trkpt lat="42.319506000" lon="-2.515931000">
        <ele>578.00</ele>
        <time>2014-11-01T10:31:12Z</time>
      </trkpt>
      <trkpt lat="42.319524000" lon="-2.515862000">
        <ele>577.90</ele>
        <time>2014-11-01T10:31:13Z</time>
      </trkpt>
      <trkpt lat="42.319544000" lon="-2.515797000">
        <ele>577.80</ele>
        <time>2014-11-01T10:31:14Z</time>
      </trkpt>
      <trkpt lat="42.319563000" lon="-2.515733000">
        <ele>577.70</ele>
        <time>2014-11-01T10:31:15Z</time>
      </trkpt>
      <trkpt lat="42.319579000" lon="-2.515673000">
        <ele>577.70</ele>
        <time>2014-11-01T10:31:16Z</time>
      </trkpt>
      <trkpt lat="42.319594000" lon="-2.515608000">
        <ele>577.70</ele>
        <time>2014-11-01T10:31:17Z</time>
      </trkpt>
      <trkpt lat="42.319611000" lon="-2.515550000">
        <ele>577.80</ele>
        <time>2014-11-01T10:31:18Z</time>
      </trkpt>
      <trkpt lat="42.319630000" lon="-2.515493000">
        <ele>577.80</ele>
        <time>2014-11-01T10:31:19Z</time>
      </trkpt>
      <trkpt lat="42.319650000" lon="-2.515431000">
        <ele>577.80</ele>
        <time>2014-11-01T10:31:20Z</time>
      </trkpt>
      <trkpt lat="42.319668000" lon="-2.515369000">
        <ele>577.80</ele>
        <time>2014-11-01T10:31:21Z</time>
      </trkpt>
      <trkpt lat="42.319688000" lon="-2.515309000">
        <ele>577.80</ele>
        <time>2014-11-01T10:31:22Z</time>
      </trkpt>
      <trkpt lat="42.319707000" lon="-2.515247000">
        <ele>577.80</ele>
        <time>2014-11-01T10:31:23Z</time>
      </trkpt>
      <trkpt lat="42.319720000" lon="-2.515184000">
        <ele>577.70</ele>
        <time>2014-11-01T10:31:24Z</time>
      </trkpt>
      <trkpt lat="42.319735000" lon="-2.515122000">
        <ele>577.70</ele>
        <time>2014-11-01T10:31:25Z</time>
      </trkpt>
      <trkpt lat="42.319750000" lon="-2.515061000">
        <ele>577.80</ele>
        <time>2014-11-01T10:31:26Z</time>
      </trkpt>
      <trkpt lat="42.319766000" lon="-2.514999000">
        <ele>577.80</ele>
        <time>2014-11-01T10:31:27Z</time>
      </trkpt>
      <trkpt lat="42.319780000" lon="-2.514939000">
        <ele>577.90</ele>
        <time>2014-11-01T10:31:28Z</time>
      </trkpt>
      <trkpt lat="42.319796000" lon="-2.514882000">
        <ele>577.90</ele>
        <time>2014-11-01T10:31:29Z</time>
      </trkpt>
      <trkpt lat="42.319811000" lon="-2.514826000">
        <ele>577.90</ele>
        <time>2014-11-01T10:31:30Z</time>
      </trkpt>
      <trkpt lat="42.319830000" lon="-2.514769000">
        <ele>577.90</ele>
        <time>2014-11-01T10:31:31Z</time>
      </trkpt>
      <trkpt lat="42.319844000" lon="-2.514712000">
        <ele>577.90</ele>
        <time>2014-11-01T10:31:32Z</time>
      </trkpt>
      <trkpt lat="42.319862000" lon="-2.514658000">
        <ele>577.80</ele>
        <time>2014-11-01T10:31:33Z</time>
      </trkpt>
      <trkpt lat="42.319881000" lon="-2.514602000">
        <ele>577.90</ele>
        <time>2014-11-01T10:31:34Z</time>
      </trkpt>
      <trkpt lat="42.319907000" lon="-2.514553000">
        <ele>577.90</ele>
        <time>2014-11-01T10:31:35Z</time>
      </trkpt>
      <trkpt lat="42.319925000" lon="-2.514501000">
        <ele>577.90</ele>
        <time>2014-11-01T10:31:36Z</time>
      </trkpt>
      <trkpt lat="42.319940000" lon="-2.514443000">
        <ele>577.90</ele>
        <time>2014-11-01T10:31:37Z</time>
      </trkpt>
      <trkpt lat="42.319957000" lon="-2.514388000">
        <ele>577.90</ele>
        <time>2014-11-01T10:31:38Z</time>
      </trkpt>
      <trkpt lat="42.319975000" lon="-2.514329000">
        <ele>577.90</ele>
        <time>2014-11-01T10:31:39Z</time>
      </trkpt>
      <trkpt lat="42.319995000" lon="-2.514266000">
        <ele>577.90</ele>
        <time>2014-11-01T10:31:40Z</time>
      </trkpt>
      <trkpt lat="42.320009000" lon="-2.514205000">
        <ele>577.90</ele>
        <time>2014-11-01T10:31:41Z</time>
      </trkpt>
      <trkpt lat="42.320026000" lon="-2.514138000">
        <ele>577.90</ele>
        <time>2014-11-01T10:31:42Z</time>
      </trkpt>
      <trkpt lat="42.320043000" lon="-2.514068000">
        <ele>578.00</ele>
        <time>2014-11-01T10:31:43Z</time>
      </trkpt>
      <trkpt lat="42.320059000" lon="-2.513996000">
        <ele>577.80</ele>
        <time>2014-11-01T10:31:44Z</time>
      </trkpt>
      <trkpt lat="42.320073000" lon="-2.513921000">
        <ele>577.70</ele>
        <time>2014-11-01T10:31:45Z</time>
      </trkpt>
      <trkpt lat="42.320094000" lon="-2.513850000">
        <ele>577.60</ele>
        <time>2014-11-01T10:31:46Z</time>
      </trkpt>
      <trkpt lat="42.320119000" lon="-2.513779000">
        <ele>577.50</ele>
        <time>2014-11-01T10:31:47Z</time>
      </trkpt>
      <trkpt lat="42.320148000" lon="-2.513710000">
        <ele>577.40</ele>
        <time>2014-11-01T10:31:48Z</time>
      </trkpt>
      <trkpt lat="42.320177000" lon="-2.513641000">
        <ele>577.40</ele>
        <time>2014-11-01T10:31:49Z</time>
      </trkpt>
      <trkpt lat="42.320205000" lon="-2.513569000">
        <ele>576.90</ele>
        <time>2014-11-01T10:31:50Z</time>
      </trkpt>
      <trkpt lat="42.320234000" lon="-2.513500000">
        <ele>576.50</ele>
        <time>2014-11-01T10:31:51Z</time>
      </trkpt>
      <trkpt lat="42.320265000" lon="-2.513434000">
        <ele>576.20</ele>
        <time>2014-11-01T10:31:52Z</time>
      </trkpt>
      <trkpt lat="42.320295000" lon="-2.513366000">
        <ele>576.10</ele>
        <time>2014-11-01T10:31:53Z</time>
      </trkpt>
      <trkpt lat="42.320327000" lon="-2.513299000">
        <ele>575.90</ele>
        <time>2014-11-01T10:31:54Z</time>
      </trkpt>
      <trkpt lat="42.320359000" lon="-2.513236000">
        <ele>575.80</ele>
        <time>2014-11-01T10:31:55Z</time>
      </trkpt>
      <trkpt lat="42.320419000" lon="-2.513112000">
        <ele>576.00</ele>
        <time>2014-11-01T10:31:57Z</time>
      </trkpt>
      <trkpt lat="42.320447000" lon="-2.513053000">
        <ele>576.10</ele>
        <time>2014-11-01T10:31:58Z</time>
      </trkpt>
      <trkpt lat="42.320476000" lon="-2.512993000">
        <ele>576.20</ele>
        <time>2014-11-01T10:31:59Z</time>
      </trkpt>
      <trkpt lat="42.320508000" lon="-2.512935000">
        <ele>576.10</ele>
        <time>2014-11-01T10:32:00Z</time>
      </trkpt>
      <trkpt lat="42.320542000" lon="-2.512876000">
        <ele>576.10</ele>
        <time>2014-11-01T10:32:01Z</time>
      </trkpt>
      <trkpt lat="42.320575000" lon="-2.512815000">
        <ele>575.60</ele>
        <time>2014-11-01T10:32:02Z</time>
      </trkpt>
      <trkpt lat="42.320611000" lon="-2.512758000">
        <ele>575.10</ele>
        <time>2014-11-01T10:32:03Z</time>
      </trkpt>
      <trkpt lat="42.320645000" lon="-2.512706000">
        <ele>574.80</ele>
        <time>2014-11-01T10:32:04Z</time>
      </trkpt>
      <trkpt lat="42.320682000" lon="-2.512654000">
        <ele>574.60</ele>
        <time>2014-11-01T10:32:05Z</time>
      </trkpt>
      <trkpt lat="42.320720000" lon="-2.512603000">
        <ele>574.40</ele>
        <time>2014-11-01T10:32:06Z</time>
      </trkpt>
      <trkpt lat="42.320755000" lon="-2.512550000">
        <ele>574.30</ele>
        <time>2014-11-01T10:32:07Z</time>
      </trkpt>
      <trkpt lat="42.320790000" lon="-2.512496000">
        <ele>574.20</ele>
        <time>2014-11-01T10:32:08Z</time>
      </trkpt>
      <trkpt lat="42.320824000" lon="-2.512443000">
        <ele>574.10</ele>
        <time>2014-11-01T10:32:09Z</time>
      </trkpt>
      <trkpt lat="42.320860000" lon="-2.512389000">
        <ele>574.10</ele>
        <time>2014-11-01T10:32:10Z</time>
      </trkpt>
      <trkpt lat="42.320900000" lon="-2.512338000">
        <ele>574.00</ele>
        <time>2014-11-01T10:32:11Z</time>
      </trkpt>
      <trkpt lat="42.320942000" lon="-2.512286000">
        <ele>574.40</ele>
        <time>2014-11-01T10:32:12Z</time>
      </trkpt>
      <trkpt lat="42.320982000" lon="-2.512235000">
        <ele>574.70</ele>
        <time>2014-11-01T10:32:13Z</time>
      </trkpt>
      <trkpt lat="42.321019000" lon="-2.512179000">
        <ele>574.90</ele>
        <time>2014-11-01T10:32:14Z</time>
      </trkpt>
      <trkpt lat="42.321058000" lon="-2.512126000">
        <ele>575.10</ele>
        <time>2014-11-01T10:32:15Z</time>
      </trkpt>
      <trkpt lat="42.321095000" lon="-2.512077000">
        <ele>575.20</ele>
        <time>2014-11-01T10:32:16Z</time>
      </trkpt>
      <trkpt lat="42.321133000" lon="-2.512028000">
        <ele>575.30</ele>
        <time>2014-11-01T10:32:17Z</time>
      </trkpt>
      <trkpt lat="42.321170000" lon="-2.511977000">
        <ele>575.10</ele>
        <time>2014-11-01T10:32:18Z</time>
      </trkpt>
      <trkpt lat="42.321205000" lon="-2.511931000">
        <ele>574.90</ele>
        <time>2014-11-01T10:32:19Z</time>
      </trkpt>
      <trkpt lat="42.321239000" lon="-2.511883000">
        <ele>574.50</ele>
        <time>2014-11-01T10:32:20Z</time>
      </trkpt>
      <trkpt lat="42.321274000" lon="-2.511835000">
        <ele>574.20</ele>
        <time>2014-11-01T10:32:21Z</time>
      </trkpt>
      <trkpt lat="42.321305000" lon="-2.511785000">
        <ele>574.10</ele>
        <time>2014-11-01T10:32:22Z</time>
      </trkpt>
      <trkpt lat="42.321336000" lon="-2.511733000">
        <ele>574.10</ele>
        <time>2014-11-01T10:32:23Z</time>
      </trkpt>
      <trkpt lat="42.321365000" lon="-2.511681000">
        <ele>573.90</ele>
        <time>2014-11-01T10:32:24Z</time>
      </trkpt>
      <trkpt lat="42.321395000" lon="-2.511633000">
        <ele>573.70</ele>
        <time>2014-11-01T10:32:25Z</time>
      </trkpt>
      <trkpt lat="42.321427000" lon="-2.511588000">
        <ele>573.60</ele>
        <time>2014-11-01T10:32:26Z</time>
      </trkpt>
      <trkpt lat="42.321461000" lon="-2.511540000">
        <ele>573.50</ele>
        <time>2014-11-01T10:32:27Z</time>
      </trkpt>
      <trkpt lat="42.321494000" lon="-2.511490000">
        <ele>573.40</ele>
        <time>2014-11-01T10:32:28Z</time>
      </trkpt>
      <trkpt lat="42.321527000" lon="-2.511441000">
        <ele>573.30</ele>
        <time>2014-11-01T10:32:29Z</time>
      </trkpt>
      <trkpt lat="42.321560000" lon="-2.511391000">
        <ele>573.20</ele>
        <time>2014-11-01T10:32:30Z</time>
      </trkpt>
      <trkpt lat="42.321590000" lon="-2.511341000">
        <ele>573.20</ele>
        <time>2014-11-01T10:32:31Z</time>
      </trkpt>
      <trkpt lat="42.321620000" lon="-2.511293000">
        <ele>573.10</ele>
        <time>2014-11-01T10:32:32Z</time>
      </trkpt>
      <trkpt lat="42.321650000" lon="-2.511240000">
        <ele>573.10</ele>
        <time>2014-11-01T10:32:33Z</time>
      </trkpt>
      <trkpt lat="42.321678000" lon="-2.511187000">
        <ele>573.00</ele>
        <time>2014-11-01T10:32:34Z</time>
      </trkpt>
      <trkpt lat="42.321706000" lon="-2.511132000">
        <ele>573.00</ele>
        <time>2014-11-01T10:32:35Z</time>
      </trkpt>
      <trkpt lat="42.321737000" lon="-2.511077000">
        <ele>573.00</ele>
        <time>2014-11-01T10:32:36Z</time>
      </trkpt>
      <trkpt lat="42.321762000" lon="-2.511015000">
        <ele>573.00</ele>
        <time>2014-11-01T10:32:37Z</time>
      </trkpt>
      <trkpt lat="42.321790000" lon="-2.510955000">
        <ele>573.00</ele>
        <time>2014-11-01T10:32:38Z</time>
      </trkpt>
      <trkpt lat="42.321824000" lon="-2.510896000">
        <ele>573.00</ele>
        <time>2014-11-01T10:32:39Z</time>
      </trkpt>
      <trkpt lat="42.321859000" lon="-2.510838000">
        <ele>572.40</ele>
        <time>2014-11-01T10:32:40Z</time>
      </trkpt>
      <trkpt lat="42.321891000" lon="-2.510781000">
        <ele>572.00</ele>
        <time>2014-11-01T10:32:41Z</time>
      </trkpt>
      <trkpt lat="42.321920000" lon="-2.510725000">
        <ele>571.70</ele>
        <time>2014-11-01T10:32:42Z</time>
      </trkpt>
      <trkpt lat="42.321947000" lon="-2.510671000">
        <ele>571.50</ele>
        <time>2014-11-01T10:32:43Z</time>
      </trkpt>
      <trkpt lat="42.321975000" lon="-2.510615000">
        <ele>571.30</ele>
        <time>2014-11-01T10:32:44Z</time>
      </trkpt>
      <trkpt lat="42.322004000" lon="-2.510563000">
        <ele>571.10</ele>
        <time>2014-11-01T10:32:45Z</time>
      </trkpt>
      <trkpt lat="42.322031000" lon="-2.510511000">
        <ele>571.30</ele>
        <time>2014-11-01T10:32:46Z</time>
      </trkpt>
      <trkpt lat="42.322061000" lon="-2.510459000">
        <ele>571.40</ele>
        <time>2014-11-01T10:32:47Z</time>
      </trkpt>
      <trkpt lat="42.322090000" lon="-2.510405000">
        <ele>571.50</ele>
        <time>2014-11-01T10:32:48Z</time>
      </trkpt>
      <trkpt lat="42.322120000" lon="-2.510354000">
        <ele>571.60</ele>
        <time>2014-11-01T10:32:49Z</time>
      </trkpt>
      <trkpt lat="42.322150000" lon="-2.510305000">
        <ele>571.80</ele>
        <time>2014-11-01T10:32:50Z</time>
      </trkpt>
      <trkpt lat="42.322177000" lon="-2.510258000">
        <ele>572.00</ele>
        <time>2014-11-01T10:32:51Z</time>
      </trkpt>
      <trkpt lat="42.322202000" lon="-2.510215000">
        <ele>572.00</ele>
        <time>2014-11-01T10:32:52Z</time>
      </trkpt>
      <trkpt lat="42.322221000" lon="-2.510171000">
        <ele>572.10</ele>
        <time>2014-11-01T10:32:53Z</time>
      </trkpt>
      <trkpt lat="42.322239000" lon="-2.510127000">
        <ele>572.20</ele>
        <time>2014-11-01T10:32:54Z</time>
      </trkpt>
      <trkpt lat="42.322258000" lon="-2.510089000">
        <ele>572.30</ele>
        <time>2014-11-01T10:32:55Z</time>
      </trkpt>
      <trkpt lat="42.322277000" lon="-2.510053000">
        <ele>572.30</ele>
        <time>2014-11-01T10:32:56Z</time>
      </trkpt>
      <trkpt lat="42.322303000" lon="-2.509971000">
        <ele>571.90</ele>
        <time>2014-11-01T10:32:58Z</time>
      </trkpt>
      <trkpt lat="42.322302000" lon="-2.509924000">
        <ele>571.70</ele>
        <time>2014-11-01T10:32:59Z</time>
      </trkpt>
      <trkpt lat="42.322296000" lon="-2.509880000">
        <ele>571.50</ele>
        <time>2014-11-01T10:33:00Z</time>
      </trkpt>
      <trkpt lat="42.322305000" lon="-2.509829000">
        <ele>571.30</ele>
        <time>2014-11-01T10:33:01Z</time>
      </trkpt>
      <trkpt lat="42.322326000" lon="-2.509783000">
        <ele>571.50</ele>
        <time>2014-11-01T10:33:02Z</time>
      </trkpt>
      <trkpt lat="42.322351000" lon="-2.509737000">
        <ele>571.60</ele>
        <time>2014-11-01T10:33:03Z</time>
      </trkpt>
      <trkpt lat="42.322379000" lon="-2.509697000">
        <ele>571.70</ele>
        <time>2014-11-01T10:33:04Z</time>
      </trkpt>
      <trkpt lat="42.322404000" lon="-2.509659000">
        <ele>571.80</ele>
        <time>2014-11-01T10:33:05Z</time>
      </trkpt>
      <trkpt lat="42.322430000" lon="-2.509628000">
        <ele>571.70</ele>
        <time>2014-11-01T10:33:06Z</time>
      </trkpt>
      <trkpt lat="42.322460000" lon="-2.509609000">
        <ele>571.60</ele>
        <time>2014-11-01T10:33:07Z</time>
      </trkpt>
      <trkpt lat="42.322492000" lon="-2.509601000">
        <ele>571.30</ele>
        <time>2014-11-01T10:33:08Z</time>
      </trkpt>
      <trkpt lat="42.322520000" lon="-2.509591000">
        <ele>571.00</ele>
        <time>2014-11-01T10:33:09Z</time>
      </trkpt>
      <trkpt lat="42.322545000" lon="-2.509575000">
        <ele>570.80</ele>
        <time>2014-11-01T10:33:10Z</time>
      </trkpt>
      <trkpt lat="42.322572000" lon="-2.509546000">
        <ele>570.60</ele>
        <time>2014-11-01T10:33:11Z</time>
      </trkpt>
      <trkpt lat="42.322599000" lon="-2.509509000">
        <ele>570.70</ele>
        <time>2014-11-01T10:33:12Z</time>
      </trkpt>
      <trkpt lat="42.322626000" lon="-2.509468000">
        <ele>570.70</ele>
        <time>2014-11-01T10:33:13Z</time>
      </trkpt>
      <trkpt lat="42.322653000" lon="-2.509424000">
        <ele>570.90</ele>
        <time>2014-11-01T10:33:14Z</time>
      </trkpt>
      <trkpt lat="42.322680000" lon="-2.509378000">
        <ele>571.10</ele>
        <time>2014-11-01T10:33:15Z</time>
      </trkpt>
      <trkpt lat="42.322708000" lon="-2.509322000">
        <ele>571.10</ele>
        <time>2014-11-01T10:33:16Z</time>
      </trkpt>
      <trkpt lat="42.322738000" lon="-2.509270000">
        <ele>571.10</ele>
        <time>2014-11-01T10:33:17Z</time>
      </trkpt>
      <trkpt lat="42.322768000" lon="-2.509215000">
        <ele>571.30</ele>
        <time>2014-11-01T10:33:18Z</time>
      </trkpt>
      <trkpt lat="42.322800000" lon="-2.509162000">
        <ele>571.40</ele>
        <time>2014-11-01T10:33:19Z</time>
      </trkpt>
      <trkpt lat="42.322834000" lon="-2.509110000">
        <ele>571.50</ele>
        <time>2014-11-01T10:33:20Z</time>
      </trkpt>
      <trkpt lat="42.322871000" lon="-2.509062000">
        <ele>571.50</ele>
        <time>2014-11-01T10:33:21Z</time>
      </trkpt>
      <trkpt lat="42.322910000" lon="-2.509017000">
        <ele>571.60</ele>
        <time>2014-11-01T10:33:22Z</time>
      </trkpt>
      <trkpt lat="42.322944000" lon="-2.508973000">
        <ele>571.60</ele>
        <time>2014-11-01T10:33:23Z</time>
      </trkpt>
      <trkpt lat="42.322974000" lon="-2.508941000">
        <ele>571.60</ele>
        <time>2014-11-01T10:33:24Z</time>
      </trkpt>
      <trkpt lat="42.323002000" lon="-2.508910000">
        <ele>571.50</ele>
        <time>2014-11-01T10:33:25Z</time>
      </trkpt>
      <trkpt lat="42.323037000" lon="-2.508886000">
        <ele>570.90</ele>
        <time>2014-11-01T10:33:26Z</time>
      </trkpt>
      <trkpt lat="42.323074000" lon="-2.508858000">
        <ele>570.40</ele>
        <time>2014-11-01T10:33:27Z</time>
      </trkpt>
      <trkpt lat="42.323110000" lon="-2.508828000">
        <ele>570.00</ele>
        <time>2014-11-01T10:33:28Z</time>
      </trkpt>
      <trkpt lat="42.323147000" lon="-2.508795000">
        <ele>569.70</ele>
        <time>2014-11-01T10:33:29Z</time>
      </trkpt>
      <trkpt lat="42.323186000" lon="-2.508765000">
        <ele>570.00</ele>
        <time>2014-11-01T10:33:30Z</time>
      </trkpt>
      <trkpt lat="42.323227000" lon="-2.508729000">
        <ele>570.20</ele>
        <time>2014-11-01T10:33:31Z</time>
      </trkpt>
      <trkpt lat="42.323268000" lon="-2.508690000">
        <ele>570.50</ele>
        <time>2014-11-01T10:33:32Z</time>
      </trkpt>
      <trkpt lat="42.323309000" lon="-2.508652000">
        <ele>570.60</ele>
        <time>2014-11-01T10:33:33Z</time>
      </trkpt>
      <trkpt lat="42.323351000" lon="-2.508615000">
        <ele>570.80</ele>
        <time>2014-11-01T10:33:34Z</time>
      </trkpt>
      <trkpt lat="42.323391000" lon="-2.508575000">
        <ele>570.90</ele>
        <time>2014-11-01T10:33:35Z</time>
      </trkpt>
      <trkpt lat="42.323432000" lon="-2.508535000">
        <ele>571.00</ele>
        <time>2014-11-01T10:33:36Z</time>
      </trkpt>
      <trkpt lat="42.323475000" lon="-2.508499000">
        <ele>571.00</ele>
        <time>2014-11-01T10:33:37Z</time>
      </trkpt>
      <trkpt lat="42.323518000" lon="-2.508462000">
        <ele>571.00</ele>
        <time>2014-11-01T10:33:38Z</time>
      </trkpt>
      <trkpt lat="42.323562000" lon="-2.508423000">
        <ele>571.00</ele>
        <time>2014-11-01T10:33:39Z</time>
      </trkpt>
      <trkpt lat="42.323604000" lon="-2.508387000">
        <ele>571.00</ele>
        <time>2014-11-01T10:33:40Z</time>
      </trkpt>
      <trkpt lat="42.323648000" lon="-2.508352000">
        <ele>571.10</ele>
        <time>2014-11-01T10:33:41Z</time>
      </trkpt>
      <trkpt lat="42.323686000" lon="-2.508316000">
        <ele>571.20</ele>
        <time>2014-11-01T10:33:42Z</time>
      </trkpt>
      <trkpt lat="42.323724000" lon="-2.508278000">
        <ele>571.20</ele>
        <time>2014-11-01T10:33:43Z</time>
      </trkpt>
      <trkpt lat="42.323761000" lon="-2.508236000">
        <ele>571.30</ele>
        <time>2014-11-01T10:33:44Z</time>
      </trkpt>
      <trkpt lat="42.323798000" lon="-2.508193000">
        <ele>571.30</ele>
        <time>2014-11-01T10:33:45Z</time>
      </trkpt>
      <trkpt lat="42.323836000" lon="-2.508149000">
        <ele>571.10</ele>
        <time>2014-11-01T10:33:46Z</time>
      </trkpt>
      <trkpt lat="42.323872000" lon="-2.508105000">
        <ele>570.80</ele>
        <time>2014-11-01T10:33:47Z</time>
      </trkpt>
      <trkpt lat="42.323910000" lon="-2.508061000">
        <ele>570.70</ele>
        <time>2014-11-01T10:33:48Z</time>
      </trkpt>
      <trkpt lat="42.323949000" lon="-2.508016000">
        <ele>570.60</ele>
        <time>2014-11-01T10:33:49Z</time>
      </trkpt>
      <trkpt lat="42.323986000" lon="-2.507974000">
        <ele>570.50</ele>
        <time>2014-11-01T10:33:50Z</time>
      </trkpt>
      <trkpt lat="42.324023000" lon="-2.507931000">
        <ele>570.40</ele>
        <time>2014-11-01T10:33:51Z</time>
      </trkpt>
      <trkpt lat="42.324058000" lon="-2.507887000">
        <ele>570.50</ele>
        <time>2014-11-01T10:33:52Z</time>
      </trkpt>
      <trkpt lat="42.324094000" lon="-2.507847000">
        <ele>570.60</ele>
        <time>2014-11-01T10:33:53Z</time>
      </trkpt>
      <trkpt lat="42.324129000" lon="-2.507810000">
        <ele>570.40</ele>
        <time>2014-11-01T10:33:54Z</time>
      </trkpt>
      <trkpt lat="42.324165000" lon="-2.507769000">
        <ele>570.20</ele>
        <time>2014-11-01T10:33:55Z</time>
      </trkpt>
      <trkpt lat="42.324197000" lon="-2.507726000">
        <ele>570.40</ele>
        <time>2014-11-01T10:33:56Z</time>
      </trkpt>
      <trkpt lat="42.324232000" lon="-2.507686000">
        <ele>570.50</ele>
        <time>2014-11-01T10:33:57Z</time>
      </trkpt>
      <trkpt lat="42.324303000" lon="-2.507602000">
        <ele>570.50</ele>
        <time>2014-11-01T10:33:59Z</time>
      </trkpt>
      <trkpt lat="42.324337000" lon="-2.507559000">
        <ele>570.70</ele>
        <time>2014-11-01T10:34:00Z</time>
      </trkpt>
      <trkpt lat="42.324371000" lon="-2.507514000">
        <ele>570.80</ele>
        <time>2014-11-01T10:34:01Z</time>
      </trkpt>
      <trkpt lat="42.324406000" lon="-2.507474000">
        <ele>570.90</ele>
        <time>2014-11-01T10:34:02Z</time>
      </trkpt>
      <trkpt lat="42.324437000" lon="-2.507430000">
        <ele>571.00</ele>
        <time>2014-11-01T10:34:03Z</time>
      </trkpt>
      <trkpt lat="42.324469000" lon="-2.507387000">
        <ele>571.00</ele>
        <time>2014-11-01T10:34:04Z</time>
      </trkpt>
      <trkpt lat="42.324500000" lon="-2.507338000">
        <ele>571.10</ele>
        <time>2014-11-01T10:34:05Z</time>
      </trkpt>
      <trkpt lat="42.324532000" lon="-2.507285000">
        <ele>571.20</ele>
        <time>2014-11-01T10:34:06Z</time>
      </trkpt>
      <trkpt lat="42.324565000" lon="-2.507236000">
        <ele>571.20</ele>
        <time>2014-11-01T10:34:07Z</time>
      </trkpt>
      <trkpt lat="42.324597000" lon="-2.507184000">
        <ele>571.30</ele>
        <time>2014-11-01T10:34:08Z</time>
      </trkpt>
      <trkpt lat="42.324629000" lon="-2.507136000">
        <ele>571.30</ele>
        <time>2014-11-01T10:34:09Z</time>
      </trkpt>
      <trkpt lat="42.324663000" lon="-2.507089000">
        <ele>571.40</ele>
        <time>2014-11-01T10:34:10Z</time>
      </trkpt>
      <trkpt lat="42.324697000" lon="-2.507037000">
        <ele>571.50</ele>
        <time>2014-11-01T10:34:11Z</time>
      </trkpt>
      <trkpt lat="42.324732000" lon="-2.506989000">
        <ele>571.70</ele>
        <time>2014-11-01T10:34:12Z</time>
      </trkpt>
      <trkpt lat="42.324766000" lon="-2.506942000">
        <ele>571.80</ele>
        <time>2014-11-01T10:34:13Z</time>
      </trkpt>
      <trkpt lat="42.324799000" lon="-2.506896000">
        <ele>571.80</ele>
        <time>2014-11-01T10:34:14Z</time>
      </trkpt>
      <trkpt lat="42.324833000" lon="-2.506846000">
        <ele>571.80</ele>
        <time>2014-11-01T10:34:15Z</time>
      </trkpt>
      <trkpt lat="42.324866000" lon="-2.506797000">
        <ele>571.70</ele>
        <time>2014-11-01T10:34:16Z</time>
      </trkpt>
      <trkpt lat="42.324902000" lon="-2.506749000">
        <ele>571.60</ele>
        <time>2014-11-01T10:34:17Z</time>
      </trkpt>
      <trkpt lat="42.324939000" lon="-2.506703000">
        <ele>571.50</ele>
        <time>2014-11-01T10:34:18Z</time>
      </trkpt>
      <trkpt lat="42.324972000" lon="-2.506654000">
        <ele>571.30</ele>
        <time>2014-11-01T10:34:19Z</time>
      </trkpt>
      <trkpt lat="42.325008000" lon="-2.506603000">
        <ele>571.40</ele>
        <time>2014-11-01T10:34:20Z</time>
      </trkpt>
      <trkpt lat="42.325041000" lon="-2.506549000">
        <ele>571.40</ele>
        <time>2014-11-01T10:34:21Z</time>
      </trkpt>
      <trkpt lat="42.325074000" lon="-2.506496000">
        <ele>571.10</ele>
        <time>2014-11-01T10:34:22Z</time>
      </trkpt>
      <trkpt lat="42.325106000" lon="-2.506445000">
        <ele>571.00</ele>
        <time>2014-11-01T10:34:23Z</time>
      </trkpt>
      <trkpt lat="42.325138000" lon="-2.506391000">
        <ele>571.10</ele>
        <time>2014-11-01T10:34:24Z</time>
      </trkpt>
      <trkpt lat="42.325168000" lon="-2.506336000">
        <ele>571.20</ele>
        <time>2014-11-01T10:34:25Z</time>
      </trkpt>
      <trkpt lat="42.325199000" lon="-2.506277000">
        <ele>571.20</ele>
        <time>2014-11-01T10:34:26Z</time>
      </trkpt>
      <trkpt lat="42.325231000" lon="-2.506215000">
        <ele>571.20</ele>
        <time>2014-11-01T10:34:27Z</time>
      </trkpt>
      <trkpt lat="42.325262000" lon="-2.506152000">
        <ele>571.20</ele>
        <time>2014-11-01T10:34:28Z</time>
      </trkpt>
      <trkpt lat="42.325289000" lon="-2.506087000">
        <ele>571.30</ele>
        <time>2014-11-01T10:34:29Z</time>
      </trkpt>
      <trkpt lat="42.325316000" lon="-2.506023000">
        <ele>571.40</ele>
        <time>2014-11-01T10:34:30Z</time>
      </trkpt>
      <trkpt lat="42.325343000" lon="-2.505959000">
        <ele>571.50</ele>
        <time>2014-11-01T10:34:31Z</time>
      </trkpt>
      <trkpt lat="42.325371000" lon="-2.505894000">
        <ele>571.70</ele>
        <time>2014-11-01T10:34:32Z</time>
      </trkpt>
      <trkpt lat="42.325401000" lon="-2.505828000">
        <ele>571.80</ele>
        <time>2014-11-01T10:34:33Z</time>
      </trkpt>
      <trkpt lat="42.325428000" lon="-2.505761000">
        <ele>571.80</ele>
        <time>2014-11-01T10:34:34Z</time>
      </trkpt>
      <trkpt lat="42.325457000" lon="-2.505697000">
        <ele>571.80</ele>
        <time>2014-11-01T10:34:35Z</time>
      </trkpt>
      <trkpt lat="42.325486000" lon="-2.505630000">
        <ele>571.60</ele>
        <time>2014-11-01T10:34:36Z</time>
      </trkpt>
      <trkpt lat="42.325510000" lon="-2.505560000">
        <ele>571.40</ele>
        <time>2014-11-01T10:34:37Z</time>
      </trkpt>
      <trkpt lat="42.325539000" lon="-2.505491000">
        <ele>571.30</ele>
        <time>2014-11-01T10:34:38Z</time>
      </trkpt>
      <trkpt lat="42.325567000" lon="-2.505423000">
        <ele>571.20</ele>
        <time>2014-11-01T10:34:39Z</time>
      </trkpt>
      <trkpt lat="42.325594000" lon="-2.505353000">
        <ele>571.10</ele>
        <time>2014-11-01T10:34:40Z</time>
      </trkpt>
      <trkpt lat="42.325624000" lon="-2.505280000">
        <ele>571.10</ele>
        <time>2014-11-01T10:34:41Z</time>
      </trkpt>
      <trkpt lat="42.325654000" lon="-2.505209000">
        <ele>571.20</ele>
        <time>2014-11-01T10:34:42Z</time>
      </trkpt>
      <trkpt lat="42.325683000" lon="-2.505137000">
        <ele>571.20</ele>
        <time>2014-11-01T10:34:43Z</time>
      </trkpt>
      <trkpt lat="42.325713000" lon="-2.505064000">
        <ele>570.90</ele>
        <time>2014-11-01T10:34:44Z</time>
      </trkpt>
      <trkpt lat="42.325745000" lon="-2.504992000">
        <ele>570.60</ele>
        <time>2014-11-01T10:34:45Z</time>
      </trkpt>
      <trkpt lat="42.325779000" lon="-2.504920000">
        <ele>570.80</ele>
        <time>2014-11-01T10:34:46Z</time>
      </trkpt>
      <trkpt lat="42.325814000" lon="-2.504848000">
        <ele>571.00</ele>
        <time>2014-11-01T10:34:47Z</time>
      </trkpt>
      <trkpt lat="42.325846000" lon="-2.504778000">
        <ele>570.70</ele>
        <time>2014-11-01T10:34:48Z</time>
      </trkpt>
      <trkpt lat="42.325879000" lon="-2.504708000">
        <ele>570.50</ele>
        <time>2014-11-01T10:34:49Z</time>
      </trkpt>
      <trkpt lat="42.325913000" lon="-2.504638000">
        <ele>570.00</ele>
        <time>2014-11-01T10:34:50Z</time>
      </trkpt>
      <trkpt lat="42.325947000" lon="-2.504569000">
        <ele>569.70</ele>
        <time>2014-11-01T10:34:51Z</time>
      </trkpt>
      <trkpt lat="42.325973000" lon="-2.504503000">
        <ele>569.40</ele>
        <time>2014-11-01T10:34:52Z</time>
      </trkpt>
      <trkpt lat="42.326005000" lon="-2.504439000">
        <ele>569.20</ele>
        <time>2014-11-01T10:34:53Z</time>
      </trkpt>
      <trkpt lat="42.326038000" lon="-2.504378000">
        <ele>569.00</ele>
        <time>2014-11-01T10:34:54Z</time>
      </trkpt>
      <trkpt lat="42.326074000" lon="-2.504321000">
        <ele>568.90</ele>
        <time>2014-11-01T10:34:55Z</time>
      </trkpt>
      <trkpt lat="42.326110000" lon="-2.504269000">
        <ele>568.70</ele>
        <time>2014-11-01T10:34:56Z</time>
      </trkpt>
      <trkpt lat="42.326146000" lon="-2.504219000">
        <ele>568.50</ele>
        <time>2014-11-01T10:34:57Z</time>
      </trkpt>
      <trkpt lat="42.326181000" lon="-2.504165000">
        <ele>568.40</ele>
        <time>2014-11-01T10:34:58Z</time>
      </trkpt>
      <trkpt lat="42.326253000" lon="-2.504061000">
        <ele>568.70</ele>
        <time>2014-11-01T10:35:00Z</time>
      </trkpt>
      <trkpt lat="42.326288000" lon="-2.504011000">
        <ele>568.90</ele>
        <time>2014-11-01T10:35:01Z</time>
      </trkpt>
      <trkpt lat="42.326321000" lon="-2.503963000">
        <ele>569.10</ele>
        <time>2014-11-01T10:35:02Z</time>
      </trkpt>
      <trkpt lat="42.326355000" lon="-2.503915000">
        <ele>569.20</ele>
        <time>2014-11-01T10:35:03Z</time>
      </trkpt>
      <trkpt lat="42.326387000" lon="-2.503864000">
        <ele>569.00</ele>
        <time>2014-11-01T10:35:04Z</time>
      </trkpt>
      <trkpt lat="42.326419000" lon="-2.503813000">
        <ele>568.80</ele>
        <time>2014-11-01T10:35:05Z</time>
      </trkpt>
      <trkpt lat="42.326454000" lon="-2.503762000">
        <ele>568.70</ele>
        <time>2014-11-01T10:35:06Z</time>
      </trkpt>
      <trkpt lat="42.326486000" lon="-2.503712000">
        <ele>568.60</ele>
        <time>2014-11-01T10:35:07Z</time>
      </trkpt>
      <trkpt lat="42.326516000" lon="-2.503659000">
        <ele>568.50</ele>
        <time>2014-11-01T10:35:08Z</time>
      </trkpt>
      <trkpt lat="42.326548000" lon="-2.503609000">
        <ele>568.50</ele>
        <time>2014-11-01T10:35:09Z</time>
      </trkpt>
      <trkpt lat="42.326577000" lon="-2.503556000">
        <ele>568.50</ele>
        <time>2014-11-01T10:35:10Z</time>
      </trkpt>
      <trkpt lat="42.326603000" lon="-2.503499000">
        <ele>568.50</ele>
        <time>2014-11-01T10:35:11Z</time>
      </trkpt>
      <trkpt lat="42.326630000" lon="-2.503444000">
        <ele>568.50</ele>
        <time>2014-11-01T10:35:12Z</time>
      </trkpt>
      <trkpt lat="42.326657000" lon="-2.503385000">
        <ele>568.50</ele>
        <time>2014-11-01T10:35:13Z</time>
      </trkpt>
      <trkpt lat="42.326685000" lon="-2.503329000">
        <ele>569.00</ele>
        <time>2014-11-01T10:35:14Z</time>
      </trkpt>
      <trkpt lat="42.326712000" lon="-2.503275000">
        <ele>569.40</ele>
        <time>2014-11-01T10:35:15Z</time>
      </trkpt>
      <trkpt lat="42.326739000" lon="-2.503222000">
        <ele>569.60</ele>
        <time>2014-11-01T10:35:16Z</time>
      </trkpt>
      <trkpt lat="42.326767000" lon="-2.503171000">
        <ele>569.80</ele>
        <time>2014-11-01T10:35:17Z</time>
      </trkpt>
      <trkpt lat="42.326792000" lon="-2.503117000">
        <ele>569.90</ele>
        <time>2014-11-01T10:35:18Z</time>
      </trkpt>
      <trkpt lat="42.326820000" lon="-2.503061000">
        <ele>570.00</ele>
        <time>2014-11-01T10:35:19Z</time>
      </trkpt>
      <trkpt lat="42.326851000" lon="-2.503012000">
        <ele>569.90</ele>
        <time>2014-11-01T10:35:20Z</time>
      </trkpt>
      <trkpt lat="42.326884000" lon="-2.502970000">
        <ele>569.90</ele>
        <time>2014-11-01T10:35:21Z</time>
      </trkpt>
      <trkpt lat="42.326921000" lon="-2.502929000">
        <ele>570.00</ele>
        <time>2014-11-01T10:35:22Z</time>
      </trkpt>
      <trkpt lat="42.326952000" lon="-2.502883000">
        <ele>570.00</ele>
        <time>2014-11-01T10:35:23Z</time>
      </trkpt>
      <trkpt lat="42.326978000" lon="-2.502834000">
        <ele>570.50</ele>
        <time>2014-11-01T10:35:24Z</time>
      </trkpt>
      <trkpt lat="42.327005000" lon="-2.502781000">
        <ele>570.90</ele>
        <time>2014-11-01T10:35:25Z</time>
      </trkpt>
      <trkpt lat="42.327030000" lon="-2.502729000">
        <ele>571.10</ele>
        <time>2014-11-01T10:35:26Z</time>
      </trkpt>
      <trkpt lat="42.327055000" lon="-2.502679000">
        <ele>571.40</ele>
        <time>2014-11-01T10:35:27Z</time>
      </trkpt>
      <trkpt lat="42.327080000" lon="-2.502630000">
        <ele>571.50</ele>
        <time>2014-11-01T10:35:28Z</time>
      </trkpt>
      <trkpt lat="42.327105000" lon="-2.502578000">
        <ele>571.60</ele>
        <time>2014-11-01T10:35:29Z</time>
      </trkpt>
      <trkpt lat="42.327132000" lon="-2.502525000">
        <ele>571.40</ele>
        <time>2014-11-01T10:35:30Z</time>
      </trkpt>
      <trkpt lat="42.327159000" lon="-2.502471000">
        <ele>571.30</ele>
        <time>2014-11-01T10:35:31Z</time>
      </trkpt>
      <trkpt lat="42.327186000" lon="-2.502415000">
        <ele>571.20</ele>
        <time>2014-11-01T10:35:32Z</time>
      </trkpt>
      <trkpt lat="42.327216000" lon="-2.502357000">
        <ele>571.10</ele>
        <time>2014-11-01T10:35:33Z</time>
      </trkpt>
      <trkpt lat="42.327246000" lon="-2.502302000">
        <ele>571.10</ele>
        <time>2014-11-01T10:35:34Z</time>
      </trkpt>
      <trkpt lat="42.327279000" lon="-2.502248000">
        <ele>571.00</ele>
        <time>2014-11-01T10:35:35Z</time>
      </trkpt>
      <trkpt lat="42.327312000" lon="-2.502197000">
        <ele>570.70</ele>
        <time>2014-11-01T10:35:36Z</time>
      </trkpt>
      <trkpt lat="42.327346000" lon="-2.502149000">
        <ele>570.40</ele>
        <time>2014-11-01T10:35:37Z</time>
      </trkpt>
      <trkpt lat="42.327381000" lon="-2.502101000">
        <ele>570.40</ele>
        <time>2014-11-01T10:35:38Z</time>
      </trkpt>
      <trkpt lat="42.327415000" lon="-2.502055000">
        <ele>570.40</ele>
        <time>2014-11-01T10:35:39Z</time>
      </trkpt>
      <trkpt lat="42.327453000" lon="-2.502005000">
        <ele>570.40</ele>
        <time>2014-11-01T10:35:40Z</time>
      </trkpt>
      <trkpt lat="42.327491000" lon="-2.501959000">
        <ele>570.40</ele>
        <time>2014-11-01T10:35:41Z</time>
      </trkpt>
      <trkpt lat="42.327530000" lon="-2.501919000">
        <ele>570.40</ele>
        <time>2014-11-01T10:35:42Z</time>
      </trkpt>
      <trkpt lat="42.327568000" lon="-2.501879000">
        <ele>570.40</ele>
        <time>2014-11-01T10:35:43Z</time>
      </trkpt>
      <trkpt lat="42.327605000" lon="-2.501840000">
        <ele>570.50</ele>
        <time>2014-11-01T10:35:44Z</time>
      </trkpt>
      <trkpt lat="42.327643000" lon="-2.501804000">
        <ele>570.50</ele>
        <time>2014-11-01T10:35:45Z</time>
      </trkpt>
      <trkpt lat="42.327680000" lon="-2.501766000">
        <ele>570.40</ele>
        <time>2014-11-01T10:35:46Z</time>
      </trkpt>
      <trkpt lat="42.327716000" lon="-2.501728000">
        <ele>570.40</ele>
        <time>2014-11-01T10:35:47Z</time>
      </trkpt>
      <trkpt lat="42.327752000" lon="-2.501691000">
        <ele>570.40</ele>
        <time>2014-11-01T10:35:48Z</time>
      </trkpt>
      <trkpt lat="42.327787000" lon="-2.501656000">
        <ele>570.50</ele>
        <time>2014-11-01T10:35:49Z</time>
      </trkpt>
      <trkpt lat="42.327823000" lon="-2.501622000">
        <ele>570.40</ele>
        <time>2014-11-01T10:35:50Z</time>
      </trkpt>
      <trkpt lat="42.327857000" lon="-2.501591000">
        <ele>570.30</ele>
        <time>2014-11-01T10:35:51Z</time>
      </trkpt>
      <trkpt lat="42.327889000" lon="-2.501562000">
        <ele>570.50</ele>
        <time>2014-11-01T10:35:52Z</time>
      </trkpt>
      <trkpt lat="42.327921000" lon="-2.501533000">
        <ele>570.60</ele>
        <time>2014-11-01T10:35:53Z</time>
      </trkpt>
      <trkpt lat="42.327954000" lon="-2.501502000">
        <ele>570.70</ele>
        <time>2014-11-01T10:35:54Z</time>
      </trkpt>
      <trkpt lat="42.327987000" lon="-2.501473000">
        <ele>570.70</ele>
        <time>2014-11-01T10:35:55Z</time>
      </trkpt>
      <trkpt lat="42.328021000" lon="-2.501444000">
        <ele>570.80</ele>
        <time>2014-11-01T10:35:56Z</time>
      </trkpt>
      <trkpt lat="42.328054000" lon="-2.501411000">
        <ele>570.80</ele>
        <time>2014-11-01T10:35:57Z</time>
      </trkpt>
      <trkpt lat="42.328088000" lon="-2.501381000">
        <ele>571.00</ele>
        <time>2014-11-01T10:35:58Z</time>
      </trkpt>
      <trkpt lat="42.328121000" lon="-2.501353000">
        <ele>571.10</ele>
        <time>2014-11-01T10:35:59Z</time>
      </trkpt>
      <trkpt lat="42.328183000" lon="-2.501287000">
        <ele>571.50</ele>
        <time>2014-11-01T10:36:01Z</time>
      </trkpt>
      <trkpt lat="42.328215000" lon="-2.501251000">
        <ele>571.60</ele>
        <time>2014-11-01T10:36:02Z</time>
      </trkpt>
      <trkpt lat="42.328245000" lon="-2.501215000">
        <ele>571.70</ele>
        <time>2014-11-01T10:36:03Z</time>
      </trkpt>
      <trkpt lat="42.328279000" lon="-2.501184000">
        <ele>571.80</ele>
        <time>2014-11-01T10:36:04Z</time>
      </trkpt>
      <trkpt lat="42.328312000" lon="-2.501150000">
        <ele>571.80</ele>
        <time>2014-11-01T10:36:05Z</time>
      </trkpt>
      <trkpt lat="42.328347000" lon="-2.501112000">
        <ele>571.90</ele>
        <time>2014-11-01T10:36:06Z</time>
      </trkpt>
      <trkpt lat="42.328379000" lon="-2.501072000">
        <ele>571.90</ele>
        <time>2014-11-01T10:36:07Z</time>
      </trkpt>
      <trkpt lat="42.328412000" lon="-2.501029000">
        <ele>572.00</ele>
        <time>2014-11-01T10:36:08Z</time>
      </trkpt>
      <trkpt lat="42.328447000" lon="-2.500985000">
        <ele>572.00</ele>
        <time>2014-11-01T10:36:09Z</time>
      </trkpt>
      <trkpt lat="42.328483000" lon="-2.500943000">
        <ele>572.10</ele>
        <time>2014-11-01T10:36:10Z</time>
      </trkpt>
      <trkpt lat="42.328520000" lon="-2.500902000">
        <ele>572.10</ele>
        <time>2014-11-01T10:36:11Z</time>
      </trkpt>
      <trkpt lat="42.328556000" lon="-2.500861000">
        <ele>572.10</ele>
        <time>2014-11-01T10:36:12Z</time>
      </trkpt>
      <trkpt lat="42.328594000" lon="-2.500821000">
        <ele>572.20</ele>
        <time>2014-11-01T10:36:13Z</time>
      </trkpt>
      <trkpt lat="42.328633000" lon="-2.500780000">
        <ele>572.00</ele>
        <time>2014-11-01T10:36:14Z</time>
      </trkpt>
      <trkpt lat="42.328672000" lon="-2.500738000">
        <ele>571.90</ele>
        <time>2014-11-01T10:36:15Z</time>
      </trkpt>
      <trkpt lat="42.328712000" lon="-2.500696000">
        <ele>571.50</ele>
        <time>2014-11-01T10:36:16Z</time>
      </trkpt>
      <trkpt lat="42.328752000" lon="-2.500651000">
        <ele>571.20</ele>
        <time>2014-11-01T10:36:17Z</time>
      </trkpt>
      <trkpt lat="42.328792000" lon="-2.500608000">
        <ele>571.00</ele>
        <time>2014-11-01T10:36:18Z</time>
      </trkpt>
      <trkpt lat="42.328835000" lon="-2.500564000">
        <ele>570.90</ele>
        <time>2014-11-01T10:36:19Z</time>
      </trkpt>
      <trkpt lat="42.328880000" lon="-2.500523000">
        <ele>570.70</ele>
        <time>2014-11-01T10:36:20Z</time>
      </trkpt>
      <trkpt lat="42.328928000" lon="-2.500478000">
        <ele>570.70</ele>
        <time>2014-11-01T10:36:21Z</time>
      </trkpt>
      <trkpt lat="42.328981000" lon="-2.500429000">
        <ele>570.80</ele>
        <time>2014-11-01T10:36:22Z</time>
      </trkpt>
      <trkpt lat="42.329035000" lon="-2.500388000">
        <ele>570.90</ele>
        <time>2014-11-01T10:36:23Z</time>
      </trkpt>
      <trkpt lat="42.329089000" lon="-2.500350000">
        <ele>571.00</ele>
        <time>2014-11-01T10:36:24Z</time>
      </trkpt>
      <trkpt lat="42.329149000" lon="-2.500317000">
        <ele>571.00</ele>
        <time>2014-11-01T10:36:25Z</time>
      </trkpt>
      <trkpt lat="42.329213000" lon="-2.500287000">
        <ele>570.80</ele>
        <time>2014-11-01T10:36:26Z</time>
      </trkpt>
      <trkpt lat="42.329279000" lon="-2.500257000">
        <ele>570.60</ele>
        <time>2014-11-01T10:36:27Z</time>
      </trkpt>
      <trkpt lat="42.329345000" lon="-2.500232000">
        <ele>569.60</ele>
        <time>2014-11-01T10:36:28Z</time>
      </trkpt>
      <trkpt lat="42.329414000" lon="-2.500209000">
        <ele>568.80</ele>
        <time>2014-11-01T10:36:29Z</time>
      </trkpt>
      <trkpt lat="42.329483000" lon="-2.500189000">
        <ele>568.60</ele>
        <time>2014-11-01T10:36:30Z</time>
      </trkpt>
      <trkpt lat="42.329551000" lon="-2.500169000">
        <ele>568.50</ele>
        <time>2014-11-01T10:36:31Z</time>
      </trkpt>
      <trkpt lat="42.329618000" lon="-2.500150000">
        <ele>568.40</ele>
        <time>2014-11-01T10:36:32Z</time>
      </trkpt>
      <trkpt lat="42.329688000" lon="-2.500134000">
        <ele>568.30</ele>
        <time>2014-11-01T10:36:33Z</time>
      </trkpt>
      <trkpt lat="42.329754000" lon="-2.500121000">
        <ele>568.20</ele>
        <time>2014-11-01T10:36:34Z</time>
      </trkpt>
      <trkpt lat="42.329823000" lon="-2.500113000">
        <ele>568.20</ele>
        <time>2014-11-01T10:36:35Z</time>
      </trkpt>
      <trkpt lat="42.329890000" lon="-2.500109000">
        <ele>567.50</ele>
        <time>2014-11-01T10:36:36Z</time>
      </trkpt>
      <trkpt lat="42.329955000" lon="-2.500100000">
        <ele>566.90</ele>
        <time>2014-11-01T10:36:37Z</time>
      </trkpt>
      <trkpt lat="42.330021000" lon="-2.500086000">
        <ele>566.40</ele>
        <time>2014-11-01T10:36:38Z</time>
      </trkpt>
      <trkpt lat="42.330086000" lon="-2.500061000">
        <ele>566.10</ele>
        <time>2014-11-01T10:36:39Z</time>
      </trkpt>
      <trkpt lat="42.330153000" lon="-2.500036000">
        <ele>565.80</ele>
        <time>2014-11-01T10:36:40Z</time>
      </trkpt>
      <trkpt lat="42.330221000" lon="-2.500004000">
        <ele>565.60</ele>
        <time>2014-11-01T10:36:41Z</time>
      </trkpt>
      <trkpt lat="42.330289000" lon="-2.499966000">
        <ele>565.10</ele>
        <time>2014-11-01T10:36:42Z</time>
      </trkpt>
      <trkpt lat="42.330355000" lon="-2.499920000">
        <ele>564.80</ele>
        <time>2014-11-01T10:36:43Z</time>
      </trkpt>
      <trkpt lat="42.330417000" lon="-2.499870000">
        <ele>564.40</ele>
        <time>2014-11-01T10:36:44Z</time>
      </trkpt>
      <trkpt lat="42.330481000" lon="-2.499820000">
        <ele>564.20</ele>
        <time>2014-11-01T10:36:45Z</time>
      </trkpt>
      <trkpt lat="42.330546000" lon="-2.499771000">
        <ele>563.90</ele>
        <time>2014-11-01T10:36:46Z</time>
      </trkpt>
      <trkpt lat="42.330611000" lon="-2.499725000">
        <ele>563.60</ele>
        <time>2014-11-01T10:36:47Z</time>
      </trkpt>
      <trkpt lat="42.330674000" lon="-2.499678000">
        <ele>563.30</ele>
        <time>2014-11-01T10:36:48Z</time>
      </trkpt>
      <trkpt lat="42.330731000" lon="-2.499625000">
        <ele>563.00</ele>
        <time>2014-11-01T10:36:49Z</time>
      </trkpt>
      <trkpt lat="42.330786000" lon="-2.499571000">
        <ele>562.80</ele>
        <time>2014-11-01T10:36:50Z</time>
      </trkpt>
      <trkpt lat="42.330843000" lon="-2.499528000">
        <ele>562.60</ele>
        <time>2014-11-01T10:36:51Z</time>
      </trkpt>
      <trkpt lat="42.330898000" lon="-2.499490000">
        <ele>562.50</ele>
        <time>2014-11-01T10:36:52Z</time>
      </trkpt>
      <trkpt lat="42.330954000" lon="-2.499455000">
        <ele>562.40</ele>
        <time>2014-11-01T10:36:53Z</time>
      </trkpt>
      <trkpt lat="42.331009000" lon="-2.499420000">
        <ele>562.20</ele>
        <time>2014-11-01T10:36:54Z</time>
      </trkpt>
      <trkpt lat="42.331062000" lon="-2.499387000">
        <ele>562.10</ele>
        <time>2014-11-01T10:36:55Z</time>
      </trkpt>
      <trkpt lat="42.331112000" lon="-2.499352000">
        <ele>562.10</ele>
        <time>2014-11-01T10:36:56Z</time>
      </trkpt>
      <trkpt lat="42.331163000" lon="-2.499316000">
        <ele>562.10</ele>
        <time>2014-11-01T10:36:57Z</time>
      </trkpt>
      <trkpt lat="42.331213000" lon="-2.499278000">
        <ele>562.10</ele>
        <time>2014-11-01T10:36:58Z</time>
      </trkpt>
      <trkpt lat="42.331263000" lon="-2.499244000">
        <ele>562.10</ele>
        <time>2014-11-01T10:36:59Z</time>
      </trkpt>
      <trkpt lat="42.331313000" lon="-2.499211000">
        <ele>562.10</ele>
        <time>2014-11-01T10:37:00Z</time>
      </trkpt>
      <trkpt lat="42.331409000" lon="-2.499143000">
        <ele>562.30</ele>
        <time>2014-11-01T10:37:02Z</time>
      </trkpt>
      <trkpt lat="42.331460000" lon="-2.499108000">
        <ele>562.40</ele>
        <time>2014-11-01T10:37:03Z</time>
      </trkpt>
      <trkpt lat="42.331510000" lon="-2.499074000">
        <ele>562.40</ele>
        <time>2014-11-01T10:37:04Z</time>
      </trkpt>
      <trkpt lat="42.331560000" lon="-2.499039000">
        <ele>562.50</ele>
        <time>2014-11-01T10:37:05Z</time>
      </trkpt>
      <trkpt lat="42.331608000" lon="-2.499004000">
        <ele>562.50</ele>
        <time>2014-11-01T10:37:06Z</time>
      </trkpt>
      <trkpt lat="42.331658000" lon="-2.498968000">
        <ele>562.60</ele>
        <time>2014-11-01T10:37:07Z</time>
      </trkpt>
      <trkpt lat="42.331708000" lon="-2.498929000">
        <ele>562.60</ele>
        <time>2014-11-01T10:37:08Z</time>
      </trkpt>
      <trkpt lat="42.331759000" lon="-2.498888000">
        <ele>562.60</ele>
        <time>2014-11-01T10:37:09Z</time>
      </trkpt>
      <trkpt lat="42.331810000" lon="-2.498846000">
        <ele>562.80</ele>
        <time>2014-11-01T10:37:10Z</time>
      </trkpt>
      <trkpt lat="42.331863000" lon="-2.498799000">
        <ele>563.00</ele>
        <time>2014-11-01T10:37:11Z</time>
      </trkpt>
      <trkpt lat="42.331913000" lon="-2.498751000">
        <ele>562.80</ele>
        <time>2014-11-01T10:37:12Z</time>
      </trkpt>
      <trkpt lat="42.331964000" lon="-2.498704000">
        <ele>562.70</ele>
        <time>2014-11-01T10:37:13Z</time>
      </trkpt>
      <trkpt lat="42.332016000" lon="-2.498657000">
        <ele>562.60</ele>
        <time>2014-11-01T10:37:14Z</time>
      </trkpt>
      <trkpt lat="42.332066000" lon="-2.498606000">
        <ele>562.60</ele>
        <time>2014-11-01T10:37:15Z</time>
      </trkpt>
      <trkpt lat="42.332115000" lon="-2.498555000">
        <ele>562.50</ele>
        <time>2014-11-01T10:37:16Z</time>
      </trkpt>
      <trkpt lat="42.332166000" lon="-2.498504000">
        <ele>562.40</ele>
        <time>2014-11-01T10:37:17Z</time>
      </trkpt>
      <trkpt lat="42.332217000" lon="-2.498454000">
        <ele>562.30</ele>
        <time>2014-11-01T10:37:18Z</time>
      </trkpt>
      <trkpt lat="42.332265000" lon="-2.498403000">
        <ele>562.30</ele>
        <time>2014-11-01T10:37:19Z</time>
      </trkpt>
      <trkpt lat="42.332316000" lon="-2.498349000">
        <ele>562.20</ele>
        <time>2014-11-01T10:37:20Z</time>
      </trkpt>
      <trkpt lat="42.332366000" lon="-2.498297000">
        <ele>562.20</ele>
        <time>2014-11-01T10:37:21Z</time>
      </trkpt>
      <trkpt lat="42.332416000" lon="-2.498245000">
        <ele>561.90</ele>
        <time>2014-11-01T10:37:22Z</time>
      </trkpt>
      <trkpt lat="42.332467000" lon="-2.498194000">
        <ele>561.60</ele>
        <time>2014-11-01T10:37:23Z</time>
      </trkpt>
      <trkpt lat="42.332519000" lon="-2.498139000">
        <ele>561.40</ele>
        <time>2014-11-01T10:37:24Z</time>
      </trkpt>
      <trkpt lat="42.332572000" lon="-2.498082000">
        <ele>561.30</ele>
        <time>2014-11-01T10:37:25Z</time>
      </trkpt>
      <trkpt lat="42.332623000" lon="-2.498024000">
        <ele>561.20</ele>
        <time>2014-11-01T10:37:26Z</time>
      </trkpt>
      <trkpt lat="42.332674000" lon="-2.497967000">
        <ele>561.10</ele>
        <time>2014-11-01T10:37:27Z</time>
      </trkpt>
      <trkpt lat="42.332726000" lon="-2.497907000">
        <ele>561.30</ele>
        <time>2014-11-01T10:37:28Z</time>
      </trkpt>
      <trkpt lat="42.332778000" lon="-2.497848000">
        <ele>561.40</ele>
        <time>2014-11-01T10:37:29Z</time>
      </trkpt>
      <trkpt lat="42.332828000" lon="-2.497787000">
        <ele>561.30</ele>
        <time>2014-11-01T10:37:30Z</time>
      </trkpt>
      <trkpt lat="42.332876000" lon="-2.497723000">
        <ele>561.20</ele>
        <time>2014-11-01T10:37:31Z</time>
      </trkpt>
      <trkpt lat="42.332921000" lon="-2.497663000">
        <ele>561.00</ele>
        <time>2014-11-01T10:37:32Z</time>
      </trkpt>
      <trkpt lat="42.332970000" lon="-2.497597000">
        <ele>560.80</ele>
        <time>2014-11-01T10:37:33Z</time>
      </trkpt>
      <trkpt lat="42.333022000" lon="-2.497530000">
        <ele>560.50</ele>
        <time>2014-11-01T10:37:34Z</time>
      </trkpt>
      <trkpt lat="42.333076000" lon="-2.497473000">
        <ele>560.30</ele>
        <time>2014-11-01T10:37:35Z</time>
      </trkpt>
      <trkpt lat="42.333131000" lon="-2.497412000">
        <ele>560.10</ele>
        <time>2014-11-01T10:37:36Z</time>
      </trkpt>
      <trkpt lat="42.333187000" lon="-2.497348000">
        <ele>560.00</ele>
        <time>2014-11-01T10:37:37Z</time>
      </trkpt>
      <trkpt lat="42.333244000" lon="-2.497289000">
        <ele>559.90</ele>
        <time>2014-11-01T10:37:38Z</time>
      </trkpt>
      <trkpt lat="42.333300000" lon="-2.497224000">
        <ele>559.80</ele>
        <time>2014-11-01T10:37:39Z</time>
      </trkpt>
      <trkpt lat="42.333355000" lon="-2.497159000">
        <ele>559.80</ele>
        <time>2014-11-01T10:37:40Z</time>
      </trkpt>
      <trkpt lat="42.333408000" lon="-2.497090000">
        <ele>559.70</ele>
        <time>2014-11-01T10:37:41Z</time>
      </trkpt>
      <trkpt lat="42.333461000" lon="-2.497023000">
        <ele>559.40</ele>
        <time>2014-11-01T10:37:42Z</time>
      </trkpt>
      <trkpt lat="42.333513000" lon="-2.496957000">
        <ele>559.20</ele>
        <time>2014-11-01T10:37:43Z</time>
      </trkpt>
      <trkpt lat="42.333566000" lon="-2.496894000">
        <ele>559.10</ele>
        <time>2014-11-01T10:37:44Z</time>
      </trkpt>
      <trkpt lat="42.333619000" lon="-2.496834000">
        <ele>558.90</ele>
        <time>2014-11-01T10:37:45Z</time>
      </trkpt>
      <trkpt lat="42.333672000" lon="-2.496771000">
        <ele>558.80</ele>
        <time>2014-11-01T10:37:46Z</time>
      </trkpt>
      <trkpt lat="42.333723000" lon="-2.496709000">
        <ele>558.70</ele>
        <time>2014-11-01T10:37:47Z</time>
      </trkpt>
      <trkpt lat="42.333774000" lon="-2.496649000">
        <ele>558.50</ele>
        <time>2014-11-01T10:37:48Z</time>
      </trkpt>
      <trkpt lat="42.333825000" lon="-2.496587000">
        <ele>558.40</ele>
        <time>2014-11-01T10:37:49Z</time>
      </trkpt>
      <trkpt lat="42.333876000" lon="-2.496527000">
        <ele>557.90</ele>
        <time>2014-11-01T10:37:50Z</time>
      </trkpt>
      <trkpt lat="42.333926000" lon="-2.496468000">
        <ele>557.60</ele>
        <time>2014-11-01T10:37:51Z</time>
      </trkpt>
      <trkpt lat="42.333973000" lon="-2.496407000">
        <ele>557.30</ele>
        <time>2014-11-01T10:37:52Z</time>
      </trkpt>
      <trkpt lat="42.334021000" lon="-2.496345000">
        <ele>557.10</ele>
        <time>2014-11-01T10:37:53Z</time>
      </trkpt>
      <trkpt lat="42.334062000" lon="-2.496280000">
        <ele>556.90</ele>
        <time>2014-11-01T10:37:54Z</time>
      </trkpt>
      <trkpt lat="42.334105000" lon="-2.496215000">
        <ele>556.80</ele>
        <time>2014-11-01T10:37:55Z</time>
      </trkpt>
      <trkpt lat="42.334146000" lon="-2.496147000">
        <ele>557.00</ele>
        <time>2014-11-01T10:37:56Z</time>
      </trkpt>
      <trkpt lat="42.334189000" lon="-2.496079000">
        <ele>557.10</ele>
        <time>2014-11-01T10:37:57Z</time>
      </trkpt>
      <trkpt lat="42.334231000" lon="-2.496010000">
        <ele>557.00</ele>
        <time>2014-11-01T10:37:58Z</time>
      </trkpt>
      <trkpt lat="42.334271000" lon="-2.495938000">
        <ele>556.90</ele>
        <time>2014-11-01T10:37:59Z</time>
      </trkpt>
      <trkpt lat="42.334310000" lon="-2.495867000">
        <ele>556.80</ele>
        <time>2014-11-01T10:38:00Z</time>
      </trkpt>
      <trkpt lat="42.334351000" lon="-2.495797000">
        <ele>556.80</ele>
        <time>2014-11-01T10:38:01Z</time>
      </trkpt>
      <trkpt lat="42.334427000" lon="-2.495659000">
        <ele>556.40</ele>
        <time>2014-11-01T10:38:03Z</time>
      </trkpt>
      <trkpt lat="42.334467000" lon="-2.495591000">
        <ele>556.20</ele>
        <time>2014-11-01T10:38:04Z</time>
      </trkpt>
      <trkpt lat="42.334507000" lon="-2.495524000">
        <ele>556.00</ele>
        <time>2014-11-01T10:38:05Z</time>
      </trkpt>
      <trkpt lat="42.334545000" lon="-2.495458000">
        <ele>555.90</ele>
        <time>2014-11-01T10:38:06Z</time>
      </trkpt>
      <trkpt lat="42.334582000" lon="-2.495390000">
        <ele>555.80</ele>
        <time>2014-11-01T10:38:07Z</time>
      </trkpt>
      <trkpt lat="42.334621000" lon="-2.495322000">
        <ele>555.70</ele>
        <time>2014-11-01T10:38:08Z</time>
      </trkpt>
      <trkpt lat="42.334661000" lon="-2.495253000">
        <ele>555.60</ele>
        <time>2014-11-01T10:38:09Z</time>
      </trkpt>
      <trkpt lat="42.334702000" lon="-2.495182000">
        <ele>555.60</ele>
        <time>2014-11-01T10:38:10Z</time>
      </trkpt>
      <trkpt lat="42.334744000" lon="-2.495113000">
        <ele>555.50</ele>
        <time>2014-11-01T10:38:11Z</time>
      </trkpt>
      <trkpt lat="42.334786000" lon="-2.495045000">
        <ele>555.40</ele>
        <time>2014-11-01T10:38:12Z</time>
      </trkpt>
      <trkpt lat="42.334827000" lon="-2.494975000">
        <ele>555.20</ele>
        <time>2014-11-01T10:38:13Z</time>
      </trkpt>
      <trkpt lat="42.334867000" lon="-2.494904000">
        <ele>555.00</ele>
        <time>2014-11-01T10:38:14Z</time>
      </trkpt>
      <trkpt lat="42.334907000" lon="-2.494834000">
        <ele>554.80</ele>
        <time>2014-11-01T10:38:15Z</time>
      </trkpt>
      <trkpt lat="42.334950000" lon="-2.494767000">
        <ele>554.70</ele>
        <time>2014-11-01T10:38:16Z</time>
      </trkpt>
      <trkpt lat="42.334999000" lon="-2.494710000">
        <ele>554.60</ele>
        <time>2014-11-01T10:38:17Z</time>
      </trkpt>
      <trkpt lat="42.335043000" lon="-2.494650000">
        <ele>554.50</ele>
        <time>2014-11-01T10:38:18Z</time>
      </trkpt>
      <trkpt lat="42.335086000" lon="-2.494588000">
        <ele>554.50</ele>
        <time>2014-11-01T10:38:19Z</time>
      </trkpt>
      <trkpt lat="42.335131000" lon="-2.494532000">
        <ele>554.30</ele>
        <time>2014-11-01T10:38:20Z</time>
      </trkpt>
      <trkpt lat="42.335180000" lon="-2.494473000">
        <ele>554.20</ele>
        <time>2014-11-01T10:38:21Z</time>
      </trkpt>
      <trkpt lat="42.335230000" lon="-2.494413000">
        <ele>554.00</ele>
        <time>2014-11-01T10:38:22Z</time>
      </trkpt>
      <trkpt lat="42.335283000" lon="-2.494356000">
        <ele>553.90</ele>
        <time>2014-11-01T10:38:23Z</time>
      </trkpt>
      <trkpt lat="42.335336000" lon="-2.494300000">
        <ele>553.80</ele>
        <time>2014-11-01T10:38:24Z</time>
      </trkpt>
      <trkpt lat="42.335391000" lon="-2.494239000">
        <ele>553.70</ele>
        <time>2014-11-01T10:38:25Z</time>
      </trkpt>
      <trkpt lat="42.335445000" lon="-2.494180000">
        <ele>553.70</ele>
        <time>2014-11-01T10:38:26Z</time>
      </trkpt>
      <trkpt lat="42.335500000" lon="-2.494124000">
        <ele>553.60</ele>
        <time>2014-11-01T10:38:27Z</time>
      </trkpt>
      <trkpt lat="42.335552000" lon="-2.494065000">
        <ele>553.50</ele>
        <time>2014-11-01T10:38:28Z</time>
      </trkpt>
      <trkpt lat="42.335603000" lon="-2.494006000">
        <ele>553.40</ele>
        <time>2014-11-01T10:38:29Z</time>
      </trkpt>
      <trkpt lat="42.335653000" lon="-2.493951000">
        <ele>553.10</ele>
        <time>2014-11-01T10:38:30Z</time>
      </trkpt>
      <trkpt lat="42.335702000" lon="-2.493895000">
        <ele>553.00</ele>
        <time>2014-11-01T10:38:31Z</time>
      </trkpt>
      <trkpt lat="42.335749000" lon="-2.493842000">
        <ele>552.70</ele>
        <time>2014-11-01T10:38:32Z</time>
      </trkpt>
      <trkpt lat="42.335791000" lon="-2.493789000">
        <ele>552.50</ele>
        <time>2014-11-01T10:38:33Z</time>
      </trkpt>
      <trkpt lat="42.335831000" lon="-2.493737000">
        <ele>552.30</ele>
        <time>2014-11-01T10:38:34Z</time>
      </trkpt>
      <trkpt lat="42.335870000" lon="-2.493684000">
        <ele>552.20</ele>
        <time>2014-11-01T10:38:35Z</time>
      </trkpt>
      <trkpt lat="42.335905000" lon="-2.493630000">
        <ele>552.10</ele>
        <time>2014-11-01T10:38:36Z</time>
      </trkpt>
      <trkpt lat="42.335942000" lon="-2.493576000">
        <ele>552.00</ele>
        <time>2014-11-01T10:38:37Z</time>
      </trkpt>
      <trkpt lat="42.335980000" lon="-2.493524000">
        <ele>551.80</ele>
        <time>2014-11-01T10:38:38Z</time>
      </trkpt>
      <trkpt lat="42.336017000" lon="-2.493471000">
        <ele>551.70</ele>
        <time>2014-11-01T10:38:39Z</time>
      </trkpt>
      <trkpt lat="42.336052000" lon="-2.493421000">
        <ele>551.70</ele>
        <time>2014-11-01T10:38:40Z</time>
      </trkpt>
      <trkpt lat="42.336089000" lon="-2.493373000">
        <ele>551.70</ele>
        <time>2014-11-01T10:38:41Z</time>
      </trkpt>
      <trkpt lat="42.336125000" lon="-2.493324000">
        <ele>551.70</ele>
        <time>2014-11-01T10:38:42Z</time>
      </trkpt>
      <trkpt lat="42.336159000" lon="-2.493272000">
        <ele>551.70</ele>
        <time>2014-11-01T10:38:43Z</time>
      </trkpt>
      <trkpt lat="42.336198000" lon="-2.493220000">
        <ele>551.90</ele>
        <time>2014-11-01T10:38:44Z</time>
      </trkpt>
      <trkpt lat="42.336239000" lon="-2.493172000">
        <ele>552.10</ele>
        <time>2014-11-01T10:38:45Z</time>
      </trkpt>
      <trkpt lat="42.336283000" lon="-2.493135000">
        <ele>552.20</ele>
        <time>2014-11-01T10:38:46Z</time>
      </trkpt>
      <trkpt lat="42.336331000" lon="-2.493117000">
        <ele>552.20</ele>
        <time>2014-11-01T10:38:47Z</time>
      </trkpt>
      <trkpt lat="42.336377000" lon="-2.493118000">
        <ele>552.10</ele>
        <time>2014-11-01T10:38:48Z</time>
      </trkpt>
      <trkpt lat="42.336421000" lon="-2.493127000">
        <ele>552.00</ele>
        <time>2014-11-01T10:38:49Z</time>
      </trkpt>
      <trkpt lat="42.336463000" lon="-2.493130000">
        <ele>551.70</ele>
        <time>2014-11-01T10:38:50Z</time>
      </trkpt>
      <trkpt lat="42.336506000" lon="-2.493111000">
        <ele>551.50</ele>
        <time>2014-11-01T10:38:51Z</time>
      </trkpt>
      <trkpt lat="42.336538000" lon="-2.493066000">
        <ele>551.50</ele>
        <time>2014-11-01T10:38:52Z</time>
      </trkpt>
      <trkpt lat="42.336552000" lon="-2.493003000">
        <ele>551.50</ele>
        <time>2014-11-01T10:38:53Z</time>
      </trkpt>
      <trkpt lat="42.336553000" lon="-2.492930000">
        <ele>551.40</ele>
        <time>2014-11-01T10:38:54Z</time>
      </trkpt>
      <trkpt lat="42.336554000" lon="-2.492858000">
        <ele>551.20</ele>
        <time>2014-11-01T10:38:55Z</time>
      </trkpt>
      <trkpt lat="42.336571000" lon="-2.492793000">
        <ele>551.20</ele>
        <time>2014-11-01T10:38:56Z</time>
      </trkpt>
      <trkpt lat="42.336601000" lon="-2.492736000">
        <ele>551.20</ele>
        <time>2014-11-01T10:38:57Z</time>
      </trkpt>
      <trkpt lat="42.336638000" lon="-2.492687000">
        <ele>551.20</ele>
        <time>2014-11-01T10:38:58Z</time>
      </trkpt>
      <trkpt lat="42.336686000" lon="-2.492647000">
        <ele>551.20</ele>
        <time>2014-11-01T10:38:59Z</time>
      </trkpt>
      <trkpt lat="42.336743000" lon="-2.492614000">
        <ele>551.20</ele>
        <time>2014-11-01T10:39:00Z</time>
      </trkpt>
      <trkpt lat="42.336801000" lon="-2.492585000">
        <ele>551.20</ele>
        <time>2014-11-01T10:39:01Z</time>
      </trkpt>
      <trkpt lat="42.336860000" lon="-2.492547000">
        <ele>551.20</ele>
        <time>2014-11-01T10:39:02Z</time>
      </trkpt>
      <trkpt lat="42.336967000" lon="-2.492443000">
        <ele>551.10</ele>
        <time>2014-11-01T10:39:04Z</time>
      </trkpt>
      <trkpt lat="42.337012000" lon="-2.492385000">
        <ele>551.10</ele>
        <time>2014-11-01T10:39:05Z</time>
      </trkpt>
      <trkpt lat="42.337054000" lon="-2.492326000">
        <ele>550.90</ele>
        <time>2014-11-01T10:39:06Z</time>
      </trkpt>
      <trkpt lat="42.337092000" lon="-2.492266000">
        <ele>550.80</ele>
        <time>2014-11-01T10:39:07Z</time>
      </trkpt>
      <trkpt lat="42.337128000" lon="-2.492204000">
        <ele>550.60</ele>
        <time>2014-11-01T10:39:08Z</time>
      </trkpt>
      <trkpt lat="42.337161000" lon="-2.492141000">
        <ele>550.50</ele>
        <time>2014-11-01T10:39:09Z</time>
      </trkpt>
      <trkpt lat="42.337195000" lon="-2.492080000">
        <ele>550.30</ele>
        <time>2014-11-01T10:39:10Z</time>
      </trkpt>
      <trkpt lat="42.337226000" lon="-2.492021000">
        <ele>550.10</ele>
        <time>2014-11-01T10:39:11Z</time>
      </trkpt>
      <trkpt lat="42.337256000" lon="-2.491961000">
        <ele>550.10</ele>
        <time>2014-11-01T10:39:12Z</time>
      </trkpt>
      <trkpt lat="42.337286000" lon="-2.491905000">
        <ele>550.00</ele>
        <time>2014-11-01T10:39:13Z</time>
      </trkpt>
      <trkpt lat="42.337317000" lon="-2.491847000">
        <ele>550.00</ele>
        <time>2014-11-01T10:39:14Z</time>
      </trkpt>
      <trkpt lat="42.337345000" lon="-2.491789000">
        <ele>550.00</ele>
        <time>2014-11-01T10:39:15Z</time>
      </trkpt>
      <trkpt lat="42.337374000" lon="-2.491729000">
        <ele>550.10</ele>
        <time>2014-11-01T10:39:16Z</time>
      </trkpt>
      <trkpt lat="42.337400000" lon="-2.491669000">
        <ele>550.10</ele>
        <time>2014-11-01T10:39:17Z</time>
      </trkpt>
      <trkpt lat="42.337428000" lon="-2.491608000">
        <ele>550.20</ele>
        <time>2014-11-01T10:39:18Z</time>
      </trkpt>
      <trkpt lat="42.337455000" lon="-2.491549000">
        <ele>550.30</ele>
        <time>2014-11-01T10:39:19Z</time>
      </trkpt>
      <trkpt lat="42.337482000" lon="-2.491486000">
        <ele>550.50</ele>
        <time>2014-11-01T10:39:20Z</time>
      </trkpt>
      <trkpt lat="42.337508000" lon="-2.491425000">
        <ele>550.70</ele>
        <time>2014-11-01T10:39:21Z</time>
      </trkpt>
      <trkpt lat="42.337533000" lon="-2.491363000">
        <ele>550.90</ele>
        <time>2014-11-01T10:39:22Z</time>
      </trkpt>
      <trkpt lat="42.337556000" lon="-2.491300000">
        <ele>551.00</ele>
        <time>2014-11-01T10:39:23Z</time>
      </trkpt>
      <trkpt lat="42.337581000" lon="-2.491239000">
        <ele>551.10</ele>
        <time>2014-11-01T10:39:24Z</time>
      </trkpt>
      <trkpt lat="42.337605000" lon="-2.491178000">
        <ele>551.20</ele>
        <time>2014-11-01T10:39:25Z</time>
      </trkpt>
      <trkpt lat="42.337628000" lon="-2.491116000">
        <ele>551.30</ele>
        <time>2014-11-01T10:39:26Z</time>
      </trkpt>
      <trkpt lat="42.337653000" lon="-2.491055000">
        <ele>551.40</ele>
        <time>2014-11-01T10:39:27Z</time>
      </trkpt>
      <trkpt lat="42.337676000" lon="-2.490994000">
        <ele>551.60</ele>
        <time>2014-11-01T10:39:28Z</time>
      </trkpt>
      <trkpt lat="42.337699000" lon="-2.490931000">
        <ele>551.70</ele>
        <time>2014-11-01T10:39:29Z</time>
      </trkpt>
      <trkpt lat="42.337725000" lon="-2.490866000">
        <ele>551.80</ele>
        <time>2014-11-01T10:39:30Z</time>
      </trkpt>
      <trkpt lat="42.337753000" lon="-2.490800000">
        <ele>551.90</ele>
        <time>2014-11-01T10:39:31Z</time>
      </trkpt>
      <trkpt lat="42.337781000" lon="-2.490733000">
        <ele>552.10</ele>
        <time>2014-11-01T10:39:32Z</time>
      </trkpt>
      <trkpt lat="42.337806000" lon="-2.490666000">
        <ele>552.30</ele>
        <time>2014-11-01T10:39:33Z</time>
      </trkpt>
      <trkpt lat="42.337830000" lon="-2.490602000">
        <ele>552.40</ele>
        <time>2014-11-01T10:39:34Z</time>
      </trkpt>
      <trkpt lat="42.337855000" lon="-2.490536000">
        <ele>552.50</ele>
        <time>2014-11-01T10:39:35Z</time>
      </trkpt>
      <trkpt lat="42.337880000" lon="-2.490469000">
        <ele>552.50</ele>
        <time>2014-11-01T10:39:36Z</time>
      </trkpt>
      <trkpt lat="42.337906000" lon="-2.490403000">
        <ele>552.60</ele>
        <time>2014-11-01T10:39:37Z</time>
      </trkpt>
      <trkpt lat="42.337932000" lon="-2.490335000">
        <ele>552.80</ele>
        <time>2014-11-01T10:39:38Z</time>
      </trkpt>
      <trkpt lat="42.337960000" lon="-2.490266000">
        <ele>552.90</ele>
        <time>2014-11-01T10:39:39Z</time>
      </trkpt>
      <trkpt lat="42.337987000" lon="-2.490197000">
        <ele>553.00</ele>
        <time>2014-11-01T10:39:40Z</time>
      </trkpt>
      <trkpt lat="42.338016000" lon="-2.490125000">
        <ele>553.10</ele>
        <time>2014-11-01T10:39:41Z</time>
      </trkpt>
      <trkpt lat="42.338045000" lon="-2.490055000">
        <ele>553.10</ele>
        <time>2014-11-01T10:39:42Z</time>
      </trkpt>
      <trkpt lat="42.338074000" lon="-2.489985000">
        <ele>553.10</ele>
        <time>2014-11-01T10:39:43Z</time>
      </trkpt>
      <trkpt lat="42.338102000" lon="-2.489915000">
        <ele>553.20</ele>
        <time>2014-11-01T10:39:44Z</time>
      </trkpt>
      <trkpt lat="42.338132000" lon="-2.489843000">
        <ele>553.20</ele>
        <time>2014-11-01T10:39:45Z</time>
      </trkpt>
      <trkpt lat="42.338160000" lon="-2.489772000">
        <ele>553.20</ele>
        <time>2014-11-01T10:39:46Z</time>
      </trkpt>
      <trkpt lat="42.338187000" lon="-2.489702000">
        <ele>553.20</ele>
        <time>2014-11-01T10:39:47Z</time>
      </trkpt>
      <trkpt lat="42.338216000" lon="-2.489629000">
        <ele>553.10</ele>
        <time>2014-11-01T10:39:48Z</time>
      </trkpt>
      <trkpt lat="42.338245000" lon="-2.489554000">
        <ele>553.00</ele>
        <time>2014-11-01T10:39:49Z</time>
      </trkpt>
      <trkpt lat="42.338273000" lon="-2.489483000">
        <ele>552.90</ele>
        <time>2014-11-01T10:39:50Z</time>
      </trkpt>
      <trkpt lat="42.338301000" lon="-2.489409000">
        <ele>552.80</ele>
        <time>2014-11-01T10:39:51Z</time>
      </trkpt>
      <trkpt lat="42.338328000" lon="-2.489340000">
        <ele>552.50</ele>
        <time>2014-11-01T10:39:52Z</time>
      </trkpt>
      <trkpt lat="42.338356000" lon="-2.489268000">
        <ele>552.30</ele>
        <time>2014-11-01T10:39:53Z</time>
      </trkpt>
      <trkpt lat="42.338385000" lon="-2.489197000">
        <ele>552.20</ele>
        <time>2014-11-01T10:39:54Z</time>
      </trkpt>
      <trkpt lat="42.338412000" lon="-2.489128000">
        <ele>552.00</ele>
        <time>2014-11-01T10:39:55Z</time>
      </trkpt>
      <trkpt lat="42.338439000" lon="-2.489055000">
        <ele>552.00</ele>
        <time>2014-11-01T10:39:56Z</time>
      </trkpt>
      <trkpt lat="42.338469000" lon="-2.488984000">
        <ele>551.90</ele>
        <time>2014-11-01T10:39:57Z</time>
      </trkpt>
      <trkpt lat="42.338500000" lon="-2.488912000">
        <ele>551.90</ele>
        <time>2014-11-01T10:39:58Z</time>
      </trkpt>
      <trkpt lat="42.338531000" lon="-2.488839000">
        <ele>551.90</ele>
        <time>2014-11-01T10:39:59Z</time>
      </trkpt>
      <trkpt lat="42.338559000" lon="-2.488770000">
        <ele>551.90</ele>
        <time>2014-11-01T10:40:00Z</time>
      </trkpt>
      <trkpt lat="42.338588000" lon="-2.488705000">
        <ele>551.90</ele>
        <time>2014-11-01T10:40:01Z</time>
      </trkpt>
      <trkpt lat="42.338617000" lon="-2.488639000">
        <ele>551.90</ele>
        <time>2014-11-01T10:40:02Z</time>
      </trkpt>
      <trkpt lat="42.338646000" lon="-2.488572000">
        <ele>552.00</ele>
        <time>2014-11-01T10:40:03Z</time>
      </trkpt>
      <trkpt lat="42.338708000" lon="-2.488442000">
        <ele>551.80</ele>
        <time>2014-11-01T10:40:05Z</time>
      </trkpt>
      <trkpt lat="42.338746000" lon="-2.488375000">
        <ele>551.70</ele>
        <time>2014-11-01T10:40:06Z</time>
      </trkpt>
      <trkpt lat="42.338787000" lon="-2.488305000">
        <ele>551.60</ele>
        <time>2014-11-01T10:40:07Z</time>
      </trkpt>
      <trkpt lat="42.338830000" lon="-2.488232000">
        <ele>551.50</ele>
        <time>2014-11-01T10:40:08Z</time>
      </trkpt>
      <trkpt lat="42.338871000" lon="-2.488155000">
        <ele>551.40</ele>
        <time>2014-11-01T10:40:09Z</time>
      </trkpt>
      <trkpt lat="42.338911000" lon="-2.488085000">
        <ele>551.30</ele>
        <time>2014-11-01T10:40:10Z</time>
      </trkpt>
      <trkpt lat="42.338949000" lon="-2.488016000">
        <ele>551.20</ele>
        <time>2014-11-01T10:40:11Z</time>
      </trkpt>
      <trkpt lat="42.338990000" lon="-2.487949000">
        <ele>551.20</ele>
        <time>2014-11-01T10:40:12Z</time>
      </trkpt>
      <trkpt lat="42.339029000" lon="-2.487880000">
        <ele>551.10</ele>
        <time>2014-11-01T10:40:13Z</time>
      </trkpt>
      <trkpt lat="42.339066000" lon="-2.487813000">
        <ele>551.00</ele>
        <time>2014-11-01T10:40:14Z</time>
      </trkpt>
      <trkpt lat="42.339104000" lon="-2.487747000">
        <ele>551.00</ele>
        <time>2014-11-01T10:40:15Z</time>
      </trkpt>
      <trkpt lat="42.339142000" lon="-2.487683000">
        <ele>550.80</ele>
        <time>2014-11-01T10:40:16Z</time>
      </trkpt>
      <trkpt lat="42.339180000" lon="-2.487619000">
        <ele>550.60</ele>
        <time>2014-11-01T10:40:17Z</time>
      </trkpt>
      <trkpt lat="42.339220000" lon="-2.487558000">
        <ele>550.50</ele>
        <time>2014-11-01T10:40:18Z</time>
      </trkpt>
      <trkpt lat="42.339258000" lon="-2.487498000">
        <ele>550.50</ele>
        <time>2014-11-01T10:40:19Z</time>
      </trkpt>
      <trkpt lat="42.339298000" lon="-2.487440000">
        <ele>550.40</ele>
        <time>2014-11-01T10:40:20Z</time>
      </trkpt>
      <trkpt lat="42.339334000" lon="-2.487380000">
        <ele>550.40</ele>
        <time>2014-11-01T10:40:21Z</time>
      </trkpt>
      <trkpt lat="42.339370000" lon="-2.487322000">
        <ele>550.50</ele>
        <time>2014-11-01T10:40:22Z</time>
      </trkpt>
      <trkpt lat="42.339407000" lon="-2.487259000">
        <ele>550.50</ele>
        <time>2014-11-01T10:40:23Z</time>
      </trkpt>
      <trkpt lat="42.339443000" lon="-2.487198000">
        <ele>550.40</ele>
        <time>2014-11-01T10:40:24Z</time>
      </trkpt>
      <trkpt lat="42.339479000" lon="-2.487141000">
        <ele>550.30</ele>
        <time>2014-11-01T10:40:25Z</time>
      </trkpt>
      <trkpt lat="42.339516000" lon="-2.487083000">
        <ele>550.10</ele>
        <time>2014-11-01T10:40:26Z</time>
      </trkpt>
      <trkpt lat="42.339553000" lon="-2.487025000">
        <ele>549.90</ele>
        <time>2014-11-01T10:40:27Z</time>
      </trkpt>
      <trkpt lat="42.339590000" lon="-2.486968000">
        <ele>549.80</ele>
        <time>2014-11-01T10:40:28Z</time>
      </trkpt>
      <trkpt lat="42.339626000" lon="-2.486913000">
        <ele>549.70</ele>
        <time>2014-11-01T10:40:29Z</time>
      </trkpt>
      <trkpt lat="42.339659000" lon="-2.486858000">
        <ele>549.60</ele>
        <time>2014-11-01T10:40:30Z</time>
      </trkpt>
      <trkpt lat="42.339693000" lon="-2.486804000">
        <ele>549.60</ele>
        <time>2014-11-01T10:40:31Z</time>
      </trkpt>
      <trkpt lat="42.339729000" lon="-2.486755000">
        <ele>549.60</ele>
        <time>2014-11-01T10:40:32Z</time>
      </trkpt>
      <trkpt lat="42.339766000" lon="-2.486707000">
        <ele>549.50</ele>
        <time>2014-11-01T10:40:33Z</time>
      </trkpt>
      <trkpt lat="42.339807000" lon="-2.486686000">
        <ele>549.40</ele>
        <time>2014-11-01T10:40:34Z</time>
      </trkpt>
      <trkpt lat="42.339851000" lon="-2.486671000">
        <ele>549.40</ele>
        <time>2014-11-01T10:40:35Z</time>
      </trkpt>
      <trkpt lat="42.339894000" lon="-2.486657000">
        <ele>549.40</ele>
        <time>2014-11-01T10:40:36Z</time>
      </trkpt>
      <trkpt lat="42.339939000" lon="-2.486647000">
        <ele>549.40</ele>
        <time>2014-11-01T10:40:37Z</time>
      </trkpt>
      <trkpt lat="42.339993000" lon="-2.486652000">
        <ele>549.50</ele>
        <time>2014-11-01T10:40:38Z</time>
      </trkpt>
      <trkpt lat="42.340054000" lon="-2.486675000">
        <ele>549.70</ele>
        <time>2014-11-01T10:40:39Z</time>
      </trkpt>
      <trkpt lat="42.340122000" lon="-2.486717000">
        <ele>549.70</ele>
        <time>2014-11-01T10:40:40Z</time>
      </trkpt>
      <trkpt lat="42.340188000" lon="-2.486769000">
        <ele>549.80</ele>
        <time>2014-11-01T10:40:41Z</time>
      </trkpt>
      <trkpt lat="42.340252000" lon="-2.486823000">
        <ele>549.10</ele>
        <time>2014-11-01T10:40:42Z</time>
      </trkpt>
      <trkpt lat="42.340321000" lon="-2.486880000">
        <ele>548.70</ele>
        <time>2014-11-01T10:40:43Z</time>
      </trkpt>
      <trkpt lat="42.340394000" lon="-2.486938000">
        <ele>548.00</ele>
        <time>2014-11-01T10:40:44Z</time>
      </trkpt>
      <trkpt lat="42.340470000" lon="-2.486996000">
        <ele>547.60</ele>
        <time>2014-11-01T10:40:45Z</time>
      </trkpt>
      <trkpt lat="42.340551000" lon="-2.487048000">
        <ele>547.20</ele>
        <time>2014-11-01T10:40:46Z</time>
      </trkpt>
      <trkpt lat="42.340634000" lon="-2.487089000">
        <ele>546.90</ele>
        <time>2014-11-01T10:40:47Z</time>
      </trkpt>
      <trkpt lat="42.340715000" lon="-2.487126000">
        <ele>546.30</ele>
        <time>2014-11-01T10:40:48Z</time>
      </trkpt>
      <trkpt lat="42.340790000" lon="-2.487174000">
        <ele>545.80</ele>
        <time>2014-11-01T10:40:49Z</time>
      </trkpt>
      <trkpt lat="42.340860000" lon="-2.487233000">
        <ele>545.40</ele>
        <time>2014-11-01T10:40:50Z</time>
      </trkpt>
      <trkpt lat="42.340932000" lon="-2.487298000">
        <ele>545.00</ele>
        <time>2014-11-01T10:40:51Z</time>
      </trkpt>
      <trkpt lat="42.341005000" lon="-2.487374000">
        <ele>544.20</ele>
        <time>2014-11-01T10:40:52Z</time>
      </trkpt>
      <trkpt lat="42.341076000" lon="-2.487459000">
        <ele>543.70</ele>
        <time>2014-11-01T10:40:53Z</time>
      </trkpt>
      <trkpt lat="42.341145000" lon="-2.487546000">
        <ele>543.20</ele>
        <time>2014-11-01T10:40:54Z</time>
      </trkpt>
      <trkpt lat="42.341220000" lon="-2.487624000">
        <ele>542.90</ele>
        <time>2014-11-01T10:40:55Z</time>
      </trkpt>
      <trkpt lat="42.341295000" lon="-2.487703000">
        <ele>542.60</ele>
        <time>2014-11-01T10:40:56Z</time>
      </trkpt>
      <trkpt lat="42.341373000" lon="-2.487775000">
        <ele>542.50</ele>
        <time>2014-11-01T10:40:57Z</time>
      </trkpt>
      <trkpt lat="42.341451000" lon="-2.487843000">
        <ele>541.80</ele>
        <time>2014-11-01T10:40:58Z</time>
      </trkpt>
      <trkpt lat="42.341525000" lon="-2.487905000">
        <ele>541.30</ele>
        <time>2014-11-01T10:40:59Z</time>
      </trkpt>
      <trkpt lat="42.341599000" lon="-2.487956000">
        <ele>540.60</ele>
        <time>2014-11-01T10:41:00Z</time>
      </trkpt>
      <trkpt lat="42.341674000" lon="-2.487998000">
        <ele>540.10</ele>
        <time>2014-11-01T10:41:01Z</time>
      </trkpt>
      <trkpt lat="42.341744000" lon="-2.488033000">
        <ele>539.40</ele>
        <time>2014-11-01T10:41:02Z</time>
      </trkpt>
      <trkpt lat="42.341814000" lon="-2.488068000">
        <ele>538.80</ele>
        <time>2014-11-01T10:41:03Z</time>
      </trkpt>
      <trkpt lat="42.341881000" lon="-2.488109000">
        <ele>538.40</ele>
        <time>2014-11-01T10:41:04Z</time>
      </trkpt>
      <trkpt lat="42.342005000" lon="-2.488195000">
        <ele>537.60</ele>
        <time>2014-11-01T10:41:06Z</time>
      </trkpt>
      <trkpt lat="42.342068000" lon="-2.488237000">
        <ele>537.30</ele>
        <time>2014-11-01T10:41:07Z</time>
      </trkpt>
      <trkpt lat="42.342132000" lon="-2.488280000">
        <ele>537.00</ele>
        <time>2014-11-01T10:41:08Z</time>
      </trkpt>
      <trkpt lat="42.342195000" lon="-2.488330000">
        <ele>536.70</ele>
        <time>2014-11-01T10:41:09Z</time>
      </trkpt>
      <trkpt lat="42.342254000" lon="-2.488383000">
        <ele>536.30</ele>
        <time>2014-11-01T10:41:10Z</time>
      </trkpt>
      <trkpt lat="42.342312000" lon="-2.488438000">
        <ele>536.00</ele>
        <time>2014-11-01T10:41:11Z</time>
      </trkpt>
      <trkpt lat="42.342366000" lon="-2.488492000">
        <ele>535.70</ele>
        <time>2014-11-01T10:41:12Z</time>
      </trkpt>
      <trkpt lat="42.342427000" lon="-2.488539000">
        <ele>535.50</ele>
        <time>2014-11-01T10:41:13Z</time>
      </trkpt>
      <trkpt lat="42.342493000" lon="-2.488578000">
        <ele>535.30</ele>
        <time>2014-11-01T10:41:14Z</time>
      </trkpt>
      <trkpt lat="42.342563000" lon="-2.488603000">
        <ele>535.10</ele>
        <time>2014-11-01T10:41:15Z</time>
      </trkpt>
      <trkpt lat="42.342629000" lon="-2.488625000">
        <ele>534.90</ele>
        <time>2014-11-01T10:41:16Z</time>
      </trkpt>
      <trkpt lat="42.342697000" lon="-2.488636000">
        <ele>534.80</ele>
        <time>2014-11-01T10:41:17Z</time>
      </trkpt>
      <trkpt lat="42.342768000" lon="-2.488647000">
        <ele>534.50</ele>
        <time>2014-11-01T10:41:18Z</time>
      </trkpt>
      <trkpt lat="42.342837000" lon="-2.488657000">
        <ele>534.20</ele>
        <time>2014-11-01T10:41:19Z</time>
      </trkpt>
      <trkpt lat="42.342908000" lon="-2.488663000">
        <ele>533.90</ele>
        <time>2014-11-01T10:41:20Z</time>
      </trkpt>
      <trkpt lat="42.342979000" lon="-2.488669000">
        <ele>533.60</ele>
        <time>2014-11-01T10:41:21Z</time>
      </trkpt>
      <trkpt lat="42.343050000" lon="-2.488682000">
        <ele>533.20</ele>
        <time>2014-11-01T10:41:22Z</time>
      </trkpt>
      <trkpt lat="42.343121000" lon="-2.488692000">
        <ele>532.80</ele>
        <time>2014-11-01T10:41:23Z</time>
      </trkpt>
      <trkpt lat="42.343192000" lon="-2.488702000">
        <ele>532.80</ele>
        <time>2014-11-01T10:41:24Z</time>
      </trkpt>
      <trkpt lat="42.343261000" lon="-2.488710000">
        <ele>532.80</ele>
        <time>2014-11-01T10:41:25Z</time>
      </trkpt>
      <trkpt lat="42.343331000" lon="-2.488719000">
        <ele>532.80</ele>
        <time>2014-11-01T10:41:26Z</time>
      </trkpt>
      <trkpt lat="42.343401000" lon="-2.488728000">
        <ele>532.70</ele>
        <time>2014-11-01T10:41:27Z</time>
      </trkpt>
      <trkpt lat="42.343471000" lon="-2.488739000">
        <ele>532.70</ele>
        <time>2014-11-01T10:41:28Z</time>
      </trkpt>
      <trkpt lat="42.343538000" lon="-2.488748000">
        <ele>532.70</ele>
        <time>2014-11-01T10:41:29Z</time>
      </trkpt>
      <trkpt lat="42.343603000" lon="-2.488761000">
        <ele>532.60</ele>
        <time>2014-11-01T10:41:30Z</time>
      </trkpt>
      <trkpt lat="42.343659000" lon="-2.488775000">
        <ele>532.50</ele>
        <time>2014-11-01T10:41:31Z</time>
      </trkpt>
      <trkpt lat="42.343717000" lon="-2.488789000">
        <ele>532.30</ele>
        <time>2014-11-01T10:41:32Z</time>
      </trkpt>
      <trkpt lat="42.343775000" lon="-2.488810000">
        <ele>532.10</ele>
        <time>2014-11-01T10:41:33Z</time>
      </trkpt>
      <trkpt lat="42.343833000" lon="-2.488834000">
        <ele>532.00</ele>
        <time>2014-11-01T10:41:34Z</time>
      </trkpt>
      <trkpt lat="42.343893000" lon="-2.488856000">
        <ele>531.90</ele>
        <time>2014-11-01T10:41:35Z</time>
      </trkpt>
      <trkpt lat="42.343951000" lon="-2.488871000">
        <ele>532.00</ele>
        <time>2014-11-01T10:41:36Z</time>
      </trkpt>
      <trkpt lat="42.344013000" lon="-2.488889000">
        <ele>532.10</ele>
        <time>2014-11-01T10:41:37Z</time>
      </trkpt>
      <trkpt lat="42.344075000" lon="-2.488905000">
        <ele>532.10</ele>
        <time>2014-11-01T10:41:38Z</time>
      </trkpt>
      <trkpt lat="42.344139000" lon="-2.488919000">
        <ele>532.20</ele>
        <time>2014-11-01T10:41:39Z</time>
      </trkpt>
      <trkpt lat="42.344208000" lon="-2.488932000">
        <ele>532.00</ele>
        <time>2014-11-01T10:41:40Z</time>
      </trkpt>
      <trkpt lat="42.344278000" lon="-2.488939000">
        <ele>531.90</ele>
        <time>2014-11-01T10:41:41Z</time>
      </trkpt>
      <trkpt lat="42.344349000" lon="-2.488954000">
        <ele>531.80</ele>
        <time>2014-11-01T10:41:42Z</time>
      </trkpt>
      <trkpt lat="42.344417000" lon="-2.488976000">
        <ele>531.80</ele>
        <time>2014-11-01T10:41:43Z</time>
      </trkpt>
      <trkpt lat="42.344480000" lon="-2.488999000">
        <ele>531.70</ele>
        <time>2014-11-01T10:41:44Z</time>
      </trkpt>
      <trkpt lat="42.344536000" lon="-2.489031000">
        <ele>531.70</ele>
        <time>2014-11-01T10:41:45Z</time>
      </trkpt>
      <trkpt lat="42.344586000" lon="-2.489069000">
        <ele>531.60</ele>
        <time>2014-11-01T10:41:46Z</time>
      </trkpt>
      <trkpt lat="42.344629000" lon="-2.489119000">
        <ele>531.50</ele>
        <time>2014-11-01T10:41:47Z</time>
      </trkpt>
      <trkpt lat="42.344668000" lon="-2.489174000">
        <ele>531.20</ele>
        <time>2014-11-01T10:41:48Z</time>
      </trkpt>
      <trkpt lat="42.344704000" lon="-2.489229000">
        <ele>531.00</ele>
        <time>2014-11-01T10:41:49Z</time>
      </trkpt>
      <trkpt lat="42.344741000" lon="-2.489284000">
        <ele>531.10</ele>
        <time>2014-11-01T10:41:50Z</time>
      </trkpt>
      <trkpt lat="42.344778000" lon="-2.489341000">
        <ele>531.10</ele>
        <time>2014-11-01T10:41:51Z</time>
      </trkpt>
      <trkpt lat="42.344814000" lon="-2.489394000">
        <ele>531.20</ele>
        <time>2014-11-01T10:41:52Z</time>
      </trkpt>
      <trkpt lat="42.344848000" lon="-2.489445000">
        <ele>531.20</ele>
        <time>2014-11-01T10:41:53Z</time>
      </trkpt>
      <trkpt lat="42.344881000" lon="-2.489491000">
        <ele>531.30</ele>
        <time>2014-11-01T10:41:54Z</time>
      </trkpt>
      <trkpt lat="42.344911000" lon="-2.489537000">
        <ele>531.40</ele>
        <time>2014-11-01T10:41:55Z</time>
      </trkpt>
      <trkpt lat="42.344943000" lon="-2.489574000">
        <ele>531.50</ele>
        <time>2014-11-01T10:41:56Z</time>
      </trkpt>
      <trkpt lat="42.344974000" lon="-2.489613000">
        <ele>531.60</ele>
        <time>2014-11-01T10:41:57Z</time>
      </trkpt>
      <trkpt lat="42.344999000" lon="-2.489660000">
        <ele>531.60</ele>
        <time>2014-11-01T10:41:58Z</time>
      </trkpt>
      <trkpt lat="42.345021000" lon="-2.489707000">
        <ele>531.70</ele>
        <time>2014-11-01T10:41:59Z</time>
      </trkpt>
      <trkpt lat="42.345044000" lon="-2.489749000">
        <ele>531.80</ele>
        <time>2014-11-01T10:42:00Z</time>
      </trkpt>
      <trkpt lat="42.345069000" lon="-2.489782000">
        <ele>532.00</ele>
        <time>2014-11-01T10:42:01Z</time>
      </trkpt>
      <trkpt lat="42.345099000" lon="-2.489800000">
        <ele>532.10</ele>
        <time>2014-11-01T10:42:02Z</time>
      </trkpt>
      <trkpt lat="42.345126000" lon="-2.489792000">
        <ele>532.20</ele>
        <time>2014-11-01T10:42:03Z</time>
      </trkpt>
      <trkpt lat="42.345155000" lon="-2.489774000">
        <ele>532.70</ele>
        <time>2014-11-01T10:42:04Z</time>
      </trkpt>
      <trkpt lat="42.345185000" lon="-2.489750000">
        <ele>533.00</ele>
        <time>2014-11-01T10:42:05Z</time>
      </trkpt>
      <trkpt lat="42.345243000" lon="-2.489700000">
        <ele>533.60</ele>
        <time>2014-11-01T10:42:07Z</time>
      </trkpt>
      <trkpt lat="42.345272000" lon="-2.489673000">
        <ele>534.10</ele>
        <time>2014-11-01T10:42:08Z</time>
      </trkpt>
      <trkpt lat="42.345300000" lon="-2.489639000">
        <ele>534.50</ele>
        <time>2014-11-01T10:42:09Z</time>
      </trkpt>
      <trkpt lat="42.345328000" lon="-2.489603000">
        <ele>534.60</ele>
        <time>2014-11-01T10:42:10Z</time>
      </trkpt>
      <trkpt lat="42.345356000" lon="-2.489560000">
        <ele>534.70</ele>
        <time>2014-11-01T10:42:11Z</time>
      </trkpt>
      <trkpt lat="42.345386000" lon="-2.489514000">
        <ele>534.80</ele>
        <time>2014-11-01T10:42:12Z</time>
      </trkpt>
      <trkpt lat="42.345418000" lon="-2.489469000">
        <ele>535.00</ele>
        <time>2014-11-01T10:42:13Z</time>
      </trkpt>
      <trkpt lat="42.345449000" lon="-2.489422000">
        <ele>534.90</ele>
        <time>2014-11-01T10:42:14Z</time>
      </trkpt>
      <trkpt lat="42.345483000" lon="-2.489377000">
        <ele>534.90</ele>
        <time>2014-11-01T10:42:15Z</time>
      </trkpt>
      <trkpt lat="42.345519000" lon="-2.489332000">
        <ele>534.90</ele>
        <time>2014-11-01T10:42:16Z</time>
      </trkpt>
      <trkpt lat="42.345560000" lon="-2.489290000">
        <ele>534.90</ele>
        <time>2014-11-01T10:42:17Z</time>
      </trkpt>
      <trkpt lat="42.345607000" lon="-2.489252000">
        <ele>534.90</ele>
        <time>2014-11-01T10:42:18Z</time>
      </trkpt>
      <trkpt lat="42.345655000" lon="-2.489220000">
        <ele>534.90</ele>
        <time>2014-11-01T10:42:19Z</time>
      </trkpt>
      <trkpt lat="42.345709000" lon="-2.489192000">
        <ele>534.90</ele>
        <time>2014-11-01T10:42:20Z</time>
      </trkpt>
      <trkpt lat="42.345764000" lon="-2.489161000">
        <ele>534.90</ele>
        <time>2014-11-01T10:42:21Z</time>
      </trkpt>
      <trkpt lat="42.345815000" lon="-2.489124000">
        <ele>534.60</ele>
        <time>2014-11-01T10:42:22Z</time>
      </trkpt>
      <trkpt lat="42.345866000" lon="-2.489089000">
        <ele>534.30</ele>
        <time>2014-11-01T10:42:23Z</time>
      </trkpt>
      <trkpt lat="42.345914000" lon="-2.489054000">
        <ele>534.00</ele>
        <time>2014-11-01T10:42:24Z</time>
      </trkpt>
      <trkpt lat="42.345962000" lon="-2.489022000">
        <ele>533.80</ele>
        <time>2014-11-01T10:42:25Z</time>
      </trkpt>
      <trkpt lat="42.346010000" lon="-2.488990000">
        <ele>533.60</ele>
        <time>2014-11-01T10:42:26Z</time>
      </trkpt>
      <trkpt lat="42.346056000" lon="-2.488956000">
        <ele>533.50</ele>
        <time>2014-11-01T10:42:27Z</time>
      </trkpt>
      <trkpt lat="42.346103000" lon="-2.488923000">
        <ele>533.30</ele>
        <time>2014-11-01T10:42:28Z</time>
      </trkpt>
      <trkpt lat="42.346148000" lon="-2.488890000">
        <ele>533.10</ele>
        <time>2014-11-01T10:42:29Z</time>
      </trkpt>
      <trkpt lat="42.346189000" lon="-2.488858000">
        <ele>533.00</ele>
        <time>2014-11-01T10:42:30Z</time>
      </trkpt>
      <trkpt lat="42.346230000" lon="-2.488826000">
        <ele>532.90</ele>
        <time>2014-11-01T10:42:31Z</time>
      </trkpt>
      <trkpt lat="42.346271000" lon="-2.488796000">
        <ele>532.80</ele>
        <time>2014-11-01T10:42:32Z</time>
      </trkpt>
      <trkpt lat="42.346311000" lon="-2.488765000">
        <ele>532.80</ele>
        <time>2014-11-01T10:42:33Z</time>
      </trkpt>
      <trkpt lat="42.346355000" lon="-2.488731000">
        <ele>532.70</ele>
        <time>2014-11-01T10:42:34Z</time>
      </trkpt>
      <trkpt lat="42.346400000" lon="-2.488696000">
        <ele>532.70</ele>
        <time>2014-11-01T10:42:35Z</time>
      </trkpt>
      <trkpt lat="42.346445000" lon="-2.488660000">
        <ele>533.00</ele>
        <time>2014-11-01T10:42:36Z</time>
      </trkpt>
      <trkpt lat="42.346488000" lon="-2.488625000">
        <ele>533.20</ele>
        <time>2014-11-01T10:42:37Z</time>
      </trkpt>
      <trkpt lat="42.346530000" lon="-2.488588000">
        <ele>533.40</ele>
        <time>2014-11-01T10:42:38Z</time>
      </trkpt>
      <trkpt lat="42.346571000" lon="-2.488546000">
        <ele>533.50</ele>
        <time>2014-11-01T10:42:39Z</time>
      </trkpt>
      <trkpt lat="42.346611000" lon="-2.488507000">
        <ele>533.90</ele>
        <time>2014-11-01T10:42:40Z</time>
      </trkpt>
      <trkpt lat="42.346653000" lon="-2.488470000">
        <ele>534.10</ele>
        <time>2014-11-01T10:42:41Z</time>
      </trkpt>
      <trkpt lat="42.346694000" lon="-2.488429000">
        <ele>534.60</ele>
        <time>2014-11-01T10:42:42Z</time>
      </trkpt>
      <trkpt lat="42.346731000" lon="-2.488385000">
        <ele>535.00</ele>
        <time>2014-11-01T10:42:43Z</time>
      </trkpt>
      <trkpt lat="42.346768000" lon="-2.488341000">
        <ele>535.00</ele>
        <time>2014-11-01T10:42:44Z</time>
      </trkpt>
      <trkpt lat="42.346808000" lon="-2.488298000">
        <ele>534.90</ele>
        <time>2014-11-01T10:42:45Z</time>
      </trkpt>
      <trkpt lat="42.346848000" lon="-2.488256000">
        <ele>534.50</ele>
        <time>2014-11-01T10:42:46Z</time>
      </trkpt>
      <trkpt lat="42.346889000" lon="-2.488217000">
        <ele>534.10</ele>
        <time>2014-11-01T10:42:47Z</time>
      </trkpt>
      <trkpt lat="42.346932000" lon="-2.488183000">
        <ele>533.80</ele>
        <time>2014-11-01T10:42:48Z</time>
      </trkpt>
      <trkpt lat="42.346975000" lon="-2.488145000">
        <ele>533.60</ele>
        <time>2014-11-01T10:42:49Z</time>
      </trkpt>
      <trkpt lat="42.347019000" lon="-2.488111000">
        <ele>533.40</ele>
        <time>2014-11-01T10:42:50Z</time>
      </trkpt>
      <trkpt lat="42.347063000" lon="-2.488076000">
        <ele>533.30</ele>
        <time>2014-11-01T10:42:51Z</time>
      </trkpt>
      <trkpt lat="42.347105000" lon="-2.488041000">
        <ele>533.30</ele>
        <time>2014-11-01T10:42:52Z</time>
      </trkpt>
      <trkpt lat="42.347148000" lon="-2.488004000">
        <ele>533.30</ele>
        <time>2014-11-01T10:42:53Z</time>
      </trkpt>
      <trkpt lat="42.347193000" lon="-2.487970000">
        <ele>533.50</ele>
        <time>2014-11-01T10:42:54Z</time>
      </trkpt>
      <trkpt lat="42.347237000" lon="-2.487932000">
        <ele>533.60</ele>
        <time>2014-11-01T10:42:55Z</time>
      </trkpt>
      <trkpt lat="42.347278000" lon="-2.487891000">
        <ele>533.70</ele>
        <time>2014-11-01T10:42:56Z</time>
      </trkpt>
      <trkpt lat="42.347318000" lon="-2.487846000">
        <ele>533.70</ele>
        <time>2014-11-01T10:42:57Z</time>
      </trkpt>
      <trkpt lat="42.347358000" lon="-2.487800000">
        <ele>533.60</ele>
        <time>2014-11-01T10:42:58Z</time>
      </trkpt>
      <trkpt lat="42.347396000" lon="-2.487753000">
        <ele>533.60</ele>
        <time>2014-11-01T10:42:59Z</time>
      </trkpt>
      <trkpt lat="42.347434000" lon="-2.487703000">
        <ele>533.50</ele>
        <time>2014-11-01T10:43:00Z</time>
      </trkpt>
      <trkpt lat="42.347472000" lon="-2.487652000">
        <ele>533.50</ele>
        <time>2014-11-01T10:43:01Z</time>
      </trkpt>
      <trkpt lat="42.347509000" lon="-2.487598000">
        <ele>533.50</ele>
        <time>2014-11-01T10:43:02Z</time>
      </trkpt>
      <trkpt lat="42.347548000" lon="-2.487544000">
        <ele>533.40</ele>
        <time>2014-11-01T10:43:03Z</time>
      </trkpt>
      <trkpt lat="42.347588000" lon="-2.487488000">
        <ele>533.00</ele>
        <time>2014-11-01T10:43:04Z</time>
      </trkpt>
      <trkpt lat="42.347624000" lon="-2.487431000">
        <ele>532.70</ele>
        <time>2014-11-01T10:43:05Z</time>
      </trkpt>
      <trkpt lat="42.347663000" lon="-2.487374000">
        <ele>532.50</ele>
        <time>2014-11-01T10:43:06Z</time>
      </trkpt>
      <trkpt lat="42.347737000" lon="-2.487258000">
        <ele>532.20</ele>
        <time>2014-11-01T10:43:08Z</time>
      </trkpt>
      <trkpt lat="42.347777000" lon="-2.487198000">
        <ele>532.10</ele>
        <time>2014-11-01T10:43:09Z</time>
      </trkpt>
      <trkpt lat="42.347816000" lon="-2.487138000">
        <ele>532.30</ele>
        <time>2014-11-01T10:43:10Z</time>
      </trkpt>
      <trkpt lat="42.347854000" lon="-2.487081000">
        <ele>532.40</ele>
        <time>2014-11-01T10:43:11Z</time>
      </trkpt>
      <trkpt lat="42.347891000" lon="-2.487023000">
        <ele>532.20</ele>
        <time>2014-11-01T10:43:12Z</time>
      </trkpt>
      <trkpt lat="42.347930000" lon="-2.486966000">
        <ele>531.90</ele>
        <time>2014-11-01T10:43:13Z</time>
      </trkpt>
      <trkpt lat="42.347968000" lon="-2.486910000">
        <ele>531.70</ele>
        <time>2014-11-01T10:43:14Z</time>
      </trkpt>
      <trkpt lat="42.348006000" lon="-2.486850000">
        <ele>531.60</ele>
        <time>2014-11-01T10:43:15Z</time>
      </trkpt>
      <trkpt lat="42.348043000" lon="-2.486786000">
        <ele>531.40</ele>
        <time>2014-11-01T10:43:16Z</time>
      </trkpt>
      <trkpt lat="42.348079000" lon="-2.486722000">
        <ele>531.30</ele>
        <time>2014-11-01T10:43:17Z</time>
      </trkpt>
      <trkpt lat="42.348113000" lon="-2.486656000">
        <ele>531.30</ele>
        <time>2014-11-01T10:43:18Z</time>
      </trkpt>
      <trkpt lat="42.348152000" lon="-2.486597000">
        <ele>531.30</ele>
        <time>2014-11-01T10:43:19Z</time>
      </trkpt>
      <trkpt lat="42.348197000" lon="-2.486542000">
        <ele>531.40</ele>
        <time>2014-11-01T10:43:20Z</time>
      </trkpt>
      <trkpt lat="42.348251000" lon="-2.486506000">
        <ele>531.50</ele>
        <time>2014-11-01T10:43:21Z</time>
      </trkpt>
      <trkpt lat="42.348308000" lon="-2.486478000">
        <ele>531.80</ele>
        <time>2014-11-01T10:43:22Z</time>
      </trkpt>
      <trkpt lat="42.348366000" lon="-2.486453000">
        <ele>532.00</ele>
        <time>2014-11-01T10:43:23Z</time>
      </trkpt>
      <trkpt lat="42.348422000" lon="-2.486426000">
        <ele>532.20</ele>
        <time>2014-11-01T10:43:24Z</time>
      </trkpt>
      <trkpt lat="42.348479000" lon="-2.486400000">
        <ele>532.30</ele>
        <time>2014-11-01T10:43:25Z</time>
      </trkpt>
      <trkpt lat="42.348538000" lon="-2.486375000">
        <ele>531.80</ele>
        <time>2014-11-01T10:43:26Z</time>
      </trkpt>
      <trkpt lat="42.348598000" lon="-2.486351000">
        <ele>531.50</ele>
        <time>2014-11-01T10:43:27Z</time>
      </trkpt>
      <trkpt lat="42.348656000" lon="-2.486325000">
        <ele>531.30</ele>
        <time>2014-11-01T10:43:28Z</time>
      </trkpt>
      <trkpt lat="42.348715000" lon="-2.486299000">
        <ele>531.10</ele>
        <time>2014-11-01T10:43:29Z</time>
      </trkpt>
      <trkpt lat="42.348776000" lon="-2.486271000">
        <ele>530.90</ele>
        <time>2014-11-01T10:43:30Z</time>
      </trkpt>
      <trkpt lat="42.348839000" lon="-2.486241000">
        <ele>530.80</ele>
        <time>2014-11-01T10:43:31Z</time>
      </trkpt>
      <trkpt lat="42.348902000" lon="-2.486214000">
        <ele>531.00</ele>
        <time>2014-11-01T10:43:32Z</time>
      </trkpt>
      <trkpt lat="42.348964000" lon="-2.486180000">
        <ele>531.20</ele>
        <time>2014-11-01T10:43:33Z</time>
      </trkpt>
      <trkpt lat="42.349023000" lon="-2.486146000">
        <ele>531.00</ele>
        <time>2014-11-01T10:43:34Z</time>
      </trkpt>
      <trkpt lat="42.349077000" lon="-2.486107000">
        <ele>530.90</ele>
        <time>2014-11-01T10:43:35Z</time>
      </trkpt>
      <trkpt lat="42.349131000" lon="-2.486062000">
        <ele>530.80</ele>
        <time>2014-11-01T10:43:36Z</time>
      </trkpt>
      <trkpt lat="42.349186000" lon="-2.486014000">
        <ele>530.80</ele>
        <time>2014-11-01T10:43:37Z</time>
      </trkpt>
      <trkpt lat="42.349240000" lon="-2.485965000">
        <ele>530.40</ele>
        <time>2014-11-01T10:43:38Z</time>
      </trkpt>
      <trkpt lat="42.349294000" lon="-2.485913000">
        <ele>530.20</ele>
        <time>2014-11-01T10:43:39Z</time>
      </trkpt>
      <trkpt lat="42.349346000" lon="-2.485861000">
        <ele>530.00</ele>
        <time>2014-11-01T10:43:40Z</time>
      </trkpt>
      <trkpt lat="42.349398000" lon="-2.485812000">
        <ele>529.80</ele>
        <time>2014-11-01T10:43:41Z</time>
      </trkpt>
      <trkpt lat="42.349452000" lon="-2.485763000">
        <ele>529.70</ele>
        <time>2014-11-01T10:43:42Z</time>
      </trkpt>
      <trkpt lat="42.349507000" lon="-2.485718000">
        <ele>529.60</ele>
        <time>2014-11-01T10:43:43Z</time>
      </trkpt>
      <trkpt lat="42.349563000" lon="-2.485678000">
        <ele>529.60</ele>
        <time>2014-11-01T10:43:44Z</time>
      </trkpt>
      <trkpt lat="42.349617000" lon="-2.485644000">
        <ele>529.60</ele>
        <time>2014-11-01T10:43:45Z</time>
      </trkpt>
      <trkpt lat="42.349668000" lon="-2.485615000">
        <ele>529.60</ele>
        <time>2014-11-01T10:43:46Z</time>
      </trkpt>
      <trkpt lat="42.349723000" lon="-2.485595000">
        <ele>529.60</ele>
        <time>2014-11-01T10:43:47Z</time>
      </trkpt>
      <trkpt lat="42.349780000" lon="-2.485573000">
        <ele>529.30</ele>
        <time>2014-11-01T10:43:48Z</time>
      </trkpt>
      <trkpt lat="42.349836000" lon="-2.485552000">
        <ele>529.00</ele>
        <time>2014-11-01T10:43:49Z</time>
      </trkpt>
      <trkpt lat="42.349891000" lon="-2.485531000">
        <ele>528.80</ele>
        <time>2014-11-01T10:43:50Z</time>
      </trkpt>
      <trkpt lat="42.349951000" lon="-2.485513000">
        <ele>528.70</ele>
        <time>2014-11-01T10:43:51Z</time>
      </trkpt>
      <trkpt lat="42.350012000" lon="-2.485495000">
        <ele>528.70</ele>
        <time>2014-11-01T10:43:52Z</time>
      </trkpt>
      <trkpt lat="42.350070000" lon="-2.485481000">
        <ele>528.70</ele>
        <time>2014-11-01T10:43:53Z</time>
      </trkpt>
      <trkpt lat="42.350128000" lon="-2.485468000">
        <ele>528.70</ele>
        <time>2014-11-01T10:43:54Z</time>
      </trkpt>
      <trkpt lat="42.350185000" lon="-2.485458000">
        <ele>528.80</ele>
        <time>2014-11-01T10:43:55Z</time>
      </trkpt>
      <trkpt lat="42.350242000" lon="-2.485448000">
        <ele>528.80</ele>
        <time>2014-11-01T10:43:56Z</time>
      </trkpt>
      <trkpt lat="42.350298000" lon="-2.485439000">
        <ele>528.90</ele>
        <time>2014-11-01T10:43:57Z</time>
      </trkpt>
      <trkpt lat="42.350353000" lon="-2.485424000">
        <ele>529.00</ele>
        <time>2014-11-01T10:43:58Z</time>
      </trkpt>
      <trkpt lat="42.350410000" lon="-2.485409000">
        <ele>529.10</ele>
        <time>2014-11-01T10:43:59Z</time>
      </trkpt>
      <trkpt lat="42.350467000" lon="-2.485388000">
        <ele>529.10</ele>
        <time>2014-11-01T10:44:00Z</time>
      </trkpt>
      <trkpt lat="42.350522000" lon="-2.485371000">
        <ele>529.20</ele>
        <time>2014-11-01T10:44:01Z</time>
      </trkpt>
      <trkpt lat="42.350577000" lon="-2.485344000">
        <ele>529.10</ele>
        <time>2014-11-01T10:44:02Z</time>
      </trkpt>
      <trkpt lat="42.350628000" lon="-2.485314000">
        <ele>529.00</ele>
        <time>2014-11-01T10:44:03Z</time>
      </trkpt>
      <trkpt lat="42.350680000" lon="-2.485284000">
        <ele>529.00</ele>
        <time>2014-11-01T10:44:04Z</time>
      </trkpt>
      <trkpt lat="42.350734000" lon="-2.485249000">
        <ele>528.90</ele>
        <time>2014-11-01T10:44:05Z</time>
      </trkpt>
      <trkpt lat="42.350790000" lon="-2.485217000">
        <ele>529.00</ele>
        <time>2014-11-01T10:44:06Z</time>
      </trkpt>
      <trkpt lat="42.350846000" lon="-2.485180000">
        <ele>529.10</ele>
        <time>2014-11-01T10:44:07Z</time>
      </trkpt>
      <trkpt lat="42.350960000" lon="-2.485102000">
        <ele>529.20</ele>
        <time>2014-11-01T10:44:09Z</time>
      </trkpt>
      <trkpt lat="42.351015000" lon="-2.485063000">
        <ele>528.60</ele>
        <time>2014-11-01T10:44:10Z</time>
      </trkpt>
      <trkpt lat="42.351069000" lon="-2.485027000">
        <ele>528.20</ele>
        <time>2014-11-01T10:44:11Z</time>
      </trkpt>
      <trkpt lat="42.351125000" lon="-2.484998000">
        <ele>527.90</ele>
        <time>2014-11-01T10:44:12Z</time>
      </trkpt>
      <trkpt lat="42.351184000" lon="-2.484976000">
        <ele>527.70</ele>
        <time>2014-11-01T10:44:13Z</time>
      </trkpt>
      <trkpt lat="42.351242000" lon="-2.484951000">
        <ele>527.60</ele>
        <time>2014-11-01T10:44:14Z</time>
      </trkpt>
      <trkpt lat="42.351296000" lon="-2.484917000">
        <ele>527.50</ele>
        <time>2014-11-01T10:44:15Z</time>
      </trkpt>
      <trkpt lat="42.351348000" lon="-2.484875000">
        <ele>527.50</ele>
        <time>2014-11-01T10:44:16Z</time>
      </trkpt>
      <trkpt lat="42.351399000" lon="-2.484836000">
        <ele>527.50</ele>
        <time>2014-11-01T10:44:17Z</time>
      </trkpt>
      <trkpt lat="42.351451000" lon="-2.484792000">
        <ele>527.50</ele>
        <time>2014-11-01T10:44:18Z</time>
      </trkpt>
      <trkpt lat="42.351504000" lon="-2.484749000">
        <ele>527.50</ele>
        <time>2014-11-01T10:44:19Z</time>
      </trkpt>
      <trkpt lat="42.351558000" lon="-2.484706000">
        <ele>527.30</ele>
        <time>2014-11-01T10:44:20Z</time>
      </trkpt>
      <trkpt lat="42.351612000" lon="-2.484657000">
        <ele>527.10</ele>
        <time>2014-11-01T10:44:21Z</time>
      </trkpt>
      <trkpt lat="42.351672000" lon="-2.484617000">
        <ele>527.00</ele>
        <time>2014-11-01T10:44:22Z</time>
      </trkpt>
      <trkpt lat="42.351736000" lon="-2.484592000">
        <ele>527.00</ele>
        <time>2014-11-01T10:44:23Z</time>
      </trkpt>
      <trkpt lat="42.351797000" lon="-2.484579000">
        <ele>526.90</ele>
        <time>2014-11-01T10:44:24Z</time>
      </trkpt>
      <trkpt lat="42.351858000" lon="-2.484562000">
        <ele>526.80</ele>
        <time>2014-11-01T10:44:25Z</time>
      </trkpt>
      <trkpt lat="42.351913000" lon="-2.484528000">
        <ele>527.10</ele>
        <time>2014-11-01T10:44:26Z</time>
      </trkpt>
      <trkpt lat="42.351959000" lon="-2.484484000">
        <ele>527.40</ele>
        <time>2014-11-01T10:44:27Z</time>
      </trkpt>
      <trkpt lat="42.352006000" lon="-2.484440000">
        <ele>527.10</ele>
        <time>2014-11-01T10:44:28Z</time>
      </trkpt>
      <trkpt lat="42.352061000" lon="-2.484416000">
        <ele>526.80</ele>
        <time>2014-11-01T10:44:29Z</time>
      </trkpt>
      <trkpt lat="42.352126000" lon="-2.484396000">
        <ele>526.80</ele>
        <time>2014-11-01T10:44:30Z</time>
      </trkpt>
      <trkpt lat="42.352195000" lon="-2.484377000">
        <ele>526.80</ele>
        <time>2014-11-01T10:44:31Z</time>
      </trkpt>
      <trkpt lat="42.352260000" lon="-2.484358000">
        <ele>526.60</ele>
        <time>2014-11-01T10:44:32Z</time>
      </trkpt>
      <trkpt lat="42.352328000" lon="-2.484330000">
        <ele>526.50</ele>
        <time>2014-11-01T10:44:33Z</time>
      </trkpt>
      <trkpt lat="42.352392000" lon="-2.484296000">
        <ele>526.50</ele>
        <time>2014-11-01T10:44:34Z</time>
      </trkpt>
      <trkpt lat="42.352453000" lon="-2.484253000">
        <ele>526.50</ele>
        <time>2014-11-01T10:44:35Z</time>
      </trkpt>
      <trkpt lat="42.352514000" lon="-2.484208000">
        <ele>526.50</ele>
        <time>2014-11-01T10:44:36Z</time>
      </trkpt>
      <trkpt lat="42.352574000" lon="-2.484162000">
        <ele>526.50</ele>
        <time>2014-11-01T10:44:37Z</time>
      </trkpt>
      <trkpt lat="42.352630000" lon="-2.484105000">
        <ele>526.50</ele>
        <time>2014-11-01T10:44:38Z</time>
      </trkpt>
      <trkpt lat="42.352684000" lon="-2.484052000">
        <ele>526.50</ele>
        <time>2014-11-01T10:44:39Z</time>
      </trkpt>
      <trkpt lat="42.352738000" lon="-2.484003000">
        <ele>526.30</ele>
        <time>2014-11-01T10:44:40Z</time>
      </trkpt>
      <trkpt lat="42.352789000" lon="-2.483952000">
        <ele>526.20</ele>
        <time>2014-11-01T10:44:41Z</time>
      </trkpt>
      <trkpt lat="42.352839000" lon="-2.483905000">
        <ele>526.00</ele>
        <time>2014-11-01T10:44:42Z</time>
      </trkpt>
      <trkpt lat="42.352886000" lon="-2.483858000">
        <ele>525.80</ele>
        <time>2014-11-01T10:44:43Z</time>
      </trkpt>
      <trkpt lat="42.352931000" lon="-2.483811000">
        <ele>525.70</ele>
        <time>2014-11-01T10:44:44Z</time>
      </trkpt>
      <trkpt lat="42.352976000" lon="-2.483763000">
        <ele>525.60</ele>
        <time>2014-11-01T10:44:45Z</time>
      </trkpt>
      <trkpt lat="42.353026000" lon="-2.483717000">
        <ele>525.50</ele>
        <time>2014-11-01T10:44:46Z</time>
      </trkpt>
      <trkpt lat="42.353077000" lon="-2.483671000">
        <ele>525.50</ele>
        <time>2014-11-01T10:44:47Z</time>
      </trkpt>
      <trkpt lat="42.353133000" lon="-2.483627000">
        <ele>525.50</ele>
        <time>2014-11-01T10:44:48Z</time>
      </trkpt>
      <trkpt lat="42.353188000" lon="-2.483584000">
        <ele>525.50</ele>
        <time>2014-11-01T10:44:49Z</time>
      </trkpt>
      <trkpt lat="42.353245000" lon="-2.483542000">
        <ele>525.40</ele>
        <time>2014-11-01T10:44:50Z</time>
      </trkpt>
      <trkpt lat="42.353304000" lon="-2.483503000">
        <ele>525.40</ele>
        <time>2014-11-01T10:44:51Z</time>
      </trkpt>
      <trkpt lat="42.353366000" lon="-2.483471000">
        <ele>525.40</ele>
        <time>2014-11-01T10:44:52Z</time>
      </trkpt>
      <trkpt lat="42.353426000" lon="-2.483450000">
        <ele>525.40</ele>
        <time>2014-11-01T10:44:53Z</time>
      </trkpt>
      <trkpt lat="42.353493000" lon="-2.483432000">
        <ele>525.10</ele>
        <time>2014-11-01T10:44:54Z</time>
      </trkpt>
      <trkpt lat="42.353562000" lon="-2.483421000">
        <ele>524.90</ele>
        <time>2014-11-01T10:44:55Z</time>
      </trkpt>
      <trkpt lat="42.353633000" lon="-2.483408000">
        <ele>524.70</ele>
        <time>2014-11-01T10:44:56Z</time>
      </trkpt>
      <trkpt lat="42.353700000" lon="-2.483392000">
        <ele>524.60</ele>
        <time>2014-11-01T10:44:57Z</time>
      </trkpt>
      <trkpt lat="42.353765000" lon="-2.483369000">
        <ele>524.60</ele>
        <time>2014-11-01T10:44:58Z</time>
      </trkpt>
      <trkpt lat="42.353829000" lon="-2.483315000">
        <ele>524.60</ele>
        <time>2014-11-01T10:44:59Z</time>
      </trkpt>
      <trkpt lat="42.353887000" lon="-2.483281000">
        <ele>524.80</ele>
        <time>2014-11-01T10:45:00Z</time>
      </trkpt>
      <trkpt lat="42.353943000" lon="-2.483254000">
        <ele>525.00</ele>
        <time>2014-11-01T10:45:01Z</time>
      </trkpt>
      <trkpt lat="42.353997000" lon="-2.483216000">
        <ele>524.90</ele>
        <time>2014-11-01T10:45:02Z</time>
      </trkpt>
      <trkpt lat="42.354050000" lon="-2.483173000">
        <ele>524.80</ele>
        <time>2014-11-01T10:45:03Z</time>
      </trkpt>
      <trkpt lat="42.354107000" lon="-2.483129000">
        <ele>524.60</ele>
        <time>2014-11-01T10:45:04Z</time>
      </trkpt>
      <trkpt lat="42.354160000" lon="-2.483083000">
        <ele>524.50</ele>
        <time>2014-11-01T10:45:05Z</time>
      </trkpt>
      <trkpt lat="42.354217000" lon="-2.483040000">
        <ele>524.20</ele>
        <time>2014-11-01T10:45:06Z</time>
      </trkpt>
      <trkpt lat="42.354275000" lon="-2.482991000">
        <ele>524.00</ele>
        <time>2014-11-01T10:45:07Z</time>
      </trkpt>
      <trkpt lat="42.354331000" lon="-2.482939000">
        <ele>523.90</ele>
        <time>2014-11-01T10:45:08Z</time>
      </trkpt>
      <trkpt lat="42.354447000" lon="-2.482852000">
        <ele>523.80</ele>
        <time>2014-11-01T10:45:10Z</time>
      </trkpt>
      <trkpt lat="42.354509000" lon="-2.482815000">
        <ele>523.80</ele>
        <time>2014-11-01T10:45:11Z</time>
      </trkpt>
      <trkpt lat="42.354575000" lon="-2.482783000">
        <ele>523.80</ele>
        <time>2014-11-01T10:45:12Z</time>
      </trkpt>
      <trkpt lat="42.354641000" lon="-2.482755000">
        <ele>523.70</ele>
        <time>2014-11-01T10:45:13Z</time>
      </trkpt>
      <trkpt lat="42.354708000" lon="-2.482724000">
        <ele>523.70</ele>
        <time>2014-11-01T10:45:14Z</time>
      </trkpt>
      <trkpt lat="42.354772000" lon="-2.482690000">
        <ele>523.70</ele>
        <time>2014-11-01T10:45:15Z</time>
      </trkpt>
      <trkpt lat="42.354832000" lon="-2.482651000">
        <ele>523.50</ele>
        <time>2014-11-01T10:45:16Z</time>
      </trkpt>
      <trkpt lat="42.354890000" lon="-2.482613000">
        <ele>523.40</ele>
        <time>2014-11-01T10:45:17Z</time>
      </trkpt>
      <trkpt lat="42.354946000" lon="-2.482569000">
        <ele>523.20</ele>
        <time>2014-11-01T10:45:18Z</time>
      </trkpt>
      <trkpt lat="42.355001000" lon="-2.482527000">
        <ele>523.20</ele>
        <time>2014-11-01T10:45:19Z</time>
      </trkpt>
      <trkpt lat="42.355056000" lon="-2.482484000">
        <ele>523.00</ele>
        <time>2014-11-01T10:45:20Z</time>
      </trkpt>
      <trkpt lat="42.355108000" lon="-2.482441000">
        <ele>522.80</ele>
        <time>2014-11-01T10:45:21Z</time>
      </trkpt>
      <trkpt lat="42.355162000" lon="-2.482397000">
        <ele>522.70</ele>
        <time>2014-11-01T10:45:22Z</time>
      </trkpt>
      <trkpt lat="42.355215000" lon="-2.482357000">
        <ele>522.50</ele>
        <time>2014-11-01T10:45:23Z</time>
      </trkpt>
      <trkpt lat="42.355267000" lon="-2.482321000">
        <ele>522.30</ele>
        <time>2014-11-01T10:45:24Z</time>
      </trkpt>
      <trkpt lat="42.355316000" lon="-2.482286000">
        <ele>522.10</ele>
        <time>2014-11-01T10:45:25Z</time>
      </trkpt>
      <trkpt lat="42.355365000" lon="-2.482251000">
        <ele>522.10</ele>
        <time>2014-11-01T10:45:26Z</time>
      </trkpt>
      <trkpt lat="42.355415000" lon="-2.482217000">
        <ele>522.10</ele>
        <time>2014-11-01T10:45:27Z</time>
      </trkpt>
      <trkpt lat="42.355467000" lon="-2.482182000">
        <ele>522.20</ele>
        <time>2014-11-01T10:45:28Z</time>
      </trkpt>
      <trkpt lat="42.355524000" lon="-2.482146000">
        <ele>522.20</ele>
        <time>2014-11-01T10:45:29Z</time>
      </trkpt>
      <trkpt lat="42.355583000" lon="-2.482112000">
        <ele>522.30</ele>
        <time>2014-11-01T10:45:30Z</time>
      </trkpt>
      <trkpt lat="42.355646000" lon="-2.482083000">
        <ele>522.30</ele>
        <time>2014-11-01T10:45:31Z</time>
      </trkpt>
      <trkpt lat="42.355708000" lon="-2.482057000">
        <ele>522.40</ele>
        <time>2014-11-01T10:45:32Z</time>
      </trkpt>
      <trkpt lat="42.355776000" lon="-2.482034000">
        <ele>522.40</ele>
        <time>2014-11-01T10:45:33Z</time>
      </trkpt>
      <trkpt lat="42.355844000" lon="-2.482018000">
        <ele>522.50</ele>
        <time>2014-11-01T10:45:34Z</time>
      </trkpt>
      <trkpt lat="42.355913000" lon="-2.482002000">
        <ele>522.50</ele>
        <time>2014-11-01T10:45:35Z</time>
      </trkpt>
      <trkpt lat="42.355985000" lon="-2.481989000">
        <ele>522.60</ele>
        <time>2014-11-01T10:45:36Z</time>
      </trkpt>
      <trkpt lat="42.356054000" lon="-2.481976000">
        <ele>522.60</ele>
        <time>2014-11-01T10:45:37Z</time>
      </trkpt>
      <trkpt lat="42.356122000" lon="-2.481963000">
        <ele>522.40</ele>
        <time>2014-11-01T10:45:38Z</time>
      </trkpt>
      <trkpt lat="42.356190000" lon="-2.481949000">
        <ele>522.30</ele>
        <time>2014-11-01T10:45:39Z</time>
      </trkpt>
      <trkpt lat="42.356256000" lon="-2.481934000">
        <ele>522.10</ele>
        <time>2014-11-01T10:45:40Z</time>
      </trkpt>
      <trkpt lat="42.356323000" lon="-2.481913000">
        <ele>521.90</ele>
        <time>2014-11-01T10:45:41Z</time>
      </trkpt>
      <trkpt lat="42.356388000" lon="-2.481891000">
        <ele>521.70</ele>
        <time>2014-11-01T10:45:42Z</time>
      </trkpt>
      <trkpt lat="42.356453000" lon="-2.481874000">
        <ele>521.60</ele>
        <time>2014-11-01T10:45:43Z</time>
      </trkpt>
      <trkpt lat="42.356509000" lon="-2.481858000">
        <ele>521.50</ele>
        <time>2014-11-01T10:45:44Z</time>
      </trkpt>
      <trkpt lat="42.356568000" lon="-2.481846000">
        <ele>521.40</ele>
        <time>2014-11-01T10:45:45Z</time>
      </trkpt>
      <trkpt lat="42.356628000" lon="-2.481831000">
        <ele>521.30</ele>
        <time>2014-11-01T10:45:46Z</time>
      </trkpt>
      <trkpt lat="42.356690000" lon="-2.481820000">
        <ele>521.30</ele>
        <time>2014-11-01T10:45:47Z</time>
      </trkpt>
      <trkpt lat="42.356754000" lon="-2.481811000">
        <ele>521.30</ele>
        <time>2014-11-01T10:45:48Z</time>
      </trkpt>
      <trkpt lat="42.356820000" lon="-2.481801000">
        <ele>521.40</ele>
        <time>2014-11-01T10:45:49Z</time>
      </trkpt>
      <trkpt lat="42.356887000" lon="-2.481793000">
        <ele>521.40</ele>
        <time>2014-11-01T10:45:50Z</time>
      </trkpt>
      <trkpt lat="42.356954000" lon="-2.481784000">
        <ele>521.40</ele>
        <time>2014-11-01T10:45:51Z</time>
      </trkpt>
      <trkpt lat="42.357021000" lon="-2.481775000">
        <ele>521.20</ele>
        <time>2014-11-01T10:45:52Z</time>
      </trkpt>
      <trkpt lat="42.357085000" lon="-2.481771000">
        <ele>521.10</ele>
        <time>2014-11-01T10:45:53Z</time>
      </trkpt>
      <trkpt lat="42.357151000" lon="-2.481765000">
        <ele>521.00</ele>
        <time>2014-11-01T10:45:54Z</time>
      </trkpt>
      <trkpt lat="42.357220000" lon="-2.481758000">
        <ele>520.90</ele>
        <time>2014-11-01T10:45:55Z</time>
      </trkpt>
      <trkpt lat="42.357287000" lon="-2.481748000">
        <ele>520.80</ele>
        <time>2014-11-01T10:45:56Z</time>
      </trkpt>
      <trkpt lat="42.357358000" lon="-2.481744000">
        <ele>520.80</ele>
        <time>2014-11-01T10:45:57Z</time>
      </trkpt>
      <trkpt lat="42.357429000" lon="-2.481740000">
        <ele>520.80</ele>
        <time>2014-11-01T10:45:58Z</time>
      </trkpt>
      <trkpt lat="42.357499000" lon="-2.481739000">
        <ele>520.80</ele>
        <time>2014-11-01T10:45:59Z</time>
      </trkpt>
      <trkpt lat="42.357569000" lon="-2.481744000">
        <ele>520.80</ele>
        <time>2014-11-01T10:46:00Z</time>
      </trkpt>
      <trkpt lat="42.357637000" lon="-2.481750000">
        <ele>520.80</ele>
        <time>2014-11-01T10:46:01Z</time>
      </trkpt>
      <trkpt lat="42.357705000" lon="-2.481757000">
        <ele>520.70</ele>
        <time>2014-11-01T10:46:02Z</time>
      </trkpt>
      <trkpt lat="42.357774000" lon="-2.481764000">
        <ele>520.60</ele>
        <time>2014-11-01T10:46:03Z</time>
      </trkpt>
      <trkpt lat="42.357841000" lon="-2.481769000">
        <ele>520.40</ele>
        <time>2014-11-01T10:46:04Z</time>
      </trkpt>
      <trkpt lat="42.357909000" lon="-2.481765000">
        <ele>520.20</ele>
        <time>2014-11-01T10:46:05Z</time>
      </trkpt>
      <trkpt lat="42.357974000" lon="-2.481746000">
        <ele>520.10</ele>
        <time>2014-11-01T10:46:06Z</time>
      </trkpt>
      <trkpt lat="42.358033000" lon="-2.481711000">
        <ele>520.00</ele>
        <time>2014-11-01T10:46:07Z</time>
      </trkpt>
      <trkpt lat="42.358089000" lon="-2.481671000">
        <ele>519.90</ele>
        <time>2014-11-01T10:46:08Z</time>
      </trkpt>
      <trkpt lat="42.358147000" lon="-2.481632000">
        <ele>519.90</ele>
        <time>2014-11-01T10:46:09Z</time>
      </trkpt>
      <trkpt lat="42.358264000" lon="-2.481545000">
        <ele>519.40</ele>
        <time>2014-11-01T10:46:11Z</time>
      </trkpt>
      <trkpt lat="42.358323000" lon="-2.481501000">
        <ele>519.40</ele>
        <time>2014-11-01T10:46:12Z</time>
      </trkpt>
      <trkpt lat="42.358382000" lon="-2.481457000">
        <ele>519.40</ele>
        <time>2014-11-01T10:46:13Z</time>
      </trkpt>
      <trkpt lat="42.358441000" lon="-2.481410000">
        <ele>519.30</ele>
        <time>2014-11-01T10:46:14Z</time>
      </trkpt>
      <trkpt lat="42.358501000" lon="-2.481364000">
        <ele>519.20</ele>
        <time>2014-11-01T10:46:15Z</time>
      </trkpt>
      <trkpt lat="42.358558000" lon="-2.481317000">
        <ele>519.00</ele>
        <time>2014-11-01T10:46:16Z</time>
      </trkpt>
      <trkpt lat="42.358617000" lon="-2.481275000">
        <ele>518.90</ele>
        <time>2014-11-01T10:46:17Z</time>
      </trkpt>
      <trkpt lat="42.358678000" lon="-2.481238000">
        <ele>518.70</ele>
        <time>2014-11-01T10:46:18Z</time>
      </trkpt>
      <trkpt lat="42.358739000" lon="-2.481207000">
        <ele>518.70</ele>
        <time>2014-11-01T10:46:19Z</time>
      </trkpt>
      <trkpt lat="42.358802000" lon="-2.481179000">
        <ele>518.60</ele>
        <time>2014-11-01T10:46:20Z</time>
      </trkpt>
      <trkpt lat="42.358866000" lon="-2.481149000">
        <ele>518.50</ele>
        <time>2014-11-01T10:46:21Z</time>
      </trkpt>
      <trkpt lat="42.358932000" lon="-2.481118000">
        <ele>518.60</ele>
        <time>2014-11-01T10:46:22Z</time>
      </trkpt>
      <trkpt lat="42.358996000" lon="-2.481086000">
        <ele>518.60</ele>
        <time>2014-11-01T10:46:23Z</time>
      </trkpt>
      <trkpt lat="42.359057000" lon="-2.481044000">
        <ele>518.60</ele>
        <time>2014-11-01T10:46:24Z</time>
      </trkpt>
      <trkpt lat="42.359116000" lon="-2.480999000">
        <ele>518.60</ele>
        <time>2014-11-01T10:46:25Z</time>
      </trkpt>
      <trkpt lat="42.359174000" lon="-2.480950000">
        <ele>518.60</ele>
        <time>2014-11-01T10:46:26Z</time>
      </trkpt>
      <trkpt lat="42.359234000" lon="-2.480900000">
        <ele>518.60</ele>
        <time>2014-11-01T10:46:27Z</time>
      </trkpt>
      <trkpt lat="42.359290000" lon="-2.480849000">
        <ele>518.60</ele>
        <time>2014-11-01T10:46:28Z</time>
      </trkpt>
      <trkpt lat="42.359347000" lon="-2.480800000">
        <ele>518.60</ele>
        <time>2014-11-01T10:46:29Z</time>
      </trkpt>
      <trkpt lat="42.359406000" lon="-2.480749000">
        <ele>518.50</ele>
        <time>2014-11-01T10:46:30Z</time>
      </trkpt>
      <trkpt lat="42.359464000" lon="-2.480703000">
        <ele>518.40</ele>
        <time>2014-11-01T10:46:31Z</time>
      </trkpt>
      <trkpt lat="42.359526000" lon="-2.480656000">
        <ele>518.30</ele>
        <time>2014-11-01T10:46:32Z</time>
      </trkpt>
      <trkpt lat="42.359590000" lon="-2.480615000">
        <ele>518.30</ele>
        <time>2014-11-01T10:46:33Z</time>
      </trkpt>
      <trkpt lat="42.359658000" lon="-2.480580000">
        <ele>518.10</ele>
        <time>2014-11-01T10:46:34Z</time>
      </trkpt>
      <trkpt lat="42.359725000" lon="-2.480548000">
        <ele>517.90</ele>
        <time>2014-11-01T10:46:35Z</time>
      </trkpt>
      <trkpt lat="42.359791000" lon="-2.480517000">
        <ele>517.70</ele>
        <time>2014-11-01T10:46:36Z</time>
      </trkpt>
      <trkpt lat="42.359858000" lon="-2.480495000">
        <ele>517.50</ele>
        <time>2014-11-01T10:46:37Z</time>
      </trkpt>
      <trkpt lat="42.359925000" lon="-2.480475000">
        <ele>517.20</ele>
        <time>2014-11-01T10:46:38Z</time>
      </trkpt>
      <trkpt lat="42.359991000" lon="-2.480452000">
        <ele>516.90</ele>
        <time>2014-11-01T10:46:39Z</time>
      </trkpt>
      <trkpt lat="42.360058000" lon="-2.480426000">
        <ele>516.70</ele>
        <time>2014-11-01T10:46:40Z</time>
      </trkpt>
      <trkpt lat="42.360123000" lon="-2.480394000">
        <ele>516.50</ele>
        <time>2014-11-01T10:46:41Z</time>
      </trkpt>
      <trkpt lat="42.360184000" lon="-2.480356000">
        <ele>516.40</ele>
        <time>2014-11-01T10:46:42Z</time>
      </trkpt>
      <trkpt lat="42.360243000" lon="-2.480316000">
        <ele>516.30</ele>
        <time>2014-11-01T10:46:43Z</time>
      </trkpt>
      <trkpt lat="42.360304000" lon="-2.480276000">
        <ele>516.30</ele>
        <time>2014-11-01T10:46:44Z</time>
      </trkpt>
      <trkpt lat="42.360364000" lon="-2.480238000">
        <ele>516.30</ele>
        <time>2014-11-01T10:46:45Z</time>
      </trkpt>
      <trkpt lat="42.360425000" lon="-2.480204000">
        <ele>516.10</ele>
        <time>2014-11-01T10:46:46Z</time>
      </trkpt>
      <trkpt lat="42.360486000" lon="-2.480168000">
        <ele>516.00</ele>
        <time>2014-11-01T10:46:47Z</time>
      </trkpt>
      <trkpt lat="42.360547000" lon="-2.480126000">
        <ele>515.80</ele>
        <time>2014-11-01T10:46:48Z</time>
      </trkpt>
      <trkpt lat="42.360605000" lon="-2.480083000">
        <ele>515.70</ele>
        <time>2014-11-01T10:46:49Z</time>
      </trkpt>
      <trkpt lat="42.360664000" lon="-2.480035000">
        <ele>515.60</ele>
        <time>2014-11-01T10:46:50Z</time>
      </trkpt>
      <trkpt lat="42.360723000" lon="-2.479987000">
        <ele>515.50</ele>
        <time>2014-11-01T10:46:51Z</time>
      </trkpt>
      <trkpt lat="42.360782000" lon="-2.479935000">
        <ele>515.40</ele>
        <time>2014-11-01T10:46:52Z</time>
      </trkpt>
      <trkpt lat="42.360842000" lon="-2.479885000">
        <ele>515.40</ele>
        <time>2014-11-01T10:46:53Z</time>
      </trkpt>
      <trkpt lat="42.360902000" lon="-2.479836000">
        <ele>515.40</ele>
        <time>2014-11-01T10:46:54Z</time>
      </trkpt>
      <trkpt lat="42.360962000" lon="-2.479785000">
        <ele>515.30</ele>
        <time>2014-11-01T10:46:55Z</time>
      </trkpt>
      <trkpt lat="42.361027000" lon="-2.479731000">
        <ele>515.20</ele>
        <time>2014-11-01T10:46:56Z</time>
      </trkpt>
      <trkpt lat="42.361087000" lon="-2.479672000">
        <ele>515.10</ele>
        <time>2014-11-01T10:46:57Z</time>
      </trkpt>
      <trkpt lat="42.361152000" lon="-2.479606000">
        <ele>515.10</ele>
        <time>2014-11-01T10:46:58Z</time>
      </trkpt>
      <trkpt lat="42.361217000" lon="-2.479538000">
        <ele>515.00</ele>
        <time>2014-11-01T10:46:59Z</time>
      </trkpt>
      <trkpt lat="42.361287000" lon="-2.479473000">
        <ele>514.70</ele>
        <time>2014-11-01T10:47:00Z</time>
      </trkpt>
      <trkpt lat="42.361358000" lon="-2.479409000">
        <ele>514.50</ele>
        <time>2014-11-01T10:47:01Z</time>
      </trkpt>
      <trkpt lat="42.361424000" lon="-2.479345000">
        <ele>513.80</ele>
        <time>2014-11-01T10:47:02Z</time>
      </trkpt>
      <trkpt lat="42.361478000" lon="-2.479293000">
        <ele>513.30</ele>
        <time>2014-11-01T10:47:03Z</time>
      </trkpt>
      <trkpt lat="42.361518000" lon="-2.479250000">
        <ele>512.80</ele>
        <time>2014-11-01T10:47:04Z</time>
      </trkpt>
      <trkpt lat="42.361549000" lon="-2.479218000">
        <ele>512.40</ele>
        <time>2014-11-01T10:47:05Z</time>
      </trkpt>
      <trkpt lat="42.361574000" lon="-2.479192000">
        <ele>511.90</ele>
        <time>2014-11-01T10:47:06Z</time>
      </trkpt>
      <trkpt lat="42.361597000" lon="-2.479162000">
        <ele>511.50</ele>
        <time>2014-11-01T10:47:07Z</time>
      </trkpt>
      <trkpt lat="42.361616000" lon="-2.479140000">
        <ele>510.90</ele>
        <time>2014-11-01T10:47:08Z</time>
      </trkpt>
      <trkpt lat="42.361635000" lon="-2.479126000">
        <ele>510.40</ele>
        <time>2014-11-01T10:47:09Z</time>
      </trkpt>
      <trkpt lat="42.361654000" lon="-2.479103000">
        <ele>509.80</ele>
        <time>2014-11-01T10:47:10Z</time>
      </trkpt>
      <trkpt lat="42.361669000" lon="-2.479082000">
        <ele>509.00</ele>
        <time>2014-11-01T10:47:12Z</time>
      </trkpt>
      <trkpt lat="42.361667000" lon="-2.479079000">
        <ele>508.70</ele>
        <time>2014-11-01T10:47:13Z</time>
      </trkpt>
      <trkpt lat="42.361664000" lon="-2.479075000">
        <ele>508.50</ele>
        <time>2014-11-01T10:47:14Z</time>
      </trkpt>
      <trkpt lat="42.361663000" lon="-2.479073000">
        <ele>508.30</ele>
        <time>2014-11-01T10:47:15Z</time>
      </trkpt>
      <trkpt lat="42.361664000" lon="-2.479071000">
        <ele>508.20</ele>
        <time>2014-11-01T10:47:16Z</time>
      </trkpt>
      <trkpt lat="42.361667000" lon="-2.479070000">
        <ele>508.10</ele>
        <time>2014-11-01T10:47:17Z</time>
      </trkpt>
      <trkpt lat="42.361669000" lon="-2.479064000">
        <ele>508.00</ele>
        <time>2014-11-01T10:47:18Z</time>
      </trkpt>
      <trkpt lat="42.361670000" lon="-2.479065000">
        <ele>507.90</ele>
        <time>2014-11-01T10:47:19Z</time>
      </trkpt>
      <trkpt lat="42.361668000" lon="-2.479067000">
        <ele>507.80</ele>
        <time>2014-11-01T10:47:20Z</time>
      </trkpt>
      <trkpt lat="42.361670000" lon="-2.479069000">
        <ele>507.70</ele>
        <time>2014-11-01T10:47:21Z</time>
      </trkpt>
      <trkpt lat="42.361671000" lon="-2.479069000">
        <ele>507.60</ele>
        <time>2014-11-01T10:47:22Z</time>
      </trkpt>
      <trkpt lat="42.361670000" lon="-2.479071000">
        <ele>507.60</ele>
        <time>2014-11-01T10:47:23Z</time>
      </trkpt>
      <trkpt lat="42.361670000" lon="-2.479072000">
        <ele>507.60</ele>
        <time>2014-11-01T10:47:24Z</time>
      </trkpt>
      <trkpt lat="42.361668000" lon="-2.479073000">
        <ele>507.50</ele>
        <time>2014-11-01T10:47:25Z</time>
      </trkpt>
      <trkpt lat="42.361668000" lon="-2.479074000">
        <ele>507.50</ele>
        <time>2014-11-01T10:47:26Z</time>
      </trkpt>
      <trkpt lat="42.361667000" lon="-2.479075000">
        <ele>507.50</ele>
        <time>2014-11-01T10:47:27Z</time>
      </trkpt>
      <trkpt lat="42.361667000" lon="-2.479077000">
        <ele>507.50</ele>
        <time>2014-11-01T10:47:28Z</time>
      </trkpt>
      <trkpt lat="42.361666000" lon="-2.479078000">
        <ele>507.40</ele>
        <time>2014-11-01T10:47:29Z</time>
      </trkpt>
      <trkpt lat="42.361665000" lon="-2.479078000">
        <ele>507.40</ele>
        <time>2014-11-01T10:47:30Z</time>
      </trkpt>
      <trkpt lat="42.361669000" lon="-2.479077000">
        <ele>507.30</ele>
        <time>2014-11-01T10:47:31Z</time>
      </trkpt>
      <trkpt lat="42.361670000" lon="-2.479072000">
        <ele>507.30</ele>
        <time>2014-11-01T10:47:32Z</time>
      </trkpt>
      <trkpt lat="42.361669000" lon="-2.479071000">
        <ele>507.20</ele>
        <time>2014-11-01T10:47:33Z</time>
      </trkpt>
      <trkpt lat="42.361670000" lon="-2.479071000">
        <ele>507.20</ele>
        <time>2014-11-01T10:47:34Z</time>
      </trkpt>
      <trkpt lat="42.361670000" lon="-2.479070000">
        <ele>507.20</ele>
        <time>2014-11-01T10:47:35Z</time>
      </trkpt>
      <trkpt lat="42.361670000" lon="-2.479068000">
        <ele>507.30</ele>
        <time>2014-11-01T10:47:36Z</time>
      </trkpt>
      <trkpt lat="42.361670000" lon="-2.479068000">
        <ele>507.40</ele>
        <time>2014-11-01T10:47:37Z</time>
      </trkpt>
      <trkpt lat="42.361670000" lon="-2.479068000">
        <ele>507.40</ele>
        <time>2014-11-01T10:47:38Z</time>
      </trkpt>
      <trkpt lat="42.361670000" lon="-2.479067000">
        <ele>507.50</ele>
        <time>2014-11-01T10:47:39Z</time>
      </trkpt>
      <trkpt lat="42.361670000" lon="-2.479067000">
        <ele>507.50</ele>
        <time>2014-11-01T10:47:40Z</time>
      </trkpt>
      <trkpt lat="42.361670000" lon="-2.479067000">
        <ele>507.50</ele>
        <time>2014-11-01T10:47:41Z</time>
      </trkpt>
      <trkpt lat="42.361670000" lon="-2.479066000">
        <ele>507.50</ele>
        <time>2014-11-01T10:47:42Z</time>
      </trkpt>
      <trkpt lat="42.361670000" lon="-2.479066000">
        <ele>507.50</ele>
        <time>2014-11-01T10:47:43Z</time>
      </trkpt>
      <trkpt lat="42.361670000" lon="-2.479066000">
        <ele>507.50</ele>
        <time>2014-11-01T10:47:44Z</time>
      </trkpt>
      <trkpt lat="42.361670000" lon="-2.479066000">
        <ele>507.60</ele>
        <time>2014-11-01T10:47:45Z</time>
      </trkpt>
      <trkpt lat="42.361670000" lon="-2.479067000">
        <ele>507.50</ele>
        <time>2014-11-01T10:47:46Z</time>
      </trkpt>
      <trkpt lat="42.361671000" lon="-2.479067000">
        <ele>507.50</ele>
        <time>2014-11-01T10:47:47Z</time>
      </trkpt>
      <trkpt lat="42.361670000" lon="-2.479068000">
        <ele>507.50</ele>
        <time>2014-11-01T10:47:48Z</time>
      </trkpt>
      <trkpt lat="42.361669000" lon="-2.479069000">
        <ele>507.50</ele>
        <time>2014-11-01T10:47:49Z</time>
      </trkpt>
      <trkpt lat="42.361669000" lon="-2.479070000">
        <ele>507.50</ele>
        <time>2014-11-01T10:47:50Z</time>
      </trkpt>
      <trkpt lat="42.361668000" lon="-2.479070000">
        <ele>507.50</ele>
        <time>2014-11-01T10:47:51Z</time>
      </trkpt>
      <trkpt lat="42.361669000" lon="-2.479071000">
        <ele>507.50</ele>
        <time>2014-11-01T10:47:52Z</time>
      </trkpt>
      <trkpt lat="42.361671000" lon="-2.479071000">
        <ele>507.50</ele>
        <time>2014-11-01T10:47:53Z</time>
      </trkpt>
      <trkpt lat="42.361672000" lon="-2.479071000">
        <ele>507.40</ele>
        <time>2014-11-01T10:47:54Z</time>
      </trkpt>
      <trkpt lat="42.361673000" lon="-2.479071000">
        <ele>507.40</ele>
        <time>2014-11-01T10:47:55Z</time>
      </trkpt>
      <trkpt lat="42.361673000" lon="-2.479072000">
        <ele>507.30</ele>
        <time>2014-11-01T10:47:56Z</time>
      </trkpt>
      <trkpt lat="42.361675000" lon="-2.479071000">
        <ele>507.30</ele>
        <time>2014-11-01T10:47:57Z</time>
      </trkpt>
      <trkpt lat="42.361677000" lon="-2.479066000">
        <ele>507.30</ele>
        <time>2014-11-01T10:47:58Z</time>
      </trkpt>
      <trkpt lat="42.361692000" lon="-2.479051000">
        <ele>507.30</ele>
        <time>2014-11-01T10:47:59Z</time>
      </trkpt>
      <trkpt lat="42.361704000" lon="-2.479042000">
        <ele>507.20</ele>
        <time>2014-11-01T10:48:00Z</time>
      </trkpt>
      <trkpt lat="42.361717000" lon="-2.479038000">
        <ele>507.10</ele>
        <time>2014-11-01T10:48:01Z</time>
      </trkpt>
      <trkpt lat="42.361730000" lon="-2.479038000">
        <ele>507.20</ele>
        <time>2014-11-01T10:48:02Z</time>
      </trkpt>
      <trkpt lat="42.361740000" lon="-2.479035000">
        <ele>507.30</ele>
        <time>2014-11-01T10:48:03Z</time>
      </trkpt>
      <trkpt lat="42.361751000" lon="-2.479028000">
        <ele>507.30</ele>
        <time>2014-11-01T10:48:04Z</time>
      </trkpt>
      <trkpt lat="42.361765000" lon="-2.479020000">
        <ele>507.40</ele>
        <time>2014-11-01T10:48:05Z</time>
      </trkpt>
      <trkpt lat="42.361777000" lon="-2.479013000">
        <ele>507.40</ele>
        <time>2014-11-01T10:48:06Z</time>
      </trkpt>
      <trkpt lat="42.361788000" lon="-2.479003000">
        <ele>507.40</ele>
        <time>2014-11-01T10:48:07Z</time>
      </trkpt>
      <trkpt lat="42.361799000" lon="-2.478996000">
        <ele>507.40</ele>
        <time>2014-11-01T10:48:08Z</time>
      </trkpt>
      <trkpt lat="42.361812000" lon="-2.478991000">
        <ele>507.30</ele>
        <time>2014-11-01T10:48:09Z</time>
      </trkpt>
      <trkpt lat="42.361822000" lon="-2.478988000">
        <ele>507.30</ele>
        <time>2014-11-01T10:48:10Z</time>
      </trkpt>
      <trkpt lat="42.361834000" lon="-2.478984000">
        <ele>507.30</ele>
        <time>2014-11-01T10:48:11Z</time>
      </trkpt>
      <trkpt lat="42.361870000" lon="-2.478965000">
        <ele>507.50</ele>
        <time>2014-11-01T10:48:13Z</time>
      </trkpt>
      <trkpt lat="42.361892000" lon="-2.478951000">
        <ele>507.50</ele>
        <time>2014-11-01T10:48:14Z</time>
      </trkpt>
      <trkpt lat="42.361918000" lon="-2.478941000">
        <ele>507.50</ele>
        <time>2014-11-01T10:48:15Z</time>
      </trkpt>
      <trkpt lat="42.361946000" lon="-2.478933000">
        <ele>507.60</ele>
        <time>2014-11-01T10:48:16Z</time>
      </trkpt>
      <trkpt lat="42.361978000" lon="-2.478929000">
        <ele>507.60</ele>
        <time>2014-11-01T10:48:17Z</time>
      </trkpt>
      <trkpt lat="42.362011000" lon="-2.478927000">
        <ele>507.70</ele>
        <time>2014-11-01T10:48:18Z</time>
      </trkpt>
      <trkpt lat="42.362042000" lon="-2.478923000">
        <ele>507.70</ele>
        <time>2014-11-01T10:48:19Z</time>
      </trkpt>
      <trkpt lat="42.362078000" lon="-2.478920000">
        <ele>507.80</ele>
        <time>2014-11-01T10:48:20Z</time>
      </trkpt>
      <trkpt lat="42.362114000" lon="-2.478916000">
        <ele>507.80</ele>
        <time>2014-11-01T10:48:21Z</time>
      </trkpt>
      <trkpt lat="42.362149000" lon="-2.478906000">
        <ele>507.80</ele>
        <time>2014-11-01T10:48:22Z</time>
      </trkpt>
      <trkpt lat="42.362182000" lon="-2.478899000">
        <ele>507.90</ele>
        <time>2014-11-01T10:48:23Z</time>
      </trkpt>
      <trkpt lat="42.362215000" lon="-2.478894000">
        <ele>508.00</ele>
        <time>2014-11-01T10:48:24Z</time>
      </trkpt>
      <trkpt lat="42.362247000" lon="-2.478889000">
        <ele>508.10</ele>
        <time>2014-11-01T10:48:25Z</time>
      </trkpt>
      <trkpt lat="42.362283000" lon="-2.478879000">
        <ele>508.20</ele>
        <time>2014-11-01T10:48:26Z</time>
      </trkpt>
      <trkpt lat="42.362319000" lon="-2.478871000">
        <ele>508.30</ele>
        <time>2014-11-01T10:48:27Z</time>
      </trkpt>
      <trkpt lat="42.362356000" lon="-2.478862000">
        <ele>508.40</ele>
        <time>2014-11-01T10:48:28Z</time>
      </trkpt>
      <trkpt lat="42.362395000" lon="-2.478855000">
        <ele>508.50</ele>
        <time>2014-11-01T10:48:29Z</time>
      </trkpt>
      <trkpt lat="42.362432000" lon="-2.478845000">
        <ele>508.60</ele>
        <time>2014-11-01T10:48:30Z</time>
      </trkpt>
      <trkpt lat="42.362470000" lon="-2.478835000">
        <ele>508.60</ele>
        <time>2014-11-01T10:48:31Z</time>
      </trkpt>
      <trkpt lat="42.362506000" lon="-2.478824000">
        <ele>508.70</ele>
        <time>2014-11-01T10:48:32Z</time>
      </trkpt>
      <trkpt lat="42.362551000" lon="-2.478812000">
        <ele>508.80</ele>
        <time>2014-11-01T10:48:33Z</time>
      </trkpt>
      <trkpt lat="42.362589000" lon="-2.478798000">
        <ele>508.90</ele>
        <time>2014-11-01T10:48:34Z</time>
      </trkpt>
      <trkpt lat="42.362630000" lon="-2.478786000">
        <ele>508.90</ele>
        <time>2014-11-01T10:48:35Z</time>
      </trkpt>
      <trkpt lat="42.362670000" lon="-2.478773000">
        <ele>509.10</ele>
        <time>2014-11-01T10:48:36Z</time>
      </trkpt>
      <trkpt lat="42.362712000" lon="-2.478760000">
        <ele>509.30</ele>
        <time>2014-11-01T10:48:37Z</time>
      </trkpt>
      <trkpt lat="42.362754000" lon="-2.478749000">
        <ele>509.60</ele>
        <time>2014-11-01T10:48:38Z</time>
      </trkpt>
      <trkpt lat="42.362800000" lon="-2.478736000">
        <ele>509.90</ele>
        <time>2014-11-01T10:48:39Z</time>
      </trkpt>
      <trkpt lat="42.362845000" lon="-2.478726000">
        <ele>510.10</ele>
        <time>2014-11-01T10:48:40Z</time>
      </trkpt>
      <trkpt lat="42.362889000" lon="-2.478713000">
        <ele>510.20</ele>
        <time>2014-11-01T10:48:41Z</time>
      </trkpt>
      <trkpt lat="42.362930000" lon="-2.478701000">
        <ele>510.10</ele>
        <time>2014-11-01T10:48:42Z</time>
      </trkpt>
      <trkpt lat="42.362972000" lon="-2.478692000">
        <ele>510.00</ele>
        <time>2014-11-01T10:48:43Z</time>
      </trkpt>
      <trkpt lat="42.363015000" lon="-2.478680000">
        <ele>510.00</ele>
        <time>2014-11-01T10:48:44Z</time>
      </trkpt>
      <trkpt lat="42.363056000" lon="-2.478670000">
        <ele>509.90</ele>
        <time>2014-11-01T10:48:45Z</time>
      </trkpt>
      <trkpt lat="42.363097000" lon="-2.478661000">
        <ele>510.20</ele>
        <time>2014-11-01T10:48:46Z</time>
      </trkpt>
      <trkpt lat="42.363136000" lon="-2.478649000">
        <ele>510.30</ele>
        <time>2014-11-01T10:48:47Z</time>
      </trkpt>
      <trkpt lat="42.363174000" lon="-2.478629000">
        <ele>510.50</ele>
        <time>2014-11-01T10:48:48Z</time>
      </trkpt>
      <trkpt lat="42.363210000" lon="-2.478601000">
        <ele>510.70</ele>
        <time>2014-11-01T10:48:49Z</time>
      </trkpt>
      <trkpt lat="42.363246000" lon="-2.478564000">
        <ele>510.70</ele>
        <time>2014-11-01T10:48:50Z</time>
      </trkpt>
      <trkpt lat="42.363287000" lon="-2.478527000">
        <ele>510.80</ele>
        <time>2014-11-01T10:48:51Z</time>
      </trkpt>
      <trkpt lat="42.363330000" lon="-2.478490000">
        <ele>510.70</ele>
        <time>2014-11-01T10:48:52Z</time>
      </trkpt>
      <trkpt lat="42.363375000" lon="-2.478458000">
        <ele>510.70</ele>
        <time>2014-11-01T10:48:53Z</time>
      </trkpt>
      <trkpt lat="42.363419000" lon="-2.478424000">
        <ele>510.60</ele>
        <time>2014-11-01T10:48:54Z</time>
      </trkpt>
      <trkpt lat="42.363463000" lon="-2.478389000">
        <ele>510.50</ele>
        <time>2014-11-01T10:48:55Z</time>
      </trkpt>
      <trkpt lat="42.363506000" lon="-2.478354000">
        <ele>510.50</ele>
        <time>2014-11-01T10:48:56Z</time>
      </trkpt>
      <trkpt lat="42.363551000" lon="-2.478314000">
        <ele>510.50</ele>
        <time>2014-11-01T10:48:57Z</time>
      </trkpt>
      <trkpt lat="42.363596000" lon="-2.478277000">
        <ele>510.40</ele>
        <time>2014-11-01T10:48:58Z</time>
      </trkpt>
      <trkpt lat="42.363642000" lon="-2.478237000">
        <ele>510.40</ele>
        <time>2014-11-01T10:48:59Z</time>
      </trkpt>
      <trkpt lat="42.363691000" lon="-2.478197000">
        <ele>510.30</ele>
        <time>2014-11-01T10:49:00Z</time>
      </trkpt>
      <trkpt lat="42.363737000" lon="-2.478155000">
        <ele>510.30</ele>
        <time>2014-11-01T10:49:01Z</time>
      </trkpt>
      <trkpt lat="42.363784000" lon="-2.478110000">
        <ele>510.00</ele>
        <time>2014-11-01T10:49:02Z</time>
      </trkpt>
      <trkpt lat="42.363829000" lon="-2.478066000">
        <ele>509.80</ele>
        <time>2014-11-01T10:49:03Z</time>
      </trkpt>
      <trkpt lat="42.363875000" lon="-2.478023000">
        <ele>509.60</ele>
        <time>2014-11-01T10:49:04Z</time>
      </trkpt>
      <trkpt lat="42.363922000" lon="-2.477986000">
        <ele>509.50</ele>
        <time>2014-11-01T10:49:05Z</time>
      </trkpt>
      <trkpt lat="42.363969000" lon="-2.477947000">
        <ele>509.50</ele>
        <time>2014-11-01T10:49:06Z</time>
      </trkpt>
      <trkpt lat="42.364018000" lon="-2.477914000">
        <ele>509.40</ele>
        <time>2014-11-01T10:49:07Z</time>
      </trkpt>
      <trkpt lat="42.364066000" lon="-2.477879000">
        <ele>509.60</ele>
        <time>2014-11-01T10:49:08Z</time>
      </trkpt>
      <trkpt lat="42.364119000" lon="-2.477851000">
        <ele>509.80</ele>
        <time>2014-11-01T10:49:09Z</time>
      </trkpt>
      <trkpt lat="42.364171000" lon="-2.477828000">
        <ele>510.00</ele>
        <time>2014-11-01T10:49:10Z</time>
      </trkpt>
      <trkpt lat="42.364225000" lon="-2.477807000">
        <ele>510.20</ele>
        <time>2014-11-01T10:49:11Z</time>
      </trkpt>
      <trkpt lat="42.364284000" lon="-2.477789000">
        <ele>510.30</ele>
        <time>2014-11-01T10:49:12Z</time>
      </trkpt>
      <trkpt lat="42.364413000" lon="-2.477763000">
        <ele>510.20</ele>
        <time>2014-11-01T10:49:14Z</time>
      </trkpt>
      <trkpt lat="42.364478000" lon="-2.477754000">
        <ele>510.10</ele>
        <time>2014-11-01T10:49:15Z</time>
      </trkpt>
      <trkpt lat="42.364545000" lon="-2.477741000">
        <ele>509.80</ele>
        <time>2014-11-01T10:49:16Z</time>
      </trkpt>
      <trkpt lat="42.364612000" lon="-2.477733000">
        <ele>509.70</ele>
        <time>2014-11-01T10:49:17Z</time>
      </trkpt>
      <trkpt lat="42.364679000" lon="-2.477716000">
        <ele>509.30</ele>
        <time>2014-11-01T10:49:18Z</time>
      </trkpt>
      <trkpt lat="42.364745000" lon="-2.477694000">
        <ele>509.10</ele>
        <time>2014-11-01T10:49:19Z</time>
      </trkpt>
      <trkpt lat="42.364809000" lon="-2.477670000">
        <ele>508.80</ele>
        <time>2014-11-01T10:49:20Z</time>
      </trkpt>
      <trkpt lat="42.364874000" lon="-2.477646000">
        <ele>508.70</ele>
        <time>2014-11-01T10:49:21Z</time>
      </trkpt>
      <trkpt lat="42.364936000" lon="-2.477618000">
        <ele>508.60</ele>
        <time>2014-11-01T10:49:22Z</time>
      </trkpt>
      <trkpt lat="42.364995000" lon="-2.477589000">
        <ele>508.50</ele>
        <time>2014-11-01T10:49:23Z</time>
      </trkpt>
      <trkpt lat="42.365052000" lon="-2.477562000">
        <ele>508.50</ele>
        <time>2014-11-01T10:49:24Z</time>
      </trkpt>
      <trkpt lat="42.365112000" lon="-2.477541000">
        <ele>508.50</ele>
        <time>2014-11-01T10:49:25Z</time>
      </trkpt>
      <trkpt lat="42.365169000" lon="-2.477524000">
        <ele>508.50</ele>
        <time>2014-11-01T10:49:26Z</time>
      </trkpt>
      <trkpt lat="42.365229000" lon="-2.477508000">
        <ele>508.50</ele>
        <time>2014-11-01T10:49:27Z</time>
      </trkpt>
      <trkpt lat="42.365288000" lon="-2.477491000">
        <ele>508.50</ele>
        <time>2014-11-01T10:49:28Z</time>
      </trkpt>
      <trkpt lat="42.365347000" lon="-2.477469000">
        <ele>508.50</ele>
        <time>2014-11-01T10:49:29Z</time>
      </trkpt>
      <trkpt lat="42.365408000" lon="-2.477445000">
        <ele>508.50</ele>
        <time>2014-11-01T10:49:30Z</time>
      </trkpt>
      <trkpt lat="42.365468000" lon="-2.477416000">
        <ele>508.60</ele>
        <time>2014-11-01T10:49:31Z</time>
      </trkpt>
      <trkpt lat="42.365528000" lon="-2.477383000">
        <ele>508.60</ele>
        <time>2014-11-01T10:49:32Z</time>
      </trkpt>
      <trkpt lat="42.365586000" lon="-2.477354000">
        <ele>508.60</ele>
        <time>2014-11-01T10:49:33Z</time>
      </trkpt>
      <trkpt lat="42.365644000" lon="-2.477325000">
        <ele>508.60</ele>
        <time>2014-11-01T10:49:34Z</time>
      </trkpt>
      <trkpt lat="42.365700000" lon="-2.477297000">
        <ele>508.50</ele>
        <time>2014-11-01T10:49:35Z</time>
      </trkpt>
      <trkpt lat="42.365755000" lon="-2.477274000">
        <ele>508.30</ele>
        <time>2014-11-01T10:49:36Z</time>
      </trkpt>
      <trkpt lat="42.365808000" lon="-2.477250000">
        <ele>508.10</ele>
        <time>2014-11-01T10:49:37Z</time>
      </trkpt>
      <trkpt lat="42.365860000" lon="-2.477225000">
        <ele>507.90</ele>
        <time>2014-11-01T10:49:38Z</time>
      </trkpt>
      <trkpt lat="42.365910000" lon="-2.477199000">
        <ele>507.70</ele>
        <time>2014-11-01T10:49:39Z</time>
      </trkpt>
      <trkpt lat="42.365961000" lon="-2.477173000">
        <ele>507.60</ele>
        <time>2014-11-01T10:49:40Z</time>
      </trkpt>
      <trkpt lat="42.366012000" lon="-2.477140000">
        <ele>507.50</ele>
        <time>2014-11-01T10:49:41Z</time>
      </trkpt>
      <trkpt lat="42.366057000" lon="-2.477103000">
        <ele>507.50</ele>
        <time>2014-11-01T10:49:42Z</time>
      </trkpt>
      <trkpt lat="42.366097000" lon="-2.477056000">
        <ele>507.50</ele>
        <time>2014-11-01T10:49:43Z</time>
      </trkpt>
      <trkpt lat="42.366133000" lon="-2.477004000">
        <ele>507.50</ele>
        <time>2014-11-01T10:49:44Z</time>
      </trkpt>
      <trkpt lat="42.366162000" lon="-2.476945000">
        <ele>507.50</ele>
        <time>2014-11-01T10:49:45Z</time>
      </trkpt>
      <trkpt lat="42.366183000" lon="-2.476881000">
        <ele>507.40</ele>
        <time>2014-11-01T10:49:46Z</time>
      </trkpt>
      <trkpt lat="42.366200000" lon="-2.476811000">
        <ele>507.30</ele>
        <time>2014-11-01T10:49:47Z</time>
      </trkpt>
      <trkpt lat="42.366218000" lon="-2.476739000">
        <ele>507.20</ele>
        <time>2014-11-01T10:49:48Z</time>
      </trkpt>
      <trkpt lat="42.366239000" lon="-2.476666000">
        <ele>507.10</ele>
        <time>2014-11-01T10:49:49Z</time>
      </trkpt>
      <trkpt lat="42.366261000" lon="-2.476595000">
        <ele>507.40</ele>
        <time>2014-11-01T10:49:50Z</time>
      </trkpt>
      <trkpt lat="42.366284000" lon="-2.476529000">
        <ele>507.60</ele>
        <time>2014-11-01T10:49:51Z</time>
      </trkpt>
      <trkpt lat="42.366309000" lon="-2.476463000">
        <ele>507.70</ele>
        <time>2014-11-01T10:49:52Z</time>
      </trkpt>
      <trkpt lat="42.366340000" lon="-2.476400000">
        <ele>507.80</ele>
        <time>2014-11-01T10:49:53Z</time>
      </trkpt>
      <trkpt lat="42.366373000" lon="-2.476341000">
        <ele>507.90</ele>
        <time>2014-11-01T10:49:54Z</time>
      </trkpt>
      <trkpt lat="42.366411000" lon="-2.476280000">
        <ele>508.00</ele>
        <time>2014-11-01T10:49:55Z</time>
      </trkpt>
      <trkpt lat="42.366451000" lon="-2.476226000">
        <ele>508.00</ele>
        <time>2014-11-01T10:49:56Z</time>
      </trkpt>
      <trkpt lat="42.366494000" lon="-2.476173000">
        <ele>508.10</ele>
        <time>2014-11-01T10:49:57Z</time>
      </trkpt>
      <trkpt lat="42.366538000" lon="-2.476120000">
        <ele>508.10</ele>
        <time>2014-11-01T10:49:58Z</time>
      </trkpt>
      <trkpt lat="42.366582000" lon="-2.476067000">
        <ele>508.10</ele>
        <time>2014-11-01T10:49:59Z</time>
      </trkpt>
      <trkpt lat="42.366627000" lon="-2.476010000">
        <ele>508.00</ele>
        <time>2014-11-01T10:50:00Z</time>
      </trkpt>
      <trkpt lat="42.366671000" lon="-2.475956000">
        <ele>507.90</ele>
        <time>2014-11-01T10:50:01Z</time>
      </trkpt>
      <trkpt lat="42.366715000" lon="-2.475901000">
        <ele>507.70</ele>
        <time>2014-11-01T10:50:02Z</time>
      </trkpt>
      <trkpt lat="42.366760000" lon="-2.475847000">
        <ele>507.60</ele>
        <time>2014-11-01T10:50:03Z</time>
      </trkpt>
      <trkpt lat="42.366803000" lon="-2.475791000">
        <ele>507.20</ele>
        <time>2014-11-01T10:50:04Z</time>
      </trkpt>
      <trkpt lat="42.366847000" lon="-2.475737000">
        <ele>506.90</ele>
        <time>2014-11-01T10:50:05Z</time>
      </trkpt>
      <trkpt lat="42.366889000" lon="-2.475681000">
        <ele>507.00</ele>
        <time>2014-11-01T10:50:06Z</time>
      </trkpt>
      <trkpt lat="42.366931000" lon="-2.475623000">
        <ele>507.10</ele>
        <time>2014-11-01T10:50:07Z</time>
      </trkpt>
      <trkpt lat="42.366970000" lon="-2.475565000">
        <ele>506.80</ele>
        <time>2014-11-01T10:50:08Z</time>
      </trkpt>
      <trkpt lat="42.367009000" lon="-2.475503000">
        <ele>506.60</ele>
        <time>2014-11-01T10:50:09Z</time>
      </trkpt>
      <trkpt lat="42.367048000" lon="-2.475441000">
        <ele>506.40</ele>
        <time>2014-11-01T10:50:10Z</time>
      </trkpt>
      <trkpt lat="42.367087000" lon="-2.475382000">
        <ele>506.20</ele>
        <time>2014-11-01T10:50:11Z</time>
      </trkpt>
      <trkpt lat="42.367131000" lon="-2.475330000">
        <ele>506.10</ele>
        <time>2014-11-01T10:50:12Z</time>
      </trkpt>
      <trkpt lat="42.367178000" lon="-2.475283000">
        <ele>506.00</ele>
        <time>2014-11-01T10:50:13Z</time>
      </trkpt>
      <trkpt lat="42.367278000" lon="-2.475207000">
        <ele>505.90</ele>
        <time>2014-11-01T10:50:15Z</time>
      </trkpt>
      <trkpt lat="42.367328000" lon="-2.475176000">
        <ele>505.90</ele>
        <time>2014-11-01T10:50:16Z</time>
      </trkpt>
      <trkpt lat="42.367379000" lon="-2.475141000">
        <ele>506.00</ele>
        <time>2014-11-01T10:50:17Z</time>
      </trkpt>
      <trkpt lat="42.367428000" lon="-2.475104000">
        <ele>506.00</ele>
        <time>2014-11-01T10:50:18Z</time>
      </trkpt>
      <trkpt lat="42.367476000" lon="-2.475069000">
        <ele>506.00</ele>
        <time>2014-11-01T10:50:19Z</time>
      </trkpt>
      <trkpt lat="42.367523000" lon="-2.475029000">
        <ele>506.00</ele>
        <time>2014-11-01T10:50:20Z</time>
      </trkpt>
      <trkpt lat="42.367569000" lon="-2.474988000">
        <ele>506.00</ele>
        <time>2014-11-01T10:50:21Z</time>
      </trkpt>
      <trkpt lat="42.367617000" lon="-2.474947000">
        <ele>505.90</ele>
        <time>2014-11-01T10:50:22Z</time>
      </trkpt>
      <trkpt lat="42.367669000" lon="-2.474910000">
        <ele>505.90</ele>
        <time>2014-11-01T10:50:23Z</time>
      </trkpt>
      <trkpt lat="42.367723000" lon="-2.474878000">
        <ele>505.60</ele>
        <time>2014-11-01T10:50:24Z</time>
      </trkpt>
      <trkpt lat="42.367776000" lon="-2.474850000">
        <ele>505.40</ele>
        <time>2014-11-01T10:50:25Z</time>
      </trkpt>
      <trkpt lat="42.367829000" lon="-2.474826000">
        <ele>505.20</ele>
        <time>2014-11-01T10:50:26Z</time>
      </trkpt>
      <trkpt lat="42.367884000" lon="-2.474804000">
        <ele>505.10</ele>
        <time>2014-11-01T10:50:27Z</time>
      </trkpt>
      <trkpt lat="42.367941000" lon="-2.474787000">
        <ele>505.20</ele>
        <time>2014-11-01T10:50:28Z</time>
      </trkpt>
      <trkpt lat="42.367999000" lon="-2.474774000">
        <ele>505.30</ele>
        <time>2014-11-01T10:50:29Z</time>
      </trkpt>
      <trkpt lat="42.368058000" lon="-2.474762000">
        <ele>505.60</ele>
        <time>2014-11-01T10:50:30Z</time>
      </trkpt>
      <trkpt lat="42.368117000" lon="-2.474753000">
        <ele>505.80</ele>
        <time>2014-11-01T10:50:31Z</time>
      </trkpt>
      <trkpt lat="42.368177000" lon="-2.474747000">
        <ele>506.10</ele>
        <time>2014-11-01T10:50:32Z</time>
      </trkpt>
      <trkpt lat="42.368238000" lon="-2.474742000">
        <ele>506.20</ele>
        <time>2014-11-01T10:50:33Z</time>
      </trkpt>
      <trkpt lat="42.368300000" lon="-2.474741000">
        <ele>506.30</ele>
        <time>2014-11-01T10:50:34Z</time>
      </trkpt>
      <trkpt lat="42.368363000" lon="-2.474738000">
        <ele>506.40</ele>
        <time>2014-11-01T10:50:35Z</time>
      </trkpt>
      <trkpt lat="42.368425000" lon="-2.474742000">
        <ele>506.20</ele>
        <time>2014-11-01T10:50:36Z</time>
      </trkpt>
      <trkpt lat="42.368489000" lon="-2.474745000">
        <ele>506.10</ele>
        <time>2014-11-01T10:50:37Z</time>
      </trkpt>
      <trkpt lat="42.368553000" lon="-2.474744000">
        <ele>505.90</ele>
        <time>2014-11-01T10:50:38Z</time>
      </trkpt>
      <trkpt lat="42.368617000" lon="-2.474745000">
        <ele>505.70</ele>
        <time>2014-11-01T10:50:39Z</time>
      </trkpt>
      <trkpt lat="42.368679000" lon="-2.474745000">
        <ele>505.60</ele>
        <time>2014-11-01T10:50:40Z</time>
      </trkpt>
      <trkpt lat="42.368742000" lon="-2.474746000">
        <ele>505.50</ele>
        <time>2014-11-01T10:50:41Z</time>
      </trkpt>
      <trkpt lat="42.368804000" lon="-2.474742000">
        <ele>505.60</ele>
        <time>2014-11-01T10:50:42Z</time>
      </trkpt>
      <trkpt lat="42.368867000" lon="-2.474733000">
        <ele>505.70</ele>
        <time>2014-11-01T10:50:43Z</time>
      </trkpt>
      <trkpt lat="42.368930000" lon="-2.474721000">
        <ele>505.80</ele>
        <time>2014-11-01T10:50:44Z</time>
      </trkpt>
      <trkpt lat="42.368992000" lon="-2.474705000">
        <ele>505.90</ele>
        <time>2014-11-01T10:50:45Z</time>
      </trkpt>
      <trkpt lat="42.369054000" lon="-2.474686000">
        <ele>505.40</ele>
        <time>2014-11-01T10:50:46Z</time>
      </trkpt>
      <trkpt lat="42.369112000" lon="-2.474661000">
        <ele>505.10</ele>
        <time>2014-11-01T10:50:47Z</time>
      </trkpt>
      <trkpt lat="42.369172000" lon="-2.474634000">
        <ele>504.80</ele>
        <time>2014-11-01T10:50:48Z</time>
      </trkpt>
      <trkpt lat="42.369230000" lon="-2.474604000">
        <ele>504.60</ele>
        <time>2014-11-01T10:50:49Z</time>
      </trkpt>
      <trkpt lat="42.369288000" lon="-2.474566000">
        <ele>504.50</ele>
        <time>2014-11-01T10:50:50Z</time>
      </trkpt>
      <trkpt lat="42.369346000" lon="-2.474528000">
        <ele>504.40</ele>
        <time>2014-11-01T10:50:51Z</time>
      </trkpt>
      <trkpt lat="42.369405000" lon="-2.474489000">
        <ele>504.40</ele>
        <time>2014-11-01T10:50:52Z</time>
      </trkpt>
      <trkpt lat="42.369462000" lon="-2.474449000">
        <ele>504.30</ele>
        <time>2014-11-01T10:50:53Z</time>
      </trkpt>
      <trkpt lat="42.369520000" lon="-2.474411000">
        <ele>504.00</ele>
        <time>2014-11-01T10:50:54Z</time>
      </trkpt>
      <trkpt lat="42.369578000" lon="-2.474375000">
        <ele>503.70</ele>
        <time>2014-11-01T10:50:55Z</time>
      </trkpt>
      <trkpt lat="42.369635000" lon="-2.474340000">
        <ele>503.60</ele>
        <time>2014-11-01T10:50:56Z</time>
      </trkpt>
      <trkpt lat="42.369694000" lon="-2.474308000">
        <ele>503.40</ele>
        <time>2014-11-01T10:50:57Z</time>
      </trkpt>
      <trkpt lat="42.369757000" lon="-2.474286000">
        <ele>503.40</ele>
        <time>2014-11-01T10:50:58Z</time>
      </trkpt>
      <trkpt lat="42.369821000" lon="-2.474269000">
        <ele>503.30</ele>
        <time>2014-11-01T10:50:59Z</time>
      </trkpt>
      <trkpt lat="42.369885000" lon="-2.474254000">
        <ele>503.30</ele>
        <time>2014-11-01T10:51:00Z</time>
      </trkpt>
      <trkpt lat="42.369947000" lon="-2.474236000">
        <ele>503.30</ele>
        <time>2014-11-01T10:51:01Z</time>
      </trkpt>
      <trkpt lat="42.370011000" lon="-2.474212000">
        <ele>503.30</ele>
        <time>2014-11-01T10:51:02Z</time>
      </trkpt>
      <trkpt lat="42.370072000" lon="-2.474188000">
        <ele>503.30</ele>
        <time>2014-11-01T10:51:03Z</time>
      </trkpt>
      <trkpt lat="42.370131000" lon="-2.474161000">
        <ele>503.30</ele>
        <time>2014-11-01T10:51:04Z</time>
      </trkpt>
      <trkpt lat="42.370191000" lon="-2.474130000">
        <ele>503.30</ele>
        <time>2014-11-01T10:51:05Z</time>
      </trkpt>
      <trkpt lat="42.370248000" lon="-2.474103000">
        <ele>503.10</ele>
        <time>2014-11-01T10:51:06Z</time>
      </trkpt>
      <trkpt lat="42.370305000" lon="-2.474077000">
        <ele>503.00</ele>
        <time>2014-11-01T10:51:07Z</time>
      </trkpt>
      <trkpt lat="42.370364000" lon="-2.474051000">
        <ele>503.00</ele>
        <time>2014-11-01T10:51:08Z</time>
      </trkpt>
      <trkpt lat="42.370424000" lon="-2.474029000">
        <ele>502.90</ele>
        <time>2014-11-01T10:51:09Z</time>
      </trkpt>
      <trkpt lat="42.370483000" lon="-2.474006000">
        <ele>502.90</ele>
        <time>2014-11-01T10:51:10Z</time>
      </trkpt>
      <trkpt lat="42.370544000" lon="-2.473986000">
        <ele>502.80</ele>
        <time>2014-11-01T10:51:11Z</time>
      </trkpt>
      <trkpt lat="42.370605000" lon="-2.473967000">
        <ele>502.50</ele>
        <time>2014-11-01T10:51:12Z</time>
      </trkpt>
      <trkpt lat="42.370665000" lon="-2.473944000">
        <ele>502.20</ele>
        <time>2014-11-01T10:51:13Z</time>
      </trkpt>
      <trkpt lat="42.370728000" lon="-2.473918000">
        <ele>502.10</ele>
        <time>2014-11-01T10:51:14Z</time>
      </trkpt>
      <trkpt lat="42.370851000" lon="-2.473873000">
        <ele>501.80</ele>
        <time>2014-11-01T10:51:16Z</time>
      </trkpt>
      <trkpt lat="42.370915000" lon="-2.473854000">
        <ele>501.70</ele>
        <time>2014-11-01T10:51:17Z</time>
      </trkpt>
      <trkpt lat="42.370975000" lon="-2.473833000">
        <ele>501.70</ele>
        <time>2014-11-01T10:51:18Z</time>
      </trkpt>
      <trkpt lat="42.371035000" lon="-2.473812000">
        <ele>501.60</ele>
        <time>2014-11-01T10:51:19Z</time>
      </trkpt>
      <trkpt lat="42.371095000" lon="-2.473790000">
        <ele>501.60</ele>
        <time>2014-11-01T10:51:20Z</time>
      </trkpt>
      <trkpt lat="42.371155000" lon="-2.473770000">
        <ele>501.50</ele>
        <time>2014-11-01T10:51:21Z</time>
      </trkpt>
      <trkpt lat="42.371216000" lon="-2.473749000">
        <ele>501.30</ele>
        <time>2014-11-01T10:51:22Z</time>
      </trkpt>
      <trkpt lat="42.371276000" lon="-2.473730000">
        <ele>501.10</ele>
        <time>2014-11-01T10:51:23Z</time>
      </trkpt>
      <trkpt lat="42.371335000" lon="-2.473709000">
        <ele>501.00</ele>
        <time>2014-11-01T10:51:24Z</time>
      </trkpt>
      <trkpt lat="42.371392000" lon="-2.473684000">
        <ele>501.00</ele>
        <time>2014-11-01T10:51:25Z</time>
      </trkpt>
      <trkpt lat="42.371449000" lon="-2.473660000">
        <ele>500.80</ele>
        <time>2014-11-01T10:51:26Z</time>
      </trkpt>
      <trkpt lat="42.371505000" lon="-2.473636000">
        <ele>500.60</ele>
        <time>2014-11-01T10:51:27Z</time>
      </trkpt>
      <trkpt lat="42.371560000" lon="-2.473606000">
        <ele>500.70</ele>
        <time>2014-11-01T10:51:28Z</time>
      </trkpt>
      <trkpt lat="42.371614000" lon="-2.473574000">
        <ele>500.70</ele>
        <time>2014-11-01T10:51:29Z</time>
      </trkpt>
      <trkpt lat="42.371668000" lon="-2.473545000">
        <ele>500.70</ele>
        <time>2014-11-01T10:51:30Z</time>
      </trkpt>
      <trkpt lat="42.371721000" lon="-2.473512000">
        <ele>500.70</ele>
        <time>2014-11-01T10:51:31Z</time>
      </trkpt>
      <trkpt lat="42.371775000" lon="-2.473479000">
        <ele>500.70</ele>
        <time>2014-11-01T10:51:32Z</time>
      </trkpt>
      <trkpt lat="42.371830000" lon="-2.473449000">
        <ele>500.70</ele>
        <time>2014-11-01T10:51:33Z</time>
      </trkpt>
      <trkpt lat="42.371885000" lon="-2.473419000">
        <ele>500.90</ele>
        <time>2014-11-01T10:51:34Z</time>
      </trkpt>
      <trkpt lat="42.371943000" lon="-2.473386000">
        <ele>501.00</ele>
        <time>2014-11-01T10:51:35Z</time>
      </trkpt>
      <trkpt lat="42.372002000" lon="-2.473359000">
        <ele>500.80</ele>
        <time>2014-11-01T10:51:36Z</time>
      </trkpt>
      <trkpt lat="42.372061000" lon="-2.473333000">
        <ele>500.70</ele>
        <time>2014-11-01T10:51:37Z</time>
      </trkpt>
      <trkpt lat="42.372122000" lon="-2.473312000">
        <ele>500.70</ele>
        <time>2014-11-01T10:51:38Z</time>
      </trkpt>
      <trkpt lat="42.372184000" lon="-2.473291000">
        <ele>500.60</ele>
        <time>2014-11-01T10:51:39Z</time>
      </trkpt>
      <trkpt lat="42.372247000" lon="-2.473274000">
        <ele>500.60</ele>
        <time>2014-11-01T10:51:40Z</time>
      </trkpt>
      <trkpt lat="42.372311000" lon="-2.473257000">
        <ele>500.60</ele>
        <time>2014-11-01T10:51:41Z</time>
      </trkpt>
      <trkpt lat="42.372373000" lon="-2.473239000">
        <ele>500.50</ele>
        <time>2014-11-01T10:51:42Z</time>
      </trkpt>
      <trkpt lat="42.372436000" lon="-2.473220000">
        <ele>500.40</ele>
        <time>2014-11-01T10:51:43Z</time>
      </trkpt>
      <trkpt lat="42.372500000" lon="-2.473202000">
        <ele>500.40</ele>
        <time>2014-11-01T10:51:44Z</time>
      </trkpt>
      <trkpt lat="42.372564000" lon="-2.473184000">
        <ele>500.40</ele>
        <time>2014-11-01T10:51:45Z</time>
      </trkpt>
      <trkpt lat="42.372626000" lon="-2.473159000">
        <ele>500.10</ele>
        <time>2014-11-01T10:51:46Z</time>
      </trkpt>
      <trkpt lat="42.372684000" lon="-2.473134000">
        <ele>499.80</ele>
        <time>2014-11-01T10:51:47Z</time>
      </trkpt>
      <trkpt lat="42.372742000" lon="-2.473105000">
        <ele>500.00</ele>
        <time>2014-11-01T10:51:48Z</time>
      </trkpt>
      <trkpt lat="42.372799000" lon="-2.473071000">
        <ele>500.10</ele>
        <time>2014-11-01T10:51:49Z</time>
      </trkpt>
      <trkpt lat="42.372857000" lon="-2.473039000">
        <ele>499.60</ele>
        <time>2014-11-01T10:51:50Z</time>
      </trkpt>
      <trkpt lat="42.372914000" lon="-2.473007000">
        <ele>499.20</ele>
        <time>2014-11-01T10:51:51Z</time>
      </trkpt>
      <trkpt lat="42.372970000" lon="-2.472971000">
        <ele>498.90</ele>
        <time>2014-11-01T10:51:52Z</time>
      </trkpt>
      <trkpt lat="42.373025000" lon="-2.472932000">
        <ele>498.60</ele>
        <time>2014-11-01T10:51:53Z</time>
      </trkpt>
      <trkpt lat="42.373078000" lon="-2.472890000">
        <ele>498.50</ele>
        <time>2014-11-01T10:51:54Z</time>
      </trkpt>
      <trkpt lat="42.373130000" lon="-2.472844000">
        <ele>498.40</ele>
        <time>2014-11-01T10:51:55Z</time>
      </trkpt>
      <trkpt lat="42.373182000" lon="-2.472796000">
        <ele>498.20</ele>
        <time>2014-11-01T10:51:56Z</time>
      </trkpt>
      <trkpt lat="42.373232000" lon="-2.472750000">
        <ele>498.10</ele>
        <time>2014-11-01T10:51:57Z</time>
      </trkpt>
      <trkpt lat="42.373280000" lon="-2.472707000">
        <ele>498.70</ele>
        <time>2014-11-01T10:51:58Z</time>
      </trkpt>
      <trkpt lat="42.373332000" lon="-2.472664000">
        <ele>499.10</ele>
        <time>2014-11-01T10:51:59Z</time>
      </trkpt>
      <trkpt lat="42.373387000" lon="-2.472624000">
        <ele>498.90</ele>
        <time>2014-11-01T10:52:00Z</time>
      </trkpt>
      <trkpt lat="42.373442000" lon="-2.472587000">
        <ele>498.70</ele>
        <time>2014-11-01T10:52:01Z</time>
      </trkpt>
      <trkpt lat="42.373498000" lon="-2.472555000">
        <ele>498.70</ele>
        <time>2014-11-01T10:52:02Z</time>
      </trkpt>
      <trkpt lat="42.373557000" lon="-2.472526000">
        <ele>498.60</ele>
        <time>2014-11-01T10:52:03Z</time>
      </trkpt>
      <trkpt lat="42.373615000" lon="-2.472496000">
        <ele>498.60</ele>
        <time>2014-11-01T10:52:04Z</time>
      </trkpt>
      <trkpt lat="42.373675000" lon="-2.472469000">
        <ele>498.60</ele>
        <time>2014-11-01T10:52:05Z</time>
      </trkpt>
      <trkpt lat="42.373734000" lon="-2.472440000">
        <ele>498.60</ele>
        <time>2014-11-01T10:52:06Z</time>
      </trkpt>
      <trkpt lat="42.373794000" lon="-2.472409000">
        <ele>498.60</ele>
        <time>2014-11-01T10:52:07Z</time>
      </trkpt>
      <trkpt lat="42.373851000" lon="-2.472377000">
        <ele>499.00</ele>
        <time>2014-11-01T10:52:08Z</time>
      </trkpt>
      <trkpt lat="42.373906000" lon="-2.472343000">
        <ele>499.20</ele>
        <time>2014-11-01T10:52:09Z</time>
      </trkpt>
      <trkpt lat="42.373962000" lon="-2.472307000">
        <ele>499.40</ele>
        <time>2014-11-01T10:52:10Z</time>
      </trkpt>
      <trkpt lat="42.374018000" lon="-2.472265000">
        <ele>499.50</ele>
        <time>2014-11-01T10:52:11Z</time>
      </trkpt>
      <trkpt lat="42.374071000" lon="-2.472222000">
        <ele>499.20</ele>
        <time>2014-11-01T10:52:12Z</time>
      </trkpt>
      <trkpt lat="42.374126000" lon="-2.472179000">
        <ele>499.00</ele>
        <time>2014-11-01T10:52:13Z</time>
      </trkpt>
      <trkpt lat="42.374179000" lon="-2.472134000">
        <ele>498.40</ele>
        <time>2014-11-01T10:52:14Z</time>
      </trkpt>
      <trkpt lat="42.374234000" lon="-2.472092000">
        <ele>498.00</ele>
        <time>2014-11-01T10:52:15Z</time>
      </trkpt>
      <trkpt lat="42.374344000" lon="-2.472001000">
        <ele>497.60</ele>
        <time>2014-11-01T10:52:17Z</time>
      </trkpt>
      <trkpt lat="42.374398000" lon="-2.471957000">
        <ele>497.50</ele>
        <time>2014-11-01T10:52:18Z</time>
      </trkpt>
      <trkpt lat="42.374450000" lon="-2.471914000">
        <ele>497.40</ele>
        <time>2014-11-01T10:52:19Z</time>
      </trkpt>
      <trkpt lat="42.374505000" lon="-2.471871000">
        <ele>497.40</ele>
        <time>2014-11-01T10:52:20Z</time>
      </trkpt>
      <trkpt lat="42.374559000" lon="-2.471827000">
        <ele>497.30</ele>
        <time>2014-11-01T10:52:21Z</time>
      </trkpt>
      <trkpt lat="42.374611000" lon="-2.471783000">
        <ele>496.90</ele>
        <time>2014-11-01T10:52:22Z</time>
      </trkpt>
      <trkpt lat="42.374667000" lon="-2.471742000">
        <ele>496.60</ele>
        <time>2014-11-01T10:52:23Z</time>
      </trkpt>
      <trkpt lat="42.374723000" lon="-2.471699000">
        <ele>496.40</ele>
        <time>2014-11-01T10:52:24Z</time>
      </trkpt>
      <trkpt lat="42.374780000" lon="-2.471658000">
        <ele>496.20</ele>
        <time>2014-11-01T10:52:25Z</time>
      </trkpt>
      <trkpt lat="42.374835000" lon="-2.471614000">
        <ele>496.50</ele>
        <time>2014-11-01T10:52:26Z</time>
      </trkpt>
      <trkpt lat="42.374891000" lon="-2.471570000">
        <ele>496.80</ele>
        <time>2014-11-01T10:52:27Z</time>
      </trkpt>
      <trkpt lat="42.374946000" lon="-2.471527000">
        <ele>497.00</ele>
        <time>2014-11-01T10:52:28Z</time>
      </trkpt>
      <trkpt lat="42.374999000" lon="-2.471483000">
        <ele>497.10</ele>
        <time>2014-11-01T10:52:29Z</time>
      </trkpt>
      <trkpt lat="42.375051000" lon="-2.471439000">
        <ele>496.80</ele>
        <time>2014-11-01T10:52:30Z</time>
      </trkpt>
      <trkpt lat="42.375101000" lon="-2.471396000">
        <ele>496.60</ele>
        <time>2014-11-01T10:52:31Z</time>
      </trkpt>
      <trkpt lat="42.375151000" lon="-2.471352000">
        <ele>496.40</ele>
        <time>2014-11-01T10:52:32Z</time>
      </trkpt>
      <trkpt lat="42.375198000" lon="-2.471306000">
        <ele>496.20</ele>
        <time>2014-11-01T10:52:33Z</time>
      </trkpt>
      <trkpt lat="42.375245000" lon="-2.471260000">
        <ele>496.20</ele>
        <time>2014-11-01T10:52:34Z</time>
      </trkpt>
      <trkpt lat="42.375294000" lon="-2.471213000">
        <ele>496.10</ele>
        <time>2014-11-01T10:52:35Z</time>
      </trkpt>
      <trkpt lat="42.375342000" lon="-2.471165000">
        <ele>496.00</ele>
        <time>2014-11-01T10:52:36Z</time>
      </trkpt>
      <trkpt lat="42.375390000" lon="-2.471115000">
        <ele>495.90</ele>
        <time>2014-11-01T10:52:37Z</time>
      </trkpt>
      <trkpt lat="42.375435000" lon="-2.471063000">
        <ele>495.80</ele>
        <time>2014-11-01T10:52:38Z</time>
      </trkpt>
      <trkpt lat="42.375484000" lon="-2.471014000">
        <ele>495.60</ele>
        <time>2014-11-01T10:52:39Z</time>
      </trkpt>
      <trkpt lat="42.375533000" lon="-2.470963000">
        <ele>495.50</ele>
        <time>2014-11-01T10:52:40Z</time>
      </trkpt>
      <trkpt lat="42.375582000" lon="-2.470912000">
        <ele>495.40</ele>
        <time>2014-11-01T10:52:41Z</time>
      </trkpt>
      <trkpt lat="42.375633000" lon="-2.470862000">
        <ele>495.40</ele>
        <time>2014-11-01T10:52:42Z</time>
      </trkpt>
      <trkpt lat="42.375680000" lon="-2.470809000">
        <ele>495.30</ele>
        <time>2014-11-01T10:52:43Z</time>
      </trkpt>
      <trkpt lat="42.375730000" lon="-2.470754000">
        <ele>495.50</ele>
        <time>2014-11-01T10:52:44Z</time>
      </trkpt>
      <trkpt lat="42.375776000" lon="-2.470701000">
        <ele>495.60</ele>
        <time>2014-11-01T10:52:45Z</time>
      </trkpt>
      <trkpt lat="42.375821000" lon="-2.470648000">
        <ele>495.80</ele>
        <time>2014-11-01T10:52:46Z</time>
      </trkpt>
      <trkpt lat="42.375870000" lon="-2.470598000">
        <ele>496.00</ele>
        <time>2014-11-01T10:52:47Z</time>
      </trkpt>
      <trkpt lat="42.375915000" lon="-2.470549000">
        <ele>496.10</ele>
        <time>2014-11-01T10:52:48Z</time>
      </trkpt>
      <trkpt lat="42.375959000" lon="-2.470495000">
        <ele>496.20</ele>
        <time>2014-11-01T10:52:49Z</time>
      </trkpt>
      <trkpt lat="42.376005000" lon="-2.470443000">
        <ele>496.00</ele>
        <time>2014-11-01T10:52:50Z</time>
      </trkpt>
      <trkpt lat="42.376054000" lon="-2.470390000">
        <ele>495.90</ele>
        <time>2014-11-01T10:52:51Z</time>
      </trkpt>
      <trkpt lat="42.376101000" lon="-2.470336000">
        <ele>495.80</ele>
        <time>2014-11-01T10:52:52Z</time>
      </trkpt>
      <trkpt lat="42.376148000" lon="-2.470283000">
        <ele>495.70</ele>
        <time>2014-11-01T10:52:53Z</time>
      </trkpt>
      <trkpt lat="42.376198000" lon="-2.470233000">
        <ele>495.50</ele>
        <time>2014-11-01T10:52:54Z</time>
      </trkpt>
      <trkpt lat="42.376245000" lon="-2.470181000">
        <ele>495.30</ele>
        <time>2014-11-01T10:52:55Z</time>
      </trkpt>
      <trkpt lat="42.376298000" lon="-2.470137000">
        <ele>495.10</ele>
        <time>2014-11-01T10:52:56Z</time>
      </trkpt>
      <trkpt lat="42.376352000" lon="-2.470092000">
        <ele>494.90</ele>
        <time>2014-11-01T10:52:57Z</time>
      </trkpt>
      <trkpt lat="42.376412000" lon="-2.470054000">
        <ele>494.70</ele>
        <time>2014-11-01T10:52:58Z</time>
      </trkpt>
      <trkpt lat="42.376476000" lon="-2.470026000">
        <ele>494.60</ele>
        <time>2014-11-01T10:52:59Z</time>
      </trkpt>
      <trkpt lat="42.376542000" lon="-2.470002000">
        <ele>494.30</ele>
        <time>2014-11-01T10:53:00Z</time>
      </trkpt>
      <trkpt lat="42.376611000" lon="-2.469982000">
        <ele>494.20</ele>
        <time>2014-11-01T10:53:01Z</time>
      </trkpt>
      <trkpt lat="42.376679000" lon="-2.469962000">
        <ele>494.00</ele>
        <time>2014-11-01T10:53:02Z</time>
      </trkpt>
      <trkpt lat="42.376746000" lon="-2.469943000">
        <ele>493.80</ele>
        <time>2014-11-01T10:53:03Z</time>
      </trkpt>
      <trkpt lat="42.376814000" lon="-2.469919000">
        <ele>493.70</ele>
        <time>2014-11-01T10:53:04Z</time>
      </trkpt>
      <trkpt lat="42.376880000" lon="-2.469894000">
        <ele>493.50</ele>
        <time>2014-11-01T10:53:05Z</time>
      </trkpt>
      <trkpt lat="42.376940000" lon="-2.469873000">
        <ele>493.30</ele>
        <time>2014-11-01T10:53:06Z</time>
      </trkpt>
      <trkpt lat="42.377000000" lon="-2.469846000">
        <ele>493.20</ele>
        <time>2014-11-01T10:53:07Z</time>
      </trkpt>
      <trkpt lat="42.377062000" lon="-2.469818000">
        <ele>493.10</ele>
        <time>2014-11-01T10:53:08Z</time>
      </trkpt>
      <trkpt lat="42.377123000" lon="-2.469790000">
        <ele>493.00</ele>
        <time>2014-11-01T10:53:09Z</time>
      </trkpt>
      <trkpt lat="42.377184000" lon="-2.469765000">
        <ele>492.90</ele>
        <time>2014-11-01T10:53:10Z</time>
      </trkpt>
      <trkpt lat="42.377245000" lon="-2.469746000">
        <ele>492.80</ele>
        <time>2014-11-01T10:53:11Z</time>
      </trkpt>
      <trkpt lat="42.377306000" lon="-2.469736000">
        <ele>492.90</ele>
        <time>2014-11-01T10:53:12Z</time>
      </trkpt>
      <trkpt lat="42.377369000" lon="-2.469727000">
        <ele>492.90</ele>
        <time>2014-11-01T10:53:13Z</time>
      </trkpt>
      <trkpt lat="42.377432000" lon="-2.469722000">
        <ele>492.70</ele>
        <time>2014-11-01T10:53:14Z</time>
      </trkpt>
      <trkpt lat="42.377495000" lon="-2.469723000">
        <ele>492.60</ele>
        <time>2014-11-01T10:53:15Z</time>
      </trkpt>
      <trkpt lat="42.377557000" lon="-2.469722000">
        <ele>492.50</ele>
        <time>2014-11-01T10:53:16Z</time>
      </trkpt>
      <trkpt lat="42.377682000" lon="-2.469721000">
        <ele>492.30</ele>
        <time>2014-11-01T10:53:18Z</time>
      </trkpt>
      <trkpt lat="42.377742000" lon="-2.469715000">
        <ele>492.30</ele>
        <time>2014-11-01T10:53:19Z</time>
      </trkpt>
      <trkpt lat="42.377799000" lon="-2.469704000">
        <ele>491.90</ele>
        <time>2014-11-01T10:53:20Z</time>
      </trkpt>
      <trkpt lat="42.377859000" lon="-2.469690000">
        <ele>491.60</ele>
        <time>2014-11-01T10:53:21Z</time>
      </trkpt>
      <trkpt lat="42.377915000" lon="-2.469672000">
        <ele>491.30</ele>
        <time>2014-11-01T10:53:22Z</time>
      </trkpt>
      <trkpt lat="42.377971000" lon="-2.469650000">
        <ele>491.20</ele>
        <time>2014-11-01T10:53:23Z</time>
      </trkpt>
      <trkpt lat="42.378025000" lon="-2.469622000">
        <ele>491.00</ele>
        <time>2014-11-01T10:53:24Z</time>
      </trkpt>
      <trkpt lat="42.378078000" lon="-2.469590000">
        <ele>490.90</ele>
        <time>2014-11-01T10:53:25Z</time>
      </trkpt>
      <trkpt lat="42.378131000" lon="-2.469556000">
        <ele>490.70</ele>
        <time>2014-11-01T10:53:26Z</time>
      </trkpt>
      <trkpt lat="42.378184000" lon="-2.469520000">
        <ele>490.60</ele>
        <time>2014-11-01T10:53:27Z</time>
      </trkpt>
      <trkpt lat="42.378237000" lon="-2.469486000">
        <ele>490.50</ele>
        <time>2014-11-01T10:53:28Z</time>
      </trkpt>
      <trkpt lat="42.378289000" lon="-2.469452000">
        <ele>490.40</ele>
        <time>2014-11-01T10:53:29Z</time>
      </trkpt>
      <trkpt lat="42.378342000" lon="-2.469416000">
        <ele>490.30</ele>
        <time>2014-11-01T10:53:30Z</time>
      </trkpt>
      <trkpt lat="42.378396000" lon="-2.469380000">
        <ele>490.30</ele>
        <time>2014-11-01T10:53:31Z</time>
      </trkpt>
      <trkpt lat="42.378450000" lon="-2.469344000">
        <ele>490.10</ele>
        <time>2014-11-01T10:53:32Z</time>
      </trkpt>
      <trkpt lat="42.378507000" lon="-2.469312000">
        <ele>490.00</ele>
        <time>2014-11-01T10:53:33Z</time>
      </trkpt>
      <trkpt lat="42.378566000" lon="-2.469283000">
        <ele>489.90</ele>
        <time>2014-11-01T10:53:34Z</time>
      </trkpt>
      <trkpt lat="42.378626000" lon="-2.469254000">
        <ele>489.80</ele>
        <time>2014-11-01T10:53:35Z</time>
      </trkpt>
      <trkpt lat="42.378685000" lon="-2.469224000">
        <ele>489.70</ele>
        <time>2014-11-01T10:53:36Z</time>
      </trkpt>
      <trkpt lat="42.378742000" lon="-2.469194000">
        <ele>489.60</ele>
        <time>2014-11-01T10:53:37Z</time>
      </trkpt>
      <trkpt lat="42.378798000" lon="-2.469161000">
        <ele>489.40</ele>
        <time>2014-11-01T10:53:38Z</time>
      </trkpt>
      <trkpt lat="42.378853000" lon="-2.469122000">
        <ele>489.30</ele>
        <time>2014-11-01T10:53:39Z</time>
      </trkpt>
      <trkpt lat="42.378904000" lon="-2.469082000">
        <ele>489.10</ele>
        <time>2014-11-01T10:53:40Z</time>
      </trkpt>
      <trkpt lat="42.378955000" lon="-2.469040000">
        <ele>489.00</ele>
        <time>2014-11-01T10:53:41Z</time>
      </trkpt>
      <trkpt lat="42.379003000" lon="-2.468994000">
        <ele>488.90</ele>
        <time>2014-11-01T10:53:42Z</time>
      </trkpt>
      <trkpt lat="42.379049000" lon="-2.468946000">
        <ele>488.90</ele>
        <time>2014-11-01T10:53:43Z</time>
      </trkpt>
      <trkpt lat="42.379093000" lon="-2.468896000">
        <ele>488.80</ele>
        <time>2014-11-01T10:53:44Z</time>
      </trkpt>
      <trkpt lat="42.379137000" lon="-2.468843000">
        <ele>488.70</ele>
        <time>2014-11-01T10:53:45Z</time>
      </trkpt>
      <trkpt lat="42.379181000" lon="-2.468789000">
        <ele>489.00</ele>
        <time>2014-11-01T10:53:46Z</time>
      </trkpt>
      <trkpt lat="42.379220000" lon="-2.468733000">
        <ele>489.10</ele>
        <time>2014-11-01T10:53:47Z</time>
      </trkpt>
      <trkpt lat="42.379259000" lon="-2.468674000">
        <ele>489.40</ele>
        <time>2014-11-01T10:53:48Z</time>
      </trkpt>
      <trkpt lat="42.379301000" lon="-2.468617000">
        <ele>489.70</ele>
        <time>2014-11-01T10:53:49Z</time>
      </trkpt>
      <trkpt lat="42.379340000" lon="-2.468561000">
        <ele>490.00</ele>
        <time>2014-11-01T10:53:50Z</time>
      </trkpt>
      <trkpt lat="42.379381000" lon="-2.468503000">
        <ele>490.20</ele>
        <time>2014-11-01T10:53:51Z</time>
      </trkpt>
      <trkpt lat="42.379425000" lon="-2.468450000">
        <ele>490.20</ele>
        <time>2014-11-01T10:53:52Z</time>
      </trkpt>
      <trkpt lat="42.379469000" lon="-2.468396000">
        <ele>490.30</ele>
        <time>2014-11-01T10:53:53Z</time>
      </trkpt>
      <trkpt lat="42.379515000" lon="-2.468344000">
        <ele>489.70</ele>
        <time>2014-11-01T10:53:54Z</time>
      </trkpt>
      <trkpt lat="42.379564000" lon="-2.468294000">
        <ele>489.30</ele>
        <time>2014-11-01T10:53:55Z</time>
      </trkpt>
      <trkpt lat="42.379614000" lon="-2.468244000">
        <ele>489.00</ele>
        <time>2014-11-01T10:53:56Z</time>
      </trkpt>
      <trkpt lat="42.379666000" lon="-2.468200000">
        <ele>488.70</ele>
        <time>2014-11-01T10:53:57Z</time>
      </trkpt>
      <trkpt lat="42.379720000" lon="-2.468159000">
        <ele>489.20</ele>
        <time>2014-11-01T10:53:58Z</time>
      </trkpt>
      <trkpt lat="42.379777000" lon="-2.468121000">
        <ele>489.60</ele>
        <time>2014-11-01T10:53:59Z</time>
      </trkpt>
      <trkpt lat="42.379835000" lon="-2.468089000">
        <ele>489.80</ele>
        <time>2014-11-01T10:54:00Z</time>
      </trkpt>
      <trkpt lat="42.379892000" lon="-2.468058000">
        <ele>490.00</ele>
        <time>2014-11-01T10:54:01Z</time>
      </trkpt>
      <trkpt lat="42.379950000" lon="-2.468026000">
        <ele>490.10</ele>
        <time>2014-11-01T10:54:02Z</time>
      </trkpt>
      <trkpt lat="42.380011000" lon="-2.467990000">
        <ele>490.20</ele>
        <time>2014-11-01T10:54:03Z</time>
      </trkpt>
      <trkpt lat="42.380068000" lon="-2.467955000">
        <ele>489.90</ele>
        <time>2014-11-01T10:54:04Z</time>
      </trkpt>
      <trkpt lat="42.380127000" lon="-2.467922000">
        <ele>489.70</ele>
        <time>2014-11-01T10:54:05Z</time>
      </trkpt>
      <trkpt lat="42.380185000" lon="-2.467888000">
        <ele>489.50</ele>
        <time>2014-11-01T10:54:06Z</time>
      </trkpt>
      <trkpt lat="42.380244000" lon="-2.467853000">
        <ele>489.30</ele>
        <time>2014-11-01T10:54:07Z</time>
      </trkpt>
      <trkpt lat="42.380301000" lon="-2.467814000">
        <ele>489.20</ele>
        <time>2014-11-01T10:54:08Z</time>
      </trkpt>
      <trkpt lat="42.380360000" lon="-2.467779000">
        <ele>489.10</ele>
        <time>2014-11-01T10:54:09Z</time>
      </trkpt>
      <trkpt lat="42.380419000" lon="-2.467745000">
        <ele>489.00</ele>
        <time>2014-11-01T10:54:10Z</time>
      </trkpt>
      <trkpt lat="42.380478000" lon="-2.467711000">
        <ele>489.00</ele>
        <time>2014-11-01T10:54:11Z</time>
      </trkpt>
      <trkpt lat="42.380536000" lon="-2.467683000">
        <ele>488.70</ele>
        <time>2014-11-01T10:54:12Z</time>
      </trkpt>
      <trkpt lat="42.380594000" lon="-2.467649000">
        <ele>488.50</ele>
        <time>2014-11-01T10:54:13Z</time>
      </trkpt>
      <trkpt lat="42.380654000" lon="-2.467618000">
        <ele>488.30</ele>
        <time>2014-11-01T10:54:14Z</time>
      </trkpt>
      <trkpt lat="42.380714000" lon="-2.467590000">
        <ele>488.20</ele>
        <time>2014-11-01T10:54:15Z</time>
      </trkpt>
      <trkpt lat="42.380775000" lon="-2.467563000">
        <ele>487.80</ele>
        <time>2014-11-01T10:54:16Z</time>
      </trkpt>
      <trkpt lat="42.380834000" lon="-2.467540000">
        <ele>487.50</ele>
        <time>2014-11-01T10:54:17Z</time>
      </trkpt>
      <trkpt lat="42.380953000" lon="-2.467495000">
        <ele>487.20</ele>
        <time>2014-11-01T10:54:19Z</time>
      </trkpt>
      <trkpt lat="42.381013000" lon="-2.467469000">
        <ele>487.50</ele>
        <time>2014-11-01T10:54:20Z</time>
      </trkpt>
      <trkpt lat="42.381070000" lon="-2.467439000">
        <ele>487.70</ele>
        <time>2014-11-01T10:54:21Z</time>
      </trkpt>
      <trkpt lat="42.381125000" lon="-2.467404000">
        <ele>487.80</ele>
        <time>2014-11-01T10:54:22Z</time>
      </trkpt>
      <trkpt lat="42.381181000" lon="-2.467373000">
        <ele>487.90</ele>
        <time>2014-11-01T10:54:23Z</time>
      </trkpt>
      <trkpt lat="42.381239000" lon="-2.467337000">
        <ele>487.80</ele>
        <time>2014-11-01T10:54:24Z</time>
      </trkpt>
      <trkpt lat="42.381295000" lon="-2.467301000">
        <ele>487.60</ele>
        <time>2014-11-01T10:54:25Z</time>
      </trkpt>
      <trkpt lat="42.381349000" lon="-2.467265000">
        <ele>487.40</ele>
        <time>2014-11-01T10:54:26Z</time>
      </trkpt>
      <trkpt lat="42.381401000" lon="-2.467229000">
        <ele>487.10</ele>
        <time>2014-11-01T10:54:27Z</time>
      </trkpt>
      <trkpt lat="42.381455000" lon="-2.467195000">
        <ele>487.00</ele>
        <time>2014-11-01T10:54:28Z</time>
      </trkpt>
      <trkpt lat="42.381506000" lon="-2.467149000">
        <ele>486.90</ele>
        <time>2014-11-01T10:54:29Z</time>
      </trkpt>
      <trkpt lat="42.381554000" lon="-2.467103000">
        <ele>486.80</ele>
        <time>2014-11-01T10:54:30Z</time>
      </trkpt>
      <trkpt lat="42.381600000" lon="-2.467056000">
        <ele>486.70</ele>
        <time>2014-11-01T10:54:31Z</time>
      </trkpt>
      <trkpt lat="42.381643000" lon="-2.467006000">
        <ele>486.80</ele>
        <time>2014-11-01T10:54:32Z</time>
      </trkpt>
      <trkpt lat="42.381685000" lon="-2.466951000">
        <ele>486.80</ele>
        <time>2014-11-01T10:54:33Z</time>
      </trkpt>
      <trkpt lat="42.381728000" lon="-2.466895000">
        <ele>486.60</ele>
        <time>2014-11-01T10:54:34Z</time>
      </trkpt>
      <trkpt lat="42.381768000" lon="-2.466836000">
        <ele>486.50</ele>
        <time>2014-11-01T10:54:35Z</time>
      </trkpt>
      <trkpt lat="42.381811000" lon="-2.466777000">
        <ele>486.10</ele>
        <time>2014-11-01T10:54:36Z</time>
      </trkpt>
      <trkpt lat="42.381853000" lon="-2.466719000">
        <ele>485.90</ele>
        <time>2014-11-01T10:54:37Z</time>
      </trkpt>
      <trkpt lat="42.381898000" lon="-2.466662000">
        <ele>485.70</ele>
        <time>2014-11-01T10:54:38Z</time>
      </trkpt>
      <trkpt lat="42.381942000" lon="-2.466606000">
        <ele>485.60</ele>
        <time>2014-11-01T10:54:39Z</time>
      </trkpt>
      <trkpt lat="42.381985000" lon="-2.466552000">
        <ele>485.60</ele>
        <time>2014-11-01T10:54:40Z</time>
      </trkpt>
      <trkpt lat="42.382030000" lon="-2.466500000">
        <ele>485.50</ele>
        <time>2014-11-01T10:54:41Z</time>
      </trkpt>
      <trkpt lat="42.382077000" lon="-2.466453000">
        <ele>485.50</ele>
        <time>2014-11-01T10:54:42Z</time>
      </trkpt>
      <trkpt lat="42.382126000" lon="-2.466406000">
        <ele>485.50</ele>
        <time>2014-11-01T10:54:43Z</time>
      </trkpt>
      <trkpt lat="42.382176000" lon="-2.466361000">
        <ele>485.50</ele>
        <time>2014-11-01T10:54:44Z</time>
      </trkpt>
      <trkpt lat="42.382226000" lon="-2.466315000">
        <ele>485.50</ele>
        <time>2014-11-01T10:54:45Z</time>
      </trkpt>
      <trkpt lat="42.382275000" lon="-2.466267000">
        <ele>485.60</ele>
        <time>2014-11-01T10:54:46Z</time>
      </trkpt>
      <trkpt lat="42.382324000" lon="-2.466222000">
        <ele>485.70</ele>
        <time>2014-11-01T10:54:47Z</time>
      </trkpt>
      <trkpt lat="42.382375000" lon="-2.466171000">
        <ele>485.80</ele>
        <time>2014-11-01T10:54:48Z</time>
      </trkpt>
      <trkpt lat="42.382428000" lon="-2.466121000">
        <ele>485.80</ele>
        <time>2014-11-01T10:54:49Z</time>
      </trkpt>
      <trkpt lat="42.382486000" lon="-2.466082000">
        <ele>485.60</ele>
        <time>2014-11-01T10:54:50Z</time>
      </trkpt>
      <trkpt lat="42.382544000" lon="-2.466047000">
        <ele>485.40</ele>
        <time>2014-11-01T10:54:51Z</time>
      </trkpt>
      <trkpt lat="42.382606000" lon="-2.466018000">
        <ele>485.30</ele>
        <time>2014-11-01T10:54:52Z</time>
      </trkpt>
      <trkpt lat="42.382669000" lon="-2.465994000">
        <ele>485.20</ele>
        <time>2014-11-01T10:54:53Z</time>
      </trkpt>
      <trkpt lat="42.382733000" lon="-2.465974000">
        <ele>485.10</ele>
        <time>2014-11-01T10:54:54Z</time>
      </trkpt>
      <trkpt lat="42.382799000" lon="-2.465954000">
        <ele>485.10</ele>
        <time>2014-11-01T10:54:55Z</time>
      </trkpt>
      <trkpt lat="42.382864000" lon="-2.465930000">
        <ele>484.60</ele>
        <time>2014-11-01T10:54:56Z</time>
      </trkpt>
      <trkpt lat="42.382925000" lon="-2.465905000">
        <ele>484.20</ele>
        <time>2014-11-01T10:54:57Z</time>
      </trkpt>
      <trkpt lat="42.382985000" lon="-2.465870000">
        <ele>483.90</ele>
        <time>2014-11-01T10:54:58Z</time>
      </trkpt>
      <trkpt lat="42.383046000" lon="-2.465832000">
        <ele>483.70</ele>
        <time>2014-11-01T10:54:59Z</time>
      </trkpt>
      <trkpt lat="42.383100000" lon="-2.465787000">
        <ele>483.70</ele>
        <time>2014-11-01T10:55:00Z</time>
      </trkpt>
      <trkpt lat="42.383152000" lon="-2.465735000">
        <ele>483.70</ele>
        <time>2014-11-01T10:55:01Z</time>
      </trkpt>
      <trkpt lat="42.383200000" lon="-2.465683000">
        <ele>483.90</ele>
        <time>2014-11-01T10:55:02Z</time>
      </trkpt>
      <trkpt lat="42.383246000" lon="-2.465632000">
        <ele>484.00</ele>
        <time>2014-11-01T10:55:03Z</time>
      </trkpt>
      <trkpt lat="42.383291000" lon="-2.465580000">
        <ele>484.00</ele>
        <time>2014-11-01T10:55:04Z</time>
      </trkpt>
      <trkpt lat="42.383329000" lon="-2.465530000">
        <ele>484.00</ele>
        <time>2014-11-01T10:55:05Z</time>
      </trkpt>
      <trkpt lat="42.383353000" lon="-2.465487000">
        <ele>483.90</ele>
        <time>2014-11-01T10:55:06Z</time>
      </trkpt>
      <trkpt lat="42.383364000" lon="-2.465436000">
        <ele>483.90</ele>
        <time>2014-11-01T10:55:07Z</time>
      </trkpt>
      <trkpt lat="42.383362000" lon="-2.465376000">
        <ele>483.90</ele>
        <time>2014-11-01T10:55:08Z</time>
      </trkpt>
      <trkpt lat="42.383362000" lon="-2.465310000">
        <ele>483.90</ele>
        <time>2014-11-01T10:55:09Z</time>
      </trkpt>
      <trkpt lat="42.383371000" lon="-2.465237000">
        <ele>483.80</ele>
        <time>2014-11-01T10:55:10Z</time>
      </trkpt>
      <trkpt lat="42.383386000" lon="-2.465153000">
        <ele>483.70</ele>
        <time>2014-11-01T10:55:11Z</time>
      </trkpt>
      <trkpt lat="42.383424000" lon="-2.465089000">
        <ele>483.80</ele>
        <time>2014-11-01T10:55:12Z</time>
      </trkpt>
      <trkpt lat="42.383472000" lon="-2.465041000">
        <ele>483.90</ele>
        <time>2014-11-01T10:55:13Z</time>
      </trkpt>
      <trkpt lat="42.383527000" lon="-2.464996000">
        <ele>483.70</ele>
        <time>2014-11-01T10:55:14Z</time>
      </trkpt>
      <trkpt lat="42.383583000" lon="-2.464951000">
        <ele>483.60</ele>
        <time>2014-11-01T10:55:15Z</time>
      </trkpt>
      <trkpt lat="42.383640000" lon="-2.464908000">
        <ele>483.40</ele>
        <time>2014-11-01T10:55:16Z</time>
      </trkpt>
      <trkpt lat="42.383695000" lon="-2.464860000">
        <ele>483.40</ele>
        <time>2014-11-01T10:55:17Z</time>
      </trkpt>
      <trkpt lat="42.383746000" lon="-2.464809000">
        <ele>483.30</ele>
        <time>2014-11-01T10:55:18Z</time>
      </trkpt>
      <trkpt lat="42.383850000" lon="-2.464712000">
        <ele>483.50</ele>
        <time>2014-11-01T10:55:20Z</time>
      </trkpt>
      <trkpt lat="42.383901000" lon="-2.464666000">
        <ele>483.60</ele>
        <time>2014-11-01T10:55:21Z</time>
      </trkpt>
      <trkpt lat="42.383955000" lon="-2.464624000">
        <ele>483.80</ele>
        <time>2014-11-01T10:55:22Z</time>
      </trkpt>
      <trkpt lat="42.384012000" lon="-2.464590000">
        <ele>483.90</ele>
        <time>2014-11-01T10:55:23Z</time>
      </trkpt>
      <trkpt lat="42.384069000" lon="-2.464556000">
        <ele>483.50</ele>
        <time>2014-11-01T10:55:24Z</time>
      </trkpt>
      <trkpt lat="42.384128000" lon="-2.464529000">
        <ele>483.20</ele>
        <time>2014-11-01T10:55:25Z</time>
      </trkpt>
      <trkpt lat="42.384189000" lon="-2.464505000">
        <ele>483.00</ele>
        <time>2014-11-01T10:55:26Z</time>
      </trkpt>
      <trkpt lat="42.384248000" lon="-2.464489000">
        <ele>482.80</ele>
        <time>2014-11-01T10:55:27Z</time>
      </trkpt>
      <trkpt lat="42.384308000" lon="-2.464476000">
        <ele>482.70</ele>
        <time>2014-11-01T10:55:28Z</time>
      </trkpt>
      <trkpt lat="42.384369000" lon="-2.464468000">
        <ele>482.60</ele>
        <time>2014-11-01T10:55:29Z</time>
      </trkpt>
      <trkpt lat="42.384430000" lon="-2.464468000">
        <ele>482.20</ele>
        <time>2014-11-01T10:55:30Z</time>
      </trkpt>
      <trkpt lat="42.384491000" lon="-2.464458000">
        <ele>481.80</ele>
        <time>2014-11-01T10:55:31Z</time>
      </trkpt>
      <trkpt lat="42.384554000" lon="-2.464448000">
        <ele>481.60</ele>
        <time>2014-11-01T10:55:32Z</time>
      </trkpt>
      <trkpt lat="42.384620000" lon="-2.464444000">
        <ele>481.40</ele>
        <time>2014-11-01T10:55:33Z</time>
      </trkpt>
      <trkpt lat="42.384686000" lon="-2.464447000">
        <ele>481.40</ele>
        <time>2014-11-01T10:55:34Z</time>
      </trkpt>
      <trkpt lat="42.384752000" lon="-2.464457000">
        <ele>481.30</ele>
        <time>2014-11-01T10:55:35Z</time>
      </trkpt>
      <trkpt lat="42.384820000" lon="-2.464473000">
        <ele>481.60</ele>
        <time>2014-11-01T10:55:36Z</time>
      </trkpt>
      <trkpt lat="42.384885000" lon="-2.464498000">
        <ele>481.80</ele>
        <time>2014-11-01T10:55:37Z</time>
      </trkpt>
      <trkpt lat="42.384951000" lon="-2.464525000">
        <ele>481.90</ele>
        <time>2014-11-01T10:55:38Z</time>
      </trkpt>
      <trkpt lat="42.385016000" lon="-2.464552000">
        <ele>482.00</ele>
        <time>2014-11-01T10:55:39Z</time>
      </trkpt>
      <trkpt lat="42.385082000" lon="-2.464577000">
        <ele>482.20</ele>
        <time>2014-11-01T10:55:40Z</time>
      </trkpt>
      <trkpt lat="42.385146000" lon="-2.464600000">
        <ele>482.30</ele>
        <time>2014-11-01T10:55:41Z</time>
      </trkpt>
      <trkpt lat="42.385211000" lon="-2.464625000">
        <ele>482.30</ele>
        <time>2014-11-01T10:55:42Z</time>
      </trkpt>
      <trkpt lat="42.385272000" lon="-2.464649000">
        <ele>482.30</ele>
        <time>2014-11-01T10:55:43Z</time>
      </trkpt>
      <trkpt lat="42.385332000" lon="-2.464676000">
        <ele>482.20</ele>
        <time>2014-11-01T10:55:44Z</time>
      </trkpt>
      <trkpt lat="42.385392000" lon="-2.464702000">
        <ele>482.20</ele>
        <time>2014-11-01T10:55:45Z</time>
      </trkpt>
      <trkpt lat="42.385452000" lon="-2.464725000">
        <ele>481.90</ele>
        <time>2014-11-01T10:55:46Z</time>
      </trkpt>
      <trkpt lat="42.385513000" lon="-2.464743000">
        <ele>481.60</ele>
        <time>2014-11-01T10:55:47Z</time>
      </trkpt>
      <trkpt lat="42.385575000" lon="-2.464760000">
        <ele>481.70</ele>
        <time>2014-11-01T10:55:48Z</time>
      </trkpt>
      <trkpt lat="42.385637000" lon="-2.464773000">
        <ele>481.80</ele>
        <time>2014-11-01T10:55:49Z</time>
      </trkpt>
      <trkpt lat="42.385701000" lon="-2.464782000">
        <ele>481.70</ele>
        <time>2014-11-01T10:55:50Z</time>
      </trkpt>
      <trkpt lat="42.385764000" lon="-2.464786000">
        <ele>481.70</ele>
        <time>2014-11-01T10:55:51Z</time>
      </trkpt>
      <trkpt lat="42.385829000" lon="-2.464789000">
        <ele>481.70</ele>
        <time>2014-11-01T10:55:52Z</time>
      </trkpt>
      <trkpt lat="42.385893000" lon="-2.464792000">
        <ele>481.60</ele>
        <time>2014-11-01T10:55:53Z</time>
      </trkpt>
      <trkpt lat="42.385957000" lon="-2.464794000">
        <ele>481.30</ele>
        <time>2014-11-01T10:55:54Z</time>
      </trkpt>
      <trkpt lat="42.386021000" lon="-2.464793000">
        <ele>481.10</ele>
        <time>2014-11-01T10:55:55Z</time>
      </trkpt>
      <trkpt lat="42.386084000" lon="-2.464795000">
        <ele>480.90</ele>
        <time>2014-11-01T10:55:56Z</time>
      </trkpt>
      <trkpt lat="42.386146000" lon="-2.464797000">
        <ele>480.80</ele>
        <time>2014-11-01T10:55:57Z</time>
      </trkpt>
      <trkpt lat="42.386210000" lon="-2.464802000">
        <ele>480.60</ele>
        <time>2014-11-01T10:55:58Z</time>
      </trkpt>
      <trkpt lat="42.386272000" lon="-2.464805000">
        <ele>480.50</ele>
        <time>2014-11-01T10:55:59Z</time>
      </trkpt>
      <trkpt lat="42.386335000" lon="-2.464809000">
        <ele>480.70</ele>
        <time>2014-11-01T10:56:00Z</time>
      </trkpt>
      <trkpt lat="42.386405000" lon="-2.464810000">
        <ele>480.90</ele>
        <time>2014-11-01T10:56:01Z</time>
      </trkpt>
      <trkpt lat="42.386473000" lon="-2.464814000">
        <ele>481.00</ele>
        <time>2014-11-01T10:56:02Z</time>
      </trkpt>
      <trkpt lat="42.386537000" lon="-2.464817000">
        <ele>481.00</ele>
        <time>2014-11-01T10:56:03Z</time>
      </trkpt>
      <trkpt lat="42.386602000" lon="-2.464819000">
        <ele>481.00</ele>
        <time>2014-11-01T10:56:04Z</time>
      </trkpt>
      <trkpt lat="42.386667000" lon="-2.464821000">
        <ele>481.00</ele>
        <time>2014-11-01T10:56:05Z</time>
      </trkpt>
      <trkpt lat="42.386733000" lon="-2.464823000">
        <ele>481.00</ele>
        <time>2014-11-01T10:56:06Z</time>
      </trkpt>
      <trkpt lat="42.386799000" lon="-2.464827000">
        <ele>480.90</ele>
        <time>2014-11-01T10:56:07Z</time>
      </trkpt>
      <trkpt lat="42.386864000" lon="-2.464832000">
        <ele>480.70</ele>
        <time>2014-11-01T10:56:08Z</time>
      </trkpt>
      <trkpt lat="42.386933000" lon="-2.464834000">
        <ele>480.60</ele>
        <time>2014-11-01T10:56:09Z</time>
      </trkpt>
      <trkpt lat="42.386999000" lon="-2.464831000">
        <ele>480.40</ele>
        <time>2014-11-01T10:56:10Z</time>
      </trkpt>
      <trkpt lat="42.387067000" lon="-2.464828000">
        <ele>480.40</ele>
        <time>2014-11-01T10:56:11Z</time>
      </trkpt>
      <trkpt lat="42.387133000" lon="-2.464822000">
        <ele>480.10</ele>
        <time>2014-11-01T10:56:12Z</time>
      </trkpt>
      <trkpt lat="42.387199000" lon="-2.464814000">
        <ele>479.90</ele>
        <time>2014-11-01T10:56:13Z</time>
      </trkpt>
      <trkpt lat="42.387263000" lon="-2.464807000">
        <ele>479.80</ele>
        <time>2014-11-01T10:56:14Z</time>
      </trkpt>
      <trkpt lat="42.387328000" lon="-2.464800000">
        <ele>479.60</ele>
        <time>2014-11-01T10:56:15Z</time>
      </trkpt>
      <trkpt lat="42.387391000" lon="-2.464794000">
        <ele>479.60</ele>
        <time>2014-11-01T10:56:16Z</time>
      </trkpt>
      <trkpt lat="42.387453000" lon="-2.464793000">
        <ele>479.50</ele>
        <time>2014-11-01T10:56:17Z</time>
      </trkpt>
      <trkpt lat="42.387513000" lon="-2.464793000">
        <ele>479.80</ele>
        <time>2014-11-01T10:56:18Z</time>
      </trkpt>
      <trkpt lat="42.387569000" lon="-2.464792000">
        <ele>480.10</ele>
        <time>2014-11-01T10:56:19Z</time>
      </trkpt>
      <trkpt lat="42.387663000" lon="-2.464744000">
        <ele>479.70</ele>
        <time>2014-11-01T10:56:21Z</time>
      </trkpt>
      <trkpt lat="42.387699000" lon="-2.464688000">
        <ele>479.60</ele>
        <time>2014-11-01T10:56:22Z</time>
      </trkpt>
      <trkpt lat="42.387735000" lon="-2.464627000">
        <ele>479.60</ele>
        <time>2014-11-01T10:56:23Z</time>
      </trkpt>
      <trkpt lat="42.387777000" lon="-2.464568000">
        <ele>479.30</ele>
        <time>2014-11-01T10:56:24Z</time>
      </trkpt>
      <trkpt lat="42.387822000" lon="-2.464509000">
        <ele>479.10</ele>
        <time>2014-11-01T10:56:25Z</time>
      </trkpt>
      <trkpt lat="42.387870000" lon="-2.464451000">
        <ele>479.00</ele>
        <time>2014-11-01T10:56:26Z</time>
      </trkpt>
      <trkpt lat="42.387919000" lon="-2.464398000">
        <ele>478.90</ele>
        <time>2014-11-01T10:56:27Z</time>
      </trkpt>
      <trkpt lat="42.387971000" lon="-2.464347000">
        <ele>478.70</ele>
        <time>2014-11-01T10:56:28Z</time>
      </trkpt>
      <trkpt lat="42.388027000" lon="-2.464300000">
        <ele>478.50</ele>
        <time>2014-11-01T10:56:29Z</time>
      </trkpt>
      <trkpt lat="42.388080000" lon="-2.464257000">
        <ele>478.40</ele>
        <time>2014-11-01T10:56:30Z</time>
      </trkpt>
      <trkpt lat="42.388137000" lon="-2.464219000">
        <ele>478.40</ele>
        <time>2014-11-01T10:56:31Z</time>
      </trkpt>
      <trkpt lat="42.388195000" lon="-2.464183000">
        <ele>478.30</ele>
        <time>2014-11-01T10:56:32Z</time>
      </trkpt>
      <trkpt lat="42.388251000" lon="-2.464148000">
        <ele>478.20</ele>
        <time>2014-11-01T10:56:33Z</time>
      </trkpt>
      <trkpt lat="42.388306000" lon="-2.464107000">
        <ele>478.20</ele>
        <time>2014-11-01T10:56:34Z</time>
      </trkpt>
      <trkpt lat="42.388353000" lon="-2.464057000">
        <ele>478.20</ele>
        <time>2014-11-01T10:56:35Z</time>
      </trkpt>
      <trkpt lat="42.388393000" lon="-2.463997000">
        <ele>477.90</ele>
        <time>2014-11-01T10:56:36Z</time>
      </trkpt>
      <trkpt lat="42.388427000" lon="-2.463927000">
        <ele>477.70</ele>
        <time>2014-11-01T10:56:37Z</time>
      </trkpt>
      <trkpt lat="42.388455000" lon="-2.463853000">
        <ele>477.50</ele>
        <time>2014-11-01T10:56:38Z</time>
      </trkpt>
      <trkpt lat="42.388483000" lon="-2.463782000">
        <ele>477.40</ele>
        <time>2014-11-01T10:56:39Z</time>
      </trkpt>
      <trkpt lat="42.388519000" lon="-2.463722000">
        <ele>477.30</ele>
        <time>2014-11-01T10:56:40Z</time>
      </trkpt>
      <trkpt lat="42.388568000" lon="-2.463684000">
        <ele>477.20</ele>
        <time>2014-11-01T10:56:41Z</time>
      </trkpt>
      <trkpt lat="42.388623000" lon="-2.463655000">
        <ele>477.20</ele>
        <time>2014-11-01T10:56:42Z</time>
      </trkpt>
      <trkpt lat="42.388678000" lon="-2.463625000">
        <ele>477.10</ele>
        <time>2014-11-01T10:56:43Z</time>
      </trkpt>
      <trkpt lat="42.388732000" lon="-2.463597000">
        <ele>476.90</ele>
        <time>2014-11-01T10:56:44Z</time>
      </trkpt>
      <trkpt lat="42.388787000" lon="-2.463566000">
        <ele>476.70</ele>
        <time>2014-11-01T10:56:45Z</time>
      </trkpt>
      <trkpt lat="42.388843000" lon="-2.463540000">
        <ele>476.60</ele>
        <time>2014-11-01T10:56:46Z</time>
      </trkpt>
      <trkpt lat="42.388899000" lon="-2.463511000">
        <ele>476.50</ele>
        <time>2014-11-01T10:56:47Z</time>
      </trkpt>
      <trkpt lat="42.388953000" lon="-2.463484000">
        <ele>476.60</ele>
        <time>2014-11-01T10:56:48Z</time>
      </trkpt>
      <trkpt lat="42.389003000" lon="-2.463454000">
        <ele>476.60</ele>
        <time>2014-11-01T10:56:49Z</time>
      </trkpt>
      <trkpt lat="42.389047000" lon="-2.463423000">
        <ele>476.60</ele>
        <time>2014-11-01T10:56:50Z</time>
      </trkpt>
      <trkpt lat="42.389080000" lon="-2.463396000">
        <ele>476.70</ele>
        <time>2014-11-01T10:56:51Z</time>
      </trkpt>
      <trkpt lat="42.389108000" lon="-2.463381000">
        <ele>476.70</ele>
        <time>2014-11-01T10:56:52Z</time>
      </trkpt>
      <trkpt lat="42.389139000" lon="-2.463371000">
        <ele>476.70</ele>
        <time>2014-11-01T10:56:53Z</time>
      </trkpt>
      <trkpt lat="42.389170000" lon="-2.463376000">
        <ele>476.60</ele>
        <time>2014-11-01T10:56:54Z</time>
      </trkpt>
      <trkpt lat="42.389194000" lon="-2.463390000">
        <ele>476.50</ele>
        <time>2014-11-01T10:56:55Z</time>
      </trkpt>
      <trkpt lat="42.389220000" lon="-2.463406000">
        <ele>476.40</ele>
        <time>2014-11-01T10:56:56Z</time>
      </trkpt>
      <trkpt lat="42.389246000" lon="-2.463426000">
        <ele>476.40</ele>
        <time>2014-11-01T10:56:57Z</time>
      </trkpt>
      <trkpt lat="42.389272000" lon="-2.463446000">
        <ele>476.30</ele>
        <time>2014-11-01T10:56:58Z</time>
      </trkpt>
      <trkpt lat="42.389299000" lon="-2.463468000">
        <ele>476.30</ele>
        <time>2014-11-01T10:56:59Z</time>
      </trkpt>
      <trkpt lat="42.389333000" lon="-2.463487000">
        <ele>476.00</ele>
        <time>2014-11-01T10:57:00Z</time>
      </trkpt>
      <trkpt lat="42.389362000" lon="-2.463507000">
        <ele>475.80</ele>
        <time>2014-11-01T10:57:01Z</time>
      </trkpt>
      <trkpt lat="42.389394000" lon="-2.463531000">
        <ele>475.70</ele>
        <time>2014-11-01T10:57:02Z</time>
      </trkpt>
      <trkpt lat="42.389429000" lon="-2.463556000">
        <ele>475.50</ele>
        <time>2014-11-01T10:57:03Z</time>
      </trkpt>
      <trkpt lat="42.389466000" lon="-2.463581000">
        <ele>475.50</ele>
        <time>2014-11-01T10:57:04Z</time>
      </trkpt>
      <trkpt lat="42.389504000" lon="-2.463609000">
        <ele>475.50</ele>
        <time>2014-11-01T10:57:05Z</time>
      </trkpt>
      <trkpt lat="42.389544000" lon="-2.463640000">
        <ele>475.60</ele>
        <time>2014-11-01T10:57:06Z</time>
      </trkpt>
      <trkpt lat="42.389583000" lon="-2.463668000">
        <ele>475.70</ele>
        <time>2014-11-01T10:57:07Z</time>
      </trkpt>
      <trkpt lat="42.389623000" lon="-2.463691000">
        <ele>475.70</ele>
        <time>2014-11-01T10:57:08Z</time>
      </trkpt>
      <trkpt lat="42.389660000" lon="-2.463721000">
        <ele>475.60</ele>
        <time>2014-11-01T10:57:09Z</time>
      </trkpt>
      <trkpt lat="42.389685000" lon="-2.463767000">
        <ele>475.60</ele>
        <time>2014-11-01T10:57:10Z</time>
      </trkpt>
      <trkpt lat="42.389697000" lon="-2.463819000">
        <ele>475.60</ele>
        <time>2014-11-01T10:57:11Z</time>
      </trkpt>
      <trkpt lat="42.389707000" lon="-2.463877000">
        <ele>475.30</ele>
        <time>2014-11-01T10:57:12Z</time>
      </trkpt>
      <trkpt lat="42.389712000" lon="-2.463935000">
        <ele>475.20</ele>
        <time>2014-11-01T10:57:13Z</time>
      </trkpt>
      <trkpt lat="42.389715000" lon="-2.463996000">
        <ele>474.70</ele>
        <time>2014-11-01T10:57:14Z</time>
      </trkpt>
      <trkpt lat="42.389716000" lon="-2.464055000">
        <ele>474.40</ele>
        <time>2014-11-01T10:57:15Z</time>
      </trkpt>
      <trkpt lat="42.389717000" lon="-2.464114000">
        <ele>474.20</ele>
        <time>2014-11-01T10:57:16Z</time>
      </trkpt>
      <trkpt lat="42.389721000" lon="-2.464171000">
        <ele>474.00</ele>
        <time>2014-11-01T10:57:17Z</time>
      </trkpt>
      <trkpt lat="42.389724000" lon="-2.464227000">
        <ele>474.20</ele>
        <time>2014-11-01T10:57:18Z</time>
      </trkpt>
      <trkpt lat="42.389729000" lon="-2.464281000">
        <ele>474.30</ele>
        <time>2014-11-01T10:57:19Z</time>
      </trkpt>
      <trkpt lat="42.389736000" lon="-2.464331000">
        <ele>474.90</ele>
        <time>2014-11-01T10:57:20Z</time>
      </trkpt>
      <trkpt lat="42.389753000" lon="-2.464417000">
        <ele>475.60</ele>
        <time>2014-11-01T10:57:22Z</time>
      </trkpt>
      <trkpt lat="42.389769000" lon="-2.464458000">
        <ele>475.90</ele>
        <time>2014-11-01T10:57:23Z</time>
      </trkpt>
      <trkpt lat="42.389794000" lon="-2.464498000">
        <ele>475.70</ele>
        <time>2014-11-01T10:57:24Z</time>
      </trkpt>
      <trkpt lat="42.389823000" lon="-2.464527000">
        <ele>475.60</ele>
        <time>2014-11-01T10:57:25Z</time>
      </trkpt>
      <trkpt lat="42.389861000" lon="-2.464540000">
        <ele>475.50</ele>
        <time>2014-11-01T10:57:26Z</time>
      </trkpt>
      <trkpt lat="42.389901000" lon="-2.464545000">
        <ele>475.50</ele>
        <time>2014-11-01T10:57:27Z</time>
      </trkpt>
      <trkpt lat="42.389942000" lon="-2.464549000">
        <ele>475.40</ele>
        <time>2014-11-01T10:57:28Z</time>
      </trkpt>
      <trkpt lat="42.389982000" lon="-2.464548000">
        <ele>475.40</ele>
        <time>2014-11-01T10:57:29Z</time>
      </trkpt>
      <trkpt lat="42.390019000" lon="-2.464536000">
        <ele>475.40</ele>
        <time>2014-11-01T10:57:30Z</time>
      </trkpt>
      <trkpt lat="42.390051000" lon="-2.464521000">
        <ele>475.40</ele>
        <time>2014-11-01T10:57:31Z</time>
      </trkpt>
      <trkpt lat="42.390081000" lon="-2.464505000">
        <ele>475.60</ele>
        <time>2014-11-01T10:57:32Z</time>
      </trkpt>
      <trkpt lat="42.390114000" lon="-2.464494000">
        <ele>475.70</ele>
        <time>2014-11-01T10:57:33Z</time>
      </trkpt>
      <trkpt lat="42.390148000" lon="-2.464480000">
        <ele>475.80</ele>
        <time>2014-11-01T10:57:34Z</time>
      </trkpt>
      <trkpt lat="42.390177000" lon="-2.464465000">
        <ele>475.90</ele>
        <time>2014-11-01T10:57:35Z</time>
      </trkpt>
      <trkpt lat="42.390198000" lon="-2.464456000">
        <ele>475.80</ele>
        <time>2014-11-01T10:57:36Z</time>
      </trkpt>
      <trkpt lat="42.390224000" lon="-2.464451000">
        <ele>475.80</ele>
        <time>2014-11-01T10:57:37Z</time>
      </trkpt>
      <trkpt lat="42.390251000" lon="-2.464444000">
        <ele>475.40</ele>
        <time>2014-11-01T10:57:38Z</time>
      </trkpt>
      <trkpt lat="42.390282000" lon="-2.464435000">
        <ele>475.10</ele>
        <time>2014-11-01T10:57:39Z</time>
      </trkpt>
      <trkpt lat="42.390317000" lon="-2.464428000">
        <ele>474.90</ele>
        <time>2014-11-01T10:57:40Z</time>
      </trkpt>
      <trkpt lat="42.390354000" lon="-2.464421000">
        <ele>474.70</ele>
        <time>2014-11-01T10:57:41Z</time>
      </trkpt>
      <trkpt lat="42.390393000" lon="-2.464419000">
        <ele>474.60</ele>
        <time>2014-11-01T10:57:42Z</time>
      </trkpt>
      <trkpt lat="42.390431000" lon="-2.464413000">
        <ele>474.50</ele>
        <time>2014-11-01T10:57:43Z</time>
      </trkpt>
      <trkpt lat="42.390465000" lon="-2.464400000">
        <ele>474.80</ele>
        <time>2014-11-01T10:57:44Z</time>
      </trkpt>
      <trkpt lat="42.390502000" lon="-2.464372000">
        <ele>475.10</ele>
        <time>2014-11-01T10:57:45Z</time>
      </trkpt>
      <trkpt lat="42.390535000" lon="-2.464340000">
        <ele>475.20</ele>
        <time>2014-11-01T10:57:46Z</time>
      </trkpt>
      <trkpt lat="42.390569000" lon="-2.464299000">
        <ele>475.40</ele>
        <time>2014-11-01T10:57:47Z</time>
      </trkpt>
      <trkpt lat="42.390595000" lon="-2.464265000">
        <ele>475.10</ele>
        <time>2014-11-01T10:57:48Z</time>
      </trkpt>
      <trkpt lat="42.390626000" lon="-2.464231000">
        <ele>474.90</ele>
        <time>2014-11-01T10:57:49Z</time>
      </trkpt>
      <trkpt lat="42.390652000" lon="-2.464202000">
        <ele>474.70</ele>
        <time>2014-11-01T10:57:50Z</time>
      </trkpt>
      <trkpt lat="42.390682000" lon="-2.464176000">
        <ele>474.60</ele>
        <time>2014-11-01T10:57:51Z</time>
      </trkpt>
      <trkpt lat="42.390716000" lon="-2.464150000">
        <ele>474.50</ele>
        <time>2014-11-01T10:57:52Z</time>
      </trkpt>
      <trkpt lat="42.390753000" lon="-2.464120000">
        <ele>474.40</ele>
        <time>2014-11-01T10:57:53Z</time>
      </trkpt>
      <trkpt lat="42.390790000" lon="-2.464089000">
        <ele>474.30</ele>
        <time>2014-11-01T10:57:54Z</time>
      </trkpt>
      <trkpt lat="42.390828000" lon="-2.464051000">
        <ele>474.10</ele>
        <time>2014-11-01T10:57:55Z</time>
      </trkpt>
      <trkpt lat="42.390864000" lon="-2.464017000">
        <ele>473.80</ele>
        <time>2014-11-01T10:57:56Z</time>
      </trkpt>
      <trkpt lat="42.390903000" lon="-2.463979000">
        <ele>473.60</ele>
        <time>2014-11-01T10:57:57Z</time>
      </trkpt>
      <trkpt lat="42.390941000" lon="-2.463938000">
        <ele>473.40</ele>
        <time>2014-11-01T10:57:58Z</time>
      </trkpt>
      <trkpt lat="42.390979000" lon="-2.463897000">
        <ele>473.20</ele>
        <time>2014-11-01T10:57:59Z</time>
      </trkpt>
      <trkpt lat="42.391019000" lon="-2.463857000">
        <ele>473.10</ele>
        <time>2014-11-01T10:58:00Z</time>
      </trkpt>
      <trkpt lat="42.391058000" lon="-2.463816000">
        <ele>473.00</ele>
        <time>2014-11-01T10:58:01Z</time>
      </trkpt>
      <trkpt lat="42.391096000" lon="-2.463772000">
        <ele>473.30</ele>
        <time>2014-11-01T10:58:02Z</time>
      </trkpt>
      <trkpt lat="42.391135000" lon="-2.463735000">
        <ele>473.50</ele>
        <time>2014-11-01T10:58:03Z</time>
      </trkpt>
      <trkpt lat="42.391175000" lon="-2.463699000">
        <ele>473.70</ele>
        <time>2014-11-01T10:58:04Z</time>
      </trkpt>
      <trkpt lat="42.391218000" lon="-2.463670000">
        <ele>473.90</ele>
        <time>2014-11-01T10:58:05Z</time>
      </trkpt>
      <trkpt lat="42.391260000" lon="-2.463639000">
        <ele>474.00</ele>
        <time>2014-11-01T10:58:06Z</time>
      </trkpt>
      <trkpt lat="42.391302000" lon="-2.463611000">
        <ele>474.10</ele>
        <time>2014-11-01T10:58:07Z</time>
      </trkpt>
      <trkpt lat="42.391344000" lon="-2.463583000">
        <ele>473.90</ele>
        <time>2014-11-01T10:58:08Z</time>
      </trkpt>
      <trkpt lat="42.391390000" lon="-2.463560000">
        <ele>473.80</ele>
        <time>2014-11-01T10:58:09Z</time>
      </trkpt>
      <trkpt lat="42.391437000" lon="-2.463541000">
        <ele>473.70</ele>
        <time>2014-11-01T10:58:10Z</time>
      </trkpt>
      <trkpt lat="42.391482000" lon="-2.463523000">
        <ele>473.60</ele>
        <time>2014-11-01T10:58:11Z</time>
      </trkpt>
      <trkpt lat="42.391526000" lon="-2.463502000">
        <ele>473.60</ele>
        <time>2014-11-01T10:58:12Z</time>
      </trkpt>
      <trkpt lat="42.391568000" lon="-2.463478000">
        <ele>473.60</ele>
        <time>2014-11-01T10:58:13Z</time>
      </trkpt>
      <trkpt lat="42.391608000" lon="-2.463447000">
        <ele>473.50</ele>
        <time>2014-11-01T10:58:14Z</time>
      </trkpt>
      <trkpt lat="42.391647000" lon="-2.463409000">
        <ele>473.40</ele>
        <time>2014-11-01T10:58:15Z</time>
      </trkpt>
      <trkpt lat="42.391679000" lon="-2.463364000">
        <ele>473.50</ele>
        <time>2014-11-01T10:58:16Z</time>
      </trkpt>
      <trkpt lat="42.391705000" lon="-2.463319000">
        <ele>473.60</ele>
        <time>2014-11-01T10:58:17Z</time>
      </trkpt>
      <trkpt lat="42.391719000" lon="-2.463274000">
        <ele>473.20</ele>
        <time>2014-11-01T10:58:18Z</time>
      </trkpt>
      <trkpt lat="42.391716000" lon="-2.463224000">
        <ele>472.90</ele>
        <time>2014-11-01T10:58:19Z</time>
      </trkpt>
      <trkpt lat="42.391697000" lon="-2.463176000">
        <ele>473.00</ele>
        <time>2014-11-01T10:58:20Z</time>
      </trkpt>
      <trkpt lat="42.391665000" lon="-2.463139000">
        <ele>473.10</ele>
        <time>2014-11-01T10:58:21Z</time>
      </trkpt>
      <trkpt lat="42.391593000" lon="-2.463049000">
        <ele>473.20</ele>
        <time>2014-11-01T10:58:23Z</time>
      </trkpt>
      <trkpt lat="42.391550000" lon="-2.463006000">
        <ele>473.20</ele>
        <time>2014-11-01T10:58:24Z</time>
      </trkpt>
      <trkpt lat="42.391509000" lon="-2.462955000">
        <ele>473.20</ele>
        <time>2014-11-01T10:58:25Z</time>
      </trkpt>
      <trkpt lat="42.391475000" lon="-2.462892000">
        <ele>473.20</ele>
        <time>2014-11-01T10:58:26Z</time>
      </trkpt>
      <trkpt lat="42.391447000" lon="-2.462827000">
        <ele>473.20</ele>
        <time>2014-11-01T10:58:27Z</time>
      </trkpt>
      <trkpt lat="42.391422000" lon="-2.462762000">
        <ele>473.20</ele>
        <time>2014-11-01T10:58:28Z</time>
      </trkpt>
      <trkpt lat="42.391401000" lon="-2.462695000">
        <ele>473.10</ele>
        <time>2014-11-01T10:58:29Z</time>
      </trkpt>
      <trkpt lat="42.391380000" lon="-2.462632000">
        <ele>472.90</ele>
        <time>2014-11-01T10:58:30Z</time>
      </trkpt>
      <trkpt lat="42.391362000" lon="-2.462581000">
        <ele>472.80</ele>
        <time>2014-11-01T10:58:31Z</time>
      </trkpt>
      <trkpt lat="42.391346000" lon="-2.462534000">
        <ele>472.60</ele>
        <time>2014-11-01T10:58:32Z</time>
      </trkpt>
      <trkpt lat="42.391328000" lon="-2.462485000">
        <ele>472.50</ele>
        <time>2014-11-01T10:58:33Z</time>
      </trkpt>
      <trkpt lat="42.391305000" lon="-2.462435000">
        <ele>472.80</ele>
        <time>2014-11-01T10:58:34Z</time>
      </trkpt>
      <trkpt lat="42.391286000" lon="-2.462380000">
        <ele>473.00</ele>
        <time>2014-11-01T10:58:35Z</time>
      </trkpt>
      <trkpt lat="42.391260000" lon="-2.462324000">
        <ele>473.10</ele>
        <time>2014-11-01T10:58:36Z</time>
      </trkpt>
      <trkpt lat="42.391230000" lon="-2.462271000">
        <ele>473.20</ele>
        <time>2014-11-01T10:58:37Z</time>
      </trkpt>
      <trkpt lat="42.391192000" lon="-2.462220000">
        <ele>473.40</ele>
        <time>2014-11-01T10:58:38Z</time>
      </trkpt>
      <trkpt lat="42.391153000" lon="-2.462173000">
        <ele>473.50</ele>
        <time>2014-11-01T10:58:39Z</time>
      </trkpt>
      <trkpt lat="42.391111000" lon="-2.462129000">
        <ele>473.60</ele>
        <time>2014-11-01T10:58:40Z</time>
      </trkpt>
      <trkpt lat="42.391068000" lon="-2.462091000">
        <ele>473.60</ele>
        <time>2014-11-01T10:58:41Z</time>
      </trkpt>
      <trkpt lat="42.391024000" lon="-2.462058000">
        <ele>473.70</ele>
        <time>2014-11-01T10:58:42Z</time>
      </trkpt>
      <trkpt lat="42.390984000" lon="-2.462022000">
        <ele>473.80</ele>
        <time>2014-11-01T10:58:43Z</time>
      </trkpt>
      <trkpt lat="42.390943000" lon="-2.461983000">
        <ele>473.80</ele>
        <time>2014-11-01T10:58:44Z</time>
      </trkpt>
      <trkpt lat="42.390902000" lon="-2.461942000">
        <ele>473.80</ele>
        <time>2014-11-01T10:58:45Z</time>
      </trkpt>
      <trkpt lat="42.390858000" lon="-2.461906000">
        <ele>473.70</ele>
        <time>2014-11-01T10:58:45Z</time>
      </trkpt>
      <trkpt lat="42.390814000" lon="-2.461869000">
        <ele>473.60</ele>
        <time>2014-11-01T10:58:47Z</time>
      </trkpt>
      <trkpt lat="42.390769000" lon="-2.461830000">
        <ele>473.60</ele>
        <time>2014-11-01T10:58:48Z</time>
      </trkpt>
      <trkpt lat="42.390729000" lon="-2.461787000">
        <ele>473.50</ele>
        <time>2014-11-01T10:58:49Z</time>
      </trkpt>
      <trkpt lat="42.390690000" lon="-2.461741000">
        <ele>473.50</ele>
        <time>2014-11-01T10:58:50Z</time>
      </trkpt>
      <trkpt lat="42.390655000" lon="-2.461696000">
        <ele>473.40</ele>
        <time>2014-11-01T10:58:51Z</time>
      </trkpt>
      <trkpt lat="42.390621000" lon="-2.461652000">
        <ele>473.40</ele>
        <time>2014-11-01T10:58:52Z</time>
      </trkpt>
      <trkpt lat="42.390587000" lon="-2.461608000">
        <ele>473.40</ele>
        <time>2014-11-01T10:58:53Z</time>
      </trkpt>
      <trkpt lat="42.390553000" lon="-2.461565000">
        <ele>473.40</ele>
        <time>2014-11-01T10:58:54Z</time>
      </trkpt>
      <trkpt lat="42.390520000" lon="-2.461522000">
        <ele>473.40</ele>
        <time>2014-11-01T10:58:55Z</time>
      </trkpt>
      <trkpt lat="42.390487000" lon="-2.461476000">
        <ele>473.50</ele>
        <time>2014-11-01T10:58:56Z</time>
      </trkpt>
      <trkpt lat="42.390455000" lon="-2.461430000">
        <ele>473.50</ele>
        <time>2014-11-01T10:58:57Z</time>
      </trkpt>
      <trkpt lat="42.390422000" lon="-2.461384000">
        <ele>473.70</ele>
        <time>2014-11-01T10:58:58Z</time>
      </trkpt>
      <trkpt lat="42.390390000" lon="-2.461338000">
        <ele>473.80</ele>
        <time>2014-11-01T10:58:59Z</time>
      </trkpt>
      <trkpt lat="42.390358000" lon="-2.461291000">
        <ele>473.90</ele>
        <time>2014-11-01T10:59:00Z</time>
      </trkpt>
      <trkpt lat="42.390326000" lon="-2.461247000">
        <ele>474.10</ele>
        <time>2014-11-01T10:59:01Z</time>
      </trkpt>
      <trkpt lat="42.390292000" lon="-2.461200000">
        <ele>474.10</ele>
        <time>2014-11-01T10:59:02Z</time>
      </trkpt>
      <trkpt lat="42.390259000" lon="-2.461155000">
        <ele>474.20</ele>
        <time>2014-11-01T10:59:03Z</time>
      </trkpt>
      <trkpt lat="42.390224000" lon="-2.461114000">
        <ele>474.30</ele>
        <time>2014-11-01T10:59:04Z</time>
      </trkpt>
      <trkpt lat="42.390190000" lon="-2.461071000">
        <ele>474.40</ele>
        <time>2014-11-01T10:59:05Z</time>
      </trkpt>
      <trkpt lat="42.390156000" lon="-2.461027000">
        <ele>474.40</ele>
        <time>2014-11-01T10:59:06Z</time>
      </trkpt>
      <trkpt lat="42.390129000" lon="-2.460982000">
        <ele>474.40</ele>
        <time>2014-11-01T10:59:07Z</time>
      </trkpt>
      <trkpt lat="42.390105000" lon="-2.460933000">
        <ele>474.40</ele>
        <time>2014-11-01T10:59:08Z</time>
      </trkpt>
      <trkpt lat="42.390083000" lon="-2.460885000">
        <ele>474.40</ele>
        <time>2014-11-01T10:59:09Z</time>
      </trkpt>
      <trkpt lat="42.390063000" lon="-2.460835000">
        <ele>474.20</ele>
        <time>2014-11-01T10:59:10Z</time>
      </trkpt>
      <trkpt lat="42.390044000" lon="-2.460786000">
        <ele>474.10</ele>
        <time>2014-11-01T10:59:11Z</time>
      </trkpt>
      <trkpt lat="42.390027000" lon="-2.460741000">
        <ele>474.00</ele>
        <time>2014-11-01T10:59:12Z</time>
      </trkpt>
      <trkpt lat="42.390013000" lon="-2.460695000">
        <ele>473.90</ele>
        <time>2014-11-01T10:59:13Z</time>
      </trkpt>
      <trkpt lat="42.389998000" lon="-2.460652000">
        <ele>473.60</ele>
        <time>2014-11-01T10:59:14Z</time>
      </trkpt>
      <trkpt lat="42.389980000" lon="-2.460606000">
        <ele>473.40</ele>
        <time>2014-11-01T10:59:15Z</time>
      </trkpt>
      <trkpt lat="42.389957000" lon="-2.460560000">
        <ele>473.70</ele>
        <time>2014-11-01T10:59:16Z</time>
      </trkpt>
      <trkpt lat="42.389933000" lon="-2.460512000">
        <ele>473.90</ele>
        <time>2014-11-01T10:59:17Z</time>
      </trkpt>
      <trkpt lat="42.389909000" lon="-2.460460000">
        <ele>473.70</ele>
        <time>2014-11-01T10:59:18Z</time>
      </trkpt>
      <trkpt lat="42.389882000" lon="-2.460408000">
        <ele>473.60</ele>
        <time>2014-11-01T10:59:19Z</time>
      </trkpt>
      <trkpt lat="42.389858000" lon="-2.460356000">
        <ele>473.60</ele>
        <time>2014-11-01T10:59:20Z</time>
      </trkpt>
      <trkpt lat="42.389836000" lon="-2.460300000">
        <ele>473.50</ele>
        <time>2014-11-01T10:59:21Z</time>
      </trkpt>
      <trkpt lat="42.389824000" lon="-2.460242000">
        <ele>473.50</ele>
        <time>2014-11-01T10:59:22Z</time>
      </trkpt>
      <trkpt lat="42.389838000" lon="-2.460126000">
        <ele>473.60</ele>
        <time>2014-11-01T10:59:24Z</time>
      </trkpt>
      <trkpt lat="42.389861000" lon="-2.460082000">
        <ele>473.80</ele>
        <time>2014-11-01T10:59:25Z</time>
      </trkpt>
      <trkpt lat="42.389892000" lon="-2.460044000">
        <ele>473.90</ele>
        <time>2014-11-01T10:59:26Z</time>
      </trkpt>
      <trkpt lat="42.389929000" lon="-2.460011000">
        <ele>473.90</ele>
        <time>2014-11-01T10:59:27Z</time>
      </trkpt>
      <trkpt lat="42.389970000" lon="-2.459984000">
        <ele>474.10</ele>
        <time>2014-11-01T10:59:28Z</time>
      </trkpt>
      <trkpt lat="42.390014000" lon="-2.459956000">
        <ele>474.30</ele>
        <time>2014-11-01T10:59:29Z</time>
      </trkpt>
      <trkpt lat="42.390056000" lon="-2.459935000">
        <ele>474.30</ele>
        <time>2014-11-01T10:59:30Z</time>
      </trkpt>
      <trkpt lat="42.390097000" lon="-2.459911000">
        <ele>474.30</ele>
        <time>2014-11-01T10:59:31Z</time>
      </trkpt>
      <trkpt lat="42.390135000" lon="-2.459887000">
        <ele>474.30</ele>
        <time>2014-11-01T10:59:32Z</time>
      </trkpt>
      <trkpt lat="42.390173000" lon="-2.459864000">
        <ele>474.40</ele>
        <time>2014-11-01T10:59:33Z</time>
      </trkpt>
      <trkpt lat="42.390213000" lon="-2.459844000">
        <ele>474.40</ele>
        <time>2014-11-01T10:59:34Z</time>
      </trkpt>
      <trkpt lat="42.390253000" lon="-2.459825000">
        <ele>474.40</ele>
        <time>2014-11-01T10:59:35Z</time>
      </trkpt>
      <trkpt lat="42.390288000" lon="-2.459803000">
        <ele>474.40</ele>
        <time>2014-11-01T10:59:36Z</time>
      </trkpt>
      <trkpt lat="42.390325000" lon="-2.459783000">
        <ele>474.50</ele>
        <time>2014-11-01T10:59:37Z</time>
      </trkpt>
      <trkpt lat="42.390359000" lon="-2.459765000">
        <ele>474.30</ele>
        <time>2014-11-01T10:59:38Z</time>
      </trkpt>
      <trkpt lat="42.390396000" lon="-2.459749000">
        <ele>474.20</ele>
        <time>2014-11-01T10:59:39Z</time>
      </trkpt>
      <trkpt lat="42.390433000" lon="-2.459734000">
        <ele>474.00</ele>
        <time>2014-11-01T10:59:40Z</time>
      </trkpt>
      <trkpt lat="42.390471000" lon="-2.459721000">
        <ele>473.90</ele>
        <time>2014-11-01T10:59:41Z</time>
      </trkpt>
      <trkpt lat="42.390511000" lon="-2.459711000">
        <ele>473.80</ele>
        <time>2014-11-01T10:59:42Z</time>
      </trkpt>
      <trkpt lat="42.390549000" lon="-2.459698000">
        <ele>473.70</ele>
        <time>2014-11-01T10:59:43Z</time>
      </trkpt>
      <trkpt lat="42.390590000" lon="-2.459687000">
        <ele>473.90</ele>
        <time>2014-11-01T10:59:44Z</time>
      </trkpt>
      <trkpt lat="42.390635000" lon="-2.459688000">
        <ele>474.00</ele>
        <time>2014-11-01T10:59:45Z</time>
      </trkpt>
      <trkpt lat="42.390683000" lon="-2.459690000">
        <ele>474.20</ele>
        <time>2014-11-01T10:59:46Z</time>
      </trkpt>
      <trkpt lat="42.390732000" lon="-2.459697000">
        <ele>474.40</ele>
        <time>2014-11-01T10:59:47Z</time>
      </trkpt>
      <trkpt lat="42.390784000" lon="-2.459708000">
        <ele>474.40</ele>
        <time>2014-11-01T10:59:48Z</time>
      </trkpt>
      <trkpt lat="42.390836000" lon="-2.459720000">
        <ele>474.40</ele>
        <time>2014-11-01T10:59:49Z</time>
      </trkpt>
      <trkpt lat="42.390887000" lon="-2.459733000">
        <ele>473.90</ele>
        <time>2014-11-01T10:59:50Z</time>
      </trkpt>
      <trkpt lat="42.390938000" lon="-2.459744000">
        <ele>473.40</ele>
        <time>2014-11-01T10:59:51Z</time>
      </trkpt>
      <trkpt lat="42.390989000" lon="-2.459752000">
        <ele>473.10</ele>
        <time>2014-11-01T10:59:52Z</time>
      </trkpt>
      <trkpt lat="42.391042000" lon="-2.459759000">
        <ele>472.90</ele>
        <time>2014-11-01T10:59:53Z</time>
      </trkpt>
      <trkpt lat="42.391093000" lon="-2.459767000">
        <ele>473.10</ele>
        <time>2014-11-01T10:59:54Z</time>
      </trkpt>
      <trkpt lat="42.391148000" lon="-2.459767000">
        <ele>473.20</ele>
        <time>2014-11-01T10:59:55Z</time>
      </trkpt>
      <trkpt lat="42.391201000" lon="-2.459762000">
        <ele>473.40</ele>
        <time>2014-11-01T10:59:56Z</time>
      </trkpt>
      <trkpt lat="42.391255000" lon="-2.459753000">
        <ele>473.40</ele>
        <time>2014-11-01T10:59:57Z</time>
      </trkpt>
      <trkpt lat="42.391308000" lon="-2.459742000">
        <ele>473.10</ele>
        <time>2014-11-01T10:59:58Z</time>
      </trkpt>
      <trkpt lat="42.391362000" lon="-2.459731000">
        <ele>472.90</ele>
        <time>2014-11-01T10:59:59Z</time>
      </trkpt>
      <trkpt lat="42.391414000" lon="-2.459716000">
        <ele>472.50</ele>
        <time>2014-11-01T11:00:00Z</time>
      </trkpt>
      <trkpt lat="42.391466000" lon="-2.459700000">
        <ele>472.20</ele>
        <time>2014-11-01T11:00:01Z</time>
      </trkpt>
      <trkpt lat="42.391517000" lon="-2.459685000">
        <ele>471.90</ele>
        <time>2014-11-01T11:00:02Z</time>
      </trkpt>
      <trkpt lat="42.391568000" lon="-2.459666000">
        <ele>471.80</ele>
        <time>2014-11-01T11:00:03Z</time>
      </trkpt>
      <trkpt lat="42.391617000" lon="-2.459642000">
        <ele>472.10</ele>
        <time>2014-11-01T11:00:04Z</time>
      </trkpt>
      <trkpt lat="42.391670000" lon="-2.459619000">
        <ele>472.30</ele>
        <time>2014-11-01T11:00:05Z</time>
      </trkpt>
      <trkpt lat="42.391723000" lon="-2.459592000">
        <ele>472.50</ele>
        <time>2014-11-01T11:00:06Z</time>
      </trkpt>
      <trkpt lat="42.391775000" lon="-2.459566000">
        <ele>472.60</ele>
        <time>2014-11-01T11:00:07Z</time>
      </trkpt>
      <trkpt lat="42.391827000" lon="-2.459537000">
        <ele>472.70</ele>
        <time>2014-11-01T11:00:08Z</time>
      </trkpt>
      <trkpt lat="42.391882000" lon="-2.459509000">
        <ele>472.70</ele>
        <time>2014-11-01T11:00:09Z</time>
      </trkpt>
      <trkpt lat="42.391938000" lon="-2.459479000">
        <ele>472.70</ele>
        <time>2014-11-01T11:00:10Z</time>
      </trkpt>
      <trkpt lat="42.391994000" lon="-2.459452000">
        <ele>472.70</ele>
        <time>2014-11-01T11:00:11Z</time>
      </trkpt>
      <trkpt lat="42.392049000" lon="-2.459425000">
        <ele>472.70</ele>
        <time>2014-11-01T11:00:12Z</time>
      </trkpt>
      <trkpt lat="42.392107000" lon="-2.459396000">
        <ele>472.70</ele>
        <time>2014-11-01T11:00:13Z</time>
      </trkpt>
      <trkpt lat="42.392163000" lon="-2.459369000">
        <ele>472.50</ele>
        <time>2014-11-01T11:00:14Z</time>
      </trkpt>
      <trkpt lat="42.392220000" lon="-2.459347000">
        <ele>472.30</ele>
        <time>2014-11-01T11:00:15Z</time>
      </trkpt>
      <trkpt lat="42.392274000" lon="-2.459328000">
        <ele>472.20</ele>
        <time>2014-11-01T11:00:16Z</time>
      </trkpt>
      <trkpt lat="42.392330000" lon="-2.459308000">
        <ele>472.10</ele>
        <time>2014-11-01T11:00:17Z</time>
      </trkpt>
      <trkpt lat="42.392388000" lon="-2.459292000">
        <ele>471.80</ele>
        <time>2014-11-01T11:00:18Z</time>
      </trkpt>
      <trkpt lat="42.392447000" lon="-2.459277000">
        <ele>471.60</ele>
        <time>2014-11-01T11:00:19Z</time>
      </trkpt>
      <trkpt lat="42.392507000" lon="-2.459259000">
        <ele>471.60</ele>
        <time>2014-11-01T11:00:20Z</time>
      </trkpt>
      <trkpt lat="42.392569000" lon="-2.459247000">
        <ele>471.60</ele>
        <time>2014-11-01T11:00:21Z</time>
      </trkpt>
      <trkpt lat="42.392631000" lon="-2.459236000">
        <ele>471.70</ele>
        <time>2014-11-01T11:00:22Z</time>
      </trkpt>
      <trkpt lat="42.392693000" lon="-2.459225000">
        <ele>471.70</ele>
        <time>2014-11-01T11:00:23Z</time>
      </trkpt>
      <trkpt lat="42.392821000" lon="-2.459182000">
        <ele>471.70</ele>
        <time>2014-11-01T11:00:25Z</time>
      </trkpt>
      <trkpt lat="42.392880000" lon="-2.459153000">
        <ele>471.70</ele>
        <time>2014-11-01T11:00:26Z</time>
      </trkpt>
      <trkpt lat="42.392938000" lon="-2.459118000">
        <ele>471.70</ele>
        <time>2014-11-01T11:00:27Z</time>
      </trkpt>
      <trkpt lat="42.392998000" lon="-2.459084000">
        <ele>471.70</ele>
        <time>2014-11-01T11:00:28Z</time>
      </trkpt>
      <trkpt lat="42.393057000" lon="-2.459047000">
        <ele>471.70</ele>
        <time>2014-11-01T11:00:29Z</time>
      </trkpt>
      <trkpt lat="42.393116000" lon="-2.459013000">
        <ele>471.70</ele>
        <time>2014-11-01T11:00:30Z</time>
      </trkpt>
      <trkpt lat="42.393176000" lon="-2.458982000">
        <ele>471.70</ele>
        <time>2014-11-01T11:00:31Z</time>
      </trkpt>
      <trkpt lat="42.393235000" lon="-2.458954000">
        <ele>471.70</ele>
        <time>2014-11-01T11:00:32Z</time>
      </trkpt>
      <trkpt lat="42.393295000" lon="-2.458930000">
        <ele>471.60</ele>
        <time>2014-11-01T11:00:33Z</time>
      </trkpt>
      <trkpt lat="42.393358000" lon="-2.458910000">
        <ele>471.40</ele>
        <time>2014-11-01T11:00:34Z</time>
      </trkpt>
      <trkpt lat="42.393420000" lon="-2.458895000">
        <ele>471.20</ele>
        <time>2014-11-01T11:00:35Z</time>
      </trkpt>
      <trkpt lat="42.393478000" lon="-2.458882000">
        <ele>471.10</ele>
        <time>2014-11-01T11:00:36Z</time>
      </trkpt>
      <trkpt lat="42.393535000" lon="-2.458871000">
        <ele>471.00</ele>
        <time>2014-11-01T11:00:37Z</time>
      </trkpt>
      <trkpt lat="42.393592000" lon="-2.458859000">
        <ele>470.90</ele>
        <time>2014-11-01T11:00:38Z</time>
      </trkpt>
      <trkpt lat="42.393649000" lon="-2.458842000">
        <ele>470.90</ele>
        <time>2014-11-01T11:00:39Z</time>
      </trkpt>
      <trkpt lat="42.393706000" lon="-2.458822000">
        <ele>470.90</ele>
        <time>2014-11-01T11:00:40Z</time>
      </trkpt>
      <trkpt lat="42.393762000" lon="-2.458793000">
        <ele>471.00</ele>
        <time>2014-11-01T11:00:41Z</time>
      </trkpt>
      <trkpt lat="42.393818000" lon="-2.458762000">
        <ele>471.10</ele>
        <time>2014-11-01T11:00:42Z</time>
      </trkpt>
      <trkpt lat="42.393876000" lon="-2.458733000">
        <ele>471.10</ele>
        <time>2014-11-01T11:00:43Z</time>
      </trkpt>
      <trkpt lat="42.393933000" lon="-2.458701000">
        <ele>470.70</ele>
        <time>2014-11-01T11:00:44Z</time>
      </trkpt>
      <trkpt lat="42.393994000" lon="-2.458669000">
        <ele>470.40</ele>
        <time>2014-11-01T11:00:45Z</time>
      </trkpt>
      <trkpt lat="42.394055000" lon="-2.458631000">
        <ele>470.10</ele>
        <time>2014-11-01T11:00:46Z</time>
      </trkpt>
      <trkpt lat="42.394112000" lon="-2.458590000">
        <ele>469.90</ele>
        <time>2014-11-01T11:00:47Z</time>
      </trkpt>
      <trkpt lat="42.394168000" lon="-2.458549000">
        <ele>469.70</ele>
        <time>2014-11-01T11:00:48Z</time>
      </trkpt>
      <trkpt lat="42.394223000" lon="-2.458509000">
        <ele>469.60</ele>
        <time>2014-11-01T11:00:49Z</time>
      </trkpt>
      <trkpt lat="42.394277000" lon="-2.458467000">
        <ele>469.30</ele>
        <time>2014-11-01T11:00:50Z</time>
      </trkpt>
      <trkpt lat="42.394328000" lon="-2.458421000">
        <ele>469.10</ele>
        <time>2014-11-01T11:00:51Z</time>
      </trkpt>
      <trkpt lat="42.394371000" lon="-2.458372000">
        <ele>468.90</ele>
        <time>2014-11-01T11:00:52Z</time>
      </trkpt>
      <trkpt lat="42.394414000" lon="-2.458317000">
        <ele>468.80</ele>
        <time>2014-11-01T11:00:53Z</time>
      </trkpt>
      <trkpt lat="42.394457000" lon="-2.458262000">
        <ele>469.10</ele>
        <time>2014-11-01T11:00:54Z</time>
      </trkpt>
      <trkpt lat="42.394498000" lon="-2.458203000">
        <ele>469.30</ele>
        <time>2014-11-01T11:00:55Z</time>
      </trkpt>
      <trkpt lat="42.394532000" lon="-2.458142000">
        <ele>469.60</ele>
        <time>2014-11-01T11:00:56Z</time>
      </trkpt>
      <trkpt lat="42.394575000" lon="-2.458086000">
        <ele>469.80</ele>
        <time>2014-11-01T11:00:57Z</time>
      </trkpt>
      <trkpt lat="42.394623000" lon="-2.458030000">
        <ele>469.90</ele>
        <time>2014-11-01T11:00:58Z</time>
      </trkpt>
      <trkpt lat="42.394672000" lon="-2.457975000">
        <ele>469.90</ele>
        <time>2014-11-01T11:00:59Z</time>
      </trkpt>
      <trkpt lat="42.394723000" lon="-2.457920000">
        <ele>469.40</ele>
        <time>2014-11-01T11:01:00Z</time>
      </trkpt>
      <trkpt lat="42.394775000" lon="-2.457869000">
        <ele>469.00</ele>
        <time>2014-11-01T11:01:01Z</time>
      </trkpt>
      <trkpt lat="42.394825000" lon="-2.457815000">
        <ele>468.70</ele>
        <time>2014-11-01T11:01:02Z</time>
      </trkpt>
      <trkpt lat="42.394878000" lon="-2.457763000">
        <ele>468.40</ele>
        <time>2014-11-01T11:01:03Z</time>
      </trkpt>
      <trkpt lat="42.394934000" lon="-2.457718000">
        <ele>468.20</ele>
        <time>2014-11-01T11:01:04Z</time>
      </trkpt>
      <trkpt lat="42.394990000" lon="-2.457680000">
        <ele>468.00</ele>
        <time>2014-11-01T11:01:05Z</time>
      </trkpt>
      <trkpt lat="42.395047000" lon="-2.457648000">
        <ele>468.10</ele>
        <time>2014-11-01T11:01:06Z</time>
      </trkpt>
      <trkpt lat="42.395108000" lon="-2.457616000">
        <ele>468.10</ele>
        <time>2014-11-01T11:01:07Z</time>
      </trkpt>
      <trkpt lat="42.395165000" lon="-2.457578000">
        <ele>468.00</ele>
        <time>2014-11-01T11:01:08Z</time>
      </trkpt>
      <trkpt lat="42.395223000" lon="-2.457535000">
        <ele>467.90</ele>
        <time>2014-11-01T11:01:09Z</time>
      </trkpt>
      <trkpt lat="42.395281000" lon="-2.457495000">
        <ele>467.80</ele>
        <time>2014-11-01T11:01:10Z</time>
      </trkpt>
      <trkpt lat="42.395338000" lon="-2.457457000">
        <ele>467.70</ele>
        <time>2014-11-01T11:01:11Z</time>
      </trkpt>
      <trkpt lat="42.395399000" lon="-2.457424000">
        <ele>467.70</ele>
        <time>2014-11-01T11:01:12Z</time>
      </trkpt>
      <trkpt lat="42.395460000" lon="-2.457394000">
        <ele>467.60</ele>
        <time>2014-11-01T11:01:13Z</time>
      </trkpt>
      <trkpt lat="42.395524000" lon="-2.457372000">
        <ele>467.90</ele>
        <time>2014-11-01T11:01:14Z</time>
      </trkpt>
      <trkpt lat="42.395590000" lon="-2.457360000">
        <ele>468.10</ele>
        <time>2014-11-01T11:01:15Z</time>
      </trkpt>
      <trkpt lat="42.395655000" lon="-2.457344000">
        <ele>468.30</ele>
        <time>2014-11-01T11:01:16Z</time>
      </trkpt>
      <trkpt lat="42.395716000" lon="-2.457314000">
        <ele>468.40</ele>
        <time>2014-11-01T11:01:17Z</time>
      </trkpt>
      <trkpt lat="42.395771000" lon="-2.457277000">
        <ele>468.50</ele>
        <time>2014-11-01T11:01:18Z</time>
      </trkpt>
      <trkpt lat="42.395827000" lon="-2.457237000">
        <ele>468.60</ele>
        <time>2014-11-01T11:01:19Z</time>
      </trkpt>
      <trkpt lat="42.395884000" lon="-2.457196000">
        <ele>468.60</ele>
        <time>2014-11-01T11:01:20Z</time>
      </trkpt>
      <trkpt lat="42.395943000" lon="-2.457157000">
        <ele>468.70</ele>
        <time>2014-11-01T11:01:21Z</time>
      </trkpt>
      <trkpt lat="42.396004000" lon="-2.457120000">
        <ele>468.70</ele>
        <time>2014-11-01T11:01:22Z</time>
      </trkpt>
      <trkpt lat="42.396064000" lon="-2.457082000">
        <ele>468.70</ele>
        <time>2014-11-01T11:01:23Z</time>
      </trkpt>
      <trkpt lat="42.396124000" lon="-2.457040000">
        <ele>468.20</ele>
        <time>2014-11-01T11:01:24Z</time>
      </trkpt>
      <trkpt lat="42.396256000" lon="-2.456983000">
        <ele>467.60</ele>
        <time>2014-11-01T11:01:26Z</time>
      </trkpt>
      <trkpt lat="42.396327000" lon="-2.456980000">
        <ele>467.40</ele>
        <time>2014-11-01T11:01:27Z</time>
      </trkpt>
      <trkpt lat="42.396396000" lon="-2.456991000">
        <ele>467.10</ele>
        <time>2014-11-01T11:01:28Z</time>
      </trkpt>
      <trkpt lat="42.396465000" lon="-2.457000000">
        <ele>466.90</ele>
        <time>2014-11-01T11:01:29Z</time>
      </trkpt>
      <trkpt lat="42.396533000" lon="-2.456997000">
        <ele>466.10</ele>
        <time>2014-11-01T11:01:30Z</time>
      </trkpt>
      <trkpt lat="42.396598000" lon="-2.456986000">
        <ele>465.60</ele>
        <time>2014-11-01T11:01:31Z</time>
      </trkpt>
      <trkpt lat="42.396661000" lon="-2.456962000">
        <ele>465.20</ele>
        <time>2014-11-01T11:01:32Z</time>
      </trkpt>
      <trkpt lat="42.396722000" lon="-2.456928000">
        <ele>464.90</ele>
        <time>2014-11-01T11:01:33Z</time>
      </trkpt>
      <trkpt lat="42.396781000" lon="-2.456889000">
        <ele>465.10</ele>
        <time>2014-11-01T11:01:34Z</time>
      </trkpt>
      <trkpt lat="42.396836000" lon="-2.456842000">
        <ele>465.30</ele>
        <time>2014-11-01T11:01:35Z</time>
      </trkpt>
      <trkpt lat="42.396888000" lon="-2.456788000">
        <ele>465.50</ele>
        <time>2014-11-01T11:01:36Z</time>
      </trkpt>
      <trkpt lat="42.396938000" lon="-2.456733000">
        <ele>465.70</ele>
        <time>2014-11-01T11:01:37Z</time>
      </trkpt>
      <trkpt lat="42.396988000" lon="-2.456672000">
        <ele>466.00</ele>
        <time>2014-11-01T11:01:38Z</time>
      </trkpt>
      <trkpt lat="42.397035000" lon="-2.456609000">
        <ele>466.20</ele>
        <time>2014-11-01T11:01:39Z</time>
      </trkpt>
      <trkpt lat="42.397087000" lon="-2.456556000">
        <ele>466.40</ele>
        <time>2014-11-01T11:01:40Z</time>
      </trkpt>
      <trkpt lat="42.397147000" lon="-2.456513000">
        <ele>466.50</ele>
        <time>2014-11-01T11:01:41Z</time>
      </trkpt>
      <trkpt lat="42.397215000" lon="-2.456481000">
        <ele>466.20</ele>
        <time>2014-11-01T11:01:42Z</time>
      </trkpt>
      <trkpt lat="42.397284000" lon="-2.456457000">
        <ele>465.90</ele>
        <time>2014-11-01T11:01:43Z</time>
      </trkpt>
      <trkpt lat="42.397353000" lon="-2.456438000">
        <ele>465.70</ele>
        <time>2014-11-01T11:01:44Z</time>
      </trkpt>
      <trkpt lat="42.397421000" lon="-2.456425000">
        <ele>465.60</ele>
        <time>2014-11-01T11:01:45Z</time>
      </trkpt>
      <trkpt lat="42.397488000" lon="-2.456415000">
        <ele>465.50</ele>
        <time>2014-11-01T11:01:46Z</time>
      </trkpt>
      <trkpt lat="42.397552000" lon="-2.456392000">
        <ele>465.40</ele>
        <time>2014-11-01T11:01:47Z</time>
      </trkpt>
      <trkpt lat="42.397613000" lon="-2.456359000">
        <ele>466.20</ele>
        <time>2014-11-01T11:01:48Z</time>
      </trkpt>
      <trkpt lat="42.397667000" lon="-2.456321000">
        <ele>466.90</ele>
        <time>2014-11-01T11:01:49Z</time>
      </trkpt>
      <trkpt lat="42.397714000" lon="-2.456271000">
        <ele>466.40</ele>
        <time>2014-11-01T11:01:50Z</time>
      </trkpt>
      <trkpt lat="42.397765000" lon="-2.456222000">
        <ele>466.10</ele>
        <time>2014-11-01T11:01:51Z</time>
      </trkpt>
      <trkpt lat="42.397812000" lon="-2.456166000">
        <ele>465.80</ele>
        <time>2014-11-01T11:01:52Z</time>
      </trkpt>
      <trkpt lat="42.397862000" lon="-2.456124000">
        <ele>465.60</ele>
        <time>2014-11-01T11:01:53Z</time>
      </trkpt>
      <trkpt lat="42.397925000" lon="-2.456090000">
        <ele>465.20</ele>
        <time>2014-11-01T11:01:54Z</time>
      </trkpt>
      <trkpt lat="42.397993000" lon="-2.456065000">
        <ele>465.00</ele>
        <time>2014-11-01T11:01:55Z</time>
      </trkpt>
      <trkpt lat="42.398061000" lon="-2.456045000">
        <ele>464.80</ele>
        <time>2014-11-01T11:01:56Z</time>
      </trkpt>
      <trkpt lat="42.398131000" lon="-2.456026000">
        <ele>464.60</ele>
        <time>2014-11-01T11:01:57Z</time>
      </trkpt>
      <trkpt lat="42.398198000" lon="-2.456003000">
        <ele>464.80</ele>
        <time>2014-11-01T11:01:58Z</time>
      </trkpt>
      <trkpt lat="42.398266000" lon="-2.455973000">
        <ele>464.90</ele>
        <time>2014-11-01T11:01:59Z</time>
      </trkpt>
      <trkpt lat="42.398333000" lon="-2.455944000">
        <ele>464.90</ele>
        <time>2014-11-01T11:02:00Z</time>
      </trkpt>
      <trkpt lat="42.398399000" lon="-2.455914000">
        <ele>465.00</ele>
        <time>2014-11-01T11:02:01Z</time>
      </trkpt>
      <trkpt lat="42.398465000" lon="-2.455882000">
        <ele>465.00</ele>
        <time>2014-11-01T11:02:02Z</time>
      </trkpt>
      <trkpt lat="42.398534000" lon="-2.455846000">
        <ele>465.10</ele>
        <time>2014-11-01T11:02:03Z</time>
      </trkpt>
      <trkpt lat="42.398605000" lon="-2.455812000">
        <ele>465.00</ele>
        <time>2014-11-01T11:02:04Z</time>
      </trkpt>
      <trkpt lat="42.398677000" lon="-2.455776000">
        <ele>464.90</ele>
        <time>2014-11-01T11:02:05Z</time>
      </trkpt>
      <trkpt lat="42.398750000" lon="-2.455740000">
        <ele>464.90</ele>
        <time>2014-11-01T11:02:06Z</time>
      </trkpt>
      <trkpt lat="42.398826000" lon="-2.455711000">
        <ele>464.90</ele>
        <time>2014-11-01T11:02:07Z</time>
      </trkpt>
      <trkpt lat="42.398904000" lon="-2.455684000">
        <ele>464.80</ele>
        <time>2014-11-01T11:02:08Z</time>
      </trkpt>
      <trkpt lat="42.398981000" lon="-2.455656000">
        <ele>464.80</ele>
        <time>2014-11-01T11:02:09Z</time>
      </trkpt>
      <trkpt lat="42.399059000" lon="-2.455625000">
        <ele>464.40</ele>
        <time>2014-11-01T11:02:10Z</time>
      </trkpt>
      <trkpt lat="42.399132000" lon="-2.455594000">
        <ele>464.10</ele>
        <time>2014-11-01T11:02:11Z</time>
      </trkpt>
      <trkpt lat="42.399202000" lon="-2.455551000">
        <ele>463.70</ele>
        <time>2014-11-01T11:02:12Z</time>
      </trkpt>
      <trkpt lat="42.399268000" lon="-2.455502000">
        <ele>463.40</ele>
        <time>2014-11-01T11:02:13Z</time>
      </trkpt>
      <trkpt lat="42.399332000" lon="-2.455453000">
        <ele>463.20</ele>
        <time>2014-11-01T11:02:14Z</time>
      </trkpt>
      <trkpt lat="42.399396000" lon="-2.455406000">
        <ele>463.10</ele>
        <time>2014-11-01T11:02:15Z</time>
      </trkpt>
      <trkpt lat="42.399460000" lon="-2.455361000">
        <ele>462.80</ele>
        <time>2014-11-01T11:02:16Z</time>
      </trkpt>
      <trkpt lat="42.399524000" lon="-2.455317000">
        <ele>462.60</ele>
        <time>2014-11-01T11:02:17Z</time>
      </trkpt>
      <trkpt lat="42.399585000" lon="-2.455269000">
        <ele>462.20</ele>
        <time>2014-11-01T11:02:18Z</time>
      </trkpt>
      <trkpt lat="42.399647000" lon="-2.455217000">
        <ele>461.90</ele>
        <time>2014-11-01T11:02:19Z</time>
      </trkpt>
      <trkpt lat="42.399704000" lon="-2.455161000">
        <ele>461.50</ele>
        <time>2014-11-01T11:02:20Z</time>
      </trkpt>
      <trkpt lat="42.399760000" lon="-2.455100000">
        <ele>461.20</ele>
        <time>2014-11-01T11:02:21Z</time>
      </trkpt>
      <trkpt lat="42.399817000" lon="-2.455043000">
        <ele>461.00</ele>
        <time>2014-11-01T11:02:22Z</time>
      </trkpt>
      <trkpt lat="42.399874000" lon="-2.454989000">
        <ele>460.80</ele>
        <time>2014-11-01T11:02:23Z</time>
      </trkpt>
      <trkpt lat="42.399933000" lon="-2.454935000">
        <ele>461.00</ele>
        <time>2014-11-01T11:02:24Z</time>
      </trkpt>
      <trkpt lat="42.399995000" lon="-2.454886000">
        <ele>461.10</ele>
        <time>2014-11-01T11:02:25Z</time>
      </trkpt>
      <trkpt lat="42.400121000" lon="-2.454813000">
        <ele>461.30</ele>
        <time>2014-11-01T11:02:27Z</time>
      </trkpt>
      <trkpt lat="42.400186000" lon="-2.454777000">
        <ele>461.40</ele>
        <time>2014-11-01T11:02:28Z</time>
      </trkpt>
      <trkpt lat="42.400249000" lon="-2.454741000">
        <ele>461.40</ele>
        <time>2014-11-01T11:02:29Z</time>
      </trkpt>
      <trkpt lat="42.400311000" lon="-2.454704000">
        <ele>461.40</ele>
        <time>2014-11-01T11:02:30Z</time>
      </trkpt>
      <trkpt lat="42.400374000" lon="-2.454665000">
        <ele>461.40</ele>
        <time>2014-11-01T11:02:31Z</time>
      </trkpt>
      <trkpt lat="42.400437000" lon="-2.454626000">
        <ele>461.40</ele>
        <time>2014-11-01T11:02:32Z</time>
      </trkpt>
      <trkpt lat="42.400501000" lon="-2.454588000">
        <ele>461.40</ele>
        <time>2014-11-01T11:02:33Z</time>
      </trkpt>
      <trkpt lat="42.400565000" lon="-2.454549000">
        <ele>461.50</ele>
        <time>2014-11-01T11:02:34Z</time>
      </trkpt>
      <trkpt lat="42.400630000" lon="-2.454508000">
        <ele>461.50</ele>
        <time>2014-11-01T11:02:35Z</time>
      </trkpt>
      <trkpt lat="42.400695000" lon="-2.454471000">
        <ele>461.30</ele>
        <time>2014-11-01T11:02:36Z</time>
      </trkpt>
      <trkpt lat="42.400760000" lon="-2.454436000">
        <ele>461.20</ele>
        <time>2014-11-01T11:02:37Z</time>
      </trkpt>
      <trkpt lat="42.400826000" lon="-2.454398000">
        <ele>460.80</ele>
        <time>2014-11-01T11:02:38Z</time>
      </trkpt>
      <trkpt lat="42.400888000" lon="-2.454355000">
        <ele>460.60</ele>
        <time>2014-11-01T11:02:39Z</time>
      </trkpt>
      <trkpt lat="42.400949000" lon="-2.454310000">
        <ele>460.30</ele>
        <time>2014-11-01T11:02:40Z</time>
      </trkpt>
      <trkpt lat="42.401010000" lon="-2.454256000">
        <ele>460.20</ele>
        <time>2014-11-01T11:02:41Z</time>
      </trkpt>
      <trkpt lat="42.401070000" lon="-2.454200000">
        <ele>460.00</ele>
        <time>2014-11-01T11:02:42Z</time>
      </trkpt>
      <trkpt lat="42.401128000" lon="-2.454143000">
        <ele>459.90</ele>
        <time>2014-11-01T11:02:43Z</time>
      </trkpt>
      <trkpt lat="42.401184000" lon="-2.454087000">
        <ele>458.90</ele>
        <time>2014-11-01T11:02:44Z</time>
      </trkpt>
      <trkpt lat="42.401238000" lon="-2.454026000">
        <ele>458.10</ele>
        <time>2014-11-01T11:02:45Z</time>
      </trkpt>
      <trkpt lat="42.401290000" lon="-2.453964000">
        <ele>457.50</ele>
        <time>2014-11-01T11:02:46Z</time>
      </trkpt>
      <trkpt lat="42.401342000" lon="-2.453901000">
        <ele>457.10</ele>
        <time>2014-11-01T11:02:47Z</time>
      </trkpt>
      <trkpt lat="42.401392000" lon="-2.453839000">
        <ele>457.20</ele>
        <time>2014-11-01T11:02:48Z</time>
      </trkpt>
      <trkpt lat="42.401439000" lon="-2.453777000">
        <ele>457.30</ele>
        <time>2014-11-01T11:02:49Z</time>
      </trkpt>
      <trkpt lat="42.401491000" lon="-2.453716000">
        <ele>457.70</ele>
        <time>2014-11-01T11:02:50Z</time>
      </trkpt>
      <trkpt lat="42.401544000" lon="-2.453659000">
        <ele>458.00</ele>
        <time>2014-11-01T11:02:51Z</time>
      </trkpt>
      <trkpt lat="42.401603000" lon="-2.453605000">
        <ele>458.20</ele>
        <time>2014-11-01T11:02:52Z</time>
      </trkpt>
      <trkpt lat="42.401664000" lon="-2.453556000">
        <ele>458.40</ele>
        <time>2014-11-01T11:02:53Z</time>
      </trkpt>
      <trkpt lat="42.401730000" lon="-2.453512000">
        <ele>458.50</ele>
        <time>2014-11-01T11:02:54Z</time>
      </trkpt>
      <trkpt lat="42.401795000" lon="-2.453465000">
        <ele>458.60</ele>
        <time>2014-11-01T11:02:55Z</time>
      </trkpt>
      <trkpt lat="42.401860000" lon="-2.453418000">
        <ele>458.70</ele>
        <time>2014-11-01T11:02:56Z</time>
      </trkpt>
      <trkpt lat="42.401922000" lon="-2.453369000">
        <ele>458.70</ele>
        <time>2014-11-01T11:02:57Z</time>
      </trkpt>
      <trkpt lat="42.401982000" lon="-2.453321000">
        <ele>458.50</ele>
        <time>2014-11-01T11:02:58Z</time>
      </trkpt>
      <trkpt lat="42.402040000" lon="-2.453268000">
        <ele>458.40</ele>
        <time>2014-11-01T11:02:59Z</time>
      </trkpt>
      <trkpt lat="42.402097000" lon="-2.453216000">
        <ele>457.90</ele>
        <time>2014-11-01T11:03:00Z</time>
      </trkpt>
      <trkpt lat="42.402151000" lon="-2.453163000">
        <ele>457.60</ele>
        <time>2014-11-01T11:03:01Z</time>
      </trkpt>
      <trkpt lat="42.402205000" lon="-2.453110000">
        <ele>457.30</ele>
        <time>2014-11-01T11:03:02Z</time>
      </trkpt>
      <trkpt lat="42.402257000" lon="-2.453057000">
        <ele>457.10</ele>
        <time>2014-11-01T11:03:03Z</time>
      </trkpt>
      <trkpt lat="42.402309000" lon="-2.453000000">
        <ele>457.10</ele>
        <time>2014-11-01T11:03:04Z</time>
      </trkpt>
      <trkpt lat="42.402360000" lon="-2.452945000">
        <ele>457.00</ele>
        <time>2014-11-01T11:03:05Z</time>
      </trkpt>
      <trkpt lat="42.402415000" lon="-2.452895000">
        <ele>457.00</ele>
        <time>2014-11-01T11:03:06Z</time>
      </trkpt>
      <trkpt lat="42.402467000" lon="-2.452835000">
        <ele>456.90</ele>
        <time>2014-11-01T11:03:07Z</time>
      </trkpt>
      <trkpt lat="42.402517000" lon="-2.452772000">
        <ele>456.90</ele>
        <time>2014-11-01T11:03:08Z</time>
      </trkpt>
      <trkpt lat="42.402567000" lon="-2.452708000">
        <ele>456.90</ele>
        <time>2014-11-01T11:03:09Z</time>
      </trkpt>
      <trkpt lat="42.402615000" lon="-2.452641000">
        <ele>456.90</ele>
        <time>2014-11-01T11:03:10Z</time>
      </trkpt>
      <trkpt lat="42.402663000" lon="-2.452573000">
        <ele>456.90</ele>
        <time>2014-11-01T11:03:11Z</time>
      </trkpt>
      <trkpt lat="42.402713000" lon="-2.452510000">
        <ele>456.80</ele>
        <time>2014-11-01T11:03:12Z</time>
      </trkpt>
      <trkpt lat="42.402768000" lon="-2.452456000">
        <ele>456.80</ele>
        <time>2014-11-01T11:03:13Z</time>
      </trkpt>
      <trkpt lat="42.402829000" lon="-2.452410000">
        <ele>456.80</ele>
        <time>2014-11-01T11:03:14Z</time>
      </trkpt>
      <trkpt lat="42.402891000" lon="-2.452369000">
        <ele>456.80</ele>
        <time>2014-11-01T11:03:15Z</time>
      </trkpt>
      <trkpt lat="42.402955000" lon="-2.452331000">
        <ele>456.80</ele>
        <time>2014-11-01T11:03:16Z</time>
      </trkpt>
      <trkpt lat="42.403020000" lon="-2.452291000">
        <ele>456.80</ele>
        <time>2014-11-01T11:03:17Z</time>
      </trkpt>
      <trkpt lat="42.403081000" lon="-2.452240000">
        <ele>457.30</ele>
        <time>2014-11-01T11:03:18Z</time>
      </trkpt>
      <trkpt lat="42.403136000" lon="-2.452186000">
        <ele>457.60</ele>
        <time>2014-11-01T11:03:19Z</time>
      </trkpt>
      <trkpt lat="42.403189000" lon="-2.452130000">
        <ele>457.90</ele>
        <time>2014-11-01T11:03:20Z</time>
      </trkpt>
      <trkpt lat="42.403244000" lon="-2.452077000">
        <ele>458.10</ele>
        <time>2014-11-01T11:03:21Z</time>
      </trkpt>
      <trkpt lat="42.403300000" lon="-2.452030000">
        <ele>458.30</ele>
        <time>2014-11-01T11:03:22Z</time>
      </trkpt>
      <trkpt lat="42.403355000" lon="-2.451991000">
        <ele>458.40</ele>
        <time>2014-11-01T11:03:23Z</time>
      </trkpt>
      <trkpt lat="42.403410000" lon="-2.451952000">
        <ele>458.20</ele>
        <time>2014-11-01T11:03:24Z</time>
      </trkpt>
      <trkpt lat="42.403468000" lon="-2.451914000">
        <ele>458.10</ele>
        <time>2014-11-01T11:03:25Z</time>
      </trkpt>
      <trkpt lat="42.403524000" lon="-2.451872000">
        <ele>457.80</ele>
        <time>2014-11-01T11:03:26Z</time>
      </trkpt>
      <trkpt lat="42.403632000" lon="-2.451779000">
        <ele>457.50</ele>
        <time>2014-11-01T11:03:28Z</time>
      </trkpt>
      <trkpt lat="42.403685000" lon="-2.451730000">
        <ele>457.40</ele>
        <time>2014-11-01T11:03:29Z</time>
      </trkpt>
      <trkpt lat="42.403736000" lon="-2.451677000">
        <ele>457.40</ele>
        <time>2014-11-01T11:03:30Z</time>
      </trkpt>
      <trkpt lat="42.403782000" lon="-2.451619000">
        <ele>457.40</ele>
        <time>2014-11-01T11:03:31Z</time>
      </trkpt>
      <trkpt lat="42.403827000" lon="-2.451558000">
        <ele>457.40</ele>
        <time>2014-11-01T11:03:32Z</time>
      </trkpt>
      <trkpt lat="42.403872000" lon="-2.451498000">
        <ele>457.50</ele>
        <time>2014-11-01T11:03:33Z</time>
      </trkpt>
      <trkpt lat="42.403918000" lon="-2.451437000">
        <ele>457.40</ele>
        <time>2014-11-01T11:03:34Z</time>
      </trkpt>
      <trkpt lat="42.403962000" lon="-2.451376000">
        <ele>457.40</ele>
        <time>2014-11-01T11:03:35Z</time>
      </trkpt>
      <trkpt lat="42.404004000" lon="-2.451319000">
        <ele>457.00</ele>
        <time>2014-11-01T11:03:36Z</time>
      </trkpt>
      <trkpt lat="42.404052000" lon="-2.451262000">
        <ele>456.70</ele>
        <time>2014-11-01T11:03:37Z</time>
      </trkpt>
      <trkpt lat="42.404099000" lon="-2.451205000">
        <ele>456.50</ele>
        <time>2014-11-01T11:03:38Z</time>
      </trkpt>
      <trkpt lat="42.404146000" lon="-2.451151000">
        <ele>456.30</ele>
        <time>2014-11-01T11:03:39Z</time>
      </trkpt>
      <trkpt lat="42.404196000" lon="-2.451102000">
        <ele>456.20</ele>
        <time>2014-11-01T11:03:40Z</time>
      </trkpt>
      <trkpt lat="42.404247000" lon="-2.451051000">
        <ele>456.10</ele>
        <time>2014-11-01T11:03:41Z</time>
      </trkpt>
      <trkpt lat="42.404296000" lon="-2.451002000">
        <ele>456.00</ele>
        <time>2014-11-01T11:03:42Z</time>
      </trkpt>
      <trkpt lat="42.404346000" lon="-2.450951000">
        <ele>456.00</ele>
        <time>2014-11-01T11:03:43Z</time>
      </trkpt>
      <trkpt lat="42.404395000" lon="-2.450902000">
        <ele>455.90</ele>
        <time>2014-11-01T11:03:44Z</time>
      </trkpt>
      <trkpt lat="42.404440000" lon="-2.450847000">
        <ele>455.90</ele>
        <time>2014-11-01T11:03:45Z</time>
      </trkpt>
      <trkpt lat="42.404479000" lon="-2.450783000">
        <ele>456.00</ele>
        <time>2014-11-01T11:03:46Z</time>
      </trkpt>
      <trkpt lat="42.404516000" lon="-2.450720000">
        <ele>456.10</ele>
        <time>2014-11-01T11:03:47Z</time>
      </trkpt>
      <trkpt lat="42.404553000" lon="-2.450657000">
        <ele>456.10</ele>
        <time>2014-11-01T11:03:48Z</time>
      </trkpt>
      <trkpt lat="42.404587000" lon="-2.450590000">
        <ele>456.20</ele>
        <time>2014-11-01T11:03:49Z</time>
      </trkpt>
      <trkpt lat="42.404624000" lon="-2.450523000">
        <ele>456.20</ele>
        <time>2014-11-01T11:03:50Z</time>
      </trkpt>
      <trkpt lat="42.404663000" lon="-2.450463000">
        <ele>456.20</ele>
        <time>2014-11-01T11:03:51Z</time>
      </trkpt>
      <trkpt lat="42.404699000" lon="-2.450403000">
        <ele>456.10</ele>
        <time>2014-11-01T11:03:52Z</time>
      </trkpt>
      <trkpt lat="42.404734000" lon="-2.450336000">
        <ele>455.90</ele>
        <time>2014-11-01T11:03:53Z</time>
      </trkpt>
      <trkpt lat="42.404766000" lon="-2.450269000">
        <ele>456.00</ele>
        <time>2014-11-01T11:03:54Z</time>
      </trkpt>
      <trkpt lat="42.404809000" lon="-2.450215000">
        <ele>456.10</ele>
        <time>2014-11-01T11:03:55Z</time>
      </trkpt>
      <trkpt lat="42.404859000" lon="-2.450178000">
        <ele>456.00</ele>
        <time>2014-11-01T11:03:56Z</time>
      </trkpt>
      <trkpt lat="42.404913000" lon="-2.450145000">
        <ele>456.00</ele>
        <time>2014-11-01T11:03:57Z</time>
      </trkpt>
      <trkpt lat="42.404966000" lon="-2.450106000">
        <ele>456.10</ele>
        <time>2014-11-01T11:03:58Z</time>
      </trkpt>
      <trkpt lat="42.405019000" lon="-2.450064000">
        <ele>456.20</ele>
        <time>2014-11-01T11:03:59Z</time>
      </trkpt>
      <trkpt lat="42.405072000" lon="-2.450018000">
        <ele>456.10</ele>
        <time>2014-11-01T11:04:00Z</time>
      </trkpt>
      <trkpt lat="42.405125000" lon="-2.449973000">
        <ele>456.00</ele>
        <time>2014-11-01T11:04:01Z</time>
      </trkpt>
      <trkpt lat="42.405181000" lon="-2.449933000">
        <ele>456.20</ele>
        <time>2014-11-01T11:04:02Z</time>
      </trkpt>
      <trkpt lat="42.405236000" lon="-2.449892000">
        <ele>456.30</ele>
        <time>2014-11-01T11:04:03Z</time>
      </trkpt>
      <trkpt lat="42.405291000" lon="-2.449854000">
        <ele>456.10</ele>
        <time>2014-11-01T11:04:04Z</time>
      </trkpt>
      <trkpt lat="42.405348000" lon="-2.449816000">
        <ele>455.90</ele>
        <time>2014-11-01T11:04:05Z</time>
      </trkpt>
      <trkpt lat="42.405402000" lon="-2.449779000">
        <ele>456.20</ele>
        <time>2014-11-01T11:04:06Z</time>
      </trkpt>
      <trkpt lat="42.405457000" lon="-2.449740000">
        <ele>456.40</ele>
        <time>2014-11-01T11:04:07Z</time>
      </trkpt>
      <trkpt lat="42.405514000" lon="-2.449702000">
        <ele>455.80</ele>
        <time>2014-11-01T11:04:08Z</time>
      </trkpt>
      <trkpt lat="42.405572000" lon="-2.449667000">
        <ele>455.30</ele>
        <time>2014-11-01T11:04:09Z</time>
      </trkpt>
      <trkpt lat="42.405631000" lon="-2.449631000">
        <ele>455.10</ele>
        <time>2014-11-01T11:04:10Z</time>
      </trkpt>
      <trkpt lat="42.405690000" lon="-2.449597000">
        <ele>455.00</ele>
        <time>2014-11-01T11:04:11Z</time>
      </trkpt>
      <trkpt lat="42.405749000" lon="-2.449561000">
        <ele>454.70</ele>
        <time>2014-11-01T11:04:12Z</time>
      </trkpt>
      <trkpt lat="42.405808000" lon="-2.449528000">
        <ele>454.50</ele>
        <time>2014-11-01T11:04:13Z</time>
      </trkpt>
      <trkpt lat="42.405865000" lon="-2.449493000">
        <ele>454.50</ele>
        <time>2014-11-01T11:04:14Z</time>
      </trkpt>
      <trkpt lat="42.405921000" lon="-2.449462000">
        <ele>454.50</ele>
        <time>2014-11-01T11:04:15Z</time>
      </trkpt>
      <trkpt lat="42.405979000" lon="-2.449432000">
        <ele>454.50</ele>
        <time>2014-11-01T11:04:16Z</time>
      </trkpt>
      <trkpt lat="42.406034000" lon="-2.449398000">
        <ele>454.60</ele>
        <time>2014-11-01T11:04:17Z</time>
      </trkpt>
      <trkpt lat="42.406088000" lon="-2.449367000">
        <ele>454.60</ele>
        <time>2014-11-01T11:04:18Z</time>
      </trkpt>
      <trkpt lat="42.406141000" lon="-2.449332000">
        <ele>454.60</ele>
        <time>2014-11-01T11:04:19Z</time>
      </trkpt>
      <trkpt lat="42.406192000" lon="-2.449292000">
        <ele>455.10</ele>
        <time>2014-11-01T11:04:20Z</time>
      </trkpt>
      <trkpt lat="42.406239000" lon="-2.449248000">
        <ele>455.60</ele>
        <time>2014-11-01T11:04:21Z</time>
      </trkpt>
      <trkpt lat="42.406284000" lon="-2.449206000">
        <ele>455.30</ele>
        <time>2014-11-01T11:04:22Z</time>
      </trkpt>
      <trkpt lat="42.406331000" lon="-2.449165000">
        <ele>455.10</ele>
        <time>2014-11-01T11:04:23Z</time>
      </trkpt>
      <trkpt lat="42.406377000" lon="-2.449122000">
        <ele>455.00</ele>
        <time>2014-11-01T11:04:24Z</time>
      </trkpt>
      <trkpt lat="42.406424000" lon="-2.449076000">
        <ele>454.90</ele>
        <time>2014-11-01T11:04:25Z</time>
      </trkpt>
      <trkpt lat="42.406469000" lon="-2.449030000">
        <ele>454.60</ele>
        <time>2014-11-01T11:04:26Z</time>
      </trkpt>
      <trkpt lat="42.406512000" lon="-2.448982000">
        <ele>454.40</ele>
        <time>2014-11-01T11:04:27Z</time>
      </trkpt>
      <trkpt lat="42.406601000" lon="-2.448877000">
        <ele>454.20</ele>
        <time>2014-11-01T11:04:29Z</time>
      </trkpt>
      <trkpt lat="42.406645000" lon="-2.448825000">
        <ele>454.10</ele>
        <time>2014-11-01T11:04:30Z</time>
      </trkpt>
      <trkpt lat="42.406695000" lon="-2.448775000">
        <ele>454.10</ele>
        <time>2014-11-01T11:04:31Z</time>
      </trkpt>
      <trkpt lat="42.406746000" lon="-2.448725000">
        <ele>454.10</ele>
        <time>2014-11-01T11:04:32Z</time>
      </trkpt>
      <trkpt lat="42.406798000" lon="-2.448678000">
        <ele>454.10</ele>
        <time>2014-11-01T11:04:33Z</time>
      </trkpt>
      <trkpt lat="42.406848000" lon="-2.448635000">
        <ele>454.10</ele>
        <time>2014-11-01T11:04:34Z</time>
      </trkpt>
      <trkpt lat="42.406900000" lon="-2.448589000">
        <ele>454.10</ele>
        <time>2014-11-01T11:04:35Z</time>
      </trkpt>
      <trkpt lat="42.406953000" lon="-2.448545000">
        <ele>454.10</ele>
        <time>2014-11-01T11:04:36Z</time>
      </trkpt>
      <trkpt lat="42.407005000" lon="-2.448498000">
        <ele>454.10</ele>
        <time>2014-11-01T11:04:37Z</time>
      </trkpt>
      <trkpt lat="42.407053000" lon="-2.448443000">
        <ele>453.80</ele>
        <time>2014-11-01T11:04:38Z</time>
      </trkpt>
      <trkpt lat="42.407098000" lon="-2.448385000">
        <ele>453.60</ele>
        <time>2014-11-01T11:04:39Z</time>
      </trkpt>
      <trkpt lat="42.407133000" lon="-2.448313000">
        <ele>453.40</ele>
        <time>2014-11-01T11:04:40Z</time>
      </trkpt>
      <trkpt lat="42.407151000" lon="-2.448224000">
        <ele>453.30</ele>
        <time>2014-11-01T11:04:41Z</time>
      </trkpt>
      <trkpt lat="42.407149000" lon="-2.448129000">
        <ele>452.10</ele>
        <time>2014-11-01T11:04:42Z</time>
      </trkpt>
      <trkpt lat="42.407133000" lon="-2.448039000">
        <ele>451.20</ele>
        <time>2014-11-01T11:04:43Z</time>
      </trkpt>
      <trkpt lat="42.407112000" lon="-2.447947000">
        <ele>451.10</ele>
        <time>2014-11-01T11:04:44Z</time>
      </trkpt>
      <trkpt lat="42.407094000" lon="-2.447856000">
        <ele>451.10</ele>
        <time>2014-11-01T11:04:45Z</time>
      </trkpt>
      <trkpt lat="42.407074000" lon="-2.447766000">
        <ele>451.00</ele>
        <time>2014-11-01T11:04:46Z</time>
      </trkpt>
      <trkpt lat="42.407056000" lon="-2.447676000">
        <ele>451.00</ele>
        <time>2014-11-01T11:04:47Z</time>
      </trkpt>
      <trkpt lat="42.407039000" lon="-2.447584000">
        <ele>450.90</ele>
        <time>2014-11-01T11:04:48Z</time>
      </trkpt>
      <trkpt lat="42.407024000" lon="-2.447491000">
        <ele>450.90</ele>
        <time>2014-11-01T11:04:49Z</time>
      </trkpt>
      <trkpt lat="42.407007000" lon="-2.447402000">
        <ele>450.90</ele>
        <time>2014-11-01T11:04:50Z</time>
      </trkpt>
      <trkpt lat="42.406987000" lon="-2.447315000">
        <ele>450.90</ele>
        <time>2014-11-01T11:04:51Z</time>
      </trkpt>
      <trkpt lat="42.406966000" lon="-2.447231000">
        <ele>450.50</ele>
        <time>2014-11-01T11:04:52Z</time>
      </trkpt>
      <trkpt lat="42.406951000" lon="-2.447147000">
        <ele>450.20</ele>
        <time>2014-11-01T11:04:53Z</time>
      </trkpt>
      <trkpt lat="42.406942000" lon="-2.447063000">
        <ele>450.30</ele>
        <time>2014-11-01T11:04:54Z</time>
      </trkpt>
      <trkpt lat="42.406932000" lon="-2.446976000">
        <ele>450.30</ele>
        <time>2014-11-01T11:04:55Z</time>
      </trkpt>
      <trkpt lat="42.406922000" lon="-2.446889000">
        <ele>450.00</ele>
        <time>2014-11-01T11:04:56Z</time>
      </trkpt>
      <trkpt lat="42.406907000" lon="-2.446806000">
        <ele>449.70</ele>
        <time>2014-11-01T11:04:57Z</time>
      </trkpt>
      <trkpt lat="42.406888000" lon="-2.446725000">
        <ele>449.70</ele>
        <time>2014-11-01T11:04:58Z</time>
      </trkpt>
      <trkpt lat="42.406863000" lon="-2.446642000">
        <ele>449.60</ele>
        <time>2014-11-01T11:04:59Z</time>
      </trkpt>
      <trkpt lat="42.406848000" lon="-2.446558000">
        <ele>449.50</ele>
        <time>2014-11-01T11:05:00Z</time>
      </trkpt>
      <trkpt lat="42.406852000" lon="-2.446472000">
        <ele>449.40</ele>
        <time>2014-11-01T11:05:01Z</time>
      </trkpt>
      <trkpt lat="42.406879000" lon="-2.446396000">
        <ele>449.30</ele>
        <time>2014-11-01T11:05:02Z</time>
      </trkpt>
      <trkpt lat="42.406919000" lon="-2.446328000">
        <ele>449.20</ele>
        <time>2014-11-01T11:05:03Z</time>
      </trkpt>
      <trkpt lat="42.406963000" lon="-2.446267000">
        <ele>449.10</ele>
        <time>2014-11-01T11:05:04Z</time>
      </trkpt>
      <trkpt lat="42.407006000" lon="-2.446201000">
        <ele>449.10</ele>
        <time>2014-11-01T11:05:05Z</time>
      </trkpt>
      <trkpt lat="42.407047000" lon="-2.446128000">
        <ele>449.10</ele>
        <time>2014-11-01T11:05:06Z</time>
      </trkpt>
      <trkpt lat="42.407086000" lon="-2.446048000">
        <ele>449.10</ele>
        <time>2014-11-01T11:05:07Z</time>
      </trkpt>
      <trkpt lat="42.407121000" lon="-2.445961000">
        <ele>449.10</ele>
        <time>2014-11-01T11:05:08Z</time>
      </trkpt>
      <trkpt lat="42.407152000" lon="-2.445877000">
        <ele>449.20</ele>
        <time>2014-11-01T11:05:09Z</time>
      </trkpt>
      <trkpt lat="42.407179000" lon="-2.445791000">
        <ele>449.20</ele>
        <time>2014-11-01T11:05:10Z</time>
      </trkpt>
      <trkpt lat="42.407202000" lon="-2.445704000">
        <ele>449.30</ele>
        <time>2014-11-01T11:05:11Z</time>
      </trkpt>
      <trkpt lat="42.407221000" lon="-2.445617000">
        <ele>448.50</ele>
        <time>2014-11-01T11:05:12Z</time>
      </trkpt>
      <trkpt lat="42.407243000" lon="-2.445532000">
        <ele>447.90</ele>
        <time>2014-11-01T11:05:13Z</time>
      </trkpt>
      <trkpt lat="42.407266000" lon="-2.445447000">
        <ele>447.50</ele>
        <time>2014-11-01T11:05:14Z</time>
      </trkpt>
      <trkpt lat="42.407291000" lon="-2.445364000">
        <ele>447.20</ele>
        <time>2014-11-01T11:05:15Z</time>
      </trkpt>
      <trkpt lat="42.407314000" lon="-2.445284000">
        <ele>447.10</ele>
        <time>2014-11-01T11:05:16Z</time>
      </trkpt>
      <trkpt lat="42.407340000" lon="-2.445213000">
        <ele>447.10</ele>
        <time>2014-11-01T11:05:17Z</time>
      </trkpt>
      <trkpt lat="42.407365000" lon="-2.445150000">
        <ele>447.30</ele>
        <time>2014-11-01T11:05:18Z</time>
      </trkpt>
      <trkpt lat="42.407385000" lon="-2.445094000">
        <ele>447.50</ele>
        <time>2014-11-01T11:05:19Z</time>
      </trkpt>
      <trkpt lat="42.407398000" lon="-2.445043000">
        <ele>447.80</ele>
        <time>2014-11-01T11:05:20Z</time>
      </trkpt>
      <trkpt lat="42.407411000" lon="-2.445003000">
        <ele>448.00</ele>
        <time>2014-11-01T11:05:21Z</time>
      </trkpt>
      <trkpt lat="42.407421000" lon="-2.444956000">
        <ele>448.20</ele>
        <time>2014-11-01T11:05:22Z</time>
      </trkpt>
      <trkpt lat="42.407432000" lon="-2.444903000">
        <ele>448.30</ele>
        <time>2014-11-01T11:05:23Z</time>
      </trkpt>
      <trkpt lat="42.407444000" lon="-2.444849000">
        <ele>448.50</ele>
        <time>2014-11-01T11:05:24Z</time>
      </trkpt>
      <trkpt lat="42.407460000" lon="-2.444792000">
        <ele>448.60</ele>
        <time>2014-11-01T11:05:25Z</time>
      </trkpt>
      <trkpt lat="42.407483000" lon="-2.444732000">
        <ele>448.80</ele>
        <time>2014-11-01T11:05:26Z</time>
      </trkpt>
      <trkpt lat="42.407510000" lon="-2.444670000">
        <ele>448.90</ele>
        <time>2014-11-01T11:05:27Z</time>
      </trkpt>
      <trkpt lat="42.407540000" lon="-2.444609000">
        <ele>449.00</ele>
        <time>2014-11-01T11:05:28Z</time>
      </trkpt>
      <trkpt lat="42.407600000" lon="-2.444501000">
        <ele>449.00</ele>
        <time>2014-11-01T11:05:30Z</time>
      </trkpt>
      <trkpt lat="42.407630000" lon="-2.444449000">
        <ele>449.00</ele>
        <time>2014-11-01T11:05:31Z</time>
      </trkpt>
      <trkpt lat="42.407663000" lon="-2.444399000">
        <ele>448.50</ele>
        <time>2014-11-01T11:05:32Z</time>
      </trkpt>
      <trkpt lat="42.407701000" lon="-2.444346000">
        <ele>448.20</ele>
        <time>2014-11-01T11:05:33Z</time>
      </trkpt>
      <trkpt lat="42.407734000" lon="-2.444290000">
        <ele>448.00</ele>
        <time>2014-11-01T11:05:34Z</time>
      </trkpt>
      <trkpt lat="42.407767000" lon="-2.444237000">
        <ele>447.80</ele>
        <time>2014-11-01T11:05:35Z</time>
      </trkpt>
      <trkpt lat="42.407797000" lon="-2.444182000">
        <ele>447.40</ele>
        <time>2014-11-01T11:05:36Z</time>
      </trkpt>
      <trkpt lat="42.407828000" lon="-2.444127000">
        <ele>447.10</ele>
        <time>2014-11-01T11:05:37Z</time>
      </trkpt>
      <trkpt lat="42.407860000" lon="-2.444082000">
        <ele>447.00</ele>
        <time>2014-11-01T11:05:38Z</time>
      </trkpt>
      <trkpt lat="42.407884000" lon="-2.444041000">
        <ele>446.90</ele>
        <time>2014-11-01T11:05:39Z</time>
      </trkpt>
      <trkpt lat="42.407904000" lon="-2.444010000">
        <ele>446.70</ele>
        <time>2014-11-01T11:05:40Z</time>
      </trkpt>
      <trkpt lat="42.407917000" lon="-2.443991000">
        <ele>446.60</ele>
        <time>2014-11-01T11:05:41Z</time>
      </trkpt>
      <trkpt lat="42.407930000" lon="-2.443974000">
        <ele>446.60</ele>
        <time>2014-11-01T11:05:42Z</time>
      </trkpt>
      <trkpt lat="42.407939000" lon="-2.443958000">
        <ele>446.50</ele>
        <time>2014-11-01T11:05:43Z</time>
      </trkpt>
      <trkpt lat="42.407948000" lon="-2.443946000">
        <ele>446.50</ele>
        <time>2014-11-01T11:05:44Z</time>
      </trkpt>
      <trkpt lat="42.407957000" lon="-2.443934000">
        <ele>446.50</ele>
        <time>2014-11-01T11:05:45Z</time>
      </trkpt>
      <trkpt lat="42.407965000" lon="-2.443923000">
        <ele>446.70</ele>
        <time>2014-11-01T11:05:46Z</time>
      </trkpt>
      <trkpt lat="42.407967000" lon="-2.443921000">
        <ele>446.90</ele>
        <time>2014-11-01T11:05:47Z</time>
      </trkpt>
      <trkpt lat="42.407969000" lon="-2.443922000">
        <ele>447.00</ele>
        <time>2014-11-01T11:05:48Z</time>
      </trkpt>
      <trkpt lat="42.407972000" lon="-2.443921000">
        <ele>447.00</ele>
        <time>2014-11-01T11:05:49Z</time>
      </trkpt>
      <trkpt lat="42.407976000" lon="-2.443919000">
        <ele>447.00</ele>
        <time>2014-11-01T11:05:50Z</time>
      </trkpt>
      <trkpt lat="42.407979000" lon="-2.443919000">
        <ele>447.00</ele>
        <time>2014-11-01T11:05:51Z</time>
      </trkpt>
      <trkpt lat="42.407977000" lon="-2.443923000">
        <ele>446.90</ele>
        <time>2014-11-01T11:05:52Z</time>
      </trkpt>
      <trkpt lat="42.407978000" lon="-2.443929000">
        <ele>446.80</ele>
        <time>2014-11-01T11:05:53Z</time>
      </trkpt>
      <trkpt lat="42.407980000" lon="-2.443935000">
        <ele>446.70</ele>
        <time>2014-11-01T11:05:54Z</time>
      </trkpt>
      <trkpt lat="42.407982000" lon="-2.443937000">
        <ele>446.70</ele>
        <time>2014-11-01T11:05:55Z</time>
      </trkpt>
      <trkpt lat="42.407986000" lon="-2.443938000">
        <ele>446.60</ele>
        <time>2014-11-01T11:05:56Z</time>
      </trkpt>
      <trkpt lat="42.407990000" lon="-2.443941000">
        <ele>446.50</ele>
        <time>2014-11-01T11:05:57Z</time>
      </trkpt>
      <trkpt lat="42.407993000" lon="-2.443944000">
        <ele>446.40</ele>
        <time>2014-11-01T11:05:58Z</time>
      </trkpt>
      <trkpt lat="42.407996000" lon="-2.443946000">
        <ele>446.40</ele>
        <time>2014-11-01T11:05:59Z</time>
      </trkpt>
      <trkpt lat="42.407999000" lon="-2.443945000">
        <ele>446.40</ele>
        <time>2014-11-01T11:06:00Z</time>
      </trkpt>
      <trkpt lat="42.408003000" lon="-2.443944000">
        <ele>446.40</ele>
        <time>2014-11-01T11:06:01Z</time>
      </trkpt>
      <trkpt lat="42.408005000" lon="-2.443943000">
        <ele>446.40</ele>
        <time>2014-11-01T11:06:02Z</time>
      </trkpt>
      <trkpt lat="42.408006000" lon="-2.443943000">
        <ele>446.50</ele>
        <time>2014-11-01T11:06:03Z</time>
      </trkpt>
      <trkpt lat="42.408006000" lon="-2.443944000">
        <ele>446.50</ele>
        <time>2014-11-01T11:06:04Z</time>
      </trkpt>
      <trkpt lat="42.408006000" lon="-2.443944000">
        <ele>446.50</ele>
        <time>2014-11-01T11:06:05Z</time>
      </trkpt>
      <trkpt lat="42.408005000" lon="-2.443945000">
        <ele>446.50</ele>
        <time>2014-11-01T11:06:06Z</time>
      </trkpt>
      <trkpt lat="42.408005000" lon="-2.443945000">
        <ele>446.50</ele>
        <time>2014-11-01T11:06:07Z</time>
      </trkpt>
      <trkpt lat="42.408004000" lon="-2.443945000">
        <ele>446.60</ele>
        <time>2014-11-01T11:06:08Z</time>
      </trkpt>
      <trkpt lat="42.408003000" lon="-2.443945000">
        <ele>446.70</ele>
        <time>2014-11-01T11:06:09Z</time>
      </trkpt>
      <trkpt lat="42.408002000" lon="-2.443945000">
        <ele>446.70</ele>
        <time>2014-11-01T11:06:10Z</time>
      </trkpt>
      <trkpt lat="42.408001000" lon="-2.443945000">
        <ele>446.80</ele>
        <time>2014-11-01T11:06:11Z</time>
      </trkpt>
      <trkpt lat="42.408000000" lon="-2.443946000">
        <ele>446.70</ele>
        <time>2014-11-01T11:06:12Z</time>
      </trkpt>
      <trkpt lat="42.408000000" lon="-2.443946000">
        <ele>446.60</ele>
        <time>2014-11-01T11:06:13Z</time>
      </trkpt>
      <trkpt lat="42.407998000" lon="-2.443947000">
        <ele>446.50</ele>
        <time>2014-11-01T11:06:14Z</time>
      </trkpt>
      <trkpt lat="42.407996000" lon="-2.443948000">
        <ele>446.40</ele>
        <time>2014-11-01T11:06:15Z</time>
      </trkpt>
      <trkpt lat="42.407995000" lon="-2.443948000">
        <ele>446.50</ele>
        <time>2014-11-01T11:06:16Z</time>
      </trkpt>
      <trkpt lat="42.407994000" lon="-2.443948000">
        <ele>446.50</ele>
        <time>2014-11-01T11:06:17Z</time>
      </trkpt>
      <trkpt lat="42.407993000" lon="-2.443948000">
        <ele>446.60</ele>
        <time>2014-11-01T11:06:18Z</time>
      </trkpt>
      <trkpt lat="42.407992000" lon="-2.443948000">
        <ele>446.60</ele>
        <time>2014-11-01T11:06:19Z</time>
      </trkpt>
      <trkpt lat="42.407991000" lon="-2.443948000">
        <ele>446.70</ele>
        <time>2014-11-01T11:06:20Z</time>
      </trkpt>
      <trkpt lat="42.407990000" lon="-2.443948000">
        <ele>446.70</ele>
        <time>2014-11-01T11:06:21Z</time>
      </trkpt>
      <trkpt lat="42.407989000" lon="-2.443949000">
        <ele>446.70</ele>
        <time>2014-11-01T11:06:22Z</time>
      </trkpt>
      <trkpt lat="42.407989000" lon="-2.443950000">
        <ele>446.70</ele>
        <time>2014-11-01T11:06:23Z</time>
      </trkpt>
      <trkpt lat="42.407989000" lon="-2.443950000">
        <ele>446.60</ele>
        <time>2014-11-01T11:06:24Z</time>
      </trkpt>
      <trkpt lat="42.407988000" lon="-2.443950000">
        <ele>446.60</ele>
        <time>2014-11-01T11:06:25Z</time>
      </trkpt>
      <trkpt lat="42.407987000" lon="-2.443949000">
        <ele>446.50</ele>
        <time>2014-11-01T11:06:26Z</time>
      </trkpt>
      <trkpt lat="42.407989000" lon="-2.443948000">
        <ele>446.40</ele>
        <time>2014-11-01T11:06:27Z</time>
      </trkpt>
      <trkpt lat="42.407993000" lon="-2.443951000">
        <ele>446.30</ele>
        <time>2014-11-01T11:06:28Z</time>
      </trkpt>
      <trkpt lat="42.407998000" lon="-2.443956000">
        <ele>446.30</ele>
        <time>2014-11-01T11:06:29Z</time>
      </trkpt>
      <trkpt lat="42.408016000" lon="-2.443963000">
        <ele>446.60</ele>
        <time>2014-11-01T11:06:31Z</time>
      </trkpt>
      <trkpt lat="42.408030000" lon="-2.443958000">
        <ele>446.70</ele>
        <time>2014-11-01T11:06:32Z</time>
      </trkpt>
      <trkpt lat="42.408041000" lon="-2.443949000">
        <ele>446.70</ele>
        <time>2014-11-01T11:06:33Z</time>
      </trkpt>
      <trkpt lat="42.408062000" lon="-2.443936000">
        <ele>446.40</ele>
        <time>2014-11-01T11:06:34Z</time>
      </trkpt>
      <trkpt lat="42.408079000" lon="-2.443922000">
        <ele>446.20</ele>
        <time>2014-11-01T11:06:35Z</time>
      </trkpt>
      <trkpt lat="42.408097000" lon="-2.443907000">
        <ele>446.00</ele>
        <time>2014-11-01T11:06:36Z</time>
      </trkpt>
      <trkpt lat="42.408119000" lon="-2.443890000">
        <ele>445.90</ele>
        <time>2014-11-01T11:06:37Z</time>
      </trkpt>
      <trkpt lat="42.408144000" lon="-2.443872000">
        <ele>446.00</ele>
        <time>2014-11-01T11:06:38Z</time>
      </trkpt>
      <trkpt lat="42.408174000" lon="-2.443854000">
        <ele>446.00</ele>
        <time>2014-11-01T11:06:39Z</time>
      </trkpt>
      <trkpt lat="42.408208000" lon="-2.443840000">
        <ele>446.10</ele>
        <time>2014-11-01T11:06:40Z</time>
      </trkpt>
      <trkpt lat="42.408243000" lon="-2.443828000">
        <ele>446.10</ele>
        <time>2014-11-01T11:06:41Z</time>
      </trkpt>
      <trkpt lat="42.408279000" lon="-2.443817000">
        <ele>446.20</ele>
        <time>2014-11-01T11:06:42Z</time>
      </trkpt>
      <trkpt lat="42.408313000" lon="-2.443803000">
        <ele>446.20</ele>
        <time>2014-11-01T11:06:43Z</time>
      </trkpt>
      <trkpt lat="42.408350000" lon="-2.443795000">
        <ele>446.10</ele>
        <time>2014-11-01T11:06:44Z</time>
      </trkpt>
      <trkpt lat="42.408388000" lon="-2.443784000">
        <ele>446.00</ele>
        <time>2014-11-01T11:06:45Z</time>
      </trkpt>
      <trkpt lat="42.408424000" lon="-2.443771000">
        <ele>446.00</ele>
        <time>2014-11-01T11:06:46Z</time>
      </trkpt>
      <trkpt lat="42.408456000" lon="-2.443753000">
        <ele>446.10</ele>
        <time>2014-11-01T11:06:47Z</time>
      </trkpt>
      <trkpt lat="42.408483000" lon="-2.443742000">
        <ele>446.10</ele>
        <time>2014-11-01T11:06:48Z</time>
      </trkpt>
      <trkpt lat="42.408503000" lon="-2.443726000">
        <ele>446.20</ele>
        <time>2014-11-01T11:06:49Z</time>
      </trkpt>
      <trkpt lat="42.408521000" lon="-2.443715000">
        <ele>446.20</ele>
        <time>2014-11-01T11:06:50Z</time>
      </trkpt>
      <trkpt lat="42.408540000" lon="-2.443707000">
        <ele>446.30</ele>
        <time>2014-11-01T11:06:51Z</time>
      </trkpt>
      <trkpt lat="42.408563000" lon="-2.443697000">
        <ele>446.30</ele>
        <time>2014-11-01T11:06:52Z</time>
      </trkpt>
      <trkpt lat="42.408582000" lon="-2.443678000">
        <ele>446.30</ele>
        <time>2014-11-01T11:06:53Z</time>
      </trkpt>
      <trkpt lat="42.408609000" lon="-2.443659000">
        <ele>446.30</ele>
        <time>2014-11-01T11:06:54Z</time>
      </trkpt>
      <trkpt lat="42.408637000" lon="-2.443636000">
        <ele>446.40</ele>
        <time>2014-11-01T11:06:55Z</time>
      </trkpt>
      <trkpt lat="42.408672000" lon="-2.443617000">
        <ele>446.30</ele>
        <time>2014-11-01T11:06:56Z</time>
      </trkpt>
      <trkpt lat="42.408711000" lon="-2.443595000">
        <ele>446.20</ele>
        <time>2014-11-01T11:06:57Z</time>
      </trkpt>
      <trkpt lat="42.408755000" lon="-2.443570000">
        <ele>446.00</ele>
        <time>2014-11-01T11:06:58Z</time>
      </trkpt>
      <trkpt lat="42.408803000" lon="-2.443536000">
        <ele>445.90</ele>
        <time>2014-11-01T11:06:59Z</time>
      </trkpt>
      <trkpt lat="42.408858000" lon="-2.443504000">
        <ele>445.80</ele>
        <time>2014-11-01T11:07:00Z</time>
      </trkpt>
      <trkpt lat="42.408915000" lon="-2.443469000">
        <ele>445.70</ele>
        <time>2014-11-01T11:07:01Z</time>
      </trkpt>
      <trkpt lat="42.408975000" lon="-2.443435000">
        <ele>445.70</ele>
        <time>2014-11-01T11:07:02Z</time>
      </trkpt>
      <trkpt lat="42.409032000" lon="-2.443402000">
        <ele>445.70</ele>
        <time>2014-11-01T11:07:03Z</time>
      </trkpt>
      <trkpt lat="42.409091000" lon="-2.443369000">
        <ele>445.70</ele>
        <time>2014-11-01T11:07:04Z</time>
      </trkpt>
      <trkpt lat="42.409146000" lon="-2.443335000">
        <ele>445.70</ele>
        <time>2014-11-01T11:07:05Z</time>
      </trkpt>
      <trkpt lat="42.409202000" lon="-2.443300000">
        <ele>445.60</ele>
        <time>2014-11-01T11:07:06Z</time>
      </trkpt>
      <trkpt lat="42.409263000" lon="-2.443267000">
        <ele>445.50</ele>
        <time>2014-11-01T11:07:07Z</time>
      </trkpt>
      <trkpt lat="42.409321000" lon="-2.443236000">
        <ele>445.40</ele>
        <time>2014-11-01T11:07:08Z</time>
      </trkpt>
      <trkpt lat="42.409381000" lon="-2.443209000">
        <ele>445.40</ele>
        <time>2014-11-01T11:07:09Z</time>
      </trkpt>
      <trkpt lat="42.409439000" lon="-2.443184000">
        <ele>445.10</ele>
        <time>2014-11-01T11:07:10Z</time>
      </trkpt>
      <trkpt lat="42.409497000" lon="-2.443158000">
        <ele>444.80</ele>
        <time>2014-11-01T11:07:11Z</time>
      </trkpt>
      <trkpt lat="42.409559000" lon="-2.443136000">
        <ele>444.70</ele>
        <time>2014-11-01T11:07:12Z</time>
      </trkpt>
      <trkpt lat="42.409618000" lon="-2.443123000">
        <ele>444.60</ele>
        <time>2014-11-01T11:07:13Z</time>
      </trkpt>
      <trkpt lat="42.409677000" lon="-2.443111000">
        <ele>444.50</ele>
        <time>2014-11-01T11:07:14Z</time>
      </trkpt>
      <trkpt lat="42.409736000" lon="-2.443100000">
        <ele>444.40</ele>
        <time>2014-11-01T11:07:15Z</time>
      </trkpt>
      <trkpt lat="42.409796000" lon="-2.443090000">
        <ele>444.30</ele>
        <time>2014-11-01T11:07:16Z</time>
      </trkpt>
      <trkpt lat="42.409853000" lon="-2.443080000">
        <ele>444.30</ele>
        <time>2014-11-01T11:07:17Z</time>
      </trkpt>
      <trkpt lat="42.409908000" lon="-2.443071000">
        <ele>443.90</ele>
        <time>2014-11-01T11:07:18Z</time>
      </trkpt>
      <trkpt lat="42.409963000" lon="-2.443062000">
        <ele>443.60</ele>
        <time>2014-11-01T11:07:19Z</time>
      </trkpt>
      <trkpt lat="42.410016000" lon="-2.443052000">
        <ele>443.40</ele>
        <time>2014-11-01T11:07:20Z</time>
      </trkpt>
      <trkpt lat="42.410067000" lon="-2.443037000">
        <ele>443.30</ele>
        <time>2014-11-01T11:07:21Z</time>
      </trkpt>
      <trkpt lat="42.410113000" lon="-2.443019000">
        <ele>443.20</ele>
        <time>2014-11-01T11:07:22Z</time>
      </trkpt>
      <trkpt lat="42.410159000" lon="-2.442998000">
        <ele>443.10</ele>
        <time>2014-11-01T11:07:23Z</time>
      </trkpt>
      <trkpt lat="42.410204000" lon="-2.442979000">
        <ele>443.00</ele>
        <time>2014-11-01T11:07:24Z</time>
      </trkpt>
      <trkpt lat="42.410247000" lon="-2.442965000">
        <ele>443.00</ele>
        <time>2014-11-01T11:07:25Z</time>
      </trkpt>
      <trkpt lat="42.410289000" lon="-2.442955000">
        <ele>443.00</ele>
        <time>2014-11-01T11:07:26Z</time>
      </trkpt>
      <trkpt lat="42.410332000" lon="-2.442947000">
        <ele>443.00</ele>
        <time>2014-11-01T11:07:27Z</time>
      </trkpt>
      <trkpt lat="42.410377000" lon="-2.442944000">
        <ele>442.90</ele>
        <time>2014-11-01T11:07:28Z</time>
      </trkpt>
      <trkpt lat="42.410423000" lon="-2.442943000">
        <ele>442.90</ele>
        <time>2014-11-01T11:07:29Z</time>
      </trkpt>
      <trkpt lat="42.410469000" lon="-2.442949000">
        <ele>443.00</ele>
        <time>2014-11-01T11:07:30Z</time>
      </trkpt>
      <trkpt lat="42.410557000" lon="-2.442961000">
        <ele>443.30</ele>
        <time>2014-11-01T11:07:32Z</time>
      </trkpt>
      <trkpt lat="42.410596000" lon="-2.442969000">
        <ele>443.50</ele>
        <time>2014-11-01T11:07:33Z</time>
      </trkpt>
      <trkpt lat="42.410632000" lon="-2.442982000">
        <ele>443.50</ele>
        <time>2014-11-01T11:07:34Z</time>
      </trkpt>
      <trkpt lat="42.410663000" lon="-2.442995000">
        <ele>443.50</ele>
        <time>2014-11-01T11:07:35Z</time>
      </trkpt>
      <trkpt lat="42.410690000" lon="-2.443009000">
        <ele>443.50</ele>
        <time>2014-11-01T11:07:36Z</time>
      </trkpt>
      <trkpt lat="42.410716000" lon="-2.443019000">
        <ele>443.40</ele>
        <time>2014-11-01T11:07:37Z</time>
      </trkpt>
      <trkpt lat="42.410740000" lon="-2.443030000">
        <ele>443.40</ele>
        <time>2014-11-01T11:07:38Z</time>
      </trkpt>
      <trkpt lat="42.410764000" lon="-2.443040000">
        <ele>443.30</ele>
        <time>2014-11-01T11:07:39Z</time>
      </trkpt>
      <trkpt lat="42.410784000" lon="-2.443048000">
        <ele>443.30</ele>
        <time>2014-11-01T11:07:40Z</time>
      </trkpt>
      <trkpt lat="42.410797000" lon="-2.443059000">
        <ele>443.20</ele>
        <time>2014-11-01T11:07:41Z</time>
      </trkpt>
      <trkpt lat="42.410799000" lon="-2.443062000">
        <ele>443.20</ele>
        <time>2014-11-01T11:07:42Z</time>
      </trkpt>
      <trkpt lat="42.410803000" lon="-2.443052000">
        <ele>443.20</ele>
        <time>2014-11-01T11:07:43Z</time>
      </trkpt>
      <trkpt lat="42.410798000" lon="-2.443036000">
        <ele>443.20</ele>
        <time>2014-11-01T11:07:44Z</time>
      </trkpt>
      <trkpt lat="42.410787000" lon="-2.443027000">
        <ele>443.20</ele>
        <time>2014-11-01T11:07:45Z</time>
      </trkpt>
      <trkpt lat="42.410775000" lon="-2.443016000">
        <ele>443.20</ele>
        <time>2014-11-01T11:07:46Z</time>
      </trkpt>
      <trkpt lat="42.410757000" lon="-2.443007000">
        <ele>443.20</ele>
        <time>2014-11-01T11:07:47Z</time>
      </trkpt>
      <trkpt lat="42.410737000" lon="-2.443000000">
        <ele>443.20</ele>
        <time>2014-11-01T11:07:48Z</time>
      </trkpt>
      <trkpt lat="42.410715000" lon="-2.442995000">
        <ele>443.20</ele>
        <time>2014-11-01T11:07:49Z</time>
      </trkpt>
      <trkpt lat="42.410689000" lon="-2.442998000">
        <ele>442.90</ele>
        <time>2014-11-01T11:07:50Z</time>
      </trkpt>
      <trkpt lat="42.410663000" lon="-2.442994000">
        <ele>442.70</ele>
        <time>2014-11-01T11:07:51Z</time>
      </trkpt>
      <trkpt lat="42.410638000" lon="-2.442977000">
        <ele>442.40</ele>
        <time>2014-11-01T11:07:52Z</time>
      </trkpt>
      <trkpt lat="42.410617000" lon="-2.442959000">
        <ele>442.20</ele>
        <time>2014-11-01T11:07:53Z</time>
      </trkpt>
      <trkpt lat="42.410603000" lon="-2.442941000">
        <ele>442.10</ele>
        <time>2014-11-01T11:07:54Z</time>
      </trkpt>
      <trkpt lat="42.410591000" lon="-2.442929000">
        <ele>441.90</ele>
        <time>2014-11-01T11:07:55Z</time>
      </trkpt>
      <trkpt lat="42.410581000" lon="-2.442918000">
        <ele>442.10</ele>
        <time>2014-11-01T11:07:56Z</time>
      </trkpt>
      <trkpt lat="42.410572000" lon="-2.442903000">
        <ele>442.10</ele>
        <time>2014-11-01T11:07:57Z</time>
      </trkpt>
      <trkpt lat="42.410565000" lon="-2.442884000">
        <ele>442.20</ele>
        <time>2014-11-01T11:07:58Z</time>
      </trkpt>
      <trkpt lat="42.410559000" lon="-2.442863000">
        <ele>442.20</ele>
        <time>2014-11-01T11:07:59Z</time>
      </trkpt>
      <trkpt lat="42.410558000" lon="-2.442833000">
        <ele>442.30</ele>
        <time>2014-11-01T11:08:00Z</time>
      </trkpt>
      <trkpt lat="42.410559000" lon="-2.442807000">
        <ele>442.30</ele>
        <time>2014-11-01T11:08:01Z</time>
      </trkpt>
      <trkpt lat="42.410563000" lon="-2.442784000">
        <ele>442.20</ele>
        <time>2014-11-01T11:08:02Z</time>
      </trkpt>
      <trkpt lat="42.410569000" lon="-2.442762000">
        <ele>442.10</ele>
        <time>2014-11-01T11:08:03Z</time>
      </trkpt>
      <trkpt lat="42.410581000" lon="-2.442764000">
        <ele>442.00</ele>
        <time>2014-11-01T11:08:04Z</time>
      </trkpt>
      <trkpt lat="42.410581000" lon="-2.442767000">
        <ele>442.00</ele>
        <time>2014-11-01T11:08:05Z</time>
      </trkpt>
      <trkpt lat="42.410580000" lon="-2.442770000">
        <ele>442.00</ele>
        <time>2014-11-01T11:08:06Z</time>
      </trkpt>
      <trkpt lat="42.410580000" lon="-2.442763000">
        <ele>441.90</ele>
        <time>2014-11-01T11:08:07Z</time>
      </trkpt>
      <trkpt lat="42.410590000" lon="-2.442759000">
        <ele>441.90</ele>
        <time>2014-11-01T11:08:08Z</time>
      </trkpt>
      <trkpt lat="42.410596000" lon="-2.442761000">
        <ele>441.90</ele>
        <time>2014-11-01T11:08:09Z</time>
      </trkpt>
      <trkpt lat="42.410599000" lon="-2.442766000">
        <ele>441.90</ele>
        <time>2014-11-01T11:08:10Z</time>
      </trkpt>
      <trkpt lat="42.410602000" lon="-2.442767000">
        <ele>441.90</ele>
        <time>2014-11-01T11:08:11Z</time>
      </trkpt>
      <trkpt lat="42.410602000" lon="-2.442766000">
        <ele>441.80</ele>
        <time>2014-11-01T11:08:12Z</time>
      </trkpt>
      <trkpt lat="42.410603000" lon="-2.442766000">
        <ele>441.80</ele>
        <time>2014-11-01T11:08:13Z</time>
      </trkpt>
      <trkpt lat="42.410603000" lon="-2.442765000">
        <ele>441.70</ele>
        <time>2014-11-01T11:08:14Z</time>
      </trkpt>
      <trkpt lat="42.410604000" lon="-2.442763000">
        <ele>441.60</ele>
        <time>2014-11-01T11:08:15Z</time>
      </trkpt>
      <trkpt lat="42.410605000" lon="-2.442762000">
        <ele>441.50</ele>
        <time>2014-11-01T11:08:16Z</time>
      </trkpt>
      <trkpt lat="42.410606000" lon="-2.442759000">
        <ele>441.40</ele>
        <time>2014-11-01T11:08:17Z</time>
      </trkpt>
      <trkpt lat="42.410607000" lon="-2.442758000">
        <ele>441.40</ele>
        <time>2014-11-01T11:08:18Z</time>
      </trkpt>
      <trkpt lat="42.410607000" lon="-2.442761000">
        <ele>441.40</ele>
        <time>2014-11-01T11:08:19Z</time>
      </trkpt>
      <trkpt lat="42.410607000" lon="-2.442763000">
        <ele>441.30</ele>
        <time>2014-11-01T11:08:20Z</time>
      </trkpt>
      <trkpt lat="42.410607000" lon="-2.442764000">
        <ele>441.20</ele>
        <time>2014-11-01T11:08:21Z</time>
      </trkpt>
      <trkpt lat="42.410610000" lon="-2.442766000">
        <ele>441.30</ele>
        <time>2014-11-01T11:08:22Z</time>
      </trkpt>
      <trkpt lat="42.410611000" lon="-2.442767000">
        <ele>441.30</ele>
        <time>2014-11-01T11:08:23Z</time>
      </trkpt>
      <trkpt lat="42.410612000" lon="-2.442767000">
        <ele>441.30</ele>
        <time>2014-11-01T11:08:24Z</time>
      </trkpt>
      <trkpt lat="42.410613000" lon="-2.442768000">
        <ele>441.30</ele>
        <time>2014-11-01T11:08:25Z</time>
      </trkpt>
      <trkpt lat="42.410613000" lon="-2.442769000">
        <ele>441.50</ele>
        <time>2014-11-01T11:08:26Z</time>
      </trkpt>
      <trkpt lat="42.410614000" lon="-2.442769000">
        <ele>441.70</ele>
        <time>2014-11-01T11:08:27Z</time>
      </trkpt>
      <trkpt lat="42.410615000" lon="-2.442769000">
        <ele>441.80</ele>
        <time>2014-11-01T11:08:28Z</time>
      </trkpt>
      <trkpt lat="42.410617000" lon="-2.442769000">
        <ele>441.90</ele>
        <time>2014-11-01T11:08:29Z</time>
      </trkpt>
      <trkpt lat="42.410617000" lon="-2.442770000">
        <ele>441.90</ele>
        <time>2014-11-01T11:08:30Z</time>
      </trkpt>
      <trkpt lat="42.410617000" lon="-2.442771000">
        <ele>442.00</ele>
        <time>2014-11-01T11:08:31Z</time>
      </trkpt>
      <trkpt lat="42.410616000" lon="-2.442775000">
        <ele>441.70</ele>
        <time>2014-11-01T11:08:33Z</time>
      </trkpt>
      <trkpt lat="42.410615000" lon="-2.442775000">
        <ele>441.70</ele>
        <time>2014-11-01T11:08:34Z</time>
      </trkpt>
      <trkpt lat="42.410615000" lon="-2.442775000">
        <ele>441.80</ele>
        <time>2014-11-01T11:08:35Z</time>
      </trkpt>
      <trkpt lat="42.410614000" lon="-2.442775000">
        <ele>441.70</ele>
        <time>2014-11-01T11:08:36Z</time>
      </trkpt>
      <trkpt lat="42.410614000" lon="-2.442775000">
        <ele>441.60</ele>
        <time>2014-11-01T11:08:37Z</time>
      </trkpt>
      <trkpt lat="42.410614000" lon="-2.442775000">
        <ele>441.60</ele>
        <time>2014-11-01T11:08:38Z</time>
      </trkpt>
      <trkpt lat="42.410614000" lon="-2.442775000">
        <ele>441.70</ele>
        <time>2014-11-01T11:08:39Z</time>
      </trkpt>
      <trkpt lat="42.410613000" lon="-2.442775000">
        <ele>441.70</ele>
        <time>2014-11-01T11:08:40Z</time>
      </trkpt>
      <trkpt lat="42.410612000" lon="-2.442775000">
        <ele>441.80</ele>
        <time>2014-11-01T11:08:41Z</time>
      </trkpt>
      <trkpt lat="42.410611000" lon="-2.442773000">
        <ele>441.80</ele>
        <time>2014-11-01T11:08:42Z</time>
      </trkpt>
      <trkpt lat="42.410610000" lon="-2.442772000">
        <ele>441.80</ele>
        <time>2014-11-01T11:08:43Z</time>
      </trkpt>
      <trkpt lat="42.410609000" lon="-2.442772000">
        <ele>441.60</ele>
        <time>2014-11-01T11:08:44Z</time>
      </trkpt>
      <trkpt lat="42.410609000" lon="-2.442772000">
        <ele>441.50</ele>
        <time>2014-11-01T11:08:45Z</time>
      </trkpt>
      <trkpt lat="42.410608000" lon="-2.442771000">
        <ele>441.40</ele>
        <time>2014-11-01T11:08:46Z</time>
      </trkpt>
      <trkpt lat="42.410607000" lon="-2.442769000">
        <ele>441.30</ele>
        <time>2014-11-01T11:08:47Z</time>
      </trkpt>
      <trkpt lat="42.410606000" lon="-2.442768000">
        <ele>441.30</ele>
        <time>2014-11-01T11:08:48Z</time>
      </trkpt>
      <trkpt lat="42.410607000" lon="-2.442768000">
        <ele>441.30</ele>
        <time>2014-11-01T11:08:49Z</time>
      </trkpt>
      <trkpt lat="42.410608000" lon="-2.442768000">
        <ele>441.50</ele>
        <time>2014-11-01T11:08:50Z</time>
      </trkpt>
      <trkpt lat="42.410608000" lon="-2.442768000">
        <ele>441.70</ele>
        <time>2014-11-01T11:08:51Z</time>
      </trkpt>
      <trkpt lat="42.410608000" lon="-2.442767000">
        <ele>441.80</ele>
        <time>2014-11-01T11:08:52Z</time>
      </trkpt>
      <trkpt lat="42.410608000" lon="-2.442768000">
        <ele>441.90</ele>
        <time>2014-11-01T11:08:53Z</time>
      </trkpt>
      <trkpt lat="42.410609000" lon="-2.442768000">
        <ele>441.80</ele>
        <time>2014-11-01T11:08:54Z</time>
      </trkpt>
      <trkpt lat="42.410610000" lon="-2.442769000">
        <ele>441.70</ele>
        <time>2014-11-01T11:08:55Z</time>
      </trkpt>
      <trkpt lat="42.410611000" lon="-2.442769000">
        <ele>441.70</ele>
        <time>2014-11-01T11:08:56Z</time>
      </trkpt>
      <trkpt lat="42.410612000" lon="-2.442769000">
        <ele>441.70</ele>
        <time>2014-11-01T11:08:57Z</time>
      </trkpt>
      <trkpt lat="42.410611000" lon="-2.442768000">
        <ele>441.70</ele>
        <time>2014-11-01T11:08:58Z</time>
      </trkpt>
      <trkpt lat="42.410610000" lon="-2.442766000">
        <ele>441.60</ele>
        <time>2014-11-01T11:08:59Z</time>
      </trkpt>
      <trkpt lat="42.410608000" lon="-2.442766000">
        <ele>441.60</ele>
        <time>2014-11-01T11:09:00Z</time>
      </trkpt>
      <trkpt lat="42.410607000" lon="-2.442766000">
        <ele>441.60</ele>
        <time>2014-11-01T11:09:01Z</time>
      </trkpt>
      <trkpt lat="42.410607000" lon="-2.442765000">
        <ele>441.70</ele>
        <time>2014-11-01T11:09:02Z</time>
      </trkpt>
      <trkpt lat="42.410607000" lon="-2.442765000">
        <ele>441.70</ele>
        <time>2014-11-01T11:09:03Z</time>
      </trkpt>
      <trkpt lat="42.410606000" lon="-2.442764000">
        <ele>441.60</ele>
        <time>2014-11-01T11:09:04Z</time>
      </trkpt>
      <trkpt lat="42.410607000" lon="-2.442764000">
        <ele>441.40</ele>
        <time>2014-11-01T11:09:05Z</time>
      </trkpt>
      <trkpt lat="42.410609000" lon="-2.442762000">
        <ele>441.50</ele>
        <time>2014-11-01T11:09:06Z</time>
      </trkpt>
      <trkpt lat="42.410611000" lon="-2.442761000">
        <ele>441.60</ele>
        <time>2014-11-01T11:09:07Z</time>
      </trkpt>
      <trkpt lat="42.410613000" lon="-2.442760000">
        <ele>441.70</ele>
        <time>2014-11-01T11:09:08Z</time>
      </trkpt>
      <trkpt lat="42.410614000" lon="-2.442758000">
        <ele>441.70</ele>
        <time>2014-11-01T11:09:09Z</time>
      </trkpt>
      <trkpt lat="42.410618000" lon="-2.442762000">
        <ele>441.80</ele>
        <time>2014-11-01T11:09:10Z</time>
      </trkpt>
      <trkpt lat="42.410619000" lon="-2.442759000">
        <ele>441.80</ele>
        <time>2014-11-01T11:09:11Z</time>
      </trkpt>
      <trkpt lat="42.410619000" lon="-2.442750000">
        <ele>441.90</ele>
        <time>2014-11-01T11:09:12Z</time>
      </trkpt>
      <trkpt lat="42.410615000" lon="-2.442745000">
        <ele>441.90</ele>
        <time>2014-11-01T11:09:13Z</time>
      </trkpt>
      <trkpt lat="42.410614000" lon="-2.442742000">
        <ele>441.90</ele>
        <time>2014-11-01T11:09:14Z</time>
      </trkpt>
      <trkpt lat="42.410611000" lon="-2.442740000">
        <ele>441.90</ele>
        <time>2014-11-01T11:09:15Z</time>
      </trkpt>
      <trkpt lat="42.410608000" lon="-2.442737000">
        <ele>441.90</ele>
        <time>2014-11-01T11:09:16Z</time>
      </trkpt>
      <trkpt lat="42.410608000" lon="-2.442738000">
        <ele>441.90</ele>
        <time>2014-11-01T11:09:17Z</time>
      </trkpt>
      <trkpt lat="42.410606000" lon="-2.442739000">
        <ele>441.90</ele>
        <time>2014-11-01T11:09:18Z</time>
      </trkpt>
      <trkpt lat="42.410607000" lon="-2.442741000">
        <ele>441.90</ele>
        <time>2014-11-01T11:09:19Z</time>
      </trkpt>
      <trkpt lat="42.410603000" lon="-2.442742000">
        <ele>441.90</ele>
        <time>2014-11-01T11:09:20Z</time>
      </trkpt>
      <trkpt lat="42.410600000" lon="-2.442740000">
        <ele>441.90</ele>
        <time>2014-11-01T11:09:21Z</time>
      </trkpt>
      <trkpt lat="42.410597000" lon="-2.442739000">
        <ele>441.90</ele>
        <time>2014-11-01T11:09:22Z</time>
      </trkpt>
      <trkpt lat="42.410595000" lon="-2.442740000">
        <ele>441.90</ele>
        <time>2014-11-01T11:09:23Z</time>
      </trkpt>
      <trkpt lat="42.410593000" lon="-2.442740000">
        <ele>441.90</ele>
        <time>2014-11-01T11:09:24Z</time>
      </trkpt>
      <trkpt lat="42.410592000" lon="-2.442740000">
        <ele>441.80</ele>
        <time>2014-11-01T11:09:25Z</time>
      </trkpt>
      <trkpt lat="42.410592000" lon="-2.442740000">
        <ele>441.80</ele>
        <time>2014-11-01T11:09:26Z</time>
      </trkpt>
      <trkpt lat="42.410592000" lon="-2.442740000">
        <ele>441.80</ele>
        <time>2014-11-01T11:09:27Z</time>
      </trkpt>
      <trkpt lat="42.410593000" lon="-2.442740000">
        <ele>441.70</ele>
        <time>2014-11-01T11:09:28Z</time>
      </trkpt>
      <trkpt lat="42.410594000" lon="-2.442738000">
        <ele>441.70</ele>
        <time>2014-11-01T11:09:29Z</time>
      </trkpt>
      <trkpt lat="42.410594000" lon="-2.442737000">
        <ele>441.70</ele>
        <time>2014-11-01T11:09:30Z</time>
      </trkpt>
      <trkpt lat="42.410594000" lon="-2.442736000">
        <ele>441.70</ele>
        <time>2014-11-01T11:09:31Z</time>
      </trkpt>
      <trkpt lat="42.410592000" lon="-2.442736000">
        <ele>441.80</ele>
        <time>2014-11-01T11:09:32Z</time>
      </trkpt>
      <trkpt lat="42.410589000" lon="-2.442735000">
        <ele>441.90</ele>
        <time>2014-11-01T11:09:34Z</time>
      </trkpt>
      <trkpt lat="42.410589000" lon="-2.442736000">
        <ele>442.00</ele>
        <time>2014-11-01T11:09:35Z</time>
      </trkpt>
      <trkpt lat="42.410588000" lon="-2.442736000">
        <ele>442.00</ele>
        <time>2014-11-01T11:09:36Z</time>
      </trkpt>
      <trkpt lat="42.410588000" lon="-2.442735000">
        <ele>442.10</ele>
        <time>2014-11-01T11:09:37Z</time>
      </trkpt>
      <trkpt lat="42.410588000" lon="-2.442735000">
        <ele>442.10</ele>
        <time>2014-11-01T11:09:38Z</time>
      </trkpt>
      <trkpt lat="42.410589000" lon="-2.442734000">
        <ele>442.10</ele>
        <time>2014-11-01T11:09:39Z</time>
      </trkpt>
      <trkpt lat="42.410590000" lon="-2.442732000">
        <ele>441.90</ele>
        <time>2014-11-01T11:09:40Z</time>
      </trkpt>
      <trkpt lat="42.410591000" lon="-2.442731000">
        <ele>441.70</ele>
        <time>2014-11-01T11:09:41Z</time>
      </trkpt>
      <trkpt lat="42.410592000" lon="-2.442730000">
        <ele>441.60</ele>
        <time>2014-11-01T11:09:42Z</time>
      </trkpt>
      <trkpt lat="42.410594000" lon="-2.442730000">
        <ele>441.50</ele>
        <time>2014-11-01T11:09:43Z</time>
      </trkpt>
      <trkpt lat="42.410595000" lon="-2.442730000">
        <ele>441.50</ele>
        <time>2014-11-01T11:09:44Z</time>
      </trkpt>
      <trkpt lat="42.410595000" lon="-2.442730000">
        <ele>441.50</ele>
        <time>2014-11-01T11:09:45Z</time>
      </trkpt>
      <trkpt lat="42.410595000" lon="-2.442730000">
        <ele>441.40</ele>
        <time>2014-11-01T11:09:46Z</time>
      </trkpt>
      <trkpt lat="42.410594000" lon="-2.442729000">
        <ele>441.40</ele>
        <time>2014-11-01T11:09:47Z</time>
      </trkpt>
      <trkpt lat="42.410594000" lon="-2.442729000">
        <ele>441.40</ele>
        <time>2014-11-01T11:09:48Z</time>
      </trkpt>
      <trkpt lat="42.410594000" lon="-2.442729000">
        <ele>441.40</ele>
        <time>2014-11-01T11:09:49Z</time>
      </trkpt>
      <trkpt lat="42.410594000" lon="-2.442729000">
        <ele>441.40</ele>
        <time>2014-11-01T11:09:50Z</time>
      </trkpt>
      <trkpt lat="42.410594000" lon="-2.442729000">
        <ele>441.40</ele>
        <time>2014-11-01T11:09:51Z</time>
      </trkpt>
      <trkpt lat="42.410594000" lon="-2.442728000">
        <ele>441.40</ele>
        <time>2014-11-01T11:09:52Z</time>
      </trkpt>
      <trkpt lat="42.410594000" lon="-2.442728000">
        <ele>441.30</ele>
        <time>2014-11-01T11:09:53Z</time>
      </trkpt>
      <trkpt lat="42.410594000" lon="-2.442728000">
        <ele>441.30</ele>
        <time>2014-11-01T11:09:54Z</time>
      </trkpt>
      <trkpt lat="42.410594000" lon="-2.442728000">
        <ele>441.30</ele>
        <time>2014-11-01T11:09:55Z</time>
      </trkpt>
      <trkpt lat="42.410594000" lon="-2.442729000">
        <ele>441.30</ele>
        <time>2014-11-01T11:09:56Z</time>
      </trkpt>
      <trkpt lat="42.410594000" lon="-2.442730000">
        <ele>441.30</ele>
        <time>2014-11-01T11:09:57Z</time>
      </trkpt>
      <trkpt lat="42.410593000" lon="-2.442730000">
        <ele>441.40</ele>
        <time>2014-11-01T11:09:58Z</time>
      </trkpt>
      <trkpt lat="42.410591000" lon="-2.442731000">
        <ele>441.50</ele>
        <time>2014-11-01T11:09:59Z</time>
      </trkpt>
      <trkpt lat="42.410586000" lon="-2.442733000">
        <ele>441.60</ele>
        <time>2014-11-01T11:10:00Z</time>
      </trkpt>
      <trkpt lat="42.410578000" lon="-2.442734000">
        <ele>441.60</ele>
        <time>2014-11-01T11:10:01Z</time>
      </trkpt>
      <trkpt lat="42.410574000" lon="-2.442737000">
        <ele>441.60</ele>
        <time>2014-11-01T11:10:02Z</time>
      </trkpt>
      <trkpt lat="42.410573000" lon="-2.442738000">
        <ele>441.70</ele>
        <time>2014-11-01T11:10:03Z</time>
      </trkpt>
      <trkpt lat="42.410572000" lon="-2.442740000">
        <ele>441.70</ele>
        <time>2014-11-01T11:10:04Z</time>
      </trkpt>
      <trkpt lat="42.410565000" lon="-2.442746000">
        <ele>441.70</ele>
        <time>2014-11-01T11:10:05Z</time>
      </trkpt>
      <trkpt lat="42.410556000" lon="-2.442758000">
        <ele>441.70</ele>
        <time>2014-11-01T11:10:06Z</time>
      </trkpt>
      <trkpt lat="42.410549000" lon="-2.442774000">
        <ele>441.70</ele>
        <time>2014-11-01T11:10:07Z</time>
      </trkpt>
      <trkpt lat="42.410537000" lon="-2.442794000">
        <ele>441.80</ele>
        <time>2014-11-01T11:10:08Z</time>
      </trkpt>
      <trkpt lat="42.410528000" lon="-2.442811000">
        <ele>441.90</ele>
        <time>2014-11-01T11:10:09Z</time>
      </trkpt>
      <trkpt lat="42.410522000" lon="-2.442834000">
        <ele>441.80</ele>
        <time>2014-11-01T11:10:10Z</time>
      </trkpt>
      <trkpt lat="42.410529000" lon="-2.442862000">
        <ele>441.80</ele>
        <time>2014-11-01T11:10:11Z</time>
      </trkpt>
      <trkpt lat="42.410541000" lon="-2.442882000">
        <ele>441.80</ele>
        <time>2014-11-01T11:10:12Z</time>
      </trkpt>
      <trkpt lat="42.410555000" lon="-2.442906000">
        <ele>441.80</ele>
        <time>2014-11-01T11:10:13Z</time>
      </trkpt>
      <trkpt lat="42.410572000" lon="-2.442924000">
        <ele>441.80</ele>
        <time>2014-11-01T11:10:14Z</time>
      </trkpt>
      <trkpt lat="42.410592000" lon="-2.442945000">
        <ele>441.80</ele>
        <time>2014-11-01T11:10:15Z</time>
      </trkpt>
      <trkpt lat="42.410615000" lon="-2.442961000">
        <ele>441.80</ele>
        <time>2014-11-01T11:10:16Z</time>
      </trkpt>
      <trkpt lat="42.410639000" lon="-2.442975000">
        <ele>441.80</ele>
        <time>2014-11-01T11:10:17Z</time>
      </trkpt>
      <trkpt lat="42.410665000" lon="-2.442982000">
        <ele>442.00</ele>
        <time>2014-11-01T11:10:18Z</time>
      </trkpt>
      <trkpt lat="42.410694000" lon="-2.442983000">
        <ele>442.20</ele>
        <time>2014-11-01T11:10:19Z</time>
      </trkpt>
      <trkpt lat="42.410722000" lon="-2.442992000">
        <ele>442.50</ele>
        <time>2014-11-01T11:10:20Z</time>
      </trkpt>
      <trkpt lat="42.410747000" lon="-2.443009000">
        <ele>442.70</ele>
        <time>2014-11-01T11:10:21Z</time>
      </trkpt>
      <trkpt lat="42.410775000" lon="-2.443024000">
        <ele>442.90</ele>
        <time>2014-11-01T11:10:22Z</time>
      </trkpt>
      <trkpt lat="42.410804000" lon="-2.443036000">
        <ele>443.00</ele>
        <time>2014-11-01T11:10:23Z</time>
      </trkpt>
      <trkpt lat="42.410830000" lon="-2.443048000">
        <ele>442.90</ele>
        <time>2014-11-01T11:10:24Z</time>
      </trkpt>
      <trkpt lat="42.410852000" lon="-2.443065000">
        <ele>442.90</ele>
        <time>2014-11-01T11:10:25Z</time>
      </trkpt>
      <trkpt lat="42.410876000" lon="-2.443082000">
        <ele>442.80</ele>
        <time>2014-11-01T11:10:26Z</time>
      </trkpt>
      <trkpt lat="42.410901000" lon="-2.443097000">
        <ele>442.80</ele>
        <time>2014-11-01T11:10:27Z</time>
      </trkpt>
      <trkpt lat="42.410925000" lon="-2.443120000">
        <ele>442.90</ele>
        <time>2014-11-01T11:10:28Z</time>
      </trkpt>
      <trkpt lat="42.410947000" lon="-2.443145000">
        <ele>442.90</ele>
        <time>2014-11-01T11:10:29Z</time>
      </trkpt>
      <trkpt lat="42.410972000" lon="-2.443171000">
        <ele>443.00</ele>
        <time>2014-11-01T11:10:30Z</time>
      </trkpt>
      <trkpt lat="42.410994000" lon="-2.443202000">
        <ele>443.00</ele>
        <time>2014-11-01T11:10:31Z</time>
      </trkpt>
      <trkpt lat="42.411018000" lon="-2.443227000">
        <ele>443.00</ele>
        <time>2014-11-01T11:10:32Z</time>
      </trkpt>
      <trkpt lat="42.411046000" lon="-2.443252000">
        <ele>443.00</ele>
        <time>2014-11-01T11:10:33Z</time>
      </trkpt>
      <trkpt lat="42.411104000" lon="-2.443301000">
        <ele>442.80</ele>
        <time>2014-11-01T11:10:35Z</time>
      </trkpt>
      <trkpt lat="42.411133000" lon="-2.443319000">
        <ele>442.70</ele>
        <time>2014-11-01T11:10:36Z</time>
      </trkpt>
      <trkpt lat="42.411165000" lon="-2.443330000">
        <ele>442.60</ele>
        <time>2014-11-01T11:10:37Z</time>
      </trkpt>
      <trkpt lat="42.411199000" lon="-2.443342000">
        <ele>442.60</ele>
        <time>2014-11-01T11:10:38Z</time>
      </trkpt>
      <trkpt lat="42.411234000" lon="-2.443352000">
        <ele>442.60</ele>
        <time>2014-11-01T11:10:39Z</time>
      </trkpt>
      <trkpt lat="42.411266000" lon="-2.443353000">
        <ele>443.00</ele>
        <time>2014-11-01T11:10:40Z</time>
      </trkpt>
      <trkpt lat="42.411298000" lon="-2.443354000">
        <ele>443.20</ele>
        <time>2014-11-01T11:10:41Z</time>
      </trkpt>
      <trkpt lat="42.411330000" lon="-2.443355000">
        <ele>443.40</ele>
        <time>2014-11-01T11:10:42Z</time>
      </trkpt>
      <trkpt lat="42.411361000" lon="-2.443359000">
        <ele>443.60</ele>
        <time>2014-11-01T11:10:43Z</time>
      </trkpt>
      <trkpt lat="42.411391000" lon="-2.443361000">
        <ele>443.50</ele>
        <time>2014-11-01T11:10:44Z</time>
      </trkpt>
      <trkpt lat="42.411421000" lon="-2.443368000">
        <ele>443.40</ele>
        <time>2014-11-01T11:10:45Z</time>
      </trkpt>
      <trkpt lat="42.411450000" lon="-2.443367000">
        <ele>443.40</ele>
        <time>2014-11-01T11:10:46Z</time>
      </trkpt>
      <trkpt lat="42.411477000" lon="-2.443364000">
        <ele>443.30</ele>
        <time>2014-11-01T11:10:47Z</time>
      </trkpt>
      <trkpt lat="42.411509000" lon="-2.443362000">
        <ele>443.30</ele>
        <time>2014-11-01T11:10:48Z</time>
      </trkpt>
      <trkpt lat="42.411542000" lon="-2.443356000">
        <ele>443.30</ele>
        <time>2014-11-01T11:10:49Z</time>
      </trkpt>
      <trkpt lat="42.411574000" lon="-2.443355000">
        <ele>443.50</ele>
        <time>2014-11-01T11:10:50Z</time>
      </trkpt>
      <trkpt lat="42.411606000" lon="-2.443348000">
        <ele>443.70</ele>
        <time>2014-11-01T11:10:51Z</time>
      </trkpt>
      <trkpt lat="42.411639000" lon="-2.443339000">
        <ele>443.90</ele>
        <time>2014-11-01T11:10:52Z</time>
      </trkpt>
      <trkpt lat="42.411671000" lon="-2.443327000">
        <ele>444.10</ele>
        <time>2014-11-01T11:10:53Z</time>
      </trkpt>
      <trkpt lat="42.411704000" lon="-2.443310000">
        <ele>444.20</ele>
        <time>2014-11-01T11:10:54Z</time>
      </trkpt>
      <trkpt lat="42.411732000" lon="-2.443291000">
        <ele>444.30</ele>
        <time>2014-11-01T11:10:55Z</time>
      </trkpt>
      <trkpt lat="42.411766000" lon="-2.443269000">
        <ele>444.40</ele>
        <time>2014-11-01T11:10:56Z</time>
      </trkpt>
      <trkpt lat="42.411800000" lon="-2.443249000">
        <ele>444.50</ele>
        <time>2014-11-01T11:10:57Z</time>
      </trkpt>
      <trkpt lat="42.411833000" lon="-2.443231000">
        <ele>444.60</ele>
        <time>2014-11-01T11:10:58Z</time>
      </trkpt>
      <trkpt lat="42.411865000" lon="-2.443208000">
        <ele>444.60</ele>
        <time>2014-11-01T11:10:59Z</time>
      </trkpt>
      <trkpt lat="42.411892000" lon="-2.443190000">
        <ele>444.60</ele>
        <time>2014-11-01T11:11:00Z</time>
      </trkpt>
      <trkpt lat="42.411919000" lon="-2.443171000">
        <ele>444.60</ele>
        <time>2014-11-01T11:11:01Z</time>
      </trkpt>
      <trkpt lat="42.411943000" lon="-2.443154000">
        <ele>444.60</ele>
        <time>2014-11-01T11:11:02Z</time>
      </trkpt>
      <trkpt lat="42.411969000" lon="-2.443137000">
        <ele>444.60</ele>
        <time>2014-11-01T11:11:03Z</time>
      </trkpt>
      <trkpt lat="42.411997000" lon="-2.443116000">
        <ele>444.50</ele>
        <time>2014-11-01T11:11:04Z</time>
      </trkpt>
      <trkpt lat="42.412028000" lon="-2.443096000">
        <ele>444.50</ele>
        <time>2014-11-01T11:11:05Z</time>
      </trkpt>
      <trkpt lat="42.412059000" lon="-2.443077000">
        <ele>444.60</ele>
        <time>2014-11-01T11:11:06Z</time>
      </trkpt>
      <trkpt lat="42.412091000" lon="-2.443059000">
        <ele>444.60</ele>
        <time>2014-11-01T11:11:07Z</time>
      </trkpt>
      <trkpt lat="42.412126000" lon="-2.443048000">
        <ele>445.10</ele>
        <time>2014-11-01T11:11:08Z</time>
      </trkpt>
      <trkpt lat="42.412161000" lon="-2.443045000">
        <ele>445.40</ele>
        <time>2014-11-01T11:11:09Z</time>
      </trkpt>
      <trkpt lat="42.412200000" lon="-2.443045000">
        <ele>445.60</ele>
        <time>2014-11-01T11:11:10Z</time>
      </trkpt>
      <trkpt lat="42.412240000" lon="-2.443056000">
        <ele>445.80</ele>
        <time>2014-11-01T11:11:11Z</time>
      </trkpt>
      <trkpt lat="42.412278000" lon="-2.443069000">
        <ele>445.80</ele>
        <time>2014-11-01T11:11:12Z</time>
      </trkpt>
      <trkpt lat="42.412316000" lon="-2.443090000">
        <ele>445.80</ele>
        <time>2014-11-01T11:11:13Z</time>
      </trkpt>
      <trkpt lat="42.412350000" lon="-2.443111000">
        <ele>445.50</ele>
        <time>2014-11-01T11:11:14Z</time>
      </trkpt>
      <trkpt lat="42.412385000" lon="-2.443129000">
        <ele>445.30</ele>
        <time>2014-11-01T11:11:15Z</time>
      </trkpt>
      <trkpt lat="42.412418000" lon="-2.443143000">
        <ele>445.40</ele>
        <time>2014-11-01T11:11:16Z</time>
      </trkpt>
      <trkpt lat="42.412453000" lon="-2.443155000">
        <ele>445.40</ele>
        <time>2014-11-01T11:11:17Z</time>
      </trkpt>
      <trkpt lat="42.412488000" lon="-2.443160000">
        <ele>445.30</ele>
        <time>2014-11-01T11:11:18Z</time>
      </trkpt>
      <trkpt lat="42.412522000" lon="-2.443161000">
        <ele>445.20</ele>
        <time>2014-11-01T11:11:19Z</time>
      </trkpt>
      <trkpt lat="42.412557000" lon="-2.443157000">
        <ele>445.10</ele>
        <time>2014-11-01T11:11:20Z</time>
      </trkpt>
      <trkpt lat="42.412590000" lon="-2.443148000">
        <ele>445.10</ele>
        <time>2014-11-01T11:11:21Z</time>
      </trkpt>
      <trkpt lat="42.412626000" lon="-2.443139000">
        <ele>444.60</ele>
        <time>2014-11-01T11:11:22Z</time>
      </trkpt>
      <trkpt lat="42.412664000" lon="-2.443128000">
        <ele>444.30</ele>
        <time>2014-11-01T11:11:23Z</time>
      </trkpt>
      <trkpt lat="42.412703000" lon="-2.443110000">
        <ele>444.00</ele>
        <time>2014-11-01T11:11:24Z</time>
      </trkpt>
      <trkpt lat="42.412745000" lon="-2.443090000">
        <ele>443.90</ele>
        <time>2014-11-01T11:11:25Z</time>
      </trkpt>
      <trkpt lat="42.412787000" lon="-2.443076000">
        <ele>443.90</ele>
        <time>2014-11-01T11:11:26Z</time>
      </trkpt>
      <trkpt lat="42.412829000" lon="-2.443067000">
        <ele>444.00</ele>
        <time>2014-11-01T11:11:27Z</time>
      </trkpt>
      <trkpt lat="42.412874000" lon="-2.443056000">
        <ele>444.00</ele>
        <time>2014-11-01T11:11:28Z</time>
      </trkpt>
      <trkpt lat="42.412920000" lon="-2.443044000">
        <ele>444.00</ele>
        <time>2014-11-01T11:11:29Z</time>
      </trkpt>
      <trkpt lat="42.412964000" lon="-2.443033000">
        <ele>443.50</ele>
        <time>2014-11-01T11:11:30Z</time>
      </trkpt>
      <trkpt lat="42.413010000" lon="-2.443018000">
        <ele>443.00</ele>
        <time>2014-11-01T11:11:31Z</time>
      </trkpt>
      <trkpt lat="42.413055000" lon="-2.443004000">
        <ele>442.70</ele>
        <time>2014-11-01T11:11:32Z</time>
      </trkpt>
      <trkpt lat="42.413102000" lon="-2.442987000">
        <ele>442.50</ele>
        <time>2014-11-01T11:11:33Z</time>
      </trkpt>
      <trkpt lat="42.413148000" lon="-2.442968000">
        <ele>442.80</ele>
        <time>2014-11-01T11:11:34Z</time>
      </trkpt>
      <trkpt lat="42.413242000" lon="-2.442935000">
        <ele>443.10</ele>
        <time>2014-11-01T11:11:36Z</time>
      </trkpt>
      <trkpt lat="42.413290000" lon="-2.442914000">
        <ele>443.20</ele>
        <time>2014-11-01T11:11:37Z</time>
      </trkpt>
      <trkpt lat="42.413339000" lon="-2.442897000">
        <ele>443.30</ele>
        <time>2014-11-01T11:11:38Z</time>
      </trkpt>
      <trkpt lat="42.413388000" lon="-2.442880000">
        <ele>443.40</ele>
        <time>2014-11-01T11:11:39Z</time>
      </trkpt>
      <trkpt lat="42.413436000" lon="-2.442866000">
        <ele>443.40</ele>
        <time>2014-11-01T11:11:40Z</time>
      </trkpt>
      <trkpt lat="42.413487000" lon="-2.442853000">
        <ele>443.40</ele>
        <time>2014-11-01T11:11:41Z</time>
      </trkpt>
      <trkpt lat="42.413540000" lon="-2.442837000">
        <ele>442.90</ele>
        <time>2014-11-01T11:11:42Z</time>
      </trkpt>
      <trkpt lat="42.413594000" lon="-2.442820000">
        <ele>442.50</ele>
        <time>2014-11-01T11:11:43Z</time>
      </trkpt>
      <trkpt lat="42.413649000" lon="-2.442800000">
        <ele>442.30</ele>
        <time>2014-11-01T11:11:44Z</time>
      </trkpt>
      <trkpt lat="42.413703000" lon="-2.442779000">
        <ele>442.10</ele>
        <time>2014-11-01T11:11:45Z</time>
      </trkpt>
      <trkpt lat="42.413755000" lon="-2.442756000">
        <ele>442.10</ele>
        <time>2014-11-01T11:11:46Z</time>
      </trkpt>
      <trkpt lat="42.413807000" lon="-2.442728000">
        <ele>442.20</ele>
        <time>2014-11-01T11:11:47Z</time>
      </trkpt>
      <trkpt lat="42.413857000" lon="-2.442698000">
        <ele>442.20</ele>
        <time>2014-11-01T11:11:48Z</time>
      </trkpt>
      <trkpt lat="42.413903000" lon="-2.442662000">
        <ele>442.20</ele>
        <time>2014-11-01T11:11:49Z</time>
      </trkpt>
      <trkpt lat="42.413952000" lon="-2.442630000">
        <ele>442.20</ele>
        <time>2014-11-01T11:11:50Z</time>
      </trkpt>
      <trkpt lat="42.413998000" lon="-2.442595000">
        <ele>442.30</ele>
        <time>2014-11-01T11:11:51Z</time>
      </trkpt>
      <trkpt lat="42.414044000" lon="-2.442559000">
        <ele>442.30</ele>
        <time>2014-11-01T11:11:52Z</time>
      </trkpt>
      <trkpt lat="42.414089000" lon="-2.442524000">
        <ele>442.30</ele>
        <time>2014-11-01T11:11:53Z</time>
      </trkpt>
      <trkpt lat="42.414137000" lon="-2.442490000">
        <ele>442.30</ele>
        <time>2014-11-01T11:11:54Z</time>
      </trkpt>
      <trkpt lat="42.414185000" lon="-2.442458000">
        <ele>442.40</ele>
        <time>2014-11-01T11:11:55Z</time>
      </trkpt>
      <trkpt lat="42.414233000" lon="-2.442428000">
        <ele>442.70</ele>
        <time>2014-11-01T11:11:56Z</time>
      </trkpt>
      <trkpt lat="42.414278000" lon="-2.442399000">
        <ele>442.90</ele>
        <time>2014-11-01T11:11:57Z</time>
      </trkpt>
      <trkpt lat="42.414326000" lon="-2.442374000">
        <ele>443.10</ele>
        <time>2014-11-01T11:11:58Z</time>
      </trkpt>
      <trkpt lat="42.414374000" lon="-2.442347000">
        <ele>443.20</ele>
        <time>2014-11-01T11:11:59Z</time>
      </trkpt>
      <trkpt lat="42.414423000" lon="-2.442329000">
        <ele>443.10</ele>
        <time>2014-11-01T11:12:00Z</time>
      </trkpt>
      <trkpt lat="42.414473000" lon="-2.442311000">
        <ele>443.00</ele>
        <time>2014-11-01T11:12:01Z</time>
      </trkpt>
      <trkpt lat="42.414523000" lon="-2.442299000">
        <ele>443.00</ele>
        <time>2014-11-01T11:12:02Z</time>
      </trkpt>
      <trkpt lat="42.414575000" lon="-2.442292000">
        <ele>442.90</ele>
        <time>2014-11-01T11:12:03Z</time>
      </trkpt>
      <trkpt lat="42.414626000" lon="-2.442289000">
        <ele>442.90</ele>
        <time>2014-11-01T11:12:04Z</time>
      </trkpt>
      <trkpt lat="42.414677000" lon="-2.442288000">
        <ele>442.90</ele>
        <time>2014-11-01T11:12:05Z</time>
      </trkpt>
      <trkpt lat="42.414729000" lon="-2.442288000">
        <ele>442.60</ele>
        <time>2014-11-01T11:12:06Z</time>
      </trkpt>
      <trkpt lat="42.414781000" lon="-2.442289000">
        <ele>442.40</ele>
        <time>2014-11-01T11:12:07Z</time>
      </trkpt>
      <trkpt lat="42.414833000" lon="-2.442287000">
        <ele>442.20</ele>
        <time>2014-11-01T11:12:08Z</time>
      </trkpt>
      <trkpt lat="42.414884000" lon="-2.442284000">
        <ele>442.10</ele>
        <time>2014-11-01T11:12:09Z</time>
      </trkpt>
      <trkpt lat="42.414936000" lon="-2.442279000">
        <ele>442.40</ele>
        <time>2014-11-01T11:12:10Z</time>
      </trkpt>
      <trkpt lat="42.414987000" lon="-2.442275000">
        <ele>442.50</ele>
        <time>2014-11-01T11:12:11Z</time>
      </trkpt>
      <trkpt lat="42.415039000" lon="-2.442270000">
        <ele>442.70</ele>
        <time>2014-11-01T11:12:12Z</time>
      </trkpt>
      <trkpt lat="42.415087000" lon="-2.442267000">
        <ele>442.80</ele>
        <time>2014-11-01T11:12:13Z</time>
      </trkpt>
      <trkpt lat="42.415135000" lon="-2.442264000">
        <ele>442.60</ele>
        <time>2014-11-01T11:12:14Z</time>
      </trkpt>
      <trkpt lat="42.415186000" lon="-2.442260000">
        <ele>442.60</ele>
        <time>2014-11-01T11:12:15Z</time>
      </trkpt>
      <trkpt lat="42.415235000" lon="-2.442259000">
        <ele>442.50</ele>
        <time>2014-11-01T11:12:16Z</time>
      </trkpt>
      <trkpt lat="42.415285000" lon="-2.442258000">
        <ele>442.40</ele>
        <time>2014-11-01T11:12:17Z</time>
      </trkpt>
      <trkpt lat="42.415334000" lon="-2.442256000">
        <ele>442.40</ele>
        <time>2014-11-01T11:12:18Z</time>
      </trkpt>
      <trkpt lat="42.415381000" lon="-2.442255000">
        <ele>442.40</ele>
        <time>2014-11-01T11:12:19Z</time>
      </trkpt>
      <trkpt lat="42.415424000" lon="-2.442254000">
        <ele>442.60</ele>
        <time>2014-11-01T11:12:20Z</time>
      </trkpt>
      <trkpt lat="42.415466000" lon="-2.442251000">
        <ele>442.80</ele>
        <time>2014-11-01T11:12:21Z</time>
      </trkpt>
      <trkpt lat="42.415509000" lon="-2.442245000">
        <ele>442.70</ele>
        <time>2014-11-01T11:12:22Z</time>
      </trkpt>
      <trkpt lat="42.415553000" lon="-2.442237000">
        <ele>442.60</ele>
        <time>2014-11-01T11:12:23Z</time>
      </trkpt>
      <trkpt lat="42.415601000" lon="-2.442223000">
        <ele>442.30</ele>
        <time>2014-11-01T11:12:24Z</time>
      </trkpt>
      <trkpt lat="42.415652000" lon="-2.442211000">
        <ele>442.10</ele>
        <time>2014-11-01T11:12:25Z</time>
      </trkpt>
      <trkpt lat="42.415703000" lon="-2.442190000">
        <ele>441.90</ele>
        <time>2014-11-01T11:12:26Z</time>
      </trkpt>
      <trkpt lat="42.415754000" lon="-2.442162000">
        <ele>441.70</ele>
        <time>2014-11-01T11:12:27Z</time>
      </trkpt>
      <trkpt lat="42.415803000" lon="-2.442128000">
        <ele>441.60</ele>
        <time>2014-11-01T11:12:28Z</time>
      </trkpt>
      <trkpt lat="42.415848000" lon="-2.442087000">
        <ele>441.50</ele>
        <time>2014-11-01T11:12:29Z</time>
      </trkpt>
      <trkpt lat="42.415889000" lon="-2.442039000">
        <ele>441.30</ele>
        <time>2014-11-01T11:12:30Z</time>
      </trkpt>
      <trkpt lat="42.415928000" lon="-2.441991000">
        <ele>441.10</ele>
        <time>2014-11-01T11:12:31Z</time>
      </trkpt>
      <trkpt lat="42.415968000" lon="-2.441940000">
        <ele>441.00</ele>
        <time>2014-11-01T11:12:32Z</time>
      </trkpt>
      <trkpt lat="42.416009000" lon="-2.441893000">
        <ele>440.90</ele>
        <time>2014-11-01T11:12:33Z</time>
      </trkpt>
      <trkpt lat="42.416053000" lon="-2.441851000">
        <ele>441.20</ele>
        <time>2014-11-01T11:12:34Z</time>
      </trkpt>
      <trkpt lat="42.416100000" lon="-2.441819000">
        <ele>441.50</ele>
        <time>2014-11-01T11:12:35Z</time>
      </trkpt>
      <trkpt lat="42.416199000" lon="-2.441780000">
        <ele>441.80</ele>
        <time>2014-11-01T11:12:37Z</time>
      </trkpt>
      <trkpt lat="42.416250000" lon="-2.441768000">
        <ele>441.50</ele>
        <time>2014-11-01T11:12:38Z</time>
      </trkpt>
      <trkpt lat="42.416303000" lon="-2.441753000">
        <ele>441.30</ele>
        <time>2014-11-01T11:12:39Z</time>
      </trkpt>
      <trkpt lat="42.416356000" lon="-2.441740000">
        <ele>440.90</ele>
        <time>2014-11-01T11:12:40Z</time>
      </trkpt>
      <trkpt lat="42.416409000" lon="-2.441721000">
        <ele>440.60</ele>
        <time>2014-11-01T11:12:41Z</time>
      </trkpt>
      <trkpt lat="42.416461000" lon="-2.441701000">
        <ele>440.30</ele>
        <time>2014-11-01T11:12:42Z</time>
      </trkpt>
      <trkpt lat="42.416510000" lon="-2.441679000">
        <ele>440.20</ele>
        <time>2014-11-01T11:12:43Z</time>
      </trkpt>
      <trkpt lat="42.416559000" lon="-2.441656000">
        <ele>440.20</ele>
        <time>2014-11-01T11:12:44Z</time>
      </trkpt>
      <trkpt lat="42.416613000" lon="-2.441632000">
        <ele>440.30</ele>
        <time>2014-11-01T11:12:45Z</time>
      </trkpt>
      <trkpt lat="42.416668000" lon="-2.441613000">
        <ele>440.30</ele>
        <time>2014-11-01T11:12:46Z</time>
      </trkpt>
      <trkpt lat="42.416724000" lon="-2.441601000">
        <ele>440.30</ele>
        <time>2014-11-01T11:12:47Z</time>
      </trkpt>
      <trkpt lat="42.416781000" lon="-2.441593000">
        <ele>440.30</ele>
        <time>2014-11-01T11:12:48Z</time>
      </trkpt>
      <trkpt lat="42.416838000" lon="-2.441581000">
        <ele>440.40</ele>
        <time>2014-11-01T11:12:49Z</time>
      </trkpt>
      <trkpt lat="42.416893000" lon="-2.441569000">
        <ele>440.40</ele>
        <time>2014-11-01T11:12:50Z</time>
      </trkpt>
      <trkpt lat="42.416947000" lon="-2.441554000">
        <ele>440.40</ele>
        <time>2014-11-01T11:12:51Z</time>
      </trkpt>
      <trkpt lat="42.417000000" lon="-2.441535000">
        <ele>440.40</ele>
        <time>2014-11-01T11:12:52Z</time>
      </trkpt>
      <trkpt lat="42.417052000" lon="-2.441516000">
        <ele>440.40</ele>
        <time>2014-11-01T11:12:53Z</time>
      </trkpt>
      <trkpt lat="42.417103000" lon="-2.441497000">
        <ele>440.30</ele>
        <time>2014-11-01T11:12:54Z</time>
      </trkpt>
      <trkpt lat="42.417156000" lon="-2.441480000">
        <ele>440.30</ele>
        <time>2014-11-01T11:12:55Z</time>
      </trkpt>
      <trkpt lat="42.417207000" lon="-2.441457000">
        <ele>440.20</ele>
        <time>2014-11-01T11:12:56Z</time>
      </trkpt>
      <trkpt lat="42.417257000" lon="-2.441439000">
        <ele>440.20</ele>
        <time>2014-11-01T11:12:57Z</time>
      </trkpt>
      <trkpt lat="42.417309000" lon="-2.441420000">
        <ele>440.10</ele>
        <time>2014-11-01T11:12:58Z</time>
      </trkpt>
      <trkpt lat="42.417363000" lon="-2.441401000">
        <ele>440.10</ele>
        <time>2014-11-01T11:12:59Z</time>
      </trkpt>
      <trkpt lat="42.417419000" lon="-2.441379000">
        <ele>440.20</ele>
        <time>2014-11-01T11:13:00Z</time>
      </trkpt>
      <trkpt lat="42.417476000" lon="-2.441360000">
        <ele>440.20</ele>
        <time>2014-11-01T11:13:01Z</time>
      </trkpt>
      <trkpt lat="42.417532000" lon="-2.441337000">
        <ele>440.10</ele>
        <time>2014-11-01T11:13:02Z</time>
      </trkpt>
      <trkpt lat="42.417588000" lon="-2.441312000">
        <ele>440.10</ele>
        <time>2014-11-01T11:13:03Z</time>
      </trkpt>
      <trkpt lat="42.417644000" lon="-2.441287000">
        <ele>440.00</ele>
        <time>2014-11-01T11:13:04Z</time>
      </trkpt>
      <trkpt lat="42.417700000" lon="-2.441260000">
        <ele>440.00</ele>
        <time>2014-11-01T11:13:05Z</time>
      </trkpt>
      <trkpt lat="42.417754000" lon="-2.441229000">
        <ele>439.90</ele>
        <time>2014-11-01T11:13:06Z</time>
      </trkpt>
      <trkpt lat="42.417804000" lon="-2.441193000">
        <ele>439.80</ele>
        <time>2014-11-01T11:13:07Z</time>
      </trkpt>
      <trkpt lat="42.417853000" lon="-2.441153000">
        <ele>439.50</ele>
        <time>2014-11-01T11:13:08Z</time>
      </trkpt>
      <trkpt lat="42.417902000" lon="-2.441111000">
        <ele>439.30</ele>
        <time>2014-11-01T11:13:09Z</time>
      </trkpt>
      <trkpt lat="42.417947000" lon="-2.441066000">
        <ele>439.20</ele>
        <time>2014-11-01T11:13:10Z</time>
      </trkpt>
      <trkpt lat="42.417989000" lon="-2.441019000">
        <ele>439.00</ele>
        <time>2014-11-01T11:13:11Z</time>
      </trkpt>
      <trkpt lat="42.418030000" lon="-2.440971000">
        <ele>438.80</ele>
        <time>2014-11-01T11:13:12Z</time>
      </trkpt>
      <trkpt lat="42.418076000" lon="-2.440929000">
        <ele>438.50</ele>
        <time>2014-11-01T11:13:13Z</time>
      </trkpt>
      <trkpt lat="42.418120000" lon="-2.440887000">
        <ele>438.70</ele>
        <time>2014-11-01T11:13:14Z</time>
      </trkpt>
      <trkpt lat="42.418162000" lon="-2.440846000">
        <ele>438.80</ele>
        <time>2014-11-01T11:13:15Z</time>
      </trkpt>
      <trkpt lat="42.418204000" lon="-2.440810000">
        <ele>438.50</ele>
        <time>2014-11-01T11:13:16Z</time>
      </trkpt>
      <trkpt lat="42.418248000" lon="-2.440768000">
        <ele>438.30</ele>
        <time>2014-11-01T11:13:17Z</time>
      </trkpt>
      <trkpt lat="42.418292000" lon="-2.440725000">
        <ele>438.30</ele>
        <time>2014-11-01T11:13:18Z</time>
      </trkpt>
      <trkpt lat="42.418337000" lon="-2.440683000">
        <ele>438.20</ele>
        <time>2014-11-01T11:13:19Z</time>
      </trkpt>
      <trkpt lat="42.418383000" lon="-2.440636000">
        <ele>438.10</ele>
        <time>2014-11-01T11:13:20Z</time>
      </trkpt>
      <trkpt lat="42.418427000" lon="-2.440593000">
        <ele>438.00</ele>
        <time>2014-11-01T11:13:21Z</time>
      </trkpt>
      <trkpt lat="42.418474000" lon="-2.440551000">
        <ele>438.00</ele>
        <time>2014-11-01T11:13:22Z</time>
      </trkpt>
      <trkpt lat="42.418518000" lon="-2.440508000">
        <ele>438.10</ele>
        <time>2014-11-01T11:13:23Z</time>
      </trkpt>
      <trkpt lat="42.418561000" lon="-2.440460000">
        <ele>438.30</ele>
        <time>2014-11-01T11:13:24Z</time>
      </trkpt>
      <trkpt lat="42.418603000" lon="-2.440413000">
        <ele>438.50</ele>
        <time>2014-11-01T11:13:25Z</time>
      </trkpt>
      <trkpt lat="42.418642000" lon="-2.440362000">
        <ele>438.60</ele>
        <time>2014-11-01T11:13:26Z</time>
      </trkpt>
      <trkpt lat="42.418677000" lon="-2.440308000">
        <ele>438.70</ele>
        <time>2014-11-01T11:13:27Z</time>
      </trkpt>
      <trkpt lat="42.418707000" lon="-2.440254000">
        <ele>438.00</ele>
        <time>2014-11-01T11:13:28Z</time>
      </trkpt>
      <trkpt lat="42.418742000" lon="-2.440204000">
        <ele>437.50</ele>
        <time>2014-11-01T11:13:29Z</time>
      </trkpt>
      <trkpt lat="42.418779000" lon="-2.440153000">
        <ele>437.20</ele>
        <time>2014-11-01T11:13:30Z</time>
      </trkpt>
      <trkpt lat="42.418814000" lon="-2.440104000">
        <ele>436.90</ele>
        <time>2014-11-01T11:13:31Z</time>
      </trkpt>
      <trkpt lat="42.418851000" lon="-2.440056000">
        <ele>436.80</ele>
        <time>2014-11-01T11:13:32Z</time>
      </trkpt>
      <trkpt lat="42.418892000" lon="-2.440012000">
        <ele>436.80</ele>
        <time>2014-11-01T11:13:33Z</time>
      </trkpt>
      <trkpt lat="42.418937000" lon="-2.439974000">
        <ele>436.80</ele>
        <time>2014-11-01T11:13:34Z</time>
      </trkpt>
      <trkpt lat="42.418988000" lon="-2.439943000">
        <ele>436.80</ele>
        <time>2014-11-01T11:13:35Z</time>
      </trkpt>
      <trkpt lat="42.419035000" lon="-2.439921000">
        <ele>436.80</ele>
        <time>2014-11-01T11:13:36Z</time>
      </trkpt>
      <trkpt lat="42.419100000" lon="-2.439894000">
        <ele>436.90</ele>
        <time>2014-11-01T11:13:38Z</time>
      </trkpt>
      <trkpt lat="42.419149000" lon="-2.439883000">
        <ele>436.90</ele>
        <time>2014-11-01T11:13:39Z</time>
      </trkpt>
      <trkpt lat="42.419200000" lon="-2.439870000">
        <ele>436.90</ele>
        <time>2014-11-01T11:13:40Z</time>
      </trkpt>
      <trkpt lat="42.419255000" lon="-2.439854000">
        <ele>437.00</ele>
        <time>2014-11-01T11:13:41Z</time>
      </trkpt>
      <trkpt lat="42.419306000" lon="-2.439832000">
        <ele>437.00</ele>
        <time>2014-11-01T11:13:42Z</time>
      </trkpt>
      <trkpt lat="42.419358000" lon="-2.439801000">
        <ele>437.00</ele>
        <time>2014-11-01T11:13:43Z</time>
      </trkpt>
      <trkpt lat="42.419412000" lon="-2.439764000">
        <ele>436.60</ele>
        <time>2014-11-01T11:13:44Z</time>
      </trkpt>
      <trkpt lat="42.419467000" lon="-2.439737000">
        <ele>436.30</ele>
        <time>2014-11-01T11:13:45Z</time>
      </trkpt>
      <trkpt lat="42.419524000" lon="-2.439714000">
        <ele>436.10</ele>
        <time>2014-11-01T11:13:46Z</time>
      </trkpt>
      <trkpt lat="42.419581000" lon="-2.439697000">
        <ele>435.90</ele>
        <time>2014-11-01T11:13:47Z</time>
      </trkpt>
      <trkpt lat="42.419643000" lon="-2.439685000">
        <ele>435.70</ele>
        <time>2014-11-01T11:13:48Z</time>
      </trkpt>
      <trkpt lat="42.419703000" lon="-2.439676000">
        <ele>435.60</ele>
        <time>2014-11-01T11:13:49Z</time>
      </trkpt>
      <trkpt lat="42.419762000" lon="-2.439663000">
        <ele>435.50</ele>
        <time>2014-11-01T11:13:50Z</time>
      </trkpt>
      <trkpt lat="42.419822000" lon="-2.439645000">
        <ele>435.40</ele>
        <time>2014-11-01T11:13:51Z</time>
      </trkpt>
      <trkpt lat="42.419883000" lon="-2.439630000">
        <ele>435.40</ele>
        <time>2014-11-01T11:13:52Z</time>
      </trkpt>
      <trkpt lat="42.419943000" lon="-2.439610000">
        <ele>435.40</ele>
        <time>2014-11-01T11:13:53Z</time>
      </trkpt>
      <trkpt lat="42.420001000" lon="-2.439591000">
        <ele>435.50</ele>
        <time>2014-11-01T11:13:54Z</time>
      </trkpt>
      <trkpt lat="42.420056000" lon="-2.439573000">
        <ele>435.50</ele>
        <time>2014-11-01T11:13:55Z</time>
      </trkpt>
      <trkpt lat="42.420112000" lon="-2.439557000">
        <ele>435.60</ele>
        <time>2014-11-01T11:13:56Z</time>
      </trkpt>
      <trkpt lat="42.420167000" lon="-2.439541000">
        <ele>435.60</ele>
        <time>2014-11-01T11:13:57Z</time>
      </trkpt>
      <trkpt lat="42.420220000" lon="-2.439527000">
        <ele>435.70</ele>
        <time>2014-11-01T11:13:58Z</time>
      </trkpt>
      <trkpt lat="42.420277000" lon="-2.439514000">
        <ele>435.70</ele>
        <time>2014-11-01T11:13:59Z</time>
      </trkpt>
      <trkpt lat="42.420331000" lon="-2.439498000">
        <ele>435.70</ele>
        <time>2014-11-01T11:14:00Z</time>
      </trkpt>
      <trkpt lat="42.420384000" lon="-2.439486000">
        <ele>435.70</ele>
        <time>2014-11-01T11:14:01Z</time>
      </trkpt>
      <trkpt lat="42.420434000" lon="-2.439474000">
        <ele>436.00</ele>
        <time>2014-11-01T11:14:02Z</time>
      </trkpt>
      <trkpt lat="42.420484000" lon="-2.439461000">
        <ele>436.20</ele>
        <time>2014-11-01T11:14:03Z</time>
      </trkpt>
      <trkpt lat="42.420534000" lon="-2.439450000">
        <ele>436.10</ele>
        <time>2014-11-01T11:14:04Z</time>
      </trkpt>
      <trkpt lat="42.420584000" lon="-2.439434000">
        <ele>436.00</ele>
        <time>2014-11-01T11:14:05Z</time>
      </trkpt>
      <trkpt lat="42.420632000" lon="-2.439419000">
        <ele>435.90</ele>
        <time>2014-11-01T11:14:06Z</time>
      </trkpt>
      <trkpt lat="42.420682000" lon="-2.439404000">
        <ele>435.90</ele>
        <time>2014-11-01T11:14:07Z</time>
      </trkpt>
      <trkpt lat="42.420730000" lon="-2.439390000">
        <ele>435.90</ele>
        <time>2014-11-01T11:14:08Z</time>
      </trkpt>
      <trkpt lat="42.420778000" lon="-2.439375000">
        <ele>435.80</ele>
        <time>2014-11-01T11:14:09Z</time>
      </trkpt>
      <trkpt lat="42.420828000" lon="-2.439362000">
        <ele>435.70</ele>
        <time>2014-11-01T11:14:10Z</time>
      </trkpt>
      <trkpt lat="42.420879000" lon="-2.439348000">
        <ele>435.70</ele>
        <time>2014-11-01T11:14:11Z</time>
      </trkpt>
      <trkpt lat="42.420930000" lon="-2.439337000">
        <ele>435.60</ele>
        <time>2014-11-01T11:14:12Z</time>
      </trkpt>
      <trkpt lat="42.420981000" lon="-2.439327000">
        <ele>435.60</ele>
        <time>2014-11-01T11:14:13Z</time>
      </trkpt>
      <trkpt lat="42.421033000" lon="-2.439315000">
        <ele>435.70</ele>
        <time>2014-11-01T11:14:14Z</time>
      </trkpt>
      <trkpt lat="42.421085000" lon="-2.439307000">
        <ele>435.80</ele>
        <time>2014-11-01T11:14:15Z</time>
      </trkpt>
      <trkpt lat="42.421134000" lon="-2.439297000">
        <ele>435.90</ele>
        <time>2014-11-01T11:14:16Z</time>
      </trkpt>
      <trkpt lat="42.421184000" lon="-2.439289000">
        <ele>436.00</ele>
        <time>2014-11-01T11:14:17Z</time>
      </trkpt>
      <trkpt lat="42.421234000" lon="-2.439280000">
        <ele>436.00</ele>
        <time>2014-11-01T11:14:18Z</time>
      </trkpt>
      <trkpt lat="42.421286000" lon="-2.439269000">
        <ele>436.00</ele>
        <time>2014-11-01T11:14:19Z</time>
      </trkpt>
      <trkpt lat="42.421339000" lon="-2.439257000">
        <ele>435.90</ele>
        <time>2014-11-01T11:14:20Z</time>
      </trkpt>
      <trkpt lat="42.421391000" lon="-2.439245000">
        <ele>435.80</ele>
        <time>2014-11-01T11:14:21Z</time>
      </trkpt>
      <trkpt lat="42.421443000" lon="-2.439235000">
        <ele>435.60</ele>
        <time>2014-11-01T11:14:22Z</time>
      </trkpt>
      <trkpt lat="42.421494000" lon="-2.439224000">
        <ele>435.40</ele>
        <time>2014-11-01T11:14:23Z</time>
      </trkpt>
      <trkpt lat="42.421546000" lon="-2.439211000">
        <ele>435.10</ele>
        <time>2014-11-01T11:14:24Z</time>
      </trkpt>
      <trkpt lat="42.421599000" lon="-2.439196000">
        <ele>434.90</ele>
        <time>2014-11-01T11:14:25Z</time>
      </trkpt>
      <trkpt lat="42.421649000" lon="-2.439180000">
        <ele>434.70</ele>
        <time>2014-11-01T11:14:26Z</time>
      </trkpt>
      <trkpt lat="42.421700000" lon="-2.439166000">
        <ele>434.60</ele>
        <time>2014-11-01T11:14:27Z</time>
      </trkpt>
      <trkpt lat="42.421750000" lon="-2.439150000">
        <ele>434.40</ele>
        <time>2014-11-01T11:14:28Z</time>
      </trkpt>
      <trkpt lat="42.421799000" lon="-2.439134000">
        <ele>434.20</ele>
        <time>2014-11-01T11:14:29Z</time>
      </trkpt>
      <trkpt lat="42.421849000" lon="-2.439116000">
        <ele>434.10</ele>
        <time>2014-11-01T11:14:30Z</time>
      </trkpt>
      <trkpt lat="42.421898000" lon="-2.439098000">
        <ele>433.90</ele>
        <time>2014-11-01T11:14:31Z</time>
      </trkpt>
      <trkpt lat="42.421949000" lon="-2.439080000">
        <ele>433.80</ele>
        <time>2014-11-01T11:14:32Z</time>
      </trkpt>
      <trkpt lat="42.421999000" lon="-2.439061000">
        <ele>433.70</ele>
        <time>2014-11-01T11:14:33Z</time>
      </trkpt>
      <trkpt lat="42.422048000" lon="-2.439044000">
        <ele>433.70</ele>
        <time>2014-11-01T11:14:34Z</time>
      </trkpt>
      <trkpt lat="42.422100000" lon="-2.439025000">
        <ele>433.70</ele>
        <time>2014-11-01T11:14:35Z</time>
      </trkpt>
      <trkpt lat="42.422148000" lon="-2.439010000">
        <ele>433.70</ele>
        <time>2014-11-01T11:14:36Z</time>
      </trkpt>
      <trkpt lat="42.422199000" lon="-2.438993000">
        <ele>433.60</ele>
        <time>2014-11-01T11:14:37Z</time>
      </trkpt>
      <trkpt lat="42.422303000" lon="-2.438962000">
        <ele>433.60</ele>
        <time>2014-11-01T11:14:39Z</time>
      </trkpt>
      <trkpt lat="42.422355000" lon="-2.438946000">
        <ele>433.60</ele>
        <time>2014-11-01T11:14:40Z</time>
      </trkpt>
      <trkpt lat="42.422407000" lon="-2.438932000">
        <ele>433.60</ele>
        <time>2014-11-01T11:14:41Z</time>
      </trkpt>
      <trkpt lat="42.422460000" lon="-2.438918000">
        <ele>433.60</ele>
        <time>2014-11-01T11:14:42Z</time>
      </trkpt>
      <trkpt lat="42.422511000" lon="-2.438906000">
        <ele>433.60</ele>
        <time>2014-11-01T11:14:43Z</time>
      </trkpt>
      <trkpt lat="42.422564000" lon="-2.438892000">
        <ele>433.60</ele>
        <time>2014-11-01T11:14:44Z</time>
      </trkpt>
      <trkpt lat="42.422617000" lon="-2.438876000">
        <ele>433.60</ele>
        <time>2014-11-01T11:14:45Z</time>
      </trkpt>
      <trkpt lat="42.422670000" lon="-2.438865000">
        <ele>433.40</ele>
        <time>2014-11-01T11:14:46Z</time>
      </trkpt>
      <trkpt lat="42.422723000" lon="-2.438851000">
        <ele>433.30</ele>
        <time>2014-11-01T11:14:47Z</time>
      </trkpt>
      <trkpt lat="42.422775000" lon="-2.438841000">
        <ele>433.20</ele>
        <time>2014-11-01T11:14:48Z</time>
      </trkpt>
      <trkpt lat="42.422828000" lon="-2.438831000">
        <ele>433.10</ele>
        <time>2014-11-01T11:14:49Z</time>
      </trkpt>
      <trkpt lat="42.422880000" lon="-2.438819000">
        <ele>433.10</ele>
        <time>2014-11-01T11:14:50Z</time>
      </trkpt>
      <trkpt lat="42.422933000" lon="-2.438812000">
        <ele>433.00</ele>
        <time>2014-11-01T11:14:51Z</time>
      </trkpt>
      <trkpt lat="42.422987000" lon="-2.438805000">
        <ele>433.10</ele>
        <time>2014-11-01T11:14:52Z</time>
      </trkpt>
      <trkpt lat="42.423041000" lon="-2.438798000">
        <ele>433.20</ele>
        <time>2014-11-01T11:14:53Z</time>
      </trkpt>
      <trkpt lat="42.423092000" lon="-2.438796000">
        <ele>433.20</ele>
        <time>2014-11-01T11:14:54Z</time>
      </trkpt>
      <trkpt lat="42.423145000" lon="-2.438797000">
        <ele>433.30</ele>
        <time>2014-11-01T11:14:55Z</time>
      </trkpt>
      <trkpt lat="42.423198000" lon="-2.438799000">
        <ele>433.30</ele>
        <time>2014-11-01T11:14:56Z</time>
      </trkpt>
      <trkpt lat="42.423253000" lon="-2.438803000">
        <ele>433.30</ele>
        <time>2014-11-01T11:14:57Z</time>
      </trkpt>
      <trkpt lat="42.423309000" lon="-2.438809000">
        <ele>433.40</ele>
        <time>2014-11-01T11:14:58Z</time>
      </trkpt>
      <trkpt lat="42.423362000" lon="-2.438817000">
        <ele>433.50</ele>
        <time>2014-11-01T11:14:59Z</time>
      </trkpt>
      <trkpt lat="42.423417000" lon="-2.438827000">
        <ele>433.60</ele>
        <time>2014-11-01T11:15:00Z</time>
      </trkpt>
      <trkpt lat="42.423470000" lon="-2.438842000">
        <ele>433.70</ele>
        <time>2014-11-01T11:15:01Z</time>
      </trkpt>
      <trkpt lat="42.423524000" lon="-2.438860000">
        <ele>433.70</ele>
        <time>2014-11-01T11:15:02Z</time>
      </trkpt>
      <trkpt lat="42.423579000" lon="-2.438880000">
        <ele>433.80</ele>
        <time>2014-11-01T11:15:03Z</time>
      </trkpt>
      <trkpt lat="42.423632000" lon="-2.438895000">
        <ele>433.40</ele>
        <time>2014-11-01T11:15:04Z</time>
      </trkpt>
      <trkpt lat="42.423687000" lon="-2.438910000">
        <ele>433.10</ele>
        <time>2014-11-01T11:15:05Z</time>
      </trkpt>
      <trkpt lat="42.423741000" lon="-2.438928000">
        <ele>432.70</ele>
        <time>2014-11-01T11:15:06Z</time>
      </trkpt>
      <trkpt lat="42.423796000" lon="-2.438949000">
        <ele>432.40</ele>
        <time>2014-11-01T11:15:07Z</time>
      </trkpt>
      <trkpt lat="42.423851000" lon="-2.438963000">
        <ele>432.40</ele>
        <time>2014-11-01T11:15:08Z</time>
      </trkpt>
      <trkpt lat="42.423907000" lon="-2.438976000">
        <ele>432.30</ele>
        <time>2014-11-01T11:15:09Z</time>
      </trkpt>
      <trkpt lat="42.423963000" lon="-2.438992000">
        <ele>432.10</ele>
        <time>2014-11-01T11:15:10Z</time>
      </trkpt>
      <trkpt lat="42.424018000" lon="-2.439010000">
        <ele>432.00</ele>
        <time>2014-11-01T11:15:11Z</time>
      </trkpt>
      <trkpt lat="42.424073000" lon="-2.439031000">
        <ele>432.10</ele>
        <time>2014-11-01T11:15:12Z</time>
      </trkpt>
      <trkpt lat="42.424128000" lon="-2.439058000">
        <ele>432.20</ele>
        <time>2014-11-01T11:15:13Z</time>
      </trkpt>
      <trkpt lat="42.424181000" lon="-2.439088000">
        <ele>432.20</ele>
        <time>2014-11-01T11:15:14Z</time>
      </trkpt>
      <trkpt lat="42.424232000" lon="-2.439122000">
        <ele>432.30</ele>
        <time>2014-11-01T11:15:15Z</time>
      </trkpt>
      <trkpt lat="42.424281000" lon="-2.439161000">
        <ele>432.30</ele>
        <time>2014-11-01T11:15:16Z</time>
      </trkpt>
      <trkpt lat="42.424330000" lon="-2.439203000">
        <ele>432.30</ele>
        <time>2014-11-01T11:15:17Z</time>
      </trkpt>
      <trkpt lat="42.424376000" lon="-2.439247000">
        <ele>432.30</ele>
        <time>2014-11-01T11:15:18Z</time>
      </trkpt>
      <trkpt lat="42.424423000" lon="-2.439295000">
        <ele>432.30</ele>
        <time>2014-11-01T11:15:19Z</time>
      </trkpt>
      <trkpt lat="42.424472000" lon="-2.439343000">
        <ele>432.20</ele>
        <time>2014-11-01T11:15:20Z</time>
      </trkpt>
      <trkpt lat="42.424520000" lon="-2.439391000">
        <ele>432.20</ele>
        <time>2014-11-01T11:15:21Z</time>
      </trkpt>
      <trkpt lat="42.424567000" lon="-2.439438000">
        <ele>431.90</ele>
        <time>2014-11-01T11:15:22Z</time>
      </trkpt>
      <trkpt lat="42.424613000" lon="-2.439486000">
        <ele>431.70</ele>
        <time>2014-11-01T11:15:23Z</time>
      </trkpt>
      <trkpt lat="42.424661000" lon="-2.439531000">
        <ele>431.80</ele>
        <time>2014-11-01T11:15:24Z</time>
      </trkpt>
      <trkpt lat="42.424709000" lon="-2.439577000">
        <ele>431.90</ele>
        <time>2014-11-01T11:15:25Z</time>
      </trkpt>
      <trkpt lat="42.424759000" lon="-2.439617000">
        <ele>432.00</ele>
        <time>2014-11-01T11:15:26Z</time>
      </trkpt>
      <trkpt lat="42.424814000" lon="-2.439648000">
        <ele>432.00</ele>
        <time>2014-11-01T11:15:27Z</time>
      </trkpt>
      <trkpt lat="42.424872000" lon="-2.439669000">
        <ele>432.00</ele>
        <time>2014-11-01T11:15:28Z</time>
      </trkpt>
      <trkpt lat="42.424934000" lon="-2.439681000">
        <ele>432.10</ele>
        <time>2014-11-01T11:15:29Z</time>
      </trkpt>
      <trkpt lat="42.424993000" lon="-2.439685000">
        <ele>432.00</ele>
        <time>2014-11-01T11:15:30Z</time>
      </trkpt>
      <trkpt lat="42.425053000" lon="-2.439687000">
        <ele>432.00</ele>
        <time>2014-11-01T11:15:31Z</time>
      </trkpt>
      <trkpt lat="42.425111000" lon="-2.439695000">
        <ele>431.90</ele>
        <time>2014-11-01T11:15:32Z</time>
      </trkpt>
      <trkpt lat="42.425167000" lon="-2.439716000">
        <ele>431.80</ele>
        <time>2014-11-01T11:15:33Z</time>
      </trkpt>
      <trkpt lat="42.425223000" lon="-2.439739000">
        <ele>431.70</ele>
        <time>2014-11-01T11:15:34Z</time>
      </trkpt>
      <trkpt lat="42.425277000" lon="-2.439769000">
        <ele>431.60</ele>
        <time>2014-11-01T11:15:35Z</time>
      </trkpt>
      <trkpt lat="42.425329000" lon="-2.439804000">
        <ele>431.60</ele>
        <time>2014-11-01T11:15:36Z</time>
      </trkpt>
      <trkpt lat="42.425382000" lon="-2.439843000">
        <ele>431.60</ele>
        <time>2014-11-01T11:15:37Z</time>
      </trkpt>
      <trkpt lat="42.425433000" lon="-2.439882000">
        <ele>431.60</ele>
        <time>2014-11-01T11:15:38Z</time>
      </trkpt>
      <trkpt lat="42.425535000" lon="-2.439955000">
        <ele>431.50</ele>
        <time>2014-11-01T11:15:40Z</time>
      </trkpt>
      <trkpt lat="42.425586000" lon="-2.439987000">
        <ele>431.60</ele>
        <time>2014-11-01T11:15:41Z</time>
      </trkpt>
      <trkpt lat="42.425638000" lon="-2.440017000">
        <ele>431.40</ele>
        <time>2014-11-01T11:15:42Z</time>
      </trkpt>
      <trkpt lat="42.425692000" lon="-2.440043000">
        <ele>431.30</ele>
        <time>2014-11-01T11:15:43Z</time>
      </trkpt>
      <trkpt lat="42.425746000" lon="-2.440067000">
        <ele>431.20</ele>
        <time>2014-11-01T11:15:44Z</time>
      </trkpt>
      <trkpt lat="42.425801000" lon="-2.440087000">
        <ele>431.10</ele>
        <time>2014-11-01T11:15:45Z</time>
      </trkpt>
      <trkpt lat="42.425858000" lon="-2.440099000">
        <ele>430.90</ele>
        <time>2014-11-01T11:15:46Z</time>
      </trkpt>
      <trkpt lat="42.425917000" lon="-2.440102000">
        <ele>430.80</ele>
        <time>2014-11-01T11:15:47Z</time>
      </trkpt>
      <trkpt lat="42.425976000" lon="-2.440102000">
        <ele>430.70</ele>
        <time>2014-11-01T11:15:48Z</time>
      </trkpt>
      <trkpt lat="42.426034000" lon="-2.440101000">
        <ele>430.60</ele>
        <time>2014-11-01T11:15:49Z</time>
      </trkpt>
      <trkpt lat="42.426091000" lon="-2.440098000">
        <ele>430.80</ele>
        <time>2014-11-01T11:15:50Z</time>
      </trkpt>
      <trkpt lat="42.426151000" lon="-2.440097000">
        <ele>430.90</ele>
        <time>2014-11-01T11:15:51Z</time>
      </trkpt>
      <trkpt lat="42.426211000" lon="-2.440100000">
        <ele>431.20</ele>
        <time>2014-11-01T11:15:52Z</time>
      </trkpt>
      <trkpt lat="42.426270000" lon="-2.440104000">
        <ele>431.30</ele>
        <time>2014-11-01T11:15:53Z</time>
      </trkpt>
      <trkpt lat="42.426327000" lon="-2.440109000">
        <ele>431.40</ele>
        <time>2014-11-01T11:15:54Z</time>
      </trkpt>
      <trkpt lat="42.426383000" lon="-2.440111000">
        <ele>431.40</ele>
        <time>2014-11-01T11:15:55Z</time>
      </trkpt>
      <trkpt lat="42.426438000" lon="-2.440112000">
        <ele>431.10</ele>
        <time>2014-11-01T11:15:56Z</time>
      </trkpt>
      <trkpt lat="42.426492000" lon="-2.440105000">
        <ele>430.90</ele>
        <time>2014-11-01T11:15:57Z</time>
      </trkpt>
      <trkpt lat="42.426544000" lon="-2.440096000">
        <ele>430.60</ele>
        <time>2014-11-01T11:15:58Z</time>
      </trkpt>
      <trkpt lat="42.426595000" lon="-2.440083000">
        <ele>430.30</ele>
        <time>2014-11-01T11:15:59Z</time>
      </trkpt>
      <trkpt lat="42.426647000" lon="-2.440078000">
        <ele>430.10</ele>
        <time>2014-11-01T11:16:00Z</time>
      </trkpt>
      <trkpt lat="42.426696000" lon="-2.440083000">
        <ele>429.90</ele>
        <time>2014-11-01T11:16:01Z</time>
      </trkpt>
      <trkpt lat="42.426743000" lon="-2.440098000">
        <ele>429.80</ele>
        <time>2014-11-01T11:16:02Z</time>
      </trkpt>
      <trkpt lat="42.426789000" lon="-2.440125000">
        <ele>429.70</ele>
        <time>2014-11-01T11:16:03Z</time>
      </trkpt>
      <trkpt lat="42.426830000" lon="-2.440163000">
        <ele>429.70</ele>
        <time>2014-11-01T11:16:04Z</time>
      </trkpt>
      <trkpt lat="42.426869000" lon="-2.440199000">
        <ele>429.70</ele>
        <time>2014-11-01T11:16:05Z</time>
      </trkpt>
      <trkpt lat="42.426911000" lon="-2.440235000">
        <ele>429.80</ele>
        <time>2014-11-01T11:16:06Z</time>
      </trkpt>
      <trkpt lat="42.426952000" lon="-2.440270000">
        <ele>429.90</ele>
        <time>2014-11-01T11:16:07Z</time>
      </trkpt>
      <trkpt lat="42.426995000" lon="-2.440298000">
        <ele>429.90</ele>
        <time>2014-11-01T11:16:08Z</time>
      </trkpt>
      <trkpt lat="42.427039000" lon="-2.440319000">
        <ele>430.00</ele>
        <time>2014-11-01T11:16:09Z</time>
      </trkpt>
      <trkpt lat="42.427083000" lon="-2.440340000">
        <ele>430.10</ele>
        <time>2014-11-01T11:16:10Z</time>
      </trkpt>
      <trkpt lat="42.427129000" lon="-2.440359000">
        <ele>430.10</ele>
        <time>2014-11-01T11:16:11Z</time>
      </trkpt>
      <trkpt lat="42.427175000" lon="-2.440381000">
        <ele>429.80</ele>
        <time>2014-11-01T11:16:12Z</time>
      </trkpt>
      <trkpt lat="42.427223000" lon="-2.440403000">
        <ele>429.50</ele>
        <time>2014-11-01T11:16:13Z</time>
      </trkpt>
      <trkpt lat="42.427272000" lon="-2.440421000">
        <ele>429.70</ele>
        <time>2014-11-01T11:16:14Z</time>
      </trkpt>
      <trkpt lat="42.427319000" lon="-2.440443000">
        <ele>429.90</ele>
        <time>2014-11-01T11:16:15Z</time>
      </trkpt>
      <trkpt lat="42.427367000" lon="-2.440466000">
        <ele>430.10</ele>
        <time>2014-11-01T11:16:16Z</time>
      </trkpt>
      <trkpt lat="42.427413000" lon="-2.440486000">
        <ele>430.20</ele>
        <time>2014-11-01T11:16:17Z</time>
      </trkpt>
      <trkpt lat="42.427461000" lon="-2.440504000">
        <ele>430.30</ele>
        <time>2014-11-01T11:16:18Z</time>
      </trkpt>
      <trkpt lat="42.427508000" lon="-2.440523000">
        <ele>430.40</ele>
        <time>2014-11-01T11:16:19Z</time>
      </trkpt>
      <trkpt lat="42.427556000" lon="-2.440541000">
        <ele>430.20</ele>
        <time>2014-11-01T11:16:20Z</time>
      </trkpt>
      <trkpt lat="42.427603000" lon="-2.440550000">
        <ele>430.10</ele>
        <time>2014-11-01T11:16:21Z</time>
      </trkpt>
      <trkpt lat="42.427651000" lon="-2.440554000">
        <ele>430.10</ele>
        <time>2014-11-01T11:16:22Z</time>
      </trkpt>
      <trkpt lat="42.427698000" lon="-2.440554000">
        <ele>430.00</ele>
        <time>2014-11-01T11:16:23Z</time>
      </trkpt>
      <trkpt lat="42.427745000" lon="-2.440552000">
        <ele>429.80</ele>
        <time>2014-11-01T11:16:24Z</time>
      </trkpt>
      <trkpt lat="42.427791000" lon="-2.440550000">
        <ele>429.70</ele>
        <time>2014-11-01T11:16:25Z</time>
      </trkpt>
      <trkpt lat="42.427840000" lon="-2.440544000">
        <ele>429.60</ele>
        <time>2014-11-01T11:16:26Z</time>
      </trkpt>
      <trkpt lat="42.427890000" lon="-2.440545000">
        <ele>429.50</ele>
        <time>2014-11-01T11:16:27Z</time>
      </trkpt>
      <trkpt lat="42.427939000" lon="-2.440552000">
        <ele>429.50</ele>
        <time>2014-11-01T11:16:28Z</time>
      </trkpt>
      <trkpt lat="42.427987000" lon="-2.440568000">
        <ele>429.40</ele>
        <time>2014-11-01T11:16:29Z</time>
      </trkpt>
      <trkpt lat="42.428033000" lon="-2.440588000">
        <ele>429.40</ele>
        <time>2014-11-01T11:16:30Z</time>
      </trkpt>
      <trkpt lat="42.428078000" lon="-2.440613000">
        <ele>429.40</ele>
        <time>2014-11-01T11:16:31Z</time>
      </trkpt>
      <trkpt lat="42.428122000" lon="-2.440642000">
        <ele>429.30</ele>
        <time>2014-11-01T11:16:32Z</time>
      </trkpt>
      <trkpt lat="42.428168000" lon="-2.440668000">
        <ele>429.20</ele>
        <time>2014-11-01T11:16:33Z</time>
      </trkpt>
      <trkpt lat="42.428212000" lon="-2.440696000">
        <ele>429.10</ele>
        <time>2014-11-01T11:16:34Z</time>
      </trkpt>
      <trkpt lat="42.428261000" lon="-2.440726000">
        <ele>428.90</ele>
        <time>2014-11-01T11:16:35Z</time>
      </trkpt>
      <trkpt lat="42.428311000" lon="-2.440754000">
        <ele>428.80</ele>
        <time>2014-11-01T11:16:36Z</time>
      </trkpt>
      <trkpt lat="42.428365000" lon="-2.440781000">
        <ele>428.80</ele>
        <time>2014-11-01T11:16:37Z</time>
      </trkpt>
      <trkpt lat="42.428421000" lon="-2.440809000">
        <ele>428.70</ele>
        <time>2014-11-01T11:16:38Z</time>
      </trkpt>
      <trkpt lat="42.428480000" lon="-2.440839000">
        <ele>428.70</ele>
        <time>2014-11-01T11:16:39Z</time>
      </trkpt>
      <trkpt lat="42.428598000" lon="-2.440911000">
        <ele>428.50</ele>
        <time>2014-11-01T11:16:41Z</time>
      </trkpt>
      <trkpt lat="42.428655000" lon="-2.440950000">
        <ele>428.30</ele>
        <time>2014-11-01T11:16:42Z</time>
      </trkpt>
      <trkpt lat="42.428710000" lon="-2.440989000">
        <ele>428.20</ele>
        <time>2014-11-01T11:16:43Z</time>
      </trkpt>
      <trkpt lat="42.428765000" lon="-2.441026000">
        <ele>428.00</ele>
        <time>2014-11-01T11:16:44Z</time>
      </trkpt>
      <trkpt lat="42.428823000" lon="-2.441061000">
        <ele>427.90</ele>
        <time>2014-11-01T11:16:45Z</time>
      </trkpt>
      <trkpt lat="42.428883000" lon="-2.441090000">
        <ele>427.70</ele>
        <time>2014-11-01T11:16:46Z</time>
      </trkpt>
      <trkpt lat="42.428946000" lon="-2.441108000">
        <ele>427.50</ele>
        <time>2014-11-01T11:16:47Z</time>
      </trkpt>
      <trkpt lat="42.429012000" lon="-2.441120000">
        <ele>427.40</ele>
        <time>2014-11-01T11:16:48Z</time>
      </trkpt>
      <trkpt lat="42.429076000" lon="-2.441129000">
        <ele>427.30</ele>
        <time>2014-11-01T11:16:49Z</time>
      </trkpt>
      <trkpt lat="42.429140000" lon="-2.441131000">
        <ele>426.80</ele>
        <time>2014-11-01T11:16:50Z</time>
      </trkpt>
      <trkpt lat="42.429203000" lon="-2.441132000">
        <ele>426.50</ele>
        <time>2014-11-01T11:16:51Z</time>
      </trkpt>
      <trkpt lat="42.429266000" lon="-2.441138000">
        <ele>426.60</ele>
        <time>2014-11-01T11:16:52Z</time>
      </trkpt>
      <trkpt lat="42.429327000" lon="-2.441150000">
        <ele>426.70</ele>
        <time>2014-11-01T11:16:53Z</time>
      </trkpt>
      <trkpt lat="42.429387000" lon="-2.441167000">
        <ele>426.40</ele>
        <time>2014-11-01T11:16:54Z</time>
      </trkpt>
      <trkpt lat="42.429446000" lon="-2.441185000">
        <ele>426.20</ele>
        <time>2014-11-01T11:16:55Z</time>
      </trkpt>
      <trkpt lat="42.429503000" lon="-2.441205000">
        <ele>425.90</ele>
        <time>2014-11-01T11:16:56Z</time>
      </trkpt>
      <trkpt lat="42.429557000" lon="-2.441228000">
        <ele>425.70</ele>
        <time>2014-11-01T11:16:57Z</time>
      </trkpt>
      <trkpt lat="42.429608000" lon="-2.441251000">
        <ele>425.60</ele>
        <time>2014-11-01T11:16:58Z</time>
      </trkpt>
      <trkpt lat="42.429660000" lon="-2.441274000">
        <ele>425.50</ele>
        <time>2014-11-01T11:16:59Z</time>
      </trkpt>
      <trkpt lat="42.429712000" lon="-2.441294000">
        <ele>425.60</ele>
        <time>2014-11-01T11:17:00Z</time>
      </trkpt>
      <trkpt lat="42.429765000" lon="-2.441318000">
        <ele>425.60</ele>
        <time>2014-11-01T11:17:01Z</time>
      </trkpt>
      <trkpt lat="42.429816000" lon="-2.441348000">
        <ele>425.60</ele>
        <time>2014-11-01T11:17:02Z</time>
      </trkpt>
      <trkpt lat="42.429867000" lon="-2.441380000">
        <ele>425.60</ele>
        <time>2014-11-01T11:17:03Z</time>
      </trkpt>
      <trkpt lat="42.429917000" lon="-2.441405000">
        <ele>425.70</ele>
        <time>2014-11-01T11:17:04Z</time>
      </trkpt>
      <trkpt lat="42.429968000" lon="-2.441429000">
        <ele>425.70</ele>
        <time>2014-11-01T11:17:05Z</time>
      </trkpt>
      <trkpt lat="42.430022000" lon="-2.441451000">
        <ele>425.50</ele>
        <time>2014-11-01T11:17:06Z</time>
      </trkpt>
      <trkpt lat="42.430074000" lon="-2.441475000">
        <ele>425.30</ele>
        <time>2014-11-01T11:17:07Z</time>
      </trkpt>
      <trkpt lat="42.430127000" lon="-2.441500000">
        <ele>425.20</ele>
        <time>2014-11-01T11:17:08Z</time>
      </trkpt>
      <trkpt lat="42.430176000" lon="-2.441534000">
        <ele>425.20</ele>
        <time>2014-11-01T11:17:09Z</time>
      </trkpt>
      <trkpt lat="42.430227000" lon="-2.441571000">
        <ele>425.00</ele>
        <time>2014-11-01T11:17:10Z</time>
      </trkpt>
      <trkpt lat="42.430278000" lon="-2.441609000">
        <ele>425.00</ele>
        <time>2014-11-01T11:17:11Z</time>
      </trkpt>
      <trkpt lat="42.430328000" lon="-2.441646000">
        <ele>424.90</ele>
        <time>2014-11-01T11:17:12Z</time>
      </trkpt>
      <trkpt lat="42.430381000" lon="-2.441684000">
        <ele>424.80</ele>
        <time>2014-11-01T11:17:13Z</time>
      </trkpt>
      <trkpt lat="42.430435000" lon="-2.441721000">
        <ele>424.80</ele>
        <time>2014-11-01T11:17:14Z</time>
      </trkpt>
      <trkpt lat="42.430489000" lon="-2.441758000">
        <ele>424.80</ele>
        <time>2014-11-01T11:17:15Z</time>
      </trkpt>
      <trkpt lat="42.430544000" lon="-2.441795000">
        <ele>424.70</ele>
        <time>2014-11-01T11:17:16Z</time>
      </trkpt>
      <trkpt lat="42.430598000" lon="-2.441831000">
        <ele>424.70</ele>
        <time>2014-11-01T11:17:17Z</time>
      </trkpt>
      <trkpt lat="42.430653000" lon="-2.441865000">
        <ele>424.70</ele>
        <time>2014-11-01T11:17:18Z</time>
      </trkpt>
      <trkpt lat="42.430709000" lon="-2.441896000">
        <ele>424.70</ele>
        <time>2014-11-01T11:17:19Z</time>
      </trkpt>
      <trkpt lat="42.430765000" lon="-2.441921000">
        <ele>424.60</ele>
        <time>2014-11-01T11:17:20Z</time>
      </trkpt>
      <trkpt lat="42.430821000" lon="-2.441950000">
        <ele>424.50</ele>
        <time>2014-11-01T11:17:21Z</time>
      </trkpt>
      <trkpt lat="42.430875000" lon="-2.441982000">
        <ele>424.50</ele>
        <time>2014-11-01T11:17:22Z</time>
      </trkpt>
      <trkpt lat="42.430928000" lon="-2.442015000">
        <ele>424.50</ele>
        <time>2014-11-01T11:17:23Z</time>
      </trkpt>
      <trkpt lat="42.430980000" lon="-2.442057000">
        <ele>424.40</ele>
        <time>2014-11-01T11:17:24Z</time>
      </trkpt>
      <trkpt lat="42.431031000" lon="-2.442101000">
        <ele>424.40</ele>
        <time>2014-11-01T11:17:25Z</time>
      </trkpt>
      <trkpt lat="42.431080000" lon="-2.442150000">
        <ele>424.40</ele>
        <time>2014-11-01T11:17:26Z</time>
      </trkpt>
      <trkpt lat="42.431128000" lon="-2.442202000">
        <ele>424.40</ele>
        <time>2014-11-01T11:17:27Z</time>
      </trkpt>
      <trkpt lat="42.431175000" lon="-2.442255000">
        <ele>424.50</ele>
        <time>2014-11-01T11:17:28Z</time>
      </trkpt>
      <trkpt lat="42.431223000" lon="-2.442309000">
        <ele>424.50</ele>
        <time>2014-11-01T11:17:29Z</time>
      </trkpt>
      <trkpt lat="42.431271000" lon="-2.442357000">
        <ele>424.60</ele>
        <time>2014-11-01T11:17:30Z</time>
      </trkpt>
      <trkpt lat="42.431323000" lon="-2.442401000">
        <ele>424.60</ele>
        <time>2014-11-01T11:17:31Z</time>
      </trkpt>
      <trkpt lat="42.431377000" lon="-2.442441000">
        <ele>424.20</ele>
        <time>2014-11-01T11:17:32Z</time>
      </trkpt>
      <trkpt lat="42.431434000" lon="-2.442477000">
        <ele>424.00</ele>
        <time>2014-11-01T11:17:33Z</time>
      </trkpt>
      <trkpt lat="42.431491000" lon="-2.442509000">
        <ele>423.80</ele>
        <time>2014-11-01T11:17:34Z</time>
      </trkpt>
      <trkpt lat="42.431550000" lon="-2.442537000">
        <ele>423.70</ele>
        <time>2014-11-01T11:17:35Z</time>
      </trkpt>
      <trkpt lat="42.431608000" lon="-2.442566000">
        <ele>423.50</ele>
        <time>2014-11-01T11:17:36Z</time>
      </trkpt>
      <trkpt lat="42.431666000" lon="-2.442597000">
        <ele>423.50</ele>
        <time>2014-11-01T11:17:37Z</time>
      </trkpt>
      <trkpt lat="42.431722000" lon="-2.442626000">
        <ele>423.50</ele>
        <time>2014-11-01T11:17:38Z</time>
      </trkpt>
      <trkpt lat="42.431781000" lon="-2.442654000">
        <ele>423.50</ele>
        <time>2014-11-01T11:17:39Z</time>
      </trkpt>
      <trkpt lat="42.431839000" lon="-2.442683000">
        <ele>423.50</ele>
        <time>2014-11-01T11:17:40Z</time>
      </trkpt>
      <trkpt lat="42.431952000" lon="-2.442752000">
        <ele>423.50</ele>
        <time>2014-11-01T11:17:42Z</time>
      </trkpt>
      <trkpt lat="42.432006000" lon="-2.442788000">
        <ele>423.50</ele>
        <time>2014-11-01T11:17:43Z</time>
      </trkpt>
      <trkpt lat="42.432060000" lon="-2.442825000">
        <ele>423.20</ele>
        <time>2014-11-01T11:17:44Z</time>
      </trkpt>
      <trkpt lat="42.432115000" lon="-2.442862000">
        <ele>423.00</ele>
        <time>2014-11-01T11:17:45Z</time>
      </trkpt>
      <trkpt lat="42.432171000" lon="-2.442899000">
        <ele>422.90</ele>
        <time>2014-11-01T11:17:46Z</time>
      </trkpt>
      <trkpt lat="42.432225000" lon="-2.442935000">
        <ele>422.80</ele>
        <time>2014-11-01T11:17:47Z</time>
      </trkpt>
      <trkpt lat="42.432281000" lon="-2.442969000">
        <ele>423.00</ele>
        <time>2014-11-01T11:17:48Z</time>
      </trkpt>
      <trkpt lat="42.432337000" lon="-2.443003000">
        <ele>423.10</ele>
        <time>2014-11-01T11:17:49Z</time>
      </trkpt>
      <trkpt lat="42.432392000" lon="-2.443035000">
        <ele>423.20</ele>
        <time>2014-11-01T11:17:50Z</time>
      </trkpt>
      <trkpt lat="42.432449000" lon="-2.443063000">
        <ele>423.30</ele>
        <time>2014-11-01T11:17:51Z</time>
      </trkpt>
      <trkpt lat="42.432507000" lon="-2.443088000">
        <ele>423.40</ele>
        <time>2014-11-01T11:17:52Z</time>
      </trkpt>
      <trkpt lat="42.432565000" lon="-2.443114000">
        <ele>423.40</ele>
        <time>2014-11-01T11:17:53Z</time>
      </trkpt>
      <trkpt lat="42.432625000" lon="-2.443135000">
        <ele>423.60</ele>
        <time>2014-11-01T11:17:54Z</time>
      </trkpt>
      <trkpt lat="42.432686000" lon="-2.443151000">
        <ele>423.70</ele>
        <time>2014-11-01T11:17:55Z</time>
      </trkpt>
      <trkpt lat="42.432748000" lon="-2.443163000">
        <ele>423.80</ele>
        <time>2014-11-01T11:17:56Z</time>
      </trkpt>
      <trkpt lat="42.432810000" lon="-2.443165000">
        <ele>423.90</ele>
        <time>2014-11-01T11:17:57Z</time>
      </trkpt>
      <trkpt lat="42.432872000" lon="-2.443156000">
        <ele>423.80</ele>
        <time>2014-11-01T11:17:58Z</time>
      </trkpt>
      <trkpt lat="42.432932000" lon="-2.443135000">
        <ele>423.70</ele>
        <time>2014-11-01T11:17:59Z</time>
      </trkpt>
      <trkpt lat="42.432989000" lon="-2.443106000">
        <ele>423.70</ele>
        <time>2014-11-01T11:18:00Z</time>
      </trkpt>
      <trkpt lat="42.433043000" lon="-2.443067000">
        <ele>423.70</ele>
        <time>2014-11-01T11:18:01Z</time>
      </trkpt>
      <trkpt lat="42.433090000" lon="-2.443020000">
        <ele>423.70</ele>
        <time>2014-11-01T11:18:02Z</time>
      </trkpt>
      <trkpt lat="42.433134000" lon="-2.442972000">
        <ele>423.70</ele>
        <time>2014-11-01T11:18:03Z</time>
      </trkpt>
      <trkpt lat="42.433180000" lon="-2.442926000">
        <ele>423.80</ele>
        <time>2014-11-01T11:18:04Z</time>
      </trkpt>
      <trkpt lat="42.433226000" lon="-2.442888000">
        <ele>423.80</ele>
        <time>2014-11-01T11:18:05Z</time>
      </trkpt>
      <trkpt lat="42.433275000" lon="-2.442854000">
        <ele>423.70</ele>
        <time>2014-11-01T11:18:06Z</time>
      </trkpt>
      <trkpt lat="42.433330000" lon="-2.442828000">
        <ele>423.70</ele>
        <time>2014-11-01T11:18:07Z</time>
      </trkpt>
      <trkpt lat="42.433387000" lon="-2.442813000">
        <ele>423.60</ele>
        <time>2014-11-01T11:18:08Z</time>
      </trkpt>
      <trkpt lat="42.433445000" lon="-2.442808000">
        <ele>423.60</ele>
        <time>2014-11-01T11:18:09Z</time>
      </trkpt>
      <trkpt lat="42.433504000" lon="-2.442812000">
        <ele>423.80</ele>
        <time>2014-11-01T11:18:10Z</time>
      </trkpt>
      <trkpt lat="42.433560000" lon="-2.442817000">
        <ele>423.90</ele>
        <time>2014-11-01T11:18:11Z</time>
      </trkpt>
      <trkpt lat="42.433610000" lon="-2.442829000">
        <ele>424.20</ele>
        <time>2014-11-01T11:18:12Z</time>
      </trkpt>
      <trkpt lat="42.433663000" lon="-2.442843000">
        <ele>424.40</ele>
        <time>2014-11-01T11:18:13Z</time>
      </trkpt>
      <trkpt lat="42.433715000" lon="-2.442853000">
        <ele>424.60</ele>
        <time>2014-11-01T11:18:14Z</time>
      </trkpt>
      <trkpt lat="42.433766000" lon="-2.442865000">
        <ele>424.70</ele>
        <time>2014-11-01T11:18:15Z</time>
      </trkpt>
      <trkpt lat="42.433818000" lon="-2.442878000">
        <ele>424.80</ele>
        <time>2014-11-01T11:18:16Z</time>
      </trkpt>
      <trkpt lat="42.433870000" lon="-2.442893000">
        <ele>424.80</ele>
        <time>2014-11-01T11:18:17Z</time>
      </trkpt>
      <trkpt lat="42.433924000" lon="-2.442909000">
        <ele>424.90</ele>
        <time>2014-11-01T11:18:18Z</time>
      </trkpt>
      <trkpt lat="42.433978000" lon="-2.442924000">
        <ele>424.90</ele>
        <time>2014-11-01T11:18:19Z</time>
      </trkpt>
      <trkpt lat="42.434032000" lon="-2.442938000">
        <ele>425.00</ele>
        <time>2014-11-01T11:18:20Z</time>
      </trkpt>
      <trkpt lat="42.434086000" lon="-2.442947000">
        <ele>425.10</ele>
        <time>2014-11-01T11:18:21Z</time>
      </trkpt>
      <trkpt lat="42.434141000" lon="-2.442959000">
        <ele>425.10</ele>
        <time>2014-11-01T11:18:22Z</time>
      </trkpt>
      <trkpt lat="42.434197000" lon="-2.442978000">
        <ele>425.20</ele>
        <time>2014-11-01T11:18:23Z</time>
      </trkpt>
      <trkpt lat="42.434255000" lon="-2.443010000">
        <ele>425.10</ele>
        <time>2014-11-01T11:18:24Z</time>
      </trkpt>
      <trkpt lat="42.434311000" lon="-2.443055000">
        <ele>425.10</ele>
        <time>2014-11-01T11:18:25Z</time>
      </trkpt>
      <trkpt lat="42.434365000" lon="-2.443117000">
        <ele>425.00</ele>
        <time>2014-11-01T11:18:26Z</time>
      </trkpt>
      <trkpt lat="42.434413000" lon="-2.443195000">
        <ele>425.00</ele>
        <time>2014-11-01T11:18:27Z</time>
      </trkpt>
      <trkpt lat="42.434440000" lon="-2.443293000">
        <ele>424.70</ele>
        <time>2014-11-01T11:18:28Z</time>
      </trkpt>
      <trkpt lat="42.434445000" lon="-2.443402000">
        <ele>424.50</ele>
        <time>2014-11-01T11:18:29Z</time>
      </trkpt>
      <trkpt lat="42.434455000" lon="-2.443512000">
        <ele>424.20</ele>
        <time>2014-11-01T11:18:30Z</time>
      </trkpt>
      <trkpt lat="42.434476000" lon="-2.443617000">
        <ele>424.10</ele>
        <time>2014-11-01T11:18:31Z</time>
      </trkpt>
      <trkpt lat="42.434511000" lon="-2.443711000">
        <ele>423.70</ele>
        <time>2014-11-01T11:18:32Z</time>
      </trkpt>
      <trkpt lat="42.434559000" lon="-2.443793000">
        <ele>423.40</ele>
        <time>2014-11-01T11:18:33Z</time>
      </trkpt>
      <trkpt lat="42.434609000" lon="-2.443870000">
        <ele>422.80</ele>
        <time>2014-11-01T11:18:34Z</time>
      </trkpt>
      <trkpt lat="42.434666000" lon="-2.443936000">
        <ele>422.30</ele>
        <time>2014-11-01T11:18:35Z</time>
      </trkpt>
      <trkpt lat="42.434725000" lon="-2.443998000">
        <ele>421.90</ele>
        <time>2014-11-01T11:18:36Z</time>
      </trkpt>
      <trkpt lat="42.434784000" lon="-2.444053000">
        <ele>421.50</ele>
        <time>2014-11-01T11:18:37Z</time>
      </trkpt>
      <trkpt lat="42.434845000" lon="-2.444103000">
        <ele>421.30</ele>
        <time>2014-11-01T11:18:38Z</time>
      </trkpt>
      <trkpt lat="42.434906000" lon="-2.444150000">
        <ele>421.10</ele>
        <time>2014-11-01T11:18:39Z</time>
      </trkpt>
      <trkpt lat="42.434967000" lon="-2.444194000">
        <ele>420.80</ele>
        <time>2014-11-01T11:18:40Z</time>
      </trkpt>
      <trkpt lat="42.435029000" lon="-2.444232000">
        <ele>420.60</ele>
        <time>2014-11-01T11:18:41Z</time>
      </trkpt>
      <trkpt lat="42.435150000" lon="-2.444301000">
        <ele>420.10</ele>
        <time>2014-11-01T11:18:43Z</time>
      </trkpt>
      <trkpt lat="42.435212000" lon="-2.444326000">
        <ele>419.90</ele>
        <time>2014-11-01T11:18:44Z</time>
      </trkpt>
      <trkpt lat="42.435277000" lon="-2.444343000">
        <ele>419.80</ele>
        <time>2014-11-01T11:18:45Z</time>
      </trkpt>
      <trkpt lat="42.435340000" lon="-2.444353000">
        <ele>419.80</ele>
        <time>2014-11-01T11:18:46Z</time>
      </trkpt>
      <trkpt lat="42.435405000" lon="-2.444363000">
        <ele>419.80</ele>
        <time>2014-11-01T11:18:47Z</time>
      </trkpt>
      <trkpt lat="42.435468000" lon="-2.444375000">
        <ele>419.90</ele>
        <time>2014-11-01T11:18:48Z</time>
      </trkpt>
      <trkpt lat="42.435530000" lon="-2.444391000">
        <ele>420.00</ele>
        <time>2014-11-01T11:18:49Z</time>
      </trkpt>
      <trkpt lat="42.435590000" lon="-2.444414000">
        <ele>420.10</ele>
        <time>2014-11-01T11:18:50Z</time>
      </trkpt>
      <trkpt lat="42.435648000" lon="-2.444444000">
        <ele>420.20</ele>
        <time>2014-11-01T11:18:51Z</time>
      </trkpt>
      <trkpt lat="42.435698000" lon="-2.444487000">
        <ele>420.20</ele>
        <time>2014-11-01T11:18:52Z</time>
      </trkpt>
      <trkpt lat="42.435743000" lon="-2.444535000">
        <ele>420.20</ele>
        <time>2014-11-01T11:18:53Z</time>
      </trkpt>
      <trkpt lat="42.435789000" lon="-2.444579000">
        <ele>420.10</ele>
        <time>2014-11-01T11:18:54Z</time>
      </trkpt>
      <trkpt lat="42.435834000" lon="-2.444618000">
        <ele>420.10</ele>
        <time>2014-11-01T11:18:55Z</time>
      </trkpt>
      <trkpt lat="42.435881000" lon="-2.444659000">
        <ele>420.00</ele>
        <time>2014-11-01T11:18:56Z</time>
      </trkpt>
      <trkpt lat="42.435925000" lon="-2.444703000">
        <ele>419.90</ele>
        <time>2014-11-01T11:18:57Z</time>
      </trkpt>
      <trkpt lat="42.435971000" lon="-2.444746000">
        <ele>419.80</ele>
        <time>2014-11-01T11:18:58Z</time>
      </trkpt>
      <trkpt lat="42.436017000" lon="-2.444790000">
        <ele>419.80</ele>
        <time>2014-11-01T11:18:59Z</time>
      </trkpt>
      <trkpt lat="42.436063000" lon="-2.444837000">
        <ele>419.60</ele>
        <time>2014-11-01T11:19:00Z</time>
      </trkpt>
      <trkpt lat="42.436107000" lon="-2.444886000">
        <ele>419.50</ele>
        <time>2014-11-01T11:19:01Z</time>
      </trkpt>
      <trkpt lat="42.436151000" lon="-2.444935000">
        <ele>419.40</ele>
        <time>2014-11-01T11:19:02Z</time>
      </trkpt>
      <trkpt lat="42.436194000" lon="-2.444986000">
        <ele>419.30</ele>
        <time>2014-11-01T11:19:03Z</time>
      </trkpt>
      <trkpt lat="42.436236000" lon="-2.445034000">
        <ele>419.30</ele>
        <time>2014-11-01T11:19:04Z</time>
      </trkpt>
      <trkpt lat="42.436278000" lon="-2.445082000">
        <ele>419.30</ele>
        <time>2014-11-01T11:19:05Z</time>
      </trkpt>
      <trkpt lat="42.436321000" lon="-2.445130000">
        <ele>419.20</ele>
        <time>2014-11-01T11:19:06Z</time>
      </trkpt>
      <trkpt lat="42.436363000" lon="-2.445175000">
        <ele>419.10</ele>
        <time>2014-11-01T11:19:07Z</time>
      </trkpt>
      <trkpt lat="42.436401000" lon="-2.445221000">
        <ele>419.00</ele>
        <time>2014-11-01T11:19:08Z</time>
      </trkpt>
      <trkpt lat="42.436439000" lon="-2.445269000">
        <ele>418.90</ele>
        <time>2014-11-01T11:19:09Z</time>
      </trkpt>
      <trkpt lat="42.436476000" lon="-2.445313000">
        <ele>418.90</ele>
        <time>2014-11-01T11:19:10Z</time>
      </trkpt>
      <trkpt lat="42.436507000" lon="-2.445356000">
        <ele>418.90</ele>
        <time>2014-11-01T11:19:11Z</time>
      </trkpt>
      <trkpt lat="42.436537000" lon="-2.445397000">
        <ele>419.00</ele>
        <time>2014-11-01T11:19:12Z</time>
      </trkpt>
      <trkpt lat="42.436566000" lon="-2.445434000">
        <ele>419.10</ele>
        <time>2014-11-01T11:19:13Z</time>
      </trkpt>
      <trkpt lat="42.436594000" lon="-2.445472000">
        <ele>419.30</ele>
        <time>2014-11-01T11:19:14Z</time>
      </trkpt>
      <trkpt lat="42.436621000" lon="-2.445509000">
        <ele>419.40</ele>
        <time>2014-11-01T11:19:15Z</time>
      </trkpt>
      <trkpt lat="42.436650000" lon="-2.445546000">
        <ele>419.60</ele>
        <time>2014-11-01T11:19:16Z</time>
      </trkpt>
      <trkpt lat="42.436677000" lon="-2.445576000">
        <ele>419.70</ele>
        <time>2014-11-01T11:19:17Z</time>
      </trkpt>
      <trkpt lat="42.436712000" lon="-2.445589000">
        <ele>419.70</ele>
        <time>2014-11-01T11:19:18Z</time>
      </trkpt>
      <trkpt lat="42.436749000" lon="-2.445583000">
        <ele>419.70</ele>
        <time>2014-11-01T11:19:19Z</time>
      </trkpt>
      <trkpt lat="42.436788000" lon="-2.445570000">
        <ele>419.60</ele>
        <time>2014-11-01T11:19:20Z</time>
      </trkpt>
      <trkpt lat="42.436828000" lon="-2.445550000">
        <ele>419.50</ele>
        <time>2014-11-01T11:19:21Z</time>
      </trkpt>
      <trkpt lat="42.436870000" lon="-2.445527000">
        <ele>419.50</ele>
        <time>2014-11-01T11:19:22Z</time>
      </trkpt>
      <trkpt lat="42.436914000" lon="-2.445505000">
        <ele>419.40</ele>
        <time>2014-11-01T11:19:23Z</time>
      </trkpt>
      <trkpt lat="42.436962000" lon="-2.445487000">
        <ele>419.40</ele>
        <time>2014-11-01T11:19:24Z</time>
      </trkpt>
      <trkpt lat="42.437011000" lon="-2.445466000">
        <ele>419.50</ele>
        <time>2014-11-01T11:19:25Z</time>
      </trkpt>
      <trkpt lat="42.437060000" lon="-2.445447000">
        <ele>419.50</ele>
        <time>2014-11-01T11:19:26Z</time>
      </trkpt>
      <trkpt lat="42.437113000" lon="-2.445426000">
        <ele>419.50</ele>
        <time>2014-11-01T11:19:27Z</time>
      </trkpt>
      <trkpt lat="42.437164000" lon="-2.445405000">
        <ele>419.30</ele>
        <time>2014-11-01T11:19:28Z</time>
      </trkpt>
      <trkpt lat="42.437216000" lon="-2.445384000">
        <ele>419.20</ele>
        <time>2014-11-01T11:19:29Z</time>
      </trkpt>
      <trkpt lat="42.437267000" lon="-2.445361000">
        <ele>419.10</ele>
        <time>2014-11-01T11:19:30Z</time>
      </trkpt>
      <trkpt lat="42.437318000" lon="-2.445338000">
        <ele>419.00</ele>
        <time>2014-11-01T11:19:31Z</time>
      </trkpt>
      <trkpt lat="42.437370000" lon="-2.445320000">
        <ele>418.90</ele>
        <time>2014-11-01T11:19:32Z</time>
      </trkpt>
      <trkpt lat="42.437422000" lon="-2.445300000">
        <ele>418.90</ele>
        <time>2014-11-01T11:19:33Z</time>
      </trkpt>
      <trkpt lat="42.437474000" lon="-2.445280000">
        <ele>418.90</ele>
        <time>2014-11-01T11:19:34Z</time>
      </trkpt>
      <trkpt lat="42.437526000" lon="-2.445259000">
        <ele>418.80</ele>
        <time>2014-11-01T11:19:35Z</time>
      </trkpt>
      <trkpt lat="42.437577000" lon="-2.445239000">
        <ele>418.70</ele>
        <time>2014-11-01T11:19:36Z</time>
      </trkpt>
      <trkpt lat="42.437627000" lon="-2.445219000">
        <ele>418.70</ele>
        <time>2014-11-01T11:19:37Z</time>
      </trkpt>
      <trkpt lat="42.437678000" lon="-2.445199000">
        <ele>418.80</ele>
        <time>2014-11-01T11:19:38Z</time>
      </trkpt>
      <trkpt lat="42.437731000" lon="-2.445180000">
        <ele>418.80</ele>
        <time>2014-11-01T11:19:39Z</time>
      </trkpt>
      <trkpt lat="42.437783000" lon="-2.445160000">
        <ele>418.60</ele>
        <time>2014-11-01T11:19:40Z</time>
      </trkpt>
      <trkpt lat="42.437838000" lon="-2.445137000">
        <ele>418.50</ele>
        <time>2014-11-01T11:19:41Z</time>
      </trkpt>
      <trkpt lat="42.437893000" lon="-2.445116000">
        <ele>418.50</ele>
        <time>2014-11-01T11:19:42Z</time>
      </trkpt>
      <trkpt lat="42.438008000" lon="-2.445080000">
        <ele>418.40</ele>
        <time>2014-11-01T11:19:44Z</time>
      </trkpt>
      <trkpt lat="42.438065000" lon="-2.445063000">
        <ele>418.40</ele>
        <time>2014-11-01T11:19:45Z</time>
      </trkpt>
      <trkpt lat="42.438122000" lon="-2.445039000">
        <ele>418.30</ele>
        <time>2014-11-01T11:19:46Z</time>
      </trkpt>
      <trkpt lat="42.438178000" lon="-2.445016000">
        <ele>418.30</ele>
        <time>2014-11-01T11:19:47Z</time>
      </trkpt>
      <trkpt lat="42.438233000" lon="-2.444997000">
        <ele>418.10</ele>
        <time>2014-11-01T11:19:48Z</time>
      </trkpt>
      <trkpt lat="42.438289000" lon="-2.444979000">
        <ele>417.90</ele>
        <time>2014-11-01T11:19:49Z</time>
      </trkpt>
      <trkpt lat="42.438345000" lon="-2.444961000">
        <ele>417.80</ele>
        <time>2014-11-01T11:19:50Z</time>
      </trkpt>
      <trkpt lat="42.438402000" lon="-2.444944000">
        <ele>417.70</ele>
        <time>2014-11-01T11:19:51Z</time>
      </trkpt>
      <trkpt lat="42.438459000" lon="-2.444928000">
        <ele>417.70</ele>
        <time>2014-11-01T11:19:52Z</time>
      </trkpt>
      <trkpt lat="42.438515000" lon="-2.444911000">
        <ele>417.60</ele>
        <time>2014-11-01T11:19:53Z</time>
      </trkpt>
      <trkpt lat="42.438570000" lon="-2.444890000">
        <ele>417.60</ele>
        <time>2014-11-01T11:19:54Z</time>
      </trkpt>
      <trkpt lat="42.438623000" lon="-2.444868000">
        <ele>417.60</ele>
        <time>2014-11-01T11:19:55Z</time>
      </trkpt>
      <trkpt lat="42.438676000" lon="-2.444845000">
        <ele>417.50</ele>
        <time>2014-11-01T11:19:56Z</time>
      </trkpt>
      <trkpt lat="42.438730000" lon="-2.444823000">
        <ele>417.50</ele>
        <time>2014-11-01T11:19:57Z</time>
      </trkpt>
      <trkpt lat="42.438784000" lon="-2.444806000">
        <ele>417.40</ele>
        <time>2014-11-01T11:19:58Z</time>
      </trkpt>
      <trkpt lat="42.438840000" lon="-2.444790000">
        <ele>417.40</ele>
        <time>2014-11-01T11:19:59Z</time>
      </trkpt>
      <trkpt lat="42.438897000" lon="-2.444773000">
        <ele>417.30</ele>
        <time>2014-11-01T11:20:00Z</time>
      </trkpt>
      <trkpt lat="42.438956000" lon="-2.444756000">
        <ele>417.30</ele>
        <time>2014-11-01T11:20:01Z</time>
      </trkpt>
      <trkpt lat="42.439015000" lon="-2.444739000">
        <ele>417.30</ele>
        <time>2014-11-01T11:20:02Z</time>
      </trkpt>
      <trkpt lat="42.439075000" lon="-2.444722000">
        <ele>417.30</ele>
        <time>2014-11-01T11:20:03Z</time>
      </trkpt>
      <trkpt lat="42.439137000" lon="-2.444705000">
        <ele>417.10</ele>
        <time>2014-11-01T11:20:04Z</time>
      </trkpt>
      <trkpt lat="42.439198000" lon="-2.444692000">
        <ele>417.00</ele>
        <time>2014-11-01T11:20:05Z</time>
      </trkpt>
      <trkpt lat="42.439261000" lon="-2.444678000">
        <ele>416.90</ele>
        <time>2014-11-01T11:20:06Z</time>
      </trkpt>
      <trkpt lat="42.439324000" lon="-2.444666000">
        <ele>416.90</ele>
        <time>2014-11-01T11:20:07Z</time>
      </trkpt>
      <trkpt lat="42.439387000" lon="-2.444654000">
        <ele>416.80</ele>
        <time>2014-11-01T11:20:08Z</time>
      </trkpt>
      <trkpt lat="42.439452000" lon="-2.444642000">
        <ele>416.70</ele>
        <time>2014-11-01T11:20:09Z</time>
      </trkpt>
      <trkpt lat="42.439516000" lon="-2.444631000">
        <ele>416.60</ele>
        <time>2014-11-01T11:20:10Z</time>
      </trkpt>
      <trkpt lat="42.439582000" lon="-2.444621000">
        <ele>416.60</ele>
        <time>2014-11-01T11:20:11Z</time>
      </trkpt>
      <trkpt lat="42.439648000" lon="-2.444610000">
        <ele>416.50</ele>
        <time>2014-11-01T11:20:12Z</time>
      </trkpt>
      <trkpt lat="42.439714000" lon="-2.444597000">
        <ele>416.50</ele>
        <time>2014-11-01T11:20:13Z</time>
      </trkpt>
      <trkpt lat="42.439780000" lon="-2.444584000">
        <ele>416.50</ele>
        <time>2014-11-01T11:20:14Z</time>
      </trkpt>
      <trkpt lat="42.439848000" lon="-2.444574000">
        <ele>416.50</ele>
        <time>2014-11-01T11:20:15Z</time>
      </trkpt>
      <trkpt lat="42.439914000" lon="-2.444564000">
        <ele>416.50</ele>
        <time>2014-11-01T11:20:16Z</time>
      </trkpt>
      <trkpt lat="42.439980000" lon="-2.444554000">
        <ele>416.50</ele>
        <time>2014-11-01T11:20:17Z</time>
      </trkpt>
      <trkpt lat="42.440045000" lon="-2.444548000">
        <ele>416.20</ele>
        <time>2014-11-01T11:20:18Z</time>
      </trkpt>
      <trkpt lat="42.440110000" lon="-2.444540000">
        <ele>416.00</ele>
        <time>2014-11-01T11:20:19Z</time>
      </trkpt>
      <trkpt lat="42.440174000" lon="-2.444527000">
        <ele>415.90</ele>
        <time>2014-11-01T11:20:20Z</time>
      </trkpt>
      <trkpt lat="42.440237000" lon="-2.444517000">
        <ele>415.70</ele>
        <time>2014-11-01T11:20:21Z</time>
      </trkpt>
      <trkpt lat="42.440300000" lon="-2.444510000">
        <ele>415.50</ele>
        <time>2014-11-01T11:20:22Z</time>
      </trkpt>
      <trkpt lat="42.440364000" lon="-2.444506000">
        <ele>415.40</ele>
        <time>2014-11-01T11:20:23Z</time>
      </trkpt>
      <trkpt lat="42.440430000" lon="-2.444506000">
        <ele>415.40</ele>
        <time>2014-11-01T11:20:24Z</time>
      </trkpt>
      <trkpt lat="42.440498000" lon="-2.444510000">
        <ele>415.40</ele>
        <time>2014-11-01T11:20:25Z</time>
      </trkpt>
      <trkpt lat="42.440566000" lon="-2.444518000">
        <ele>415.50</ele>
        <time>2014-11-01T11:20:26Z</time>
      </trkpt>
      <trkpt lat="42.440634000" lon="-2.444524000">
        <ele>415.60</ele>
        <time>2014-11-01T11:20:27Z</time>
      </trkpt>
      <trkpt lat="42.440703000" lon="-2.444531000">
        <ele>415.70</ele>
        <time>2014-11-01T11:20:28Z</time>
      </trkpt>
      <trkpt lat="42.440773000" lon="-2.444540000">
        <ele>415.80</ele>
        <time>2014-11-01T11:20:29Z</time>
      </trkpt>
      <trkpt lat="42.440843000" lon="-2.444549000">
        <ele>415.80</ele>
        <time>2014-11-01T11:20:30Z</time>
      </trkpt>
      <trkpt lat="42.440911000" lon="-2.444555000">
        <ele>415.80</ele>
        <time>2014-11-01T11:20:31Z</time>
      </trkpt>
      <trkpt lat="42.440980000" lon="-2.444560000">
        <ele>415.50</ele>
        <time>2014-11-01T11:20:32Z</time>
      </trkpt>
      <trkpt lat="42.441049000" lon="-2.444560000">
        <ele>415.20</ele>
        <time>2014-11-01T11:20:33Z</time>
      </trkpt>
      <trkpt lat="42.441116000" lon="-2.444557000">
        <ele>415.00</ele>
        <time>2014-11-01T11:20:34Z</time>
      </trkpt>
      <trkpt lat="42.441182000" lon="-2.444548000">
        <ele>414.80</ele>
        <time>2014-11-01T11:20:35Z</time>
      </trkpt>
      <trkpt lat="42.441245000" lon="-2.444534000">
        <ele>414.70</ele>
        <time>2014-11-01T11:20:36Z</time>
      </trkpt>
      <trkpt lat="42.441306000" lon="-2.444512000">
        <ele>414.60</ele>
        <time>2014-11-01T11:20:37Z</time>
      </trkpt>
      <trkpt lat="42.441365000" lon="-2.444487000">
        <ele>414.50</ele>
        <time>2014-11-01T11:20:38Z</time>
      </trkpt>
      <trkpt lat="42.441423000" lon="-2.444457000">
        <ele>414.40</ele>
        <time>2014-11-01T11:20:39Z</time>
      </trkpt>
      <trkpt lat="42.441483000" lon="-2.444428000">
        <ele>414.30</ele>
        <time>2014-11-01T11:20:40Z</time>
      </trkpt>
      <trkpt lat="42.441544000" lon="-2.444401000">
        <ele>414.30</ele>
        <time>2014-11-01T11:20:41Z</time>
      </trkpt>
      <trkpt lat="42.441608000" lon="-2.444374000">
        <ele>414.10</ele>
        <time>2014-11-01T11:20:42Z</time>
      </trkpt>
      <trkpt lat="42.441670000" lon="-2.444347000">
        <ele>413.90</ele>
        <time>2014-11-01T11:20:43Z</time>
      </trkpt>
      <trkpt lat="42.441796000" lon="-2.444302000">
        <ele>413.70</ele>
        <time>2014-11-01T11:20:45Z</time>
      </trkpt>
      <trkpt lat="42.441859000" lon="-2.444280000">
        <ele>413.50</ele>
        <time>2014-11-01T11:20:46Z</time>
      </trkpt>
      <trkpt lat="42.441921000" lon="-2.444259000">
        <ele>413.40</ele>
        <time>2014-11-01T11:20:47Z</time>
      </trkpt>
      <trkpt lat="42.441984000" lon="-2.444233000">
        <ele>413.30</ele>
        <time>2014-11-01T11:20:48Z</time>
      </trkpt>
      <trkpt lat="42.442044000" lon="-2.444209000">
        <ele>413.20</ele>
        <time>2014-11-01T11:20:49Z</time>
      </trkpt>
      <trkpt lat="42.442103000" lon="-2.444186000">
        <ele>413.00</ele>
        <time>2014-11-01T11:20:50Z</time>
      </trkpt>
      <trkpt lat="42.442161000" lon="-2.444163000">
        <ele>412.80</ele>
        <time>2014-11-01T11:20:51Z</time>
      </trkpt>
      <trkpt lat="42.442215000" lon="-2.444139000">
        <ele>412.60</ele>
        <time>2014-11-01T11:20:52Z</time>
      </trkpt>
      <trkpt lat="42.442269000" lon="-2.444113000">
        <ele>412.50</ele>
        <time>2014-11-01T11:20:53Z</time>
      </trkpt>
      <trkpt lat="42.442322000" lon="-2.444087000">
        <ele>412.40</ele>
        <time>2014-11-01T11:20:54Z</time>
      </trkpt>
      <trkpt lat="42.442375000" lon="-2.444059000">
        <ele>412.40</ele>
        <time>2014-11-01T11:20:55Z</time>
      </trkpt>
      <trkpt lat="42.442429000" lon="-2.444032000">
        <ele>412.30</ele>
        <time>2014-11-01T11:20:56Z</time>
      </trkpt>
      <trkpt lat="42.442484000" lon="-2.444006000">
        <ele>412.30</ele>
        <time>2014-11-01T11:20:57Z</time>
      </trkpt>
      <trkpt lat="42.442542000" lon="-2.443977000">
        <ele>412.20</ele>
        <time>2014-11-01T11:20:58Z</time>
      </trkpt>
      <trkpt lat="42.442602000" lon="-2.443952000">
        <ele>412.20</ele>
        <time>2014-11-01T11:20:59Z</time>
      </trkpt>
      <trkpt lat="42.442660000" lon="-2.443930000">
        <ele>412.20</ele>
        <time>2014-11-01T11:21:00Z</time>
      </trkpt>
      <trkpt lat="42.442719000" lon="-2.443910000">
        <ele>412.30</ele>
        <time>2014-11-01T11:21:01Z</time>
      </trkpt>
      <trkpt lat="42.442782000" lon="-2.443904000">
        <ele>412.20</ele>
        <time>2014-11-01T11:21:02Z</time>
      </trkpt>
      <trkpt lat="42.442843000" lon="-2.443910000">
        <ele>412.10</ele>
        <time>2014-11-01T11:21:03Z</time>
      </trkpt>
      <trkpt lat="42.442904000" lon="-2.443919000">
        <ele>412.20</ele>
        <time>2014-11-01T11:21:04Z</time>
      </trkpt>
      <trkpt lat="42.442967000" lon="-2.443936000">
        <ele>412.30</ele>
        <time>2014-11-01T11:21:05Z</time>
      </trkpt>
      <trkpt lat="42.443028000" lon="-2.443957000">
        <ele>412.20</ele>
        <time>2014-11-01T11:21:06Z</time>
      </trkpt>
      <trkpt lat="42.443090000" lon="-2.443979000">
        <ele>412.10</ele>
        <time>2014-11-01T11:21:07Z</time>
      </trkpt>
      <trkpt lat="42.443149000" lon="-2.443999000">
        <ele>412.00</ele>
        <time>2014-11-01T11:21:08Z</time>
      </trkpt>
      <trkpt lat="42.443210000" lon="-2.444013000">
        <ele>411.90</ele>
        <time>2014-11-01T11:21:09Z</time>
      </trkpt>
      <trkpt lat="42.443273000" lon="-2.444021000">
        <ele>411.60</ele>
        <time>2014-11-01T11:21:10Z</time>
      </trkpt>
      <trkpt lat="42.443338000" lon="-2.444027000">
        <ele>411.30</ele>
        <time>2014-11-01T11:21:11Z</time>
      </trkpt>
      <trkpt lat="42.443403000" lon="-2.444027000">
        <ele>411.20</ele>
        <time>2014-11-01T11:21:12Z</time>
      </trkpt>
      <trkpt lat="42.443463000" lon="-2.444018000">
        <ele>411.00</ele>
        <time>2014-11-01T11:21:13Z</time>
      </trkpt>
      <trkpt lat="42.443515000" lon="-2.444003000">
        <ele>411.00</ele>
        <time>2014-11-01T11:21:14Z</time>
      </trkpt>
      <trkpt lat="42.443566000" lon="-2.443991000">
        <ele>411.00</ele>
        <time>2014-11-01T11:21:15Z</time>
      </trkpt>
      <trkpt lat="42.443621000" lon="-2.443978000">
        <ele>411.00</ele>
        <time>2014-11-01T11:21:16Z</time>
      </trkpt>
      <trkpt lat="42.443679000" lon="-2.443973000">
        <ele>411.00</ele>
        <time>2014-11-01T11:21:17Z</time>
      </trkpt>
      <trkpt lat="42.443738000" lon="-2.443972000">
        <ele>410.90</ele>
        <time>2014-11-01T11:21:18Z</time>
      </trkpt>
      <trkpt lat="42.443799000" lon="-2.443983000">
        <ele>410.80</ele>
        <time>2014-11-01T11:21:19Z</time>
      </trkpt>
      <trkpt lat="42.443863000" lon="-2.443998000">
        <ele>410.70</ele>
        <time>2014-11-01T11:21:20Z</time>
      </trkpt>
      <trkpt lat="42.443932000" lon="-2.444010000">
        <ele>410.60</ele>
        <time>2014-11-01T11:21:21Z</time>
      </trkpt>
      <trkpt lat="42.444001000" lon="-2.444016000">
        <ele>410.30</ele>
        <time>2014-11-01T11:21:22Z</time>
      </trkpt>
      <trkpt lat="42.444069000" lon="-2.444022000">
        <ele>410.10</ele>
        <time>2014-11-01T11:21:23Z</time>
      </trkpt>
      <trkpt lat="42.444138000" lon="-2.444023000">
        <ele>410.10</ele>
        <time>2014-11-01T11:21:24Z</time>
      </trkpt>
      <trkpt lat="42.444202000" lon="-2.444021000">
        <ele>410.20</ele>
        <time>2014-11-01T11:21:25Z</time>
      </trkpt>
      <trkpt lat="42.444268000" lon="-2.444016000">
        <ele>410.10</ele>
        <time>2014-11-01T11:21:26Z</time>
      </trkpt>
      <trkpt lat="42.444333000" lon="-2.444004000">
        <ele>410.00</ele>
        <time>2014-11-01T11:21:27Z</time>
      </trkpt>
      <trkpt lat="42.444396000" lon="-2.443990000">
        <ele>409.90</ele>
        <time>2014-11-01T11:21:28Z</time>
      </trkpt>
      <trkpt lat="42.444458000" lon="-2.443971000">
        <ele>409.90</ele>
        <time>2014-11-01T11:21:29Z</time>
      </trkpt>
      <trkpt lat="42.444520000" lon="-2.443955000">
        <ele>409.70</ele>
        <time>2014-11-01T11:21:30Z</time>
      </trkpt>
      <trkpt lat="42.444576000" lon="-2.443943000">
        <ele>409.60</ele>
        <time>2014-11-01T11:21:31Z</time>
      </trkpt>
      <trkpt lat="42.444625000" lon="-2.443934000">
        <ele>409.50</ele>
        <time>2014-11-01T11:21:32Z</time>
      </trkpt>
      <trkpt lat="42.444673000" lon="-2.443924000">
        <ele>409.30</ele>
        <time>2014-11-01T11:21:33Z</time>
      </trkpt>
      <trkpt lat="42.444726000" lon="-2.443911000">
        <ele>409.20</ele>
        <time>2014-11-01T11:21:34Z</time>
      </trkpt>
      <trkpt lat="42.444784000" lon="-2.443908000">
        <ele>409.20</ele>
        <time>2014-11-01T11:21:35Z</time>
      </trkpt>
      <trkpt lat="42.444847000" lon="-2.443910000">
        <ele>409.10</ele>
        <time>2014-11-01T11:21:36Z</time>
      </trkpt>
      <trkpt lat="42.444915000" lon="-2.443909000">
        <ele>409.10</ele>
        <time>2014-11-01T11:21:37Z</time>
      </trkpt>
      <trkpt lat="42.444981000" lon="-2.443907000">
        <ele>409.10</ele>
        <time>2014-11-01T11:21:38Z</time>
      </trkpt>
      <trkpt lat="42.445050000" lon="-2.443903000">
        <ele>409.20</ele>
        <time>2014-11-01T11:21:39Z</time>
      </trkpt>
      <trkpt lat="42.445120000" lon="-2.443898000">
        <ele>409.20</ele>
        <time>2014-11-01T11:21:40Z</time>
      </trkpt>
      <trkpt lat="42.445185000" lon="-2.443889000">
        <ele>409.20</ele>
        <time>2014-11-01T11:21:41Z</time>
      </trkpt>
      <trkpt lat="42.445250000" lon="-2.443884000">
        <ele>409.20</ele>
        <time>2014-11-01T11:21:42Z</time>
      </trkpt>
      <trkpt lat="42.445314000" lon="-2.443875000">
        <ele>409.20</ele>
        <time>2014-11-01T11:21:43Z</time>
      </trkpt>
      <trkpt lat="42.445376000" lon="-2.443867000">
        <ele>409.20</ele>
        <time>2014-11-01T11:21:44Z</time>
      </trkpt>
      <trkpt lat="42.445495000" lon="-2.443850000">
        <ele>409.00</ele>
        <time>2014-11-01T11:21:46Z</time>
      </trkpt>
      <trkpt lat="42.445551000" lon="-2.443847000">
        <ele>408.80</ele>
        <time>2014-11-01T11:21:47Z</time>
      </trkpt>
      <trkpt lat="42.445606000" lon="-2.443842000">
        <ele>408.60</ele>
        <time>2014-11-01T11:21:48Z</time>
      </trkpt>
      <trkpt lat="42.445660000" lon="-2.443839000">
        <ele>408.40</ele>
        <time>2014-11-01T11:21:49Z</time>
      </trkpt>
      <trkpt lat="42.445716000" lon="-2.443834000">
        <ele>408.20</ele>
        <time>2014-11-01T11:21:50Z</time>
      </trkpt>
      <trkpt lat="42.445773000" lon="-2.443829000">
        <ele>408.10</ele>
        <time>2014-11-01T11:21:51Z</time>
      </trkpt>
      <trkpt lat="42.445830000" lon="-2.443823000">
        <ele>408.10</ele>
        <time>2014-11-01T11:21:52Z</time>
      </trkpt>
      <trkpt lat="42.445887000" lon="-2.443815000">
        <ele>408.10</ele>
        <time>2014-11-01T11:21:53Z</time>
      </trkpt>
      <trkpt lat="42.445946000" lon="-2.443806000">
        <ele>408.10</ele>
        <time>2014-11-01T11:21:54Z</time>
      </trkpt>
      <trkpt lat="42.446004000" lon="-2.443801000">
        <ele>408.10</ele>
        <time>2014-11-01T11:21:55Z</time>
      </trkpt>
      <trkpt lat="42.446061000" lon="-2.443800000">
        <ele>407.90</ele>
        <time>2014-11-01T11:21:56Z</time>
      </trkpt>
      <trkpt lat="42.446118000" lon="-2.443801000">
        <ele>407.80</ele>
        <time>2014-11-01T11:21:57Z</time>
      </trkpt>
      <trkpt lat="42.446175000" lon="-2.443812000">
        <ele>407.80</ele>
        <time>2014-11-01T11:21:58Z</time>
      </trkpt>
      <trkpt lat="42.446231000" lon="-2.443836000">
        <ele>407.70</ele>
        <time>2014-11-01T11:21:59Z</time>
      </trkpt>
      <trkpt lat="42.446286000" lon="-2.443865000">
        <ele>407.70</ele>
        <time>2014-11-01T11:22:00Z</time>
      </trkpt>
      <trkpt lat="42.446337000" lon="-2.443897000">
        <ele>407.60</ele>
        <time>2014-11-01T11:22:01Z</time>
      </trkpt>
      <trkpt lat="42.446390000" lon="-2.443930000">
        <ele>407.30</ele>
        <time>2014-11-01T11:22:02Z</time>
      </trkpt>
      <trkpt lat="42.446443000" lon="-2.443963000">
        <ele>407.10</ele>
        <time>2014-11-01T11:22:03Z</time>
      </trkpt>
      <trkpt lat="42.446497000" lon="-2.443997000">
        <ele>407.00</ele>
        <time>2014-11-01T11:22:04Z</time>
      </trkpt>
      <trkpt lat="42.446551000" lon="-2.444031000">
        <ele>406.90</ele>
        <time>2014-11-01T11:22:05Z</time>
      </trkpt>
      <trkpt lat="42.446606000" lon="-2.444062000">
        <ele>406.80</ele>
        <time>2014-11-01T11:22:06Z</time>
      </trkpt>
      <trkpt lat="42.446660000" lon="-2.444093000">
        <ele>406.80</ele>
        <time>2014-11-01T11:22:07Z</time>
      </trkpt>
      <trkpt lat="42.446713000" lon="-2.444127000">
        <ele>406.80</ele>
        <time>2014-11-01T11:22:08Z</time>
      </trkpt>
      <trkpt lat="42.446765000" lon="-2.444158000">
        <ele>406.80</ele>
        <time>2014-11-01T11:22:09Z</time>
      </trkpt>
      <trkpt lat="42.446819000" lon="-2.444190000">
        <ele>406.80</ele>
        <time>2014-11-01T11:22:10Z</time>
      </trkpt>
      <trkpt lat="42.446875000" lon="-2.444219000">
        <ele>406.80</ele>
        <time>2014-11-01T11:22:11Z</time>
      </trkpt>
      <trkpt lat="42.446932000" lon="-2.444244000">
        <ele>406.60</ele>
        <time>2014-11-01T11:22:12Z</time>
      </trkpt>
      <trkpt lat="42.446988000" lon="-2.444267000">
        <ele>406.50</ele>
        <time>2014-11-01T11:22:13Z</time>
      </trkpt>
      <trkpt lat="42.447045000" lon="-2.444291000">
        <ele>406.50</ele>
        <time>2014-11-01T11:22:14Z</time>
      </trkpt>
      <trkpt lat="42.447100000" lon="-2.444318000">
        <ele>406.40</ele>
        <time>2014-11-01T11:22:15Z</time>
      </trkpt>
      <trkpt lat="42.447153000" lon="-2.444344000">
        <ele>406.40</ele>
        <time>2014-11-01T11:22:16Z</time>
      </trkpt>
      <trkpt lat="42.447205000" lon="-2.444370000">
        <ele>406.30</ele>
        <time>2014-11-01T11:22:17Z</time>
      </trkpt>
      <trkpt lat="42.447255000" lon="-2.444399000">
        <ele>406.20</ele>
        <time>2014-11-01T11:22:18Z</time>
      </trkpt>
      <trkpt lat="42.447301000" lon="-2.444435000">
        <ele>406.10</ele>
        <time>2014-11-01T11:22:19Z</time>
      </trkpt>
      <trkpt lat="42.447343000" lon="-2.444472000">
        <ele>406.10</ele>
        <time>2014-11-01T11:22:20Z</time>
      </trkpt>
      <trkpt lat="42.447380000" lon="-2.444505000">
        <ele>406.00</ele>
        <time>2014-11-01T11:22:21Z</time>
      </trkpt>
      <trkpt lat="42.447410000" lon="-2.444534000">
        <ele>406.00</ele>
        <time>2014-11-01T11:22:22Z</time>
      </trkpt>
      <trkpt lat="42.447438000" lon="-2.444562000">
        <ele>406.00</ele>
        <time>2014-11-01T11:22:23Z</time>
      </trkpt>
      <trkpt lat="42.447466000" lon="-2.444599000">
        <ele>406.20</ele>
        <time>2014-11-01T11:22:24Z</time>
      </trkpt>
      <trkpt lat="42.447499000" lon="-2.444637000">
        <ele>406.30</ele>
        <time>2014-11-01T11:22:25Z</time>
      </trkpt>
      <trkpt lat="42.447531000" lon="-2.444683000">
        <ele>406.20</ele>
        <time>2014-11-01T11:22:26Z</time>
      </trkpt>
      <trkpt lat="42.447568000" lon="-2.444729000">
        <ele>406.20</ele>
        <time>2014-11-01T11:22:27Z</time>
      </trkpt>
      <trkpt lat="42.447610000" lon="-2.444772000">
        <ele>406.20</ele>
        <time>2014-11-01T11:22:28Z</time>
      </trkpt>
      <trkpt lat="42.447654000" lon="-2.444809000">
        <ele>406.20</ele>
        <time>2014-11-01T11:22:29Z</time>
      </trkpt>
      <trkpt lat="42.447702000" lon="-2.444845000">
        <ele>406.10</ele>
        <time>2014-11-01T11:22:30Z</time>
      </trkpt>
      <trkpt lat="42.447749000" lon="-2.444883000">
        <ele>406.00</ele>
        <time>2014-11-01T11:22:31Z</time>
      </trkpt>
      <trkpt lat="42.447795000" lon="-2.444924000">
        <ele>405.80</ele>
        <time>2014-11-01T11:22:32Z</time>
      </trkpt>
      <trkpt lat="42.447844000" lon="-2.444961000">
        <ele>405.70</ele>
        <time>2014-11-01T11:22:33Z</time>
      </trkpt>
      <trkpt lat="42.447894000" lon="-2.444997000">
        <ele>405.60</ele>
        <time>2014-11-01T11:22:34Z</time>
      </trkpt>
      <trkpt lat="42.447943000" lon="-2.445033000">
        <ele>405.50</ele>
        <time>2014-11-01T11:22:35Z</time>
      </trkpt>
      <trkpt lat="42.447992000" lon="-2.445070000">
        <ele>405.40</ele>
        <time>2014-11-01T11:22:36Z</time>
      </trkpt>
      <trkpt lat="42.448043000" lon="-2.445103000">
        <ele>405.40</ele>
        <time>2014-11-01T11:22:37Z</time>
      </trkpt>
      <trkpt lat="42.448096000" lon="-2.445136000">
        <ele>405.50</ele>
        <time>2014-11-01T11:22:38Z</time>
      </trkpt>
      <trkpt lat="42.448148000" lon="-2.445169000">
        <ele>405.50</ele>
        <time>2014-11-01T11:22:39Z</time>
      </trkpt>
      <trkpt lat="42.448204000" lon="-2.445199000">
        <ele>405.60</ele>
        <time>2014-11-01T11:22:40Z</time>
      </trkpt>
      <trkpt lat="42.448260000" lon="-2.445228000">
        <ele>405.60</ele>
        <time>2014-11-01T11:22:41Z</time>
      </trkpt>
      <trkpt lat="42.448312000" lon="-2.445252000">
        <ele>405.50</ele>
        <time>2014-11-01T11:22:42Z</time>
      </trkpt>
      <trkpt lat="42.448366000" lon="-2.445279000">
        <ele>405.40</ele>
        <time>2014-11-01T11:22:43Z</time>
      </trkpt>
      <trkpt lat="42.448422000" lon="-2.445302000">
        <ele>405.30</ele>
        <time>2014-11-01T11:22:44Z</time>
      </trkpt>
      <trkpt lat="42.448473000" lon="-2.445326000">
        <ele>405.30</ele>
        <time>2014-11-01T11:22:45Z</time>
      </trkpt>
      <trkpt lat="42.448574000" lon="-2.445372000">
        <ele>405.10</ele>
        <time>2014-11-01T11:22:47Z</time>
      </trkpt>
      <trkpt lat="42.448629000" lon="-2.445393000">
        <ele>405.00</ele>
        <time>2014-11-01T11:22:48Z</time>
      </trkpt>
      <trkpt lat="42.448688000" lon="-2.445410000">
        <ele>404.90</ele>
        <time>2014-11-01T11:22:49Z</time>
      </trkpt>
      <trkpt lat="42.448747000" lon="-2.445424000">
        <ele>404.60</ele>
        <time>2014-11-01T11:22:50Z</time>
      </trkpt>
      <trkpt lat="42.448810000" lon="-2.445440000">
        <ele>404.30</ele>
        <time>2014-11-01T11:22:51Z</time>
      </trkpt>
      <trkpt lat="42.448876000" lon="-2.445450000">
        <ele>404.10</ele>
        <time>2014-11-01T11:22:52Z</time>
      </trkpt>
      <trkpt lat="42.448942000" lon="-2.445455000">
        <ele>404.00</ele>
        <time>2014-11-01T11:22:53Z</time>
      </trkpt>
      <trkpt lat="42.449010000" lon="-2.445457000">
        <ele>404.20</ele>
        <time>2014-11-01T11:22:54Z</time>
      </trkpt>
      <trkpt lat="42.449076000" lon="-2.445451000">
        <ele>404.30</ele>
        <time>2014-11-01T11:22:55Z</time>
      </trkpt>
      <trkpt lat="42.449140000" lon="-2.445443000">
        <ele>404.50</ele>
        <time>2014-11-01T11:22:56Z</time>
      </trkpt>
      <trkpt lat="42.449203000" lon="-2.445436000">
        <ele>404.60</ele>
        <time>2014-11-01T11:22:57Z</time>
      </trkpt>
      <trkpt lat="42.449259000" lon="-2.445429000">
        <ele>404.60</ele>
        <time>2014-11-01T11:22:58Z</time>
      </trkpt>
      <trkpt lat="42.449312000" lon="-2.445424000">
        <ele>404.60</ele>
        <time>2014-11-01T11:22:59Z</time>
      </trkpt>
      <trkpt lat="42.449364000" lon="-2.445430000">
        <ele>404.60</ele>
        <time>2014-11-01T11:23:00Z</time>
      </trkpt>
      <trkpt lat="42.449414000" lon="-2.445436000">
        <ele>404.60</ele>
        <time>2014-11-01T11:23:01Z</time>
      </trkpt>
      <trkpt lat="42.449467000" lon="-2.445446000">
        <ele>404.60</ele>
        <time>2014-11-01T11:23:02Z</time>
      </trkpt>
      <trkpt lat="42.449522000" lon="-2.445465000">
        <ele>404.50</ele>
        <time>2014-11-01T11:23:03Z</time>
      </trkpt>
      <trkpt lat="42.449581000" lon="-2.445492000">
        <ele>404.50</ele>
        <time>2014-11-01T11:23:04Z</time>
      </trkpt>
      <trkpt lat="42.449635000" lon="-2.445529000">
        <ele>404.60</ele>
        <time>2014-11-01T11:23:05Z</time>
      </trkpt>
      <trkpt lat="42.449692000" lon="-2.445564000">
        <ele>404.50</ele>
        <time>2014-11-01T11:23:06Z</time>
      </trkpt>
      <trkpt lat="42.449752000" lon="-2.445593000">
        <ele>404.50</ele>
        <time>2014-11-01T11:23:07Z</time>
      </trkpt>
      <trkpt lat="42.449814000" lon="-2.445610000">
        <ele>404.40</ele>
        <time>2014-11-01T11:23:08Z</time>
      </trkpt>
      <trkpt lat="42.449878000" lon="-2.445617000">
        <ele>404.30</ele>
        <time>2014-11-01T11:23:09Z</time>
      </trkpt>
      <trkpt lat="42.449941000" lon="-2.445621000">
        <ele>404.30</ele>
        <time>2014-11-01T11:23:10Z</time>
      </trkpt>
      <trkpt lat="42.450010000" lon="-2.445627000">
        <ele>404.20</ele>
        <time>2014-11-01T11:23:11Z</time>
      </trkpt>
      <trkpt lat="42.450076000" lon="-2.445640000">
        <ele>404.20</ele>
        <time>2014-11-01T11:23:12Z</time>
      </trkpt>
      <trkpt lat="42.450140000" lon="-2.445650000">
        <ele>404.20</ele>
        <time>2014-11-01T11:23:13Z</time>
      </trkpt>
      <trkpt lat="42.450202000" lon="-2.445662000">
        <ele>404.10</ele>
        <time>2014-11-01T11:23:14Z</time>
      </trkpt>
      <trkpt lat="42.450262000" lon="-2.445663000">
        <ele>404.10</ele>
        <time>2014-11-01T11:23:15Z</time>
      </trkpt>
      <trkpt lat="42.450328000" lon="-2.445663000">
        <ele>403.90</ele>
        <time>2014-11-01T11:23:16Z</time>
      </trkpt>
      <trkpt lat="42.450391000" lon="-2.445664000">
        <ele>403.80</ele>
        <time>2014-11-01T11:23:17Z</time>
      </trkpt>
      <trkpt lat="42.450454000" lon="-2.445662000">
        <ele>403.70</ele>
        <time>2014-11-01T11:23:18Z</time>
      </trkpt>
      <trkpt lat="42.450518000" lon="-2.445663000">
        <ele>403.60</ele>
        <time>2014-11-01T11:23:19Z</time>
      </trkpt>
      <trkpt lat="42.450577000" lon="-2.445672000">
        <ele>403.50</ele>
        <time>2014-11-01T11:23:20Z</time>
      </trkpt>
      <trkpt lat="42.450635000" lon="-2.445690000">
        <ele>403.50</ele>
        <time>2014-11-01T11:23:21Z</time>
      </trkpt>
      <trkpt lat="42.450694000" lon="-2.445710000">
        <ele>403.40</ele>
        <time>2014-11-01T11:23:22Z</time>
      </trkpt>
      <trkpt lat="42.450753000" lon="-2.445725000">
        <ele>403.40</ele>
        <time>2014-11-01T11:23:23Z</time>
      </trkpt>
      <trkpt lat="42.450813000" lon="-2.445739000">
        <ele>403.30</ele>
        <time>2014-11-01T11:23:24Z</time>
      </trkpt>
      <trkpt lat="42.450874000" lon="-2.445752000">
        <ele>403.30</ele>
        <time>2014-11-01T11:23:25Z</time>
      </trkpt>
      <trkpt lat="42.450933000" lon="-2.445772000">
        <ele>403.20</ele>
        <time>2014-11-01T11:23:26Z</time>
      </trkpt>
      <trkpt lat="42.450992000" lon="-2.445795000">
        <ele>403.20</ele>
        <time>2014-11-01T11:23:27Z</time>
      </trkpt>
      <trkpt lat="42.451052000" lon="-2.445818000">
        <ele>403.10</ele>
        <time>2014-11-01T11:23:28Z</time>
      </trkpt>
      <trkpt lat="42.451112000" lon="-2.445839000">
        <ele>403.00</ele>
        <time>2014-11-01T11:23:29Z</time>
      </trkpt>
      <trkpt lat="42.451174000" lon="-2.445852000">
        <ele>403.00</ele>
        <time>2014-11-01T11:23:30Z</time>
      </trkpt>
      <trkpt lat="42.451239000" lon="-2.445863000">
        <ele>402.90</ele>
        <time>2014-11-01T11:23:31Z</time>
      </trkpt>
      <trkpt lat="42.451303000" lon="-2.445875000">
        <ele>402.70</ele>
        <time>2014-11-01T11:23:32Z</time>
      </trkpt>
      <trkpt lat="42.451370000" lon="-2.445886000">
        <ele>402.50</ele>
        <time>2014-11-01T11:23:33Z</time>
      </trkpt>
      <trkpt lat="42.451438000" lon="-2.445898000">
        <ele>402.40</ele>
        <time>2014-11-01T11:23:34Z</time>
      </trkpt>
      <trkpt lat="42.451509000" lon="-2.445911000">
        <ele>402.20</ele>
        <time>2014-11-01T11:23:35Z</time>
      </trkpt>
      <trkpt lat="42.451580000" lon="-2.445925000">
        <ele>402.20</ele>
        <time>2014-11-01T11:23:36Z</time>
      </trkpt>
      <trkpt lat="42.451649000" lon="-2.445929000">
        <ele>402.10</ele>
        <time>2014-11-01T11:23:37Z</time>
      </trkpt>
      <trkpt lat="42.451714000" lon="-2.445944000">
        <ele>402.20</ele>
        <time>2014-11-01T11:23:38Z</time>
      </trkpt>
      <trkpt lat="42.451780000" lon="-2.445964000">
        <ele>402.20</ele>
        <time>2014-11-01T11:23:39Z</time>
      </trkpt>
      <trkpt lat="42.451846000" lon="-2.445980000">
        <ele>402.20</ele>
        <time>2014-11-01T11:23:40Z</time>
      </trkpt>
      <trkpt lat="42.451914000" lon="-2.446000000">
        <ele>402.30</ele>
        <time>2014-11-01T11:23:41Z</time>
      </trkpt>
      <trkpt lat="42.451982000" lon="-2.446022000">
        <ele>402.40</ele>
        <time>2014-11-01T11:23:42Z</time>
      </trkpt>
      <trkpt lat="42.452046000" lon="-2.446041000">
        <ele>402.50</ele>
        <time>2014-11-01T11:23:43Z</time>
      </trkpt>
      <trkpt lat="42.452109000" lon="-2.446058000">
        <ele>402.60</ele>
        <time>2014-11-01T11:23:44Z</time>
      </trkpt>
      <trkpt lat="42.452174000" lon="-2.446074000">
        <ele>402.60</ele>
        <time>2014-11-01T11:23:45Z</time>
      </trkpt>
      <trkpt lat="42.452237000" lon="-2.446090000">
        <ele>402.20</ele>
        <time>2014-11-01T11:23:46Z</time>
      </trkpt>
      <trkpt lat="42.452350000" lon="-2.446114000">
        <ele>401.70</ele>
        <time>2014-11-01T11:23:48Z</time>
      </trkpt>
      <trkpt lat="42.452409000" lon="-2.446121000">
        <ele>401.50</ele>
        <time>2014-11-01T11:23:49Z</time>
      </trkpt>
      <trkpt lat="42.452464000" lon="-2.446136000">
        <ele>401.30</ele>
        <time>2014-11-01T11:23:50Z</time>
      </trkpt>
      <trkpt lat="42.452517000" lon="-2.446152000">
        <ele>401.10</ele>
        <time>2014-11-01T11:23:51Z</time>
      </trkpt>
      <trkpt lat="42.452571000" lon="-2.446169000">
        <ele>401.10</ele>
        <time>2014-11-01T11:23:52Z</time>
      </trkpt>
      <trkpt lat="42.452621000" lon="-2.446183000">
        <ele>401.10</ele>
        <time>2014-11-01T11:23:53Z</time>
      </trkpt>
      <trkpt lat="42.452671000" lon="-2.446188000">
        <ele>401.00</ele>
        <time>2014-11-01T11:23:54Z</time>
      </trkpt>
      <trkpt lat="42.452717000" lon="-2.446193000">
        <ele>400.90</ele>
        <time>2014-11-01T11:23:55Z</time>
      </trkpt>
      <trkpt lat="42.452760000" lon="-2.446198000">
        <ele>401.00</ele>
        <time>2014-11-01T11:23:56Z</time>
      </trkpt>
      <trkpt lat="42.452803000" lon="-2.446210000">
        <ele>401.10</ele>
        <time>2014-11-01T11:23:57Z</time>
      </trkpt>
      <trkpt lat="42.452846000" lon="-2.446222000">
        <ele>401.10</ele>
        <time>2014-11-01T11:23:58Z</time>
      </trkpt>
      <trkpt lat="42.452886000" lon="-2.446235000">
        <ele>401.10</ele>
        <time>2014-11-01T11:23:59Z</time>
      </trkpt>
      <trkpt lat="42.452919000" lon="-2.446249000">
        <ele>401.10</ele>
        <time>2014-11-01T11:24:00Z</time>
      </trkpt>
      <trkpt lat="42.452947000" lon="-2.446260000">
        <ele>401.10</ele>
        <time>2014-11-01T11:24:01Z</time>
      </trkpt>
      <trkpt lat="42.452970000" lon="-2.446269000">
        <ele>401.10</ele>
        <time>2014-11-01T11:24:02Z</time>
      </trkpt>
      <trkpt lat="42.452993000" lon="-2.446283000">
        <ele>401.10</ele>
        <time>2014-11-01T11:24:03Z</time>
      </trkpt>
      <trkpt lat="42.453010000" lon="-2.446294000">
        <ele>401.10</ele>
        <time>2014-11-01T11:24:04Z</time>
      </trkpt>
      <trkpt lat="42.453027000" lon="-2.446305000">
        <ele>401.10</ele>
        <time>2014-11-01T11:24:05Z</time>
      </trkpt>
      <trkpt lat="42.453043000" lon="-2.446318000">
        <ele>401.00</ele>
        <time>2014-11-01T11:24:06Z</time>
      </trkpt>
      <trkpt lat="42.453058000" lon="-2.446327000">
        <ele>401.00</ele>
        <time>2014-11-01T11:24:07Z</time>
      </trkpt>
      <trkpt lat="42.453072000" lon="-2.446342000">
        <ele>401.10</ele>
        <time>2014-11-01T11:24:08Z</time>
      </trkpt>
      <trkpt lat="42.453086000" lon="-2.446352000">
        <ele>401.10</ele>
        <time>2014-11-01T11:24:09Z</time>
      </trkpt>
      <trkpt lat="42.453099000" lon="-2.446364000">
        <ele>401.20</ele>
        <time>2014-11-01T11:24:10Z</time>
      </trkpt>
      <trkpt lat="42.453113000" lon="-2.446376000">
        <ele>401.20</ele>
        <time>2014-11-01T11:24:11Z</time>
      </trkpt>
      <trkpt lat="42.453121000" lon="-2.446387000">
        <ele>401.20</ele>
        <time>2014-11-01T11:24:12Z</time>
      </trkpt>
      <trkpt lat="42.453124000" lon="-2.446407000">
        <ele>401.10</ele>
        <time>2014-11-01T11:24:13Z</time>
      </trkpt>
      <trkpt lat="42.453128000" lon="-2.446420000">
        <ele>401.10</ele>
        <time>2014-11-01T11:24:14Z</time>
      </trkpt>
      <trkpt lat="42.453130000" lon="-2.446424000">
        <ele>401.10</ele>
        <time>2014-11-01T11:24:15Z</time>
      </trkpt>
      <trkpt lat="42.453131000" lon="-2.446428000">
        <ele>400.90</ele>
        <time>2014-11-01T11:24:16Z</time>
      </trkpt>
      <trkpt lat="42.453132000" lon="-2.446434000">
        <ele>400.80</ele>
        <time>2014-11-01T11:24:17Z</time>
      </trkpt>
      <trkpt lat="42.453131000" lon="-2.446448000">
        <ele>400.70</ele>
        <time>2014-11-01T11:24:18Z</time>
      </trkpt>
      <trkpt lat="42.453128000" lon="-2.446466000">
        <ele>400.70</ele>
        <time>2014-11-01T11:24:19Z</time>
      </trkpt>
      <trkpt lat="42.453125000" lon="-2.446492000">
        <ele>400.60</ele>
        <time>2014-11-01T11:24:20Z</time>
      </trkpt>
      <trkpt lat="42.453126000" lon="-2.446517000">
        <ele>400.60</ele>
        <time>2014-11-01T11:24:21Z</time>
      </trkpt>
      <trkpt lat="42.453131000" lon="-2.446553000">
        <ele>400.60</ele>
        <time>2014-11-01T11:24:22Z</time>
      </trkpt>
      <trkpt lat="42.453134000" lon="-2.446592000">
        <ele>400.60</ele>
        <time>2014-11-01T11:24:23Z</time>
      </trkpt>
      <trkpt lat="42.453139000" lon="-2.446639000">
        <ele>400.50</ele>
        <time>2014-11-01T11:24:24Z</time>
      </trkpt>
      <trkpt lat="42.453145000" lon="-2.446692000">
        <ele>400.50</ele>
        <time>2014-11-01T11:24:25Z</time>
      </trkpt>
      <trkpt lat="42.453154000" lon="-2.446747000">
        <ele>400.50</ele>
        <time>2014-11-01T11:24:26Z</time>
      </trkpt>
      <trkpt lat="42.453159000" lon="-2.446807000">
        <ele>400.50</ele>
        <time>2014-11-01T11:24:27Z</time>
      </trkpt>
      <trkpt lat="42.453166000" lon="-2.446864000">
        <ele>400.50</ele>
        <time>2014-11-01T11:24:28Z</time>
      </trkpt>
      <trkpt lat="42.453176000" lon="-2.446924000">
        <ele>400.40</ele>
        <time>2014-11-01T11:24:29Z</time>
      </trkpt>
      <trkpt lat="42.453187000" lon="-2.446979000">
        <ele>400.40</ele>
        <time>2014-11-01T11:24:30Z</time>
      </trkpt>
      <trkpt lat="42.453198000" lon="-2.447033000">
        <ele>400.30</ele>
        <time>2014-11-01T11:24:31Z</time>
      </trkpt>
      <trkpt lat="42.453206000" lon="-2.447081000">
        <ele>400.40</ele>
        <time>2014-11-01T11:24:32Z</time>
      </trkpt>
      <trkpt lat="42.453219000" lon="-2.447134000">
        <ele>400.40</ele>
        <time>2014-11-01T11:24:33Z</time>
      </trkpt>
      <trkpt lat="42.453230000" lon="-2.447189000">
        <ele>400.60</ele>
        <time>2014-11-01T11:24:34Z</time>
      </trkpt>
      <trkpt lat="42.453241000" lon="-2.447240000">
        <ele>400.80</ele>
        <time>2014-11-01T11:24:35Z</time>
      </trkpt>
      <trkpt lat="42.453250000" lon="-2.447296000">
        <ele>400.90</ele>
        <time>2014-11-01T11:24:36Z</time>
      </trkpt>
      <trkpt lat="42.453256000" lon="-2.447354000">
        <ele>401.00</ele>
        <time>2014-11-01T11:24:37Z</time>
      </trkpt>
      <trkpt lat="42.453264000" lon="-2.447413000">
        <ele>401.10</ele>
        <time>2014-11-01T11:24:38Z</time>
      </trkpt>
      <trkpt lat="42.453270000" lon="-2.447470000">
        <ele>401.20</ele>
        <time>2014-11-01T11:24:39Z</time>
      </trkpt>
      <trkpt lat="42.453280000" lon="-2.447525000">
        <ele>401.20</ele>
        <time>2014-11-01T11:24:40Z</time>
      </trkpt>
      <trkpt lat="42.453287000" lon="-2.447584000">
        <ele>401.30</ele>
        <time>2014-11-01T11:24:41Z</time>
      </trkpt>
      <trkpt lat="42.453296000" lon="-2.447647000">
        <ele>401.30</ele>
        <time>2014-11-01T11:24:42Z</time>
      </trkpt>
      <trkpt lat="42.453305000" lon="-2.447709000">
        <ele>401.30</ele>
        <time>2014-11-01T11:24:43Z</time>
      </trkpt>
      <trkpt lat="42.453307000" lon="-2.447771000">
        <ele>401.30</ele>
        <time>2014-11-01T11:24:44Z</time>
      </trkpt>
      <trkpt lat="42.453311000" lon="-2.447817000">
        <ele>401.30</ele>
        <time>2014-11-01T11:24:45Z</time>
      </trkpt>
      <trkpt lat="42.453316000" lon="-2.447855000">
        <ele>401.30</ele>
        <time>2014-11-01T11:24:46Z</time>
      </trkpt>
      <trkpt lat="42.453322000" lon="-2.447881000">
        <ele>401.40</ele>
        <time>2014-11-01T11:24:47Z</time>
      </trkpt>
      <trkpt lat="42.453327000" lon="-2.447928000">
        <ele>401.60</ele>
        <time>2014-11-01T11:24:49Z</time>
      </trkpt>
      <trkpt lat="42.453332000" lon="-2.447946000">
        <ele>401.70</ele>
        <time>2014-11-01T11:24:50Z</time>
      </trkpt>
      <trkpt lat="42.453341000" lon="-2.447967000">
        <ele>401.80</ele>
        <time>2014-11-01T11:24:51Z</time>
      </trkpt>
      <trkpt lat="42.453364000" lon="-2.447976000">
        <ele>401.80</ele>
        <time>2014-11-01T11:24:52Z</time>
      </trkpt>
      <trkpt lat="42.453386000" lon="-2.447978000">
        <ele>401.90</ele>
        <time>2014-11-01T11:24:53Z</time>
      </trkpt>
      <trkpt lat="42.453408000" lon="-2.447984000">
        <ele>401.80</ele>
        <time>2014-11-01T11:24:54Z</time>
      </trkpt>
      <trkpt lat="42.453429000" lon="-2.447989000">
        <ele>401.70</ele>
        <time>2014-11-01T11:24:55Z</time>
      </trkpt>
      <trkpt lat="42.453453000" lon="-2.447984000">
        <ele>401.70</ele>
        <time>2014-11-01T11:24:56Z</time>
      </trkpt>
      <trkpt lat="42.453477000" lon="-2.447982000">
        <ele>401.60</ele>
        <time>2014-11-01T11:24:57Z</time>
      </trkpt>
      <trkpt lat="42.453504000" lon="-2.447972000">
        <ele>401.90</ele>
        <time>2014-11-01T11:24:58Z</time>
      </trkpt>
      <trkpt lat="42.453536000" lon="-2.447962000">
        <ele>402.00</ele>
        <time>2014-11-01T11:24:59Z</time>
      </trkpt>
      <trkpt lat="42.453568000" lon="-2.447958000">
        <ele>402.20</ele>
        <time>2014-11-01T11:25:00Z</time>
      </trkpt>
      <trkpt lat="42.453605000" lon="-2.447958000">
        <ele>402.30</ele>
        <time>2014-11-01T11:25:01Z</time>
      </trkpt>
      <trkpt lat="42.453641000" lon="-2.447960000">
        <ele>402.30</ele>
        <time>2014-11-01T11:25:02Z</time>
      </trkpt>
      <trkpt lat="42.453669000" lon="-2.447963000">
        <ele>402.40</ele>
        <time>2014-11-01T11:25:03Z</time>
      </trkpt>
      <trkpt lat="42.453697000" lon="-2.447970000">
        <ele>402.60</ele>
        <time>2014-11-01T11:25:04Z</time>
      </trkpt>
      <trkpt lat="42.453726000" lon="-2.447967000">
        <ele>402.70</ele>
        <time>2014-11-01T11:25:05Z</time>
      </trkpt>
      <trkpt lat="42.453752000" lon="-2.447969000">
        <ele>402.70</ele>
        <time>2014-11-01T11:25:06Z</time>
      </trkpt>
      <trkpt lat="42.453778000" lon="-2.447992000">
        <ele>402.70</ele>
        <time>2014-11-01T11:25:07Z</time>
      </trkpt>
      <trkpt lat="42.453803000" lon="-2.448024000">
        <ele>402.80</ele>
        <time>2014-11-01T11:25:08Z</time>
      </trkpt>
      <trkpt lat="42.453820000" lon="-2.448073000">
        <ele>402.80</ele>
        <time>2014-11-01T11:25:09Z</time>
      </trkpt>
      <trkpt lat="42.453835000" lon="-2.448128000">
        <ele>402.70</ele>
        <time>2014-11-01T11:25:10Z</time>
      </trkpt>
      <trkpt lat="42.453850000" lon="-2.448187000">
        <ele>402.70</ele>
        <time>2014-11-01T11:25:11Z</time>
      </trkpt>
      <trkpt lat="42.453861000" lon="-2.448246000">
        <ele>402.70</ele>
        <time>2014-11-01T11:25:12Z</time>
      </trkpt>
      <trkpt lat="42.453868000" lon="-2.448305000">
        <ele>402.60</ele>
        <time>2014-11-01T11:25:13Z</time>
      </trkpt>
      <trkpt lat="42.453869000" lon="-2.448368000">
        <ele>402.60</ele>
        <time>2014-11-01T11:25:14Z</time>
      </trkpt>
      <trkpt lat="42.453866000" lon="-2.448432000">
        <ele>402.60</ele>
        <time>2014-11-01T11:25:15Z</time>
      </trkpt>
      <trkpt lat="42.453859000" lon="-2.448498000">
        <ele>402.50</ele>
        <time>2014-11-01T11:25:16Z</time>
      </trkpt>
      <trkpt lat="42.453851000" lon="-2.448560000">
        <ele>402.40</ele>
        <time>2014-11-01T11:25:17Z</time>
      </trkpt>
      <trkpt lat="42.453843000" lon="-2.448624000">
        <ele>402.10</ele>
        <time>2014-11-01T11:25:18Z</time>
      </trkpt>
      <trkpt lat="42.453837000" lon="-2.448685000">
        <ele>401.90</ele>
        <time>2014-11-01T11:25:19Z</time>
      </trkpt>
      <trkpt lat="42.453837000" lon="-2.448748000">
        <ele>401.70</ele>
        <time>2014-11-01T11:25:20Z</time>
      </trkpt>
      <trkpt lat="42.453839000" lon="-2.448815000">
        <ele>401.60</ele>
        <time>2014-11-01T11:25:21Z</time>
      </trkpt>
      <trkpt lat="42.453844000" lon="-2.448885000">
        <ele>401.50</ele>
        <time>2014-11-01T11:25:22Z</time>
      </trkpt>
      <trkpt lat="42.453853000" lon="-2.448948000">
        <ele>401.50</ele>
        <time>2014-11-01T11:25:23Z</time>
      </trkpt>
      <trkpt lat="42.453870000" lon="-2.449002000">
        <ele>401.60</ele>
        <time>2014-11-01T11:25:24Z</time>
      </trkpt>
      <trkpt lat="42.453895000" lon="-2.449052000">
        <ele>401.70</ele>
        <time>2014-11-01T11:25:25Z</time>
      </trkpt>
      <trkpt lat="42.453918000" lon="-2.449102000">
        <ele>401.80</ele>
        <time>2014-11-01T11:25:26Z</time>
      </trkpt>
      <trkpt lat="42.453938000" lon="-2.449158000">
        <ele>401.90</ele>
        <time>2014-11-01T11:25:27Z</time>
      </trkpt>
      <trkpt lat="42.453952000" lon="-2.449220000">
        <ele>401.90</ele>
        <time>2014-11-01T11:25:28Z</time>
      </trkpt>
      <trkpt lat="42.453970000" lon="-2.449290000">
        <ele>401.90</ele>
        <time>2014-11-01T11:25:29Z</time>
      </trkpt>
      <trkpt lat="42.453980000" lon="-2.449371000">
        <ele>402.00</ele>
        <time>2014-11-01T11:25:30Z</time>
      </trkpt>
      <trkpt lat="42.453989000" lon="-2.449456000">
        <ele>402.10</ele>
        <time>2014-11-01T11:25:31Z</time>
      </trkpt>
      <trkpt lat="42.453999000" lon="-2.449542000">
        <ele>402.20</ele>
        <time>2014-11-01T11:25:32Z</time>
      </trkpt>
      <trkpt lat="42.454011000" lon="-2.449628000">
        <ele>402.20</ele>
        <time>2014-11-01T11:25:33Z</time>
      </trkpt>
      <trkpt lat="42.454026000" lon="-2.449721000">
        <ele>402.40</ele>
        <time>2014-11-01T11:25:34Z</time>
      </trkpt>
      <trkpt lat="42.454042000" lon="-2.449815000">
        <ele>402.60</ele>
        <time>2014-11-01T11:25:35Z</time>
      </trkpt>
      <trkpt lat="42.454053000" lon="-2.449916000">
        <ele>402.70</ele>
        <time>2014-11-01T11:25:36Z</time>
      </trkpt>
      <trkpt lat="42.454067000" lon="-2.450013000">
        <ele>402.80</ele>
        <time>2014-11-01T11:25:37Z</time>
      </trkpt>
      <trkpt lat="42.454082000" lon="-2.450111000">
        <ele>402.90</ele>
        <time>2014-11-01T11:25:38Z</time>
      </trkpt>
      <trkpt lat="42.454097000" lon="-2.450210000">
        <ele>402.90</ele>
        <time>2014-11-01T11:25:39Z</time>
      </trkpt>
      <trkpt lat="42.454112000" lon="-2.450307000">
        <ele>402.80</ele>
        <time>2014-11-01T11:25:40Z</time>
      </trkpt>
      <trkpt lat="42.454128000" lon="-2.450406000">
        <ele>402.60</ele>
        <time>2014-11-01T11:25:41Z</time>
      </trkpt>
      <trkpt lat="42.454143000" lon="-2.450504000">
        <ele>402.50</ele>
        <time>2014-11-01T11:25:42Z</time>
      </trkpt>
      <trkpt lat="42.454158000" lon="-2.450599000">
        <ele>402.40</ele>
        <time>2014-11-01T11:25:43Z</time>
      </trkpt>
      <trkpt lat="42.454174000" lon="-2.450696000">
        <ele>402.30</ele>
        <time>2014-11-01T11:25:44Z</time>
      </trkpt>
      <trkpt lat="42.454189000" lon="-2.450789000">
        <ele>402.30</ele>
        <time>2014-11-01T11:25:45Z</time>
      </trkpt>
      <trkpt lat="42.454205000" lon="-2.450877000">
        <ele>402.40</ele>
        <time>2014-11-01T11:25:46Z</time>
      </trkpt>
      <trkpt lat="42.454219000" lon="-2.450948000">
        <ele>402.60</ele>
        <time>2014-11-01T11:25:47Z</time>
      </trkpt>
      <trkpt lat="42.454232000" lon="-2.451010000">
        <ele>402.60</ele>
        <time>2014-11-01T11:25:48Z</time>
      </trkpt>
      <trkpt lat="42.454256000" lon="-2.451120000">
        <ele>402.80</ele>
        <time>2014-11-01T11:25:50Z</time>
      </trkpt>
      <trkpt lat="42.454268000" lon="-2.451171000">
        <ele>402.80</ele>
        <time>2014-11-01T11:25:51Z</time>
      </trkpt>
      <trkpt lat="42.454286000" lon="-2.451223000">
        <ele>402.70</ele>
        <time>2014-11-01T11:25:52Z</time>
      </trkpt>
      <trkpt lat="42.454315000" lon="-2.451273000">
        <ele>402.60</ele>
        <time>2014-11-01T11:25:53Z</time>
      </trkpt>
      <trkpt lat="42.454347000" lon="-2.451329000">
        <ele>402.50</ele>
        <time>2014-11-01T11:25:54Z</time>
      </trkpt>
      <trkpt lat="42.454386000" lon="-2.451380000">
        <ele>402.40</ele>
        <time>2014-11-01T11:25:55Z</time>
      </trkpt>
      <trkpt lat="42.454429000" lon="-2.451426000">
        <ele>402.30</ele>
        <time>2014-11-01T11:25:56Z</time>
      </trkpt>
      <trkpt lat="42.454470000" lon="-2.451467000">
        <ele>402.30</ele>
        <time>2014-11-01T11:25:57Z</time>
      </trkpt>
      <trkpt lat="42.454514000" lon="-2.451491000">
        <ele>402.40</ele>
        <time>2014-11-01T11:25:58Z</time>
      </trkpt>
      <trkpt lat="42.454522000" lon="-2.451513000">
        <ele>402.60</ele>
        <time>2014-11-01T11:25:59Z</time>
      </trkpt>
      <trkpt lat="42.454543000" lon="-2.451503000">
        <ele>402.60</ele>
        <time>2014-11-01T11:26:00Z</time>
      </trkpt>
      <trkpt lat="42.454566000" lon="-2.451506000">
        <ele>402.70</ele>
        <time>2014-11-01T11:26:01Z</time>
      </trkpt>
      <trkpt lat="42.454567000" lon="-2.451562000">
        <ele>402.50</ele>
        <time>2014-11-01T11:26:02Z</time>
      </trkpt>
      <trkpt lat="42.454582000" lon="-2.451605000">
        <ele>402.30</ele>
        <time>2014-11-01T11:26:03Z</time>
      </trkpt>
      <trkpt lat="42.454588000" lon="-2.451656000">
        <ele>402.20</ele>
        <time>2014-11-01T11:26:04Z</time>
      </trkpt>
      <trkpt lat="42.454588000" lon="-2.451714000">
        <ele>402.00</ele>
        <time>2014-11-01T11:26:05Z</time>
      </trkpt>
      <trkpt lat="42.454577000" lon="-2.451766000">
        <ele>402.00</ele>
        <time>2014-11-01T11:26:06Z</time>
      </trkpt>
      <trkpt lat="42.454541000" lon="-2.451810000">
        <ele>402.00</ele>
        <time>2014-11-01T11:26:07Z</time>
      </trkpt>
      <trkpt lat="42.454503000" lon="-2.451852000">
        <ele>401.90</ele>
        <time>2014-11-01T11:26:08Z</time>
      </trkpt>
      <trkpt lat="42.454471000" lon="-2.451903000">
        <ele>401.90</ele>
        <time>2014-11-01T11:26:09Z</time>
      </trkpt>
      <trkpt lat="42.454448000" lon="-2.451961000">
        <ele>402.00</ele>
        <time>2014-11-01T11:26:10Z</time>
      </trkpt>
      <trkpt lat="42.454430000" lon="-2.452025000">
        <ele>402.10</ele>
        <time>2014-11-01T11:26:11Z</time>
      </trkpt>
      <trkpt lat="42.454415000" lon="-2.452089000">
        <ele>402.20</ele>
        <time>2014-11-01T11:26:12Z</time>
      </trkpt>
      <trkpt lat="42.454409000" lon="-2.452157000">
        <ele>402.20</ele>
        <time>2014-11-01T11:26:13Z</time>
      </trkpt>
      <trkpt lat="42.454414000" lon="-2.452227000">
        <ele>402.30</ele>
        <time>2014-11-01T11:26:14Z</time>
      </trkpt>
      <trkpt lat="42.454423000" lon="-2.452290000">
        <ele>402.30</ele>
        <time>2014-11-01T11:26:15Z</time>
      </trkpt>
      <trkpt lat="42.454435000" lon="-2.452354000">
        <ele>402.30</ele>
        <time>2014-11-01T11:26:16Z</time>
      </trkpt>
      <trkpt lat="42.454449000" lon="-2.452420000">
        <ele>402.20</ele>
        <time>2014-11-01T11:26:17Z</time>
      </trkpt>
      <trkpt lat="42.454462000" lon="-2.452488000">
        <ele>402.10</ele>
        <time>2014-11-01T11:26:18Z</time>
      </trkpt>
      <trkpt lat="42.454478000" lon="-2.452555000">
        <ele>402.10</ele>
        <time>2014-11-01T11:26:19Z</time>
      </trkpt>
      <trkpt lat="42.454494000" lon="-2.452621000">
        <ele>402.10</ele>
        <time>2014-11-01T11:26:20Z</time>
      </trkpt>
      <trkpt lat="42.454509000" lon="-2.452688000">
        <ele>402.10</ele>
        <time>2014-11-01T11:26:21Z</time>
      </trkpt>
      <trkpt lat="42.454526000" lon="-2.452757000">
        <ele>402.00</ele>
        <time>2014-11-01T11:26:22Z</time>
      </trkpt>
      <trkpt lat="42.454541000" lon="-2.452827000">
        <ele>402.00</ele>
        <time>2014-11-01T11:26:23Z</time>
      </trkpt>
      <trkpt lat="42.454557000" lon="-2.452897000">
        <ele>402.00</ele>
        <time>2014-11-01T11:26:24Z</time>
      </trkpt>
      <trkpt lat="42.454574000" lon="-2.452968000">
        <ele>401.90</ele>
        <time>2014-11-01T11:26:25Z</time>
      </trkpt>
      <trkpt lat="42.454590000" lon="-2.453038000">
        <ele>401.80</ele>
        <time>2014-11-01T11:26:26Z</time>
      </trkpt>
      <trkpt lat="42.454609000" lon="-2.453107000">
        <ele>401.70</ele>
        <time>2014-11-01T11:26:27Z</time>
      </trkpt>
      <trkpt lat="42.454627000" lon="-2.453178000">
        <ele>401.60</ele>
        <time>2014-11-01T11:26:28Z</time>
      </trkpt>
      <trkpt lat="42.454642000" lon="-2.453252000">
        <ele>401.50</ele>
        <time>2014-11-01T11:26:29Z</time>
      </trkpt>
      <trkpt lat="42.454661000" lon="-2.453326000">
        <ele>401.40</ele>
        <time>2014-11-01T11:26:30Z</time>
      </trkpt>
      <trkpt lat="42.454677000" lon="-2.453398000">
        <ele>401.20</ele>
        <time>2014-11-01T11:26:31Z</time>
      </trkpt>
      <trkpt lat="42.454691000" lon="-2.453468000">
        <ele>401.10</ele>
        <time>2014-11-01T11:26:32Z</time>
      </trkpt>
      <trkpt lat="42.454704000" lon="-2.453538000">
        <ele>401.10</ele>
        <time>2014-11-01T11:26:33Z</time>
      </trkpt>
      <trkpt lat="42.454721000" lon="-2.453608000">
        <ele>400.80</ele>
        <time>2014-11-01T11:26:34Z</time>
      </trkpt>
      <trkpt lat="42.454752000" lon="-2.453663000">
        <ele>400.60</ele>
        <time>2014-11-01T11:26:35Z</time>
      </trkpt>
      <trkpt lat="42.454790000" lon="-2.453704000">
        <ele>400.80</ele>
        <time>2014-11-01T11:26:36Z</time>
      </trkpt>
      <trkpt lat="42.454829000" lon="-2.453732000">
        <ele>400.80</ele>
        <time>2014-11-01T11:26:37Z</time>
      </trkpt>
      <trkpt lat="42.454868000" lon="-2.453761000">
        <ele>400.60</ele>
        <time>2014-11-01T11:26:38Z</time>
      </trkpt>
      <trkpt lat="42.454907000" lon="-2.453793000">
        <ele>400.40</ele>
        <time>2014-11-01T11:26:39Z</time>
      </trkpt>
      <trkpt lat="42.454951000" lon="-2.453831000">
        <ele>400.30</ele>
        <time>2014-11-01T11:26:40Z</time>
      </trkpt>
      <trkpt lat="42.454998000" lon="-2.453869000">
        <ele>400.30</ele>
        <time>2014-11-01T11:26:41Z</time>
      </trkpt>
      <trkpt lat="42.455052000" lon="-2.453890000">
        <ele>400.20</ele>
        <time>2014-11-01T11:26:42Z</time>
      </trkpt>
      <trkpt lat="42.455104000" lon="-2.453915000">
        <ele>400.20</ele>
        <time>2014-11-01T11:26:43Z</time>
      </trkpt>
      <trkpt lat="42.455160000" lon="-2.453929000">
        <ele>400.20</ele>
        <time>2014-11-01T11:26:44Z</time>
      </trkpt>
      <trkpt lat="42.455217000" lon="-2.453939000">
        <ele>400.10</ele>
        <time>2014-11-01T11:26:45Z</time>
      </trkpt>
      <trkpt lat="42.455277000" lon="-2.453944000">
        <ele>400.10</ele>
        <time>2014-11-01T11:26:46Z</time>
      </trkpt>
      <trkpt lat="42.455337000" lon="-2.453952000">
        <ele>400.10</ele>
        <time>2014-11-01T11:26:47Z</time>
      </trkpt>
      <trkpt lat="42.455392000" lon="-2.453965000">
        <ele>400.10</ele>
        <time>2014-11-01T11:26:48Z</time>
      </trkpt>
      <trkpt lat="42.455442000" lon="-2.453992000">
        <ele>400.10</ele>
        <time>2014-11-01T11:26:49Z</time>
      </trkpt>
      <trkpt lat="42.455525000" lon="-2.454078000">
        <ele>400.00</ele>
        <time>2014-11-01T11:26:51Z</time>
      </trkpt>
      <trkpt lat="42.455557000" lon="-2.454130000">
        <ele>399.90</ele>
        <time>2014-11-01T11:26:52Z</time>
      </trkpt>
      <trkpt lat="42.455579000" lon="-2.454191000">
        <ele>399.90</ele>
        <time>2014-11-01T11:26:53Z</time>
      </trkpt>
      <trkpt lat="42.455593000" lon="-2.454256000">
        <ele>399.90</ele>
        <time>2014-11-01T11:26:54Z</time>
      </trkpt>
      <trkpt lat="42.455603000" lon="-2.454322000">
        <ele>399.90</ele>
        <time>2014-11-01T11:26:55Z</time>
      </trkpt>
      <trkpt lat="42.455616000" lon="-2.454385000">
        <ele>399.90</ele>
        <time>2014-11-01T11:26:56Z</time>
      </trkpt>
      <trkpt lat="42.455630000" lon="-2.454449000">
        <ele>399.80</ele>
        <time>2014-11-01T11:26:57Z</time>
      </trkpt>
      <trkpt lat="42.455646000" lon="-2.454511000">
        <ele>400.00</ele>
        <time>2014-11-01T11:26:58Z</time>
      </trkpt>
      <trkpt lat="42.455659000" lon="-2.454573000">
        <ele>400.20</ele>
        <time>2014-11-01T11:26:59Z</time>
      </trkpt>
      <trkpt lat="42.455670000" lon="-2.454635000">
        <ele>400.30</ele>
        <time>2014-11-01T11:27:00Z</time>
      </trkpt>
      <trkpt lat="42.455677000" lon="-2.454698000">
        <ele>400.40</ele>
        <time>2014-11-01T11:27:01Z</time>
      </trkpt>
      <trkpt lat="42.455691000" lon="-2.454757000">
        <ele>400.40</ele>
        <time>2014-11-01T11:27:02Z</time>
      </trkpt>
      <trkpt lat="42.455701000" lon="-2.454821000">
        <ele>400.50</ele>
        <time>2014-11-01T11:27:03Z</time>
      </trkpt>
      <trkpt lat="42.455717000" lon="-2.454884000">
        <ele>400.60</ele>
        <time>2014-11-01T11:27:04Z</time>
      </trkpt>
      <trkpt lat="42.455727000" lon="-2.454948000">
        <ele>400.60</ele>
        <time>2014-11-01T11:27:05Z</time>
      </trkpt>
      <trkpt lat="42.455738000" lon="-2.455013000">
        <ele>400.60</ele>
        <time>2014-11-01T11:27:06Z</time>
      </trkpt>
      <trkpt lat="42.455750000" lon="-2.455075000">
        <ele>400.60</ele>
        <time>2014-11-01T11:27:07Z</time>
      </trkpt>
      <trkpt lat="42.455762000" lon="-2.455134000">
        <ele>400.60</ele>
        <time>2014-11-01T11:27:08Z</time>
      </trkpt>
      <trkpt lat="42.455775000" lon="-2.455189000">
        <ele>400.60</ele>
        <time>2014-11-01T11:27:09Z</time>
      </trkpt>
      <trkpt lat="42.455786000" lon="-2.455244000">
        <ele>400.60</ele>
        <time>2014-11-01T11:27:10Z</time>
      </trkpt>
      <trkpt lat="42.455797000" lon="-2.455294000">
        <ele>400.60</ele>
        <time>2014-11-01T11:27:11Z</time>
      </trkpt>
      <trkpt lat="42.455804000" lon="-2.455343000">
        <ele>400.60</ele>
        <time>2014-11-01T11:27:12Z</time>
      </trkpt>
      <trkpt lat="42.455813000" lon="-2.455381000">
        <ele>400.60</ele>
        <time>2014-11-01T11:27:13Z</time>
      </trkpt>
      <trkpt lat="42.455822000" lon="-2.455422000">
        <ele>400.70</ele>
        <time>2014-11-01T11:27:14Z</time>
      </trkpt>
      <trkpt lat="42.455825000" lon="-2.455473000">
        <ele>400.70</ele>
        <time>2014-11-01T11:27:15Z</time>
      </trkpt>
      <trkpt lat="42.455828000" lon="-2.455526000">
        <ele>400.70</ele>
        <time>2014-11-01T11:27:16Z</time>
      </trkpt>
      <trkpt lat="42.455830000" lon="-2.455586000">
        <ele>400.80</ele>
        <time>2014-11-01T11:27:17Z</time>
      </trkpt>
      <trkpt lat="42.455833000" lon="-2.455648000">
        <ele>400.80</ele>
        <time>2014-11-01T11:27:18Z</time>
      </trkpt>
      <trkpt lat="42.455835000" lon="-2.455708000">
        <ele>400.80</ele>
        <time>2014-11-01T11:27:19Z</time>
      </trkpt>
      <trkpt lat="42.455835000" lon="-2.455768000">
        <ele>400.70</ele>
        <time>2014-11-01T11:27:20Z</time>
      </trkpt>
      <trkpt lat="42.455829000" lon="-2.455829000">
        <ele>400.70</ele>
        <time>2014-11-01T11:27:21Z</time>
      </trkpt>
      <trkpt lat="42.455821000" lon="-2.455886000">
        <ele>400.80</ele>
        <time>2014-11-01T11:27:22Z</time>
      </trkpt>
      <trkpt lat="42.455814000" lon="-2.455946000">
        <ele>400.90</ele>
        <time>2014-11-01T11:27:23Z</time>
      </trkpt>
      <trkpt lat="42.455803000" lon="-2.456005000">
        <ele>400.90</ele>
        <time>2014-11-01T11:27:24Z</time>
      </trkpt>
      <trkpt lat="42.455790000" lon="-2.456062000">
        <ele>401.00</ele>
        <time>2014-11-01T11:27:25Z</time>
      </trkpt>
      <trkpt lat="42.455775000" lon="-2.456123000">
        <ele>401.00</ele>
        <time>2014-11-01T11:27:26Z</time>
      </trkpt>
      <trkpt lat="42.455758000" lon="-2.456181000">
        <ele>401.00</ele>
        <time>2014-11-01T11:27:27Z</time>
      </trkpt>
      <trkpt lat="42.455739000" lon="-2.456235000">
        <ele>401.10</ele>
        <time>2014-11-01T11:27:28Z</time>
      </trkpt>
      <trkpt lat="42.455719000" lon="-2.456293000">
        <ele>401.10</ele>
        <time>2014-11-01T11:27:29Z</time>
      </trkpt>
      <trkpt lat="42.455695000" lon="-2.456349000">
        <ele>401.10</ele>
        <time>2014-11-01T11:27:30Z</time>
      </trkpt>
      <trkpt lat="42.455669000" lon="-2.456408000">
        <ele>401.10</ele>
        <time>2014-11-01T11:27:31Z</time>
      </trkpt>
      <trkpt lat="42.455640000" lon="-2.456469000">
        <ele>401.00</ele>
        <time>2014-11-01T11:27:32Z</time>
      </trkpt>
      <trkpt lat="42.455609000" lon="-2.456526000">
        <ele>400.90</ele>
        <time>2014-11-01T11:27:33Z</time>
      </trkpt>
      <trkpt lat="42.455580000" lon="-2.456573000">
        <ele>400.90</ele>
        <time>2014-11-01T11:27:34Z</time>
      </trkpt>
      <trkpt lat="42.455544000" lon="-2.456617000">
        <ele>401.00</ele>
        <time>2014-11-01T11:27:35Z</time>
      </trkpt>
      <trkpt lat="42.455508000" lon="-2.456656000">
        <ele>401.00</ele>
        <time>2014-11-01T11:27:36Z</time>
      </trkpt>
      <trkpt lat="42.455472000" lon="-2.456698000">
        <ele>401.00</ele>
        <time>2014-11-01T11:27:37Z</time>
      </trkpt>
      <trkpt lat="42.455453000" lon="-2.456763000">
        <ele>400.90</ele>
        <time>2014-11-01T11:27:38Z</time>
      </trkpt>
      <trkpt lat="42.455435000" lon="-2.456824000">
        <ele>400.90</ele>
        <time>2014-11-01T11:27:39Z</time>
      </trkpt>
      <trkpt lat="42.455422000" lon="-2.456887000">
        <ele>400.90</ele>
        <time>2014-11-01T11:27:40Z</time>
      </trkpt>
      <trkpt lat="42.455409000" lon="-2.456945000">
        <ele>400.90</ele>
        <time>2014-11-01T11:27:41Z</time>
      </trkpt>
      <trkpt lat="42.455402000" lon="-2.457004000">
        <ele>400.90</ele>
        <time>2014-11-01T11:27:42Z</time>
      </trkpt>
      <trkpt lat="42.455395000" lon="-2.457059000">
        <ele>400.90</ele>
        <time>2014-11-01T11:27:43Z</time>
      </trkpt>
      <trkpt lat="42.455391000" lon="-2.457116000">
        <ele>401.20</ele>
        <time>2014-11-01T11:27:44Z</time>
      </trkpt>
      <trkpt lat="42.455382000" lon="-2.457173000">
        <ele>401.40</ele>
        <time>2014-11-01T11:27:45Z</time>
      </trkpt>
      <trkpt lat="42.455379000" lon="-2.457225000">
        <ele>401.50</ele>
        <time>2014-11-01T11:27:46Z</time>
      </trkpt>
      <trkpt lat="42.455371000" lon="-2.457273000">
        <ele>401.60</ele>
        <time>2014-11-01T11:27:47Z</time>
      </trkpt>
      <trkpt lat="42.455366000" lon="-2.457319000">
        <ele>401.70</ele>
        <time>2014-11-01T11:27:48Z</time>
      </trkpt>
      <trkpt lat="42.455358000" lon="-2.457360000">
        <ele>401.80</ele>
        <time>2014-11-01T11:27:49Z</time>
      </trkpt>
      <trkpt lat="42.455350000" lon="-2.457403000">
        <ele>401.90</ele>
        <time>2014-11-01T11:27:50Z</time>
      </trkpt>
      <trkpt lat="42.455334000" lon="-2.457486000">
        <ele>402.00</ele>
        <time>2014-11-01T11:27:52Z</time>
      </trkpt>
      <trkpt lat="42.455331000" lon="-2.457525000">
        <ele>402.10</ele>
        <time>2014-11-01T11:27:53Z</time>
      </trkpt>
      <trkpt lat="42.455339000" lon="-2.457566000">
        <ele>402.10</ele>
        <time>2014-11-01T11:27:54Z</time>
      </trkpt>
      <trkpt lat="42.455359000" lon="-2.457596000">
        <ele>402.10</ele>
        <time>2014-11-01T11:27:55Z</time>
      </trkpt>
      <trkpt lat="42.455390000" lon="-2.457621000">
        <ele>402.20</ele>
        <time>2014-11-01T11:27:56Z</time>
      </trkpt>
      <trkpt lat="42.455429000" lon="-2.457648000">
        <ele>402.20</ele>
        <time>2014-11-01T11:27:57Z</time>
      </trkpt>
      <trkpt lat="42.455470000" lon="-2.457676000">
        <ele>402.20</ele>
        <time>2014-11-01T11:27:58Z</time>
      </trkpt>
      <trkpt lat="42.455513000" lon="-2.457704000">
        <ele>402.20</ele>
        <time>2014-11-01T11:27:59Z</time>
      </trkpt>
      <trkpt lat="42.455556000" lon="-2.457732000">
        <ele>402.10</ele>
        <time>2014-11-01T11:28:00Z</time>
      </trkpt>
      <trkpt lat="42.455598000" lon="-2.457765000">
        <ele>402.00</ele>
        <time>2014-11-01T11:28:01Z</time>
      </trkpt>
      <trkpt lat="42.455643000" lon="-2.457799000">
        <ele>401.90</ele>
        <time>2014-11-01T11:28:02Z</time>
      </trkpt>
      <trkpt lat="42.455682000" lon="-2.457829000">
        <ele>401.90</ele>
        <time>2014-11-01T11:28:03Z</time>
      </trkpt>
      <trkpt lat="42.455721000" lon="-2.457855000">
        <ele>401.80</ele>
        <time>2014-11-01T11:28:04Z</time>
      </trkpt>
      <trkpt lat="42.455763000" lon="-2.457882000">
        <ele>401.70</ele>
        <time>2014-11-01T11:28:05Z</time>
      </trkpt>
      <trkpt lat="42.455812000" lon="-2.457913000">
        <ele>401.60</ele>
        <time>2014-11-01T11:28:06Z</time>
      </trkpt>
      <trkpt lat="42.455847000" lon="-2.457948000">
        <ele>401.50</ele>
        <time>2014-11-01T11:28:07Z</time>
      </trkpt>
      <trkpt lat="42.455881000" lon="-2.457960000">
        <ele>401.30</ele>
        <time>2014-11-01T11:28:08Z</time>
      </trkpt>
      <trkpt lat="42.455918000" lon="-2.457947000">
        <ele>401.20</ele>
        <time>2014-11-01T11:28:09Z</time>
      </trkpt>
      <trkpt lat="42.455957000" lon="-2.457936000">
        <ele>401.20</ele>
        <time>2014-11-01T11:28:10Z</time>
      </trkpt>
      <trkpt lat="42.455992000" lon="-2.457924000">
        <ele>401.10</ele>
        <time>2014-11-01T11:28:11Z</time>
      </trkpt>
      <trkpt lat="42.456026000" lon="-2.457910000">
        <ele>401.00</ele>
        <time>2014-11-01T11:28:12Z</time>
      </trkpt>
      <trkpt lat="42.456058000" lon="-2.457899000">
        <ele>400.90</ele>
        <time>2014-11-01T11:28:13Z</time>
      </trkpt>
      <trkpt lat="42.456085000" lon="-2.457889000">
        <ele>400.90</ele>
        <time>2014-11-01T11:28:14Z</time>
      </trkpt>
      <trkpt lat="42.456107000" lon="-2.457889000">
        <ele>400.90</ele>
        <time>2014-11-01T11:28:15Z</time>
      </trkpt>
      <trkpt lat="42.456135000" lon="-2.457898000">
        <ele>401.10</ele>
        <time>2014-11-01T11:28:16Z</time>
      </trkpt>
      <trkpt lat="42.456157000" lon="-2.457911000">
        <ele>401.30</ele>
        <time>2014-11-01T11:28:17Z</time>
      </trkpt>
      <trkpt lat="42.456173000" lon="-2.457932000">
        <ele>401.60</ele>
        <time>2014-11-01T11:28:18Z</time>
      </trkpt>
      <trkpt lat="42.456177000" lon="-2.457965000">
        <ele>401.90</ele>
        <time>2014-11-01T11:28:19Z</time>
      </trkpt>
      <trkpt lat="42.456182000" lon="-2.458007000">
        <ele>402.10</ele>
        <time>2014-11-01T11:28:20Z</time>
      </trkpt>
      <trkpt lat="42.456186000" lon="-2.458056000">
        <ele>402.30</ele>
        <time>2014-11-01T11:28:21Z</time>
      </trkpt>
      <trkpt lat="42.456191000" lon="-2.458105000">
        <ele>402.40</ele>
        <time>2014-11-01T11:28:22Z</time>
      </trkpt>
      <trkpt lat="42.456196000" lon="-2.458152000">
        <ele>402.50</ele>
        <time>2014-11-01T11:28:23Z</time>
      </trkpt>
      <trkpt lat="42.456202000" lon="-2.458199000">
        <ele>402.50</ele>
        <time>2014-11-01T11:28:24Z</time>
      </trkpt>
      <trkpt lat="42.456209000" lon="-2.458249000">
        <ele>402.60</ele>
        <time>2014-11-01T11:28:25Z</time>
      </trkpt>
      <trkpt lat="42.456217000" lon="-2.458299000">
        <ele>402.60</ele>
        <time>2014-11-01T11:28:26Z</time>
      </trkpt>
      <trkpt lat="42.456226000" lon="-2.458348000">
        <ele>402.50</ele>
        <time>2014-11-01T11:28:27Z</time>
      </trkpt>
      <trkpt lat="42.456231000" lon="-2.458398000">
        <ele>402.50</ele>
        <time>2014-11-01T11:28:28Z</time>
      </trkpt>
      <trkpt lat="42.456238000" lon="-2.458445000">
        <ele>402.40</ele>
        <time>2014-11-01T11:28:29Z</time>
      </trkpt>
      <trkpt lat="42.456249000" lon="-2.458499000">
        <ele>402.20</ele>
        <time>2014-11-01T11:28:30Z</time>
      </trkpt>
      <trkpt lat="42.456256000" lon="-2.458551000">
        <ele>402.00</ele>
        <time>2014-11-01T11:28:31Z</time>
      </trkpt>
      <trkpt lat="42.456265000" lon="-2.458600000">
        <ele>402.00</ele>
        <time>2014-11-01T11:28:32Z</time>
      </trkpt>
      <trkpt lat="42.456273000" lon="-2.458649000">
        <ele>402.10</ele>
        <time>2014-11-01T11:28:33Z</time>
      </trkpt>
      <trkpt lat="42.456282000" lon="-2.458702000">
        <ele>402.10</ele>
        <time>2014-11-01T11:28:34Z</time>
      </trkpt>
      <trkpt lat="42.456290000" lon="-2.458753000">
        <ele>402.00</ele>
        <time>2014-11-01T11:28:35Z</time>
      </trkpt>
      <trkpt lat="42.456299000" lon="-2.458801000">
        <ele>402.10</ele>
        <time>2014-11-01T11:28:36Z</time>
      </trkpt>
      <trkpt lat="42.456309000" lon="-2.458855000">
        <ele>402.20</ele>
        <time>2014-11-01T11:28:37Z</time>
      </trkpt>
      <trkpt lat="42.456319000" lon="-2.458909000">
        <ele>402.50</ele>
        <time>2014-11-01T11:28:38Z</time>
      </trkpt>
      <trkpt lat="42.456331000" lon="-2.458961000">
        <ele>402.70</ele>
        <time>2014-11-01T11:28:39Z</time>
      </trkpt>
      <trkpt lat="42.456342000" lon="-2.459016000">
        <ele>402.80</ele>
        <time>2014-11-01T11:28:40Z</time>
      </trkpt>
      <trkpt lat="42.456352000" lon="-2.459066000">
        <ele>402.90</ele>
        <time>2014-11-01T11:28:41Z</time>
      </trkpt>
      <trkpt lat="42.456362000" lon="-2.459116000">
        <ele>402.90</ele>
        <time>2014-11-01T11:28:42Z</time>
      </trkpt>
      <trkpt lat="42.456372000" lon="-2.459167000">
        <ele>402.80</ele>
        <time>2014-11-01T11:28:43Z</time>
      </trkpt>
      <trkpt lat="42.456381000" lon="-2.459222000">
        <ele>402.70</ele>
        <time>2014-11-01T11:28:44Z</time>
      </trkpt>
      <trkpt lat="42.456390000" lon="-2.459278000">
        <ele>402.70</ele>
        <time>2014-11-01T11:28:45Z</time>
      </trkpt>
      <trkpt lat="42.456398000" lon="-2.459334000">
        <ele>402.60</ele>
        <time>2014-11-01T11:28:46Z</time>
      </trkpt>
      <trkpt lat="42.456406000" lon="-2.459390000">
        <ele>402.60</ele>
        <time>2014-11-01T11:28:47Z</time>
      </trkpt>
      <trkpt lat="42.456418000" lon="-2.459444000">
        <ele>402.60</ele>
        <time>2014-11-01T11:28:48Z</time>
      </trkpt>
      <trkpt lat="42.456430000" lon="-2.459500000">
        <ele>402.50</ele>
        <time>2014-11-01T11:28:49Z</time>
      </trkpt>
      <trkpt lat="42.456440000" lon="-2.459559000">
        <ele>402.50</ele>
        <time>2014-11-01T11:28:50Z</time>
      </trkpt>
      <trkpt lat="42.456449000" lon="-2.459621000">
        <ele>402.40</ele>
        <time>2014-11-01T11:28:51Z</time>
      </trkpt>
      <trkpt lat="42.456465000" lon="-2.459743000">
        <ele>402.30</ele>
        <time>2014-11-01T11:28:53Z</time>
      </trkpt>
      <trkpt lat="42.456474000" lon="-2.459803000">
        <ele>402.30</ele>
        <time>2014-11-01T11:28:54Z</time>
      </trkpt>
      <trkpt lat="42.456480000" lon="-2.459861000">
        <ele>402.30</ele>
        <time>2014-11-01T11:28:55Z</time>
      </trkpt>
      <trkpt lat="42.456487000" lon="-2.459919000">
        <ele>402.30</ele>
        <time>2014-11-01T11:28:56Z</time>
      </trkpt>
      <trkpt lat="42.456498000" lon="-2.459974000">
        <ele>402.40</ele>
        <time>2014-11-01T11:28:57Z</time>
      </trkpt>
      <trkpt lat="42.456507000" lon="-2.460031000">
        <ele>402.50</ele>
        <time>2014-11-01T11:28:58Z</time>
      </trkpt>
      <trkpt lat="42.456515000" lon="-2.460088000">
        <ele>402.60</ele>
        <time>2014-11-01T11:28:59Z</time>
      </trkpt>
      <trkpt lat="42.456517000" lon="-2.460143000">
        <ele>402.70</ele>
        <time>2014-11-01T11:29:00Z</time>
      </trkpt>
      <trkpt lat="42.456522000" lon="-2.460198000">
        <ele>402.80</ele>
        <time>2014-11-01T11:29:01Z</time>
      </trkpt>
      <trkpt lat="42.456530000" lon="-2.460253000">
        <ele>402.70</ele>
        <time>2014-11-01T11:29:02Z</time>
      </trkpt>
      <trkpt lat="42.456540000" lon="-2.460305000">
        <ele>402.70</ele>
        <time>2014-11-01T11:29:03Z</time>
      </trkpt>
      <trkpt lat="42.456553000" lon="-2.460358000">
        <ele>402.60</ele>
        <time>2014-11-01T11:29:04Z</time>
      </trkpt>
      <trkpt lat="42.456565000" lon="-2.460410000">
        <ele>402.60</ele>
        <time>2014-11-01T11:29:05Z</time>
      </trkpt>
      <trkpt lat="42.456585000" lon="-2.460457000">
        <ele>402.50</ele>
        <time>2014-11-01T11:29:06Z</time>
      </trkpt>
      <trkpt lat="42.456606000" lon="-2.460502000">
        <ele>402.50</ele>
        <time>2014-11-01T11:29:07Z</time>
      </trkpt>
      <trkpt lat="42.456624000" lon="-2.460535000">
        <ele>402.60</ele>
        <time>2014-11-01T11:29:08Z</time>
      </trkpt>
      <trkpt lat="42.456644000" lon="-2.460577000">
        <ele>402.60</ele>
        <time>2014-11-01T11:29:09Z</time>
      </trkpt>
      <trkpt lat="42.456663000" lon="-2.460619000">
        <ele>402.60</ele>
        <time>2014-11-01T11:29:10Z</time>
      </trkpt>
      <trkpt lat="42.456678000" lon="-2.460665000">
        <ele>402.70</ele>
        <time>2014-11-01T11:29:11Z</time>
      </trkpt>
      <trkpt lat="42.456695000" lon="-2.460708000">
        <ele>402.70</ele>
        <time>2014-11-01T11:29:12Z</time>
      </trkpt>
      <trkpt lat="42.456706000" lon="-2.460753000">
        <ele>402.80</ele>
        <time>2014-11-01T11:29:13Z</time>
      </trkpt>
      <trkpt lat="42.456718000" lon="-2.460797000">
        <ele>402.90</ele>
        <time>2014-11-01T11:29:14Z</time>
      </trkpt>
      <trkpt lat="42.456724000" lon="-2.460847000">
        <ele>402.90</ele>
        <time>2014-11-01T11:29:15Z</time>
      </trkpt>
      <trkpt lat="42.456729000" lon="-2.460894000">
        <ele>402.90</ele>
        <time>2014-11-01T11:29:16Z</time>
      </trkpt>
      <trkpt lat="42.456735000" lon="-2.460939000">
        <ele>402.90</ele>
        <time>2014-11-01T11:29:17Z</time>
      </trkpt>
      <trkpt lat="42.456736000" lon="-2.460988000">
        <ele>402.90</ele>
        <time>2014-11-01T11:29:18Z</time>
      </trkpt>
      <trkpt lat="42.456737000" lon="-2.461037000">
        <ele>403.00</ele>
        <time>2014-11-01T11:29:19Z</time>
      </trkpt>
      <trkpt lat="42.456742000" lon="-2.461087000">
        <ele>403.00</ele>
        <time>2014-11-01T11:29:20Z</time>
      </trkpt>
      <trkpt lat="42.456747000" lon="-2.461139000">
        <ele>403.00</ele>
        <time>2014-11-01T11:29:21Z</time>
      </trkpt>
      <trkpt lat="42.456753000" lon="-2.461187000">
        <ele>402.80</ele>
        <time>2014-11-01T11:29:22Z</time>
      </trkpt>
      <trkpt lat="42.456769000" lon="-2.461223000">
        <ele>402.80</ele>
        <time>2014-11-01T11:29:23Z</time>
      </trkpt>
      <trkpt lat="42.456780000" lon="-2.461262000">
        <ele>402.70</ele>
        <time>2014-11-01T11:29:24Z</time>
      </trkpt>
      <trkpt lat="42.456789000" lon="-2.461295000">
        <ele>402.60</ele>
        <time>2014-11-01T11:29:25Z</time>
      </trkpt>
      <trkpt lat="42.456797000" lon="-2.461317000">
        <ele>402.70</ele>
        <time>2014-11-01T11:29:26Z</time>
      </trkpt>
      <trkpt lat="42.456797000" lon="-2.461346000">
        <ele>402.80</ele>
        <time>2014-11-01T11:29:27Z</time>
      </trkpt>
      <trkpt lat="42.456792000" lon="-2.461380000">
        <ele>402.80</ele>
        <time>2014-11-01T11:29:28Z</time>
      </trkpt>
      <trkpt lat="42.456797000" lon="-2.461400000">
        <ele>402.90</ele>
        <time>2014-11-01T11:29:29Z</time>
      </trkpt>
      <trkpt lat="42.456804000" lon="-2.461420000">
        <ele>403.10</ele>
        <time>2014-11-01T11:29:30Z</time>
      </trkpt>
      <trkpt lat="42.456817000" lon="-2.461431000">
        <ele>403.30</ele>
        <time>2014-11-01T11:29:31Z</time>
      </trkpt>
      <trkpt lat="42.456827000" lon="-2.461437000">
        <ele>403.40</ele>
        <time>2014-11-01T11:29:32Z</time>
      </trkpt>
      <trkpt lat="42.456836000" lon="-2.461433000">
        <ele>403.50</ele>
        <time>2014-11-01T11:29:33Z</time>
      </trkpt>
      <trkpt lat="42.456848000" lon="-2.461429000">
        <ele>403.40</ele>
        <time>2014-11-01T11:29:34Z</time>
      </trkpt>
      <trkpt lat="42.456860000" lon="-2.461442000">
        <ele>403.40</ele>
        <time>2014-11-01T11:29:35Z</time>
      </trkpt>
      <trkpt lat="42.456879000" lon="-2.461439000">
        <ele>403.30</ele>
        <time>2014-11-01T11:29:36Z</time>
      </trkpt>
      <trkpt lat="42.456906000" lon="-2.461437000">
        <ele>403.20</ele>
        <time>2014-11-01T11:29:37Z</time>
      </trkpt>
      <trkpt lat="42.456937000" lon="-2.461432000">
        <ele>403.20</ele>
        <time>2014-11-01T11:29:38Z</time>
      </trkpt>
      <trkpt lat="42.456974000" lon="-2.461431000">
        <ele>403.10</ele>
        <time>2014-11-01T11:29:39Z</time>
      </trkpt>
      <trkpt lat="42.457017000" lon="-2.461416000">
        <ele>403.20</ele>
        <time>2014-11-01T11:29:40Z</time>
      </trkpt>
      <trkpt lat="42.457060000" lon="-2.461402000">
        <ele>403.30</ele>
        <time>2014-11-01T11:29:41Z</time>
      </trkpt>
      <trkpt lat="42.457100000" lon="-2.461383000">
        <ele>403.30</ele>
        <time>2014-11-01T11:29:42Z</time>
      </trkpt>
      <trkpt lat="42.457138000" lon="-2.461368000">
        <ele>403.40</ele>
        <time>2014-11-01T11:29:43Z</time>
      </trkpt>
      <trkpt lat="42.457188000" lon="-2.461373000">
        <ele>403.50</ele>
        <time>2014-11-01T11:29:44Z</time>
      </trkpt>
      <trkpt lat="42.457231000" lon="-2.461396000">
        <ele>403.50</ele>
        <time>2014-11-01T11:29:45Z</time>
      </trkpt>
      <trkpt lat="42.457261000" lon="-2.461444000">
        <ele>403.60</ele>
        <time>2014-11-01T11:29:46Z</time>
      </trkpt>
      <trkpt lat="42.457281000" lon="-2.461499000">
        <ele>403.60</ele>
        <time>2014-11-01T11:29:47Z</time>
      </trkpt>
      <trkpt lat="42.457283000" lon="-2.461569000">
        <ele>403.70</ele>
        <time>2014-11-01T11:29:48Z</time>
      </trkpt>
      <trkpt lat="42.457282000" lon="-2.461635000">
        <ele>403.70</ele>
        <time>2014-11-01T11:29:49Z</time>
      </trkpt>
      <trkpt lat="42.457277000" lon="-2.461702000">
        <ele>403.80</ele>
        <time>2014-11-01T11:29:50Z</time>
      </trkpt>
      <trkpt lat="42.457269000" lon="-2.461768000">
        <ele>403.90</ele>
        <time>2014-11-01T11:29:51Z</time>
      </trkpt>
      <trkpt lat="42.457267000" lon="-2.461833000">
        <ele>404.00</ele>
        <time>2014-11-01T11:29:52Z</time>
      </trkpt>
      <trkpt lat="42.457266000" lon="-2.461964000">
        <ele>404.10</ele>
        <time>2014-11-01T11:29:54Z</time>
      </trkpt>
      <trkpt lat="42.457265000" lon="-2.462032000">
        <ele>404.20</ele>
        <time>2014-11-01T11:29:55Z</time>
      </trkpt>
      <trkpt lat="42.457266000" lon="-2.462097000">
        <ele>404.20</ele>
        <time>2014-11-01T11:29:56Z</time>
      </trkpt>
      <trkpt lat="42.457265000" lon="-2.462164000">
        <ele>404.20</ele>
        <time>2014-11-01T11:29:57Z</time>
      </trkpt>
      <trkpt lat="42.457263000" lon="-2.462225000">
        <ele>404.30</ele>
        <time>2014-11-01T11:29:58Z</time>
      </trkpt>
      <trkpt lat="42.457265000" lon="-2.462287000">
        <ele>404.40</ele>
        <time>2014-11-01T11:29:59Z</time>
      </trkpt>
      <trkpt lat="42.457268000" lon="-2.462348000">
        <ele>404.40</ele>
        <time>2014-11-01T11:30:00Z</time>
      </trkpt>
      <trkpt lat="42.457269000" lon="-2.462408000">
        <ele>404.40</ele>
        <time>2014-11-01T11:30:01Z</time>
      </trkpt>
      <trkpt lat="42.457272000" lon="-2.462467000">
        <ele>404.70</ele>
        <time>2014-11-01T11:30:02Z</time>
      </trkpt>
      <trkpt lat="42.457274000" lon="-2.462529000">
        <ele>404.90</ele>
        <time>2014-11-01T11:30:03Z</time>
      </trkpt>
      <trkpt lat="42.457274000" lon="-2.462586000">
        <ele>405.00</ele>
        <time>2014-11-01T11:30:04Z</time>
      </trkpt>
      <trkpt lat="42.457277000" lon="-2.462646000">
        <ele>405.10</ele>
        <time>2014-11-01T11:30:05Z</time>
      </trkpt>
      <trkpt lat="42.457280000" lon="-2.462698000">
        <ele>405.10</ele>
        <time>2014-11-01T11:30:06Z</time>
      </trkpt>
      <trkpt lat="42.457283000" lon="-2.462749000">
        <ele>405.20</ele>
        <time>2014-11-01T11:30:07Z</time>
      </trkpt>
      <trkpt lat="42.457291000" lon="-2.462799000">
        <ele>405.20</ele>
        <time>2014-11-01T11:30:08Z</time>
      </trkpt>
      <trkpt lat="42.457310000" lon="-2.462838000">
        <ele>405.20</ele>
        <time>2014-11-01T11:30:09Z</time>
      </trkpt>
      <trkpt lat="42.457338000" lon="-2.462866000">
        <ele>405.30</ele>
        <time>2014-11-01T11:30:10Z</time>
      </trkpt>
      <trkpt lat="42.457366000" lon="-2.462882000">
        <ele>405.40</ele>
        <time>2014-11-01T11:30:11Z</time>
      </trkpt>
      <trkpt lat="42.457401000" lon="-2.462879000">
        <ele>405.50</ele>
        <time>2014-11-01T11:30:12Z</time>
      </trkpt>
      <trkpt lat="42.457441000" lon="-2.462875000">
        <ele>405.60</ele>
        <time>2014-11-01T11:30:13Z</time>
      </trkpt>
      <trkpt lat="42.457484000" lon="-2.462856000">
        <ele>405.70</ele>
        <time>2014-11-01T11:30:14Z</time>
      </trkpt>
      <trkpt lat="42.457531000" lon="-2.462832000">
        <ele>405.80</ele>
        <time>2014-11-01T11:30:15Z</time>
      </trkpt>
      <trkpt lat="42.457575000" lon="-2.462821000">
        <ele>405.90</ele>
        <time>2014-11-01T11:30:16Z</time>
      </trkpt>
      <trkpt lat="42.457610000" lon="-2.462823000">
        <ele>405.90</ele>
        <time>2014-11-01T11:30:17Z</time>
      </trkpt>
      <trkpt lat="42.457651000" lon="-2.462817000">
        <ele>406.00</ele>
        <time>2014-11-01T11:30:18Z</time>
      </trkpt>
      <trkpt lat="42.457693000" lon="-2.462808000">
        <ele>406.00</ele>
        <time>2014-11-01T11:30:19Z</time>
      </trkpt>
      <trkpt lat="42.457736000" lon="-2.462796000">
        <ele>405.90</ele>
        <time>2014-11-01T11:30:20Z</time>
      </trkpt>
      <trkpt lat="42.457774000" lon="-2.462793000">
        <ele>405.80</ele>
        <time>2014-11-01T11:30:21Z</time>
      </trkpt>
      <trkpt lat="42.457812000" lon="-2.462797000">
        <ele>405.70</ele>
        <time>2014-11-01T11:30:22Z</time>
      </trkpt>
      <trkpt lat="42.457848000" lon="-2.462798000">
        <ele>405.70</ele>
        <time>2014-11-01T11:30:23Z</time>
      </trkpt>
      <trkpt lat="42.457886000" lon="-2.462792000">
        <ele>405.90</ele>
        <time>2014-11-01T11:30:24Z</time>
      </trkpt>
      <trkpt lat="42.457924000" lon="-2.462789000">
        <ele>406.00</ele>
        <time>2014-11-01T11:30:25Z</time>
      </trkpt>
      <trkpt lat="42.457962000" lon="-2.462775000">
        <ele>406.10</ele>
        <time>2014-11-01T11:30:26Z</time>
      </trkpt>
      <trkpt lat="42.457992000" lon="-2.462770000">
        <ele>406.10</ele>
        <time>2014-11-01T11:30:27Z</time>
      </trkpt>
      <trkpt lat="42.458025000" lon="-2.462761000">
        <ele>406.30</ele>
        <time>2014-11-01T11:30:28Z</time>
      </trkpt>
      <trkpt lat="42.458049000" lon="-2.462751000">
        <ele>406.40</ele>
        <time>2014-11-01T11:30:29Z</time>
      </trkpt>
      <trkpt lat="42.458093000" lon="-2.462723000">
        <ele>406.50</ele>
        <time>2014-11-01T11:30:30Z</time>
      </trkpt>
      <trkpt lat="42.458129000" lon="-2.462691000">
        <ele>406.50</ele>
        <time>2014-11-01T11:30:31Z</time>
      </trkpt>
      <trkpt lat="42.458156000" lon="-2.462664000">
        <ele>406.50</ele>
        <time>2014-11-01T11:30:32Z</time>
      </trkpt>
      <trkpt lat="42.458174000" lon="-2.462631000">
        <ele>406.50</ele>
        <time>2014-11-01T11:30:33Z</time>
      </trkpt>
      <trkpt lat="42.458196000" lon="-2.462594000">
        <ele>406.60</ele>
        <time>2014-11-01T11:30:34Z</time>
      </trkpt>
      <trkpt lat="42.458220000" lon="-2.462559000">
        <ele>406.60</ele>
        <time>2014-11-01T11:30:35Z</time>
      </trkpt>
      <trkpt lat="42.458251000" lon="-2.462543000">
        <ele>406.60</ele>
        <time>2014-11-01T11:30:36Z</time>
      </trkpt>
      <trkpt lat="42.458281000" lon="-2.462542000">
        <ele>406.60</ele>
        <time>2014-11-01T11:30:37Z</time>
      </trkpt>
      <trkpt lat="42.458312000" lon="-2.462540000">
        <ele>406.60</ele>
        <time>2014-11-01T11:30:38Z</time>
      </trkpt>
      <trkpt lat="42.458339000" lon="-2.462540000">
        <ele>406.70</ele>
        <time>2014-11-01T11:30:39Z</time>
      </trkpt>
      <trkpt lat="42.458374000" lon="-2.462538000">
        <ele>406.50</ele>
        <time>2014-11-01T11:30:40Z</time>
      </trkpt>
      <trkpt lat="42.458413000" lon="-2.462530000">
        <ele>406.40</ele>
        <time>2014-11-01T11:30:41Z</time>
      </trkpt>
      <trkpt lat="42.458442000" lon="-2.462535000">
        <ele>406.50</ele>
        <time>2014-11-01T11:30:42Z</time>
      </trkpt>
      <trkpt lat="42.458473000" lon="-2.462526000">
        <ele>406.60</ele>
        <time>2014-11-01T11:30:43Z</time>
      </trkpt>
      <trkpt lat="42.458510000" lon="-2.462504000">
        <ele>406.70</ele>
        <time>2014-11-01T11:30:44Z</time>
      </trkpt>
      <trkpt lat="42.458541000" lon="-2.462510000">
        <ele>406.80</ele>
        <time>2014-11-01T11:30:45Z</time>
      </trkpt>
      <trkpt lat="42.458582000" lon="-2.462499000">
        <ele>406.90</ele>
        <time>2014-11-01T11:30:46Z</time>
      </trkpt>
      <trkpt lat="42.458625000" lon="-2.462490000">
        <ele>406.90</ele>
        <time>2014-11-01T11:30:47Z</time>
      </trkpt>
      <trkpt lat="42.458662000" lon="-2.462479000">
        <ele>407.00</ele>
        <time>2014-11-01T11:30:48Z</time>
      </trkpt>
      <trkpt lat="42.458702000" lon="-2.462464000">
        <ele>407.00</ele>
        <time>2014-11-01T11:30:49Z</time>
      </trkpt>
      <trkpt lat="42.458739000" lon="-2.462448000">
        <ele>407.20</ele>
        <time>2014-11-01T11:30:50Z</time>
      </trkpt>
      <trkpt lat="42.458776000" lon="-2.462432000">
        <ele>407.30</ele>
        <time>2014-11-01T11:30:51Z</time>
      </trkpt>
      <trkpt lat="42.458809000" lon="-2.462421000">
        <ele>407.40</ele>
        <time>2014-11-01T11:30:52Z</time>
      </trkpt>
      <trkpt lat="42.458842000" lon="-2.462405000">
        <ele>407.40</ele>
        <time>2014-11-01T11:30:53Z</time>
      </trkpt>
      <trkpt lat="42.458921000" lon="-2.462344000">
        <ele>407.50</ele>
        <time>2014-11-01T11:30:55Z</time>
      </trkpt>
      <trkpt lat="42.458957000" lon="-2.462326000">
        <ele>407.80</ele>
        <time>2014-11-01T11:30:56Z</time>
      </trkpt>
      <trkpt lat="42.458997000" lon="-2.462315000">
        <ele>408.00</ele>
        <time>2014-11-01T11:30:57Z</time>
      </trkpt>
      <trkpt lat="42.459043000" lon="-2.462303000">
        <ele>408.20</ele>
        <time>2014-11-01T11:30:58Z</time>
      </trkpt>
      <trkpt lat="42.459089000" lon="-2.462290000">
        <ele>408.30</ele>
        <time>2014-11-01T11:30:59Z</time>
      </trkpt>
      <trkpt lat="42.459133000" lon="-2.462275000">
        <ele>408.40</ele>
        <time>2014-11-01T11:31:00Z</time>
      </trkpt>
      <trkpt lat="42.459164000" lon="-2.462270000">
        <ele>408.40</ele>
        <time>2014-11-01T11:31:01Z</time>
      </trkpt>
      <trkpt lat="42.459202000" lon="-2.462266000">
        <ele>408.40</ele>
        <time>2014-11-01T11:31:02Z</time>
      </trkpt>
      <trkpt lat="42.459235000" lon="-2.462258000">
        <ele>408.30</ele>
        <time>2014-11-01T11:31:03Z</time>
      </trkpt>
      <trkpt lat="42.459266000" lon="-2.462257000">
        <ele>408.30</ele>
        <time>2014-11-01T11:31:04Z</time>
      </trkpt>
      <trkpt lat="42.459296000" lon="-2.462265000">
        <ele>408.20</ele>
        <time>2014-11-01T11:31:05Z</time>
      </trkpt>
      <trkpt lat="42.459329000" lon="-2.462268000">
        <ele>408.30</ele>
        <time>2014-11-01T11:31:06Z</time>
      </trkpt>
      <trkpt lat="42.459366000" lon="-2.462254000">
        <ele>408.40</ele>
        <time>2014-11-01T11:31:07Z</time>
      </trkpt>
      <trkpt lat="42.459403000" lon="-2.462228000">
        <ele>408.50</ele>
        <time>2014-11-01T11:31:08Z</time>
      </trkpt>
      <trkpt lat="42.459428000" lon="-2.462204000">
        <ele>408.70</ele>
        <time>2014-11-01T11:31:09Z</time>
      </trkpt>
      <trkpt lat="42.459456000" lon="-2.462187000">
        <ele>409.00</ele>
        <time>2014-11-01T11:31:10Z</time>
      </trkpt>
      <trkpt lat="42.459485000" lon="-2.462180000">
        <ele>409.30</ele>
        <time>2014-11-01T11:31:11Z</time>
      </trkpt>
      <trkpt lat="42.459516000" lon="-2.462171000">
        <ele>409.50</ele>
        <time>2014-11-01T11:31:12Z</time>
      </trkpt>
      <trkpt lat="42.459545000" lon="-2.462193000">
        <ele>409.70</ele>
        <time>2014-11-01T11:31:13Z</time>
      </trkpt>
      <trkpt lat="42.459570000" lon="-2.462226000">
        <ele>409.80</ele>
        <time>2014-11-01T11:31:14Z</time>
      </trkpt>
      <trkpt lat="42.459600000" lon="-2.462250000">
        <ele>409.80</ele>
        <time>2014-11-01T11:31:15Z</time>
      </trkpt>
      <trkpt lat="42.459630000" lon="-2.462260000">
        <ele>409.80</ele>
        <time>2014-11-01T11:31:16Z</time>
      </trkpt>
      <trkpt lat="42.459663000" lon="-2.462268000">
        <ele>409.70</ele>
        <time>2014-11-01T11:31:17Z</time>
      </trkpt>
      <trkpt lat="42.459700000" lon="-2.462273000">
        <ele>409.60</ele>
        <time>2014-11-01T11:31:18Z</time>
      </trkpt>
      <trkpt lat="42.459751000" lon="-2.462285000">
        <ele>409.60</ele>
        <time>2014-11-01T11:31:19Z</time>
      </trkpt>
      <trkpt lat="42.459806000" lon="-2.462296000">
        <ele>409.20</ele>
        <time>2014-11-01T11:31:20Z</time>
      </trkpt>
      <trkpt lat="42.459857000" lon="-2.462304000">
        <ele>408.90</ele>
        <time>2014-11-01T11:31:21Z</time>
      </trkpt>
      <trkpt lat="42.459915000" lon="-2.462307000">
        <ele>408.70</ele>
        <time>2014-11-01T11:31:22Z</time>
      </trkpt>
      <trkpt lat="42.459970000" lon="-2.462311000">
        <ele>408.50</ele>
        <time>2014-11-01T11:31:23Z</time>
      </trkpt>
      <trkpt lat="42.460024000" lon="-2.462315000">
        <ele>408.40</ele>
        <time>2014-11-01T11:31:24Z</time>
      </trkpt>
      <trkpt lat="42.460077000" lon="-2.462333000">
        <ele>408.30</ele>
        <time>2014-11-01T11:31:25Z</time>
      </trkpt>
      <trkpt lat="42.460128000" lon="-2.462353000">
        <ele>408.30</ele>
        <time>2014-11-01T11:31:26Z</time>
      </trkpt>
      <trkpt lat="42.460171000" lon="-2.462379000">
        <ele>408.20</ele>
        <time>2014-11-01T11:31:27Z</time>
      </trkpt>
      <trkpt lat="42.460210000" lon="-2.462403000">
        <ele>407.80</ele>
        <time>2014-11-01T11:31:28Z</time>
      </trkpt>
      <trkpt lat="42.460250000" lon="-2.462427000">
        <ele>407.60</ele>
        <time>2014-11-01T11:31:29Z</time>
      </trkpt>
      <trkpt lat="42.460288000" lon="-2.462455000">
        <ele>407.20</ele>
        <time>2014-11-01T11:31:30Z</time>
      </trkpt>
      <trkpt lat="42.460330000" lon="-2.462493000">
        <ele>407.00</ele>
        <time>2014-11-01T11:31:31Z</time>
      </trkpt>
      <trkpt lat="42.460374000" lon="-2.462529000">
        <ele>406.60</ele>
        <time>2014-11-01T11:31:32Z</time>
      </trkpt>
      <trkpt lat="42.460416000" lon="-2.462563000">
        <ele>406.30</ele>
        <time>2014-11-01T11:31:33Z</time>
      </trkpt>
      <trkpt lat="42.460463000" lon="-2.462603000">
        <ele>406.10</ele>
        <time>2014-11-01T11:31:34Z</time>
      </trkpt>
      <trkpt lat="42.460509000" lon="-2.462639000">
        <ele>406.00</ele>
        <time>2014-11-01T11:31:35Z</time>
      </trkpt>
      <trkpt lat="42.460554000" lon="-2.462677000">
        <ele>405.80</ele>
        <time>2014-11-01T11:31:36Z</time>
      </trkpt>
      <trkpt lat="42.460599000" lon="-2.462715000">
        <ele>405.70</ele>
        <time>2014-11-01T11:31:37Z</time>
      </trkpt>
      <trkpt lat="42.460641000" lon="-2.462745000">
        <ele>405.70</ele>
        <time>2014-11-01T11:31:38Z</time>
      </trkpt>
      <trkpt lat="42.460684000" lon="-2.462777000">
        <ele>405.60</ele>
        <time>2014-11-01T11:31:39Z</time>
      </trkpt>
      <trkpt lat="42.460731000" lon="-2.462806000">
        <ele>405.40</ele>
        <time>2014-11-01T11:31:40Z</time>
      </trkpt>
      <trkpt lat="42.460778000" lon="-2.462844000">
        <ele>405.20</ele>
        <time>2014-11-01T11:31:41Z</time>
      </trkpt>
      <trkpt lat="42.460820000" lon="-2.462894000">
        <ele>405.10</ele>
        <time>2014-11-01T11:31:42Z</time>
      </trkpt>
      <trkpt lat="42.460856000" lon="-2.462958000">
        <ele>405.00</ele>
        <time>2014-11-01T11:31:43Z</time>
      </trkpt>
      <trkpt lat="42.460894000" lon="-2.463025000">
        <ele>404.70</ele>
        <time>2014-11-01T11:31:44Z</time>
      </trkpt>
      <trkpt lat="42.460932000" lon="-2.463088000">
        <ele>404.50</ele>
        <time>2014-11-01T11:31:45Z</time>
      </trkpt>
      <trkpt lat="42.460970000" lon="-2.463145000">
        <ele>404.10</ele>
        <time>2014-11-01T11:31:46Z</time>
      </trkpt>
      <trkpt lat="42.461007000" lon="-2.463199000">
        <ele>403.80</ele>
        <time>2014-11-01T11:31:47Z</time>
      </trkpt>
      <trkpt lat="42.461045000" lon="-2.463244000">
        <ele>403.60</ele>
        <time>2014-11-01T11:31:48Z</time>
      </trkpt>
      <trkpt lat="42.461077000" lon="-2.463284000">
        <ele>403.40</ele>
        <time>2014-11-01T11:31:49Z</time>
      </trkpt>
      <trkpt lat="42.461104000" lon="-2.463322000">
        <ele>403.50</ele>
        <time>2014-11-01T11:31:50Z</time>
      </trkpt>
      <trkpt lat="42.461124000" lon="-2.463367000">
        <ele>403.50</ele>
        <time>2014-11-01T11:31:51Z</time>
      </trkpt>
      <trkpt lat="42.461137000" lon="-2.463413000">
        <ele>403.50</ele>
        <time>2014-11-01T11:31:52Z</time>
      </trkpt>
      <trkpt lat="42.461142000" lon="-2.463461000">
        <ele>403.50</ele>
        <time>2014-11-01T11:31:53Z</time>
      </trkpt>
      <trkpt lat="42.461150000" lon="-2.463503000">
        <ele>403.60</ele>
        <time>2014-11-01T11:31:54Z</time>
      </trkpt>
      <trkpt lat="42.461155000" lon="-2.463581000">
        <ele>403.60</ele>
        <time>2014-11-01T11:31:56Z</time>
      </trkpt>
      <trkpt lat="42.461152000" lon="-2.463619000">
        <ele>403.60</ele>
        <time>2014-11-01T11:31:57Z</time>
      </trkpt>
      <trkpt lat="42.461148000" lon="-2.463652000">
        <ele>403.60</ele>
        <time>2014-11-01T11:31:58Z</time>
      </trkpt>
      <trkpt lat="42.461144000" lon="-2.463680000">
        <ele>403.60</ele>
        <time>2014-11-01T11:31:59Z</time>
      </trkpt>
      <trkpt lat="42.461142000" lon="-2.463711000">
        <ele>403.60</ele>
        <time>2014-11-01T11:32:00Z</time>
      </trkpt>
      <trkpt lat="42.461138000" lon="-2.463744000">
        <ele>403.60</ele>
        <time>2014-11-01T11:32:01Z</time>
      </trkpt>
      <trkpt lat="42.461124000" lon="-2.463769000">
        <ele>403.70</ele>
        <time>2014-11-01T11:32:02Z</time>
      </trkpt>
      <trkpt lat="42.461098000" lon="-2.463790000">
        <ele>403.70</ele>
        <time>2014-11-01T11:32:03Z</time>
      </trkpt>
      <trkpt lat="42.461083000" lon="-2.463806000">
        <ele>403.70</ele>
        <time>2014-11-01T11:32:04Z</time>
      </trkpt>
      <trkpt lat="42.461062000" lon="-2.463821000">
        <ele>403.80</ele>
        <time>2014-11-01T11:32:05Z</time>
      </trkpt>
      <trkpt lat="42.461043000" lon="-2.463837000">
        <ele>403.60</ele>
        <time>2014-11-01T11:32:06Z</time>
      </trkpt>
      <trkpt lat="42.461025000" lon="-2.463859000">
        <ele>403.50</ele>
        <time>2014-11-01T11:32:07Z</time>
      </trkpt>
      <trkpt lat="42.461013000" lon="-2.463881000">
        <ele>403.40</ele>
        <time>2014-11-01T11:32:08Z</time>
      </trkpt>
      <trkpt lat="42.461007000" lon="-2.463904000">
        <ele>403.30</ele>
        <time>2014-11-01T11:32:09Z</time>
      </trkpt>
      <trkpt lat="42.461007000" lon="-2.463904000">
        <ele>403.30</ele>
        <time>2014-11-01T11:32:09Z</time>
      </trkpt>
    </trkseg>
  </trk>
</gpx>
